
Distance (Route):
Temperature : 12.8°C
Humidity : 86.3%
Pressure : 1010.3hPa| Receiver | Frames | First received | Last received |
|---|---|---|---|
| BIOWL1-15 | 1138 | 2026-09-01 23:34:08 | 2026-09-02 02:39:25 |
| DM0DOS-11 | 1096 | 2026-09-01 23:31:44 | 2026-09-02 02:39:34 |
| DL1XH-west | 826 | 2026-09-01 23:54:35 | 2026-09-02 02:26:36 |
| DO2JMG | 529 | 2026-09-02 00:14:30 | 2026-09-02 02:15:03 |
| AA1-15 | 383 | 2026-09-02 00:27:42 | 2026-09-02 01:55:11 |
| DL1XH-15 | 360 | 2026-09-02 00:15:19 | 2026-09-02 02:10:16 |
| GOEST3-10 | 291 | 2026-09-01 23:47:36 | 2026-09-02 02:30:10 |
| DO9LL-15 | 145 | 2026-09-01 23:32:25 | 2026-09-02 02:39:12 |
| HSKMA3-T | 143 | 2026-09-02 01:03:03 | 2026-09-02 01:39:18 |
| DF5WG-10 | 105 | 2026-09-02 00:46:34 | 2026-09-02 02:21:31 |
| DL3AQ-11 | 82 | 2026-09-02 00:23:28 | 2026-09-02 02:10:48 |
| HTAHTA | 79 | 2026-09-01 23:33:20 | 2026-09-02 02:29:48 |
| DB0UT-7 | 69 | 2026-09-01 23:40:36 | 2026-09-02 02:27:39 |
| DL4BBY-15 | 66 | 2026-09-01 23:51:18 | 2026-09-02 02:31:52 |
| MET0W-2 | 65 | 2026-09-01 23:48:17 | 2026-09-02 02:35:01 |
| AU51GT2 | 55 | 2026-09-01 23:35:29 | 2026-09-02 02:16:21 |
| DO1YAY-16 | 55 | 2026-09-01 23:48:56 | 2026-09-02 02:20:35 |
| DO3DL | 54 | 2026-09-02 01:10:51 | 2026-09-02 02:26:16 |
| KNMI2-11 | 50 | 2026-09-01 23:22:31 | 2026-09-02 00:26:44 |
| BIOWL9-15 | 45 | 2026-09-01 23:34:54 | 2026-09-02 02:38:36 |
| DH3RM | 41 | 2026-09-02 00:24:47 | 2026-09-02 02:28:55 |
| DL1LOL-11 | 38 | 2026-09-01 23:40:43 | 2026-09-02 02:36:05 |
| WPPR-10 | 38 | 2026-09-02 00:02:39 | 2026-09-02 02:23:46 |
| BIOWL7-15 | 37 | 2026-09-01 23:34:52 | 2026-09-02 02:38:36 |
| DC6BW-12 | 36 | 2026-09-02 01:09:42 | 2026-09-02 02:37:52 |
| DD1CC8 | 35 | 2026-09-02 00:33:38 | 2026-09-02 02:31:08 |
| DJ2DS-15 | 31 | 2026-09-01 23:36:37 | 2026-09-02 02:30:56 |
| DO3MHA-11 | 26 | 2026-09-02 01:03:46 | 2026-09-02 01:34:13 |
| DL8DAS-14 | 25 | 2026-09-02 00:46:45 | 2026-09-02 02:12:36 |
| DD1CC3-15 | 24 | 2026-09-02 01:20:39 | 2026-09-02 02:35:58 |
| SONCRA | 23 | 2026-09-02 00:26:09 | 2026-09-02 02:06:33 |
| DD1CC2-15 | 23 | 2026-09-02 01:11:33 | 2026-09-02 02:34:11 |
| BUE01 | 20 | 2026-09-02 00:17:36 | 2026-09-02 02:20:47 |
| DD1CC1-15 | 18 | 2026-09-02 01:12:34 | 2026-09-02 02:29:37 |
| DO2KSM | 18 | 2026-09-02 01:20:24 | 2026-09-02 02:32:53 |
| DJ2KF-10 | 16 | 2026-09-02 01:26:33 | 2026-09-02 02:27:17 |
| DD1CC9-15 | 15 | 2026-09-02 01:41:02 | 2026-09-02 02:35:07 |
| DK5PH-5 | 13 | 2026-09-02 00:34:11 | 2026-09-02 01:48:06 |
| DB0ND-19 | 11 | 2026-09-02 00:09:15 | 2026-09-02 01:42:21 |
| SONDE2-11 | 11 | 2026-09-02 01:03:21 | 2026-09-02 01:39:35 |
| WEDDY | 9 | 2026-09-02 00:35:19 | 2026-09-02 02:16:35 |
| DL8DAS-15 | 9 | 2026-09-02 01:02:42 | 2026-09-02 02:05:56 |
| EDDB2-12 | 9 | 2026-09-02 01:11:29 | 2026-09-02 01:43:02 |
| DB0NH | 8 | 2026-09-02 00:26:39 | 2026-09-02 01:56:02 |
| DJ3KS | 8 | 2026-09-02 00:43:03 | 2026-09-02 02:10:31 |
| DL1ZP-14 | 6 | 2026-09-02 01:46:19 | 2026-09-02 02:01:20 |
| DL1CLM-18 | 5 | 2026-09-02 01:51:57 | 2026-09-02 02:25:51 |
| EDDB2-11 | 4 | 2026-09-02 01:27:53 | 2026-09-02 01:34:36 |
| DF2AP-13 | 3 | 2026-09-02 01:06:28 | 2026-09-02 01:09:59 |
| SMARD9-10 | 2 | 2026-09-02 01:20:34 | 2026-09-02 01:24:34 |
| Receiver | Date | Latitude | Longitude | Direction | Speed | Altitude | Climb | Temperature | Humidity | Pressure | Voltage | Killtimer | Uptime | BKT | XDATA |
|---|---|---|---|---|---|---|---|---|---|---|---|---|---|---|---|
| DM0DOS-11 | 2026-09-02 02:39:34 | 52.19749 | 7.10190 | 57° | 15km/h | 111m | -4.1m/s | 12.8°C | 86.3% | 1010.3hPa | 2.7V | 07:18:38 | 03:22:59 | 00:00:00 | |
| DM0DOS-11 | 2026-09-02 02:39:28 | 52.19746 | 7.10179 | 60° | 15km/h | 119m | -3.9m/s | 13.1°C | 85.1% | 1009.5hPa | 2.7V | 07:18:40 | 03:22:57 | 00:00:00 | |
| DM0DOS-11 | 2026-09-02 02:39:28 | 52.19744 | 7.10166 | 69° | 18km/h | 127m | -3.8m/s | 13.2°C | 84.2% | 1008.4hPa | 2.7V | 07:18:42 | 03:22:55 | 00:00:00 | |
| BIOWL1-15 | 2026-09-02 02:39:25 | 52.19742 | 7.10159 | 70° | 18km/h | 131m | -3.8m/s | 13.3°C | 82.1% | 1008.1hPa | 2.7V | 07:19:19 | 03:22:54 | 00:00:00 | |
| BIOWL1-15 | 2026-09-02 02:39:25 | 52.19741 | 7.10151 | 73° | 18km/h | 135m | -4.1m/s | 13.3°C | 81.8% | 1007.7hPa | 2.7V | 07:19:19 | 03:22:53 | 00:00:00 | |
| DM0DOS-11 | 2026-09-02 02:39:22 | 52.19738 | 7.10137 | 66° | 18km/h | 143m | -4m/s | 13.4°C | 82.7% | 1006.8hPa | 2.7V | 07:18:46 | 03:22:51 | 00:00:00 | |
| DM0DOS-11 | 2026-09-02 02:39:22 | 52.19735 | 7.10121 | 73° | 22km/h | 151m | -4m/s | 13.9°C | 79% | 1005.9hPa | 2.7V | 07:18:48 | 03:22:49 | 00:00:00 | |
| DM0DOS-11 | 2026-09-02 02:39:22 | 52.19731 | 7.10105 | 73° | 22km/h | 160m | -4m/s | 14.3°C | 76.6% | 1004.8hPa | 2.7V | 07:18:50 | 03:22:47 | 00:00:00 | |
| BIOWL1-15 | 2026-09-02 02:39:21 | 52.19736 | 7.10129 | 77° | 20km/h | 147m | -4.1m/s | 13.7°C | 79.8% | 1006.1hPa | 2.7V | 07:19:19 | 03:22:50 | 00:00:00 | |
| BIOWL1-15 | 2026-09-02 02:39:21 | 52.19735 | 7.10121 | 74° | 22km/h | 151m | -4m/s | 13.9°C | 78.7% | 1005.9hPa | 2.7V | 07:19:19 | 03:22:49 | 00:00:00 | |
| BIOWL1-15 | 2026-09-02 02:39:16 | 52.19728 | 7.10087 | 75° | 24km/h | 167m | -3.7m/s | 14.7°C | 75.2% | 1003.8hPa | 2.7V | 07:19:19 | 03:22:45 | 00:00:00 | |
| DM0DOS-11 | 2026-09-02 02:39:16 | 52.19720 | 7.10048 | 73° | 26km/h | 183m | -3.9m/s | 15.1°C | 71.4% | 1002hPa | 2.7V | 07:18:56 | 03:22:41 | 00:00:00 | |
| BIOWL1-15 | 2026-09-02 02:39:16 | 52.19726 | 7.10077 | 69° | 24km/h | 171m | -4.1m/s | 14.9°C | 74.5% | 1003.4hPa | 2.7V | 07:19:19 | 03:22:44 | 00:00:00 | |
| BIOWL1-15 | 2026-09-02 02:39:12 | 52.19722 | 7.10058 | 72° | 26km/h | 179m | -3.9m/s | 15.1°C | 73.7% | 1002.3hPa | 2.7V | 07:19:19 | 03:22:42 | 00:00:00 | |
| DO9LL-15 | 2026-09-02 02:39:12 | 52.19722 | 7.10058 | 73° | 26km/h | 179m | -3.8m/s | 15.0°C | 71.7% | 1002.3hPa | 2.7V | 00:00:00 | 03:22:42 | 00:00:00 | |
| DM0DOS-11 | 2026-09-02 02:39:10 | 52.19717 | 7.10027 | 75° | 26km/h | 190m | -4.1m/s | 15.2°C | 70.7% | 1000.9hPa | 2.7V | 07:18:58 | 03:22:39 | 00:00:00 | |
| BIOWL1-15 | 2026-09-02 02:39:10 | 52.19718 | 7.10038 | 76° | 26km/h | 187m | -3.7m/s | 15.2°C | 73.2% | 1001.6hPa | 2.7V | 07:19:19 | 03:22:40 | 00:00:00 | |
| BIOWL1-15 | 2026-09-02 02:39:08 | 52.19715 | 7.10017 | 76° | 26km/h | 194m | -4m/s | 15.2°C | 73% | 1000.5hPa | 2.7V | 07:19:19 | 03:22:38 | 00:00:00 | |
| BIOWL1-15 | 2026-09-02 02:39:07 | 52.19714 | 7.10007 | 76° | 26km/h | 198m | -3.9m/s | 15.2°C | 72.9% | 1000.1hPa | 2.7V | 07:19:19 | 03:22:37 | 00:00:00 | |
| BIOWL1-15 | 2026-09-02 02:39:05 | 52.19702 | 7.09932 | 77° | 27km/h | 225m | -4m/s | 15.7°C | 70.9% | 996.8hPa | 2.7V | 07:19:19 | 03:22:30 | 00:00:00 | |
| BIOWL1-15 | 2026-09-02 02:39:05 | 52.19701 | 7.09921 | 78° | 27km/h | 229m | -4.1m/s | 15.9°C | 70.7% | 996.4hPa | 2.7V | 07:19:19 | 03:22:29 | 00:00:00 | |
| DM0DOS-11 | 2026-09-02 02:39:04 | 52.19704 | 7.09943 | 76° | 27km/h | 221m | -4m/s | 15.6°C | 67.7% | 997.3hPa | 2.7V | 07:19:06 | 03:22:31 | 00:00:00 | |
| DO9LL-15 | 2026-09-02 02:39:02 | 52.19705 | 7.09954 | 77° | 27km/h | 217m | -4.2m/s | 15.4°C | 68.7% | 997.7hPa | 2.7V | 00:00:00 | 03:22:32 | 00:00:00 | |
| DM0DOS-11 | 2026-09-02 02:38:58 | 52.19698 | 7.09899 | 77° | 27km/h | 237m | -4.4m/s | 16°C | 65.6% | 995.5hPa | 2.7V | 07:19:10 | 03:22:27 | 00:00:00 | |
| DM0DOS-11 | 2026-09-02 02:38:58 | 52.19692 | 7.09855 | 76° | 27km/h | 254m | -4.6m/s | 15.9°C | 65.5% | 993.6hPa | 2.7V | 07:19:14 | 03:22:23 | 00:00:00 | |
| BIOWL1-15 | 2026-09-02 02:38:57 | 52.19698 | 7.09899 | 77° | 27km/h | 237m | -4.4m/s | 16°C | 70.5% | 995.5hPa | 2.7V | 07:19:19 | 03:22:27 | 00:00:00 | |
| BIOWL1-15 | 2026-09-02 02:38:55 | 52.19689 | 7.09832 | 78° | 27km/h | 263m | -4.2m/s | 15.8°C | 70.8% | 992.5hPa | 2.7V | 07:19:19 | 03:22:21 | 00:00:00 | |
| BIOWL1-15 | 2026-09-02 02:38:55 | 52.19688 | 7.09821 | 80° | 27km/h | 267m | -4.1m/s | 15.8°C | 70.8% | 992hPa | 2.7V | 07:19:19 | 03:22:20 | 00:00:00 | |
| BIOWL1-15 | 2026-09-02 02:38:53 | 52.19686 | 7.09810 | 78° | 27km/h | 271m | -4m/s | 15.8°C | 70.9% | 991.8hPa | 2.7V | 07:19:19 | 03:22:19 | 00:00:00 | |
| BIOWL1-15 | 2026-09-02 02:38:47 | 52.19683 | 7.09787 | 77° | 27km/h | 279m | -3.8m/s | 15.7°C | 71.1% | 990.7hPa | 2.7V | 07:20:10 | 03:22:17 | 00:00:00 | |
| DO9LL-15 | 2026-09-02 02:38:47 | 52.19683 | 7.09787 | 78° | 27km/h | 279m | -3.7m/s | 15.7°C | 66.2% | 990.7hPa | 2.7V | 00:00:00 | 03:22:17 | 00:00:00 | |
| DM0DOS-11 | 2026-09-02 02:38:46 | 52.19680 | 7.09765 | 76° | 27km/h | 287m | -4.2m/s | 15.6°C | 66.4% | 989.9hPa | 2.7V | 07:19:22 | 03:22:15 | 00:00:00 | |
| DM0DOS-11 | 2026-09-02 02:38:46 | 52.19677 | 7.09742 | 77° | 27km/h | 295m | -4.1m/s | 15.6°C | 66.6% | 988.8hPa | 2.7V | 07:19:24 | 03:22:13 | 00:00:00 | |
| BIOWL1-15 | 2026-09-02 02:38:45 | 52.19678 | 7.09754 | 77° | 27km/h | 291m | -4.3m/s | 15.6°C | 71.5% | 989.2hPa | 2.7V | 07:20:10 | 03:22:14 | 00:00:00 | |
| BIOWL1-15 | 2026-09-02 02:38:45 | 52.19676 | 7.09742 | 77° | 27km/h | 295m | -4.1m/s | 15.6°C | 71.6% | 988.8hPa | 2.7V | 07:20:10 | 03:22:13 | 00:00:00 | |
| BIOWL1-15 | 2026-09-02 02:38:41 | 52.19673 | 7.09709 | 81° | 26km/h | 308m | -3.7m/s | 15.5°C | 71.9% | 987.4hPa | 2.7V | 07:20:10 | 03:22:10 | 00:00:00 | |
| BIOWL1-15 | 2026-09-02 02:38:41 | 52.19671 | 7.09699 | 81° | 26km/h | 311m | -3.9m/s | 15.4°C | 72.1% | 987hPa | 2.7V | 07:20:10 | 03:22:09 | 00:00:00 | |
| DM0DOS-11 | 2026-09-02 02:38:40 | 52.19672 | 7.09699 | 80° | 26km/h | 311m | -3.9m/s | 15.4°C | 66.9% | 987hPa | 2.7V | 07:19:28 | 03:22:09 | 00:00:00 | |
| DM0DOS-11 | 2026-09-02 02:38:40 | 52.19667 | 7.09656 | 78° | 26km/h | 328m | -4.3m/s | 15.3°C | 67.3% | 985hPa | 2.7V | 07:19:32 | 03:22:05 | 00:00:00 | |
| BIOWL1-15 | 2026-09-02 02:38:37 | 52.19668 | 7.09667 | 79° | 27km/h | 324m | -4.3m/s | 15.3°C | 72.4% | 985.4hPa | 2.7V | 07:20:10 | 03:22:06 | 00:00:00 | |
| BIOWL1-15 | 2026-09-02 02:38:37 | 52.19667 | 7.09656 | 78° | 26km/h | 328m | -4.3m/s | 15.3°C | 72.5% | 985hPa | 2.7V | 07:20:10 | 03:22:05 | 00:00:00 | |
| DO9LL-15 | 2026-09-02 02:38:37 | 52.19669 | 7.09677 | 81° | 26km/h | 319m | -4.2m/s | 15.3°C | 67.1% | 986.0hPa | 2.7V | 00:00:00 | 03:22:07 | 00:00:00 | |
| BIOWL7-15 | 2026-09-02 02:38:36 | 52.19669 | 7.09677 | 81° | 26km/h | 319m | -4.3m/s | 15.4°C | 67.3% | 986.0hPa | 2.7V | 00:00:00 | 00:00:00 | 00:00:00 | |
| BIOWL9-15 | 2026-09-02 02:38:36 | 52.19668 | 7.09667 | 78° | 26km/h | 324m | -4.3m/s | 15.3°C | 67.4% | 985.4hPa | 2.7V | 00:00:00 | 00:00:00 | 00:00:00 | |
| DM0DOS-11 | 2026-09-02 02:38:34 | 52.19661 | 7.09613 | 77° | 27km/h | 345m | -4.1m/s | 15.1°C | 67.8% | 983hPa | 2.7V | 07:19:36 | 03:22:01 | 00:00:00 | |
| BIOWL1-15 | 2026-09-02 02:38:33 | 52.19664 | 7.09635 | 77° | 27km/h | 336m | -4.4m/s | 15.2°C | 72.8% | 984.3hPa | 2.7V | 07:20:10 | 03:22:03 | 00:00:00 | |
| BIOWL1-15 | 2026-09-02 02:38:31 | 52.19661 | 7.09613 | 78° | 27km/h | 345m | -4.1m/s | 15.1°C | 73% | 983hPa | 2.7V | 07:20:10 | 03:22:01 | 00:00:00 | |
| BIOWL1-15 | 2026-09-02 02:38:30 | 52.19660 | 7.09602 | 79° | 27km/h | 349m | -4.1m/s | 15.1°C | 73.1% | 982.7hPa | 2.7V | 07:20:10 | 03:22:00 | 00:00:00 | |
| DM0DOS-11 | 2026-09-02 02:38:28 | 52.19650 | 7.09524 | 77° | 27km/h | 378m | -4m/s | 14.8°C | 68.8% | 979.4hPa | 2.7V | 07:19:44 | 03:21:53 | 00:00:00 | |
| BIOWL1-15 | 2026-09-02 02:38:28 | 52.19657 | 7.09580 | 78° | 27km/h | 358m | -4.3m/s | 15°C | 73.3% | 981.6hPa | 2.7V | 07:20:10 | 03:21:58 | 00:00:00 | |
| BIOWL1-15 | 2026-09-02 02:38:26 | 52.19653 | 7.09546 | 80° | 27km/h | 370m | -4.1m/s | 14.9°C | 73.3% | 980.1hPa | 2.7V | 07:20:10 | 03:21:55 | 00:00:00 | |
| BIOWL1-15 | 2026-09-02 02:38:26 | 52.19651 | 7.09535 | 79° | 27km/h | 374m | -3.9m/s | 14.9°C | 73.4% | 979.8hPa | 2.7V | 07:20:10 | 03:21:54 | 00:00:00 | |
| BIOWL1-15 | 2026-09-02 02:38:22 | 52.19647 | 7.09502 | 79° | 27km/h | 386m | -4.2m/s | 14.8°C | 73.3% | 978.3hPa | 2.7V | 07:20:10 | 03:21:51 | 00:00:00 | |
| DM0DOS-11 | 2026-09-02 02:38:22 | 52.19647 | 7.09502 | 78° | 27km/h | 386m | -4.2m/s | 14.8°C | 68.4% | 978.3hPa | 2.7V | 07:19:46 | 03:21:51 | 00:00:00 | |
| DM0DOS-11 | 2026-09-02 02:38:22 | 52.19645 | 7.09479 | 81° | 27km/h | 394m | -4.1m/s | 14.7°C | 68.3% | 977.4hPa | 2.7V | 07:19:48 | 03:21:49 | 00:00:00 | |
| BIOWL1-15 | 2026-09-02 02:38:22 | 52.19646 | 7.09491 | 79° | 27km/h | 390m | -4.1m/s | 14.8°C | 73.5% | 977.7hPa | 2.7V | 07:20:10 | 03:21:50 | 00:00:00 | |
| BIOWL1-15 | 2026-09-02 02:38:18 | 52.19642 | 7.09457 | 78° | 27km/h | 403m | -4.1m/s | 14.7°C | 73.1% | 976.3hPa | 2.7V | 07:20:10 | 03:21:47 | 00:00:00 | |
| BIOWL1-15 | 2026-09-02 02:38:18 | 52.19641 | 7.09446 | 79° | 27km/h | 407m | -4.1m/s | 14.6°C | 73.2% | 976hPa | 2.7V | 07:20:10 | 03:21:46 | 00:00:00 | |
| DO9LL-15 | 2026-09-02 02:38:17 | 52.19642 | 7.09457 | 78° | 27km/h | 403m | -4.0m/s | 14.6°C | 68.1% | 976.3hPa | 2.7V | 00:00:00 | 03:21:47 | 00:00:00 | |
| BIOWL7-15 | 2026-09-02 02:38:16 | 52.19642 | 7.09457 | 79° | 27km/h | 403m | -4.1m/s | 14.7°C | 68.3% | 976.3hPa | 2.7V | 00:00:00 | 00:00:00 | 00:00:00 | |
| DM0DOS-11 | 2026-09-02 02:38:16 | 52.19636 | 7.09412 | 78° | 29km/h | 419m | -4.2m/s | 14.5°C | 68.2% | 974.5hPa | 2.7V | 07:19:54 | 03:21:43 | 00:00:00 | |
| BIOWL1-15 | 2026-09-02 02:38:14 | 52.19636 | 7.09412 | 79° | 29km/h | 419m | -4.2m/s | 14.5°C | 73.1% | 974.5hPa | 2.7V | 07:20:10 | 03:21:43 | 00:00:00 | |
| BIOWL1-15 | 2026-09-02 02:38:14 | 52.19635 | 7.09401 | 79° | 27km/h | 423m | -4m/s | 14.5°C | 73.2% | 974.1hPa | 2.7V | 07:20:10 | 03:21:42 | 00:00:00 | |
| BIOWL1-15 | 2026-09-02 02:38:11 | 52.19633 | 7.09389 | 77° | 29km/h | 427m | -4.4m/s | 14.5°C | 73.3% | 973.6hPa | 2.7V | 07:20:10 | 03:21:41 | 00:00:00 | |
| DM0DOS-11 | 2026-09-02 02:38:10 | 52.19627 | 7.09343 | 77° | 29km/h | 444m | -4.3m/s | 14.4°C | 67.8% | 971.7hPa | 2.7V | 07:20:00 | 03:21:37 | 00:00:00 | |
| BIOWL1-15 | 2026-09-02 02:38:09 | 52.19630 | 7.09366 | 78° | 29km/h | 436m | -4.1m/s | 14.4°C | 73.3% | 972.6hPa | 2.7V | 07:20:10 | 03:21:39 | 00:00:00 | |
| BIOWL1-15 | 2026-09-02 02:38:08 | 52.19629 | 7.09354 | 77° | 29km/h | 440m | -4.1m/s | 14.4°C | 73.4% | 972hPa | 2.7V | 07:20:10 | 03:21:38 | 00:00:00 | |
| BIOWL1-15 | 2026-09-02 02:38:06 | 52.19625 | 7.09331 | 77° | 29km/h | 448m | -4.2m/s | 14.3°C | 73.3% | 971.2hPa | 2.7V | 07:20:10 | 03:21:36 | 00:00:00 | |
| BIOWL1-15 | 2026-09-02 02:38:04 | 52.19622 | 7.09307 | 79° | 29km/h | 456m | -4.1m/s | 14.2°C | 72.9% | 970.3hPa | 2.7V | 07:20:10 | 03:21:34 | 00:00:00 | |
| BIOWL1-15 | 2026-09-02 02:38:02 | 52.19619 | 7.09284 | 76° | 29km/h | 465m | -4.2m/s | 14.2°C | 73.2% | 969.2hPa | 2.7V | 07:20:10 | 03:21:32 | 00:00:00 | |
| BIOWL1-15 | 2026-09-02 02:38:01 | 52.19617 | 7.09273 | 77° | 29km/h | 469m | -4.1m/s | 14.1°C | 73.2% | 968.7hPa | 2.7V | 07:20:10 | 03:21:31 | 00:00:00 | |
| BIOWL1-15 | 2026-09-02 02:37:59 | 52.19614 | 7.09249 | 76° | 29km/h | 477m | -4.1m/s | 14.1°C | 72.2% | 968.1hPa | 2.7V | 07:20:10 | 03:21:29 | 00:00:00 | |
| DM0DOS-11 | 2026-09-02 02:37:58 | 52.19606 | 7.09202 | 74° | 29km/h | 494m | -4.1m/s | 14°C | 65.7% | 965.9hPa | 2.7V | 07:20:12 | 03:21:25 | 00:00:00 | |
| DM0DOS-11 | 2026-09-02 02:37:58 | 52.19603 | 7.09179 | 75° | 29km/h | 502m | -4.1m/s | 13.9°C | 66% | 965hPa | 2.7V | 07:20:14 | 03:21:23 | 00:00:00 | |
| BIOWL1-15 | 2026-09-02 02:37:57 | 52.19608 | 7.09214 | 75° | 29km/h | 490m | -4.3m/s | 14°C | 70.5% | 966.5hPa | 2.7V | 07:21:01 | 03:21:26 | 00:00:00 | |
| BIOWL1-15 | 2026-09-02 02:37:57 | 52.19606 | 7.09202 | 74° | 29km/h | 494m | -4.1m/s | 14°C | 70.7% | 965.9hPa | 2.7V | 07:21:01 | 03:21:25 | 00:00:00 | |
| BIOWL1-15 | 2026-09-02 02:37:53 | 52.19602 | 7.09179 | 75° | 29km/h | 502m | -4.1m/s | 13.9°C | 71% | 965hPa | 2.7V | 07:21:01 | 03:21:23 | 00:00:00 | |
| DC6BW-12 | 2026-09-02 02:37:52 | 52.19603 | 7.09179 | 76° | 29km/h | 502m | -4.1m/s | 13.9°C | 66.1% | 965.0hPa | 2.7V | 07:21:00 | 00:00:00 | 00:00:00 | |
| DM0DOS-11 | 2026-09-02 02:37:52 | 52.19595 | 7.09131 | 73° | 29km/h | 518m | -3.9m/s | 13.7°C | 70.2% | 963.2hPa | 2.7V | 07:20:18 | 03:21:19 | 00:00:00 | |
| BIOWL1-15 | 2026-09-02 02:37:51 | 52.19597 | 7.09143 | 74° | 29km/h | 514m | -4.3m/s | 13.8°C | 74.9% | 963.6hPa | 2.7V | 07:21:01 | 03:21:20 | 00:00:00 | |
| BIOWL1-15 | 2026-09-02 02:37:51 | 52.19595 | 7.09131 | 74° | 29km/h | 518m | -3.9m/s | 13.7°C | 75% | 963.2hPa | 2.7V | 07:21:01 | 03:21:19 | 00:00:00 | |
| BIOWL1-15 | 2026-09-02 02:37:47 | 52.19590 | 7.09108 | 74° | 29km/h | 526m | -3.9m/s | 13.6°C | 75.1% | 962.1hPa | 2.7V | 07:21:01 | 03:21:17 | 00:00:00 | |
| DO9LL-15 | 2026-09-02 02:37:47 | 52.19590 | 7.09108 | 74° | 29km/h | 526m | -3.9m/s | 13.6°C | 70.3% | 962.0hPa | 2.7V | 00:00:00 | 03:21:17 | 00:00:00 | |
| DM0DOS-11 | 2026-09-02 02:37:46 | 52.19577 | 7.09037 | 73° | 29km/h | 551m | -4.3m/s | 13.4°C | 72.7% | 959.5hPa | 2.7V | 07:20:26 | 03:21:11 | 00:00:00 | |
| BIOWL1-15 | 2026-09-02 02:37:45 | 52.19586 | 7.09084 | 73° | 29km/h | 535m | -4.2m/s | 13.6°C | 76.4% | 961.3hPa | 2.7V | 07:21:01 | 03:21:15 | 00:00:00 | |
| BIOWL1-15 | 2026-09-02 02:37:43 | 52.19582 | 7.09061 | 72° | 31km/h | 543m | -4m/s | 13.5°C | 77.3% | 960.3hPa | 2.7V | 07:21:01 | 03:21:13 | 00:00:00 | |
| BIOWL1-15 | 2026-09-02 02:37:42 | 52.19579 | 7.09049 | 72° | 29km/h | 547m | -4m/s | 13.5°C | 77.4% | 959.9hPa | 2.7V | 07:21:01 | 03:21:12 | 00:00:00 | |
| BIOWL1-15 | 2026-09-02 02:37:41 | 52.19577 | 7.09037 | 74° | 29km/h | 551m | -4.3m/s | 13.4°C | 77.4% | 959.5hPa | 2.7V | 07:21:01 | 03:21:11 | 00:00:00 | |
| DM0DOS-11 | 2026-09-02 02:37:40 | 52.19567 | 7.08991 | 71° | 29km/h | 568m | -4.2m/s | 13.3°C | 73.2% | 957.5hPa | 2.7V | 07:20:30 | 03:21:07 | 00:00:00 | |
| BIOWL1-15 | 2026-09-02 02:37:39 | 52.19565 | 7.08979 | 72° | 31km/h | 572m | -4.2m/s | 13.2°C | 77.9% | 957.2hPa | 2.7V | 07:21:01 | 03:21:06 | 00:00:00 | |
| BIOWL1-15 | 2026-09-02 02:37:39 | 52.19563 | 7.08967 | 72° | 29km/h | 576m | -4.1m/s | 13.2°C | 78.6% | 956.4hPa | 2.7V | 07:21:01 | 03:21:05 | 00:00:00 | |
| DO9LL-15 | 2026-09-02 02:37:37 | 52.19568 | 7.08991 | 72° | 29km/h | 568m | -4.1m/s | 13.2°C | 73.2% | 957.5hPa | 2.6V | 00:00:00 | 03:21:07 | 00:00:00 | |
| DM0DOS-11 | 2026-09-02 02:37:34 | 52.19558 | 7.08944 | 70° | 31km/h | 584m | -4.2m/s | 13.1°C | 74.6% | 955.7hPa | 2.6V | 07:20:34 | 03:21:03 | 00:00:00 | |
| BIOWL1-15 | 2026-09-02 02:37:33 | 52.19555 | 7.08932 | 70° | 31km/h | 588m | -4.4m/s | 13.1°C | 78.9% | 955.1hPa | 2.7V | 07:21:01 | 03:21:02 | 00:00:00 | |
| BIOWL1-15 | 2026-09-02 02:37:33 | 52.19553 | 7.08920 | 71° | 31km/h | 593m | -4m/s | 13.1°C | 78.7% | 954.8hPa | 2.7V | 07:21:01 | 03:21:01 | 00:00:00 | |
| BIOWL1-15 | 2026-09-02 02:37:29 | 52.19547 | 7.08896 | 70° | 31km/h | 601m | -4.2m/s | 13°C | 79.8% | 953.8hPa | 2.7V | 07:21:01 | 03:20:59 | 00:00:00 | |
| BIOWL1-15 | 2026-09-02 02:37:28 | 52.19544 | 7.08884 | 69° | 31km/h | 605m | -3.9m/s | 13°C | 79.6% | 953.4hPa | 2.7V | 07:21:01 | 03:20:58 | 00:00:00 | |
| BIOWL1-15 | 2026-09-02 02:37:27 | 52.19542 | 7.08872 | 70° | 31km/h | 609m | -4.2m/s | 12.9°C | 79.4% | 952.9hPa | 2.7V | 07:21:01 | 03:20:57 | 00:00:00 | |
| BIOWL1-15 | 2026-09-02 02:37:25 | 52.19534 | 7.08836 | 71° | 31km/h | 622m | -4.1m/s | 12.9°C | 78.1% | 951.5hPa | 2.7V | 07:21:01 | 03:20:54 | 00:00:00 | |
| BIOWL1-15 | 2026-09-02 02:37:25 | 52.19531 | 7.08824 | 70° | 31km/h | 626m | -4.2m/s | 12.8°C | 78.9% | 951hPa | 2.7V | 07:21:01 | 03:20:53 | 00:00:00 | |
| DM0DOS-11 | 2026-09-02 02:37:22 | 52.19526 | 7.08800 | 71° | 31km/h | 634m | -4.3m/s | 12.8°C | 73.5% | 950.1hPa | 2.7V | 07:20:46 | 03:20:51 | 00:00:00 | |
| BIOWL1-15 | 2026-09-02 02:37:21 | 52.19523 | 7.08787 | 72° | 31km/h | 638m | -4.4m/s | 12.9°C | 72.9% | 949.7hPa | 2.7V | 07:21:01 | 03:20:50 | 00:00:00 | |
| BIOWL1-15 | 2026-09-02 02:37:21 | 52.19521 | 7.08775 | 73° | 31km/h | 643m | -4m/s | 12.8°C | 73.3% | 949hPa | 2.6V | 07:21:01 | 03:20:49 | 00:00:00 | |
| BIOWL1-15 | 2026-09-02 02:37:17 | 52.19512 | 7.08727 | 71° | 31km/h | 659m | -4.4m/s | 12.7°C | 71.3% | 947.2hPa | 2.7V | 07:21:01 | 03:20:45 | 00:00:00 | |
| BIOWL1-15 | 2026-09-02 02:37:17 | 52.19509 | 7.08715 | 71° | 31km/h | 664m | -4.2m/s | 12.7°C | 71.5% | 946.8hPa | 2.7V | 07:21:01 | 03:20:44 | 00:00:00 | |
| BIOWL1-15 | 2026-09-02 02:37:15 | 52.19507 | 7.08703 | 71° | 31km/h | 668m | -4.1m/s | 12.7°C | 71.9% | 946.3hPa | 2.7V | 07:21:01 | 03:20:43 | 00:00:00 | |
| BIOWL1-15 | 2026-09-02 02:37:11 | 52.19502 | 7.08679 | 72° | 31km/h | 676m | -4.1m/s | 12.6°C | 72% | 945.5hPa | 2.7V | 07:21:01 | 03:20:41 | 00:00:00 | |
| DC6BW-12 | 2026-09-02 02:37:10 | 52.19502 | 7.08679 | 73° | 31km/h | 676m | -4.1m/s | 12.6°C | 67.5% | 945.4hPa | 2.7V | 07:21:00 | 00:00:00 | 00:00:00 | |
| DM0DOS-11 | 2026-09-02 02:37:10 | 52.19497 | 7.08655 | 69° | 29km/h | 684m | -4.1m/s | 12.5°C | 66.4% | 944.5hPa | 2.7V | 07:20:58 | 03:20:39 | 00:00:00 | |
| DM0DOS-11 | 2026-09-02 02:37:10 | 52.19486 | 7.08609 | 69° | 29km/h | 701m | -3.9m/s | 12.4°C | 65.9% | 942.7hPa | 2.6V | 07:21:02 | 03:20:35 | 00:00:00 | |
| BIOWL1-15 | 2026-09-02 02:37:09 | 52.19497 | 7.08655 | 70° | 29km/h | 684m | -4.1m/s | 12.5°C | 70.9% | 944.5hPa | 2.7V | 07:21:01 | 03:20:39 | 00:00:00 | |
| BIOWL1-15 | 2026-09-02 02:37:07 | 52.19491 | 7.08632 | 69° | 31km/h | 693m | -4.2m/s | 12.5°C | 70.3% | 943.5hPa | 2.7V | 07:21:01 | 03:20:37 | 00:00:00 | |
| BIOWL1-15 | 2026-09-02 02:37:06 | 52.19489 | 7.08620 | 70° | 29km/h | 697m | -4.1m/s | 12.4°C | 70.1% | 942.9hPa | 2.7V | 07:21:01 | 03:20:36 | 00:00:00 | |
| DM0DOS-11 | 2026-09-02 02:37:04 | 52.19470 | 7.08542 | 68° | 29km/h | 725m | -3.9m/s | 12.2°C | 66.4% | 939.9hPa | 2.7V | 07:21:08 | 03:20:29 | 00:00:00 | |
| BIOWL1-15 | 2026-09-02 02:37:04 | 52.19483 | 7.08598 | 69° | 29km/h | 705m | -4.1m/s | 12.3°C | 70.3% | 942.3hPa | 2.7V | 07:21:52 | 03:20:34 | 00:00:00 | |
| BIOWL1-15 | 2026-09-02 02:37:03 | 52.19481 | 7.08586 | 70° | 29km/h | 709m | -4.1m/s | 12.3°C | 70.2% | 941.6hPa | 2.7V | 07:21:52 | 03:20:33 | 00:00:00 | |
| BIOWL1-15 | 2026-09-02 02:37:01 | 52.19475 | 7.08564 | 68° | 29km/h | 717m | -4.1m/s | 12.2°C | 70.6% | 940.9hPa | 2.7V | 07:21:52 | 03:20:31 | 00:00:00 | |
| BIOWL1-15 | 2026-09-02 02:36:59 | 52.19470 | 7.08542 | 69° | 29km/h | 725m | -3.9m/s | 12.2°C | 70.7% | 939.9hPa | 2.7V | 07:21:52 | 03:20:29 | 00:00:00 | |
| DM0DOS-11 | 2026-09-02 02:36:58 | 52.19453 | 7.08473 | 70° | 31km/h | 749m | -4.2m/s | 12°C | 66.6% | 937.2hPa | 2.7V | 07:21:14 | 03:20:23 | 00:00:00 | |
| BIOWL1-15 | 2026-09-02 02:36:57 | 52.19464 | 7.08520 | 68° | 29km/h | 733m | -4m/s | 12.1°C | 70.8% | 939hPa | 2.7V | 07:21:52 | 03:20:27 | 00:00:00 | |
| BIOWL1-15 | 2026-09-02 02:36:56 | 52.19461 | 7.08508 | 68° | 29km/h | 737m | -4.1m/s | 12.1°C | 71% | 938.5hPa | 2.7V | 07:21:52 | 03:20:26 | 00:00:00 | |
| BIOWL1-15 | 2026-09-02 02:36:55 | 52.19459 | 7.08497 | 70° | 31km/h | 741m | -4.1m/s | 12.1°C | 71% | 938hPa | 2.7V | 07:21:52 | 03:20:25 | 00:00:00 | |
| BIOWL1-15 | 2026-09-02 02:36:53 | 52.19451 | 7.08461 | 71° | 31km/h | 753m | -4.2m/s | 12°C | 70.5% | 936.7hPa | 2.7V | 07:21:52 | 03:20:22 | 00:00:00 | |
| BIOWL1-15 | 2026-09-02 02:36:53 | 52.19448 | 7.08449 | 69° | 31km/h | 758m | -4.1m/s | 12°C | 70.2% | 936.2hPa | 2.7V | 07:21:52 | 03:20:21 | 00:00:00 | |
| DM0DOS-11 | 2026-09-02 02:36:52 | 52.19442 | 7.08424 | 69° | 31km/h | 766m | -4m/s | 11.9°C | 66.1% | 935.4hPa | 2.7V | 07:21:18 | 03:20:19 | 00:00:00 | |
| DM0DOS-11 | 2026-09-02 02:36:52 | 52.19437 | 7.08400 | 69° | 31km/h | 774m | -4.1m/s | 11.9°C | 66.2% | 934.4hPa | 2.6V | 07:21:20 | 03:20:17 | 00:00:00 | |
| BIOWL1-15 | 2026-09-02 02:36:49 | 52.19440 | 7.08412 | 69° | 33km/h | 770m | -4.4m/s | 11.9°C | 70.3% | 935hPa | 2.7V | 07:21:52 | 03:20:18 | 00:00:00 | |
| BIOWL1-15 | 2026-09-02 02:36:49 | 52.19437 | 7.08400 | 69° | 31km/h | 774m | -4.1m/s | 11.9°C | 70.3% | 934.4hPa | 2.6V | 07:21:52 | 03:20:17 | 00:00:00 | |
| BIOWL7-15 | 2026-09-02 02:36:48 | 52.19442 | 7.08424 | 71° | 31km/h | 766m | -4.1m/s | 12.0°C | 66.2% | 935.4hPa | 2.7V | 07:21:00 | 00:00:00 | 00:00:00 | |
| DO9LL-15 | 2026-09-02 02:36:47 | 52.19437 | 7.08399 | 70° | 33km/h | 774m | -4.1m/s | 11.9°C | 66.2% | 934.4hPa | 2.7V | 00:00:00 | 03:20:17 | 00:00:00 | |
| DM0DOS-11 | 2026-09-02 02:36:46 | 52.19431 | 7.08375 | 67° | 31km/h | 782m | -4.2m/s | 11.9°C | 66.2% | 933.4hPa | 2.7V | 07:21:22 | 03:20:15 | 00:00:00 | |
| DM0DOS-11 | 2026-09-02 02:36:46 | 52.19418 | 7.08325 | 67° | 35km/h | 799m | -4.2m/s | 11.9°C | 64.2% | 931.7hPa | 2.7V | 07:21:26 | 03:20:11 | 00:00:00 | |
| BIOWL1-15 | 2026-09-02 02:36:46 | 52.19434 | 7.08387 | 68° | 33km/h | 778m | -3.9m/s | 11.9°C | 70.5% | 934hPa | 2.6V | 07:21:52 | 03:20:16 | 00:00:00 | |
| BIOWL1-15 | 2026-09-02 02:36:45 | 52.19431 | 7.08375 | 68° | 31km/h | 782m | -4.3m/s | 11.9°C | 70.5% | 933.5hPa | 2.7V | 07:21:52 | 03:20:15 | 00:00:00 | |
| BIOWL1-15 | 2026-09-02 02:36:43 | 52.19421 | 7.08338 | 67° | 35km/h | 795m | -4.2m/s | 11.9°C | 69.6% | 932hPa | 2.7V | 07:21:52 | 03:20:12 | 00:00:00 | |
| BIOWL1-15 | 2026-09-02 02:36:43 | 52.19418 | 7.08325 | 68° | 35km/h | 799m | -4.2m/s | 11.9°C | 68.8% | 931.7hPa | 2.7V | 07:21:52 | 03:20:11 | 00:00:00 | |
| DO9LL-15 | 2026-09-02 02:36:42 | 52.19421 | 7.08338 | 67° | 35km/h | 795m | -4.1m/s | 11.8°C | 65.0% | 931.9hPa | 2.7V | 00:00:00 | 03:20:12 | 00:00:00 | |
| DM0DOS-11 | 2026-09-02 02:36:40 | 52.19405 | 7.08272 | 67° | 35km/h | 815m | -4.2m/s | 11.9°C | 60.4% | 929.7hPa | 2.7V | 07:21:30 | 03:20:07 | 00:00:00 | |
| BIOWL1-15 | 2026-09-02 02:36:39 | 52.19411 | 7.08298 | 70° | 33km/h | 807m | -3.9m/s | 11.9°C | 67.8% | 930.8hPa | 2.7V | 07:21:52 | 03:20:09 | 00:00:00 | |
| BIOWL1-15 | 2026-09-02 02:36:37 | 52.19401 | 7.08258 | 68° | 35km/h | 819m | -3.8m/s | 11.9°C | 63.6% | 929.4hPa | 2.7V | 07:21:52 | 03:20:06 | 00:00:00 | |
| BIOWL1-15 | 2026-09-02 02:36:37 | 52.19398 | 7.08245 | 68° | 37km/h | 823m | -4m/s | 11.9°C | 62.3% | 929hPa | 2.6V | 07:21:52 | 03:20:05 | 00:00:00 | |
| BIOWL1-15 | 2026-09-02 02:36:34 | 52.19395 | 7.08231 | 68° | 37km/h | 827m | -4m/s | 11.9°C | 61.5% | 928.5hPa | 2.6V | 07:21:52 | 03:20:04 | 00:00:00 | |
| BIOWL1-15 | 2026-09-02 02:36:32 | 52.19375 | 7.08148 | 69° | 37km/h | 852m | -4.2m/s | 11.8°C | 61.3% | 925.8hPa | 2.7V | 07:21:52 | 03:19:58 | 00:00:00 | |
| BIOWL1-15 | 2026-09-02 02:36:32 | 52.19371 | 7.08134 | 69° | 37km/h | 856m | -4m/s | 11.8°C | 60% | 925.2hPa | 2.6V | 07:21:52 | 03:19:57 | 00:00:00 | |
| BIOWL1-15 | 2026-09-02 02:36:30 | 52.19368 | 7.08120 | 68° | 37km/h | 860m | -4m/s | 11.8°C | 59.2% | 924.7hPa | 2.7V | 07:21:52 | 03:19:56 | 00:00:00 | |
| DC6BW-12 | 2026-09-02 02:36:29 | 52.19381 | 7.08175 | 70° | 37km/h | 843m | -4.4m/s | 11.8°C | 57.1% | 926.6hPa | 2.7V | 00:00:00 | 00:00:00 | 00:00:00 | |
| DM0DOS-11 | 2026-09-02 02:36:28 | 52.19365 | 7.08106 | 67° | 37km/h | 864m | -3.9m/s | 11.8°C | 54.2% | 924.5hPa | 2.7V | 07:21:42 | 03:19:55 | 00:00:00 | |
| DM0DOS-11 | 2026-09-02 02:36:28 | 52.19357 | 7.08077 | 67° | 38km/h | 872m | -4.1m/s | 11.8°C | 54.6% | 923.4hPa | 2.7V | 07:21:44 | 03:19:53 | 00:00:00 | |
| BIOWL1-15 | 2026-09-02 02:36:24 | 52.19357 | 7.08077 | 68° | 38km/h | 872m | -4.1m/s | 11.8°C | 59.2% | 923.4hPa | 2.7V | 07:21:52 | 03:19:53 | 00:00:00 | |
| BIOWL1-15 | 2026-09-02 02:36:24 | 52.19353 | 7.08062 | 68° | 38km/h | 877m | -4.1m/s | 11.8°C | 59.4% | 923hPa | 2.7V | 07:21:52 | 03:19:52 | 00:00:00 | |
| DM0DOS-11 | 2026-09-02 02:36:22 | 52.19350 | 7.08047 | 67° | 38km/h | 880m | -3.8m/s | 11.8°C | 54.8% | 922.5hPa | 2.7V | 07:21:46 | 03:19:51 | 00:00:00 | |
| DM0DOS-11 | 2026-09-02 02:36:22 | 52.19342 | 7.08017 | 70° | 40km/h | 888m | -4.1m/s | 11.7°C | 55.4% | 921.7hPa | 2.7V | 07:21:48 | 03:19:49 | 00:00:00 | |
| BIOWL1-15 | 2026-09-02 02:36:20 | 52.19346 | 7.08033 | 69° | 38km/h | 884m | -4m/s | 11.8°C | 60.1% | 922.1hPa | 2.7V | 07:21:52 | 03:19:50 | 00:00:00 | |
| BIOWL1-15 | 2026-09-02 02:36:19 | 52.19343 | 7.08017 | 70° | 40km/h | 888m | -4.1m/s | 11.7°C | 60.3% | 921.7hPa | 2.7V | 07:21:52 | 03:19:49 | 00:00:00 | |
| BIOWL1-15 | 2026-09-02 02:36:17 | 52.19336 | 7.07987 | 70° | 40km/h | 896m | -4m/s | 11.7°C | 62.1% | 920.9hPa | 2.6V | 07:21:52 | 03:19:47 | 00:00:00 | |
| DO9LL-15 | 2026-09-02 02:36:17 | 52.19336 | 7.07987 | 70° | 40km/h | 896m | -4.0m/s | 11.6°C | 57.1% | 920.8hPa | 2.7V | 00:00:00 | 03:19:47 | 00:00:00 | |
| DM0DOS-11 | 2026-09-02 02:36:16 | 52.19329 | 7.07956 | 71° | 38km/h | 904m | -3.9m/s | 11.6°C | 57.5% | 920hPa | 2.7V | 07:21:52 | 03:19:45 | 00:00:00 | |
| DM0DOS-11 | 2026-09-02 02:36:16 | 52.19322 | 7.07925 | 70° | 40km/h | 912m | -4.2m/s | 11.5°C | 57.7% | 919hPa | 2.7V | 07:21:54 | 03:19:43 | 00:00:00 | |
| BIOWL1-15 | 2026-09-02 02:36:15 | 52.19329 | 7.07956 | 71° | 38km/h | 904m | -3.9m/s | 11.6°C | 62.5% | 920hPa | 2.7V | 07:21:52 | 03:19:45 | 00:00:00 | |
| BIOWL1-15 | 2026-09-02 02:36:13 | 52.19322 | 7.07925 | 71° | 40km/h | 912m | -4.2m/s | 11.5°C | 62.7% | 919hPa | 2.7V | 07:22:43 | 03:19:43 | 00:00:00 | |
| BIOWL1-15 | 2026-09-02 02:36:11 | 52.19315 | 7.07894 | 71° | 40km/h | 921m | -4.1m/s | 11.4°C | 63.3% | 918.1hPa | 2.7V | 07:22:43 | 03:19:41 | 00:00:00 | |
| DM0DOS-11 | 2026-09-02 02:36:10 | 52.19309 | 7.07863 | 70° | 40km/h | 929m | -4.1m/s | 11.4°C | 60.6% | 917.3hPa | 2.6V | 07:21:58 | 03:19:39 | 00:00:00 | |
| BIOWL1-15 | 2026-09-02 02:36:10 | 52.19312 | 7.07879 | 71° | 40km/h | 925m | -3.8m/s | 11.4°C | 63.7% | 917.6hPa | 2.7V | 07:22:43 | 03:19:40 | 00:00:00 | |
| BIOWL1-15 | 2026-09-02 02:36:08 | 52.19305 | 7.07848 | 70° | 40km/h | 933m | -4.2m/s | 11.3°C | 66.1% | 916.8hPa | 2.7V | 07:22:43 | 03:19:38 | 00:00:00 | |
| BIOWL1-15 | 2026-09-02 02:36:06 | 52.19298 | 7.07816 | 70° | 42km/h | 941m | -4.2m/s | 11.3°C | 67% | 916hPa | 2.7V | 07:22:43 | 03:19:36 | 00:00:00 | |
| DL1LOL-11 | 2026-09-02 02:36:05 | 52.19299 | 7.07816 | 71° | 42km/h | 941m | -4.2m/s | 11.3°C | 61.6% | 916.0hPa | 2.7V | 00:00:00 | 00:00:00 | 00:00:00 | |
| DM0DOS-11 | 2026-09-02 02:36:04 | 52.19281 | 7.07735 | 71° | 42km/h | 961m | -3.9m/s | 11.2°C | 61.4% | 913.5hPa | 2.7V | 07:22:06 | 03:19:31 | 00:00:00 | |
| DM0DOS-11 | 2026-09-02 02:36:04 | 52.19274 | 7.07702 | 70° | 42km/h | 970m | -4.1m/s | 11.1°C | 60.9% | 912.9hPa | 2.7V | 07:22:08 | 03:19:29 | 00:00:00 | |
| BIOWL1-15 | 2026-09-02 02:36:04 | 52.19291 | 7.07784 | 70° | 42km/h | 949m | -4.1m/s | 11.2°C | 67.1% | 914.9hPa | 2.7V | 07:22:43 | 03:19:34 | 00:00:00 | |
| BIOWL1-15 | 2026-09-02 02:36:02 | 52.19281 | 7.07735 | 72° | 42km/h | 961m | -3.9m/s | 11.2°C | 66.9% | 913.5hPa | 2.7V | 07:22:43 | 03:19:31 | 00:00:00 | |
| BIOWL1-15 | 2026-09-02 02:36:02 | 52.19277 | 7.07719 | 70° | 42km/h | 966m | -4.3m/s | 11.2°C | 66.6% | 913.2hPa | 2.7V | 07:22:43 | 03:19:30 | 00:00:00 | |
| DO9LL-15 | 2026-09-02 02:36:02 | 52.19284 | 7.07751 | 71° | 42km/h | 957m | -4.2m/s | 11.1°C | 62.3% | 914.0hPa | 2.7V | 00:00:00 | 03:19:32 | 00:00:00 | |
| BIOWL9-15 | 2026-09-02 02:36:00 | 52.19277 | 7.07719 | 70° | 42km/h | 965m | -4.3m/s | 11.2°C | 61.2% | 913.2hPa | 2.7V | 00:00:00 | 00:00:00 | 00:00:00 | |
| DD1CC3-15 | 2026-09-02 02:35:58 | 52.19274 | 7.07702 | 72° | 42km/h | 970m | -4.1m/s | 11.1°C | 60.9% | 912.9hPa | 2.7V | 07:22:00 | 00:00:00 | 00:00:00 | |
| DM0DOS-11 | 2026-09-02 02:35:58 | 52.19260 | 7.07635 | 70° | 42km/h | 987m | -4m/s | 11°C | 61.2% | 910.8hPa | 2.7V | 07:22:12 | 03:19:25 | 00:00:00 | |
| BIOWL1-15 | 2026-09-02 02:35:58 | 52.19270 | 7.07685 | 71° | 42km/h | 974m | -4.3m/s | 11.1°C | 66.2% | 912.1hPa | 2.7V | 07:22:43 | 03:19:28 | 00:00:00 | |
| BIOWL1-15 | 2026-09-02 02:35:56 | 52.19260 | 7.07635 | 70° | 42km/h | 987m | -4.1m/s | 11°C | 66.7% | 910.9hPa | 2.7V | 07:22:43 | 03:19:25 | 00:00:00 | |
| BIOWL1-15 | 2026-09-02 02:35:56 | 52.19256 | 7.07619 | 70° | 44km/h | 991m | -4.2m/s | 11°C | 66.9% | 910.4hPa | 2.7V | 07:22:43 | 03:19:24 | 00:00:00 | |
| BIOWL1-15 | 2026-09-02 02:35:52 | 52.19245 | 7.07568 | 71° | 44km/h | 1003m | -4m/s | 10.9°C | 67.5% | 909.1hPa | 2.7V | 07:22:43 | 03:19:21 | 00:00:00 | |
| DM0DOS-11 | 2026-09-02 02:35:52 | 52.19238 | 7.07534 | 70° | 44km/h | 1011m | -4.1m/s | 10.8°C | 62.7% | 908hPa | 2.7V | 07:22:18 | 03:19:19 | 00:00:00 | |
| BIOWL1-15 | 2026-09-02 02:35:52 | 52.19241 | 7.07551 | 70° | 44km/h | 1007m | -4.3m/s | 10.8°C | 68% | 908.6hPa | 2.7V | 07:22:43 | 03:19:20 | 00:00:00 | |
| BIOWL1-15 | 2026-09-02 02:35:49 | 52.19238 | 7.07534 | 70° | 44km/h | 1011m | -4.1m/s | 10.8°C | 68.2% | 908hPa | 2.7V | 07:22:43 | 03:19:19 | 00:00:00 | |
| BIOWL1-15 | 2026-09-02 02:35:47 | 52.19230 | 7.07501 | 70° | 44km/h | 1020m | -4.3m/s | 10.7°C | 69% | 907.4hPa | 2.6V | 07:22:43 | 03:19:17 | 00:00:00 | |
| DM0DOS-11 | 2026-09-02 02:35:46 | 52.19223 | 7.07466 | 69° | 44km/h | 1028m | -4m/s | 10.7°C | 63.9% | 906.3hPa | 2.7V | 07:22:22 | 03:19:15 | 00:00:00 | |
| DM0DOS-11 | 2026-09-02 02:35:46 | 52.19208 | 7.07398 | 69° | 44km/h | 1044m | -4.3m/s | 10.5°C | 65.8% | 904.6hPa | 2.7V | 07:22:26 | 03:19:11 | 00:00:00 | |
| BIOWL1-15 | 2026-09-02 02:35:46 | 52.19226 | 7.07483 | 71° | 44km/h | 1024m | -4m/s | 10.7°C | 69.2% | 906.7hPa | 2.6V | 07:22:43 | 03:19:16 | 00:00:00 | |
| BIOWL1-15 | 2026-09-02 02:35:44 | 52.19208 | 7.07398 | 69° | 44km/h | 1044m | -4.3m/s | 10.5°C | 71.4% | 904.6hPa | 2.7V | 07:22:43 | 03:19:11 | 00:00:00 | |
| BIOWL1-15 | 2026-09-02 02:35:44 | 52.19204 | 7.07381 | 70° | 44km/h | 1049m | -4.2m/s | 10.5°C | 71.8% | 904.1hPa | 2.7V | 07:22:43 | 03:19:10 | 00:00:00 | |
| DO9LL-15 | 2026-09-02 02:35:43 | 52.19215 | 7.07432 | 72° | 44km/h | 1036m | -3.9m/s | 10.5°C | 64.7% | 905.5hPa | 2.7V | 00:00:00 | 03:19:13 | 00:00:00 | |
| BIOWL7-15 | 2026-09-02 02:35:42 | 52.19215 | 7.07432 | 72° | 44km/h | 1036m | -3.9m/s | 10.6°C | 64.7% | 905.5hPa | 2.7V | 07:22:00 | 00:00:00 | 00:00:00 | |
| DL1LOL-11 | 2026-09-02 02:35:42 | 52.19215 | 7.07432 | 72° | 44km/h | 1036m | -3.9m/s | 10.6°C | 64.7% | 905.5hPa | 2.7V | 00:00:00 | 00:00:00 | 00:00:00 | |
| DM0DOS-11 | 2026-09-02 02:35:40 | 52.19192 | 7.07331 | 68° | 44km/h | 1061m | -4.2m/s | 10.3°C | 67.9% | 902.8hPa | 2.7V | 07:22:30 | 03:19:07 | 00:00:00 | |
| DM0DOS-11 | 2026-09-02 02:35:40 | 52.19184 | 7.07297 | 69° | 44km/h | 1069m | -4.2m/s | 10.2°C | 69.1% | 902hPa | 2.6V | 07:22:32 | 03:19:05 | 00:00:00 | |
| BIOWL1-15 | 2026-09-02 02:35:38 | 52.19192 | 7.07331 | 69° | 44km/h | 1061m | -4.2m/s | 10.3°C | 73.4% | 902.8hPa | 2.7V | 07:22:43 | 03:19:07 | 00:00:00 | |
| BIOWL1-15 | 2026-09-02 02:35:38 | 52.19188 | 7.07314 | 69° | 44km/h | 1065m | -4.2m/s | 10.3°C | 74.2% | 902.3hPa | 2.6V | 07:22:43 | 03:19:06 | 00:00:00 | |
| BIOWL1-15 | 2026-09-02 02:35:35 | 52.19184 | 7.07297 | 69° | 44km/h | 1069m | -4.2m/s | 10.3°C | 74.6% | 902hPa | 2.6V | 07:22:43 | 03:19:05 | 00:00:00 | |
| DM0DOS-11 | 2026-09-02 02:35:34 | 52.19168 | 7.07228 | 68° | 44km/h | 1086m | -4.1m/s | 10.1°C | 70.9% | 900hPa | 2.7V | 07:22:36 | 03:19:01 | 00:00:00 | |
| DM0DOS-11 | 2026-09-02 02:35:34 | 52.19159 | 7.07194 | 67° | 46km/h | 1095m | -4.4m/s | 10°C | 71.7% | 898.9hPa | 2.7V | 07:22:38 | 03:18:59 | 00:00:00 | |
| BIOWL1-15 | 2026-09-02 02:35:33 | 52.19172 | 7.07246 | 69° | 44km/h | 1082m | -4.4m/s | 10.1°C | 75.9% | 900.6hPa | 2.7V | 07:22:43 | 03:19:02 | 00:00:00 | |
| BIOWL1-15 | 2026-09-02 02:35:33 | 52.19168 | 7.07228 | 69° | 44km/h | 1086m | -4.1m/s | 10.1°C | 76.4% | 900hPa | 2.7V | 07:22:43 | 03:19:01 | 00:00:00 | |
| BIOWL1-15 | 2026-09-02 02:35:29 | 52.19155 | 7.07177 | 67° | 46km/h | 1099m | -4.2m/s | 10°C | 77.5% | 898.8hPa | 2.7V | 07:22:43 | 03:18:58 | 00:00:00 | |
| BIOWL1-15 | 2026-09-02 02:35:29 | 52.19151 | 7.07160 | 67° | 44km/h | 1103m | -4.1m/s | 9.9°C | 77.6% | 898.2hPa | 2.7V | 07:22:43 | 03:18:57 | 00:00:00 | |
| DM0DOS-11 | 2026-09-02 02:35:28 | 52.19151 | 7.07160 | 66° | 44km/h | 1103m | -4.1m/s | 9.9°C | 72.1% | 898.2hPa | 2.7V | 07:22:40 | 03:18:57 | 00:00:00 | |
| DM0DOS-11 | 2026-09-02 02:35:28 | 52.19142 | 7.07126 | 67° | 46km/h | 1112m | -4.3m/s | 9.8°C | 73.4% | 897.2hPa | 2.6V | 07:22:42 | 03:18:55 | 00:00:00 | |
| BIOWL1-15 | 2026-09-02 02:35:25 | 52.19137 | 7.07109 | 68° | 46km/h | 1116m | -4.2m/s | 9.8°C | 78.6% | 897hPa | 2.6V | 07:22:43 | 03:18:54 | 00:00:00 | |
| BIOWL1-15 | 2026-09-02 02:35:25 | 52.19133 | 7.07092 | 68° | 46km/h | 1120m | -4.1m/s | 9.7°C | 79% | 896.5hPa | 2.7V | 07:23:34 | 03:18:53 | 00:00:00 | |
| DO9LL-15 | 2026-09-02 02:35:23 | 52.19133 | 7.07092 | 68° | 44km/h | 1120m | -4.1m/s | 9.7°C | 73.7% | 896.4hPa | 2.7V | 00:00:00 | 03:18:53 | 00:00:00 | |
| DM0DOS-11 | 2026-09-02 02:35:22 | 52.19125 | 7.07058 | 67° | 44km/h | 1128m | -4.2m/s | 9.6°C | 77% | 895.6hPa | 2.7V | 07:22:46 | 03:18:51 | 00:00:00 | |
| DM0DOS-11 | 2026-09-02 02:35:22 | 52.19116 | 7.07024 | 66° | 44km/h | 1137m | -4.2m/s | 9.6°C | 77.5% | 894.7hPa | 2.7V | 07:22:48 | 03:18:49 | 00:00:00 | |
| BIOWL1-15 | 2026-09-02 02:35:22 | 52.19129 | 7.07075 | 68° | 44km/h | 1124m | -3.9m/s | 9.7°C | 79.5% | 896hPa | 2.7V | 07:23:34 | 03:18:52 | 00:00:00 | |
| BIOWL1-15 | 2026-09-02 02:35:20 | 52.19111 | 7.07007 | 67° | 44km/h | 1141m | -4.3m/s | 9.5°C | 82.8% | 894.2hPa | 2.7V | 07:23:34 | 03:18:48 | 00:00:00 | |
| BIOWL1-15 | 2026-09-02 02:35:20 | 52.19107 | 7.06990 | 67° | 44km/h | 1145m | -4.1m/s | 9.5°C | 83.2% | 893.7hPa | 2.7V | 07:23:34 | 03:18:47 | 00:00:00 | |
| BIOWL1-15 | 2026-09-02 02:35:18 | 52.19103 | 7.06973 | 68° | 46km/h | 1149m | -4.2m/s | 9.4°C | 83.5% | 893.2hPa | 2.7V | 07:23:34 | 03:18:46 | 00:00:00 | |
| DD1CC3-15 | 2026-09-02 02:35:16 | 52.19107 | 7.06990 | 68° | 44km/h | 1145m | -4.1m/s | 9.5°C | 78.1% | 893.7hPa | 2.7V | 07:23:00 | 00:00:00 | 00:00:00 | |
| DM0DOS-11 | 2026-09-02 02:35:16 | 52.19099 | 7.06956 | 68° | 46km/h | 1154m | -4.3m/s | 9.4°C | 79.7% | 892.9hPa | 2.7V | 07:22:52 | 03:18:45 | 00:00:00 | |
| DM0DOS-11 | 2026-09-02 02:35:16 | 52.19090 | 7.06921 | 69° | 44km/h | 1162m | -4m/s | 9.3°C | 79.9% | 891.8hPa | 2.6V | 07:22:54 | 03:18:43 | 00:00:00 | |
| DM0DOS-11 | 2026-09-02 02:35:16 | 52.19082 | 7.06886 | 68° | 46km/h | 1170m | -4.1m/s | 9.2°C | 80.2% | 891.1hPa | 2.7V | 07:22:56 | 03:18:41 | 00:00:00 | |
| BIOWL1-15 | 2026-09-02 02:35:15 | 52.19069 | 7.06833 | 70° | 46km/h | 1183m | -4.3m/s | 9.1°C | 85.4% | 889.7hPa | 2.7V | 07:23:34 | 03:18:38 | 00:00:00 | |
| BIOWL1-15 | 2026-09-02 02:35:14 | 52.19065 | 7.06815 | 69° | 46km/h | 1187m | -4.5m/s | 9.1°C | 85.4% | 889.3hPa | 2.6V | 07:23:34 | 03:18:37 | 00:00:00 | |
| DM0DOS-11 | 2026-09-02 02:35:10 | 52.19073 | 7.06851 | 69° | 46km/h | 1179m | -4.1m/s | 9.2°C | 80.5% | 890hPa | 2.7V | 07:22:58 | 03:18:39 | 00:00:00 | |
| DM0DOS-11 | 2026-09-02 02:35:10 | 52.19065 | 7.06815 | 69° | 46km/h | 1187m | -4.5m/s | 9.1°C | 80.8% | 889.3hPa | 2.6V | 07:23:00 | 03:18:37 | 00:00:00 | |
| BIOWL1-15 | 2026-09-02 02:35:10 | 52.19061 | 7.06798 | 69° | 46km/h | 1191m | -4m/s | 9°C | 85.5% | 888.8hPa | 2.7V | 07:23:34 | 03:18:36 | 00:00:00 | |
| DD1CC9-15 | 2026-09-02 02:35:07 | 52.19069 | 7.06833 | 71° | 46km/h | 1183m | -4.3m/s | 0°C | 0% | 889.7hPa | 2.7V | 00:00:00 | 00:00:00 | 00:00:00 | |
| DC6BW-12 | 2026-09-02 02:35:06 | 52.19065 | 7.06815 | 70° | 46km/h | 1187m | -4.5m/s | 9.1°C | 80.7% | 889.3hPa | 2.7V | 00:00:00 | 00:00:00 | 00:00:00 | |
| DM0DOS-11 | 2026-09-02 02:35:04 | 52.19048 | 7.06745 | 68° | 46km/h | 1203m | -4.1m/s | 8.9°C | 81.5% | 887.4hPa | 2.7V | 07:23:04 | 03:18:33 | 00:00:00 | |
| BIOWL1-15 | 2026-09-02 02:35:04 | 52.19053 | 7.06762 | 68° | 46km/h | 1199m | -4m/s | 9°C | 86% | 887.8hPa | 2.7V | 07:23:34 | 03:18:34 | 00:00:00 | |
| BIOWL1-15 | 2026-09-02 02:35:02 | 52.19040 | 7.06709 | 68° | 46km/h | 1212m | -4.4m/s | 8.9°C | 86.3% | 886.5hPa | 2.7V | 07:23:34 | 03:18:31 | 00:00:00 | |
| BIOWL1-15 | 2026-09-02 02:35:02 | 52.19035 | 7.06692 | 67° | 46km/h | 1216m | -4.1m/s | 8.8°C | 86.5% | 886.2hPa | 2.7V | 07:23:34 | 03:18:30 | 00:00:00 | |
| MET0W-2 | 2026-09-02 02:35:01 | 52.19040 | 7.06709 | 68° | 46km/h | 1212m | -4.4m/s | 8.9°C | 81.7% | 886.5hPa | 2.6V | 00:00:00 | 00:00:00 | 00:00:00 | |
| BIOWL9-15 | 2026-09-02 02:34:59 | 52.19026 | 7.06656 | 68° | 46km/h | 1224m | -4.2m/s | 0°C | -1.0% | -1.0hPa | 2.6V | 00:00:00 | 00:00:00 | 00:00:00 | |
| DM0DOS-11 | 2026-09-02 02:34:58 | 52.19022 | 7.06639 | 67° | 47km/h | 1228m | -4.2m/s | 8.7°C | 81.9% | 884.8hPa | 2.6V | 07:23:10 | 03:18:27 | 00:00:00 | |
| BIOWL1-15 | 2026-09-02 02:34:58 | 52.19026 | 7.06656 | 68° | 47km/h | 1224m | -4.2m/s | 8.8°C | 86.7% | 885.3hPa | 2.6V | 07:23:34 | 03:18:28 | 00:00:00 | |
| BIOWL1-15 | 2026-09-02 02:34:56 | 52.19018 | 7.06620 | 69° | 47km/h | 1233m | -4.3m/s | 8.7°C | 86.4% | 884.3hPa | 2.7V | 07:23:34 | 03:18:26 | 00:00:00 | |
| BIOWL1-15 | 2026-09-02 02:34:54 | 52.19009 | 7.06584 | 69° | 47km/h | 1241m | -4.3m/s | 8.7°C | 85.5% | 883.5hPa | 2.7V | 07:23:34 | 03:18:24 | 00:00:00 | |
| DD1CC3-15 | 2026-09-02 02:34:53 | 52.19009 | 7.06584 | 70° | 47km/h | 1241m | -4.3m/s | 8.7°C | 80.8% | 883.5hPa | 2.7V | 07:23:00 | 00:00:00 | 00:00:00 | |
| DO9LL-15 | 2026-09-02 02:34:53 | 52.19005 | 7.06566 | 70° | 47km/h | 1245m | -3.9m/s | 8.6°C | 80.9% | 882.9hPa | 2.7V | 00:00:00 | 03:18:23 | 00:00:00 | |
| DM0DOS-11 | 2026-09-02 02:34:52 | 52.18982 | 7.06455 | 70° | 47km/h | 1270m | -4.3m/s | 8.4°C | 81.7% | 880.5hPa | 2.7V | 07:23:20 | 03:18:17 | 00:00:00 | |
| BIOWL1-15 | 2026-09-02 02:34:52 | 52.19001 | 7.06548 | 70° | 47km/h | 1249m | -4.3m/s | 8.6°C | 85.8% | 882.6hPa | 2.7V | 07:23:34 | 03:18:22 | 00:00:00 | |
| BIOWL1-15 | 2026-09-02 02:34:50 | 52.18993 | 7.06511 | 72° | 47km/h | 1257m | -4.4m/s | 8.5°C | 86.1% | 881.7hPa | 2.7V | 07:23:34 | 03:18:20 | 00:00:00 | |
| BIOWL1-15 | 2026-09-02 02:34:49 | 52.18990 | 7.06492 | 72° | 47km/h | 1262m | -4m/s | 8.5°C | 86.2% | 881.2hPa | 2.7V | 07:23:34 | 03:18:19 | 00:00:00 | |
| BIOWL1-15 | 2026-09-02 02:34:47 | 52.18978 | 7.06437 | 70° | 47km/h | 1274m | -4.2m/s | 8.4°C | 86.4% | 880hPa | 2.7V | 07:23:34 | 03:18:16 | 00:00:00 | |
| BIOWL1-15 | 2026-09-02 02:34:47 | 52.18974 | 7.06418 | 70° | 47km/h | 1278m | -4.3m/s | 8.4°C | 86.8% | 879.4hPa | 2.7V | 07:23:34 | 03:18:15 | 00:00:00 | |
| DM0DOS-11 | 2026-09-02 02:34:46 | 52.18965 | 7.06381 | 68° | 47km/h | 1287m | -4.4m/s | 8.3°C | 82.4% | 878.5hPa | 2.7V | 07:23:24 | 03:18:13 | 00:00:00 | |
| BIOWL1-15 | 2026-09-02 02:34:43 | 52.18965 | 7.06381 | 68° | 47km/h | 1287m | -4.4m/s | 8.3°C | 87% | 878.6hPa | 2.7V | 07:23:34 | 03:18:13 | 00:00:00 | |
| BIOWL1-15 | 2026-09-02 02:34:41 | 52.18947 | 7.06309 | 67° | 47km/h | 1303m | -4.2m/s | 8.2°C | 86.2% | 876.7hPa | 2.7V | 07:23:34 | 03:18:09 | 00:00:00 | |
| BIOWL1-15 | 2026-09-02 02:34:41 | 52.18942 | 7.06291 | 67° | 47km/h | 1308m | -4.3m/s | 8.2°C | 86% | 876.4hPa | 2.7V | 07:23:34 | 03:18:08 | 00:00:00 | |
| DM0DOS-11 | 2026-09-02 02:34:40 | 52.18946 | 7.06309 | 67° | 47km/h | 1303m | -4.2m/s | 8.2°C | 81.6% | 876.7hPa | 2.7V | 07:23:28 | 03:18:09 | 00:00:00 | |
| DM0DOS-11 | 2026-09-02 02:34:40 | 52.18928 | 7.06237 | 67° | 47km/h | 1320m | -4.2m/s | 8.1°C | 81% | 874.8hPa | 2.7V | 07:23:32 | 03:18:05 | 00:00:00 | |
| BIOWL1-15 | 2026-09-02 02:34:39 | 52.18937 | 7.06273 | 68° | 47km/h | 1312m | -4.3m/s | 8.1°C | 85.6% | 875.9hPa | 2.7V | 07:23:34 | 03:18:07 | 00:00:00 | |
| BIOWL1-15 | 2026-09-02 02:34:35 | 52.18928 | 7.06237 | 67° | 47km/h | 1320m | -4.2m/s | 8.1°C | 85.5% | 874.8hPa | 2.7V | 07:23:34 | 03:18:05 | 00:00:00 | |
| BIOWL1-15 | 2026-09-02 02:34:34 | 52.18924 | 7.06219 | 68° | 47km/h | 1324m | -4.2m/s | 8°C | 85.5% | 874.6hPa | 2.7V | 07:23:34 | 03:18:04 | 00:00:00 | |
| BIOWL1-15 | 2026-09-02 02:34:33 | 52.18919 | 7.06201 | 69° | 47km/h | 1329m | -4.3m/s | 8°C | 85.8% | 874.2hPa | 2.7V | 07:23:34 | 03:18:03 | 00:00:00 | |
| BIOWL1-15 | 2026-09-02 02:34:32 | 52.18915 | 7.06183 | 68° | 47km/h | 1333m | -4.3m/s | 8°C | 86.2% | 873.6hPa | 2.6V | 07:24:25 | 03:18:02 | 00:00:00 | |
| BIOWL1-15 | 2026-09-02 02:34:30 | 52.18901 | 7.06129 | 67° | 47km/h | 1345m | -4.1m/s | 7.9°C | 86.4% | 872.5hPa | 2.7V | 07:24:25 | 03:17:59 | 00:00:00 | |
| BIOWL1-15 | 2026-09-02 02:34:30 | 52.18896 | 7.06112 | 65° | 47km/h | 1349m | -4m/s | 7.9°C | 86.3% | 871.9hPa | 2.7V | 07:24:25 | 03:17:58 | 00:00:00 | |
| DM0DOS-11 | 2026-09-02 02:34:28 | 52.18891 | 7.06094 | 65° | 47km/h | 1353m | -4.1m/s | 7.9°C | 81.7% | 871.5hPa | 2.7V | 07:23:40 | 03:17:57 | 00:00:00 | |
| DM0DOS-11 | 2026-09-02 02:34:28 | 52.18881 | 7.06058 | 65° | 47km/h | 1362m | -4.1m/s | 7.8°C | 81.5% | 870.6hPa | 2.7V | 07:23:42 | 03:17:55 | 00:00:00 | |
| DM0DOS-11 | 2026-09-02 02:34:28 | 52.18870 | 7.06023 | 63° | 47km/h | 1370m | -4.2m/s | 7.8°C | 81.4% | 869.8hPa | 2.7V | 07:23:44 | 03:17:53 | 00:00:00 | |
| BIOWL1-15 | 2026-09-02 02:34:26 | 52.18881 | 7.06058 | 65° | 47km/h | 1362m | -4.1m/s | 7.8°C | 86% | 870.6hPa | 2.7V | 07:24:25 | 03:17:55 | 00:00:00 | |
| BIOWL1-15 | 2026-09-02 02:34:26 | 52.18876 | 7.06040 | 64° | 47km/h | 1366m | -4.3m/s | 7.8°C | 86.1% | 870.2hPa | 2.7V | 07:24:25 | 03:17:54 | 00:00:00 | |
| BIOWL1-15 | 2026-09-02 02:34:22 | 52.18859 | 7.05987 | 64° | 49km/h | 1379m | -4.2m/s | 7.7°C | 86.2% | 868.9hPa | 2.6V | 07:24:25 | 03:17:51 | 00:00:00 | |
| DM0DOS-11 | 2026-09-02 02:34:22 | 52.18849 | 7.05951 | 64° | 49km/h | 1387m | -4.5m/s | 7.6°C | 81.9% | 868hPa | 2.7V | 07:23:48 | 03:17:49 | 00:00:00 | |
| DM0DOS-11 | 2026-09-02 02:34:22 | 52.18838 | 7.05915 | 63° | 47km/h | 1395m | -4.3m/s | 7.5°C | 82.2% | 867hPa | 2.7V | 07:23:50 | 03:17:47 | 00:00:00 | |
| BIOWL1-15 | 2026-09-02 02:34:22 | 52.18854 | 7.05969 | 65° | 49km/h | 1383m | -4m/s | 7.7°C | 86.3% | 868.5hPa | 2.7V | 07:24:25 | 03:17:50 | 00:00:00 | |
| BIOWL1-15 | 2026-09-02 02:34:18 | 52.18838 | 7.05915 | 64° | 47km/h | 1395m | -4.3m/s | 7.6°C | 86.7% | 867hPa | 2.7V | 07:24:25 | 03:17:47 | 00:00:00 | |
| BIOWL1-15 | 2026-09-02 02:34:18 | 52.18833 | 7.05897 | 64° | 49km/h | 1400m | -4.3m/s | 7.5°C | 86.9% | 866.7hPa | 2.7V | 07:24:25 | 03:17:46 | 00:00:00 | |
| BIOWL1-15 | 2026-09-02 02:34:15 | 52.18827 | 7.05880 | 63° | 49km/h | 1404m | -4.3m/s | 7.5°C | 86.9% | 866.2hPa | 2.7V | 07:24:25 | 03:17:45 | 00:00:00 | |
| BIOWL1-15 | 2026-09-02 02:34:13 | 52.18816 | 7.05844 | 64° | 47km/h | 1412m | -4m/s | 7.4°C | 87% | 865.3hPa | 2.7V | 07:24:25 | 03:17:43 | 00:00:00 | |
| BIOWL1-15 | 2026-09-02 02:34:12 | 52.18811 | 7.05826 | 64° | 47km/h | 1416m | -4.3m/s | 7.4°C | 87.1% | 864.9hPa | 2.6V | 07:24:25 | 03:17:42 | 00:00:00 | |
| DL1LOL-11 | 2026-09-02 02:34:11 | 52.18811 | 7.05826 | 65° | 47km/h | 1416m | -4.3m/s | 7.4°C | 82.4% | 864.8hPa | 2.7V | 00:00:00 | 00:00:00 | 00:00:00 | |
| DD1CC2-15 | 2026-09-02 02:34:11 | 52.18811 | 7.05826 | 65° | 47km/h | 1416m | -4.3m/s | 7.4°C | 82.4% | 864.8hPa | 2.7V | 07:24:00 | 00:00:00 | 00:00:00 | |
| DM0DOS-11 | 2026-09-02 02:34:10 | 52.18772 | 7.05702 | 62° | 49km/h | 1447m | -4.1m/s | 7.3°C | 83.8% | 861.7hPa | 2.7V | 07:24:02 | 03:17:35 | 00:00:00 | |
| BIOWL1-15 | 2026-09-02 02:34:10 | 52.18800 | 7.05791 | 63° | 49km/h | 1425m | -4.6m/s | 7.4°C | 87.1% | 864hPa | 2.7V | 07:24:25 | 03:17:40 | 00:00:00 | |
| BIOWL1-15 | 2026-09-02 02:34:08 | 52.18772 | 7.05702 | 63° | 49km/h | 1447m | -4.1m/s | 7.3°C | 88.6% | 861.7hPa | 2.7V | 07:24:25 | 03:17:35 | 00:00:00 | |
| BIOWL1-15 | 2026-09-02 02:34:08 | 52.18766 | 7.05685 | 62° | 49km/h | 1451m | -4.3m/s | 7.3°C | 88.5% | 861.2hPa | 2.7V | 07:24:25 | 03:17:34 | 00:00:00 | |
| DC6BW-12 | 2026-09-02 02:34:05 | 52.18777 | 7.05720 | 63° | 49km/h | 1443m | -4.1m/s | 7.3°C | 83.4% | 862.2hPa | 2.6V | 07:24:00 | 00:00:00 | 00:00:00 | |
| DM0DOS-11 | 2026-09-02 02:34:04 | 52.18748 | 7.05631 | 61° | 49km/h | 1464m | -4.3m/s | 7.2°C | 83.9% | 859.9hPa | 2.6V | 07:24:06 | 03:17:31 | 00:00:00 | |
| BIOWL1-15 | 2026-09-02 02:34:02 | 52.18754 | 7.05649 | 62° | 51km/h | 1460m | -4.1m/s | 7.2°C | 88.5% | 860.3hPa | 2.6V | 07:24:25 | 03:17:32 | 00:00:00 | |
| BIOWL1-15 | 2026-09-02 02:34:00 | 52.18742 | 7.05613 | 62° | 49km/h | 1468m | -4.4m/s | 7.1°C | 88.9% | 859.4hPa | 2.7V | 07:24:25 | 03:17:30 | 00:00:00 | |
| BIOWL1-15 | 2026-09-02 02:33:59 | 52.18736 | 7.05595 | 62° | 49km/h | 1472m | -4.2m/s | 7.1°C | 89% | 859hPa | 2.7V | 07:24:25 | 03:17:29 | 00:00:00 | |
| DM0DOS-11 | 2026-09-02 02:33:58 | 52.18724 | 7.05559 | 61° | 49km/h | 1481m | -4.5m/s | 7°C | 84.7% | 858.2hPa | 2.7V | 07:24:10 | 03:17:27 | 00:00:00 | |
| DM0DOS-11 | 2026-09-02 02:33:58 | 52.18701 | 7.05487 | 62° | 49km/h | 1498m | -4.4m/s | 6.9°C | 83.8% | 856.4hPa | 2.7V | 07:24:14 | 03:17:23 | 00:00:00 | |
| BIOWL1-15 | 2026-09-02 02:33:57 | 52.18724 | 7.05559 | 62° | 49km/h | 1481m | -4.5m/s | 7°C | 89.2% | 858.2hPa | 2.7V | 07:24:25 | 03:17:27 | 00:00:00 | |
| BIOWL1-15 | 2026-09-02 02:33:55 | 52.18713 | 7.05523 | 62° | 49km/h | 1489m | -4.3m/s | 7°C | 89% | 857.3hPa | 2.7V | 07:24:25 | 03:17:25 | 00:00:00 | |
| BIOWL1-15 | 2026-09-02 02:33:53 | 52.18701 | 7.05487 | 62° | 49km/h | 1498m | -4.4m/s | 6.9°C | 88.6% | 856.4hPa | 2.7V | 07:24:25 | 03:17:23 | 00:00:00 | |
| DO9LL-15 | 2026-09-02 02:33:53 | 52.18701 | 7.05487 | 63° | 49km/h | 1498m | -4.4m/s | 6.9°C | 83.8% | 856.3hPa | 2.6V | 07:24:00 | 03:17:23 | 00:00:00 | |
| DD1CC3-15 | 2026-09-02 02:33:52 | 52.18701 | 7.05487 | 63° | 49km/h | 1498m | -4.4m/s | 6.9°C | 83.7% | 856.4hPa | 2.6V | 07:24:00 | 00:00:00 | 00:00:00 | |
| DM0DOS-11 | 2026-09-02 02:33:52 | 52.18689 | 7.05451 | 62° | 49km/h | 1507m | -4.5m/s | 6.9°C | 82.8% | 855.4hPa | 2.6V | 07:24:16 | 03:17:21 | 00:00:00 | |
| DM0DOS-11 | 2026-09-02 02:33:52 | 52.18678 | 7.05415 | 62° | 49km/h | 1516m | -4.5m/s | 6.8°C | 82.1% | 854.6hPa | 2.7V | 07:24:18 | 03:17:19 | 00:00:00 | |
| DM0DOS-11 | 2026-09-02 02:33:52 | 52.18666 | 7.05378 | 62° | 49km/h | 1524m | -4.5m/s | 6.7°C | 82.2% | 853.5hPa | 2.7V | 07:24:20 | 03:17:17 | 00:00:00 | |
| BIOWL1-15 | 2026-09-02 02:33:52 | 52.18695 | 7.05469 | 62° | 49km/h | 1502m | -4.4m/s | 6.9°C | 87.8% | 855.8hPa | 2.6V | 07:24:25 | 03:17:22 | 00:00:00 | |
| BIOWL1-15 | 2026-09-02 02:33:51 | 52.18689 | 7.05451 | 62° | 49km/h | 1507m | -4.5m/s | 6.9°C | 87.6% | 855.4hPa | 2.6V | 07:24:25 | 03:17:21 | 00:00:00 | |
| BIOWL1-15 | 2026-09-02 02:33:49 | 52.18672 | 7.05397 | 62° | 49km/h | 1520m | -4.3m/s | 6.8°C | 87.1% | 853.9hPa | 2.7V | 07:24:25 | 03:17:18 | 00:00:00 | |
| BIOWL1-15 | 2026-09-02 02:33:49 | 52.18666 | 7.05378 | 62° | 49km/h | 1524m | -4.5m/s | 6.7°C | 87.1% | 853.5hPa | 2.7V | 07:24:25 | 03:17:17 | 00:00:00 | |
| DD1CC9-15 | 2026-09-02 02:33:46 | 52.18666 | 7.05378 | 63° | 49km/h | 1524m | -4.5m/s | 0°C | 0% | 853.5hPa | 2.7V | 00:00:00 | 00:00:00 | 00:00:00 | |
| DM0DOS-11 | 2026-09-02 02:33:46 | 52.18655 | 7.05342 | 61° | 49km/h | 1533m | -4.5m/s | 6.7°C | 81.9% | 852.6hPa | 2.7V | 07:24:22 | 03:17:15 | 00:00:00 | |
| DM0DOS-11 | 2026-09-02 02:33:46 | 52.18631 | 7.05272 | 60° | 47km/h | 1551m | -4.3m/s | 6.5°C | 82.8% | 850.8hPa | 2.6V | 07:24:26 | 03:17:11 | 00:00:00 | |
| BIOWL1-15 | 2026-09-02 02:33:45 | 52.18649 | 7.05325 | 61° | 49km/h | 1538m | -4.5m/s | 6.6°C | 86.9% | 852hPa | 2.7V | 07:24:25 | 03:17:14 | 00:00:00 | |
| BIOWL1-15 | 2026-09-02 02:33:45 | 52.18643 | 7.05307 | 61° | 47km/h | 1542m | -4.3m/s | 6.6°C | 87.1% | 851.8hPa | 2.7V | 07:24:25 | 03:17:13 | 00:00:00 | |
| BIOWL1-15 | 2026-09-02 02:33:41 | 52.18625 | 7.05256 | 59° | 47km/h | 1555m | -4.3m/s | 6.5°C | 87.4% | 850.5hPa | 2.7V | 07:25:16 | 03:17:10 | 00:00:00 | |
| BIOWL1-15 | 2026-09-02 02:33:41 | 52.18618 | 7.05239 | 58° | 47km/h | 1559m | -4.4m/s | 6.5°C | 87.2% | 849.9hPa | 2.7V | 07:25:16 | 03:17:09 | 00:00:00 | |
| DM0DOS-11 | 2026-09-02 02:33:40 | 52.18618 | 7.05239 | 58° | 47km/h | 1559m | -4.4m/s | 6.5°C | 82.8% | 849.9hPa | 2.7V | 07:24:28 | 03:17:09 | 00:00:00 | |
| DM0DOS-11 | 2026-09-02 02:33:40 | 52.18593 | 7.05173 | 57° | 47km/h | 1576m | -4.3m/s | 6.3°C | 83.1% | 848.2hPa | 2.7V | 07:24:32 | 03:17:05 | 00:00:00 | |
| BIOWL1-15 | 2026-09-02 02:33:38 | 52.18612 | 7.05222 | 59° | 47km/h | 1564m | -4.4m/s | 6.4°C | 87% | 849.5hPa | 2.7V | 07:25:16 | 03:17:08 | 00:00:00 | |
| BIOWL1-15 | 2026-09-02 02:33:36 | 52.18599 | 7.05189 | 57° | 47km/h | 1572m | -4.2m/s | 6.3°C | 87.2% | 848.7hPa | 2.7V | 07:25:16 | 03:17:06 | 00:00:00 | |
| DM0DOS-11 | 2026-09-02 02:33:34 | 52.18555 | 7.05074 | 57° | 47km/h | 1602m | -4.1m/s | 6.1°C | 83.2% | 845.6hPa | 2.7V | 07:24:38 | 03:16:59 | 00:00:00 | |
| BIOWL1-15 | 2026-09-02 02:33:34 | 52.18587 | 7.05156 | 58° | 47km/h | 1581m | -4.3m/s | 6.3°C | 87.2% | 847.8hPa | 2.7V | 07:25:16 | 03:17:04 | 00:00:00 | |
| BIOWL1-15 | 2026-09-02 02:33:32 | 52.18574 | 7.05124 | 57° | 47km/h | 1589m | -4.4m/s | 6.2°C | 87.3% | 847.1hPa | 2.6V | 07:25:16 | 03:17:02 | 00:00:00 | |
| BIOWL1-15 | 2026-09-02 02:33:30 | 52.18542 | 7.05041 | 58° | 47km/h | 1610m | -4.4m/s | 6.1°C | 88.1% | 844.5hPa | 2.7V | 07:25:16 | 03:16:57 | 00:00:00 | |
| BIOWL1-15 | 2026-09-02 02:33:30 | 52.18536 | 7.05024 | 59° | 46km/h | 1615m | -4.2m/s | 6.1°C | 88.4% | 844.3hPa | 2.7V | 07:25:16 | 03:16:56 | 00:00:00 | |
| DD1CC2-15 | 2026-09-02 02:33:29 | 52.18561 | 7.05090 | 58° | 47km/h | 1598m | -4.4m/s | 6.1°C | 83.1% | 846.0hPa | 2.6V | 07:25:00 | 00:00:00 | 00:00:00 | |
| MET0W-2 | 2026-09-02 02:33:28 | 52.18548 | 7.05058 | 57° | 47km/h | 1606m | -4.2m/s | 6.1°C | 83.3% | 845.1hPa | 2.6V | 00:00:00 | 00:00:00 | 00:00:00 | |
| DM0DOS-11 | 2026-09-02 02:33:28 | 52.18517 | 7.04975 | 56° | 47km/h | 1628m | -4.2m/s | 5.9°C | 84.3% | 843hPa | 2.6V | 07:24:44 | 03:16:53 | 00:00:00 | |
| BIOWL1-15 | 2026-09-02 02:33:24 | 52.18523 | 7.04991 | 57° | 47km/h | 1623m | -4.2m/s | 6°C | 88.7% | 843.4hPa | 2.7V | 07:25:16 | 03:16:54 | 00:00:00 | |
| DO9LL-15 | 2026-09-02 02:33:23 | 52.18517 | 7.04975 | 57° | 46km/h | 1628m | -4.2m/s | 5.9°C | 84.3% | 842.9hPa | 2.7V | 00:00:00 | 03:16:53 | 00:00:00 | |
| DM0DOS-11 | 2026-09-02 02:33:22 | 52.18476 | 7.04880 | 53° | 46km/h | 1653m | -4.3m/s | 5.7°C | 85.2% | 840.3hPa | 2.7V | 07:24:50 | 03:16:47 | 00:00:00 | |
| BIOWL1-15 | 2026-09-02 02:33:22 | 52.18510 | 7.04959 | 56° | 47km/h | 1632m | -4.3m/s | 5.9°C | 88.9% | 842.5hPa | 2.6V | 07:25:16 | 03:16:52 | 00:00:00 | |
| BIOWL1-15 | 2026-09-02 02:33:21 | 52.18503 | 7.04943 | 55° | 47km/h | 1636m | -4.4m/s | 5.9°C | 89% | 842.1hPa | 2.7V | 07:25:16 | 03:16:51 | 00:00:00 | |
| BIOWL1-15 | 2026-09-02 02:33:19 | 52.18483 | 7.04896 | 54° | 46km/h | 1649m | -4.4m/s | 5.8°C | 89.4% | 840.5hPa | 2.7V | 07:25:16 | 03:16:48 | 00:00:00 | |
| BIOWL1-15 | 2026-09-02 02:33:19 | 52.18476 | 7.04880 | 54° | 46km/h | 1653m | -4.3m/s | 5.7°C | 89.8% | 840.3hPa | 2.7V | 07:25:16 | 03:16:47 | 00:00:00 | |
| BIOWL1-15 | 2026-09-02 02:33:15 | 52.18463 | 7.04850 | 54° | 46km/h | 1662m | -4.4m/s | 5.7°C | 90.1% | 839.5hPa | 2.7V | 07:25:16 | 03:16:45 | 00:00:00 | |
| BIOWL1-15 | 2026-09-02 02:33:13 | 52.18443 | 7.04804 | 54° | 46km/h | 1675m | -4.1m/s | 5.5°C | 90.3% | 838.1hPa | 2.7V | 07:25:16 | 03:16:42 | 00:00:00 | |
| BIOWL1-15 | 2026-09-02 02:33:13 | 52.18436 | 7.04788 | 55° | 46km/h | 1679m | -4.3m/s | 5.5°C | 90.4% | 837.6hPa | 2.7V | 07:25:16 | 03:16:41 | 00:00:00 | |
| DO9LL-15 | 2026-09-02 02:33:13 | 52.18449 | 7.04819 | 55° | 46km/h | 1671m | -4.2m/s | 5.5°C | 86.0% | 838.5hPa | 2.7V | 00:00:00 | 03:16:43 | 00:00:00 | |
| DD1CC3-15 | 2026-09-02 02:33:11 | 52.18442 | 7.04804 | 55° | 46km/h | 1675m | -4.1m/s | 5.5°C | 86.0% | 838.2hPa | 2.7V | 07:25:00 | 00:00:00 | 00:00:00 | |
| DM0DOS-11 | 2026-09-02 02:33:10 | 52.18422 | 7.04757 | 53° | 46km/h | 1687m | -4.1m/s | 5.4°C | 87.3% | 836.7hPa | 2.7V | 07:24:58 | 03:16:39 | 00:00:00 | |
| BIOWL1-15 | 2026-09-02 02:33:10 | 52.18429 | 7.04773 | 55° | 46km/h | 1683m | -4m/s | 5.5°C | 90.5% | 837.2hPa | 2.7V | 07:25:16 | 03:16:40 | 00:00:00 | |
| BIOWL1-15 | 2026-09-02 02:33:09 | 52.18422 | 7.04757 | 54° | 46km/h | 1687m | -4.1m/s | 5.4°C | 91% | 836.7hPa | 2.7V | 07:25:16 | 03:16:39 | 00:00:00 | |
| BIOWL1-15 | 2026-09-02 02:33:07 | 52.18402 | 7.04711 | 53° | 46km/h | 1700m | -4.1m/s | 5.3°C | 91.1% | 835.5hPa | 2.7V | 07:25:16 | 03:16:36 | 00:00:00 | |
| BIOWL1-15 | 2026-09-02 02:33:07 | 52.18395 | 7.04696 | 52° | 46km/h | 1704m | -4.3m/s | 5.3°C | 91.4% | 835hPa | 2.7V | 07:25:16 | 03:16:35 | 00:00:00 | |
| DD1CC9-15 | 2026-09-02 02:33:04 | 52.18394 | 7.04696 | 53° | 46km/h | 1704m | -4.3m/s | 0°C | 0% | 0hPa | 2.6V | 00:00:00 | 00:00:00 | 00:00:00 | |
| DM0DOS-11 | 2026-09-02 02:33:04 | 52.18380 | 7.04667 | 51° | 46km/h | 1712m | -4.1m/s | 5.2°C | 88.3% | 834.2hPa | 2.6V | 07:25:04 | 03:16:33 | 00:00:00 | |
| BIOWL1-15 | 2026-09-02 02:33:03 | 52.18380 | 7.04667 | 52° | 46km/h | 1712m | -4.1m/s | 5.3°C | 91.9% | 834.2hPa | 2.6V | 07:25:16 | 03:16:33 | 00:00:00 | |
| BIOWL1-15 | 2026-09-02 02:33:02 | 52.18373 | 7.04652 | 51° | 46km/h | 1716m | -4m/s | 5.2°C | 92.2% | 833.8hPa | 2.7V | 07:25:16 | 03:16:32 | 00:00:00 | |
| BIOWL1-15 | 2026-09-02 02:33:00 | 52.18359 | 7.04623 | 51° | 46km/h | 1724m | -4.2m/s | 5.2°C | 92.7% | 833hPa | 2.7V | 07:25:16 | 03:16:30 | 00:00:00 | |
| BIOWL1-15 | 2026-09-02 02:32:59 | 52.18351 | 7.04608 | 52° | 44km/h | 1729m | -3.9m/s | 5.1°C | 92.7% | 832.6hPa | 2.7V | 07:25:16 | 03:16:29 | 00:00:00 | |
| DC6BW-12 | 2026-09-02 02:32:58 | 52.18351 | 7.04608 | 53° | 44km/h | 1728m | -3.9m/s | 5.1°C | 88.6% | 832.7hPa | 2.7V | 00:00:00 | 00:00:00 | 00:00:00 | |
| DM0DOS-11 | 2026-09-02 02:32:58 | 52.18337 | 7.04579 | 50° | 46km/h | 1736m | -4.1m/s | 5.1°C | 88.9% | 831.8hPa | 2.7V | 07:25:10 | 03:16:27 | 00:00:00 | |
| BIOWL1-15 | 2026-09-02 02:32:57 | 52.18337 | 7.04579 | 51° | 46km/h | 1736m | -4.1m/s | 5.1°C | 92.8% | 831.8hPa | 2.7V | 07:25:16 | 03:16:27 | 00:00:00 | |
| BIOWL1-15 | 2026-09-02 02:32:55 | 52.18323 | 7.04550 | 51° | 46km/h | 1744m | -4.1m/s | 5°C | 93.3% | 831hPa | 2.7V | 07:25:16 | 03:16:25 | 00:00:00 | |
| BIOWL1-15 | 2026-09-02 02:32:54 | 52.18316 | 7.04536 | 52° | 46km/h | 1748m | -4.2m/s | 4.9°C | 93.4% | 830.5hPa | 2.7V | 07:25:16 | 03:16:24 | 00:00:00 | |
| DO2KSM | 2026-09-02 02:32:53 | 52.18316 | 7.04536 | 52° | 46km/h | 1749m | -4.2m/s | 4.9°C | 89.1% | 830.5hPa | 2.7V | 07:25:00 | 00:00:00 | 00:00:00 | |
| DO9LL-15 | 2026-09-02 02:32:53 | 52.18309 | 7.04521 | 52° | 46km/h | 1753m | -4.0m/s | 4.9°C | 89.5% | 830.0hPa | 2.7V | 00:00:00 | 03:16:23 | 00:00:00 | |
| DM0DOS-11 | 2026-09-02 02:32:52 | 52.18295 | 7.04492 | 51° | 46km/h | 1761m | -4m/s | 4.9°C | 90.1% | 829.2hPa | 2.7V | 07:25:16 | 03:16:21 | 00:00:00 | |
| BIOWL1-15 | 2026-09-02 02:32:52 | 52.18302 | 7.04506 | 51° | 46km/h | 1757m | -4.3m/s | 4.9°C | 94% | 829.7hPa | 2.7V | 07:25:16 | 03:16:22 | 00:00:00 | |
| BIOWL1-15 | 2026-09-02 02:32:51 | 52.18294 | 7.04492 | 52° | 46km/h | 1761m | -4m/s | 4.9°C | 94.2% | 829.2hPa | 2.7V | 07:25:16 | 03:16:21 | 00:00:00 | |
| BIOWL1-15 | 2026-09-02 02:32:49 | 52.18280 | 7.04462 | 52° | 44km/h | 1769m | -4.2m/s | 4.8°C | 94.5% | 828.4hPa | 2.6V | 07:26:07 | 03:16:19 | 00:00:00 | |
| BIOWL1-15 | 2026-09-02 02:32:47 | 52.18259 | 7.04419 | 50° | 46km/h | 1781m | -3.9m/s | 4.7°C | 91.9% | 827.1hPa | 2.7V | 07:26:07 | 03:16:16 | 00:00:00 | |
| BIOWL1-15 | 2026-09-02 02:32:47 | 52.18252 | 7.04405 | 50° | 46km/h | 1785m | -4.1m/s | 4.7°C | 92% | 826.8hPa | 2.7V | 07:26:07 | 03:16:15 | 00:00:00 | |
| DM0DOS-11 | 2026-09-02 02:32:46 | 52.18252 | 7.04405 | 50° | 46km/h | 1785m | -4.1m/s | 4.7°C | 87.7% | 826.8hPa | 2.7V | 07:25:22 | 03:16:15 | 00:00:00 | |
| DM0DOS-11 | 2026-09-02 02:32:46 | 52.18223 | 7.04347 | 50° | 46km/h | 1801m | -4.3m/s | 4.5°C | 89% | 825hPa | 2.6V | 07:25:26 | 03:16:11 | 00:00:00 | |
| BIOWL1-15 | 2026-09-02 02:32:43 | 52.18237 | 7.04376 | 51° | 46km/h | 1793m | -4.1m/s | 4.6°C | 92.5% | 825.9hPa | 2.7V | 07:26:07 | 03:16:13 | 00:00:00 | |
| BIOWL1-15 | 2026-09-02 02:32:42 | 52.18230 | 7.04362 | 51° | 46km/h | 1796m | -4.4m/s | 4.6°C | 92.6% | 825.4hPa | 2.7V | 07:26:07 | 03:16:12 | 00:00:00 | |
| BIOWL1-15 | 2026-09-02 02:32:40 | 52.18209 | 7.04318 | 51° | 46km/h | 1809m | -4.3m/s | 4.4°C | 93.6% | 824.3hPa | 2.7V | 07:26:07 | 03:16:09 | 00:00:00 | |
| BIOWL1-15 | 2026-09-02 02:32:40 | 52.18201 | 7.04304 | 51° | 46km/h | 1813m | -4.5m/s | 4.4°C | 94% | 823.7hPa | 2.7V | 07:26:07 | 03:16:08 | 00:00:00 | |
| BIOWL1-15 | 2026-09-02 02:32:37 | 52.18194 | 7.04289 | 51° | 46km/h | 1818m | -4.5m/s | 4.4°C | 94.3% | 823.3hPa | 2.7V | 07:26:07 | 03:16:07 | 00:00:00 | |
| BIOWL1-15 | 2026-09-02 02:32:35 | 52.18166 | 7.04232 | 51° | 44km/h | 1835m | -4.3m/s | 4.2°C | 95.3% | 821.7hPa | 2.7V | 07:26:07 | 03:16:03 | 00:00:00 | |
| BIOWL1-15 | 2026-09-02 02:32:35 | 52.18159 | 7.04218 | 51° | 44km/h | 1839m | -4.5m/s | 4.2°C | 95.5% | 821.3hPa | 2.6V | 07:26:07 | 03:16:02 | 00:00:00 | |
| DM0DOS-11 | 2026-09-02 02:32:34 | 52.18166 | 7.04232 | 50° | 44km/h | 1835m | -4.3m/s | 4.2°C | 91.4% | 821.7hPa | 2.7V | 07:25:34 | 03:16:03 | 00:00:00 | |
| DM0DOS-11 | 2026-09-02 02:32:34 | 52.18137 | 7.04175 | 50° | 46km/h | 1853m | -4.3m/s | 4°C | 92.6% | 820hPa | 2.7V | 07:25:38 | 03:15:59 | 00:00:00 | |
| BIOWL1-15 | 2026-09-02 02:32:33 | 52.18152 | 7.04203 | 51° | 46km/h | 1844m | -4.4m/s | 4.1°C | 95.9% | 820.9hPa | 2.6V | 07:26:07 | 03:16:01 | 00:00:00 | |
| BIOWL1-15 | 2026-09-02 02:32:29 | 52.18130 | 7.04160 | 51° | 46km/h | 1857m | -4.2m/s | 4°C | 96.3% | 819.6hPa | 2.7V | 07:26:07 | 03:15:58 | 00:00:00 | |
| BIOWL1-15 | 2026-09-02 02:32:29 | 52.18123 | 7.04146 | 50° | 46km/h | 1861m | -4.4m/s | 4°C | 96.3% | 819.3hPa | 2.7V | 07:26:07 | 03:15:57 | 00:00:00 | |
| DM0DOS-11 | 2026-09-02 02:32:28 | 52.18123 | 7.04146 | 50° | 46km/h | 1861m | -4.3m/s | 4°C | 92.7% | 819.3hPa | 2.7V | 07:25:40 | 03:15:57 | 00:00:00 | |
| DM0DOS-11 | 2026-09-02 02:32:28 | 52.18108 | 7.04117 | 50° | 46km/h | 1869m | -3.9m/s | 3.9°C | 93% | 818.3hPa | 2.7V | 07:25:42 | 03:15:55 | 00:00:00 | |
| BIOWL1-15 | 2026-09-02 02:32:25 | 52.18101 | 7.04103 | 50° | 44km/h | 1874m | -4.1m/s | 3.9°C | 95.8% | 818hPa | 2.7V | 07:26:07 | 03:15:54 | 00:00:00 | |
| BIOWL1-15 | 2026-09-02 02:32:25 | 52.18094 | 7.04089 | 51° | 44km/h | 1878m | -4.1m/s | 3.8°C | 95.5% | 817.6hPa | 2.6V | 07:26:07 | 03:15:53 | 00:00:00 | |
| BIOWL9-15 | 2026-09-02 02:32:23 | 52.18094 | 7.04089 | 50° | 44km/h | 1878m | -4.1m/s | 3.8°C | 91.5% | 817.6hPa | 2.7V | 00:00:00 | 00:00:00 | 00:00:00 | |
| DO9LL-15 | 2026-09-02 02:32:23 | 52.18094 | 7.04089 | 51° | 44km/h | 1878m | -4.1m/s | 3.8°C | 91.8% | 817.6hPa | 2.7V | 00:00:00 | 03:15:53 | 00:00:00 | |
| DM0DOS-11 | 2026-09-02 02:32:22 | 52.18065 | 7.04033 | 50° | 46km/h | 1894m | -4.2m/s | 3.7°C | 93.2% | 815.8hPa | 2.7V | 07:25:48 | 03:15:49 | 00:00:00 | |
| BIOWL1-15 | 2026-09-02 02:32:21 | 52.18080 | 7.04061 | 51° | 44km/h | 1885m | -4m/s | 3.7°C | 95.8% | 816.7hPa | 2.7V | 07:26:07 | 03:15:51 | 00:00:00 | |
| BIOWL1-15 | 2026-09-02 02:32:19 | 52.18065 | 7.04033 | 50° | 46km/h | 1894m | -4.2m/s | 3.7°C | 96.7% | 815.8hPa | 2.7V | 07:26:07 | 03:15:49 | 00:00:00 | |
| BIOWL1-15 | 2026-09-02 02:32:18 | 52.18058 | 7.04019 | 51° | 44km/h | 1898m | -4.3m/s | 3.6°C | 96.9% | 815.4hPa | 2.7V | 07:26:07 | 03:15:48 | 00:00:00 | |
| BIOWL1-15 | 2026-09-02 02:32:16 | 52.18037 | 7.03977 | 51° | 44km/h | 1910m | -4m/s | 3.5°C | 96.8% | 814.2hPa | 2.7V | 07:26:07 | 03:15:45 | 00:00:00 | |
| DM0DOS-11 | 2026-09-02 02:32:16 | 52.18023 | 7.03950 | 49° | 44km/h | 1918m | -4m/s | 3.4°C | 94.1% | 813.4hPa | 2.6V | 07:25:54 | 03:15:43 | 00:00:00 | |
| DM0DOS-11 | 2026-09-02 02:32:16 | 52.18008 | 7.03923 | 48° | 44km/h | 1926m | -4.1m/s | 3.4°C | 94.3% | 812.6hPa | 2.7V | 07:25:56 | 03:15:41 | 00:00:00 | |
| BIOWL1-15 | 2026-09-02 02:32:16 | 52.18030 | 7.03963 | 50° | 44km/h | 1914m | -4.2m/s | 3.5°C | 96.9% | 813.9hPa | 2.6V | 07:26:07 | 03:15:44 | 00:00:00 | |
| BIOWL1-15 | 2026-09-02 02:32:12 | 52.18015 | 7.03936 | 49° | 44km/h | 1922m | -4m/s | 3.4°C | 96.9% | 813.1hPa | 2.7V | 07:26:07 | 03:15:42 | 00:00:00 | |
| BIOWL1-15 | 2026-09-02 02:32:10 | 52.17986 | 7.03883 | 48° | 44km/h | 1938m | -4.1m/s | 3.2°C | 96.7% | 811.3hPa | 2.6V | 07:26:07 | 03:15:38 | 00:00:00 | |
| BIOWL1-15 | 2026-09-02 02:32:10 | 52.17979 | 7.03869 | 50° | 44km/h | 1942m | -4.1m/s | 3.2°C | 96.6% | 810.9hPa | 2.7V | 07:26:07 | 03:15:37 | 00:00:00 | |
| DM0DOS-11 | 2026-09-02 02:32:10 | 52.17979 | 7.03869 | 49° | 44km/h | 1942m | -4.1m/s | 3.2°C | 95.8% | 810.8hPa | 2.7V | 07:26:00 | 03:15:37 | 00:00:00 | |
| DM0DOS-11 | 2026-09-02 02:32:10 | 52.17965 | 7.03842 | 50° | 44km/h | 1950m | -4.1m/s | 3.1°C | 96% | 810hPa | 2.7V | 07:26:02 | 03:15:35 | 00:00:00 | |
| BIOWL1-15 | 2026-09-02 02:32:08 | 52.17972 | 7.03856 | 51° | 44km/h | 1946m | -4.3m/s | 3.2°C | 96.4% | 810.6hPa | 2.7V | 07:26:07 | 03:15:36 | 00:00:00 | |
| BIOWL1-15 | 2026-09-02 02:32:05 | 52.17965 | 7.03842 | 50° | 44km/h | 1950m | -4.1m/s | 3.1°C | 96.3% | 810.1hPa | 2.7V | 07:26:07 | 03:15:35 | 00:00:00 | |
| DM0DOS-11 | 2026-09-02 02:32:04 | 52.17951 | 7.03814 | 52° | 42km/h | 1958m | -4.1m/s | 3.1°C | 96.8% | 809.4hPa | 2.7V | 07:26:04 | 03:15:33 | 00:00:00 | |
| DM0DOS-11 | 2026-09-02 02:32:04 | 52.17938 | 7.03786 | 55° | 42km/h | 1967m | -3.9m/s | 3°C | 96% | 808.5hPa | 2.6V | 07:26:06 | 03:15:31 | 00:00:00 | |
| DM0DOS-11 | 2026-09-02 02:32:04 | 52.17927 | 7.03758 | 57° | 38km/h | 1975m | -4.2m/s | 3°C | 96% | 807.7hPa | 2.7V | 07:26:08 | 03:15:29 | 00:00:00 | |
| BIOWL1-15 | 2026-09-02 02:32:03 | 52.17945 | 7.03800 | 54° | 42km/h | 1963m | -4.3m/s | 3°C | 96.3% | 809hPa | 2.7V | 07:26:07 | 03:15:32 | 00:00:00 | |
| BIOWL1-15 | 2026-09-02 02:32:03 | 52.17938 | 7.03786 | 56° | 42km/h | 1967m | -3.9m/s | 3°C | 95.4% | 808.5hPa | 2.6V | 07:26:07 | 03:15:31 | 00:00:00 | |
| BIOWL1-15 | 2026-09-02 02:31:59 | 52.17927 | 7.03758 | 58° | 38km/h | 1975m | -4.2m/s | 3°C | 95.4% | 807.7hPa | 2.7V | 07:26:58 | 03:15:29 | 00:00:00 | |
| DM0DOS-11 | 2026-09-02 02:31:58 | 52.17917 | 7.03731 | 58° | 38km/h | 1983m | -4.1m/s | 2.9°C | 96.4% | 806.9hPa | 2.7V | 07:26:10 | 03:15:27 | 00:00:00 | |
| DM0DOS-11 | 2026-09-02 02:31:58 | 52.17907 | 7.03704 | 59° | 38km/h | 1991m | -4.3m/s | 2.8°C | 96.6% | 806hPa | 2.7V | 07:26:12 | 03:15:25 | 00:00:00 | |
| DM0DOS-11 | 2026-09-02 02:31:58 | 52.17897 | 7.03677 | 59° | 38km/h | 1999m | -4.1m/s | 2.8°C | 96.6% | 805.4hPa | 2.7V | 07:26:14 | 03:15:23 | 00:00:00 | |
| BIOWL1-15 | 2026-09-02 02:31:58 | 52.17922 | 7.03745 | 58° | 38km/h | 1979m | -4.1m/s | 2.9°C | 95.6% | 807.5hPa | 2.7V | 07:26:58 | 03:15:28 | 00:00:00 | |
| BIOWL1-15 | 2026-09-02 02:31:56 | 52.17912 | 7.03718 | 60° | 38km/h | 1987m | -4.1m/s | 2.9°C | 95.8% | 806.6hPa | 2.7V | 07:26:58 | 03:15:26 | 00:00:00 | |
| BIOWL1-15 | 2026-09-02 02:31:54 | 52.17897 | 7.03677 | 60° | 38km/h | 1999m | -4.1m/s | 2.8°C | 95% | 805.4hPa | 2.7V | 07:26:58 | 03:15:23 | 00:00:00 | |
| BIOWL1-15 | 2026-09-02 02:31:54 | 52.17892 | 7.03663 | 60° | 38km/h | 2004m | -4.5m/s | 2.8°C | 94.6% | 804.8hPa | 2.6V | 07:26:58 | 03:15:22 | 00:00:00 | |
| DO9LL-15 | 2026-09-02 02:31:53 | 52.17897 | 7.03677 | 60° | 37km/h | 1999m | -4.0m/s | 2.7°C | 96.6% | 805.3hPa | 2.7V | 00:00:00 | 03:15:23 | 00:00:00 | |
| DL4BBY-15 | 2026-09-02 02:31:52 | 52.17892 | 7.03663 | 60° | 35km/h | 2003m | -4.4m/s | 2.2°C | 0% | 0hPa | 2.7V | 00:00:00 | 00:00:00 | 00:00:00 | |
| DO2KSM | 2026-09-02 02:31:51 | 52.17892 | 7.03663 | 61° | 38km/h | 2004m | -4.5m/s | 2.8°C | 96.2% | 804.8hPa | 2.7V | 07:26:00 | 00:00:00 | 00:00:00 | |
| DM0DOS-11 | 2026-09-02 02:31:49 | 52.17878 | 7.03621 | 60° | 38km/h | 2016m | -4.1m/s | 2.8°C | 92.6% | 803.7hPa | 2.7V | 07:26:18 | 03:15:19 | 00:00:00 | |
| DM0DOS-11 | 2026-09-02 02:31:49 | 52.17855 | 7.03553 | 63° | 38km/h | 2036m | -4.3m/s | 3.2°C | 79.5% | 801.6hPa | 2.7V | 07:26:23 | 03:15:14 | 00:00:00 | |
| BIOWL1-15 | 2026-09-02 02:31:44 | 52.17846 | 7.03526 | 64° | 37km/h | 2045m | -4.1m/s | 3.5°C | 73.3% | 800.8hPa | 2.6V | 07:26:58 | 03:15:12 | 00:00:00 | |
| DD1CC3-15 | 2026-09-02 02:31:42 | 52.17850 | 7.03539 | 65° | 38km/h | 2041m | -4.2m/s | 3.5°C | 70.7% | 801.3hPa | 2.7V | 07:26:00 | 00:00:00 | 00:00:00 | |
| DL1LOL-11 | 2026-09-02 02:31:41 | 52.17846 | 7.03526 | 65° | 37km/h | 2045m | -4.1m/s | 3.5°C | 71.2% | 800.8hPa | 2.7V | 00:00:00 | 00:00:00 | 00:00:00 | |
| DM0DOS-11 | 2026-09-02 02:31:39 | 52.17834 | 7.03486 | 65° | 35km/h | 2057m | -4.3m/s | 3.9°C | 57.4% | 799.7hPa | 2.7V | 07:26:28 | 03:15:09 | 00:00:00 | |
| DM0DOS-11 | 2026-09-02 02:31:39 | 52.17817 | 7.03424 | 66° | 33km/h | 2077m | -4.2m/s | 4°C | 48.4% | 797.7hPa | 2.6V | 07:26:33 | 03:15:04 | 00:00:00 | |
| DC6BW-12 | 2026-09-02 02:31:37 | 52.17831 | 7.03473 | 66° | 33km/h | 2061m | -3.9m/s | 3.8°C | 56.9% | 799.2hPa | 2.7V | 07:26:00 | 00:00:00 | 00:00:00 | |
| DO9LL-15 | 2026-09-02 02:31:36 | 52.17824 | 7.03448 | 66° | 33km/h | 2069m | -4.1m/s | 3.9°C | 50.5% | 798.4hPa | 2.7V | 00:00:00 | 03:15:06 | 00:00:00 | |
| DM0DOS-11 | 2026-09-02 02:31:34 | 52.17801 | 7.03363 | 66° | 33km/h | 2098m | -4.2m/s | 4.3°C | 39.3% | 795.6hPa | 2.7V | 07:26:38 | 03:14:59 | 00:00:00 | |
| BIOWL1-15 | 2026-09-02 02:31:31 | 52.17807 | 7.03387 | 67° | 33km/h | 2090m | -4.3m/s | 4.2°C | 46.4% | 796.4hPa | 2.7V | 07:26:58 | 03:15:01 | 00:00:00 | |
| DO2KSM | 2026-09-02 02:31:30 | 52.17807 | 7.03387 | 68° | 33km/h | 2090m | -4.3m/s | 4.2°C | 42.1% | 796.4hPa | 2.7V | 07:26:00 | 00:00:00 | 00:00:00 | |
| DM0DOS-11 | 2026-09-02 02:31:29 | 52.17785 | 7.03300 | 67° | 35km/h | 2119m | -4.4m/s | 4.3°C | 28.5% | 793.6hPa | 2.7V | 07:26:43 | 03:14:54 | 00:00:00 | |
| BIOWL7-15 | 2026-09-02 02:31:26 | 52.17794 | 7.03338 | 68° | 33km/h | 2106m | -4.2m/s | 4.3°C | 34.8% | 794.8hPa | 2.7V | 00:00:00 | 00:00:00 | 00:00:00 | |
| DM0DOS-11 | 2026-09-02 02:31:24 | 52.17768 | 7.03234 | 67° | 35km/h | 2141m | -4m/s | 4.3°C | 29.8% | 791.5hPa | 2.7V | 07:26:48 | 03:14:49 | 00:00:00 | |
| BIOWL1-15 | 2026-09-02 02:31:20 | 52.17771 | 7.03247 | 68° | 35km/h | 2136m | -4.4m/s | 4.4°C | 31.6% | 791.9hPa | 2.7V | 07:26:58 | 03:14:50 | 00:00:00 | |
| BIOWL1-15 | 2026-09-02 02:31:13 | 52.17740 | 7.03107 | 72° | 31km/h | 2183m | -4m/s | 4.3°C | 42.2% | 787.4hPa | 2.7V | 07:26:58 | 03:14:39 | 00:00:00 | |
| DD1CC3-15 | 2026-09-02 02:31:12 | 52.17750 | 7.03156 | 71° | 33km/h | 2166m | -4.4m/s | 4.3°C | 37.2% | 788.9hPa | 2.7V | 07:26:00 | 00:00:00 | 00:00:00 | |
| DM0DOS-11 | 2026-09-02 02:31:09 | 52.17739 | 7.03107 | 71° | 31km/h | 2183m | -4m/s | 4.2°C | 38% | 787.4hPa | 2.7V | 07:26:58 | 03:14:39 | 00:00:00 | |
| DM0DOS-11 | 2026-09-02 02:31:09 | 52.17727 | 7.03046 | 72° | 31km/h | 2204m | -4.4m/s | 4.2°C | 42.2% | 785.2hPa | 2.6V | 07:27:03 | 03:14:34 | 00:00:00 | |
| DD1CC8 | 2026-09-02 02:31:08 | 52.17732 | 7.03071 | 72° | 31km/h | 2195m | -4.3m/s | 4.2°C | 40.9% | 786.1hPa | 2.7V | 00:00:00 | 00:00:00 | 00:00:00 | |
| BIOWL7-15 | 2026-09-02 02:31:00 | 52.17720 | 7.03008 | 75° | 31km/h | 2217m | -4.1m/s | 4.1°C | 44.7% | 784.1hPa | 2.7V | 00:00:00 | 00:00:00 | 00:00:00 | |
| DM0DOS-11 | 2026-09-02 02:30:59 | 52.17716 | 7.02983 | 72° | 33km/h | 2225m | -4.2m/s | 4.1°C | 46.9% | 783.2hPa | 2.7V | 07:27:08 | 03:14:29 | 00:00:00 | |
| DM0DOS-11 | 2026-09-02 02:30:59 | 52.17703 | 7.02918 | 70° | 35km/h | 2245m | -4m/s | 4°C | 46.9% | 781.4hPa | 2.7V | 07:27:13 | 03:14:24 | 00:00:00 | |
| BIOWL1-15 | 2026-09-02 02:30:58 | 52.17714 | 7.02970 | 73° | 33km/h | 2229m | -4.1m/s | 4.1°C | 50.9% | 782.9hPa | 2.7V | 07:27:49 | 03:14:28 | 00:00:00 | |
| DJ2DS-15 | 2026-09-02 02:30:56 | 52.17706 | 7.02931 | 70° | 33km/h | 2241m | -4.1m/s | 4.0°C | 47.5% | 781.8hPa | 2.6V | 00:00:00 | 00:00:00 | 00:00:00 | |
| DM0DOS-11 | 2026-09-02 02:30:54 | 52.17687 | 7.02851 | 66° | 35km/h | 2266m | -3.6m/s | 3.9°C | 44.1% | 779.4hPa | 2.6V | 07:27:18 | 03:14:19 | 00:00:00 | |
| MET0W-2 | 2026-09-02 02:30:53 | 52.17697 | 7.02891 | 69° | 35km/h | 2253m | -4.0m/s | 4.0°C | 45.2% | 780.6hPa | 2.7V | 00:00:00 | 00:00:00 | 00:00:00 | |
| BIOWL9-15 | 2026-09-02 02:30:50 | 52.17691 | 7.02865 | 67° | 35km/h | 2262m | -4.1m/s | 4.0°C | 44.3% | 779.9hPa | 2.7V | 00:00:00 | 00:00:00 | 00:00:00 | |
| DM0DOS-11 | 2026-09-02 02:30:49 | 52.17670 | 7.02786 | 64° | 35km/h | 2286m | -3.9m/s | 4.1°C | 35.2% | 777.5hPa | 2.7V | 07:27:23 | 03:14:14 | 00:00:00 | |
| BIOWL1-15 | 2026-09-02 02:30:47 | 52.17680 | 7.02825 | 66° | 35km/h | 2274m | -4.2m/s | 3.9°C | 47.9% | 778.7hPa | 2.7V | 07:27:49 | 03:14:17 | 00:00:00 | |
| DL1LOL-11 | 2026-09-02 02:30:46 | 52.17680 | 7.02825 | 67° | 35km/h | 2274m | -4.2m/s | 3.9°C | 43.7% | 778.7hPa | 2.7V | 00:00:00 | 00:00:00 | 00:00:00 | |
| DM0DOS-11 | 2026-09-02 02:30:44 | 52.17649 | 7.02720 | 63° | 37km/h | 2306m | -4.1m/s | 4.2°C | 27% | 775.5hPa | 2.7V | 07:27:28 | 03:14:09 | 00:00:00 | |
| BIOWL7-15 | 2026-09-02 02:30:40 | 52.17657 | 7.02747 | 64° | 37km/h | 2298m | -4.1m/s | 4.2°C | 27.9% | 776.3hPa | 2.7V | 00:00:00 | 00:00:00 | 00:00:00 | |
| DM0DOS-11 | 2026-09-02 02:30:39 | 52.17629 | 7.02651 | 65° | 38km/h | 2327m | -4.2m/s | 4.2°C | 23.5% | 773.6hPa | 2.7V | 07:27:33 | 03:14:04 | 00:00:00 | |
| BIOWL1-15 | 2026-09-02 02:30:36 | 52.17637 | 7.02679 | 66° | 38km/h | 2318m | -4.2m/s | 4.1°C | 29.9% | 774.4hPa | 2.7V | 07:27:49 | 03:14:06 | 00:00:00 | |
| DO9LL-15 | 2026-09-02 02:30:36 | 52.17637 | 7.02679 | 66° | 38km/h | 2318m | -4.1m/s | 4.0°C | 26.8% | 774.4hPa | 2.7V | 07:27:00 | 03:14:06 | 00:00:00 | |
| DC6BW-12 | 2026-09-02 02:30:35 | 52.17637 | 7.02679 | 67° | 38km/h | 2318m | -4.2m/s | 4.1°C | 26.7% | 774.4hPa | 2.7V | 07:27:00 | 00:00:00 | 00:00:00 | |
| DD1CC3-15 | 2026-09-02 02:30:31 | 52.17621 | 7.02622 | 68° | 38km/h | 2335m | -4.0m/s | 4.2°C | 21.4% | 772.8hPa | 2.7V | 07:27:00 | 00:00:00 | 00:00:00 | |
| DM0DOS-11 | 2026-09-02 02:30:29 | 52.17610 | 7.02577 | 69° | 38km/h | 2348m | -3.9m/s | 4.4°C | 17.9% | 771.7hPa | 2.7V | 07:27:38 | 03:13:59 | 00:00:00 | |
| DM0DOS-11 | 2026-09-02 02:30:29 | 52.17594 | 7.02506 | 69° | 37km/h | 2368m | -4.2m/s | 4.3°C | 16.7% | 769.6hPa | 2.6V | 07:27:43 | 03:13:54 | 00:00:00 | |
| BIOWL1-15 | 2026-09-02 02:30:28 | 52.17600 | 7.02534 | 70° | 37km/h | 2360m | -4.1m/s | 4.3°C | 19% | 770.3hPa | 2.7V | 07:27:49 | 03:13:56 | 00:00:00 | |
| DO2KSM | 2026-09-02 02:30:27 | 52.17607 | 7.02563 | 71° | 37km/h | 2352m | -4.1m/s | 4.4°C | 17.4% | 771.1hPa | 2.7V | 07:27:00 | 00:00:00 | 00:00:00 | |
| DL4BBY-15 | 2026-09-02 02:30:22 | 52.17588 | 7.02476 | 70° | 40km/h | 2376m | -4.3m/s | 3.7°C | 0% | 0hPa | 2.7V | 00:00:00 | 00:00:00 | 00:00:00 | |
| DM0DOS-11 | 2026-09-02 02:30:19 | 52.17577 | 7.02432 | 70° | 38km/h | 2389m | -4.2m/s | 4.3°C | 15% | 767.6hPa | 2.7V | 07:27:48 | 03:13:49 | 00:00:00 | |
| DM0DOS-11 | 2026-09-02 02:30:19 | 52.17561 | 7.02354 | 71° | 42km/h | 2410m | -4.4m/s | 4.2°C | 14.5% | 765.4hPa | 2.7V | 07:27:53 | 03:13:44 | 00:00:00 | |
| BIOWL1-15 | 2026-09-02 02:30:17 | 52.17564 | 7.02370 | 71° | 40km/h | 2406m | -4.5m/s | 4.2°C | 15.8% | 765.9hPa | 2.7V | 07:28:40 | 03:13:45 | 00:00:00 | |
| DO9LL-15 | 2026-09-02 02:30:16 | 52.17568 | 7.02386 | 71° | 42km/h | 2402m | -4.4m/s | 4.2°C | 14.3% | 766.3hPa | 2.6V | 00:00:00 | 03:13:46 | 00:00:00 | |
| DC6BW-12 | 2026-09-02 02:30:15 | 52.17567 | 7.02386 | 72° | 40km/h | 2402m | -4.5m/s | 4.2°C | 14.2% | 766.4hPa | 2.7V | 07:28:00 | 00:00:00 | 00:00:00 | |
| DD1CC2-15 | 2026-09-02 02:30:12 | 52.17554 | 7.02322 | 73° | 40km/h | 2419m | -4.4m/s | 4.1°C | 13.9% | 764.7hPa | 2.7V | 07:28:00 | 00:00:00 | 00:00:00 | |
| DD1CC3-15 | 2026-09-02 02:30:11 | 52.17554 | 7.02322 | 73° | 40km/h | 2419m | -4.4m/s | 4.1°C | 13.9% | 764.7hPa | 2.7V | 07:28:00 | 00:00:00 | 00:00:00 | |
| GOEST3-10 | 2026-09-02 02:30:10 | 52.17548 | 7.02290 | 73° | 42km/h | 2427m | -4.4m/s | 4.0°C | 13.9% | 763.8hPa | 2.7V | 00:00:00 | 00:00:00 | 00:00:00 | |
| DM0DOS-11 | 2026-09-02 02:30:09 | 52.17531 | 7.02191 | 75° | 40km/h | 2452m | -4.1m/s | 3.9°C | 13.5% | 761.5hPa | 2.7V | 07:28:03 | 03:13:34 | 00:00:00 | |
| BIOWL1-15 | 2026-09-02 02:30:06 | 52.17531 | 7.02191 | 75° | 40km/h | 2452m | -4.1m/s | 3.9°C | 14.6% | 761.5hPa | 2.7V | 07:28:40 | 03:13:34 | 00:00:00 | |
| GOEST3-10 | 2026-09-02 02:30:00 | 52.17520 | 7.02126 | 75° | 42km/h | 2469m | -4.4m/s | 4.0°C | 14.7% | 759.8hPa | 2.7V | 00:00:00 | 03:13:30 | 00:00:00 | |
| DM0DOS-11 | 2026-09-02 02:29:59 | 52.17504 | 7.02028 | 74° | 42km/h | 2496m | -4.7m/s | 4°C | 17% | 757.3hPa | 2.7V | 07:28:13 | 03:13:24 | 00:00:00 | |
| BIOWL1-15 | 2026-09-02 02:29:53 | 52.17501 | 7.02011 | 74° | 42km/h | 2500m | -4.7m/s | 4°C | 18.9% | 757.1hPa | 2.6V | 07:28:40 | 03:13:23 | 00:00:00 | |
| MET0W-2 | 2026-09-02 02:29:51 | 52.17492 | 7.01961 | 73° | 42km/h | 2514m | -4.5m/s | 3.9°C | 15.8% | 755.7hPa | 2.7V | 00:00:00 | 00:00:00 | 00:00:00 | |
| GOEST3-10 | 2026-09-02 02:29:50 | 52.17492 | 7.01961 | 74° | 44km/h | 2514m | -4.5m/s | 3.9°C | 15.8% | 755.7hPa | 2.7V | 00:00:00 | 00:00:00 | 00:00:00 | |
| DM0DOS-11 | 2026-09-02 02:29:49 | 52.17474 | 7.01860 | 74° | 44km/h | 2540m | -4.4m/s | 3.7°C | 14.7% | 753.3hPa | 2.7V | 07:28:23 | 03:13:14 | 00:00:00 | |
| HTAHTA | 2026-09-02 02:29:48 | 52.17486 | 7.01927 | 72° | 42km/h | 2523m | -4.2m/s | 3.8°C | 15.6% | 754.9hPa | 2.7V | 00:00:00 | 00:00:00 | 00:00:00 | |
| BIOWL1-15 | 2026-09-02 02:29:43 | 52.17471 | 7.01842 | 75° | 44km/h | 2544m | -4.3m/s | 3.6°C | 15.8% | 753hPa | 2.7V | 07:28:40 | 03:13:13 | 00:00:00 | |
| DM0DOS-11 | 2026-09-02 02:29:39 | 52.17459 | 7.01773 | 74° | 44km/h | 2561m | -4.4m/s | 3.5°C | 13.7% | 751.3hPa | 2.7V | 07:28:28 | 03:13:09 | 00:00:00 | |
| DM0DOS-11 | 2026-09-02 02:29:39 | 52.17444 | 7.01686 | 72° | 46km/h | 2583m | -4.6m/s | 3.3°C | 15.1% | 749.4hPa | 2.7V | 07:28:33 | 03:13:04 | 00:00:00 | |
| DD1CC1-15 | 2026-09-02 02:29:37 | 52.17456 | 7.01756 | 76° | 44km/h | 2566m | -4.3m/s | 3.5°C | 13.7% | 750.9hPa | 2.7V | 00:00:00 | 00:00:00 | 00:00:00 | |
| DO9LL-15 | 2026-09-02 02:29:36 | 52.17451 | 7.01721 | 75° | 44km/h | 2574m | -4.3m/s | 3.4°C | 14.1% | 750.1hPa | 2.7V | 00:00:00 | 03:13:06 | 00:00:00 | |
| DD1CC8 | 2026-09-02 02:29:35 | 52.17448 | 7.01704 | 73° | 44km/h | 2578m | -4.6m/s | 3.4°C | 14.7% | 749.7hPa | 2.7V | 00:00:00 | 00:00:00 | 00:00:00 | |
| DM0DOS-11 | 2026-09-02 02:29:34 | 52.17427 | 7.01597 | 72° | 46km/h | 2606m | -4.8m/s | 3.2°C | 16.7% | 747.2hPa | 2.7V | 07:28:38 | 03:12:59 | 00:00:00 | |
| BIOWL1-15 | 2026-09-02 02:29:33 | 52.17441 | 7.01668 | 73° | 46km/h | 2587m | -4.7m/s | 3.3°C | 16.9% | 748.9hPa | 2.7V | 07:28:40 | 03:13:03 | 00:00:00 | |
| BIOWL7-15 | 2026-09-02 02:29:32 | 52.17441 | 7.01668 | 74° | 46km/h | 2587m | -4.7m/s | 3.3°C | 15.1% | 748.9hPa | 2.7V | 00:00:00 | 00:00:00 | 00:00:00 | |
| GOEST3-10 | 2026-09-02 02:29:30 | 52.17431 | 7.01615 | 74° | 46km/h | 2601m | -4.7m/s | 3.2°C | 15.8% | 747.7hPa | 2.7V | 07:28:00 | 00:00:00 | 00:00:00 | |
| DM0DOS-11 | 2026-09-02 02:29:29 | 52.17413 | 7.01510 | 75° | 44km/h | 2629m | -4.7m/s | 3.2°C | 13% | 745.2hPa | 2.7V | 07:28:43 | 03:12:54 | 00:00:00 | |
| DO2KSM | 2026-09-02 02:29:25 | 52.17418 | 7.01545 | 75° | 44km/h | 2620m | -4.7m/s | 3.1°C | 16.6% | 746.1hPa | 2.7V | 07:29:00 | 00:00:00 | 00:00:00 | |
| DM0DOS-11 | 2026-09-02 02:29:24 | 52.17400 | 7.01424 | 76° | 44km/h | 2651m | -4.4m/s | 3°C | 11.1% | 743.3hPa | 2.7V | 07:28:48 | 03:12:49 | 00:00:00 | |
| BIOWL1-15 | 2026-09-02 02:29:24 | 52.17407 | 7.01476 | 76° | 44km/h | 2638m | -4.4m/s | 3.1°C | 12% | 744.5hPa | 2.6V | 07:29:31 | 03:12:52 | 00:00:00 | |
| DL4BBY-15 | 2026-09-02 02:29:22 | 52.17407 | 7.01475 | 76° | 44km/h | 2638m | -4.4m/s | 2.5°C | 0% | 0hPa | 2.7V | 00:00:00 | 00:00:00 | 00:00:00 | |
| MET0W-2 | 2026-09-02 02:29:20 | 52.17400 | 7.01424 | 76° | 42km/h | 2651m | -4.4m/s | 3.0°C | 11.1% | 743.3hPa | 2.7V | 00:00:00 | 00:00:00 | 00:00:00 | |
| DM0DOS-11 | 2026-09-02 02:29:19 | 52.17385 | 7.01336 | 74° | 44km/h | 2673m | -4.4m/s | 2.9°C | 11.7% | 741.3hPa | 2.7V | 07:28:53 | 03:12:44 | 00:00:00 | |
| BIOWL1-15 | 2026-09-02 02:29:11 | 52.17376 | 7.01283 | 74° | 44km/h | 2686m | -4.4m/s | 2.9°C | 13.1% | 740.1hPa | 2.7V | 07:29:31 | 03:12:41 | 00:00:00 | |
| DM0DOS-11 | 2026-09-02 02:29:09 | 52.17370 | 7.01249 | 74° | 44km/h | 2695m | -4.4m/s | 2.9°C | 12.5% | 739.3hPa | 2.6V | 07:28:58 | 03:12:39 | 00:00:00 | |
| DM0DOS-11 | 2026-09-02 02:29:09 | 52.17355 | 7.01164 | 74° | 42km/h | 2717m | -4.5m/s | 2.7°C | 15.1% | 737.2hPa | 2.7V | 07:29:03 | 03:12:34 | 00:00:00 | |
| BIOWL1-15 | 2026-09-02 02:29:00 | 52.17344 | 7.01097 | 73° | 42km/h | 2735m | -4.6m/s | 2.6°C | 18.4% | 735.6hPa | 2.6V | 07:29:31 | 03:12:30 | 00:00:00 | |
| DM0DOS-11 | 2026-09-02 02:28:59 | 52.17340 | 7.01080 | 73° | 42km/h | 2740m | -4.7m/s | 2.6°C | 16.5% | 735.2hPa | 2.7V | 07:29:08 | 03:12:29 | 00:00:00 | |
| DM0DOS-11 | 2026-09-02 02:28:59 | 52.17324 | 7.00995 | 72° | 44km/h | 2762m | -4.5m/s | 2.4°C | 17.6% | 733.1hPa | 2.6V | 07:29:13 | 03:12:24 | 00:00:00 | |
| DO9LL-15 | 2026-09-02 02:28:56 | 52.17331 | 7.01029 | 74° | 44km/h | 2753m | -4.4m/s | 2.4°C | 17.1% | 733.9hPa | 2.7V | 00:00:00 | 03:12:26 | 00:00:00 | |
| DH3RM | 2026-09-02 02:28:55 | 52.17331 | 7.01029 | 74° | 42km/h | 2753m | -4.5m/s | 2.5°C | 17.0% | 734.0hPa | 2.7V | 00:00:00 | 00:00:00 | 00:00:00 | |
| DM0DOS-11 | 2026-09-02 02:28:54 | 52.17307 | 7.00908 | 72° | 44km/h | 2785m | -4.6m/s | 2.3°C | 17.9% | 731hPa | 2.7V | 07:29:18 | 03:12:19 | 00:00:00 | |
| BIOWL1-15 | 2026-09-02 02:28:52 | 52.17311 | 7.00925 | 72° | 46km/h | 2780m | -4.6m/s | 2.3°C | 20.5% | 731.4hPa | 2.7V | 07:29:31 | 03:12:20 | 00:00:00 | |
| DL4BBY-15 | 2026-09-02 02:28:52 | 52.17318 | 7.00960 | 73° | 46km/h | 2771m | -4.4m/s | 1.8°C | 0% | 0hPa | 2.7V | 00:00:00 | 00:00:00 | 00:00:00 | |
| DL1LOL-11 | 2026-09-02 02:28:51 | 52.17318 | 7.00960 | 73° | 44km/h | 2771m | -4.5m/s | 2.4°C | 17.9% | 732.2hPa | 2.7V | 00:00:00 | 00:00:00 | 00:00:00 | |
| DM0DOS-11 | 2026-09-02 02:28:49 | 52.17290 | 7.00823 | 72° | 42km/h | 2808m | -4.8m/s | 2.1°C | 19.2% | 729hPa | 2.7V | 07:29:23 | 03:12:14 | 00:00:00 | |
| HTAHTA | 2026-09-02 02:28:46 | 52.17297 | 7.00856 | 71° | 42km/h | 2799m | -4.5m/s | 2.2°C | 17.8% | 729.8hPa | 2.6V | 00:00:00 | 00:00:00 | 00:00:00 | |
| DM0DOS-11 | 2026-09-02 02:28:44 | 52.17274 | 7.00739 | 72° | 44km/h | 2830m | -4.3m/s | 2°C | 23.1% | 726.9hPa | 2.6V | 07:29:28 | 03:12:09 | 00:00:00 | |
| BIOWL1-15 | 2026-09-02 02:28:40 | 52.17278 | 7.00756 | 73° | 42km/h | 2826m | -4.3m/s | 2°C | 24.9% | 727.4hPa | 2.6V | 07:29:31 | 03:12:10 | 00:00:00 | |
| DM0DOS-11 | 2026-09-02 02:28:39 | 52.17256 | 7.00652 | 70° | 46km/h | 2853m | -4.7m/s | 1.8°C | 26.5% | 724.8hPa | 2.7V | 07:29:33 | 03:12:04 | 00:00:00 | |
| BIOWL1-15 | 2026-09-02 02:28:30 | 52.17240 | 7.00580 | 70° | 46km/h | 2872m | -4.7m/s | 1.7°C | 30.2% | 723.3hPa | 2.7V | 07:30:22 | 03:12:00 | 00:00:00 | |
| DM0DOS-11 | 2026-09-02 02:28:29 | 52.17236 | 7.00562 | 70° | 46km/h | 2876m | -4.6m/s | 1.7°C | 26.2% | 722.9hPa | 2.7V | 07:29:38 | 03:11:59 | 00:00:00 | |
| BIOWL1-15 | 2026-09-02 02:28:21 | 52.17198 | 7.00379 | 72° | 49km/h | 2922m | -4.7m/s | 1.3°C | 51.6% | 718.7hPa | 2.6V | 07:30:22 | 03:11:49 | 00:00:00 | |
| DM0DOS-11 | 2026-09-02 02:28:19 | 52.17198 | 7.00379 | 72° | 49km/h | 2922m | -4.7m/s | 1.3°C | 46.5% | 718.7hPa | 2.6V | 07:29:48 | 03:11:49 | 00:00:00 | |
| DM0DOS-11 | 2026-09-02 02:28:19 | 52.17179 | 7.00284 | 72° | 47km/h | 2945m | -4.5m/s | 1.1°C | 52.9% | 716.6hPa | 2.7V | 07:29:53 | 03:11:44 | 00:00:00 | |
| GOEST3-10 | 2026-09-02 02:28:19 | 52.17198 | 7.00379 | 73° | 47km/h | 2922m | -4.6m/s | 1.3°C | 46.5% | 718.7hPa | 2.6V | 00:00:00 | 03:11:49 | 00:00:00 | |
| MET0W-2 | 2026-09-02 02:28:17 | 52.17191 | 7.00341 | 72° | 47km/h | 2931m | -4.7m/s | 1.2°C | 51.2% | 718.0hPa | 2.7V | 00:00:00 | 00:00:00 | 00:00:00 | |
| DO9LL-15 | 2026-09-02 02:28:16 | 52.17187 | 7.00322 | 72° | 47km/h | 2936m | -4.6m/s | 1.1°C | 52.2% | 717.4hPa | 2.7V | 00:00:00 | 03:11:46 | 00:00:00 | |
| HTAHTA | 2026-09-02 02:28:15 | 52.17183 | 7.00303 | 72° | 47km/h | 2940m | -4.4m/s | 1.1°C | 52.3% | 717.0hPa | 2.7V | 00:00:00 | 00:00:00 | 00:00:00 | |
| DM0DOS-11 | 2026-09-02 02:28:14 | 52.17160 | 7.00191 | 71° | 47km/h | 2968m | -4.7m/s | 0.9°C | 53.6% | 714.6hPa | 2.7V | 07:29:58 | 03:11:39 | 00:00:00 | |
| BIOWL1-15 | 2026-09-02 02:28:10 | 52.17156 | 7.00173 | 71° | 46km/h | 2972m | -4.4m/s | 0.9°C | 58.8% | 714.2hPa | 2.7V | 07:30:22 | 03:11:38 | 00:00:00 | |
| DM0DOS-11 | 2026-09-02 02:28:09 | 52.17140 | 7.00100 | 70° | 47km/h | 2990m | -4.7m/s | 0.7°C | 53.7% | 712.5hPa | 2.6V | 07:30:03 | 03:11:34 | 00:00:00 | |
| DD1CC3-15 | 2026-09-02 02:28:08 | 52.17160 | 7.00191 | 73° | 47km/h | 2968m | -4.7m/s | 0.9°C | 53.3% | 714.6hPa | 2.7V | 07:30:00 | 00:00:00 | 00:00:00 | |
| DD1CC2-15 | 2026-09-02 02:28:07 | 52.17156 | 7.00173 | 72° | 46km/h | 2972m | -4.4m/s | 0.9°C | 53.3% | 714.2hPa | 2.7V | 07:30:00 | 00:00:00 | 00:00:00 | |
| DM0DOS-11 | 2026-09-02 02:28:04 | 52.17118 | 7.00007 | 68° | 47km/h | 3014m | -4.7m/s | 0.6°C | 53.9% | 710.5hPa | 2.7V | 07:30:08 | 03:11:29 | 00:00:00 | |
| DD1CC8 | 2026-09-02 02:28:02 | 52.17089 | 6.99880 | 70° | 46km/h | 3044m | -4.3m/s | 0.3°C | 54.3% | 707.7hPa | 2.7V | 00:00:00 | 00:00:00 | 00:00:00 | |
| DM0DOS-11 | 2026-09-02 02:27:59 | 52.17097 | 6.99917 | 69° | 47km/h | 3036m | -4.3m/s | 0.4°C | 54.4% | 708.6hPa | 2.7V | 07:30:13 | 03:11:24 | 00:00:00 | |
| BIOWL1-15 | 2026-09-02 02:27:57 | 52.17110 | 6.99971 | 70° | 47km/h | 3023m | -4.3m/s | 0.5°C | 59.2% | 709.8hPa | 2.6V | 07:30:22 | 03:11:27 | 00:00:00 | |
| DJ2DS-15 | 2026-09-02 02:27:55 | 52.17101 | 6.99935 | 69° | 46km/h | 3031m | -4.2m/s | 0.4°C | 53.9% | 709.0hPa | 2.7V | 00:00:00 | 00:00:00 | 00:00:00 | |
| GOEST3-10 | 2026-09-02 02:27:53 | 52.17093 | 6.99899 | 71° | 47km/h | 3040m | -4.1m/s | 0.3°C | 54.5% | 708.1hPa | 2.7V | 00:00:00 | 03:11:23 | 00:00:00 | |
| DL4BBY-15 | 2026-09-02 02:27:52 | 52.17089 | 6.99880 | 71° | 49km/h | 3044m | -4.2m/s | -0.2°C | 0% | 0hPa | 2.7V | 00:00:00 | 00:00:00 | 00:00:00 | |
| DC6BW-12 | 2026-09-02 02:27:51 | 52.17089 | 6.99880 | 72° | 47km/h | 3044m | -4.3m/s | 0.3°C | 54.3% | 707.7hPa | 2.7V | 07:30:00 | 00:00:00 | 00:00:00 | |
| DM0DOS-11 | 2026-09-02 02:27:49 | 52.17077 | 6.99825 | 70° | 47km/h | 3057m | -4.7m/s | 0.2°C | 55% | 706.5hPa | 2.7V | 07:30:18 | 03:11:19 | 00:00:00 | |
| DM0DOS-11 | 2026-09-02 02:27:49 | 52.17057 | 6.99731 | 71° | 47km/h | 3080m | -4.6m/s | 0.1°C | 55.1% | 704.5hPa | 2.6V | 07:30:23 | 03:11:14 | 00:00:00 | |
| BIOWL1-15 | 2026-09-02 02:27:47 | 52.17069 | 6.99787 | 70° | 47km/h | 3067m | -4.7m/s | 0.2°C | 60.1% | 705.7hPa | 2.7V | 07:30:22 | 03:11:17 | 00:00:00 | |
| MET0W-2 | 2026-09-02 02:27:46 | 52.17065 | 6.99769 | 70° | 47km/h | 3071m | -4.6m/s | 0.1°C | 54.6% | 705.4hPa | 2.7V | 00:00:00 | 00:00:00 | 00:00:00 | |
| HTAHTA | 2026-09-02 02:27:44 | 52.17057 | 6.99731 | 71° | 47km/h | 3080m | -4.6m/s | 0.1°C | 54.7% | 704.5hPa | 2.7V | 00:00:00 | 00:00:00 | 00:00:00 | |
| BIOWL1-15 | 2026-09-02 02:27:42 | 52.17026 | 6.99580 | 71° | 49km/h | 3117m | -4.7m/s | -0.2°C | 59.8% | 701.3hPa | 2.7V | 07:31:13 | 03:11:06 | 00:00:00 | |
| DM0DOS-11 | 2026-09-02 02:27:39 | 52.17038 | 6.99637 | 71° | 47km/h | 3103m | -4.7m/s | -0.1°C | 55.1% | 702.4hPa | 2.7V | 07:30:28 | 03:11:09 | 00:00:00 | |
| DM0DOS-11 | 2026-09-02 02:27:39 | 52.17017 | 6.99542 | 70° | 49km/h | 3126m | -4.7m/s | -0.3°C | 55.2% | 700.6hPa | 2.7V | 07:30:33 | 03:11:04 | 00:00:00 | |
| DB0UT-7 | 2026-09-02 02:27:39 | 52.17038 | 6.99637 | 72° | 49km/h | 3103m | -4.6m/s | -0.1°C | 55.1% | 702.4hPa | 2.7V | 00:00:00 | 03:11:09 | 00:00:00 | |
| DH3RM | 2026-09-02 02:27:38 | 52.17038 | 6.99637 | 72° | 47km/h | 3103m | -4.7m/s | -0.1°C | 54.7% | 702.4hPa | 2.7V | 00:00:00 | 00:00:00 | 00:00:00 | |
| DL1LOL-11 | 2026-09-02 02:27:36 | 52.17030 | 6.99599 | 72° | 49km/h | 3112m | -4.7m/s | -0.2°C | 54.5% | 701.7hPa | 2.7V | 07:31:00 | 00:00:00 | 00:00:00 | |
| DM0DOS-11 | 2026-09-02 02:27:34 | 52.16996 | 6.99447 | 70° | 49km/h | 3148m | -4.7m/s | -0.5°C | 55.4% | 698.6hPa | 2.7V | 07:30:38 | 03:10:59 | 00:00:00 | |
| GOEST3-10 | 2026-09-02 02:27:34 | 52.17017 | 6.99542 | 71° | 49km/h | 3126m | -4.7m/s | -0.3°C | 55.2% | 700.5hPa | 2.6V | 00:00:00 | 00:00:00 | 00:00:00 | |
| DD1CC8 | 2026-09-02 02:27:31 | 52.17005 | 6.99485 | 70° | 47km/h | 3139m | -4.2m/s | -0.4°C | 54.9% | 699.4hPa | 2.6V | 00:00:00 | 00:00:00 | 00:00:00 | |
| DC6BW-12 | 2026-09-02 02:27:30 | 52.17005 | 6.99485 | 72° | 49km/h | 3140m | -4.2m/s | -0.4°C | 54.9% | 699.4hPa | 2.6V | 07:31:00 | 00:00:00 | 00:00:00 | |
| DM0DOS-11 | 2026-09-02 02:27:29 | 52.16975 | 6.99351 | 70° | 49km/h | 3171m | -4.6m/s | -0.6°C | 55.9% | 696.6hPa | 2.6V | 07:30:43 | 03:10:54 | 00:00:00 | |
| BIOWL1-15 | 2026-09-02 02:27:26 | 52.16983 | 6.99390 | 70° | 49km/h | 3162m | -4.4m/s | -0.6°C | 60.4% | 697.4hPa | 2.7V | 07:31:13 | 03:10:56 | 00:00:00 | |
| DO9LL-15 | 2026-09-02 02:27:26 | 52.16983 | 6.99390 | 70° | 49km/h | 3162m | -4.4m/s | -0.5°C | 55.7% | 697.4hPa | 2.6V | 00:00:00 | 03:10:56 | 00:00:00 | |
| DM0DOS-11 | 2026-09-02 02:27:24 | 52.16954 | 6.99254 | 72° | 49km/h | 3194m | -4.5m/s | -0.7°C | 55.6% | 694.6hPa | 2.6V | 07:30:48 | 03:10:49 | 00:00:00 | |
| GOEST3-10 | 2026-09-02 02:27:24 | 52.16975 | 6.99351 | 71° | 49km/h | 3171m | -4.5m/s | -0.6°C | 55.9% | 696.6hPa | 2.7V | 07:30:00 | 00:00:00 | 00:00:00 | |
| BIOWL7-15 | 2026-09-02 02:27:23 | 52.16975 | 6.99351 | 71° | 49km/h | 3171m | -4.6m/s | -0.6°C | 55.5% | 696.6hPa | 2.7V | 07:31:00 | 00:00:00 | 00:00:00 | |
| DL4BBY-15 | 2026-09-02 02:27:22 | 52.16966 | 6.99312 | 70° | 49km/h | 3180m | -4.5m/s | -1.2°C | 0% | 0hPa | 2.7V | 00:00:00 | 00:00:00 | 00:00:00 | |
| DM0DOS-11 | 2026-09-02 02:27:19 | 52.16934 | 6.99157 | 70° | 49km/h | 3217m | -4.7m/s | -0.8°C | 51.8% | 692.6hPa | 2.7V | 07:30:53 | 03:10:44 | 00:00:00 | |
| BIOWL1-15 | 2026-09-02 02:27:17 | 52.16938 | 6.99176 | 70° | 49km/h | 3212m | -4.5m/s | -0.8°C | 58.9% | 693.1hPa | 2.7V | 07:31:13 | 03:10:45 | 00:00:00 | |
| DJ2KF-10 | 2026-09-02 02:27:17 | 52.16946 | 6.99215 | 72° | 49km/h | 3203m | -4.6m/s | -0.7°C | 55.1% | 693.9hPa | 2.7V | 00:00:00 | 03:10:47 | 00:00:00 | |
| MET0W-2 | 2026-09-02 02:27:15 | 52.16938 | 6.99176 | 70° | 49km/h | 3212m | -4.5m/s | -0.8°C | 53.9% | 693.1hPa | 2.7V | 00:00:00 | 00:00:00 | 00:00:00 | |
| GOEST3-10 | 2026-09-02 02:27:14 | 52.16934 | 6.99157 | 71° | 49km/h | 3217m | -4.7m/s | -0.8°C | 51.8% | 692.5hPa | 2.7V | 00:00:00 | 00:00:00 | 00:00:00 | |
| BIOWL9-15 | 2026-09-02 02:27:13 | 52.16925 | 6.99119 | 69° | 47km/h | 3225m | -4.6m/s | -0.8°C | 49.1% | 691.9hPa | 2.6V | 00:00:00 | 00:00:00 | 00:00:00 | |
| DM0DOS-11 | 2026-09-02 02:27:09 | 52.16891 | 6.98968 | 70° | 49km/h | 3261m | -4.2m/s | -0.9°C | 35.3% | 688.7hPa | 2.6V | 07:31:03 | 03:10:34 | 00:00:00 | |
| BIOWL1-15 | 2026-09-02 02:27:04 | 52.16891 | 6.98968 | 71° | 49km/h | 3261m | -4.2m/s | -0.9°C | 39.6% | 688.7hPa | 2.6V | 07:31:13 | 03:10:34 | 00:00:00 | |
| GOEST3-10 | 2026-09-02 02:27:04 | 52.16891 | 6.98968 | 71° | 49km/h | 3261m | -4.2m/s | -0.8°C | 35.3% | 688.7hPa | 2.6V | 00:00:00 | 00:00:00 | 00:00:00 | |
| BIOWL7-15 | 2026-09-02 02:27:02 | 52.16887 | 6.98949 | 71° | 49km/h | 3265m | -4.5m/s | -0.9°C | 33.2% | 688.3hPa | 2.6V | 07:31:00 | 00:00:00 | 00:00:00 | |
| DD1CC8 | 2026-09-02 02:27:00 | 52.16870 | 6.98872 | 70° | 47km/h | 3283m | -4.4m/s | -0.8°C | 25.3% | 686.9hPa | 2.6V | 00:00:00 | 00:00:00 | 00:00:00 | |
| DM0DOS-11 | 2026-09-02 02:26:59 | 52.16870 | 6.98872 | 70° | 47km/h | 3283m | -4.4m/s | -0.8°C | 25.5% | 686.9hPa | 2.6V | 07:31:08 | 03:10:29 | 00:00:00 | |
| DM0DOS-11 | 2026-09-02 02:26:59 | 52.16850 | 6.98779 | 69° | 47km/h | 3304m | -4.7m/s | -0.9°C | 21.7% | 684.9hPa | 2.6V | 07:31:13 | 03:10:24 | 00:00:00 | |
| BIOWL1-15 | 2026-09-02 02:26:55 | 52.16846 | 6.98760 | 71° | 47km/h | 3309m | -4.7m/s | -0.9°C | 28.8% | 684.6hPa | 2.6V | 07:32:04 | 03:10:23 | 00:00:00 | |
| DM0DOS-11 | 2026-09-02 02:26:54 | 52.16830 | 6.98686 | 70° | 47km/h | 3327m | -4.7m/s | -1°C | 28.3% | 683hPa | 2.6V | 07:31:18 | 03:10:19 | 00:00:00 | |
| GOEST3-10 | 2026-09-02 02:26:54 | 52.16850 | 6.98779 | 70° | 47km/h | 3304m | -4.6m/s | -0.8°C | 21.7% | 684.9hPa | 2.6V | 00:00:00 | 00:00:00 | 00:00:00 | |
| DL4BBY-15 | 2026-09-02 02:26:52 | 52.16842 | 6.98742 | 71° | 47km/h | 3313m | -4.7m/s | -1.4°C | 0% | 0hPa | 2.6V | 00:00:00 | 00:00:00 | 00:00:00 | |
| DD1CC9-15 | 2026-09-02 02:26:51 | 52.16842 | 6.98742 | 71° | 47km/h | 3313m | -4.7m/s | -0.9°C | 27.5% | 684.2hPa | 2.6V | 07:32:00 | 00:00:00 | 00:00:00 | |
| DM0DOS-11 | 2026-09-02 02:26:49 | 52.16811 | 6.98593 | 73° | 47km/h | 3350m | -4.7m/s | -1.1°C | 32.8% | 681.1hPa | 2.6V | 07:31:23 | 03:10:14 | 00:00:00 | |
| GOEST3-10 | 2026-09-02 02:26:49 | 52.16830 | 6.98686 | 71° | 47km/h | 3327m | -4.6m/s | -0.9°C | 28.3% | 683.0hPa | 2.6V | 00:00:00 | 03:10:19 | 00:00:00 | |
| DJ2KF-10 | 2026-09-02 02:26:47 | 52.16822 | 6.98649 | 72° | 47km/h | 3336m | -4.6m/s | -1.0°C | 29.0% | 682.2hPa | 2.6V | 00:00:00 | 03:10:17 | 00:00:00 | |
| DD1CC2-15 | 2026-09-02 02:26:46 | 52.16822 | 6.98649 | 73° | 47km/h | 3336m | -4.7m/s | -1.0°C | 28.7% | 682.3hPa | 2.6V | 07:32:00 | 00:00:00 | 00:00:00 | |
| DD1CC3-15 | 2026-09-02 02:26:45 | 52.16819 | 6.98630 | 74° | 47km/h | 3341m | -4.8m/s | -1.1°C | 29.8% | 681.9hPa | 2.6V | 07:32:00 | 00:00:00 | 00:00:00 | |
| DM0DOS-11 | 2026-09-02 02:26:44 | 52.16794 | 6.98500 | 73° | 46km/h | 3373m | -4.5m/s | -1.2°C | 29.6% | 679.3hPa | 2.6V | 07:31:28 | 03:10:09 | 00:00:00 | |
| BIOWL1-15 | 2026-09-02 02:26:42 | 52.16804 | 6.98556 | 73° | 47km/h | 3359m | -4.6m/s | -1.1°C | 34.7% | 680.4hPa | 2.6V | 07:32:04 | 03:10:12 | 00:00:00 | |
| DM0DOS-11 | 2026-09-02 02:26:39 | 52.16777 | 6.98410 | 72° | 46km/h | 3395m | -4.5m/s | -1.4°C | 32.5% | 677.3hPa | 2.6V | 07:31:33 | 03:10:04 | 00:00:00 | |
| DL1XH-west | 2026-09-02 02:26:36 | 52.16784 | 6.98446 | 73° | 46km/h | 3386m | -4.7m/s | 0°C | 0% | 0hPa | 2.6V | 18:12:15 | 03:10:06 | 00:00:00 | |
| BIOWL1-15 | 2026-09-02 02:26:31 | 52.16767 | 6.98355 | 74° | 46km/h | 3409m | -4.6m/s | -1.5°C | 38.8% | 676.1hPa | 2.6V | 07:32:04 | 03:10:01 | 00:00:00 | |
| DM0DOS-11 | 2026-09-02 02:26:29 | 52.16760 | 6.98319 | 74° | 46km/h | 3417m | -4.4m/s | -1.6°C | 34.7% | 675.5hPa | 2.6V | 07:31:38 | 03:09:59 | 00:00:00 | |
| DM0DOS-11 | 2026-09-02 02:26:29 | 52.16745 | 6.98226 | 76° | 46km/h | 3440m | -4m/s | -1.7°C | 33% | 673.6hPa | 2.6V | 07:31:43 | 03:09:54 | 00:00:00 | |
| BIOWL1-15 | 2026-09-02 02:26:23 | 52.16737 | 6.98170 | 74° | 47km/h | 3452m | -4.5m/s | -1.8°C | 38.1% | 672.4hPa | 2.6V | 07:32:04 | 03:09:51 | 00:00:00 | |
| DL1XH-west | 2026-09-02 02:26:22 | 52.16740 | 6.98189 | 75° | 47km/h | 3448m | -4.5m/s | 0°C | 0% | 0hPa | 2.6V | 18:12:15 | 03:09:52 | 00:00:00 | |
| DL4BBY-15 | 2026-09-02 02:26:22 | 52.16740 | 6.98189 | 76° | 46km/h | 3448m | -4.5m/s | -2.3°C | 0% | 0hPa | 2.6V | 00:00:00 | 00:00:00 | 00:00:00 | |
| DM0DOS-11 | 2026-09-02 02:26:19 | 52.16730 | 6.98133 | 73° | 47km/h | 3461m | -4.4m/s | -1.9°C | 33.4% | 671.6hPa | 2.6V | 07:31:48 | 03:09:49 | 00:00:00 | |
| DM0DOS-11 | 2026-09-02 02:26:19 | 52.16714 | 6.98041 | 73° | 46km/h | 3484m | -4.6m/s | -2°C | 31.4% | 669.8hPa | 2.6V | 07:31:53 | 03:09:44 | 00:00:00 | |
| GOEST3-10 | 2026-09-02 02:26:19 | 52.16730 | 6.98133 | 74° | 46km/h | 3461m | -4.3m/s | -1.8°C | 33.4% | 671.6hPa | 2.6V | 00:00:00 | 00:00:00 | 00:00:00 | |
| BIOWL7-15 | 2026-09-02 02:26:18 | 52.16730 | 6.98133 | 75° | 47km/h | 3461m | -4.4m/s | -1.9°C | 33.1% | 671.6hPa | 2.6V | 07:32:00 | 00:00:00 | 00:00:00 | |
| DJ2KF-10 | 2026-09-02 02:26:17 | 52.16724 | 6.98096 | 74° | 44km/h | 3470m | -4.5m/s | -1.9°C | 31.7% | 671.0hPa | 2.6V | 07:31:00 | 03:09:47 | 00:00:00 | |
| DO3DL | 2026-09-02 02:26:16 | 52.16723 | 6.98096 | 75° | 47km/h | 3470m | -4.5m/s | -1.9°C | 31.4% | 671.0hPa | 2.6V | 07:32:00 | 00:00:00 | 00:00:00 | |
| DM0DOS-11 | 2026-09-02 02:26:14 | 52.16698 | 6.97950 | 72° | 46km/h | 3506m | -4.6m/s | -2.1°C | 30.8% | 667.9hPa | 2.6V | 07:31:58 | 03:09:39 | 00:00:00 | |
| DL1XH-west | 2026-09-02 02:26:12 | 52.16708 | 6.98004 | 73° | 46km/h | 3492m | -4.5m/s | 0°C | 0% | 0hPa | 2.6V | 18:12:15 | 03:09:42 | 00:00:00 | |
| BIOWL1-15 | 2026-09-02 02:26:10 | 52.16701 | 6.97968 | 74° | 46km/h | 3501m | -4.2m/s | -2.1°C | 37.4% | 668.4hPa | 2.6V | 07:32:04 | 03:09:40 | 00:00:00 | |
| DB0UT-7 | 2026-09-02 02:26:10 | 52.16701 | 6.97968 | 74° | 44km/h | 3501m | -4.2m/s | -2.1°C | 32.9% | 668.4hPa | 2.6V | 00:00:00 | 03:09:40 | 00:00:00 | |
| DM0DOS-11 | 2026-09-02 02:26:09 | 52.16681 | 6.97863 | 71° | 44km/h | 3528m | -4.5m/s | -2.2°C | 31% | 666.2hPa | 2.6V | 07:32:03 | 03:09:34 | 00:00:00 | |
| DC6BW-12 | 2026-09-02 02:26:08 | 52.16698 | 6.97950 | 74° | 46km/h | 3506m | -4.6m/s | -2.1°C | 30.4% | 667.9hPa | 2.6V | 07:32:00 | 00:00:00 | 00:00:00 | |
| GOEST3-10 | 2026-09-02 02:26:07 | 52.16691 | 6.97915 | 74° | 44km/h | 3515m | -4.2m/s | -2.1°C | 29.1% | 667.2hPa | 2.6V | 00:00:00 | 00:00:00 | 00:00:00 | |
| DD1CC2-15 | 2026-09-02 02:26:05 | 52.16688 | 6.97897 | 73° | 44km/h | 3519m | -4.5m/s | -2.2°C | 28.2% | 666.8hPa | 2.6V | 07:32:00 | 00:00:00 | 00:00:00 | |
| DM0DOS-11 | 2026-09-02 02:26:04 | 52.16665 | 6.97779 | 72° | 42km/h | 3549m | -4.3m/s | -2.4°C | 34% | 664.3hPa | 2.6V | 07:32:08 | 03:09:29 | 00:00:00 | |
| DL1XH-west | 2026-09-02 02:26:02 | 52.16674 | 6.97830 | 72° | 42km/h | 3537m | -4.3m/s | 0°C | 0% | 0hPa | 2.6V | 18:12:15 | 03:09:32 | 00:00:00 | |
| BIOWL1-15 | 2026-09-02 02:26:02 | 52.16668 | 6.97796 | 72° | 42km/h | 3545m | -4.3m/s | -2.3°C | 38.4% | 664.8hPa | 2.6V | 07:32:55 | 03:09:30 | 00:00:00 | |
| DD1CC8 | 2026-09-02 02:25:58 | 52.16658 | 6.97746 | 71° | 42km/h | 3558m | -4.1m/s | -2.4°C | 33.5% | 663.7hPa | 2.6V | 00:00:00 | 00:00:00 | 00:00:00 | |
| GOEST3-10 | 2026-09-02 02:25:57 | 52.16658 | 6.97745 | 72° | 44km/h | 3558m | -4.1m/s | -2.4°C | 33.9% | 663.6hPa | 2.6V | 00:00:00 | 00:00:00 | 00:00:00 | |
| DO9LL-15 | 2026-09-02 02:25:56 | 52.16654 | 6.97729 | 72° | 46km/h | 3562m | -4.3m/s | -2.4°C | 33.6% | 663.2hPa | 2.6V | 00:00:00 | 03:09:26 | 00:00:00 | |
| DO3DL | 2026-09-02 02:25:54 | 52.16651 | 6.97712 | 72° | 44km/h | 3566m | -4.6m/s | -2.5°C | 33.2% | 662.8hPa | 2.6V | 07:32:00 | 00:00:00 | 00:00:00 | |
| DL4BBY-15 | 2026-09-02 02:25:52 | 52.16640 | 6.97660 | 72° | 47km/h | 3579m | -4.5m/s | -3.0°C | 0% | 0hPa | 2.6V | 00:00:00 | 00:00:00 | 00:00:00 | |
| DL1CLM-18 | 2026-09-02 02:25:51 | 52.16640 | 6.97660 | 73° | 44km/h | 3580m | -4.5m/s | -2.5°C | 33.3% | 661.8hPa | 2.6V | 00:00:00 | 00:00:00 | 00:00:00 | |
| DM0DOS-11 | 2026-09-02 02:25:49 | 52.16630 | 6.97607 | 71° | 46km/h | 3593m | -4.2m/s | -2.6°C | 33.6% | 660.7hPa | 2.6V | 07:32:18 | 03:09:19 | 00:00:00 | |
| BIOWL1-15 | 2026-09-02 02:25:49 | 52.16630 | 6.97607 | 72° | 46km/h | 3593m | -4.2m/s | -2.6°C | 38.1% | 660.8hPa | 2.6V | 07:32:55 | 03:09:19 | 00:00:00 | |
| DL1XH-west | 2026-09-02 02:25:46 | 52.16620 | 6.97554 | 73° | 46km/h | 3606m | -4.4m/s | 0°C | 0% | 0hPa | 2.6V | 18:12:15 | 03:09:16 | 00:00:00 | |
| BIOWL1-15 | 2026-09-02 02:25:42 | 52.16594 | 6.97408 | 74° | 47km/h | 3641m | -4.4m/s | -2.9°C | 41.5% | 656.8hPa | 2.6V | 07:32:55 | 03:09:08 | 00:00:00 | |
| GOEST3-10 | 2026-09-02 02:25:42 | 52.16607 | 6.97482 | 76° | 46km/h | 3624m | -4.0m/s | -2.7°C | 35.9% | 658.2hPa | 2.6V | 00:00:00 | 03:09:12 | 00:00:00 | |
| DO3DL | 2026-09-02 02:25:40 | 52.16604 | 6.97464 | 76° | 46km/h | 3628m | -4.3m/s | -2.8°C | 35.8% | 657.8hPa | 2.6V | 07:32:00 | 00:00:00 | 00:00:00 | |
| DM0DOS-11 | 2026-09-02 02:25:39 | 52.16598 | 6.97427 | 73° | 47km/h | 3637m | -4.5m/s | -2.9°C | 36.7% | 657.2hPa | 2.6V | 07:32:28 | 03:09:09 | 00:00:00 | |
| DM0DOS-11 | 2026-09-02 02:25:39 | 52.16580 | 6.97333 | 72° | 47km/h | 3658m | -4.2m/s | -3°C | 40.2% | 655.4hPa | 2.6V | 07:32:33 | 03:09:04 | 00:00:00 | |
| GOEST3-10 | 2026-09-02 02:25:37 | 52.16591 | 6.97389 | 73° | 47km/h | 3645m | -4.2m/s | -2.9°C | 36.9% | 656.4hPa | 2.6V | 00:00:00 | 00:00:00 | 00:00:00 | |
| DL1CLM-18 | 2026-09-02 02:25:35 | 52.16587 | 6.97371 | 74° | 47km/h | 3649m | -4.1m/s | -2.9°C | 37.1% | 656.1hPa | 2.6V | 00:00:00 | 00:00:00 | 00:00:00 | |
| DM0DOS-11 | 2026-09-02 02:25:34 | 52.16562 | 6.97237 | 74° | 47km/h | 3679m | -4.5m/s | -3.2°C | 41.2% | 653.7hPa | 2.6V | 07:32:38 | 03:08:59 | 00:00:00 | |
| GOEST3-10 | 2026-09-02 02:25:32 | 52.16573 | 6.97294 | 73° | 47km/h | 3666m | -4.4m/s | -3.0°C | 40.8% | 654.5hPa | 2.6V | 00:00:00 | 03:09:02 | 00:00:00 | |
| DJ2DS-15 | 2026-09-02 02:25:31 | 52.16569 | 6.97275 | 72° | 47km/h | 3670m | -4.6m/s | -3.1°C | 40.9% | 654.2hPa | 2.6V | 00:00:00 | 00:00:00 | 00:00:00 | |
| DO3DL | 2026-09-02 02:25:30 | 52.16569 | 6.97275 | 74° | 49km/h | 3671m | -4.6m/s | -3.1°C | 40.9% | 654.2hPa | 2.6V | 07:32:00 | 00:00:00 | 00:00:00 | |
| DM0DOS-11 | 2026-09-02 02:25:29 | 52.16544 | 6.97142 | 72° | 49km/h | 3701m | -4.9m/s | -3.3°C | 42.2% | 651.8hPa | 2.6V | 07:32:43 | 03:08:54 | 00:00:00 | |
| DL1XH-west | 2026-09-02 02:25:28 | 52.16559 | 6.97218 | 73° | 47km/h | 3684m | -4.6m/s | 0°C | 0% | 0hPa | 2.6V | 18:12:15 | 03:08:58 | 00:00:00 | |
| DD1CC8 | 2026-09-02 02:25:27 | 52.16551 | 6.97180 | 73° | 47km/h | 3692m | -4.5m/s | -3.3°C | 40.7% | 652.4hPa | 2.6V | 00:00:00 | 00:00:00 | 00:00:00 | |
| DO9LL-15 | 2026-09-02 02:25:26 | 52.16551 | 6.97180 | 74° | 47km/h | 3693m | -4.4m/s | -3.2°C | 41.2% | 652.3hPa | 2.6V | 00:00:00 | 03:08:56 | 00:00:00 | |
| DL1LOL-11 | 2026-09-02 02:25:25 | 52.16551 | 6.97180 | 74° | 49km/h | 3693m | -4.5m/s | -3.3°C | 40.7% | 652.4hPa | 2.6V | 00:00:00 | 00:00:00 | 00:00:00 | |
| DM0DOS-11 | 2026-09-02 02:25:24 | 52.16527 | 6.97046 | 72° | 49km/h | 3723m | -4.3m/s | -3.5°C | 48.4% | 649.9hPa | 2.6V | 07:32:48 | 03:08:49 | 00:00:00 | |
| DH3RM | 2026-09-02 02:25:23 | 52.16544 | 6.97142 | 74° | 49km/h | 3701m | -4.9m/s | -3.3°C | 41.8% | 651.8hPa | 2.6V | 07:32:00 | 00:00:00 | 00:00:00 | |
| DL4BBY-15 | 2026-09-02 02:25:22 | 52.16537 | 6.97103 | 75° | 47km/h | 3710m | -4.3m/s | -3.9°C | 0% | 0hPa | 2.6V | 00:00:00 | 00:00:00 | 00:00:00 | |
| DM0DOS-11 | 2026-09-02 02:25:19 | 52.16508 | 6.96952 | 74° | 47km/h | 3745m | -4.2m/s | -3.7°C | 51.5% | 648.1hPa | 2.6V | 07:32:53 | 03:08:44 | 00:00:00 | |
| GOEST3-10 | 2026-09-02 02:25:17 | 52.16519 | 6.97008 | 73° | 47km/h | 3732m | -4.2m/s | -3.5°C | 49.4% | 649.3hPa | 2.6V | 00:00:00 | 00:00:00 | 00:00:00 | |
| BIOWL1-15 | 2026-09-02 02:25:17 | 52.16519 | 6.97008 | 73° | 47km/h | 3732m | -4.3m/s | -3.6°C | 54.4% | 649.3hPa | 2.6V | 07:32:55 | 03:08:47 | 00:00:00 | |
| DM0DOS-11 | 2026-09-02 02:25:14 | 52.16492 | 6.96858 | 74° | 47km/h | 3767m | -4.3m/s | -3.9°C | 52.2% | 646.4hPa | 2.6V | 07:32:58 | 03:08:39 | 00:00:00 | |
| BIOWL1-15 | 2026-09-02 02:25:09 | 52.16485 | 6.96820 | 74° | 47km/h | 3776m | -4.7m/s | -3.9°C | 57% | 645.6hPa | 2.6V | 07:33:46 | 03:08:37 | 00:00:00 | |
| HTAHTA | 2026-09-02 02:25:09 | 52.16489 | 6.96839 | 73° | 47km/h | 3772m | -4.2m/s | -3.9°C | 51.5% | 646.0hPa | 2.6V | 00:00:00 | 00:00:00 | 00:00:00 | |
| GOEST3-10 | 2026-09-02 02:25:07 | 52.16485 | 6.96820 | 75° | 47km/h | 3776m | -4.6m/s | -3.9°C | 52.1% | 645.5hPa | 2.6V | 07:33:00 | 00:00:00 | 00:00:00 | |
| DC6BW-12 | 2026-09-02 02:25:06 | 52.16485 | 6.96820 | 75° | 47km/h | 3776m | -4.7m/s | -3.9°C | 51.6% | 645.6hPa | 2.6V | 07:33:00 | 00:00:00 | 00:00:00 | |
| DO3DL | 2026-09-02 02:25:05 | 52.16482 | 6.96801 | 76° | 47km/h | 3781m | -4.6m/s | -4.0°C | 50.6% | 645.3hPa | 2.6V | 07:33:00 | 00:00:00 | 00:00:00 | |
| DM0DOS-11 | 2026-09-02 02:25:04 | 52.16476 | 6.96763 | 75° | 47km/h | 3789m | -4.4m/s | -4°C | 49.7% | 644.5hPa | 2.6V | 07:33:03 | 03:08:34 | 00:00:00 | |
| DM0DOS-11 | 2026-09-02 02:25:04 | 52.16460 | 6.96667 | 74° | 49km/h | 3811m | -4.1m/s | -4.2°C | 44.3% | 642.8hPa | 2.6V | 07:33:08 | 03:08:29 | 00:00:00 | |
| BIOWL1-15 | 2026-09-02 02:25:02 | 52.16450 | 6.96608 | 76° | 49km/h | 3823m | -4.2m/s | -4.3°C | 46% | 641.8hPa | 2.5V | 07:33:46 | 03:08:26 | 00:00:00 | |
| GOEST3-10 | 2026-09-02 02:25:02 | 52.16469 | 6.96725 | 75° | 49km/h | 3798m | -4.5m/s | -4.0°C | 46.7% | 643.9hPa | 2.6V | 00:00:00 | 03:08:32 | 00:00:00 | |
| DD1CC3-15 | 2026-09-02 02:25:01 | 52.16469 | 6.96725 | 76° | 47km/h | 3798m | -4.5m/s | -4.1°C | 46.2% | 643.9hPa | 2.6V | 07:33:00 | 00:00:00 | 00:00:00 | |
| DD1CC1-15 | 2026-09-02 02:25:00 | 52.16466 | 6.96706 | 76° | 47km/h | 3803m | -4.3m/s | -4.1°C | 45.0% | 643.5hPa | 2.6V | 00:00:00 | 00:00:00 | 00:00:00 | |
| DM0DOS-11 | 2026-09-02 02:24:59 | 52.16444 | 6.96568 | 75° | 49km/h | 3832m | -4.5m/s | -4.3°C | 42.4% | 641hPa | 2.6V | 07:33:13 | 03:08:24 | 00:00:00 | |
| DD1CC9-15 | 2026-09-02 02:24:59 | 52.16460 | 6.96667 | 76° | 49km/h | 3811m | -4.1m/s | -4.2°C | 43.7% | 642.8hPa | 2.6V | 00:00:00 | 00:00:00 | 00:00:00 | |
| DH3RM | 2026-09-02 02:24:58 | 52.16460 | 6.96667 | 76° | 49km/h | 3811m | -4.1m/s | -4.2°C | 43.7% | 642.8hPa | 2.6V | 00:00:00 | 00:00:00 | 00:00:00 | |
| GOEST3-10 | 2026-09-02 02:24:57 | 52.16453 | 6.96628 | 76° | 49km/h | 3819m | -4.2m/s | -4.2°C | 42.3% | 642.2hPa | 2.6V | 00:00:00 | 00:00:00 | 00:00:00 | |
| DO9LL-15 | 2026-09-02 02:24:56 | 52.16450 | 6.96608 | 76° | 51km/h | 3823m | -4.2m/s | -4.2°C | 41.3% | 641.7hPa | 2.6V | 00:00:00 | 03:08:26 | 00:00:00 | |
| DM0DOS-11 | 2026-09-02 02:24:54 | 52.16428 | 6.96469 | 74° | 49km/h | 3854m | -4.5m/s | -4.5°C | 45.9% | 639.4hPa | 2.6V | 07:33:18 | 03:08:19 | 00:00:00 | |
| GOEST3-10 | 2026-09-02 02:24:52 | 52.16438 | 6.96529 | 75° | 49km/h | 3841m | -3.9m/s | -4.3°C | 44.6% | 640.3hPa | 2.5V | 00:00:00 | 03:08:22 | 00:00:00 | |
| BIOWL7-15 | 2026-09-02 02:24:51 | 52.16438 | 6.96529 | 75° | 49km/h | 3841m | -4.0m/s | -4.4°C | 44.1% | 640.3hPa | 2.5V | 07:33:00 | 00:00:00 | 00:00:00 | |
| DM0DOS-11 | 2026-09-02 02:24:49 | 52.16412 | 6.96368 | 76° | 51km/h | 3875m | -4.5m/s | -4.7°C | 46.8% | 637.6hPa | 2.5V | 07:33:23 | 03:08:14 | 00:00:00 | |
| BIOWL1-15 | 2026-09-02 02:24:45 | 52.16415 | 6.96388 | 76° | 51km/h | 3871m | -4.7m/s | -4.6°C | 51.6% | 638hPa | 2.6V | 07:33:46 | 03:08:15 | 00:00:00 | |
| DM0DOS-11 | 2026-09-02 02:24:44 | 52.16397 | 6.96264 | 76° | 51km/h | 3897m | -4.5m/s | -4.8°C | 47% | 635.8hPa | 2.5V | 07:33:28 | 03:08:09 | 00:00:00 | |
| GOEST3-10 | 2026-09-02 02:24:42 | 52.16406 | 6.96326 | 77° | 51km/h | 3884m | -4.3m/s | -4.7°C | 46.9% | 636.9hPa | 2.6V | 00:00:00 | 03:08:12 | 00:00:00 | |
| DB0UT-7 | 2026-09-02 02:24:40 | 52.16400 | 6.96284 | 77° | 51km/h | 3893m | -3.9m/s | -4.7°C | 46.9% | 636.1hPa | 2.6V | 00:00:00 | 00:00:00 | 00:00:00 | |
| DM0DOS-11 | 2026-09-02 02:24:39 | 52.16382 | 6.96161 | 76° | 51km/h | 3918m | -4.4m/s | -5°C | 47.2% | 634hPa | 2.6V | 07:33:33 | 03:08:04 | 00:00:00 | |
| BIOWL1-15 | 2026-09-02 02:24:39 | 52.16385 | 6.96181 | 75° | 51km/h | 3914m | -4.1m/s | -4.9°C | 52% | 634.3hPa | 2.6V | 07:33:46 | 03:08:05 | 00:00:00 | |
| HTAHTA | 2026-09-02 02:24:38 | 52.16392 | 6.96222 | 76° | 51km/h | 3905m | -4.3m/s | -4.9°C | 46.3% | 635.1hPa | 2.6V | 00:00:00 | 00:00:00 | 00:00:00 | |
| GOEST3-10 | 2026-09-02 02:24:37 | 52.16392 | 6.96222 | 77° | 51km/h | 3905m | -4.2m/s | -4.8°C | 46.8% | 635.0hPa | 2.6V | 00:00:00 | 00:00:00 | 00:00:00 | |
| DD1CC1-15 | 2026-09-02 02:24:34 | 52.16386 | 6.96181 | 76° | 51km/h | 3914m | -4.1m/s | -4.9°C | 46.5% | 634.3hPa | 2.6V | 00:00:00 | 00:00:00 | 00:00:00 | |
| GOEST3-10 | 2026-09-02 02:24:32 | 52.16376 | 6.96119 | 77° | 51km/h | 3927m | -4.2m/s | -5.0°C | 47.3% | 633.3hPa | 2.6V | 00:00:00 | 03:08:02 | 00:00:00 | |
| DD1CC9-15 | 2026-09-02 02:24:31 | 52.16376 | 6.96119 | 78° | 51km/h | 3927m | -4.2m/s | -5.0°C | 46.7% | 633.4hPa | 2.6V | 00:00:00 | 00:00:00 | 00:00:00 | |
| DM0DOS-11 | 2026-09-02 02:24:29 | 52.16367 | 6.96058 | 76° | 51km/h | 3939m | -4.5m/s | -5.1°C | 47.6% | 632.3hPa | 2.6V | 07:33:38 | 03:07:59 | 00:00:00 | |
| DM0DOS-11 | 2026-09-02 02:24:29 | 52.16353 | 6.95954 | 75° | 51km/h | 3961m | -4.3m/s | -5.3°C | 47.8% | 630.6hPa | 2.6V | 07:33:43 | 03:07:54 | 00:00:00 | |
| BIOWL1-15 | 2026-09-02 02:24:25 | 52.16356 | 6.95975 | 77° | 51km/h | 3956m | -4.3m/s | -5.3°C | 52.4% | 630.9hPa | 2.6V | 07:33:46 | 03:07:55 | 00:00:00 | |
| DD1CC2-15 | 2026-09-02 02:24:24 | 52.16356 | 6.95975 | 78° | 51km/h | 3956m | -4.3m/s | -5.3°C | 47.1% | 630.9hPa | 2.6V | 07:33:00 | 00:00:00 | 00:00:00 | |
| DO3DL | 2026-09-02 02:24:23 | 52.16353 | 6.95954 | 77° | 51km/h | 3961m | -4.3m/s | -5.3°C | 47.2% | 630.6hPa | 2.6V | 07:33:00 | 00:00:00 | 00:00:00 | |
| GOEST3-10 | 2026-09-02 02:24:22 | 52.16347 | 6.95913 | 79° | 51km/h | 3969m | -4.3m/s | -5.3°C | 48.0% | 629.9hPa | 2.6V | 00:00:00 | 03:07:52 | 00:00:00 | |
| DL1LOL-11 | 2026-09-02 02:24:21 | 52.16347 | 6.95913 | 79° | 51km/h | 3969m | -4.3m/s | -5.4°C | 47.4% | 629.9hPa | 2.6V | 00:00:00 | 00:00:00 | 00:00:00 | |
| DM0DOS-11 | 2026-09-02 02:24:19 | 52.16338 | 6.95851 | 75° | 51km/h | 3982m | -4.2m/s | -5.5°C | 48.2% | 629hPa | 2.6V | 07:33:48 | 03:07:49 | 00:00:00 | |
| DM0DOS-11 | 2026-09-02 02:24:19 | 52.16323 | 6.95749 | 78° | 51km/h | 4002m | -4.4m/s | -5.7°C | 48.4% | 627.2hPa | 2.6V | 07:33:53 | 03:07:44 | 00:00:00 | |
| GOEST3-10 | 2026-09-02 02:24:17 | 52.16331 | 6.95810 | 77° | 51km/h | 3990m | -4.5m/s | -5.5°C | 48.3% | 628.2hPa | 2.5V | 00:00:00 | 00:00:00 | 00:00:00 | |
| DM0DOS-11 | 2026-09-02 02:24:14 | 52.16310 | 6.95646 | 79° | 51km/h | 4024m | -4.5m/s | -5.8°C | 48.4% | 625.4hPa | 2.5V | 07:33:58 | 03:07:39 | 00:00:00 | |
| BIOWL1-15 | 2026-09-02 02:24:14 | 52.16323 | 6.95749 | 78° | 51km/h | 4002m | -4.4m/s | -5.7°C | 53% | 627.2hPa | 2.6V | 07:34:37 | 03:07:44 | 00:00:00 | |
| GOEST3-10 | 2026-09-02 02:24:12 | 52.16318 | 6.95708 | 79° | 51km/h | 4011m | -4.4m/s | -5.7°C | 48.3% | 626.4hPa | 2.6V | 00:00:00 | 03:07:42 | 00:00:00 | |
| DB0UT-7 | 2026-09-02 02:24:10 | 52.16313 | 6.95666 | 79° | 49km/h | 4020m | -4.4m/s | -5.8°C | 48.4% | 625.6hPa | 2.5V | 00:00:00 | 03:07:40 | 00:00:00 | |
| DM0DOS-11 | 2026-09-02 02:24:09 | 52.16298 | 6.95544 | 78° | 49km/h | 4046m | -4.5m/s | -6°C | 49.5% | 623.8hPa | 2.5V | 07:34:03 | 03:07:34 | 00:00:00 | |
| BIOWL1-15 | 2026-09-02 02:24:04 | 52.16298 | 6.95544 | 79° | 49km/h | 4046m | -4.5m/s | -6°C | 53.9% | 623.8hPa | 2.5V | 07:34:37 | 03:07:34 | 00:00:00 | |
| DO3DL | 2026-09-02 02:24:03 | 52.16298 | 6.95544 | 80° | 49km/h | 4046m | -4.5m/s | -6.0°C | 48.8% | 623.8hPa | 2.5V | 07:34:00 | 00:00:00 | 00:00:00 | |
| GOEST3-10 | 2026-09-02 02:24:02 | 52.16293 | 6.95504 | 80° | 49km/h | 4055m | -4.1m/s | -6.0°C | 48.9% | 623.1hPa | 2.5V | 00:00:00 | 03:07:32 | 00:00:00 | |
| DC6BW-12 | 2026-09-02 02:24:01 | 52.16293 | 6.95504 | 81° | 49km/h | 4055m | -4.1m/s | -6.1°C | 48.2% | 623.1hPa | 2.5V | 07:34:00 | 00:00:00 | 00:00:00 | |
| DM0DOS-11 | 2026-09-02 02:23:59 | 52.16278 | 6.95346 | 81° | 49km/h | 4088m | -4.6m/s | -6.1°C | 22.2% | 620.4hPa | 2.5V | 07:34:13 | 03:07:24 | 00:00:00 | |
| BIOWL1-15 | 2026-09-02 02:23:54 | 52.16278 | 6.95346 | 82° | 49km/h | 4088m | -4.6m/s | -6.1°C | 25.9% | 620.4hPa | 2.5V | 07:34:37 | 03:07:24 | 00:00:00 | |
| DD1CC8 | 2026-09-02 02:23:53 | 52.16276 | 6.95325 | 81° | 49km/h | 4092m | -4.7m/s | -6.1°C | 22.0% | 620.1hPa | 2.6V | 00:00:00 | 00:00:00 | 00:00:00 | |
| DL4BBY-15 | 2026-09-02 02:23:52 | 52.16274 | 6.95305 | 82° | 51km/h | 4097m | -4.5m/s | -6.7°C | 0% | 0hPa | 2.6V | 00:00:00 | 00:00:00 | 00:00:00 | |
| DO3DL | 2026-09-02 02:23:50 | 52.16272 | 6.95285 | 83° | 49km/h | 4101m | -4.6m/s | -6.2°C | 22.4% | 619.4hPa | 2.6V | 07:34:00 | 00:00:00 | 00:00:00 | |
| DM0DOS-11 | 2026-09-02 02:23:49 | 52.16269 | 6.95244 | 82° | 49km/h | 4110m | -4.4m/s | -6.3°C | 23.3% | 618.7hPa | 2.6V | 07:34:18 | 03:07:19 | 00:00:00 | |
| DM0DOS-11 | 2026-09-02 02:23:49 | 52.16260 | 6.95142 | 81° | 49km/h | 4132m | -4.5m/s | -6.5°C | 29.5% | 617hPa | 2.6V | 07:34:23 | 03:07:14 | 00:00:00 | |
| WPPR-10 | 2026-09-02 02:23:46 | 52.16264 | 6.95183 | 81° | 49km/h | 4123m | -4.5m/s | -6.4°C | 27.7% | 617.8hPa | 2.5V | 00:00:00 | 00:00:00 | 00:00:00 | |
| BIOWL1-15 | 2026-09-02 02:23:45 | 52.16258 | 6.95122 | 81° | 49km/h | 4136m | -4.4m/s | -6.5°C | 35.1% | 616.7hPa | 2.5V | 07:34:37 | 03:07:13 | 00:00:00 | |
| BIOWL7-15 | 2026-09-02 02:23:44 | 52.16262 | 6.95162 | 83° | 49km/h | 4127m | -4.6m/s | -6.4°C | 27.8% | 617.4hPa | 2.5V | 07:34:00 | 00:00:00 | 00:00:00 | |
| DJ2DS-15 | 2026-09-02 02:23:43 | 52.16258 | 6.95122 | 81° | 49km/h | 4136m | -4.4m/s | -6.5°C | 30.1% | 616.7hPa | 2.5V | 00:00:00 | 00:00:00 | 00:00:00 | |
| GOEST3-10 | 2026-09-02 02:23:42 | 52.16256 | 6.95101 | 81° | 51km/h | 4140m | -4.2m/s | -6.5°C | 31.9% | 616.3hPa | 2.5V | 00:00:00 | 03:07:12 | 00:00:00 | |
| DC6BW-12 | 2026-09-02 02:23:41 | 52.16256 | 6.95101 | 81° | 51km/h | 4140m | -4.3m/s | -6.6°C | 31.4% | 616.4hPa | 2.6V | 07:34:00 | 00:00:00 | 00:00:00 | |
| DM0DOS-11 | 2026-09-02 02:23:39 | 52.16249 | 6.95040 | 80° | 51km/h | 4153m | -4.2m/s | -6.7°C | 37.7% | 615.4hPa | 2.6V | 07:34:28 | 03:07:09 | 00:00:00 | |
| DM0DOS-11 | 2026-09-02 02:23:39 | 52.16238 | 6.94935 | 78° | 53km/h | 4174m | -4.3m/s | -6.9°C | 64.4% | 613.7hPa | 2.6V | 07:34:33 | 03:07:04 | 00:00:00 | |
| MET0W-2 | 2026-09-02 02:23:38 | 52.16247 | 6.95019 | 80° | 49km/h | 4157m | -4.4m/s | -6.7°C | 40.5% | 615.0hPa | 2.6V | 00:00:00 | 00:00:00 | 00:00:00 | |
| GOEST3-10 | 2026-09-02 02:23:37 | 52.16245 | 6.94998 | 80° | 53km/h | 4161m | -4.3m/s | -6.7°C | 45.7% | 614.7hPa | 2.6V | 00:00:00 | 00:00:00 | 00:00:00 | |
| HTAHTA | 2026-09-02 02:23:35 | 52.16240 | 6.94956 | 79° | 51km/h | 4170m | -4.1m/s | -6.8°C | 55.4% | 614.0hPa | 2.6V | 00:00:00 | 00:00:00 | 00:00:00 | |
| DM0DOS-11 | 2026-09-02 02:23:34 | 52.16224 | 6.94830 | 77° | 51km/h | 4196m | -4.1m/s | -7°C | 68.3% | 612hPa | 2.6V | 07:34:38 | 03:06:59 | 00:00:00 | |
| BIOWL1-15 | 2026-09-02 02:23:32 | 52.16232 | 6.94893 | 79° | 53km/h | 4182m | -4.4m/s | -6.9°C | 74.3% | 613hPa | 2.5V | 07:34:37 | 03:07:02 | 00:00:00 | |
| GOEST3-10 | 2026-09-02 02:23:32 | 52.16232 | 6.94893 | 80° | 51km/h | 4183m | -4.4m/s | -6.9°C | 70.3% | 612.9hPa | 2.6V | 00:00:00 | 03:07:02 | 00:00:00 | |
| DD1CC9-15 | 2026-09-02 02:23:30 | 52.16230 | 6.94871 | 79° | 51km/h | 4187m | -4.3m/s | -7.0°C | 68.7% | 612.6hPa | 2.6V | 00:00:00 | 00:00:00 | 00:00:00 | |
| DM0DOS-11 | 2026-09-02 02:23:29 | 52.16209 | 6.94726 | 76° | 51km/h | 4217m | -4.5m/s | -7.2°C | 70.3% | 610.3hPa | 2.6V | 07:34:43 | 03:06:54 | 00:00:00 | |
| DL1LOL-11 | 2026-09-02 02:23:27 | 52.16221 | 6.94809 | 78° | 51km/h | 4200m | -4.3m/s | -7.1°C | 66.1% | 611.7hPa | 2.6V | 07:35:00 | 00:00:00 | 00:00:00 | |
| DO9LL-15 | 2026-09-02 02:23:26 | 52.16215 | 6.94767 | 78° | 51km/h | 4208m | -4.4m/s | -7.1°C | 65.5% | 611.1hPa | 2.6V | 00:00:00 | 03:06:56 | 00:00:00 | |
| DM0DOS-11 | 2026-09-02 02:23:24 | 52.16194 | 6.94623 | 76° | 51km/h | 4238m | -4.3m/s | -7.3°C | 85.9% | 608.7hPa | 2.6V | 07:34:48 | 03:06:49 | 00:00:00 | |
| BIOWL1-15 | 2026-09-02 02:23:21 | 52.16200 | 6.94664 | 77° | 51km/h | 4230m | -4.2m/s | -7.3°C | 78.1% | 609.4hPa | 2.5V | 07:35:28 | 03:06:51 | 00:00:00 | |
| DH3RM | 2026-09-02 02:23:20 | 52.16200 | 6.94664 | 78° | 51km/h | 4230m | -4.2m/s | -7.3°C | 73.5% | 609.4hPa | 2.6V | 07:35:00 | 00:00:00 | 00:00:00 | |
| GOEST3-10 | 2026-09-02 02:23:17 | 52.16188 | 6.94582 | 78° | 51km/h | 4247m | -4.6m/s | -7.3°C | 89.0% | 608.0hPa | 2.6V | 00:00:00 | 00:00:00 | 00:00:00 | |
| DM0DOS-11 | 2026-09-02 02:23:14 | 52.16180 | 6.94522 | 78° | 51km/h | 4260m | -4m/s | -7.5°C | 90.7% | 607hPa | 2.6V | 07:34:53 | 03:06:44 | 00:00:00 | |
| DM0DOS-11 | 2026-09-02 02:23:14 | 52.16167 | 6.94420 | 78° | 51km/h | 4281m | -4.2m/s | -7.6°C | 90.3% | 605.3hPa | 2.5V | 07:34:58 | 03:06:39 | 00:00:00 | |
| BIOWL1-15 | 2026-09-02 02:23:13 | 52.16172 | 6.94461 | 78° | 51km/h | 4273m | -4.1m/s | -7.6°C | 92.7% | 606hPa | 2.6V | 07:35:28 | 03:06:41 | 00:00:00 | |
| GOEST3-10 | 2026-09-02 02:23:12 | 52.16174 | 6.94481 | 79° | 51km/h | 4269m | -4.0m/s | -7.5°C | 90.7% | 606.3hPa | 2.6V | 00:00:00 | 03:06:42 | 00:00:00 | |
| DO3DL | 2026-09-02 02:23:11 | 52.16174 | 6.94481 | 79° | 51km/h | 4269m | -4.1m/s | -7.6°C | 89.5% | 606.3hPa | 2.5V | 07:35:00 | 00:00:00 | 00:00:00 | |
| DH3RM | 2026-09-02 02:23:07 | 52.16162 | 6.94379 | 79° | 51km/h | 4289m | -4.5m/s | -7.7°C | 89.1% | 604.7hPa | 2.5V | 07:35:00 | 00:00:00 | 00:00:00 | |
| DL1CLM-18 | 2026-09-02 02:23:06 | 52.16162 | 6.94379 | 79° | 51km/h | 4289m | -4.5m/s | -7.7°C | 89.1% | 604.7hPa | 2.5V | 00:00:00 | 00:00:00 | 00:00:00 | |
| DM0DOS-11 | 2026-09-02 02:23:04 | 52.16154 | 6.94318 | 79° | 49km/h | 4302m | -4.4m/s | -7.8°C | 88.7% | 603.6hPa | 2.5V | 07:35:03 | 03:06:34 | 00:00:00 | |
| BIOWL1-15 | 2026-09-02 02:23:02 | 52.16146 | 6.94238 | 81° | 51km/h | 4319m | -4.3m/s | -7.9°C | 90.3% | 602.4hPa | 2.6V | 07:35:28 | 03:06:30 | 00:00:00 | |
| GOEST3-10 | 2026-09-02 02:23:02 | 52.16150 | 6.94278 | 81° | 49km/h | 4311m | -4.3m/s | -7.8°C | 88.1% | 603.0hPa | 2.6V | 00:00:00 | 03:06:32 | 00:00:00 | |
| DC6BW-12 | 2026-09-02 02:23:01 | 52.16150 | 6.94278 | 82° | 49km/h | 4311m | -4.4m/s | -7.9°C | 86.9% | 603.1hPa | 2.6V | 07:35:00 | 00:00:00 | 00:00:00 | |
| DH3RM | 2026-09-02 02:23:00 | 52.16148 | 6.94258 | 82° | 49km/h | 4315m | -4.4m/s | -7.9°C | 86.7% | 602.8hPa | 2.6V | 07:35:00 | 00:00:00 | 00:00:00 | |
| DL1LOL-11 | 2026-09-02 02:22:58 | 52.16144 | 6.94217 | 81° | 51km/h | 4324m | -4.2m/s | -8.0°C | 87.2% | 602.0hPa | 2.6V | 07:35:00 | 00:00:00 | 00:00:00 | |
| DB0UT-7 | 2026-09-02 02:22:57 | 52.16139 | 6.94176 | 81° | 51km/h | 4332m | -4.4m/s | -8.0°C | 88.0% | 601.4hPa | 2.6V | 00:00:00 | 03:06:27 | 00:00:00 | |
| DO9LL-15 | 2026-09-02 02:22:56 | 52.16137 | 6.94156 | 81° | 51km/h | 4337m | -4.2m/s | -8.0°C | 87.6% | 601.1hPa | 2.5V | 00:00:00 | 03:06:26 | 00:00:00 | |
| DM0DOS-11 | 2026-09-02 02:22:54 | 52.16122 | 6.94012 | 78° | 51km/h | 4367m | -4.4m/s | -8.3°C | 86.8% | 598.7hPa | 2.5V | 07:35:18 | 03:06:19 | 00:00:00 | |
| DL1XH-west | 2026-09-02 02:22:54 | 52.16133 | 6.94115 | 80° | 51km/h | 4346m | -4.6m/s | -8.1°C | 89.1% | 600.5hPa | 2.5V | 07:35:28 | 03:06:24 | 00:00:00 | |
| BIOWL1-15 | 2026-09-02 02:22:51 | 52.16122 | 6.94012 | 78° | 51km/h | 4367m | -4.4m/s | -8.3°C | 88.8% | 598.7hPa | 2.5V | 07:35:28 | 03:06:19 | 00:00:00 | |
| DO3DL | 2026-09-02 02:22:50 | 52.16126 | 6.94053 | 81° | 51km/h | 4359m | -4.2m/s | -8.3°C | 85.9% | 599.4hPa | 2.6V | 07:35:00 | 00:00:00 | 00:00:00 | |
| GOEST3-10 | 2026-09-02 02:22:47 | 52.16116 | 6.93971 | 79° | 51km/h | 4376m | -4.3m/s | -8.3°C | 86.9% | 598.0hPa | 2.6V | 00:00:00 | 00:00:00 | 00:00:00 | |
| DM0DOS-11 | 2026-09-02 02:22:44 | 52.16095 | 6.93804 | 78° | 51km/h | 4410m | -4.5m/s | -8.6°C | 84.1% | 595.3hPa | 2.6V | 07:35:28 | 03:06:09 | 00:00:00 | |
| DL1XH-west | 2026-09-02 02:22:43 | 52.16106 | 6.93887 | 78° | 51km/h | 4393m | -4.3m/s | -8.5°C | 87.3% | 596.7hPa | 2.5V | 07:35:28 | 03:06:13 | 00:00:00 | |
| BIOWL1-15 | 2026-09-02 02:22:38 | 52.16093 | 6.93783 | 81° | 51km/h | 4414m | -4.2m/s | -8.6°C | 86% | 595.1hPa | 2.6V | 07:36:19 | 03:06:08 | 00:00:00 | |
| GOEST3-10 | 2026-09-02 02:22:37 | 52.16091 | 6.93762 | 81° | 51km/h | 4418m | -4.2m/s | -8.6°C | 83.8% | 594.7hPa | 2.6V | 00:00:00 | 00:00:00 | 00:00:00 | |
| MET0W-2 | 2026-09-02 02:22:36 | 52.16089 | 6.93742 | 80° | 51km/h | 4423m | -4.4m/s | -8.7°C | 82.3% | 594.5hPa | 2.6V | 00:00:00 | 00:00:00 | 00:00:00 | |
| DD1CC9-15 | 2026-09-02 02:22:35 | 52.16089 | 6.93742 | 81° | 51km/h | 4423m | -4.4m/s | -8.7°C | 82.3% | 594.5hPa | 2.6V | 07:36:00 | 00:00:00 | 00:00:00 | |
| DM0DOS-11 | 2026-09-02 02:22:34 | 52.16072 | 6.93596 | 79° | 51km/h | 4453m | -4.6m/s | -9°C | 83.2% | 591.9hPa | 2.6V | 07:35:38 | 03:05:59 | 00:00:00 | |
| DL1XH-west | 2026-09-02 02:22:32 | 52.16079 | 6.93658 | 79° | 51km/h | 4440m | -4.5m/s | -8.9°C | 85.8% | 593.1hPa | 2.6V | 07:36:19 | 03:06:02 | 00:00:00 | |
| BIOWL1-15 | 2026-09-02 02:22:30 | 52.16069 | 6.93575 | 79° | 51km/h | 4458m | -4.6m/s | -9°C | 83.6% | 591.7hPa | 2.6V | 07:36:19 | 03:05:58 | 00:00:00 | |
| DL1CLM-18 | 2026-09-02 02:22:29 | 52.16074 | 6.93616 | 81° | 51km/h | 4449m | -4.2m/s | -8.9°C | 82.0% | 592.4hPa | 2.6V | 00:00:00 | 00:00:00 | 00:00:00 | |
| GOEST3-10 | 2026-09-02 02:22:27 | 52.16067 | 6.93553 | 79° | 51km/h | 4463m | -4.3m/s | -9.0°C | 80.8% | 591.3hPa | 2.6V | 07:35:00 | 00:00:00 | 00:00:00 | |
| DO9LL-15 | 2026-09-02 02:22:26 | 52.16064 | 6.93532 | 80° | 53km/h | 4467m | -4.4m/s | -9.0°C | 80.7% | 591.0hPa | 2.6V | 00:00:00 | 03:05:56 | 00:00:00 | |
| DM0DOS-11 | 2026-09-02 02:22:24 | 52.16059 | 6.93491 | 79° | 51km/h | 4476m | -4.8m/s | -9.1°C | 80.3% | 590.4hPa | 2.5V | 07:35:43 | 03:05:54 | 00:00:00 | |
| DM0DOS-11 | 2026-09-02 02:22:24 | 52.16048 | 6.93386 | 78° | 53km/h | 4498m | -4.5m/s | -9.3°C | 80.8% | 588.7hPa | 2.6V | 07:35:48 | 03:05:49 | 00:00:00 | |
| DL1XH-west | 2026-09-02 02:22:22 | 52.16055 | 6.93450 | 80° | 51km/h | 4485m | -4.3m/s | -9.2°C | 82.6% | 589.8hPa | 2.6V | 07:36:19 | 03:05:52 | 00:00:00 | |
| BIOWL1-15 | 2026-09-02 02:22:20 | 52.16045 | 6.93365 | 79° | 51km/h | 4502m | -4.2m/s | -9.3°C | 83.2% | 588.5hPa | 2.5V | 07:36:19 | 03:05:48 | 00:00:00 | |
| DM0DOS-11 | 2026-09-02 02:22:19 | 52.16035 | 6.93282 | 79° | 51km/h | 4520m | -4.7m/s | -9.5°C | 81.6% | 587hPa | 2.6V | 07:35:53 | 03:05:44 | 00:00:00 | |
| DB0UT-7 | 2026-09-02 02:22:19 | 52.16047 | 6.93386 | 79° | 53km/h | 4498m | -4.4m/s | -9.3°C | 80.8% | 588.7hPa | 2.6V | 00:00:00 | 00:00:00 | 00:00:00 | |
| GOEST3-10 | 2026-09-02 02:22:17 | 52.16042 | 6.93345 | 79° | 53km/h | 4507m | -4.5m/s | -9.3°C | 81.4% | 588.0hPa | 2.6V | 00:00:00 | 00:00:00 | 00:00:00 | |
| DD1CC3-15 | 2026-09-02 02:22:15 | 52.16040 | 6.93323 | 81° | 51km/h | 4511m | -4.4m/s | -9.4°C | 80.4% | 587.8hPa | 2.6V | 07:36:00 | 00:00:00 | 00:00:00 | |
| DM0DOS-11 | 2026-09-02 02:22:14 | 52.16022 | 6.93176 | 78° | 51km/h | 4543m | -4.3m/s | -9.7°C | 82.5% | 585.3hPa | 2.6V | 07:35:58 | 03:05:39 | 00:00:00 | |
| DL1XH-west | 2026-09-02 02:22:11 | 52.16027 | 6.93218 | 78° | 51km/h | 4534m | -4.3m/s | -9.6°C | 84% | 586hPa | 2.6V | 07:36:19 | 03:05:41 | 00:00:00 | |
| DO3DL | 2026-09-02 02:22:10 | 52.16027 | 6.93218 | 79° | 51km/h | 4534m | -4.3m/s | -9.6°C | 80.9% | 586.0hPa | 2.6V | 07:36:00 | 00:00:00 | 00:00:00 | |
| DM0DOS-11 | 2026-09-02 02:22:09 | 52.16009 | 6.93070 | 79° | 51km/h | 4565m | -4.3m/s | -9.8°C | 83.4% | 583.6hPa | 2.6V | 07:36:03 | 03:05:34 | 00:00:00 | |
| BIOWL1-15 | 2026-09-02 02:22:07 | 52.16017 | 6.93134 | 79° | 53km/h | 4552m | -4.4m/s | -9.7°C | 84.6% | 584.6hPa | 2.5V | 07:36:19 | 03:05:37 | 00:00:00 | |
| GOEST3-10 | 2026-09-02 02:22:07 | 52.16017 | 6.93134 | 80° | 53km/h | 4552m | -4.3m/s | -9.7°C | 82.9% | 584.6hPa | 2.6V | 00:00:00 | 00:00:00 | 00:00:00 | |
| DH3RM | 2026-09-02 02:22:06 | 52.16017 | 6.93134 | 80° | 53km/h | 4552m | -4.4m/s | -9.7°C | 81.6% | 584.6hPa | 2.6V | 00:00:00 | 00:00:00 | 00:00:00 | |
| MET0W-2 | 2026-09-02 02:22:05 | 52.16012 | 6.93091 | 78° | 53km/h | 4560m | -4.6m/s | -9.8°C | 81.9% | 584.0hPa | 2.6V | 00:00:00 | 00:00:00 | 00:00:00 | |
| DM0DOS-11 | 2026-09-02 02:22:04 | 52.15997 | 6.92965 | 79° | 53km/h | 4587m | -4.4m/s | -10°C | 84.4% | 581.9hPa | 2.6V | 07:36:08 | 03:05:29 | 00:00:00 | |
| DL1XH-west | 2026-09-02 02:22:01 | 52.16002 | 6.93007 | 80° | 53km/h | 4578m | -4.3m/s | -10°C | 85.5% | 582.6hPa | 2.6V | 07:36:19 | 03:05:31 | 00:00:00 | |
| DH3RM | 2026-09-02 02:22:00 | 52.16002 | 6.93007 | 81° | 53km/h | 4578m | -4.3m/s | -10.0°C | 82.6% | 582.6hPa | 2.6V | 00:00:00 | 00:00:00 | 00:00:00 | |
| DM0DOS-11 | 2026-09-02 02:21:59 | 52.15984 | 6.92859 | 78° | 53km/h | 4609m | -4.3m/s | -10.2°C | 85.6% | 580.3hPa | 2.6V | 07:36:13 | 03:05:24 | 00:00:00 | |
| BIOWL1-15 | 2026-09-02 02:21:57 | 52.15992 | 6.92922 | 79° | 53km/h | 4596m | -4.5m/s | -10.1°C | 86.3% | 581.3hPa | 2.5V | 07:36:19 | 03:05:27 | 00:00:00 | |
| DL1XH-west | 2026-09-02 02:21:51 | 52.15976 | 6.92795 | 80° | 53km/h | 4623m | -4.4m/s | -10.3°C | 87.2% | 579.3hPa | 2.6V | 07:36:19 | 03:05:21 | 00:00:00 | |
| DM0DOS-11 | 2026-09-02 02:21:49 | 52.15971 | 6.92753 | 79° | 53km/h | 4631m | -4.5m/s | -10.4°C | 86.1% | 578.6hPa | 2.6V | 07:36:18 | 03:05:19 | 00:00:00 | |
| DM0DOS-11 | 2026-09-02 02:21:49 | 52.15960 | 6.92644 | 81° | 55km/h | 4655m | -4.4m/s | -10.6°C | 87.3% | 576.9hPa | 2.6V | 07:36:23 | 03:05:14 | 00:00:00 | |
| BIOWL1-15 | 2026-09-02 02:21:47 | 52.15967 | 6.92709 | 80° | 55km/h | 4641m | -4.8m/s | -10.5°C | 87.6% | 577.9hPa | 2.5V | 07:37:10 | 03:05:17 | 00:00:00 | |
| DL1XH-west | 2026-09-02 02:21:41 | 52.15954 | 6.92578 | 82° | 55km/h | 4668m | -4.4m/s | -10.7°C | 89.1% | 575.9hPa | 2.6V | 07:37:10 | 03:05:11 | 00:00:00 | |
| BIOWL1-15 | 2026-09-02 02:21:40 | 52.15943 | 6.92466 | 80° | 57km/h | 4691m | -4.5m/s | -10.8°C | 91.7% | 574.2hPa | 2.6V | 07:37:10 | 03:05:06 | 00:00:00 | |
| DM0DOS-11 | 2026-09-02 02:21:39 | 52.15950 | 6.92533 | 80° | 55km/h | 4677m | -4.7m/s | -10.7°C | 90.3% | 575.3hPa | 2.6V | 07:36:28 | 03:05:09 | 00:00:00 | |
| DM0DOS-11 | 2026-09-02 02:21:39 | 52.15937 | 6.92421 | 79° | 57km/h | 4700m | -4.5m/s | -10.9°C | 91% | 573.6hPa | 2.6V | 07:36:33 | 03:05:04 | 00:00:00 | |
| GOEST3-10 | 2026-09-02 02:21:37 | 52.15945 | 6.92488 | 80° | 57km/h | 4686m | -4.6m/s | -10.8°C | 91.0% | 574.5hPa | 2.6V | 00:00:00 | 00:00:00 | 00:00:00 | |
| DM0DOS-11 | 2026-09-02 02:21:34 | 52.15924 | 6.92307 | 78° | 57km/h | 4724m | -4.5m/s | -11.1°C | 91.6% | 571.7hPa | 2.6V | 07:36:38 | 03:04:59 | 00:00:00 | |
| DL1XH-west | 2026-09-02 02:21:31 | 52.15929 | 6.92352 | 79° | 57km/h | 4714m | -5.1m/s | -11°C | 92.3% | 572.5hPa | 2.6V | 07:37:10 | 03:05:01 | 00:00:00 | |
| DF5WG-10 | 2026-09-02 02:21:31 | 52.15929 | 6.92352 | 79° | 60km/h | 4714m | -5.1m/s | -11.0°C | 91.8% | 572.5hPa | 2.6V | 00:00:00 | 03:05:01 | 00:00:00 | |
| DM0DOS-11 | 2026-09-02 02:21:29 | 52.15910 | 6.92190 | 79° | 58km/h | 4748m | -5m/s | -11.2°C | 95.8% | 569.9hPa | 2.6V | 07:36:43 | 03:04:54 | 00:00:00 | |
| BIOWL1-15 | 2026-09-02 02:21:27 | 52.15913 | 6.92214 | 80° | 58km/h | 4743m | -5.2m/s | -11.2°C | 96.5% | 570.4hPa | 2.6V | 07:37:10 | 03:04:55 | 00:00:00 | |
| DO9LL-15 | 2026-09-02 02:21:26 | 52.15915 | 6.92237 | 80° | 60km/h | 4738m | -5.1m/s | -11.1°C | 94.9% | 570.6hPa | 2.6V | 00:00:00 | 03:04:56 | 00:00:00 | |
| DM0DOS-11 | 2026-09-02 02:21:24 | 52.15895 | 6.92070 | 75° | 58km/h | 4772m | -4.7m/s | -11.3°C | 94.6% | 568.1hPa | 2.6V | 07:36:48 | 03:04:49 | 00:00:00 | |
| DL1XH-west | 2026-09-02 02:21:21 | 52.15901 | 6.92118 | 78° | 60km/h | 4763m | -4.7m/s | -11.3°C | 95.4% | 568.9hPa | 2.6V | 07:37:10 | 03:04:51 | 00:00:00 | |
| DD1CC2-15 | 2026-09-02 02:21:20 | 52.15901 | 6.92118 | 79° | 60km/h | 4763m | -4.7m/s | -11.3°C | 94.0% | 568.9hPa | 2.6V | 07:37:00 | 00:00:00 | 00:00:00 | |
| DM0DOS-11 | 2026-09-02 02:21:19 | 52.15876 | 6.91951 | 76° | 60km/h | 4796m | -5.3m/s | -11.5°C | 95.2% | 566.4hPa | 2.6V | 07:36:53 | 03:04:44 | 00:00:00 | |
| BIOWL1-15 | 2026-09-02 02:21:15 | 52.15880 | 6.91975 | 76° | 60km/h | 4791m | -5m/s | -11.4°C | 95.7% | 566.7hPa | 2.6V | 07:37:10 | 03:04:45 | 00:00:00 | |
| DL1XH-west | 2026-09-02 02:21:10 | 52.15862 | 6.91854 | 78° | 60km/h | 4816m | -5.1m/s | -11.6°C | 96.4% | 565hPa | 2.6V | 07:37:10 | 03:04:40 | 00:00:00 | |
| BIOWL1-15 | 2026-09-02 02:21:04 | 52.15842 | 6.91708 | 78° | 60km/h | 4844m | -4.5m/s | -11.8°C | 96% | 562.7hPa | 2.6V | 07:37:10 | 03:04:34 | 00:00:00 | |
| GOEST3-10 | 2026-09-02 02:21:02 | 52.15835 | 6.91659 | 78° | 62km/h | 4854m | -4.2m/s | -11.9°C | 96.6% | 562.1hPa | 2.6V | 00:00:00 | 03:04:32 | 00:00:00 | |
| HTAHTA | 2026-09-02 02:21:00 | 52.15829 | 6.91609 | 78° | 60km/h | 4862m | -4.5m/s | -11.9°C | 92.7% | 561.5hPa | 2.6V | 00:00:00 | 00:00:00 | 00:00:00 | |
| DM0DOS-11 | 2026-09-02 02:20:59 | 52.15826 | 6.91584 | 78° | 62km/h | 4867m | -4.8m/s | -12°C | 94.8% | 561.1hPa | 2.6V | 07:37:08 | 03:04:29 | 00:00:00 | |
| DL1XH-west | 2026-09-02 02:20:59 | 52.15826 | 6.91584 | 79° | 62km/h | 4867m | -4.8m/s | -12°C | 95.5% | 561.1hPa | 2.6V | 07:37:10 | 03:04:29 | 00:00:00 | |
| DJ2KF-10 | 2026-09-02 02:20:59 | 52.15826 | 6.91584 | 79° | 64km/h | 4867m | -4.8m/s | -11.9°C | 94.8% | 561.1hPa | 2.6V | 00:00:00 | 03:04:29 | 00:00:00 | |
| GOEST3-10 | 2026-09-02 02:20:57 | 52.15819 | 6.91534 | 79° | 62km/h | 4877m | -5.1m/s | -12.0°C | 95.4% | 560.3hPa | 2.6V | 00:00:00 | 00:00:00 | 00:00:00 | |
| DO9LL-15 | 2026-09-02 02:20:56 | 52.15816 | 6.91508 | 79° | 64km/h | 4882m | -5.0m/s | -12.1°C | 95.7% | 559.8hPa | 2.5V | 00:00:00 | 03:04:26 | 00:00:00 | |
| DM0DOS-11 | 2026-09-02 02:20:54 | 52.15793 | 6.91332 | 76° | 62km/h | 4916m | -4.8m/s | -12.4°C | 98.8% | 557.4hPa | 2.5V | 07:37:18 | 03:04:19 | 00:00:00 | |
| BIOWL1-15 | 2026-09-02 02:20:53 | 52.15806 | 6.91432 | 78° | 62km/h | 4897m | -4.8m/s | -12.2°C | 96.9% | 558.9hPa | 2.6V | 07:38:01 | 03:04:23 | 00:00:00 | |
| DL1XH-west | 2026-09-02 02:20:48 | 52.15790 | 6.91307 | 76° | 62km/h | 4921m | -5.1m/s | -12.4°C | 97.8% | 557.1hPa | 2.5V | 07:38:01 | 03:04:18 | 00:00:00 | |
| BUE01 | 2026-09-02 02:20:47 | 52.15774 | 6.91206 | 75° | 64km/h | 4941m | -4.9m/s | -12.6°C | 96.1% | 555.7hPa | 2.6V | 00:00:00 | 00:00:00 | 00:00:00 | |
| DO3DL | 2026-09-02 02:20:46 | 52.15786 | 6.91282 | 77° | 62km/h | 4926m | -5.0m/s | -12.5°C | 95.9% | 556.8hPa | 2.6V | 07:38:00 | 00:00:00 | 00:00:00 | |
| DM0DOS-11 | 2026-09-02 02:20:44 | 52.15755 | 6.91077 | 76° | 66km/h | 4965m | -4.9m/s | -12.8°C | 99.2% | 553.8hPa | 2.6V | 07:37:28 | 03:04:09 | 00:00:00 | |
| BIOWL1-15 | 2026-09-02 02:20:42 | 52.15766 | 6.91154 | 76° | 64km/h | 4951m | -4.9m/s | -12.7°C | 97.3% | 554.9hPa | 2.6V | 07:38:01 | 03:04:12 | 00:00:00 | |
| GOEST3-10 | 2026-09-02 02:20:42 | 52.15766 | 6.91154 | 76° | 64km/h | 4951m | -4.8m/s | -12.6°C | 98.2% | 554.9hPa | 2.6V | 00:00:00 | 03:04:12 | 00:00:00 | |
| DF5WG-10 | 2026-09-02 02:20:40 | 52.15758 | 6.91102 | 77° | 64km/h | 4961m | -4.9m/s | -12.7°C | 99.3% | 554.2hPa | 2.6V | 00:00:00 | 03:04:10 | 00:00:00 | |
| DM0DOS-11 | 2026-09-02 02:20:39 | 52.15736 | 6.90947 | 77° | 64km/h | 4990m | -4.7m/s | -13°C | 0% | 552.1hPa | 2.6V | 07:37:33 | 03:04:04 | 00:00:00 | |
| DL1XH-west | 2026-09-02 02:20:38 | 52.15751 | 6.91050 | 76° | 66km/h | 4971m | -5.2m/s | -12.9°C | 98.6% | 553.5hPa | 2.5V | 07:38:01 | 03:04:08 | 00:00:00 | |
| GOEST3-10 | 2026-09-02 02:20:37 | 52.15747 | 6.91024 | 77° | 64km/h | 4976m | -5.0m/s | -12.8°C | 0% | 553.1hPa | 2.5V | 00:00:00 | 00:00:00 | 00:00:00 | |
| DO1YAY-16 | 2026-09-02 02:20:35 | 52.15732 | 6.90921 | 76° | 64km/h | 4995m | -5.0m/s | -13.1°C | 99.2% | 551.8hPa | 2.5V | 00:00:00 | 00:00:00 | 00:00:00 | |
| DM0DOS-11 | 2026-09-02 02:20:34 | 52.15717 | 6.90818 | 75° | 66km/h | 5015m | -5.2m/s | -13.2°C | 98.8% | 550.3hPa | 2.5V | 07:37:38 | 03:03:59 | 00:00:00 | |
| BIOWL1-15 | 2026-09-02 02:20:33 | 52.15724 | 6.90870 | 76° | 64km/h | 5005m | -5.1m/s | -13.1°C | 99.6% | 551hPa | 2.5V | 07:38:01 | 03:04:01 | 00:00:00 | |
| DL1XH-west | 2026-09-02 02:20:28 | 52.15712 | 6.90793 | 75° | 66km/h | 5020m | -4.7m/s | -13.2°C | 96.7% | 549.9hPa | 2.6V | 07:38:01 | 03:03:58 | 00:00:00 | |
| GOEST3-10 | 2026-09-02 02:20:27 | 52.15708 | 6.90767 | 75° | 64km/h | 5025m | -5.2m/s | -13.2°C | 97.7% | 549.5hPa | 2.6V | 07:37:00 | 00:00:00 | 00:00:00 | |
| DO9LL-15 | 2026-09-02 02:20:26 | 52.15704 | 6.90741 | 75° | 64km/h | 5030m | -4.9m/s | -13.2°C | 97.3% | 549.2hPa | 2.6V | 00:00:00 | 03:03:56 | 00:00:00 | |
| DM0DOS-11 | 2026-09-02 02:20:24 | 52.15674 | 6.90565 | 75° | 64km/h | 5065m | -4.7m/s | -13.5°C | 98.2% | 546.8hPa | 2.6V | 07:37:48 | 03:03:49 | 00:00:00 | |
| BIOWL1-15 | 2026-09-02 02:20:22 | 52.15678 | 6.90590 | 75° | 62km/h | 5061m | -5.3m/s | -13.5°C | 97.4% | 547.1hPa | 2.6V | 07:38:01 | 03:03:50 | 00:00:00 | |
| DL1XH-west | 2026-09-02 02:20:17 | 52.15666 | 6.90515 | 75° | 62km/h | 5075m | -5.2m/s | -13.5°C | 95.6% | 546hPa | 2.5V | 07:38:01 | 03:03:47 | 00:00:00 | |
| GOEST3-10 | 2026-09-02 02:20:17 | 52.15666 | 6.90514 | 76° | 62km/h | 5075m | -5.1m/s | -13.5°C | 96.1% | 546.0hPa | 2.5V | 00:00:00 | 00:00:00 | 00:00:00 | |
| DD1CC8 | 2026-09-02 02:20:16 | 52.15662 | 6.90490 | 76° | 62km/h | 5080m | -5.2m/s | -13.6°C | -1.0% | -1.0hPa | 2.5V | 00:00:00 | 00:00:00 | 00:00:00 | |
| DM0DOS-11 | 2026-09-02 02:20:14 | 52.15637 | 6.90314 | 77° | 62km/h | 5116m | -5m/s | -13.8°C | 90.3% | 543.2hPa | 2.5V | 07:37:58 | 03:03:39 | 00:00:00 | |
| BIOWL1-15 | 2026-09-02 02:20:12 | 52.15640 | 6.90339 | 78° | 64km/h | 5111m | -4.7m/s | -13.8°C | 91.8% | 543.5hPa | 2.5V | 07:38:01 | 03:03:40 | 00:00:00 | |
| GOEST3-10 | 2026-09-02 02:20:12 | 52.15647 | 6.90390 | 77° | 62km/h | 5101m | -5.3m/s | -13.6°C | 92.3% | 544.2hPa | 2.6V | 00:00:00 | 03:03:42 | 00:00:00 | |
| DO2KSM | 2026-09-02 02:20:11 | 52.15647 | 6.90390 | 78° | 64km/h | 5101m | -5.3m/s | -13.7°C | 90.6% | 544.2hPa | 2.6V | 07:38:00 | 00:00:00 | 00:00:00 | |
| WPPR-10 | 2026-09-02 02:20:09 | 52.15633 | 6.90289 | 77° | 62km/h | 5121m | -5.3m/s | -13.8°C | 87.7% | 542.8hPa | 2.6V | 00:00:00 | 00:00:00 | 00:00:00 | |
| GOEST3-10 | 2026-09-02 02:20:07 | 52.15630 | 6.90264 | 77° | 62km/h | 5126m | -5.1m/s | -13.8°C | 87.8% | 542.4hPa | 2.6V | 00:00:00 | 00:00:00 | 00:00:00 | |
| DL1XH-west | 2026-09-02 02:20:07 | 52.15630 | 6.90264 | 77° | 62km/h | 5126m | -5.1m/s | -13.8°C | 88.2% | 542.4hPa | 2.6V | 07:38:01 | 03:03:37 | 00:00:00 | |
| BIOWL7-15 | 2026-09-02 02:20:06 | 52.15630 | 6.90264 | 78° | 62km/h | 5126m | -5.1m/s | -13.8°C | 86.1% | 542.4hPa | 2.6V | 07:38:00 | 00:00:00 | 00:00:00 | |
| DM0DOS-11 | 2026-09-02 02:20:04 | 52.15601 | 6.90060 | 77° | 64km/h | 5166m | -5.1m/s | -14°C | 89.2% | 539.6hPa | 2.6V | 07:38:08 | 03:03:29 | 00:00:00 | |
| BIOWL1-15 | 2026-09-02 02:20:01 | 52.15600 | 6.90060 | 77° | 64km/h | 5166m | -5.1m/s | -14°C | 89.7% | 539.6hPa | 2.6V | 07:38:52 | 03:03:29 | 00:00:00 | |
| MET0W-2 | 2026-09-02 02:20:01 | 52.15604 | 6.90086 | 77° | 64km/h | 5161m | -5.3m/s | -14.0°C | 87.4% | 540.0hPa | 2.6V | 00:00:00 | 00:00:00 | 00:00:00 | |
| HTAHTA | 2026-09-02 02:19:58 | 52.15597 | 6.90034 | 77° | 66km/h | 5171m | -4.8m/s | -14.1°C | 87.7% | 539.3hPa | 2.6V | 00:00:00 | 00:00:00 | 00:00:00 | |
| GOEST3-10 | 2026-09-02 02:19:57 | 52.15593 | 6.90008 | 78° | 64km/h | 5176m | -5.2m/s | -14.1°C | 89.6% | 538.8hPa | 2.6V | 00:00:00 | 00:00:00 | 00:00:00 | |
| DL1XH-west | 2026-09-02 02:19:57 | 52.15593 | 6.90008 | 78° | 66km/h | 5176m | -5.2m/s | -14.1°C | 90% | 538.8hPa | 2.6V | 07:38:52 | 03:03:27 | 00:00:00 | |
| DO9LL-15 | 2026-09-02 02:19:56 | 52.15590 | 6.89982 | 78° | 64km/h | 5181m | -4.6m/s | -14.1°C | 89.7% | 538.5hPa | 2.5V | 07:38:00 | 03:03:26 | 00:00:00 | |
| DM0DOS-11 | 2026-09-02 02:19:54 | 52.15565 | 6.89800 | 78° | 64km/h | 5216m | -5m/s | -14.4°C | 91.1% | 536hPa | 2.5V | 07:38:18 | 03:03:19 | 00:00:00 | |
| BIOWL1-15 | 2026-09-02 02:19:49 | 52.15565 | 6.89800 | 78° | 64km/h | 5216m | -5m/s | -14.4°C | 91.2% | 536hPa | 2.5V | 07:38:52 | 03:03:19 | 00:00:00 | |
| DL1XH-west | 2026-09-02 02:19:46 | 52.15556 | 6.89722 | 78° | 64km/h | 5231m | -5m/s | -14.5°C | 91.7% | 535hPa | 2.6V | 07:38:52 | 03:03:16 | 00:00:00 | |
| DM0DOS-11 | 2026-09-02 02:19:44 | 52.15535 | 6.89541 | 79° | 64km/h | 5266m | -5.2m/s | -14.8°C | 92.6% | 532.5hPa | 2.6V | 07:38:28 | 03:03:09 | 00:00:00 | |
| BIOWL1-15 | 2026-09-02 02:19:40 | 52.15532 | 6.89515 | 80° | 64km/h | 5271m | -5m/s | -14.8°C | 92.7% | 532.1hPa | 2.6V | 07:38:52 | 03:03:08 | 00:00:00 | |
| DL1XH-west | 2026-09-02 02:19:36 | 52.15526 | 6.89464 | 80° | 64km/h | 5281m | -5.2m/s | -14.9°C | 93.2% | 531.4hPa | 2.5V | 07:38:52 | 03:03:06 | 00:00:00 | |
| DC6BW-12 | 2026-09-02 02:19:36 | 52.15529 | 6.89489 | 81° | 64km/h | 5276m | -5.3m/s | -14.9°C | 91.3% | 531.8hPa | 2.6V | 07:38:00 | 00:00:00 | 00:00:00 | |
| DM0DOS-11 | 2026-09-02 02:19:34 | 52.15508 | 6.89282 | 82° | 64km/h | 5317m | -5m/s | -15.2°C | 94.9% | 528.9hPa | 2.6V | 07:38:38 | 03:02:59 | 00:00:00 | |
| BIOWL1-15 | 2026-09-02 02:19:31 | 52.15504 | 6.89230 | 82° | 64km/h | 5327m | -4.8m/s | -15.3°C | 94.7% | 528.2hPa | 2.6V | 07:38:52 | 03:02:57 | 00:00:00 | |
| DL1XH-west | 2026-09-02 02:19:25 | 52.15499 | 6.89178 | 82° | 64km/h | 5337m | -5.4m/s | -15.5°C | 95% | 527.5hPa | 2.5V | 07:38:52 | 03:02:55 | 00:00:00 | |
| DM0DOS-11 | 2026-09-02 02:19:24 | 52.15484 | 6.89024 | 81° | 62km/h | 5368m | -5m/s | -15.7°C | 97.5% | 525.3hPa | 2.5V | 07:38:48 | 03:02:49 | 00:00:00 | |
| BIOWL1-15 | 2026-09-02 02:19:17 | 52.15479 | 6.88973 | 82° | 62km/h | 5378m | -5.2m/s | -15.8°C | 95.9% | 524.7hPa | 2.5V | 07:38:52 | 03:02:47 | 00:00:00 | |
| DL1XH-west | 2026-09-02 02:19:15 | 52.15475 | 6.88922 | 82° | 62km/h | 5388m | -5.5m/s | -15.9°C | 96.1% | 523.8hPa | 2.6V | 07:38:52 | 03:02:45 | 00:00:00 | |
| DM0DOS-11 | 2026-09-02 02:19:14 | 52.15460 | 6.88770 | 80° | 62km/h | 5420m | -5.7m/s | -16.2°C | 99.9% | 521.8hPa | 2.6V | 07:38:58 | 03:02:39 | 00:00:00 | |
| BIOWL1-15 | 2026-09-02 02:19:08 | 52.15452 | 6.88694 | 80° | 62km/h | 5435m | -4.8m/s | -16.3°C | 98.1% | 520.8hPa | 2.5V | 07:39:43 | 03:02:36 | 00:00:00 | |
| WPPR-10 | 2026-09-02 02:19:07 | 52.15452 | 6.88694 | 80° | 60km/h | 5435m | -4.8m/s | -16.3°C | 98.6% | 520.8hPa | 2.5V | 00:00:00 | 00:00:00 | 00:00:00 | |
| BIOWL7-15 | 2026-09-02 02:19:05 | 52.15452 | 6.88694 | 81° | 62km/h | 5435m | -4.8m/s | -16.3°C | 98.6% | 520.7hPa | 2.5V | 00:00:00 | 00:00:00 | 00:00:00 | |
| DM0DOS-11 | 2026-09-02 02:19:04 | 52.15433 | 6.88520 | 79° | 62km/h | 5471m | -5.2m/s | -16.6°C | 0% | 518.2hPa | 2.5V | 07:39:08 | 03:02:29 | 00:00:00 | |
| DL1XH-west | 2026-09-02 02:19:04 | 52.15447 | 6.88644 | 81° | 62km/h | 5445m | -5.2m/s | -16.4°C | 98.5% | 520hPa | 2.6V | 07:39:43 | 03:02:34 | 00:00:00 | |
| BIOWL1-15 | 2026-09-02 02:18:56 | 52.15425 | 6.88444 | 81° | 64km/h | 5486m | -5m/s | -16.7°C | 100% | 517.1hPa | 2.6V | 07:39:43 | 03:02:26 | 00:00:00 | |
| DL1XH-west | 2026-09-02 02:18:54 | 52.15420 | 6.88393 | 80° | 64km/h | 5496m | -5.4m/s | -16.8°C | 98.2% | 516.5hPa | 2.5V | 07:39:43 | 03:02:24 | 00:00:00 | |
| BIOWL1-15 | 2026-09-02 02:18:48 | 52.15398 | 6.88187 | 81° | 62km/h | 5538m | -5.1m/s | -17.1°C | 98.8% | 513.5hPa | 2.6V | 07:39:43 | 03:02:16 | 00:00:00 | |
| DL1XH-west | 2026-09-02 02:18:44 | 52.15392 | 6.88136 | 79° | 62km/h | 5548m | -4.9m/s | -17.2°C | 98.2% | 512.9hPa | 2.6V | 07:39:43 | 03:02:14 | 00:00:00 | |
| BIOWL1-15 | 2026-09-02 02:18:36 | 52.15368 | 6.87928 | 80° | 64km/h | 5589m | -5.2m/s | -17.5°C | 93.6% | 510.1hPa | 2.5V | 07:39:43 | 03:02:06 | 00:00:00 | |
| DL1XH-west | 2026-09-02 02:18:33 | 52.15358 | 6.87850 | 78° | 64km/h | 5605m | -5.3m/s | -17.6°C | 92.8% | 509hPa | 2.6V | 07:39:43 | 03:02:03 | 00:00:00 | |
| BIOWL1-15 | 2026-09-02 02:18:27 | 52.15331 | 6.87647 | 78° | 64km/h | 5646m | -5.6m/s | -17.9°C | 93.4% | 506.2hPa | 2.5V | 07:39:43 | 03:01:55 | 00:00:00 | |
| DO3DL | 2026-09-02 02:18:27 | 52.15338 | 6.87697 | 79° | 62km/h | 5635m | -5.5m/s | -17.8°C | 93.4% | 506.9hPa | 2.5V | 07:39:00 | 00:00:00 | 00:00:00 | |
| DO9LL-15 | 2026-09-02 02:18:26 | 52.15335 | 6.87672 | 78° | 66km/h | 5640m | -5.6m/s | -17.8°C | 95.7% | 506.6hPa | 2.5V | 00:00:00 | 03:01:56 | 00:00:00 | |
| HTAHTA | 2026-09-02 02:18:25 | 52.15331 | 6.87647 | 78° | 62km/h | 5646m | -5.6m/s | -17.9°C | 93.9% | 506.2hPa | 2.5V | 00:00:00 | 00:00:00 | 00:00:00 | |
| DM0DOS-11 | 2026-09-02 02:18:24 | 52.15311 | 6.87491 | 79° | 64km/h | 5678m | -4.9m/s | -18.1°C | 94% | 504.1hPa | 2.5V | 07:39:48 | 03:01:49 | 00:00:00 | |
| DL1XH-west | 2026-09-02 02:18:23 | 52.15325 | 6.87595 | 78° | 64km/h | 5657m | -5.5m/s | -18°C | 93.2% | 505.5hPa | 2.6V | 07:40:34 | 03:01:53 | 00:00:00 | |
| BIOWL1-15 | 2026-09-02 02:18:15 | 52.15299 | 6.87387 | 79° | 66km/h | 5698m | -5.2m/s | -18.3°C | 89.8% | 502.8hPa | 2.5V | 07:40:34 | 03:01:45 | 00:00:00 | |
| DL1XH-west | 2026-09-02 02:18:13 | 52.15292 | 6.87334 | 79° | 64km/h | 5708m | -5.3m/s | -18.4°C | 87.6% | 501.9hPa | 2.6V | 07:40:34 | 03:01:43 | 00:00:00 | |
| BIOWL1-15 | 2026-09-02 02:18:05 | 52.15264 | 6.87096 | 79° | 66km/h | 5755m | -5.7m/s | -18.6°C | 85.5% | 498.9hPa | 2.5V | 07:40:34 | 03:01:34 | 00:00:00 | |
| BIOWL1-15 | 2026-09-02 02:17:53 | 52.15232 | 6.86803 | 79° | 66km/h | 5812m | -5.1m/s | -18.9°C | 82.2% | 495.2hPa | 2.5V | 07:40:34 | 03:01:23 | 00:00:00 | |
| DL1XH-west | 2026-09-02 02:17:47 | 52.15215 | 6.86649 | 79° | 62km/h | 5843m | -5.7m/s | -19.2°C | 82.3% | 493.1hPa | 2.6V | 07:40:34 | 03:01:17 | 00:00:00 | |
| DM0DOS-11 | 2026-09-02 02:17:44 | 52.15187 | 6.86450 | 76° | 62km/h | 5884m | -5.3m/s | -19.5°C | 82.1% | 490.3hPa | 2.6V | 07:40:28 | 03:01:09 | 00:00:00 | |
| BIOWL1-15 | 2026-09-02 02:17:43 | 52.15202 | 6.86548 | 77° | 62km/h | 5864m | -5.3m/s | -19.3°C | 80.5% | 491.8hPa | 2.5V | 07:40:34 | 03:01:13 | 00:00:00 | |
| DL1XH-west | 2026-09-02 02:17:37 | 52.15180 | 6.86401 | 77° | 62km/h | 5895m | -5.5m/s | -19.6°C | 78.8% | 489.7hPa | 2.5V | 07:40:34 | 03:01:07 | 00:00:00 | |
| GOEST3-10 | 2026-09-02 02:17:37 | 52.15180 | 6.86401 | 77° | 62km/h | 5895m | -5.4m/s | -19.5°C | 81.9% | 489.6hPa | 2.6V | 00:00:00 | 00:00:00 | 00:00:00 | |
| DO3DL | 2026-09-02 02:17:36 | 52.15180 | 6.86401 | 78° | 62km/h | 5895m | -5.5m/s | -19.6°C | 79.8% | 489.7hPa | 2.6V | 07:40:00 | 00:00:00 | 00:00:00 | |
| DD1CC2-15 | 2026-09-02 02:17:35 | 52.15177 | 6.86377 | 79° | 60km/h | 5900m | -5.0m/s | -19.6°C | 79.5% | 489.3hPa | 2.6V | 07:40:00 | 00:00:00 | 00:00:00 | |
| DM0DOS-11 | 2026-09-02 02:17:34 | 52.15157 | 6.86203 | 78° | 60km/h | 5935m | -5.3m/s | -19.8°C | 79.9% | 487hPa | 2.6V | 07:40:38 | 03:00:59 | 00:00:00 | |
| BIOWL1-15 | 2026-09-02 02:17:33 | 52.15168 | 6.86302 | 79° | 62km/h | 5915m | -4.7m/s | -19.7°C | 77.8% | 488.4hPa | 2.5V | 07:40:34 | 03:01:03 | 00:00:00 | |
| DL1XH-west | 2026-09-02 02:17:26 | 52.15147 | 6.86132 | 78° | 58km/h | 5950m | -5m/s | -19.9°C | 73.4% | 486hPa | 2.5V | 07:41:25 | 03:00:56 | 00:00:00 | |
| DM0DOS-11 | 2026-09-02 02:17:24 | 52.15122 | 6.85968 | 75° | 58km/h | 5986m | -5.4m/s | -19.8°C | 54.4% | 483.8hPa | 2.5V | 07:40:48 | 03:00:49 | 00:00:00 | |
| BIOWL1-15 | 2026-09-02 02:17:24 | 52.15133 | 6.86038 | 75° | 58km/h | 5971m | -5.4m/s | -19.8°C | 64.2% | 484.7hPa | 2.6V | 07:41:25 | 03:00:52 | 00:00:00 | |
| DL1XH-west | 2026-09-02 02:17:15 | 52.15108 | 6.85874 | 75° | 58km/h | 6006m | -5.2m/s | -19.5°C | 24.5% | 482.4hPa | 2.6V | 07:41:25 | 03:00:45 | 00:00:00 | |
| DM0DOS-11 | 2026-09-02 02:17:14 | 52.15086 | 6.85735 | 75° | 60km/h | 6037m | -5m/s | -19.5°C | 19% | 480.4hPa | 2.6V | 07:40:58 | 03:00:39 | 00:00:00 | |
| BIOWL1-15 | 2026-09-02 02:17:11 | 52.15093 | 6.85782 | 76° | 58km/h | 6027m | -5.3m/s | -19.5°C | 21.3% | 481.2hPa | 2.6V | 07:41:25 | 03:00:41 | 00:00:00 | |
| DL1XH-west | 2026-09-02 02:17:05 | 52.15071 | 6.85641 | 76° | 58km/h | 6057m | -5.2m/s | -19.6°C | 19.5% | 479.2hPa | 2.6V | 07:41:25 | 03:00:35 | 00:00:00 | |
| BIOWL1-15 | 2026-09-02 02:17:01 | 52.15057 | 6.85547 | 77° | 57km/h | 6076m | -5.1m/s | -19.7°C | 18.4% | 477.9hPa | 2.6V | 07:41:25 | 03:00:31 | 00:00:00 | |
| DF5WG-10 | 2026-09-02 02:17:00 | 52.15054 | 6.85523 | 79° | 57km/h | 6082m | -5.0m/s | -19.6°C | 16.4% | 477.5hPa | 2.6V | 00:00:00 | 03:00:30 | 00:00:00 | |
| DJ2KF-10 | 2026-09-02 02:16:59 | 52.15051 | 6.85500 | 78° | 57km/h | 6087m | -5.1m/s | -19.7°C | 16.2% | 477.2hPa | 2.5V | 00:00:00 | 03:00:29 | 00:00:00 | |
| DL1LOL-11 | 2026-09-02 02:16:58 | 52.15051 | 6.85500 | 79° | 58km/h | 6087m | -5.1m/s | -19.7°C | 15.4% | 477.2hPa | 2.5V | 00:00:00 | 00:00:00 | 00:00:00 | |
| GOEST3-10 | 2026-09-02 02:16:57 | 52.15045 | 6.85454 | 79° | 57km/h | 6097m | -5.0m/s | -19.7°C | 15.9% | 476.6hPa | 2.5V | 00:00:00 | 00:00:00 | 00:00:00 | |
| DO9LL-15 | 2026-09-02 02:16:56 | 52.15042 | 6.85431 | 78° | 57km/h | 6102m | -4.8m/s | -19.8°C | 15.9% | 476.3hPa | 2.6V | 00:00:00 | 03:00:26 | 00:00:00 | |
| DH3RM | 2026-09-02 02:16:55 | 52.15042 | 6.85431 | 79° | 57km/h | 6102m | -4.8m/s | -19.8°C | 15.1% | 476.3hPa | 2.6V | 00:00:00 | 00:00:00 | 00:00:00 | |
| DM0DOS-11 | 2026-09-02 02:16:54 | 52.15022 | 6.85269 | 77° | 58km/h | 6137m | -4.9m/s | -20°C | 15.9% | 474.1hPa | 2.6V | 07:41:18 | 03:00:19 | 00:00:00 | |
| DL1XH-west | 2026-09-02 02:16:54 | 52.15036 | 6.85385 | 79° | 57km/h | 6112m | -5.1m/s | -19.9°C | 17.8% | 475.7hPa | 2.6V | 07:41:25 | 03:00:24 | 00:00:00 | |
| BIOWL1-15 | 2026-09-02 02:16:50 | 52.15025 | 6.85293 | 79° | 58km/h | 6132m | -5.1m/s | -20°C | 17.6% | 474.4hPa | 2.6V | 07:41:25 | 03:00:20 | 00:00:00 | |
| DF5WG-10 | 2026-09-02 02:16:50 | 52.15025 | 6.85293 | 79° | 57km/h | 6132m | -5.0m/s | -19.9°C | 15.8% | 474.3hPa | 2.6V | 00:00:00 | 03:00:20 | 00:00:00 | |
| DB0UT-7 | 2026-09-02 02:16:49 | 52.15022 | 6.85269 | 78° | 57km/h | 6137m | -4.8m/s | -20.0°C | 15.9% | 474.0hPa | 2.6V | 07:41:00 | 03:00:19 | 00:00:00 | |
| GOEST3-10 | 2026-09-02 02:16:47 | 52.15016 | 6.85223 | 80° | 57km/h | 6147m | -4.6m/s | -20.0°C | 16.0% | 473.4hPa | 2.6V | 00:00:00 | 00:00:00 | 00:00:00 | |
| DO2KSM | 2026-09-02 02:16:46 | 52.15016 | 6.85223 | 80° | 57km/h | 6147m | -4.7m/s | -20.0°C | 15.2% | 473.5hPa | 2.6V | 07:41:00 | 00:00:00 | 00:00:00 | |
| DM0DOS-11 | 2026-09-02 02:16:44 | 52.14992 | 6.85041 | 76° | 57km/h | 6185m | -5.1m/s | -20.3°C | 17.2% | 470.9hPa | 2.6V | 07:41:28 | 03:00:09 | 00:00:00 | |
| DL1XH-west | 2026-09-02 02:16:43 | 52.15004 | 6.85131 | 79° | 57km/h | 6166m | -4.8m/s | -20.2°C | 18% | 472.2hPa | 2.5V | 07:41:25 | 03:00:13 | 00:00:00 | |
| BIOWL1-15 | 2026-09-02 02:16:40 | 52.14995 | 6.85063 | 77° | 57km/h | 6180m | -4.5m/s | -20.3°C | 18.6% | 471.3hPa | 2.6V | 07:42:16 | 03:00:10 | 00:00:00 | |
| DF5WG-10 | 2026-09-02 02:16:40 | 52.14995 | 6.85063 | 77° | 57km/h | 6180m | -4.4m/s | -20.2°C | 16.6% | 471.2hPa | 2.6V | 07:41:00 | 03:00:10 | 00:00:00 | |
| DD1CC8 | 2026-09-02 02:16:39 | 52.14989 | 6.85018 | 77° | 55km/h | 6190m | -4.6m/s | -20.3°C | -1.0% | -1.0hPa | 2.6V | 00:00:00 | 00:00:00 | 00:00:00 | |
| BUE01 | 2026-09-02 02:16:38 | 52.14989 | 6.85018 | 77° | 55km/h | 6190m | -4.6m/s | -20.3°C | 17.4% | 470.6hPa | 2.6V | 00:00:00 | 00:00:00 | 00:00:00 | |
| GOEST3-10 | 2026-09-02 02:16:37 | 52.14986 | 6.84996 | 77° | 57km/h | 6195m | -5.0m/s | -20.3°C | 20.2% | 470.3hPa | 2.6V | 00:00:00 | 00:00:00 | 00:00:00 | |
| DD1CC1-15 | 2026-09-02 02:16:36 | 52.14986 | 6.84996 | 78° | 57km/h | 6195m | -5.1m/s | -20.4°C | 19.3% | 470.4hPa | 2.6V | 07:42:00 | 00:00:00 | 00:00:00 | |
| WEDDY | 2026-09-02 02:16:35 | 52.14982 | 6.84973 | 77° | 57km/h | 6200m | -4.5m/s | -20.4°C | 23.9% | 470.1hPa | 2.6V | 07:42:00 | 00:00:00 | 00:00:00 | |
| DM0DOS-11 | 2026-09-02 02:16:34 | 52.14957 | 6.84817 | 74° | 57km/h | 6233m | -4.8m/s | -20.6°C | 31% | 468hPa | 2.6V | 07:41:38 | 02:59:59 | 00:00:00 | |
| DL1XH-west | 2026-09-02 02:16:32 | 52.14968 | 6.84883 | 74° | 57km/h | 6218m | -4.9m/s | -20.6°C | 35.2% | 468.8hPa | 2.5V | 07:42:16 | 03:00:02 | 00:00:00 | |
| BIOWL1-15 | 2026-09-02 02:16:29 | 52.14957 | 6.84817 | 74° | 57km/h | 6233m | -4.8m/s | -20.6°C | 33.4% | 468hPa | 2.6V | 07:42:16 | 02:59:59 | 00:00:00 | |
| DJ2KF-10 | 2026-09-02 02:16:29 | 52.14956 | 6.84817 | 75° | 55km/h | 6233m | -4.8m/s | -20.6°C | 31.0% | 467.9hPa | 2.6V | 00:00:00 | 02:59:59 | 00:00:00 | |
| GOEST3-10 | 2026-09-02 02:16:27 | 52.14949 | 6.84772 | 75° | 55km/h | 6242m | -4.5m/s | -20.6°C | 30.2% | 467.4hPa | 2.6V | 07:41:00 | 00:00:00 | 00:00:00 | |
| DO9LL-15 | 2026-09-02 02:16:26 | 52.14945 | 6.84750 | 75° | 55km/h | 6246m | -4.8m/s | -20.6°C | 29.0% | 467.0hPa | 2.5V | 00:00:00 | 02:59:56 | 00:00:00 | |
| DO2KSM | 2026-09-02 02:16:25 | 52.14945 | 6.84750 | 76° | 55km/h | 6246m | -4.9m/s | -20.7°C | 27.9% | 467.0hPa | 2.5V | 07:42:00 | 00:00:00 | 00:00:00 | |
| DM0DOS-11 | 2026-09-02 02:16:24 | 52.14922 | 6.84598 | 76° | 55km/h | 6279m | -4.3m/s | -20.9°C | 28.2% | 465hPa | 2.5V | 07:41:48 | 02:59:49 | 00:00:00 | |
| DL1XH-west | 2026-09-02 02:16:22 | 52.14931 | 6.84664 | 77° | 53km/h | 6265m | -4.7m/s | -20.8°C | 30.4% | 465.9hPa | 2.6V | 07:42:16 | 02:59:52 | 00:00:00 | |
| HTAHTA | 2026-09-02 02:16:22 | 52.14925 | 6.84620 | 76° | 55km/h | 6275m | -4.4m/s | -20.8°C | 26.8% | 465.3hPa | 2.6V | 00:00:00 | 00:00:00 | 00:00:00 | |
| AU51GT2 | 2026-09-02 02:16:21 | 52.14925 | 6.84620 | 76° | 55km/h | 6275m | -4.4m/s | -20.8°C | 26.8% | 465.3hPa | 2.6V | 00:00:00 | 00:00:00 | 00:00:00 | |
| BIOWL1-15 | 2026-09-02 02:16:21 | 52.14922 | 6.84598 | 76° | 55km/h | 6279m | -4.3m/s | -20.9°C | 30.7% | 465hPa | 2.5V | 07:42:16 | 02:59:49 | 00:00:00 | |
| DF5WG-10 | 2026-09-02 02:16:20 | 52.14925 | 6.84620 | 77° | 55km/h | 6275m | -4.3m/s | -20.8°C | 28.0% | 465.2hPa | 2.6V | 00:00:00 | 02:59:50 | 00:00:00 | |
| DB0UT-7 | 2026-09-02 02:16:19 | 52.14922 | 6.84598 | 77° | 55km/h | 6279m | -4.3m/s | -20.8°C | 28.2% | 465.0hPa | 2.6V | 00:00:00 | 00:00:00 | 00:00:00 | |
| GOEST3-10 | 2026-09-02 02:16:17 | 52.14916 | 6.84554 | 78° | 55km/h | 6289m | -5.0m/s | -20.8°C | 27.0% | 464.4hPa | 2.6V | 00:00:00 | 00:00:00 | 00:00:00 | |
| DD1CC1-15 | 2026-09-02 02:16:15 | 52.14912 | 6.84532 | 77° | 57km/h | 6294m | -4.5m/s | -20.9°C | 25.6% | 464.1hPa | 2.6V | 07:42:00 | 00:00:00 | 00:00:00 | |
| DM0DOS-11 | 2026-09-02 02:16:14 | 52.14891 | 6.84377 | 76° | 55km/h | 6326m | -5.1m/s | -21.1°C | 32.1% | 462.1hPa | 2.6V | 07:41:58 | 02:59:39 | 00:00:00 | |
| DL1XH-west | 2026-09-02 02:16:12 | 52.14900 | 6.84443 | 77° | 55km/h | 6311m | -4.5m/s | -21°C | 33.3% | 462.9hPa | 2.5V | 07:42:16 | 02:59:42 | 00:00:00 | |
| BIOWL1-15 | 2026-09-02 02:16:08 | 52.14888 | 6.84355 | 78° | 55km/h | 6331m | -4.9m/s | -21.1°C | 34.1% | 461.8hPa | 2.6V | 07:42:16 | 02:59:38 | 00:00:00 | |
| GOEST3-10 | 2026-09-02 02:16:07 | 52.14885 | 6.84333 | 77° | 55km/h | 6335m | -4.3m/s | -21.0°C | 30.7% | 461.4hPa | 2.5V | 00:00:00 | 00:00:00 | 00:00:00 | |
| DO2KSM | 2026-09-02 02:16:05 | 52.14882 | 6.84311 | 80° | 53km/h | 6340m | -4.8m/s | -21.1°C | 28.6% | 461.2hPa | 2.5V | 07:42:00 | 00:00:00 | 00:00:00 | |
| DM0DOS-11 | 2026-09-02 02:16:04 | 52.14862 | 6.84159 | 78° | 55km/h | 6372m | -4.6m/s | -21.3°C | 34.8% | 459.2hPa | 2.5V | 07:42:08 | 02:59:29 | 00:00:00 | |
| DL1XH-west | 2026-09-02 02:16:01 | 52.14868 | 6.84203 | 78° | 55km/h | 6363m | -4.9m/s | -21.3°C | 34.2% | 459.7hPa | 2.5V | 07:42:16 | 02:59:31 | 00:00:00 | |
| BIOWL1-15 | 2026-09-02 02:15:57 | 52.14856 | 6.84116 | 76° | 55km/h | 6381m | -4.5m/s | -21.4°C | 38.3% | 458.6hPa | 2.6V | 07:42:16 | 02:59:27 | 00:00:00 | |
| DO1YAY-16 | 2026-09-02 02:15:56 | 52.14850 | 6.84073 | 76° | 53km/h | 6390m | -4.5m/s | -21.4°C | 34.5% | 458.1hPa | 2.5V | 00:00:00 | 00:00:00 | 00:00:00 | |
| DD1CC1-15 | 2026-09-02 02:15:55 | 52.14853 | 6.84094 | 79° | 55km/h | 6386m | -4.9m/s | -21.4°C | 34.5% | 458.3hPa | 2.5V | 07:42:00 | 00:00:00 | 00:00:00 | |
| DM0DOS-11 | 2026-09-02 02:15:54 | 52.14832 | 6.83944 | 76° | 55km/h | 6417m | -4.4m/s | -21.6°C | 34.9% | 456.4hPa | 2.5V | 07:42:18 | 02:59:19 | 00:00:00 | |
| DL1XH-west | 2026-09-02 02:15:51 | 52.14838 | 6.83987 | 77° | 55km/h | 6408m | -4.2m/s | -21.5°C | 36.8% | 457hPa | 2.6V | 07:42:16 | 02:59:21 | 00:00:00 | |
| BIOWL1-15 | 2026-09-02 02:15:47 | 52.14825 | 6.83901 | 77° | 55km/h | 6426m | -4.5m/s | -21.6°C | 37.9% | 455.9hPa | 2.5V | 07:43:07 | 02:59:17 | 00:00:00 | |
| DO2KSM | 2026-09-02 02:15:45 | 52.14822 | 6.83880 | 76° | 53km/h | 6430m | -4.7m/s | -21.7°C | 34.1% | 455.6hPa | 2.6V | 07:43:00 | 00:00:00 | 00:00:00 | |
| DM0DOS-11 | 2026-09-02 02:15:44 | 52.14800 | 6.83732 | 76° | 53km/h | 6461m | -5m/s | -21.9°C | 41.7% | 453.6hPa | 2.6V | 07:42:28 | 02:59:09 | 00:00:00 | |
| DL1XH-west | 2026-09-02 02:15:41 | 52.14806 | 6.83774 | 77° | 53km/h | 6453m | -4.8m/s | -21.8°C | 43.3% | 454.1hPa | 2.5V | 07:43:07 | 02:59:11 | 00:00:00 | |
| BIOWL1-15 | 2026-09-02 02:15:36 | 52.14791 | 6.83669 | 75° | 53km/h | 6475m | -4.4m/s | -22°C | 48% | 452.8hPa | 2.5V | 07:43:07 | 02:59:06 | 00:00:00 | |
| DM0DOS-11 | 2026-09-02 02:15:34 | 52.14767 | 6.83522 | 75° | 53km/h | 6507m | -4.1m/s | -22.3°C | 44.4% | 450.9hPa | 2.5V | 07:42:38 | 02:58:59 | 00:00:00 | |
| DL1XH-west | 2026-09-02 02:15:30 | 52.14770 | 6.83543 | 75° | 53km/h | 6503m | -5m/s | -22.2°C | 46.9% | 451.2hPa | 2.5V | 07:43:07 | 02:59:00 | 00:00:00 | |
| BIOWL1-15 | 2026-09-02 02:15:26 | 52.14757 | 6.83458 | 76° | 53km/h | 6521m | -4.8m/s | -22.4°C | 46.6% | 450.2hPa | 2.6V | 07:43:07 | 02:58:56 | 00:00:00 | |
| DL1XH-west | 2026-09-02 02:15:19 | 52.14733 | 6.83311 | 76° | 53km/h | 6552m | -4.8m/s | -22.7°C | 47.1% | 448.2hPa | 2.5V | 07:43:07 | 02:58:49 | 00:00:00 | |
| BIOWL1-15 | 2026-09-02 02:15:15 | 52.14720 | 6.83227 | 74° | 53km/h | 6569m | -4.1m/s | -22.8°C | 51% | 447.1hPa | 2.6V | 07:43:07 | 02:58:45 | 00:00:00 | |
| DM0DOS-11 | 2026-09-02 02:15:15 | 52.14697 | 6.83098 | 72° | 55km/h | 6595m | -4.9m/s | -23°C | 50.9% | 445.5hPa | 2.6V | 07:42:58 | 02:58:39 | 00:00:00 | |
| DL1XH-west | 2026-09-02 02:15:09 | 52.14697 | 6.83098 | 72° | 55km/h | 6595m | -4.9m/s | -23°C | 52.7% | 445.5hPa | 2.6V | 07:43:07 | 02:58:39 | 00:00:00 | |
| BIOWL1-15 | 2026-09-02 02:15:05 | 52.14680 | 6.83014 | 71° | 53km/h | 6614m | -4.5m/s | -23.2°C | 54.2% | 444.4hPa | 2.5V | 07:43:07 | 02:58:35 | 00:00:00 | |
| DO2JMG | 2026-09-02 02:15:03 | 52.14672 | 6.82973 | 73° | 51km/h | 6622m | -4.1m/s | -23.2°C | 54% | 443.9hPa | 2.6V | 07:43:58 | 02:58:33 | 00:00:00 | |
| DL1XH-west | 2026-09-02 02:14:58 | 52.14653 | 6.82870 | 74° | 53km/h | 6644m | -4.5m/s | -23.3°C | 48.5% | 442.6hPa | 2.6V | 07:43:58 | 02:58:28 | 00:00:00 | |
| BIOWL1-15 | 2026-09-02 02:14:54 | 52.14638 | 6.82788 | 72° | 51km/h | 6662m | -4.2m/s | -23.1°C | 37.7% | 441.5hPa | 2.5V | 07:43:58 | 02:58:24 | 00:00:00 | |
| DL1XH-west | 2026-09-02 02:14:48 | 52.14614 | 6.82668 | 71° | 51km/h | 6687m | -4m/s | -23.2°C | 27.8% | 440hPa | 2.6V | 07:43:58 | 02:58:18 | 00:00:00 | |
| HTAHTA | 2026-09-02 02:14:48 | 52.14610 | 6.82648 | 71° | 49km/h | 6691m | -4.1m/s | -23.2°C | 20.8% | 439.8hPa | 2.6V | 00:00:00 | 00:00:00 | 00:00:00 | |
| GOEST3-10 | 2026-09-02 02:14:47 | 52.14610 | 6.82648 | 72° | 49km/h | 6691m | -4.1m/s | -23.1°C | 22.0% | 439.7hPa | 2.6V | 00:00:00 | 00:00:00 | 00:00:00 | |
| DD1CC3-15 | 2026-09-02 02:14:46 | 52.14610 | 6.82648 | 73° | 49km/h | 6691m | -4.1m/s | -23.2°C | 20.8% | 439.8hPa | 2.6V | 07:43:00 | 00:00:00 | 00:00:00 | |
| DM0DOS-11 | 2026-09-02 02:14:44 | 52.14581 | 6.82497 | 72° | 47km/h | 6724m | -3.8m/s | -23.6°C | 28.5% | 437.7hPa | 2.6V | 07:43:28 | 02:58:09 | 00:00:00 | |
| DO2JMG | 2026-09-02 02:14:43 | 52.14595 | 6.82571 | 73° | 49km/h | 6708m | -3.8m/s | -23.2°C | 23.2% | 438.8hPa | 2.6V | 07:43:58 | 02:58:13 | 00:00:00 | |
| DL1XH-west | 2026-09-02 02:14:37 | 52.14574 | 6.82460 | 73° | 47km/h | 6733m | -4.2m/s | -23.8°C | 34.5% | 437.2hPa | 2.5V | 07:43:58 | 02:58:07 | 00:00:00 | |
| BIOWL1-15 | 2026-09-02 02:14:35 | 52.14559 | 6.82386 | 70° | 47km/h | 6749m | -4.3m/s | -24.1°C | 39.1% | 436.1hPa | 2.6V | 07:43:58 | 02:58:03 | 00:00:00 | |
| DM0DOS-11 | 2026-09-02 02:14:34 | 52.14543 | 6.82313 | 70° | 46km/h | 6766m | -4.4m/s | -24.1°C | 57.1% | 435.2hPa | 2.6V | 07:43:38 | 02:57:59 | 00:00:00 | |
| DO2JMG | 2026-09-02 02:14:32 | 52.14555 | 6.82368 | 71° | 47km/h | 6754m | -4.2m/s | -24.2°C | 42.6% | 435.9hPa | 2.5V | 07:43:58 | 02:58:02 | 00:00:00 | |
| DL1XH-west | 2026-09-02 02:14:26 | 52.14532 | 6.82259 | 71° | 47km/h | 6779m | -4.3m/s | -24.1°C | 63.8% | 434.5hPa | 2.5V | 07:43:58 | 02:57:56 | 00:00:00 | |
| DO9LL-15 | 2026-09-02 02:14:26 | 52.14532 | 6.82259 | 72° | 49km/h | 6779m | -4.3m/s | -24.0°C | 64.0% | 434.4hPa | 2.5V | 00:00:00 | 02:57:56 | 00:00:00 | |
| DM0DOS-11 | 2026-09-02 02:14:24 | 52.14503 | 6.82132 | 68° | 47km/h | 6809m | -4.4m/s | -24.1°C | 72.1% | 432.7hPa | 2.5V | 07:43:48 | 02:57:49 | 00:00:00 | |
| BIOWL1-15 | 2026-09-02 02:14:22 | 52.14516 | 6.82187 | 70° | 47km/h | 6796m | -4.2m/s | -24°C | 71% | 433.4hPa | 2.6V | 07:43:58 | 02:57:52 | 00:00:00 | |
| DL1XH-west | 2026-09-02 02:14:15 | 52.14486 | 6.82057 | 71° | 49km/h | 6826m | -4.3m/s | -24.2°C | 73.8% | 431.6hPa | 2.5V | 07:43:58 | 02:57:45 | 00:00:00 | |
| DM0DOS-11 | 2026-09-02 02:14:14 | 52.14462 | 6.81943 | 72° | 47km/h | 6852m | -4.2m/s | -24.4°C | 76.3% | 430.1hPa | 2.5V | 07:43:58 | 02:57:39 | 00:00:00 | |
| DO2JMG | 2026-09-02 02:14:11 | 52.14470 | 6.81981 | 72° | 47km/h | 6843m | -4.4m/s | -24.3°C | 74.7% | 430.7hPa | 2.5V | 07:43:58 | 02:57:41 | 00:00:00 | |
| WEDDY | 2026-09-02 02:14:11 | 52.14469 | 6.81981 | 73° | 47km/h | 6843m | -4.4m/s | -24.3°C | 73.2% | 430.7hPa | 2.5V | 07:43:00 | 00:00:00 | 00:00:00 | |
| DH3RM | 2026-09-02 02:14:10 | 52.14469 | 6.81981 | 73° | 47km/h | 6843m | -4.4m/s | -24.3°C | 73.2% | 430.7hPa | 2.5V | 00:00:00 | 00:00:00 | 00:00:00 | |
| GOEST3-10 | 2026-09-02 02:14:07 | 52.14454 | 6.81905 | 73° | 49km/h | 6860m | -4.3m/s | -24.3°C | 77.4% | 429.6hPa | 2.5V | 00:00:00 | 00:00:00 | 00:00:00 | |
| DJ2DS-15 | 2026-09-02 02:14:06 | 52.14450 | 6.81886 | 70° | 47km/h | 6865m | -4.1m/s | -24.4°C | 75.5% | 429.4hPa | 2.5V | 00:00:00 | 00:00:00 | 00:00:00 | |
| DM0DOS-11 | 2026-09-02 02:14:04 | 52.14422 | 6.81751 | 70° | 51km/h | 6895m | -4.4m/s | -24.4°C | 90% | 427.6hPa | 2.5V | 07:44:08 | 02:57:29 | 00:00:00 | |
| DL1XH-west | 2026-09-02 02:14:04 | 52.14442 | 6.81848 | 71° | 49km/h | 6874m | -4.3m/s | -24.5°C | 78.7% | 428.6hPa | 2.5V | 07:44:49 | 02:57:34 | 00:00:00 | |
| BIOWL1-15 | 2026-09-02 02:14:01 | 52.14430 | 6.81790 | 72° | 49km/h | 6887m | -4.5m/s | -24.3°C | 88.6% | 428.1hPa | 2.5V | 07:44:49 | 02:57:31 | 00:00:00 | |
| DL1XH-west | 2026-09-02 02:13:54 | 52.14400 | 6.81650 | 72° | 53km/h | 6917m | -4.1m/s | -24.6°C | 84.9% | 426.3hPa | 2.5V | 07:44:49 | 02:57:24 | 00:00:00 | |
| BIOWL1-15 | 2026-09-02 02:13:50 | 52.14383 | 6.81567 | 72° | 53km/h | 6935m | -4.6m/s | -24.7°C | 86.7% | 425.2hPa | 2.5V | 07:44:49 | 02:57:20 | 00:00:00 | |
| DL1XH-west | 2026-09-02 02:13:44 | 52.14356 | 6.81440 | 71° | 55km/h | 6962m | -4.6m/s | -24.9°C | 90% | 423.7hPa | 2.5V | 07:44:49 | 02:57:14 | 00:00:00 | |
| BIOWL1-15 | 2026-09-02 02:13:39 | 52.14333 | 6.81335 | 71° | 55km/h | 6984m | -4.4m/s | -25°C | 91.1% | 422.4hPa | 2.5V | 07:44:49 | 02:57:09 | 00:00:00 | |
| DF5WG-10 | 2026-09-02 02:13:39 | 52.14333 | 6.81334 | 72° | 57km/h | 6984m | -4.3m/s | -25.0°C | 92.7% | 422.3hPa | 2.5V | 00:00:00 | 02:57:09 | 00:00:00 | |
| DO3DL | 2026-09-02 02:13:38 | 52.14333 | 6.81334 | 72° | 55km/h | 6984m | -4.4m/s | -25.0°C | 89.8% | 422.4hPa | 2.5V | 07:44:00 | 00:00:00 | 00:00:00 | |
| GOEST3-10 | 2026-09-02 02:13:37 | 52.14325 | 6.81292 | 72° | 57km/h | 6993m | -4.8m/s | -25.1°C | 92.1% | 421.8hPa | 2.5V | 00:00:00 | 00:00:00 | 00:00:00 | |
| DD1CC9-15 | 2026-09-02 02:13:36 | 52.14325 | 6.81292 | 72° | 57km/h | 6993m | -4.8m/s | -25.1°C | 89.2% | 421.9hPa | 2.5V | 00:00:00 | 00:00:00 | 00:00:00 | |
| DM0DOS-11 | 2026-09-02 02:13:34 | 52.14288 | 6.81111 | 71° | 60km/h | 7030m | -5m/s | -25.4°C | 91.8% | 419.7hPa | 2.5V | 07:44:38 | 02:56:59 | 00:00:00 | |
| DL1XH-west | 2026-09-02 02:13:33 | 52.14307 | 6.81203 | 73° | 57km/h | 7012m | -4.1m/s | -25.3°C | 91.1% | 420.8hPa | 2.5V | 07:44:49 | 02:57:03 | 00:00:00 | |
| BIOWL1-15 | 2026-09-02 02:13:28 | 52.14283 | 6.81088 | 72° | 60km/h | 7035m | -5m/s | -25.5°C | 89.6% | 419.4hPa | 2.5V | 07:44:49 | 02:56:58 | 00:00:00 | |
| GOEST3-10 | 2026-09-02 02:13:27 | 52.14278 | 6.81064 | 72° | 60km/h | 7040m | -4.3m/s | -25.5°C | 91.0% | 419.1hPa | 2.5V | 00:00:00 | 00:00:00 | 00:00:00 | |
| DO9LL-15 | 2026-09-02 02:13:26 | 52.14273 | 6.81040 | 72° | 64km/h | 7044m | -4.8m/s | -25.5°C | 91.3% | 418.9hPa | 2.5V | 00:00:00 | 02:56:56 | 00:00:00 | |
| WPPR-10 | 2026-09-02 02:13:25 | 52.14269 | 6.81017 | 72° | 60km/h | 7049m | -5.1m/s | -25.6°C | 88.7% | 418.6hPa | 2.5V | 00:00:00 | 00:00:00 | 00:00:00 | |
| DM0DOS-11 | 2026-09-02 02:13:24 | 52.14241 | 6.80873 | 72° | 60km/h | 7078m | -4.9m/s | -25.7°C | 93.9% | 417hPa | 2.5V | 07:44:48 | 02:56:49 | 00:00:00 | |
| DL1XH-west | 2026-09-02 02:13:23 | 52.14260 | 6.80969 | 74° | 60km/h | 7059m | -4.5m/s | -25.6°C | 90.9% | 418.1hPa | 2.5V | 07:44:49 | 02:56:53 | 00:00:00 | |
| DO2JMG | 2026-09-02 02:13:21 | 52.14251 | 6.80921 | 73° | 60km/h | 7069m | -4.9m/s | -25.7°C | 91.8% | 417.5hPa | 2.5V | 07:45:40 | 02:56:51 | 00:00:00 | |
| BIOWL1-15 | 2026-09-02 02:13:17 | 52.14232 | 6.80825 | 72° | 60km/h | 7088m | -5.3m/s | -25.7°C | 93.4% | 416.4hPa | 2.5V | 07:45:40 | 02:56:47 | 00:00:00 | |
| GOEST3-10 | 2026-09-02 02:13:17 | 52.14232 | 6.80825 | 72° | 62km/h | 7088m | -5.2m/s | -25.6°C | 94.4% | 416.3hPa | 2.5V | 00:00:00 | 00:00:00 | 00:00:00 | |
| BIOWL7-15 | 2026-09-02 02:13:16 | 52.14232 | 6.80825 | 73° | 60km/h | 7088m | -5.3m/s | -25.7°C | 91.4% | 416.4hPa | 2.5V | 07:45:00 | 00:00:00 | 00:00:00 | |
| HTAHTA | 2026-09-02 02:13:15 | 52.14218 | 6.80753 | 73° | 60km/h | 7103m | -4.8m/s | -25.7°C | 91.9% | 415.6hPa | 2.5V | 00:00:00 | 00:00:00 | 00:00:00 | |
| DM0DOS-11 | 2026-09-02 02:13:14 | 52.14195 | 6.80626 | 73° | 64km/h | 7127m | -4.9m/s | -25.9°C | 96% | 414.1hPa | 2.5V | 07:44:58 | 02:56:39 | 00:00:00 | |
| DL1XH-west | 2026-09-02 02:13:12 | 52.14209 | 6.80702 | 73° | 64km/h | 7112m | -4.8m/s | -25.8°C | 94.3% | 415hPa | 2.5V | 07:45:40 | 02:56:42 | 00:00:00 | |
| DO2JMG | 2026-09-02 02:13:10 | 52.14200 | 6.80652 | 74° | 66km/h | 7122m | -4.9m/s | -25.9°C | 94.6% | 414.4hPa | 2.5V | 07:45:40 | 02:56:40 | 00:00:00 | |
| BIOWL1-15 | 2026-09-02 02:13:09 | 52.14186 | 6.80575 | 74° | 66km/h | 7136m | -4.5m/s | -26°C | 95.4% | 413.5hPa | 2.5V | 07:45:40 | 02:56:37 | 00:00:00 | |
| DF5WG-10 | 2026-09-02 02:13:09 | 52.14195 | 6.80626 | 74° | 66km/h | 7127m | -4.8m/s | -25.9°C | 96.0% | 414.1hPa | 2.5V | 00:00:00 | 02:56:39 | 00:00:00 | |
| GOEST3-10 | 2026-09-02 02:13:07 | 52.14186 | 6.80575 | 74° | 66km/h | 7136m | -4.4m/s | -25.9°C | 96.5% | 413.5hPa | 2.5V | 07:45:00 | 00:00:00 | 00:00:00 | |
| DH3RM | 2026-09-02 02:13:06 | 52.14186 | 6.80575 | 75° | 66km/h | 7136m | -4.5m/s | -26.0°C | 93.4% | 413.5hPa | 2.5V | 07:45:00 | 00:00:00 | 00:00:00 | |
| DC6BW-12 | 2026-09-02 02:13:05 | 52.14181 | 6.80549 | 74° | 64km/h | 7141m | -4.6m/s | -26.0°C | 93.7% | 413.3hPa | 2.5V | 07:45:00 | 00:00:00 | 00:00:00 | |
| DM0DOS-11 | 2026-09-02 02:13:04 | 52.14150 | 6.80370 | 75° | 66km/h | 7175m | -5m/s | -26.4°C | 94% | 411.4hPa | 2.5V | 07:45:08 | 02:56:29 | 00:00:00 | |
| DL1XH-west | 2026-09-02 02:13:01 | 52.14159 | 6.80421 | 74° | 66km/h | 7165m | -5.2m/s | -26.3°C | 95.7% | 411.9hPa | 2.5V | 07:45:40 | 02:56:31 | 00:00:00 | |
| DO2JMG | 2026-09-02 02:13:00 | 52.14154 | 6.80396 | 74° | 66km/h | 7170m | -5.2m/s | -26.3°C | 95% | 0hPa | 2.5V | 07:45:40 | 02:56:30 | 00:00:00 | |
| BIOWL1-15 | 2026-09-02 02:12:56 | 52.14137 | 6.80290 | 76° | 68km/h | 7191m | -5.4m/s | -26.5°C | 92% | 410.4hPa | 2.5V | 07:45:40 | 02:56:26 | 00:00:00 | |
| DO9LL-15 | 2026-09-02 02:12:56 | 52.14137 | 6.80290 | 76° | 68km/h | 7191m | -5.4m/s | -26.4°C | 93.6% | 410.4hPa | 2.5V | 00:00:00 | 02:56:26 | 00:00:00 | |
| DL1LOL-11 | 2026-09-02 02:12:55 | 52.14137 | 6.80290 | 77° | 68km/h | 7191m | -5.4m/s | -26.5°C | 90.5% | 410.4hPa | 2.5V | 00:00:00 | 00:00:00 | 00:00:00 | |
| DM0DOS-11 | 2026-09-02 02:12:54 | 52.14107 | 6.80100 | 74° | 69km/h | 7225m | -4.6m/s | -26.6°C | 89.4% | 408.6hPa | 2.5V | 07:45:18 | 02:56:19 | 00:00:00 | |
| DL1XH-west | 2026-09-02 02:12:51 | 52.14111 | 6.80127 | 74° | 68km/h | 7220m | -4.9m/s | -26.6°C | 88.4% | 408.9hPa | 2.5V | 07:45:40 | 02:56:20 | 00:00:00 | |
| DO2JMG | 2026-09-02 02:12:50 | 52.14107 | 6.80100 | 75° | 69km/h | 7225m | -4.6m/s | -26.6°C | 88.2% | 0hPa | 2.5V | 07:45:40 | 02:56:19 | 00:00:00 | |
| BIOWL1-15 | 2026-09-02 02:12:46 | 52.14094 | 6.80020 | 76° | 66km/h | 7240m | -5.2m/s | -26.7°C | 87.6% | 407.7hPa | 2.5V | 07:45:40 | 02:56:16 | 00:00:00 | |
| BIOWL9-15 | 2026-09-02 02:12:44 | 52.14081 | 6.79942 | 74° | 64km/h | 7255m | -5.5m/s | -26.8°C | 84.7% | 406.9hPa | 2.5V | 00:00:00 | 00:00:00 | 00:00:00 | |
| AU51GT2 | 2026-09-02 02:12:43 | 52.14081 | 6.79942 | 74° | 64km/h | 7255m | -5.5m/s | -26.8°C | 84.7% | 406.9hPa | 2.5V | 00:00:00 | 00:00:00 | 00:00:00 | |
| GOEST3-10 | 2026-09-02 02:12:42 | 52.14076 | 6.79915 | 75° | 66km/h | 7260m | -4.9m/s | -26.8°C | 87.5% | 406.5hPa | 2.5V | 00:00:00 | 02:56:12 | 00:00:00 | |
| DM0DOS-11 | 2026-09-02 02:12:41 | 52.14063 | 6.79837 | 74° | 66km/h | 7275m | -5.3m/s | -26.9°C | 84.4% | 405.7hPa | 2.5V | 07:45:28 | 02:56:09 | 00:00:00 | |
| DL1XH-west | 2026-09-02 02:12:40 | 52.14067 | 6.79863 | 75° | 68km/h | 7270m | -4.8m/s | -26.9°C | 85.2% | 406hPa | 2.5V | 07:45:40 | 02:56:10 | 00:00:00 | |
| DO2JMG | 2026-09-02 02:12:39 | 52.14063 | 6.79837 | 74° | 66km/h | 7275m | -5.3m/s | -26.9°C | 84.1% | 0hPa | 2.5V | 07:45:40 | 02:56:09 | 00:00:00 | |
| BIOWL1-15 | 2026-09-02 02:12:37 | 52.14045 | 6.79733 | 76° | 64km/h | 7296m | -4.9m/s | -27°C | 81.4% | 404.6hPa | 2.5V | 07:45:40 | 02:56:05 | 00:00:00 | |
| GOEST3-10 | 2026-09-02 02:12:37 | 52.14054 | 6.79785 | 75° | 66km/h | 7286m | -5.2m/s | -26.9°C | 80.9% | 405.1hPa | 2.4V | 00:00:00 | 00:00:00 | 00:00:00 | |
| DL8DAS-14 | 2026-09-02 02:12:36 | 52.14027 | 6.79629 | 74° | 66km/h | 7316m | -5.0m/s | -27.2°C | 77.7% | 403.5hPa | 2.4V | 00:00:00 | 00:00:00 | 00:00:00 | |
| DM0DOS-11 | 2026-09-02 02:12:34 | 52.14018 | 6.79577 | 73° | 66km/h | 7327m | -5.4m/s | -27.2°C | 78.8% | 402.9hPa | 2.4V | 07:45:38 | 02:55:59 | 00:00:00 | |
| DL1XH-west | 2026-09-02 02:12:29 | 52.14018 | 6.79577 | 74° | 66km/h | 7327m | -5.4m/s | -27.2°C | 79.1% | 402.9hPa | 2.4V | 07:45:40 | 02:55:59 | 00:00:00 | |
| DO2JMG | 2026-09-02 02:12:28 | 52.14014 | 6.79550 | 74° | 68km/h | 7332m | -5.5m/s | 0°C | 0% | 0hPa | 2.5V | 07:45:40 | 02:55:58 | 00:00:00 | |
| BIOWL1-15 | 2026-09-02 02:12:24 | 52.13994 | 6.79445 | 74° | 68km/h | 7352m | -5.3m/s | -27.3°C | 74.8% | 401.4hPa | 2.5V | 07:46:31 | 02:55:54 | 00:00:00 | |
| DL1XH-west | 2026-09-02 02:12:19 | 52.13970 | 6.79314 | 73° | 66km/h | 7378m | -4.9m/s | -27.4°C | 73% | 400hPa | 2.5V | 07:46:31 | 02:55:49 | 00:00:00 | |
| DO2JMG | 2026-09-02 02:12:18 | 52.13965 | 6.79288 | 74° | 68km/h | 7383m | -5m/s | 0°C | 0% | 0hPa | 2.5V | 18:12:15 | 02:55:48 | 00:00:00 | |
| BIOWL1-15 | 2026-09-02 02:12:16 | 52.13947 | 6.79183 | 75° | 66km/h | 7404m | -5.2m/s | -27.6°C | 73.4% | 398.6hPa | 2.5V | 07:46:31 | 02:55:44 | 00:00:00 | |
| DL1XH-west | 2026-09-02 02:12:08 | 52.13920 | 6.79028 | 73° | 64km/h | 7436m | -5.7m/s | -27.9°C | 71.7% | 396.8hPa | 2.5V | 07:46:31 | 02:55:38 | 00:00:00 | |
| DF5WG-10 | 2026-09-02 02:12:07 | 52.13915 | 6.79003 | 74° | 66km/h | 7442m | -5.5m/s | -27.9°C | 69.1% | 396.4hPa | 2.5V | 07:46:00 | 02:55:37 | 00:00:00 | |
| DO3DL | 2026-09-02 02:12:06 | 52.13915 | 6.79003 | 75° | 66km/h | 7442m | -5.5m/s | -27.9°C | 66.4% | 396.4hPa | 2.5V | 07:46:00 | 00:00:00 | 00:00:00 | |
| DL8DAS-14 | 2026-09-02 02:12:05 | 52.13843 | 6.78559 | 74° | 66km/h | 7534m | -5.5m/s | -28.7°C | 64.4% | 391.4hPa | 2.5V | 00:00:00 | 00:00:00 | 00:00:00 | |
| DM0DOS-11 | 2026-09-02 02:12:04 | 52.13881 | 6.78793 | 75° | 68km/h | 7484m | -5.2m/s | -28.3°C | 69.1% | 394.1hPa | 2.5V | 07:46:08 | 02:55:29 | 00:00:00 | |
| BIOWL1-15 | 2026-09-02 02:12:03 | 52.13897 | 6.78898 | 75° | 66km/h | 7463m | -5.4m/s | -28.1°C | 71% | 395.3hPa | 2.5V | 07:46:31 | 02:55:33 | 00:00:00 | |
| DL1XH-west | 2026-09-02 02:11:58 | 52.13877 | 6.78766 | 76° | 66km/h | 7490m | -5.5m/s | -28.3°C | 70.2% | 393.8hPa | 2.4V | 07:46:31 | 02:55:28 | 00:00:00 | |
| DJ2KF-10 | 2026-09-02 02:11:58 | 52.13877 | 6.78766 | 77° | 66km/h | 7490m | -5.4m/s | -28.3°C | 68.3% | 393.8hPa | 2.4V | 00:00:00 | 02:55:28 | 00:00:00 | |
| GOEST3-10 | 2026-09-02 02:11:57 | 52.13873 | 6.78740 | 77° | 66km/h | 7495m | -5.4m/s | -28.3°C | 68.3% | 393.5hPa | 2.4V | 00:00:00 | 00:00:00 | 00:00:00 | |
| DO9LL-15 | 2026-09-02 02:11:56 | 52.13869 | 6.78714 | 76° | 66km/h | 7501m | -5.6m/s | -28.4°C | 68.4% | 393.2hPa | 2.4V | 07:46:00 | 02:55:26 | 00:00:00 | |
| DH3RM | 2026-09-02 02:11:54 | 52.13865 | 6.78688 | 77° | 66km/h | 7507m | -5.5m/s | -28.5°C | 65.7% | 392.9hPa | 2.5V | 00:00:00 | 00:00:00 | 00:00:00 | |
| DM0DOS-11 | 2026-09-02 02:11:53 | 52.13839 | 6.78533 | 75° | 64km/h | 7539m | -5.7m/s | -28.7°C | 66.8% | 391.1hPa | 2.5V | 07:46:18 | 02:55:19 | 00:00:00 | |
| BIOWL1-15 | 2026-09-02 02:11:53 | 52.13856 | 6.78636 | 75° | 66km/h | 7518m | -5.2m/s | -28.6°C | 70.4% | 392.3hPa | 2.4V | 07:46:31 | 02:55:23 | 00:00:00 | |
| DL1XH-west | 2026-09-02 02:11:47 | 52.13831 | 6.78481 | 76° | 64km/h | 7551m | -5.6m/s | -28.8°C | 68% | 390.5hPa | 2.4V | 07:46:31 | 02:55:17 | 00:00:00 | |
| DO1YAY-16 | 2026-09-02 02:11:47 | 52.13827 | 6.78455 | 76° | 64km/h | 7556m | -5.6m/s | -28.8°C | 62.3% | 390.2hPa | 2.5V | 00:00:00 | 00:00:00 | 00:00:00 | |
| BIOWL1-15 | 2026-09-02 02:11:44 | 52.13811 | 6.78351 | 78° | 66km/h | 7578m | -5.3m/s | -29°C | 66.3% | 389hPa | 2.5V | 07:46:31 | 02:55:12 | 00:00:00 | |
| DC6BW-12 | 2026-09-02 02:11:43 | 52.13819 | 6.78403 | 77° | 66km/h | 7568m | -5.2m/s | -28.9°C | 61.1% | 389.7hPa | 2.4V | 07:46:00 | 00:00:00 | 00:00:00 | |
| BIOWL9-15 | 2026-09-02 02:11:42 | 52.13807 | 6.78325 | 75° | 66km/h | 7583m | -5.3m/s | -29.1°C | 60.8% | 388.7hPa | 2.4V | 00:00:00 | 00:00:00 | 00:00:00 | |
| AU51GT2 | 2026-09-02 02:11:41 | 52.13807 | 6.78325 | 75° | 66km/h | 7583m | -5.3m/s | -29.1°C | 60.8% | 388.7hPa | 2.4V | 00:00:00 | 00:00:00 | 00:00:00 | |
| DO3DL | 2026-09-02 02:11:40 | 52.13807 | 6.78325 | 77° | 66km/h | 7583m | -5.3m/s | -29.1°C | 60.8% | 388.7hPa | 2.4V | 07:46:00 | 00:00:00 | 00:00:00 | |
| DM0DOS-11 | 2026-09-02 02:11:39 | 52.13800 | 6.78271 | 77° | 66km/h | 7594m | -5.3m/s | -29.1°C | 63.2% | 388.1hPa | 2.4V | 07:46:28 | 02:55:09 | 00:00:00 | |
| DL1XH-west | 2026-09-02 02:11:36 | 52.13788 | 6.78191 | 78° | 66km/h | 7610m | -5.5m/s | -29.3°C | 65.6% | 387.3hPa | 2.5V | 07:46:31 | 02:55:06 | 00:00:00 | |
| DM0DOS-11 | 2026-09-02 02:11:34 | 52.13763 | 6.78005 | 77° | 68km/h | 7649m | -5.8m/s | -29.6°C | 64.7% | 385.1hPa | 2.5V | 07:46:38 | 02:54:59 | 00:00:00 | |
| BIOWL1-15 | 2026-09-02 02:11:33 | 52.13770 | 6.78058 | 77° | 66km/h | 7638m | -5.5m/s | -29.5°C | 67.6% | 385.7hPa | 2.4V | 07:47:22 | 02:55:01 | 00:00:00 | |
| DL1XH-west | 2026-09-02 02:11:25 | 52.13748 | 6.77897 | 77° | 69km/h | 7672m | -5.6m/s | -29.8°C | 64.1% | 383.9hPa | 2.4V | 07:47:22 | 02:54:55 | 00:00:00 | |
| BIOWL1-15 | 2026-09-02 02:11:22 | 52.13729 | 6.77763 | 78° | 66km/h | 7700m | -5.6m/s | -30°C | 64.8% | 382.4hPa | 2.5V | 07:47:22 | 02:54:50 | 00:00:00 | |
| DL4BBY-15 | 2026-09-02 02:11:22 | 52.13737 | 6.77817 | 78° | 69km/h | 7689m | -5.6m/s | -30.4°C | 0% | 0hPa | 2.4V | 00:00:00 | 00:00:00 | 00:00:00 | |
| DM0DOS-11 | 2026-09-02 02:11:21 | 52.13726 | 6.77736 | 75° | 66km/h | 7705m | -5.6m/s | -30.1°C | 63% | 382hPa | 2.4V | 07:46:48 | 02:54:49 | 00:00:00 | |
| DL1XH-west | 2026-09-02 02:11:15 | 52.13710 | 6.77630 | 77° | 68km/h | 7729m | -5.8m/s | -30.2°C | 66.8% | 380.9hPa | 2.5V | 07:47:22 | 02:54:45 | 00:00:00 | |
| BIOWL1-15 | 2026-09-02 02:11:09 | 52.13687 | 6.77467 | 77° | 69km/h | 7763m | -5.3m/s | -30.4°C | 68.2% | 379hPa | 2.4V | 07:47:22 | 02:54:39 | 00:00:00 | |
| DL1XH-west | 2026-09-02 02:11:04 | 52.13669 | 6.77330 | 78° | 69km/h | 7792m | -6m/s | -30.7°C | 63.9% | 377.5hPa | 2.4V | 07:47:22 | 02:54:34 | 00:00:00 | |
| BIOWL1-15 | 2026-09-02 02:10:59 | 52.13651 | 6.77191 | 78° | 71km/h | 7821m | -6.1m/s | -31°C | 62.7% | 375.9hPa | 2.5V | 07:47:22 | 02:54:29 | 00:00:00 | |
| DL1XH-west | 2026-09-02 02:10:53 | 52.13625 | 6.77018 | 76° | 75km/h | 7857m | -5.9m/s | -31.3°C | 65.4% | 374.1hPa | 2.4V | 07:47:22 | 02:54:23 | 00:00:00 | |
| BIOWL1-15 | 2026-09-02 02:10:48 | 52.13602 | 6.76871 | 76° | 75km/h | 7885m | -5.6m/s | -31.5°C | 68.3% | 372.4hPa | 2.5V | 07:47:22 | 02:54:18 | 00:00:00 | |
| DL3AQ-11 | 2026-09-02 02:10:48 | 52.13593 | 6.76811 | 76° | 73km/h | 7897m | -5.9m/s | -31.5°C | 64.4% | 371.8hPa | 2.4V | 00:00:00 | 00:00:00 | 00:00:00 | |
| GOEST3-10 | 2026-09-02 02:10:47 | 52.13597 | 6.76841 | 77° | 75km/h | 7891m | -5.6m/s | -31.5°C | 67.5% | 372.2hPa | 2.4V | 00:00:00 | 00:00:00 | 00:00:00 | |
| WEDDY | 2026-09-02 02:10:46 | 52.13597 | 6.76841 | 77° | 75km/h | 7891m | -5.7m/s | -31.5°C | 64.4% | 372.2hPa | 2.4V | 07:47:00 | 00:00:00 | 00:00:00 | |
| DM0DOS-11 | 2026-09-02 02:10:45 | 52.13560 | 6.76601 | 75° | 75km/h | 7938m | -6m/s | -31.5°C | 67.6% | 369.7hPa | 2.4V | 07:47:28 | 02:54:09 | 00:00:00 | |
| DO1YAY-16 | 2026-09-02 02:10:45 | 52.13588 | 6.76781 | 76° | 75km/h | 7903m | -6.3m/s | -31.6°C | 64.2% | 371.6hPa | 2.5V | 00:00:00 | 00:00:00 | 00:00:00 | |
| DL1XH-west | 2026-09-02 02:10:43 | 52.13579 | 6.76721 | 76° | 75km/h | 7915m | -5.8m/s | -31.6°C | 67.7% | 371hPa | 2.5V | 07:48:13 | 02:54:13 | 00:00:00 | |
| BIOWL1-15 | 2026-09-02 02:10:37 | 52.13551 | 6.76542 | 76° | 75km/h | 7949m | -6m/s | -31.6°C | 69.4% | 369.2hPa | 2.5V | 07:48:13 | 02:54:07 | 00:00:00 | |
| DL1XH-west | 2026-09-02 02:10:33 | 52.13532 | 6.76423 | 75° | 75km/h | 7972m | -5.8m/s | -31.8°C | 70.1% | 367.9hPa | 2.4V | 07:48:13 | 02:54:03 | 00:00:00 | |
| GOEST3-10 | 2026-09-02 02:10:32 | 52.13527 | 6.76393 | 76° | 77km/h | 7978m | -5.6m/s | -31.8°C | 68.6% | 367.6hPa | 2.4V | 00:00:00 | 02:54:02 | 00:00:00 | |
| DJ3KS | 2026-09-02 02:10:31 | 52.13527 | 6.76393 | 76° | 77km/h | 7978m | -5.6m/s | -31.8°C | 65.5% | 367.6hPa | 2.4V | 00:00:00 | 00:00:00 | 00:00:00 | |
| DM0DOS-11 | 2026-09-02 02:10:30 | 52.13512 | 6.76302 | 75° | 75km/h | 7995m | -6.2m/s | -32°C | 68.7% | 366.7hPa | 2.4V | 07:47:38 | 02:53:59 | 00:00:00 | |
| BIOWL1-15 | 2026-09-02 02:10:26 | 52.13497 | 6.76213 | 74° | 75km/h | 8013m | -5.9m/s | -32.1°C | 70.7% | 365.8hPa | 2.4V | 07:48:13 | 02:53:56 | 00:00:00 | |
| DF5WG-10 | 2026-09-02 02:10:26 | 52.13497 | 6.76213 | 75° | 75km/h | 8013m | -5.9m/s | -32.1°C | 69.1% | 365.8hPa | 2.4V | 00:00:00 | 02:53:56 | 00:00:00 | |
| DO3DL | 2026-09-02 02:10:25 | 52.13497 | 6.76213 | 75° | 75km/h | 8013m | -5.9m/s | -32.1°C | 65.9% | 365.8hPa | 2.5V | 07:48:00 | 00:00:00 | 00:00:00 | |
| DM0DOS-11 | 2026-09-02 02:10:24 | 52.13462 | 6.76004 | 75° | 75km/h | 8054m | -6.1m/s | -32.4°C | 70.4% | 363.6hPa | 2.5V | 07:47:48 | 02:53:49 | 00:00:00 | |
| DL1XH-west | 2026-09-02 02:10:22 | 52.13477 | 6.76094 | 75° | 77km/h | 8036m | -5.6m/s | -32.3°C | 71% | 364.6hPa | 2.4V | 07:48:13 | 02:53:52 | 00:00:00 | |
| BIOWL1-15 | 2026-09-02 02:10:18 | 52.13446 | 6.75913 | 74° | 77km/h | 8072m | -5.8m/s | -32.5°C | 72.4% | 362.7hPa | 2.4V | 07:48:13 | 02:53:46 | 00:00:00 | |
| DB0UT-7 | 2026-09-02 02:10:18 | 52.13457 | 6.75973 | 74° | 75km/h | 8060m | -6.1m/s | -32.4°C | 70.6% | 363.3hPa | 2.4V | 00:00:00 | 00:00:00 | 00:00:00 | |
| GOEST3-10 | 2026-09-02 02:10:17 | 52.13451 | 6.75943 | 74° | 77km/h | 8066m | -5.9m/s | -32.4°C | 70.8% | 363.0hPa | 2.4V | 00:00:00 | 00:00:00 | 00:00:00 | |
| DL1XH-15 | 2026-09-02 02:10:16 | 52.13419 | 6.75760 | 75° | 75km/h | 8101m | -6.1m/s | -32.6°C | 72% | 361.2hPa | 2.4V | 07:47:56 | 02:53:41 | 00:00:00 | |
| DF5WG-10 | 2026-09-02 02:10:16 | 52.13446 | 6.75913 | 75° | 77km/h | 8072m | -5.7m/s | -32.4°C | 71.1% | 362.7hPa | 2.5V | 07:47:00 | 02:53:46 | 00:00:00 | |
| DD1CC9-15 | 2026-09-02 02:10:14 | 52.13440 | 6.75882 | 75° | 77km/h | 8078m | -6.0m/s | -32.5°C | 68.1% | 362.4hPa | 2.5V | 07:48:00 | 00:00:00 | 00:00:00 | |
| DL1LOL-11 | 2026-09-02 02:10:13 | 52.13435 | 6.75852 | 76° | 78km/h | 8083m | -5.7m/s | -32.6°C | 68.5% | 362.1hPa | 2.5V | 07:48:00 | 00:00:00 | 00:00:00 | |
| DM0DOS-11 | 2026-09-02 02:10:12 | 52.13409 | 6.75700 | 75° | 75km/h | 8112m | -6m/s | -32.7°C | 72.1% | 360.6hPa | 2.5V | 07:47:58 | 02:53:39 | 00:00:00 | |
| DL1XH-west | 2026-09-02 02:10:12 | 52.13424 | 6.75790 | 75° | 77km/h | 8095m | -6.2m/s | -32.6°C | 73.3% | 361.5hPa | 2.4V | 07:48:13 | 02:53:42 | 00:00:00 | |
| BIOWL1-15 | 2026-09-02 02:10:07 | 52.13390 | 6.75581 | 76° | 75km/h | 8136m | -6.3m/s | -32.9°C | 74.4% | 359.4hPa | 2.4V | 07:48:13 | 02:53:35 | 00:00:00 | |
| GOEST3-10 | 2026-09-02 02:10:07 | 52.13400 | 6.75640 | 77° | 75km/h | 8124m | -5.9m/s | -32.8°C | 72.3% | 360.0hPa | 2.5V | 00:00:00 | 00:00:00 | 00:00:00 | |
| DF5WG-10 | 2026-09-02 02:10:06 | 52.13395 | 6.75610 | 76° | 75km/h | 8130m | -6.1m/s | -32.8°C | 72.6% | 359.6hPa | 2.5V | 00:00:00 | 02:53:36 | 00:00:00 | |
| DO3DL | 2026-09-02 02:10:05 | 52.13395 | 6.75610 | 77° | 75km/h | 8130m | -6.1m/s | -32.9°C | 69.2% | 359.7hPa | 2.5V | 07:48:00 | 00:00:00 | 00:00:00 | |
| DM0DOS-11 | 2026-09-02 02:10:04 | 52.13360 | 6.75401 | 75° | 77km/h | 8174m | -6.2m/s | -33.2°C | 74% | 357.5hPa | 2.5V | 07:48:08 | 02:53:29 | 00:00:00 | |
| DL1XH-west | 2026-09-02 02:10:01 | 52.13370 | 6.75461 | 75° | 75km/h | 8161m | -6.5m/s | -33.1°C | 75.3% | 358.1hPa | 2.4V | 07:48:13 | 02:53:31 | 00:00:00 | |
| BIOWL1-15 | 2026-09-02 02:09:56 | 52.13335 | 6.75251 | 76° | 73km/h | 8206m | -5.9m/s | -33.4°C | 76.2% | 356hPa | 2.5V | 07:48:13 | 02:53:24 | 00:00:00 | |
| DL1XH-west | 2026-09-02 02:09:51 | 52.13322 | 6.75163 | 76° | 73km/h | 8224m | -6m/s | -33.5°C | 76.4% | 355.1hPa | 2.4V | 07:49:04 | 02:53:21 | 00:00:00 | |
| DM0DOS-11 | 2026-09-02 02:09:51 | 52.13313 | 6.75104 | 76° | 73km/h | 8236m | -6.1m/s | -33.6°C | 75.3% | 354.5hPa | 2.5V | 07:48:18 | 02:53:19 | 00:00:00 | |
| BIOWL1-15 | 2026-09-02 02:09:48 | 52.13290 | 6.74955 | 76° | 75km/h | 8267m | -6.3m/s | -33.9°C | 77.2% | 352.9hPa | 2.5V | 07:49:04 | 02:53:14 | 00:00:00 | |
| WPPR-10 | 2026-09-02 02:09:48 | 52.13304 | 6.75045 | 76° | 73km/h | 8248m | -6.3m/s | -33.8°C | 72.0% | 353.9hPa | 2.4V | 00:00:00 | 00:00:00 | 00:00:00 | |
| DL1XH-west | 2026-09-02 02:09:40 | 52.13271 | 6.74835 | 75° | 75km/h | 8292m | -6.1m/s | -34.1°C | 78.3% | 351.7hPa | 2.4V | 07:49:04 | 02:53:10 | 00:00:00 | |
| DL1XH-15 | 2026-09-02 02:09:40 | 52.13271 | 6.74835 | 75° | 75km/h | 8292m | -6.1m/s | -34.1°C | 77.1% | 351.7hPa | 2.4V | 07:48:27 | 02:53:10 | 00:00:00 | |
| BIOWL1-15 | 2026-09-02 02:09:34 | 52.13244 | 6.74659 | 75° | 73km/h | 8329m | -6.2m/s | -34.4°C | 79.8% | 349.9hPa | 2.5V | 07:49:04 | 02:53:04 | 00:00:00 | |
| DM0DOS-11 | 2026-09-02 02:09:33 | 52.13221 | 6.74514 | 75° | 73km/h | 8359m | -6m/s | -34.7°C | 80.1% | 348.3hPa | 2.5V | 07:48:38 | 02:52:59 | 00:00:00 | |
| DL1XH-west | 2026-09-02 02:09:30 | 52.13225 | 6.74543 | 75° | 73km/h | 8353m | -6m/s | -34.6°C | 80.9% | 348.6hPa | 2.4V | 07:49:04 | 02:53:00 | 00:00:00 | |
| DO2JMG | 2026-09-02 02:09:25 | 52.13203 | 6.74398 | 77° | 73km/h | 8384m | -6.1m/s | -34.9°C | 82.3% | 347.1hPa | 2.4V | 07:49:04 | 02:52:55 | 00:00:00 | |
| BIOWL1-15 | 2026-09-02 02:09:23 | 52.13195 | 6.74339 | 77° | 73km/h | 8397m | -6.4m/s | -35°C | 82.9% | 346.4hPa | 2.5V | 07:49:04 | 02:52:53 | 00:00:00 | |
| GOEST3-10 | 2026-09-02 02:09:22 | 52.13191 | 6.74309 | 78° | 71km/h | 8403m | -6.5m/s | -35.0°C | 82.3% | 346.1hPa | 2.5V | 00:00:00 | 02:52:52 | 00:00:00 | |
| DM0DOS-11 | 2026-09-02 02:09:21 | 52.13180 | 6.74224 | 77° | 71km/h | 8422m | -6.3m/s | -35.2°C | 83.5% | 345.2hPa | 2.5V | 07:48:48 | 02:52:49 | 00:00:00 | |
| DL1XH-west | 2026-09-02 02:09:19 | 52.13180 | 6.74224 | 77° | 71km/h | 8422m | -6.3m/s | -35.2°C | 84% | 345.2hPa | 2.5V | 07:49:04 | 02:52:49 | 00:00:00 | |
| DO2JMG | 2026-09-02 02:09:14 | 52.13160 | 6.74080 | 78° | 73km/h | 8453m | -6m/s | -35.5°C | 85.6% | 343.7hPa | 2.5V | 07:49:04 | 02:52:44 | 00:00:00 | |
| BIOWL1-15 | 2026-09-02 02:09:12 | 52.13152 | 6.74021 | 78° | 75km/h | 8465m | -5.6m/s | -35.6°C | 86.2% | 343.1hPa | 2.4V | 07:49:04 | 02:52:42 | 00:00:00 | |
| DL1XH-west | 2026-09-02 02:09:08 | 52.13137 | 6.73902 | 78° | 75km/h | 8487m | -5.9m/s | -35.8°C | 87.4% | 341.9hPa | 2.5V | 07:49:04 | 02:52:38 | 00:00:00 | |
| DO2JMG | 2026-09-02 02:09:04 | 52.13122 | 6.73784 | 80° | 71km/h | 8512m | -6.1m/s | -36°C | 88.3% | 340.7hPa | 2.5V | 07:49:04 | 02:52:34 | 00:00:00 | |
| BIOWL1-15 | 2026-09-02 02:09:02 | 52.13115 | 6.73727 | 79° | 71km/h | 8523m | -6m/s | -36.1°C | 88.6% | 340.2hPa | 2.4V | 07:49:55 | 02:52:32 | 00:00:00 | |
| DL1XH-west | 2026-09-02 02:08:58 | 52.13100 | 6.73612 | 79° | 71km/h | 8547m | -5.8m/s | -36.4°C | 89.2% | 339hPa | 2.5V | 07:49:55 | 02:52:28 | 00:00:00 | |
| DO2JMG | 2026-09-02 02:08:53 | 52.13083 | 6.73467 | 80° | 71km/h | 8576m | -5.9m/s | -36.6°C | 91.2% | 337.6hPa | 2.5V | 07:49:55 | 02:52:23 | 00:00:00 | |
| BIOWL1-15 | 2026-09-02 02:08:51 | 52.13077 | 6.73410 | 80° | 69km/h | 8587m | -5.4m/s | -36.7°C | 92.2% | 337.1hPa | 2.4V | 07:49:55 | 02:52:21 | 00:00:00 | |
| DL1XH-west | 2026-09-02 02:08:47 | 52.13064 | 6.73296 | 79° | 71km/h | 8610m | -5.9m/s | -36.9°C | 93.6% | 335.9hPa | 2.5V | 07:49:55 | 02:52:17 | 00:00:00 | |
| WPPR-10 | 2026-09-02 02:08:46 | 52.13058 | 6.73239 | 78° | 69km/h | 8621m | -5.6m/s | -37.0°C | 89.9% | 335.4hPa | 2.4V | 00:00:00 | 00:00:00 | 00:00:00 | |
| DO2JMG | 2026-09-02 02:08:43 | 52.13051 | 6.73182 | 79° | 71km/h | 8632m | -5.3m/s | -37.1°C | 94.8% | 334.9hPa | 2.4V | 07:49:55 | 02:52:13 | 00:00:00 | |
| BIOWL1-15 | 2026-09-02 02:08:43 | 52.13044 | 6.73124 | 79° | 71km/h | 8643m | -5.2m/s | -37.2°C | 95% | 334.4hPa | 2.5V | 07:49:55 | 02:52:11 | 00:00:00 | |
| DJ2DS-15 | 2026-09-02 02:08:42 | 52.13044 | 6.73124 | 79° | 71km/h | 8643m | -5.2m/s | -37.2°C | 90.0% | 334.4hPa | 2.4V | 00:00:00 | 00:00:00 | 00:00:00 | |
| DM0DOS-11 | 2026-09-02 02:08:41 | 52.13037 | 6.73066 | 79° | 73km/h | 8654m | -5.3m/s | -37.3°C | 95.1% | 333.9hPa | 2.4V | 07:49:28 | 02:52:09 | 00:00:00 | |
| DL1XH-west | 2026-09-02 02:08:36 | 52.13027 | 6.72979 | 81° | 69km/h | 8670m | -5.4m/s | -37.5°C | 95.4% | 333hPa | 2.5V | 07:49:55 | 02:52:06 | 00:00:00 | |
| DO2JMG | 2026-09-02 02:08:33 | 52.13017 | 6.72893 | 80° | 71km/h | 8686m | -5.1m/s | -37.6°C | 95.2% | 332.3hPa | 2.4V | 07:49:55 | 02:52:03 | 00:00:00 | |
| BIOWL1-15 | 2026-09-02 02:08:31 | 52.13011 | 6.72835 | 81° | 73km/h | 8696m | -5.1m/s | -37.7°C | 94.9% | 331.7hPa | 2.4V | 07:49:55 | 02:52:01 | 00:00:00 | |
| DM0DOS-11 | 2026-09-02 02:08:29 | 52.13006 | 6.72778 | 81° | 69km/h | 8707m | -5.5m/s | -37.8°C | 94.2% | 331.3hPa | 2.5V | 07:49:38 | 02:51:59 | 00:00:00 | |
| DL1XH-west | 2026-09-02 02:08:26 | 52.12997 | 6.72691 | 81° | 73km/h | 8723m | -4.8m/s | -37.9°C | 91.1% | 330.5hPa | 2.4V | 07:49:55 | 02:51:56 | 00:00:00 | |
| DO9LL-15 | 2026-09-02 02:08:26 | 52.12997 | 6.72691 | 82° | 71km/h | 8723m | -4.8m/s | -37.9°C | 91.7% | 330.4hPa | 2.4V | 00:00:00 | 02:51:56 | 00:00:00 | |
| DO3DL | 2026-09-02 02:08:25 | 52.12997 | 6.72691 | 82° | 73km/h | 8723m | -4.8m/s | -37.9°C | 87.1% | 330.5hPa | 2.4V | 07:49:00 | 00:00:00 | 00:00:00 | |
| DF5WG-10 | 2026-09-02 02:08:24 | 52.12992 | 6.72633 | 82° | 71km/h | 8734m | -5.0m/s | -38.0°C | 87.7% | 330.0hPa | 2.4V | 00:00:00 | 02:51:54 | 00:00:00 | |
| DM0DOS-11 | 2026-09-02 02:08:23 | 52.12979 | 6.72489 | 80° | 71km/h | 8758m | -4.7m/s | -38.2°C | 90.5% | 328.8hPa | 2.4V | 07:49:48 | 02:51:49 | 00:00:00 | |
| DO2JMG | 2026-09-02 02:08:22 | 52.12987 | 6.72576 | 81° | 71km/h | 8743m | -5m/s | -38.1°C | 84.2% | 329.5hPa | 2.5V | 07:49:55 | 02:51:52 | 00:00:00 | |
| BIOWL1-15 | 2026-09-02 02:08:22 | 52.12982 | 6.72518 | 82° | 69km/h | 8754m | -4.9m/s | -38.2°C | 87.4% | 329hPa | 2.4V | 07:49:55 | 02:51:50 | 00:00:00 | |
| DL1XH-west | 2026-09-02 02:08:15 | 52.12969 | 6.72373 | 81° | 71km/h | 8778m | -4.8m/s | -38.4°C | 93.9% | 327.9hPa | 2.5V | 07:49:55 | 02:51:45 | 00:00:00 | |
| DO2JMG | 2026-09-02 02:08:12 | 52.12961 | 6.72287 | 83° | 69km/h | 8792m | -4.8m/s | -38.5°C | 94.3% | 327.2hPa | 2.4V | 07:49:55 | 02:51:42 | 00:00:00 | |
| BIOWL1-15 | 2026-09-02 02:08:09 | 52.12954 | 6.72200 | 82° | 71km/h | 8806m | -4.7m/s | -38.7°C | 92.5% | 326.5hPa | 2.5V | 07:50:46 | 02:51:39 | 00:00:00 | |
| DL1XH-west | 2026-09-02 02:08:04 | 52.12941 | 6.72054 | 83° | 71km/h | 8828m | -4.4m/s | -38.9°C | 90.6% | 325.5hPa | 2.5V | 07:50:46 | 02:51:34 | 00:00:00 | |
| DO2JMG | 2026-09-02 02:08:01 | 52.12934 | 6.71967 | 82° | 73km/h | 8841m | -4.1m/s | -39°C | 90.1% | 324.9hPa | 2.4V | 07:53:19 | 02:51:31 | 00:00:00 | |
| DM0DOS-11 | 2026-09-02 02:08:00 | 52.12929 | 6.71908 | 83° | 71km/h | 8849m | -4.2m/s | -39.1°C | 87.1% | 324.5hPa | 2.5V | 07:50:08 | 02:51:29 | 00:00:00 | |
| BIOWL1-15 | 2026-09-02 02:08:00 | 52.12927 | 6.71878 | 82° | 71km/h | 8854m | -4.3m/s | -39.1°C | 83.3% | 324.3hPa | 2.4V | 07:50:46 | 02:51:28 | 00:00:00 | |
| DC6BW-12 | 2026-09-02 02:07:59 | 52.12931 | 6.71937 | 83° | 73km/h | 8845m | -4.4m/s | -39.0°C | 84.9% | 324.7hPa | 2.4V | 07:50:00 | 00:00:00 | 00:00:00 | |
| DJ2KF-10 | 2026-09-02 02:07:58 | 52.12927 | 6.71878 | 83° | 73km/h | 8854m | -4.3m/s | -39.1°C | 84.2% | 324.2hPa | 2.4V | 00:00:00 | 02:51:28 | 00:00:00 | |
| GOEST3-10 | 2026-09-02 02:07:57 | 52.12924 | 6.71849 | 82° | 73km/h | 8858m | -4.2m/s | -39.0°C | 80.2% | 324.1hPa | 2.4V | 00:00:00 | 00:00:00 | 00:00:00 | |
| DO9LL-15 | 2026-09-02 02:07:56 | 52.12922 | 6.71820 | 83° | 73km/h | 8862m | -4.0m/s | -39.1°C | 81.3% | 323.8hPa | 2.5V | 07:50:00 | 02:51:26 | 00:00:00 | |
| DD1CC2-15 | 2026-09-02 02:07:55 | 52.12921 | 6.71820 | 84° | 71km/h | 8862m | -4.1m/s | -39.1°C | 76.8% | 323.9hPa | 2.5V | 07:50:00 | 00:00:00 | 00:00:00 | |
| DM0DOS-11 | 2026-09-02 02:07:54 | 52.12906 | 6.71613 | 84° | 71km/h | 8891m | -4.2m/s | -39.4°C | 79.2% | 322.5hPa | 2.5V | 07:50:18 | 02:51:19 | 00:00:00 | |
| DL1XH-west | 2026-09-02 02:07:53 | 52.12915 | 6.71731 | 83° | 73km/h | 8875m | -4.2m/s | -39.3°C | 80.3% | 323.3hPa | 2.5V | 07:50:46 | 02:51:23 | 00:00:00 | |
| DO2JMG | 2026-09-02 02:07:50 | 52.12907 | 6.71642 | 83° | 73km/h | 8887m | -4m/s | -39.4°C | 77.9% | 322.7hPa | 2.4V | 07:53:19 | 02:51:20 | 00:00:00 | |
| BIOWL1-15 | 2026-09-02 02:07:47 | 52.12901 | 6.71554 | 83° | 71km/h | 8899m | -4.1m/s | -39.5°C | 80.4% | 322.1hPa | 2.4V | 07:50:46 | 02:51:17 | 00:00:00 | |
| GOEST3-10 | 2026-09-02 02:07:47 | 52.12901 | 6.71554 | 84° | 73km/h | 8900m | -4.1m/s | -39.4°C | 81.9% | 322.1hPa | 2.4V | 07:50:00 | 00:00:00 | 00:00:00 | |
| DF5WG-10 | 2026-09-02 02:07:44 | 52.12895 | 6.71466 | 83° | 73km/h | 8911m | -3.5m/s | -39.5°C | 85.9% | 321.5hPa | 2.4V | 00:00:00 | 02:51:14 | 00:00:00 | |
| WPPR-10 | 2026-09-02 02:07:43 | 52.12892 | 6.71437 | 82° | 73km/h | 8914m | -3.3m/s | -39.6°C | 81.3% | 321.4hPa | 2.4V | 00:00:00 | 00:00:00 | 00:00:00 | |
| DM0DOS-11 | 2026-09-02 02:07:42 | 52.12883 | 6.71317 | 83° | 73km/h | 8929m | -4.1m/s | -39.7°C | 85% | 320.6hPa | 2.4V | 07:50:28 | 02:51:09 | 00:00:00 | |
| DL1XH-west | 2026-09-02 02:07:42 | 52.12890 | 6.71407 | 84° | 73km/h | 8918m | -3.5m/s | -39.7°C | 83.4% | 321.2hPa | 2.4V | 07:50:46 | 02:51:12 | 00:00:00 | |
| DO2JMG | 2026-09-02 02:07:40 | 52.12883 | 6.71317 | 83° | 73km/h | 8929m | -4.1m/s | -39.7°C | 83% | 320.7hPa | 2.4V | 07:53:19 | 02:51:09 | 00:00:00 | |
| BIOWL1-15 | 2026-09-02 02:07:39 | 52.12878 | 6.71257 | 83° | 73km/h | 8937m | -3.8m/s | -39.8°C | 82.8% | 320.3hPa | 2.5V | 07:50:46 | 02:51:07 | 00:00:00 | |
| DL1XH-west | 2026-09-02 02:07:31 | 52.12867 | 6.71079 | 85° | 71km/h | 8959m | -3.2m/s | -40°C | 79.2% | 319.4hPa | 2.4V | 07:50:46 | 02:51:01 | 00:00:00 | |
| DM0DOS-11 | 2026-09-02 02:07:30 | 52.12864 | 6.71020 | 85° | 71km/h | 8966m | -3.1m/s | -40°C | 80.5% | 319.1hPa | 2.4V | 07:50:38 | 02:50:59 | 00:00:00 | |
| DO2JMG | 2026-09-02 02:07:29 | 52.12864 | 6.71020 | 86° | 71km/h | 8966m | -3.1m/s | -40.1°C | 78.5% | 319.1hPa | 2.4V | 07:53:19 | 02:50:59 | 00:00:00 | |
| BIOWL1-15 | 2026-09-02 02:07:29 | 52.12860 | 6.70962 | 84° | 71km/h | 8972m | -3.1m/s | -40.1°C | 78.3% | 318.7hPa | 2.5V | 07:50:46 | 02:50:57 | 00:00:00 | |
| DJ2KF-10 | 2026-09-02 02:07:28 | 52.12862 | 6.70991 | 84° | 73km/h | 8969m | -3.3m/s | -40.0°C | 80.2% | 318.8hPa | 2.5V | 00:00:00 | 02:50:58 | 00:00:00 | |
| GOEST3-10 | 2026-09-02 02:07:27 | 52.12860 | 6.70962 | 84° | 73km/h | 8972m | -3.0m/s | -40.1°C | 80.1% | 318.7hPa | 2.5V | 00:00:00 | 00:00:00 | 00:00:00 | |
| DO9LL-15 | 2026-09-02 02:07:26 | 52.12858 | 6.70932 | 85° | 75km/h | 8975m | -3.1m/s | -40.1°C | 78.6% | 318.5hPa | 2.4V | 00:00:00 | 02:50:56 | 00:00:00 | |
| DL8DAS-14 | 2026-09-02 02:07:25 | 52.12857 | 6.70902 | 84° | 73km/h | 8978m | -3.2m/s | -40.2°C | 74.1% | 318.4hPa | 2.4V | 00:00:00 | 00:00:00 | 00:00:00 | |
| DM0DOS-11 | 2026-09-02 02:07:24 | 52.12847 | 6.70722 | 85° | 75km/h | 8999m | -3.2m/s | -40.3°C | 80.8% | 317.4hPa | 2.4V | 07:50:48 | 02:50:49 | 00:00:00 | |
| DL1XH-west | 2026-09-02 02:07:21 | 52.12850 | 6.70782 | 85° | 73km/h | 8992m | -3.2m/s | -40.3°C | 78.4% | 317.7hPa | 2.5V | 07:50:46 | 02:50:51 | 00:00:00 | |
| DO2JMG | 2026-09-02 02:07:18 | 52.12846 | 6.70692 | 85° | 75km/h | 9002m | -3.5m/s | -40.4°C | 80% | 317.3hPa | 2.4V | 07:53:19 | 02:50:48 | 00:00:00 | |
| BIOWL1-15 | 2026-09-02 02:07:16 | 52.12843 | 6.70632 | 84° | 73km/h | 9009m | -3.5m/s | -40.4°C | 81.8% | 317hPa | 2.5V | 07:51:37 | 02:50:46 | 00:00:00 | |
| DD1CC2-15 | 2026-09-02 02:07:14 | 52.12840 | 6.70602 | 85° | 73km/h | 9012m | -3.5m/s | -40.5°C | 78.7% | 316.8hPa | 2.4V | 07:51:00 | 00:00:00 | 00:00:00 | |
| DM0DOS-11 | 2026-09-02 02:07:12 | 52.12830 | 6.70422 | 83° | 73km/h | 9032m | -3.3m/s | -40.6°C | 75.7% | 315.9hPa | 2.4V | 07:50:58 | 02:50:39 | 00:00:00 | |
| DL1XH-west | 2026-09-02 02:07:10 | 52.12832 | 6.70452 | 86° | 73km/h | 9029m | -3.6m/s | -40.6°C | 76% | 316.1hPa | 2.5V | 07:51:37 | 02:50:40 | 00:00:00 | |
| DO2JMG | 2026-09-02 02:07:08 | 52.12828 | 6.70392 | 85° | 75km/h | 9035m | -2.8m/s | -40.6°C | 75.4% | 315.7hPa | 2.4V | 07:53:19 | 02:50:38 | 00:00:00 | |
| BIOWL1-15 | 2026-09-02 02:07:07 | 52.12825 | 6.70301 | 88° | 75km/h | 9045m | -3.5m/s | -40.7°C | 74.7% | 315.3hPa | 2.5V | 07:51:37 | 02:50:35 | 00:00:00 | |
| DL1XH-west | 2026-09-02 02:07:00 | 52.12820 | 6.70145 | 86° | 77km/h | 9062m | -3.1m/s | -40.9°C | 74.6% | 314.6hPa | 2.5V | 07:51:37 | 02:50:30 | 00:00:00 | |
| BIOWL1-15 | 2026-09-02 02:06:54 | 52.12806 | 6.69961 | 83° | 73km/h | 9078m | -2.9m/s | -41°C | 80.8% | 313.8hPa | 2.5V | 07:51:37 | 02:50:24 | 00:00:00 | |
| DL1XH-west | 2026-09-02 02:06:49 | 52.12798 | 6.69806 | 87° | 78km/h | 9095m | -3.5m/s | -41.2°C | 91.5% | 313.1hPa | 2.5V | 07:51:37 | 02:50:19 | 00:00:00 | |
| DB0UT-7 | 2026-09-02 02:06:48 | 52.12797 | 6.69773 | 87° | 82km/h | 9098m | -3.4m/s | -41.2°C | 92.0% | 312.9hPa | 2.4V | 00:00:00 | 02:50:18 | 00:00:00 | |
| GOEST3-10 | 2026-09-02 02:06:47 | 52.12796 | 6.69741 | 86° | 80km/h | 9102m | -3.4m/s | -41.2°C | 90.7% | 312.7hPa | 2.4V | 00:00:00 | 00:00:00 | 00:00:00 | |
| DL1XH-15 | 2026-09-02 02:06:46 | 52.12782 | 6.69543 | 83° | 80km/h | 9124m | -4.3m/s | -41.5°C | 84.4% | 311.7hPa | 2.4V | 07:51:26 | 02:50:11 | 00:00:00 | |
| BIOWL1-15 | 2026-09-02 02:06:43 | 52.12787 | 6.69609 | 83° | 80km/h | 9116m | -3.6m/s | -41.4°C | 85.4% | 312.1hPa | 2.5V | 07:51:37 | 02:50:13 | 00:00:00 | |
| DM0DOS-11 | 2026-09-02 02:06:42 | 52.12778 | 6.69477 | 84° | 80km/h | 9132m | -3.7m/s | -41.5°C | 83.1% | 311.4hPa | 2.4V | 07:51:28 | 02:50:09 | 00:00:00 | |
| DL1XH-west | 2026-09-02 02:06:39 | 52.12778 | 6.69477 | 85° | 80km/h | 9132m | -3.7m/s | -41.5°C | 83.5% | 311.4hPa | 2.4V | 07:51:37 | 02:50:09 | 00:00:00 | |
| DD1CC9-15 | 2026-09-02 02:06:38 | 52.12778 | 6.69477 | 86° | 80km/h | 9132m | -3.7m/s | -41.5°C | 78.2% | 311.4hPa | 2.4V | 00:00:00 | 00:00:00 | 00:00:00 | |
| GOEST3-10 | 2026-09-02 02:06:37 | 52.12775 | 6.69411 | 86° | 82km/h | 9139m | -3.1m/s | -41.6°C | 83.9% | 311.0hPa | 2.4V | 00:00:00 | 00:00:00 | 00:00:00 | |
| DO1YAY-16 | 2026-09-02 02:06:36 | 52.12773 | 6.69378 | 85° | 80km/h | 9142m | -3.1m/s | -41.6°C | 78.4% | 310.9hPa | 2.4V | 00:00:00 | 00:00:00 | 00:00:00 | |
| DL1XH-15 | 2026-09-02 02:06:34 | 52.12762 | 6.69177 | 84° | 80km/h | 9162m | -3.6m/s | -41.8°C | 86.6% | 309.9hPa | 2.4V | 07:51:37 | 02:50:00 | 00:00:00 | |
| DF5WG-10 | 2026-09-02 02:06:34 | 52.12770 | 6.69311 | 85° | 82km/h | 9148m | -2.9m/s | -41.6°C | 84.5% | 310.5hPa | 2.4V | 00:00:00 | 02:50:04 | 00:00:00 | |
| SONCRA | 2026-09-02 02:06:33 | 52.12766 | 6.69244 | 84° | 80km/h | 9155m | -3.8m/s | -41.8°C | 81.5% | 310.2hPa | 2.4V | 00:00:00 | 00:00:00 | 00:00:00 | |
| BIOWL1-15 | 2026-09-02 02:06:33 | 52.12768 | 6.69277 | 84° | 82km/h | 9152m | -3.5m/s | -41.7°C | 83.2% | 310.4hPa | 2.5V | 07:51:37 | 02:50:03 | 00:00:00 | |
| DL3AQ-11 | 2026-09-02 02:06:32 | 52.12764 | 6.69210 | 84° | 80km/h | 9159m | -3.1m/s | -41.8°C | 82.3% | 310.1hPa | 2.4V | 00:00:00 | 00:00:00 | 00:00:00 | |
| AU51GT2 | 2026-09-02 02:06:31 | 52.12764 | 6.69210 | 84° | 80km/h | 9159m | -3.1m/s | -41.8°C | 82.3% | 310.1hPa | 2.4V | 00:00:00 | 00:00:00 | 00:00:00 | |
| DM0DOS-11 | 2026-09-02 02:06:30 | 52.12759 | 6.69144 | 83° | 80km/h | 9166m | -3.2m/s | -41.9°C | 85.4% | 309.8hPa | 2.4V | 07:51:38 | 02:49:59 | 00:00:00 | |
| DL1XH-west | 2026-09-02 02:06:29 | 52.12760 | 6.69144 | 83° | 80km/h | 9166m | -3.2m/s | -41.9°C | 83.5% | 309.9hPa | 2.4V | 07:52:28 | 02:49:59 | 00:00:00 | |
| DO2JMG | 2026-09-02 02:06:24 | 52.12746 | 6.68979 | 82° | 82km/h | 9183m | -3.7m/s | -42°C | 81.7% | 309hPa | 2.4V | 07:53:19 | 02:49:54 | 00:00:00 | |
| DM0DOS-11 | 2026-09-02 02:06:24 | 52.12733 | 6.68808 | 84° | 84km/h | 9202m | -3.7m/s | -42.2°C | 81.9% | 308.2hPa | 2.4V | 07:51:48 | 02:49:49 | 00:00:00 | |
| BIOWL1-15 | 2026-09-02 02:06:22 | 52.12740 | 6.68911 | 82° | 84km/h | 9191m | -3.4m/s | -42.1°C | 82.3% | 308.7hPa | 2.4V | 07:52:28 | 02:49:52 | 00:00:00 | |
| DL1XH-west | 2026-09-02 02:06:18 | 52.12731 | 6.68774 | 84° | 86km/h | 9206m | -3.5m/s | -42.2°C | 83.6% | 308hPa | 2.4V | 07:52:28 | 02:49:48 | 00:00:00 | |
| BIOWL1-15 | 2026-09-02 02:06:13 | 52.12715 | 6.68537 | 82° | 82km/h | 9231m | -3.3m/s | -42.4°C | 86.1% | 306.8hPa | 2.4V | 07:52:28 | 02:49:41 | 00:00:00 | |
| DF5WG-10 | 2026-09-02 02:06:13 | 52.12720 | 6.68604 | 85° | 86km/h | 9225m | -3.2m/s | -42.3°C | 87.0% | 307.1hPa | 2.5V | 07:51:00 | 02:49:43 | 00:00:00 | |
| DM0DOS-11 | 2026-09-02 02:06:12 | 52.12709 | 6.68469 | 82° | 84km/h | 9237m | -2.8m/s | -42.5°C | 88.4% | 306.6hPa | 2.5V | 07:51:58 | 02:49:39 | 00:00:00 | |
| GOEST3-10 | 2026-09-02 02:06:12 | 52.12717 | 6.68570 | 83° | 84km/h | 9228m | -3.1m/s | -42.4°C | 87.6% | 306.9hPa | 2.4V | 00:00:00 | 02:49:42 | 00:00:00 | |
| DL1XH-15 | 2026-09-02 02:06:10 | 52.12712 | 6.68503 | 82° | 84km/h | 9234m | -2.9m/s | -42.5°C | 88.4% | 306.7hPa | 2.5V | 07:51:57 | 02:49:40 | 00:00:00 | |
| DL1XH-west | 2026-09-02 02:06:07 | 52.12704 | 6.68399 | 84° | 86km/h | 9242m | -2.7m/s | -42.5°C | 86.9% | 306.4hPa | 2.4V | 07:52:28 | 02:49:37 | 00:00:00 | |
| BIOWL1-15 | 2026-09-02 02:06:05 | 52.12690 | 6.68179 | 84° | 91km/h | 9260m | -2.9m/s | -42.7°C | 87.7% | 305.6hPa | 2.4V | 07:52:28 | 02:49:31 | 00:00:00 | |
| DL1XH-15 | 2026-09-02 02:06:04 | 52.12688 | 6.68142 | 84° | 89km/h | 9263m | -2.8m/s | -42.7°C | 88.5% | 305.4hPa | 2.4V | 07:52:07 | 02:49:30 | 00:00:00 | |
| DF5WG-10 | 2026-09-02 02:06:03 | 52.12695 | 6.68253 | 84° | 91km/h | 9254m | -3.1m/s | -42.6°C | 87.7% | 305.8hPa | 2.5V | 00:00:00 | 02:49:33 | 00:00:00 | |
| GOEST3-10 | 2026-09-02 02:06:02 | 52.12693 | 6.68216 | 85° | 91km/h | 9257m | -3.2m/s | -42.6°C | 88.1% | 305.7hPa | 2.5V | 00:00:00 | 02:49:32 | 00:00:00 | |
| DM0DOS-11 | 2026-09-02 02:06:00 | 52.12685 | 6.68105 | 82° | 89km/h | 9266m | -2.8m/s | -42.8°C | 88.6% | 305.3hPa | 2.5V | 07:52:08 | 02:49:29 | 00:00:00 | |
| DL1XH-west | 2026-09-02 02:05:56 | 52.12678 | 6.67995 | 84° | 89km/h | 9275m | -3m/s | -42.9°C | 88.3% | 304.9hPa | 2.4V | 07:52:28 | 02:49:26 | 00:00:00 | |
| DL8DAS-15 | 2026-09-02 02:05:56 | 52.12678 | 6.67995 | 85° | 89km/h | 9275m | -3.0m/s | -42.9°C | 83.1% | 304.9hPa | 2.4V | 00:00:00 | 00:00:00 | 00:00:00 | |
| DC6BW-12 | 2026-09-02 02:05:55 | 52.12678 | 6.67995 | 85° | 89km/h | 9275m | -3.0m/s | -42.9°C | 83.1% | 304.9hPa | 2.4V | 07:52:00 | 00:00:00 | 00:00:00 | |
| DM0DOS-11 | 2026-09-02 02:05:54 | 52.12664 | 6.67730 | 86° | 97km/h | 9296m | -3.4m/s | -43°C | 88.4% | 304hPa | 2.4V | 07:52:18 | 02:49:19 | 00:00:00 | |
| BIOWL1-15 | 2026-09-02 02:05:50 | 52.12666 | 6.67769 | 86° | 95km/h | 9293m | -2.9m/s | -43°C | 87.8% | 304.1hPa | 2.4V | 07:52:28 | 02:49:20 | 00:00:00 | |
| DO2JMG | 2026-09-02 02:05:48 | 52.12663 | 6.67691 | 87° | 95km/h | 9300m | -4m/s | -43.1°C | 87.8% | 303.8hPa | 2.4V | 07:53:19 | 02:49:18 | 00:00:00 | |
| DL1XH-west | 2026-09-02 02:05:45 | 52.12657 | 6.67576 | 85° | 95km/h | 9310m | -3.1m/s | -43.2°C | 88.1% | 303.3hPa | 2.4V | 07:52:28 | 02:49:15 | 00:00:00 | |
| DH3RM | 2026-09-02 02:05:44 | 52.12657 | 6.67576 | 86° | 95km/h | 9311m | -3.1m/s | -43.2°C | 83.8% | 303.3hPa | 2.4V | 07:52:00 | 00:00:00 | 00:00:00 | |
| DF5WG-10 | 2026-09-02 02:05:43 | 52.12653 | 6.67499 | 86° | 97km/h | 9317m | -3.2m/s | -43.2°C | 88.6% | 303.0hPa | 2.4V | 00:00:00 | 02:49:13 | 00:00:00 | |
| DM0DOS-11 | 2026-09-02 02:05:42 | 52.12647 | 6.67344 | 87° | 95km/h | 9332m | -3.6m/s | -43.4°C | 84.1% | 302.4hPa | 2.4V | 07:52:28 | 02:49:09 | 00:00:00 | |
| BIOWL1-15 | 2026-09-02 02:05:39 | 52.12647 | 6.67344 | 87° | 95km/h | 9332m | -3.6m/s | -43.4°C | 84.9% | 302.4hPa | 2.4V | 07:52:28 | 02:49:09 | 00:00:00 | |
| DL1XH-west | 2026-09-02 02:05:34 | 52.12641 | 6.67145 | 86° | 100km/h | 9355m | -4.9m/s | -43.6°C | 78.3% | 301.4hPa | 2.4V | 07:53:19 | 02:49:04 | 00:00:00 | |
| DO2JMG | 2026-09-02 02:05:32 | 52.12637 | 6.67064 | 84° | 97km/h | 9365m | -5m/s | -43.7°C | 76.9% | 300.9hPa | 2.4V | 07:53:19 | 02:49:02 | 00:00:00 | |
| BIOWL1-15 | 2026-09-02 02:05:28 | 52.12627 | 6.66907 | 84° | 95km/h | 9386m | -5.9m/s | -43.9°C | 76.6% | 300hPa | 2.4V | 07:53:19 | 02:48:58 | 00:00:00 | |
| DL1XH-west | 2026-09-02 02:05:24 | 52.12615 | 6.66753 | 82° | 93km/h | 9409m | -5.6m/s | -44.2°C | 79.7% | 298.9hPa | 2.5V | 07:53:19 | 02:48:54 | 00:00:00 | |
| DO2JMG | 2026-09-02 02:05:22 | 52.12608 | 6.66677 | 81° | 91km/h | 9420m | -5.3m/s | -44.3°C | 81.4% | 298.4hPa | 2.4V | 07:53:19 | 02:48:52 | 00:00:00 | |
| BIOWL1-15 | 2026-09-02 02:05:17 | 52.12589 | 6.66494 | 80° | 89km/h | 9445m | -4.5m/s | -44.5°C | 79.1% | 297.3hPa | 2.5V | 07:53:19 | 02:48:47 | 00:00:00 | |
| DL1XH-west | 2026-09-02 02:05:13 | 52.12574 | 6.66345 | 82° | 93km/h | 9463m | -4.2m/s | -44.6°C | 77% | 296.6hPa | 2.5V | 07:53:19 | 02:48:43 | 00:00:00 | |
| DO2JMG | 2026-09-02 02:05:11 | 52.12568 | 6.66269 | 82° | 93km/h | 9471m | -3.5m/s | -44.7°C | 76% | 296.1hPa | 2.4V | 07:53:19 | 02:48:41 | 00:00:00 | |
| BIOWL1-15 | 2026-09-02 02:05:07 | 52.12549 | 6.66085 | 79° | 89km/h | 9488m | -3.4m/s | -44.8°C | 71.1% | 295.3hPa | 2.5V | 07:53:19 | 02:48:36 | 00:00:00 | |
| DL1XH-west | 2026-09-02 02:05:07 | 52.12536 | 6.65977 | 79° | 89km/h | 9498m | -2.7m/s | -44.9°C | 70.2% | 294.9hPa | 2.4V | 07:53:19 | 02:48:33 | 00:00:00 | |
| DO2JMG | 2026-09-02 02:05:01 | 52.12528 | 6.65905 | 79° | 89km/h | 9503m | -2.6m/s | -45°C | 69.4% | 294.7hPa | 2.5V | 07:53:19 | 02:48:31 | 00:00:00 | |
| DM0DOS-11 | 2026-09-02 02:05:00 | 52.12519 | 6.65833 | 79° | 88km/h | 9509m | -2.8m/s | -45.1°C | 68.6% | 294.4hPa | 2.4V | 07:53:08 | 02:48:29 | 00:00:00 | |
| BIOWL1-15 | 2026-09-02 02:04:56 | 52.12507 | 6.65729 | 80° | 84km/h | 9518m | -3.7m/s | -45.2°C | 70% | 294hPa | 2.4V | 07:53:19 | 02:48:26 | 00:00:00 | |
| DO9LL-15 | 2026-09-02 02:04:56 | 52.12507 | 6.65729 | 80° | 88km/h | 9518m | -3.6m/s | -45.1°C | 68.9% | 293.9hPa | 2.5V | 00:00:00 | 02:48:26 | 00:00:00 | |
| DM0DOS-11 | 2026-09-02 02:04:54 | 52.12482 | 6.65482 | 82° | 89km/h | 9540m | -3m/s | -45.4°C | 72.3% | 293hPa | 2.5V | 07:53:18 | 02:48:19 | 00:00:00 | |
| DL1XH-west | 2026-09-02 02:04:53 | 52.12496 | 6.65626 | 80° | 86km/h | 9528m | -3.4m/s | -45.2°C | 72% | 293.6hPa | 2.4V | 07:53:19 | 02:48:23 | 00:00:00 | |
| DO2JMG | 2026-09-02 02:04:50 | 52.12485 | 6.65519 | 81° | 91km/h | 9537m | -2.8m/s | -45.3°C | 72.1% | 293.1hPa | 2.4V | 07:53:19 | 02:48:20 | 00:00:00 | |
| BIOWL1-15 | 2026-09-02 02:04:45 | 52.12468 | 6.65335 | 83° | 88km/h | 9553m | -3.7m/s | -45.5°C | 73.3% | 292.5hPa | 2.4V | 07:54:10 | 02:48:15 | 00:00:00 | |
| DL1XH-west | 2026-09-02 02:04:42 | 52.12459 | 6.65229 | 83° | 86km/h | 9566m | -4.8m/s | -45.5°C | 74.1% | 291.9hPa | 2.5V | 07:54:10 | 02:48:12 | 00:00:00 | |
| DM0DOS-11 | 2026-09-02 02:04:42 | 52.12450 | 6.65125 | 80° | 86km/h | 9581m | -5.3m/s | -45.7°C | 71.2% | 291.3hPa | 2.4V | 07:53:28 | 02:48:09 | 00:00:00 | |
| DO2JMG | 2026-09-02 02:04:39 | 52.12450 | 6.65125 | 81° | 86km/h | 9581m | -5.3m/s | -45.7°C | 74.5% | 291.3hPa | 2.4V | 07:54:10 | 02:48:09 | 00:00:00 | |
| BIOWL1-15 | 2026-09-02 02:04:35 | 52.12436 | 6.64986 | 81° | 88km/h | 9603m | -5.9m/s | -46°C | 71.5% | 290.3hPa | 2.4V | 07:54:10 | 02:48:05 | 00:00:00 | |
| DL1XH-west | 2026-09-02 02:04:31 | 52.12423 | 6.64844 | 82° | 88km/h | 9626m | -5.8m/s | -46.2°C | 71% | 289.3hPa | 2.5V | 07:54:10 | 02:48:01 | 00:00:00 | |
| DM0DOS-11 | 2026-09-02 02:04:30 | 52.12417 | 6.64772 | 81° | 88km/h | 9637m | -5.6m/s | -46.3°C | 67.3% | 288.8hPa | 2.4V | 07:53:38 | 02:47:59 | 00:00:00 | |
| DO2JMG | 2026-09-02 02:04:29 | 52.12417 | 6.64772 | 82° | 88km/h | 9637m | -5.6m/s | -46.3°C | 70.6% | 288.8hPa | 2.4V | 07:54:10 | 02:47:59 | 00:00:00 | |
| BIOWL1-15 | 2026-09-02 02:04:26 | 52.12402 | 6.64601 | 82° | 82km/h | 9668m | -6.6m/s | -46.6°C | 66.3% | 287.4hPa | 2.4V | 07:54:10 | 02:47:54 | 00:00:00 | |
| DL1XH-west | 2026-09-02 02:04:21 | 52.12393 | 6.64499 | 80° | 84km/h | 9687m | -6m/s | -46.8°C | 62.2% | 286.6hPa | 2.4V | 07:54:10 | 02:47:51 | 00:00:00 | |
| DO2JMG | 2026-09-02 02:04:19 | 52.12386 | 6.64430 | 81° | 86km/h | 9698m | -5.3m/s | -46.9°C | 61.9% | 286.2hPa | 2.5V | 07:54:10 | 02:47:49 | 00:00:00 | |
| BIOWL1-15 | 2026-09-02 02:04:16 | 52.12371 | 6.64249 | 83° | 89km/h | 9729m | -6.6m/s | -47.2°C | 61.5% | 284.9hPa | 2.5V | 07:54:10 | 02:47:44 | 00:00:00 | |
| DL1XH-west | 2026-09-02 02:04:11 | 52.12361 | 6.64142 | 82° | 86km/h | 9749m | -6.8m/s | -47.4°C | 61.5% | 284.1hPa | 2.4V | 07:54:10 | 02:47:41 | 00:00:00 | |
| DO2JMG | 2026-09-02 02:04:08 | 52.12351 | 6.64038 | 80° | 84km/h | 9770m | -7m/s | -47.6°C | 60.7% | 283.1hPa | 2.5V | 07:54:10 | 02:47:38 | 00:00:00 | |
| BIOWL1-15 | 2026-09-02 02:04:04 | 52.12335 | 6.63870 | 82° | 84km/h | 9807m | -7.2m/s | -48°C | 59.4% | 281.5hPa | 2.4V | 07:54:10 | 02:47:33 | 00:00:00 | |
| DL1XH-west | 2026-09-02 02:04:00 | 52.12327 | 6.63766 | 84° | 86km/h | 9828m | -6.8m/s | -48.1°C | 59.7% | 280.6hPa | 2.4V | 07:54:10 | 02:47:30 | 00:00:00 | |
| DM0DOS-11 | 2026-09-02 02:04:00 | 52.12324 | 6.63730 | 83° | 88km/h | 9834m | -7m/s | -48.2°C | 56.1% | 280.4hPa | 2.4V | 07:54:08 | 02:47:29 | 00:00:00 | |
| DO2JMG | 2026-09-02 02:03:58 | 52.12321 | 6.63695 | 83° | 88km/h | 9842m | -6.9m/s | -48.2°C | 59.7% | 280.1hPa | 2.4V | 07:54:10 | 02:47:28 | 00:00:00 | |
| BIOWL1-15 | 2026-09-02 02:03:55 | 52.12305 | 6.63515 | 80° | 88km/h | 9876m | -6.5m/s | -48.6°C | 59% | 278.7hPa | 2.4V | 07:55:01 | 02:47:23 | 00:00:00 | |
| DM0DOS-11 | 2026-09-02 02:03:54 | 52.12288 | 6.63375 | 78° | 84km/h | 9902m | -6.4m/s | -48.9°C | 54.2% | 277.5hPa | 2.5V | 07:54:18 | 02:47:19 | 00:00:00 | |
| DL1XH-west | 2026-09-02 02:03:49 | 52.12288 | 6.63375 | 79° | 84km/h | 9902m | -6.4m/s | -48.9°C | 57.5% | 277.5hPa | 2.5V | 07:55:01 | 02:47:19 | 00:00:00 | |
| DO2JMG | 2026-09-02 02:03:47 | 52.12280 | 6.63307 | 80° | 84km/h | 9915m | -6.5m/s | -49°C | 57.3% | 277hPa | 2.4V | 07:55:01 | 02:47:17 | 00:00:00 | |
| GOEST3-10 | 2026-09-02 02:03:47 | 52.12280 | 6.63307 | 81° | 86km/h | 9915m | -6.5m/s | -49.0°C | 53.9% | 276.9hPa | 2.4V | 07:54:00 | 00:00:00 | 00:00:00 | |
| DF5WG-10 | 2026-09-02 02:03:43 | 52.12264 | 6.63169 | 81° | 86km/h | 9944m | -7.7m/s | -49.3°C | 52.3% | 275.8hPa | 2.4V | 00:00:00 | 02:47:13 | 00:00:00 | |
| DM0DOS-11 | 2026-09-02 02:03:42 | 52.12249 | 6.63029 | 79° | 86km/h | 9974m | -7.7m/s | -49.5°C | 50% | 274.4hPa | 2.4V | 07:54:28 | 02:47:09 | 00:00:00 | |
| BIOWL1-15 | 2026-09-02 02:03:42 | 52.12261 | 6.63134 | 80° | 86km/h | 9951m | -7.6m/s | -49.4°C | 56% | 275.4hPa | 2.4V | 07:55:01 | 02:47:12 | 00:00:00 | |
| DL1XH-west | 2026-09-02 02:03:39 | 52.12249 | 6.63029 | 80° | 86km/h | 9974m | -7.7m/s | -49.6°C | 54.5% | 274.4hPa | 2.4V | 07:55:01 | 02:47:09 | 00:00:00 | |
| DO2JMG | 2026-09-02 02:03:37 | 52.12241 | 6.62960 | 80° | 84km/h | 9989m | -7.5m/s | -49.7°C | 52.4% | 273.9hPa | 2.5V | 07:55:01 | 02:47:07 | 00:00:00 | |
| BIOWL1-15 | 2026-09-02 02:03:31 | 52.12219 | 6.62754 | 80° | 86km/h | 10036m | -8.1m/s | -50.1°C | 49.5% | 271.9hPa | 2.5V | 07:55:01 | 02:47:01 | 00:00:00 | |
| DM0DOS-11 | 2026-09-02 02:03:30 | 52.12212 | 6.62684 | 80° | 86km/h | 10052m | -8.4m/s | -50.3°C | 45.2% | 271.2hPa | 2.4V | 07:54:38 | 02:46:59 | 00:00:00 | |
| DL1XH-west | 2026-09-02 02:03:28 | 52.12208 | 6.62650 | 81° | 86km/h | 10060m | -8.7m/s | -50.3°C | 50% | 270.9hPa | 2.4V | 07:55:01 | 02:46:58 | 00:00:00 | |
| DO2JMG | 2026-09-02 02:03:26 | 52.12202 | 6.62580 | 82° | 86km/h | 10078m | -8.3m/s | -50.5°C | 50.6% | 270.1hPa | 2.5V | 07:55:01 | 02:46:56 | 00:00:00 | |
| DO9LL-15 | 2026-09-02 02:03:26 | 52.12202 | 6.62580 | 82° | 84km/h | 10078m | -8.2m/s | -50.5°C | 46.0% | 270.1hPa | 2.5V | 00:00:00 | 02:46:56 | 00:00:00 | |
| HTAHTA | 2026-09-02 02:03:25 | 52.12196 | 6.62512 | 82° | 84km/h | 10095m | -8.6m/s | -50.7°C | 41.6% | 269.5hPa | 2.5V | 00:00:00 | 00:00:00 | 00:00:00 | |
| DM0DOS-11 | 2026-09-02 02:03:24 | 52.12179 | 6.62340 | 80° | 86km/h | 10136m | -8.2m/s | -51.1°C | 47.6% | 267.7hPa | 2.5V | 07:54:48 | 02:46:49 | 00:00:00 | |
| DF5WG-10 | 2026-09-02 02:03:23 | 52.12193 | 6.62477 | 82° | 86km/h | 10103m | -8.5m/s | -50.7°C | 47.0% | 269.1hPa | 2.4V | 00:00:00 | 02:46:53 | 00:00:00 | |
| DL1XH-15 | 2026-09-02 02:03:22 | 52.12172 | 6.62271 | 80° | 86km/h | 10152m | -8.1m/s | -51.2°C | 48.4% | 267.1hPa | 2.4V | 07:54:50 | 02:46:47 | 00:00:00 | |
| BIOWL1-15 | 2026-09-02 02:03:21 | 52.12183 | 6.62375 | 80° | 86km/h | 10128m | -7.9m/s | -51°C | 51.3% | 268.1hPa | 2.5V | 07:55:01 | 02:46:50 | 00:00:00 | |
| DL1XH-west | 2026-09-02 02:03:18 | 52.12175 | 6.62306 | 80° | 86km/h | 10144m | -8.4m/s | -51.2°C | 51.8% | 267.4hPa | 2.4V | 07:55:01 | 02:46:48 | 00:00:00 | |
| DO2JMG | 2026-09-02 02:03:16 | 52.12168 | 6.62237 | 82° | 86km/h | 10161m | -8.2m/s | -51.3°C | 52.3% | 266.8hPa | 2.4V | 07:55:01 | 02:46:46 | 00:00:00 | |
| DH3RM | 2026-09-02 02:03:15 | 52.12168 | 6.62236 | 82° | 86km/h | 10161m | -8.2m/s | -51.3°C | 43.4% | 266.8hPa | 2.4V | 07:55:00 | 00:00:00 | 00:00:00 | |
| DO2KSM | 2026-09-02 02:03:14 | 52.12165 | 6.62202 | 83° | 86km/h | 10169m | -8.1m/s | -51.4°C | 43.7% | 266.4hPa | 2.4V | 00:00:00 | 00:00:00 | 00:00:00 | |
| DF5WG-10 | 2026-09-02 02:03:13 | 52.12159 | 6.62132 | 83° | 84km/h | 10185m | -7.9m/s | -51.5°C | 49.4% | 265.7hPa | 2.4V | 00:00:00 | 02:46:43 | 00:00:00 | |
| DM0DOS-11 | 2026-09-02 02:03:12 | 52.12146 | 6.61995 | 79° | 84km/h | 10217m | -7.8m/s | -51.8°C | 50.6% | 264.5hPa | 2.4V | 07:54:58 | 02:46:39 | 00:00:00 | |
| GOEST3-10 | 2026-09-02 02:03:12 | 52.12156 | 6.62097 | 82° | 84km/h | 10193m | -8.2m/s | -51.6°C | 49.8% | 265.4hPa | 2.4V | 00:00:00 | 02:46:42 | 00:00:00 | |
| DC6BW-12 | 2026-09-02 02:03:11 | 52.12156 | 6.62097 | 83° | 86km/h | 10193m | -8.2m/s | -51.6°C | 44.5% | 265.5hPa | 2.4V | 07:55:00 | 00:00:00 | 00:00:00 | |
| DL1XH-15 | 2026-09-02 02:03:10 | 52.12134 | 6.61894 | 77° | 84km/h | 10241m | -8.3m/s | -52.1°C | 51.3% | 263.5hPa | 2.4V | 07:55:01 | 02:46:36 | 00:00:00 | |
| BIOWL1-15 | 2026-09-02 02:03:09 | 52.12147 | 6.61995 | 80° | 84km/h | 10217m | -7.8m/s | -51.9°C | 54.7% | 264.5hPa | 2.4V | 07:55:01 | 02:46:39 | 00:00:00 | |
| DL1XH-west | 2026-09-02 02:03:07 | 52.12138 | 6.61927 | 78° | 84km/h | 10232m | -8.1m/s | -52°C | 55.5% | 263.8hPa | 2.5V | 07:55:01 | 02:46:37 | 00:00:00 | |
| DO2JMG | 2026-09-02 02:03:05 | 52.12129 | 6.61860 | 78° | 84km/h | 10249m | -8.9m/s | -52.2°C | 56.3% | 263.2hPa | 2.4V | 07:55:52 | 02:46:35 | 00:00:00 | |
| WPPR-10 | 2026-09-02 02:03:04 | 52.12125 | 6.61826 | 78° | 84km/h | 10258m | -8.3m/s | -52.3°C | 46.7% | 262.8hPa | 2.4V | 00:00:00 | 00:00:00 | 00:00:00 | |
| DF5WG-10 | 2026-09-02 02:03:03 | 52.12120 | 6.61792 | 80° | 84km/h | 10266m | -8.7m/s | -52.3°C | 52.5% | 262.4hPa | 2.4V | 00:00:00 | 02:46:33 | 00:00:00 | |
| GOEST3-10 | 2026-09-02 02:03:02 | 52.12117 | 6.61758 | 81° | 84km/h | 10275m | -8.6m/s | -52.4°C | 52.7% | 262.0hPa | 2.4V | 00:00:00 | 02:46:32 | 00:00:00 | |
| DM0DOS-11 | 2026-09-02 02:03:00 | 52.12106 | 6.61656 | 80° | 82km/h | 10300m | -8.5m/s | -52.6°C | 53.4% | 261.1hPa | 2.4V | 07:55:08 | 02:46:29 | 00:00:00 | |
| DO1YAY-16 | 2026-09-02 02:02:59 | 52.12106 | 6.61656 | 80° | 82km/h | 10300m | -8.5m/s | -52.7°C | 47.8% | 261.1hPa | 2.5V | 00:00:00 | 00:00:00 | 00:00:00 | |
| DL1XH-15 | 2026-09-02 02:02:58 | 52.12095 | 6.61556 | 79° | 82km/h | 10325m | -8.4m/s | -52.9°C | 54.3% | 260hPa | 2.5V | 07:55:11 | 02:46:26 | 00:00:00 | |
| BIOWL1-15 | 2026-09-02 02:02:58 | 52.12102 | 6.61623 | 81° | 82km/h | 10309m | -8.3m/s | -52.7°C | 58% | 260.7hPa | 2.4V | 07:55:52 | 02:46:28 | 00:00:00 | |
| DL1XH-west | 2026-09-02 02:02:56 | 52.12095 | 6.61556 | 80° | 82km/h | 10325m | -8.4m/s | -52.9°C | 58.6% | 260hPa | 2.5V | 07:55:52 | 02:46:26 | 00:00:00 | |
| DO2JMG | 2026-09-02 02:02:55 | 52.12091 | 6.61523 | 79° | 82km/h | 10334m | -8.3m/s | -53°C | 59.1% | 259.7hPa | 2.5V | 07:55:52 | 02:46:25 | 00:00:00 | |
| DM0DOS-11 | 2026-09-02 02:02:54 | 52.12065 | 6.61322 | 77° | 82km/h | 10383m | -8.4m/s | -53.4°C | 55.2% | 257.8hPa | 2.5V | 07:55:18 | 02:46:19 | 00:00:00 | |
| BIOWL1-15 | 2026-09-02 02:02:47 | 52.12057 | 6.61255 | 79° | 82km/h | 10399m | -8.1m/s | -53.6°C | 59.7% | 257.1hPa | 2.4V | 07:55:52 | 02:46:17 | 00:00:00 | |
| GOEST3-10 | 2026-09-02 02:02:47 | 52.12057 | 6.61255 | 80° | 82km/h | 10400m | -8.0m/s | -53.6°C | 55.5% | 257.0hPa | 2.4V | 00:00:00 | 00:00:00 | 00:00:00 | |
| DL1XH-15 | 2026-09-02 02:02:46 | 52.12049 | 6.61189 | 79° | 82km/h | 10416m | -8m/s | -53.8°C | 55% | 256.5hPa | 2.4V | 07:55:22 | 02:46:15 | 00:00:00 | |
| DL1XH-west | 2026-09-02 02:02:45 | 52.12049 | 6.61189 | 80° | 82km/h | 10416m | -8m/s | -53.8°C | 59.2% | 256.5hPa | 2.4V | 07:55:52 | 02:46:15 | 00:00:00 | |
| DF5WG-10 | 2026-09-02 02:02:43 | 52.12042 | 6.61123 | 81° | 82km/h | 10432m | -8.0m/s | -53.9°C | 54.6% | 255.8hPa | 2.4V | 00:00:00 | 02:46:13 | 00:00:00 | |
| DM0DOS-11 | 2026-09-02 02:02:42 | 52.12027 | 6.60989 | 79° | 82km/h | 10464m | -7.7m/s | -54.2°C | 55.8% | 254.6hPa | 2.4V | 07:55:28 | 02:46:09 | 00:00:00 | |
| GOEST3-10 | 2026-09-02 02:02:42 | 52.12038 | 6.61089 | 81° | 82km/h | 10440m | -8.2m/s | -53.9°C | 54.8% | 255.5hPa | 2.4V | 00:00:00 | 02:46:12 | 00:00:00 | |
| DJ2DS-15 | 2026-09-02 02:02:41 | 52.12035 | 6.61056 | 79° | 82km/h | 10448m | -8.0m/s | -54.1°C | 49.1% | 255.2hPa | 2.4V | 00:00:00 | 00:00:00 | 00:00:00 | |
| DL1XH-15 | 2026-09-02 02:02:40 | 52.12011 | 6.60855 | 78° | 84km/h | 10493m | -7.4m/s | -54.5°C | 57.1% | 253.3hPa | 2.4V | 07:55:32 | 02:46:05 | 00:00:00 | |
| BIOWL1-15 | 2026-09-02 02:02:37 | 52.12019 | 6.60922 | 79° | 84km/h | 10479m | -7.3m/s | -54.4°C | 59.6% | 253.9hPa | 2.5V | 07:55:52 | 02:46:07 | 00:00:00 | |
| DL1XH-west | 2026-09-02 02:02:35 | 52.12011 | 6.60855 | 78° | 84km/h | 10493m | -7.4m/s | -54.5°C | 59.9% | 253.3hPa | 2.4V | 07:55:52 | 02:46:05 | 00:00:00 | |
| DO3DL | 2026-09-02 02:02:34 | 52.12011 | 6.60855 | 79° | 84km/h | 10494m | -7.4m/s | -54.5°C | 50.8% | 253.3hPa | 2.4V | 07:55:00 | 00:00:00 | 00:00:00 | |
| DF5WG-10 | 2026-09-02 02:02:33 | 52.12002 | 6.60788 | 78° | 82km/h | 10509m | -7.5m/s | -54.6°C | 57.8% | 252.7hPa | 2.4V | 00:00:00 | 02:46:03 | 00:00:00 | |
| DL3AQ-11 | 2026-09-02 02:02:32 | 52.11997 | 6.60755 | 77° | 82km/h | 10516m | -7.4m/s | -54.7°C | 51.5% | 252.5hPa | 2.4V | 00:00:00 | 00:00:00 | 00:00:00 | |
| DH3RM | 2026-09-02 02:02:29 | 52.11988 | 6.60688 | 78° | 84km/h | 10531m | -7.6m/s | -54.9°C | 51.3% | 251.9hPa | 2.4V | 07:55:00 | 00:00:00 | 00:00:00 | |
| DL1XH-15 | 2026-09-02 02:02:28 | 52.11964 | 6.60488 | 78° | 82km/h | 10577m | -7.2m/s | -55.3°C | 59.9% | 250.2hPa | 2.4V | 07:55:43 | 02:45:54 | 00:00:00 | |
| BIOWL1-15 | 2026-09-02 02:02:27 | 52.11976 | 6.60587 | 79° | 82km/h | 10554m | -7.5m/s | -55.1°C | 61.8% | 251hPa | 2.4V | 07:55:52 | 02:45:57 | 00:00:00 | |
| DL1XH-west | 2026-09-02 02:02:24 | 52.11964 | 6.60488 | 79° | 82km/h | 10577m | -7.2m/s | -55.3°C | 62.6% | 250.2hPa | 2.4V | 07:55:52 | 02:45:54 | 00:00:00 | |
| BIOWL1-15 | 2026-09-02 02:02:16 | 52.11925 | 6.60221 | 75° | 84km/h | 10634m | -6.8m/s | -55.8°C | 63.5% | 247.9hPa | 2.4V | 07:55:52 | 02:45:46 | 00:00:00 | |
| DL1XH-west | 2026-09-02 02:02:14 | 52.11915 | 6.60154 | 76° | 84km/h | 10647m | -6.7m/s | -56°C | 63.5% | 247.4hPa | 2.5V | 07:56:43 | 02:45:44 | 00:00:00 | |
| DO2JMG | 2026-09-02 02:02:13 | 52.11909 | 6.60120 | 76° | 84km/h | 10654m | -6.9m/s | -56°C | 63.5% | 247.1hPa | 2.5V | 07:56:43 | 02:45:43 | 00:00:00 | |
| DF5WG-10 | 2026-09-02 02:02:13 | 52.11909 | 6.60120 | 76° | 86km/h | 10654m | -6.8m/s | -56.0°C | 61.2% | 247.0hPa | 2.4V | 07:55:00 | 02:45:43 | 00:00:00 | |
| DM0DOS-11 | 2026-09-02 02:02:12 | 52.11889 | 6.59985 | 75° | 86km/h | 10681m | -6.8m/s | -56.3°C | 61.1% | 246.1hPa | 2.4V | 07:55:58 | 02:45:39 | 00:00:00 | |
| BIOWL1-15 | 2026-09-02 02:02:05 | 52.11867 | 6.59847 | 76° | 88km/h | 10709m | -6.9m/s | -56.5°C | 63% | 245.1hPa | 2.4V | 07:56:43 | 02:45:35 | 00:00:00 | |
| DL1XH-west | 2026-09-02 02:02:03 | 52.11856 | 6.59778 | 76° | 88km/h | 10722m | -6.5m/s | -56.7°C | 62.5% | 244.5hPa | 2.4V | 07:56:43 | 02:45:33 | 00:00:00 | |
| DF5WG-10 | 2026-09-02 02:02:03 | 52.11856 | 6.59777 | 76° | 86km/h | 10722m | -6.5m/s | -56.6°C | 60.1% | 244.4hPa | 2.4V | 00:00:00 | 02:45:33 | 00:00:00 | |
| WPPR-10 | 2026-09-02 02:02:02 | 52.11851 | 6.59743 | 75° | 86km/h | 10728m | -6.5m/s | -56.7°C | 53.0% | 244.2hPa | 2.4V | 00:00:00 | 00:00:00 | 00:00:00 | |
| GOEST3-10 | 2026-09-02 02:02:01 | 52.11845 | 6.59709 | 75° | 86km/h | 10735m | -6.4m/s | -56.7°C | 59.5% | 243.9hPa | 2.4V | 00:00:00 | 02:45:31 | 00:00:00 | |
| DM0DOS-11 | 2026-09-02 02:02:00 | 52.11834 | 6.59641 | 74° | 86km/h | 10747m | -6.2m/s | -56.9°C | 59% | 243.5hPa | 2.4V | 07:56:08 | 02:45:29 | 00:00:00 | |
| BIOWL1-15 | 2026-09-02 02:01:54 | 52.11804 | 6.59471 | 75° | 86km/h | 10779m | -6m/s | -57.2°C | 60.1% | 242.2hPa | 2.4V | 07:56:43 | 02:45:24 | 00:00:00 | |
| DL1XH-west | 2026-09-02 02:01:52 | 52.11793 | 6.59403 | 75° | 86km/h | 10791m | -6.1m/s | -57.3°C | 59.6% | 241.8hPa | 2.4V | 07:56:43 | 02:45:22 | 00:00:00 | |
| BIOWL1-15 | 2026-09-02 02:01:46 | 52.11750 | 6.59134 | 77° | 84km/h | 10841m | -6.2m/s | -57.8°C | 59.7% | 239.9hPa | 2.5V | 07:56:43 | 02:45:14 | 00:00:00 | |
| DL8DAS-14 | 2026-09-02 02:01:44 | 52.11750 | 6.59134 | 76° | 82km/h | 10841m | -6.2m/s | -57.8°C | 51.0% | 239.9hPa | 2.5V | 00:00:00 | 00:00:00 | 00:00:00 | |
| DF5WG-10 | 2026-09-02 02:01:43 | 52.11745 | 6.59100 | 77° | 86km/h | 10848m | -6.1m/s | -57.8°C | 57.8% | 239.6hPa | 2.5V | 00:00:00 | 02:45:13 | 00:00:00 | |
| DM0DOS-11 | 2026-09-02 02:01:42 | 52.11726 | 6.58965 | 76° | 86km/h | 10874m | -6.7m/s | -58.1°C | 57.3% | 238.7hPa | 2.5V | 07:56:28 | 02:45:09 | 00:00:00 | |
| DL1XH-west | 2026-09-02 02:01:42 | 52.11740 | 6.59067 | 77° | 84km/h | 10854m | -6.6m/s | -57.9°C | 59.5% | 239.4hPa | 2.4V | 07:56:43 | 02:45:12 | 00:00:00 | |
| DO2JMG | 2026-09-02 02:01:41 | 52.11735 | 6.59033 | 77° | 84km/h | 10861m | -6.5m/s | -57.9°C | 59.4% | 239.2hPa | 2.4V | 07:56:43 | 02:45:11 | 00:00:00 | |
| BIOWL1-15 | 2026-09-02 02:01:34 | 52.11697 | 6.58759 | 78° | 84km/h | 10912m | -6.2m/s | -58.5°C | 58.2% | 237.3hPa | 2.5V | 07:56:43 | 02:45:03 | 00:00:00 | |
| DF5WG-10 | 2026-09-02 02:01:33 | 52.11697 | 6.58759 | 78° | 84km/h | 10912m | -6.1m/s | -58.5°C | 57.4% | 237.2hPa | 2.4V | 00:00:00 | 02:45:03 | 00:00:00 | |
| DM0DOS-11 | 2026-09-02 02:01:32 | 52.11678 | 6.58624 | 77° | 84km/h | 10937m | -6m/s | -58.7°C | 56.7% | 236.3hPa | 2.4V | 07:56:38 | 02:44:59 | 00:00:00 | |
| DL1XH-west | 2026-09-02 02:01:32 | 52.11692 | 6.58726 | 78° | 84km/h | 10918m | -6.3m/s | -58.6°C | 57.9% | 237.1hPa | 2.5V | 07:56:43 | 02:45:02 | 00:00:00 | |
| DO2JMG | 2026-09-02 02:01:31 | 52.11688 | 6.58692 | 77° | 84km/h | 10925m | -6.4m/s | -58.6°C | 57.5% | 236.8hPa | 2.4V | 07:56:43 | 02:45:01 | 00:00:00 | |
| GOEST3-10 | 2026-09-02 02:01:31 | 52.11688 | 6.58692 | 78° | 84km/h | 10925m | -6.4m/s | -58.6°C | 57.1% | 236.7hPa | 2.5V | 00:00:00 | 02:45:01 | 00:00:00 | |
| DH3RM | 2026-09-02 02:01:30 | 52.11683 | 6.58658 | 78° | 86km/h | 10931m | -6.3m/s | -58.7°C | 49.9% | 236.5hPa | 2.5V | 07:56:00 | 00:00:00 | 00:00:00 | |
| DL3AQ-11 | 2026-09-02 02:01:29 | 52.11674 | 6.58590 | 77° | 84km/h | 10943m | -6.0m/s | -58.8°C | 49.1% | 236.1hPa | 2.5V | 00:00:00 | 00:00:00 | 00:00:00 | |
| DO9LL-15 | 2026-09-02 02:01:26 | 52.11664 | 6.58521 | 77° | 84km/h | 10955m | -5.9m/s | -58.8°C | 56.0% | 235.6hPa | 2.5V | 00:00:00 | 02:44:56 | 00:00:00 | |
| DM0DOS-11 | 2026-09-02 02:01:23 | 52.11629 | 6.58284 | 77° | 84km/h | 10996m | -5.6m/s | -59.2°C | 53.9% | 234.1hPa | 2.4V | 07:56:48 | 02:44:49 | 00:00:00 | |
| DL1XH-west | 2026-09-02 02:01:22 | 52.11644 | 6.58386 | 77° | 84km/h | 10979m | -6m/s | -59.1°C | 54.6% | 234.8hPa | 2.4V | 07:57:34 | 02:44:52 | 00:00:00 | |
| DO2JMG | 2026-09-02 02:01:20 | 52.11634 | 6.58318 | 77° | 86km/h | 10990m | -5.5m/s | -59.2°C | 53.8% | 234.3hPa | 2.5V | 07:57:34 | 02:44:50 | 00:00:00 | |
| DL1ZP-14 | 2026-09-02 02:01:20 | 52.11630 | 6.58284 | 77° | 84km/h | 10996m | -5.6m/s | -59.3°C | 46.7% | 234.1hPa | 2.4V | 00:00:00 | 00:00:00 | 00:00:00 | |
| DB0UT-7 | 2026-09-02 02:01:18 | 52.11625 | 6.58250 | 77° | 80km/h | 11001m | -5.6m/s | -59.2°C | 53.7% | 233.8hPa | 2.5V | 00:00:00 | 00:00:00 | 00:00:00 | |
| WEDDY | 2026-09-02 02:01:17 | 52.11625 | 6.58250 | 77° | 86km/h | 11001m | -5.7m/s | -59.3°C | 46.4% | 233.9hPa | 2.5V | 07:57:00 | 00:00:00 | 00:00:00 | |
| GOEST3-10 | 2026-09-02 02:01:16 | 52.11614 | 6.58182 | 76° | 86km/h | 11012m | -5.3m/s | -59.3°C | 53.3% | 233.4hPa | 2.5V | 00:00:00 | 00:00:00 | 00:00:00 | |
| DF5WG-10 | 2026-09-02 02:01:13 | 52.11598 | 6.58078 | 76° | 84km/h | 11029m | -5.9m/s | -59.4°C | 52.7% | 232.8hPa | 2.5V | 00:00:00 | 02:44:43 | 00:00:00 | |
| DM0DOS-11 | 2026-09-02 02:01:12 | 52.11578 | 6.57942 | 77° | 82km/h | 11052m | -5.4m/s | -59.6°C | 52.3% | 231.9hPa | 2.5V | 07:56:58 | 02:44:39 | 00:00:00 | |
| DL1XH-west | 2026-09-02 02:01:12 | 52.11593 | 6.58043 | 76° | 86km/h | 11035m | -6.1m/s | -59.5°C | 50.4% | 232.6hPa | 2.4V | 07:57:34 | 02:44:42 | 00:00:00 | |
| DO2JMG | 2026-09-02 02:01:10 | 52.11583 | 6.57975 | 77° | 84km/h | 11047m | -6m/s | -59.6°C | 49.5% | 232.2hPa | 2.5V | 07:57:34 | 02:44:40 | 00:00:00 | |
| DC6BW-12 | 2026-09-02 02:01:09 | 52.11582 | 6.57975 | 78° | 84km/h | 11047m | -6.0m/s | -59.6°C | 45.1% | 232.2hPa | 2.4V | 07:57:00 | 00:00:00 | 00:00:00 | |
| DJ3KS | 2026-09-02 02:01:08 | 52.11578 | 6.57942 | 79° | 82km/h | 11052m | -5.4m/s | -59.6°C | 44.9% | 232.0hPa | 2.4V | 00:00:00 | 00:00:00 | 00:00:00 | |
| DD1CC8 | 2026-09-02 02:01:07 | 52.11566 | 6.57842 | 80° | 80km/h | 11069m | -5.8m/s | -59.7°C | 43.6% | 231.4hPa | 2.4V | 00:00:00 | 00:00:00 | 00:00:00 | |
| GOEST3-10 | 2026-09-02 02:01:06 | 52.11566 | 6.57842 | 81° | 80km/h | 11070m | -5.7m/s | -59.7°C | 51.0% | 231.3hPa | 2.4V | 07:57:00 | 00:00:00 | 00:00:00 | |
| DD1CC2-15 | 2026-09-02 02:01:03 | 52.11556 | 6.57743 | 82° | 80km/h | 11087m | -5.8m/s | -59.8°C | 42.4% | 230.7hPa | 2.4V | 07:57:00 | 00:00:00 | 00:00:00 | |
| DM0DOS-11 | 2026-09-02 02:01:02 | 52.11544 | 6.57613 | 81° | 78km/h | 11110m | -6.2m/s | -59.9°C | 47.3% | 229.8hPa | 2.4V | 07:57:08 | 02:44:29 | 00:00:00 | |
| DL1XH-west | 2026-09-02 02:01:01 | 52.11550 | 6.57677 | 81° | 80km/h | 11098m | -5.9m/s | -59.8°C | 44.7% | 230.2hPa | 2.4V | 07:57:34 | 02:44:31 | 00:00:00 | |
| DO2JMG | 2026-09-02 02:00:59 | 52.11544 | 6.57613 | 82° | 78km/h | 11111m | -6.2m/s | -59.9°C | 43.5% | 229.8hPa | 2.4V | 07:57:34 | 02:44:29 | 00:00:00 | |
| BIOWL1-15 | 2026-09-02 02:00:53 | 52.11525 | 6.57338 | 86° | 73km/h | 11166m | -6.3m/s | -58.7°C | 37.4% | 227.9hPa | 2.4V | 07:57:34 | 02:44:20 | 00:00:00 | |
| DJ2KF-10 | 2026-09-02 02:00:53 | 52.11529 | 6.57428 | 85° | 75km/h | 11147m | -6.0m/s | -58.8°C | 39.5% | 228.4hPa | 2.4V | 00:00:00 | 02:44:23 | 00:00:00 | |
| DM0DOS-11 | 2026-09-02 02:00:52 | 52.11523 | 6.57308 | 86° | 73km/h | 11172m | -6.1m/s | -58.8°C | 37.2% | 227.6hPa | 2.4V | 07:57:18 | 02:44:19 | 00:00:00 | |
| DL1XH-west | 2026-09-02 02:00:51 | 52.11526 | 6.57368 | 85° | 73km/h | 11159m | -6.3m/s | -58.7°C | 37.9% | 228hPa | 2.5V | 07:57:34 | 02:44:21 | 00:00:00 | |
| DO2JMG | 2026-09-02 02:00:48 | 52.11522 | 6.57278 | 87° | 73km/h | 11178m | -5.9m/s | -58.8°C | 36.2% | 227.4hPa | 2.4V | 07:57:34 | 02:44:18 | 00:00:00 | |
| DL3AQ-11 | 2026-09-02 02:00:48 | 52.11521 | 6.57248 | 85° | 73km/h | 11184m | -5.9m/s | -58.7°C | 30.2% | 227.2hPa | 2.4V | 00:00:00 | 00:00:00 | 00:00:00 | |
| GOEST3-10 | 2026-09-02 02:00:47 | 52.11520 | 6.57218 | 86° | 73km/h | 11190m | -6.0m/s | -58.7°C | 35.9% | 226.9hPa | 2.4V | 00:00:00 | 00:00:00 | 00:00:00 | |
| DF5WG-10 | 2026-09-02 02:00:45 | 52.11518 | 6.57188 | 86° | 75km/h | 11196m | -6.1m/s | -58.6°C | 35.1% | 226.7hPa | 2.4V | 07:57:00 | 02:44:15 | 00:00:00 | |
| DM0DOS-11 | 2026-09-02 02:00:42 | 52.11508 | 6.57008 | 84° | 75km/h | 11231m | -6m/s | -58.4°C | 31.4% | 225.5hPa | 2.4V | 07:57:28 | 02:44:09 | 00:00:00 | |
| BIOWL1-15 | 2026-09-02 02:00:41 | 52.11508 | 6.57008 | 85° | 75km/h | 11231m | -6m/s | -58.4°C | 30.8% | 225.5hPa | 2.4V | 07:57:34 | 02:44:09 | 00:00:00 | |
| DL1XH-west | 2026-09-02 02:00:40 | 52.11510 | 6.57039 | 84° | 75km/h | 11225m | -5.6m/s | -58.4°C | 31.3% | 225.7hPa | 2.5V | 07:57:34 | 02:44:10 | 00:00:00 | |
| DO2JMG | 2026-09-02 02:00:38 | 52.11507 | 6.56977 | 85° | 75km/h | 11237m | -5.7m/s | -58.4°C | 30.3% | 225.3hPa | 2.4V | 07:57:34 | 02:44:08 | 00:00:00 | |
| DL8DAS-15 | 2026-09-02 02:00:37 | 52.11506 | 6.56977 | 86° | 75km/h | 11237m | -5.7m/s | -58.4°C | 25.3% | 225.3hPa | 2.5V | 00:00:00 | 00:00:00 | 00:00:00 | |
| DD1CC8 | 2026-09-02 02:00:36 | 52.11503 | 6.56884 | 86° | 75km/h | 11254m | -5.5m/s | -58.3°C | 0% | 224.7hPa | 2.5V | 00:00:00 | 00:00:00 | 00:00:00 | |
| DF5WG-10 | 2026-09-02 02:00:35 | 52.11503 | 6.56884 | 87° | 77km/h | 11254m | -5.5m/s | -58.2°C | 29.7% | 224.6hPa | 2.5V | 00:00:00 | 02:44:05 | 00:00:00 | |
| DH3RM | 2026-09-02 02:00:33 | 52.11501 | 6.56853 | 88° | 77km/h | 11260m | -5.8m/s | -58.3°C | 24.0% | 224.4hPa | 2.5V | 07:57:00 | 00:00:00 | 00:00:00 | |
| DM0DOS-11 | 2026-09-02 02:00:32 | 52.11497 | 6.56694 | 87° | 77km/h | 11289m | -5.8m/s | -58.4°C | 28% | 223.4hPa | 2.5V | 07:57:38 | 02:43:59 | 00:00:00 | |
| BIOWL1-15 | 2026-09-02 02:00:30 | 52.11496 | 6.56663 | 87° | 75km/h | 11294m | -5.7m/s | -58.3°C | 26.4% | 223.2hPa | 2.5V | 07:58:25 | 02:43:58 | 00:00:00 | |
| DL1XH-west | 2026-09-02 02:00:30 | 52.11498 | 6.56726 | 87° | 77km/h | 11283m | -5.8m/s | -58.4°C | 27.2% | 223.6hPa | 2.4V | 07:58:25 | 02:44:00 | 00:00:00 | |
| DO2JMG | 2026-09-02 02:00:27 | 52.11495 | 6.56632 | 87° | 75km/h | 11300m | -5.8m/s | -58.3°C | 25.9% | 223hPa | 2.4V | 07:58:25 | 02:43:57 | 00:00:00 | |
| BIOWL1-15 | 2026-09-02 02:00:25 | 52.11483 | 6.56371 | 85° | 71km/h | 11352m | -5.7m/s | -57.6°C | 21.8% | 221.2hPa | 2.5V | 07:58:25 | 02:43:48 | 00:00:00 | |
| DF5WG-10 | 2026-09-02 02:00:25 | 52.11493 | 6.56572 | 87° | 71km/h | 11312m | -5.7m/s | -58.3°C | 26.5% | 222.6hPa | 2.4V | 00:00:00 | 02:43:55 | 00:00:00 | |
| DO1YAY-16 | 2026-09-02 02:00:24 | 52.11490 | 6.56514 | 85° | 69km/h | 11324m | -6.0m/s | -58.3°C | 20.3% | 222.2hPa | 2.4V | 00:00:00 | 00:00:00 | 00:00:00 | |
| DJ2KF-10 | 2026-09-02 02:00:23 | 52.11490 | 6.56514 | 86° | 71km/h | 11324m | -5.9m/s | -58.2°C | 25.5% | 222.1hPa | 2.4V | 00:00:00 | 02:43:53 | 00:00:00 | |
| DM0DOS-11 | 2026-09-02 02:00:22 | 52.11484 | 6.56399 | 85° | 69km/h | 11346m | -5.8m/s | -57.7°C | 22.9% | 221.4hPa | 2.4V | 07:57:48 | 02:43:49 | 00:00:00 | |
| DL1XH-west | 2026-09-02 02:00:19 | 52.11484 | 6.56399 | 85° | 69km/h | 11346m | -5.8m/s | -57.7°C | 22.2% | 221.4hPa | 2.4V | 07:58:25 | 02:43:49 | 00:00:00 | |
| DO2JMG | 2026-09-02 02:00:16 | 52.11479 | 6.56313 | 85° | 71km/h | 11364m | -5.9m/s | -57.6°C | 21.4% | 220.8hPa | 2.4V | 07:58:25 | 02:43:46 | 00:00:00 | |
| GOEST3-10 | 2026-09-02 02:00:16 | 52.11479 | 6.56313 | 85° | 71km/h | 11364m | -5.8m/s | -57.5°C | 22.4% | 220.7hPa | 2.4V | 00:00:00 | 00:00:00 | 00:00:00 | |
| DF5WG-10 | 2026-09-02 02:00:15 | 52.11477 | 6.56284 | 85° | 73km/h | 11369m | -5.7m/s | -57.4°C | 22.1% | 220.5hPa | 2.4V | 00:00:00 | 02:43:45 | 00:00:00 | |
| DH3RM | 2026-09-02 02:00:14 | 52.11477 | 6.56284 | 85° | 71km/h | 11369m | -5.8m/s | -57.4°C | 17.3% | 220.6hPa | 2.4V | 07:58:00 | 00:00:00 | 00:00:00 | |
| DM0DOS-11 | 2026-09-02 02:00:12 | 52.11465 | 6.56106 | 84° | 73km/h | 11404m | -5.6m/s | -56.7°C | 20.1% | 219.4hPa | 2.4V | 07:57:58 | 02:43:39 | 00:00:00 | |
| DL1XH-west | 2026-09-02 02:00:08 | 52.11464 | 6.56076 | 84° | 73km/h | 11410m | -5.8m/s | -56.8°C | 19.9% | 219.1hPa | 2.4V | 07:58:25 | 02:43:38 | 00:00:00 | |
| DO2JMG | 2026-09-02 02:00:07 | 52.11461 | 6.56017 | 85° | 71km/h | 11421m | -6.1m/s | -56.8°C | 19.8% | 218.8hPa | 2.5V | 07:58:25 | 02:43:36 | 00:00:00 | |
| GOEST3-10 | 2026-09-02 02:00:07 | 52.11460 | 6.56017 | 86° | 73km/h | 11421m | -6.0m/s | -56.8°C | 20.0% | 218.8hPa | 2.4V | 00:00:00 | 00:00:00 | 00:00:00 | |
| DF5WG-10 | 2026-09-02 02:00:05 | 52.11459 | 6.55987 | 86° | 73km/h | 11427m | -5.7m/s | -56.8°C | 20.1% | 218.6hPa | 2.4V | 00:00:00 | 02:43:35 | 00:00:00 | |
| DD1CC8 | 2026-09-02 02:00:04 | 52.11458 | 6.55958 | 86° | 71km/h | 11433m | -5.7m/s | -56.9°C | 15.6% | 218.4hPa | 2.4V | 00:00:00 | 00:00:00 | 00:00:00 | |
| DM0DOS-11 | 2026-09-02 02:00:01 | 52.11453 | 6.55809 | 87° | 73km/h | 11462m | -5.8m/s | -56.3°C | 18.9% | 217.3hPa | 2.4V | 07:58:08 | 02:43:29 | 00:00:00 | |
| DL1XH-west | 2026-09-02 01:59:57 | 52.11452 | 6.55750 | 89° | 71km/h | 11473m | -5.8m/s | -56.3°C | 18.5% | 217.1hPa | 2.4V | 07:58:25 | 02:43:27 | 00:00:00 | |
| DO2JMG | 2026-09-02 01:59:55 | 52.11451 | 6.55691 | 90° | 71km/h | 11485m | -6m/s | -56.3°C | 18.2% | 216.6hPa | 2.5V | 07:58:25 | 02:43:25 | 00:00:00 | |
| DL3AQ-11 | 2026-09-02 01:59:52 | 52.11451 | 6.55573 | 90° | 71km/h | 11508m | -6.0m/s | -56.4°C | 13.6% | 215.8hPa | 2.5V | 00:00:00 | 00:00:00 | 00:00:00 | |
| DM0DOS-11 | 2026-09-02 01:59:51 | 52.11452 | 6.55514 | 90° | 73km/h | 11520m | -5.9m/s | -56.3°C | 17.2% | 215.4hPa | 2.5V | 07:58:18 | 02:43:19 | 00:00:00 | |
| DL1XH-west | 2026-09-02 01:59:47 | 52.11453 | 6.55453 | 92° | 75km/h | 11531m | -5.8m/s | -56.3°C | 16.3% | 215hPa | 2.4V | 07:58:25 | 02:43:17 | 00:00:00 | |
| BIOWL1-15 | 2026-09-02 01:59:46 | 52.11453 | 6.55422 | 92° | 75km/h | 11538m | -6.2m/s | -56.4°C | 16.1% | 214.8hPa | 2.4V | 07:58:25 | 02:43:16 | 00:00:00 | |
| DO2JMG | 2026-09-02 01:59:44 | 52.11455 | 6.55360 | 92° | 77km/h | 11549m | -6m/s | -56.3°C | 15.5% | 214.4hPa | 2.5V | 07:58:25 | 02:43:14 | 00:00:00 | |
| DL1XH-west | 2026-09-02 01:59:36 | 52.11463 | 6.55102 | 93° | 77km/h | 11596m | -6m/s | -56°C | 13% | 212.9hPa | 2.4V | 07:59:16 | 02:43:06 | 00:00:00 | |
| BIOWL1-15 | 2026-09-02 01:59:35 | 52.11464 | 6.55070 | 92° | 77km/h | 11602m | -5.8m/s | -55.9°C | 12.6% | 212.7hPa | 2.4V | 07:59:16 | 02:43:05 | 00:00:00 | |
| DO2JMG | 2026-09-02 01:59:34 | 52.11464 | 6.55039 | 92° | 77km/h | 11608m | -5.9m/s | -55.9°C | 12.4% | 212.4hPa | 2.4V | 07:59:16 | 02:43:04 | 00:00:00 | |
| DL1XH-west | 2026-09-02 01:59:25 | 52.11467 | 6.54758 | 91° | 75km/h | 11661m | -6.3m/s | -55.4°C | 9.7% | 210.7hPa | 2.4V | 07:59:16 | 02:42:55 | 00:00:00 | |
| DO2JMG | 2026-09-02 01:59:23 | 52.11467 | 6.54697 | 91° | 75km/h | 11673m | -5.9m/s | -55.3°C | 9.4% | 210.3hPa | 2.4V | 07:59:16 | 02:42:53 | 00:00:00 | |
| DL1XH-west | 2026-09-02 01:59:14 | 52.11473 | 6.54428 | 94° | 73km/h | 11728m | -6.3m/s | -55.2°C | 7.6% | 208.5hPa | 2.4V | 07:59:16 | 02:42:44 | 00:00:00 | |
| DO2JMG | 2026-09-02 01:59:13 | 52.11474 | 6.54398 | 95° | 73km/h | 11734m | -6.1m/s | -55.2°C | 7.5% | 208.3hPa | 2.4V | 07:59:16 | 02:42:43 | 00:00:00 | |
| BIOWL1-15 | 2026-09-02 01:59:08 | 52.11485 | 6.54118 | 93° | 78km/h | 11790m | -6.3m/s | -54.3°C | 6% | 206.5hPa | 2.5V | 07:59:16 | 02:42:34 | 00:00:00 | |
| DL1XH-west | 2026-09-02 01:59:03 | 52.11486 | 6.54085 | 93° | 78km/h | 11796m | -6.4m/s | -54.2°C | 6% | 206.3hPa | 2.5V | 07:59:16 | 02:42:33 | 00:00:00 | |
| DO2JMG | 2026-09-02 01:59:02 | 52.11487 | 6.54053 | 94° | 78km/h | 11802m | -6.5m/s | -54.1°C | 5.9% | 206.1hPa | 2.4V | 07:59:16 | 02:42:32 | 00:00:00 | |
| DL1XH-west | 2026-09-02 01:58:53 | 52.11503 | 6.53776 | 97° | 73km/h | 11860m | -6.7m/s | -53.7°C | 5.3% | 204.2hPa | 2.5V | 07:59:16 | 02:42:23 | 00:00:00 | |
| DO2JMG | 2026-09-02 01:58:51 | 52.11508 | 6.53716 | 97° | 71km/h | 11873m | -6.5m/s | -53.5°C | 5.2% | 203.8hPa | 2.4V | 07:59:16 | 02:42:21 | 00:00:00 | |
| DM0DOS-11 | 2026-09-02 01:58:51 | 52.11512 | 6.53660 | 97° | 68km/h | 11886m | -6.9m/s | -53.3°C | 7% | 203.4hPa | 2.4V | 07:59:18 | 02:42:19 | 00:00:00 | |
| MET0W-2 | 2026-09-02 01:58:48 | 52.11517 | 6.53605 | 98° | 66km/h | 11899m | -6.6m/s | -53.3°C | 4.2% | 202.9hPa | 2.4V | 00:00:00 | 00:00:00 | 00:00:00 | |
| SONCRA | 2026-09-02 01:58:47 | 52.11517 | 6.53605 | 98° | 66km/h | 11899m | -6.6m/s | -53.3°C | 4.2% | 202.9hPa | 2.4V | 00:00:00 | 00:00:00 | 00:00:00 | |
| BIOWL9-15 | 2026-09-02 01:58:46 | 52.11521 | 6.53552 | 97° | 66km/h | 11912m | -6.5m/s | -53.2°C | 4.1% | 202.5hPa | 2.4V | 00:00:00 | 00:00:00 | 00:00:00 | |
| DL1ZP-14 | 2026-09-02 01:58:45 | 52.11524 | 6.53525 | 97° | 66km/h | 11919m | -6.7m/s | -53.2°C | 4.0% | 202.3hPa | 2.4V | 00:00:00 | 00:00:00 | 00:00:00 | |
| DL1XH-west | 2026-09-02 01:58:43 | 52.11526 | 6.53498 | 96° | 68km/h | 11925m | -6.9m/s | -53.2°C | 4.5% | 202.1hPa | 2.4V | 08:00:07 | 02:42:13 | 00:00:00 | |
| BIOWL1-15 | 2026-09-02 01:58:42 | 52.11528 | 6.53470 | 97° | 68km/h | 11932m | -6.6m/s | -53.2°C | 4.5% | 201.9hPa | 2.5V | 08:00:07 | 02:42:12 | 00:00:00 | |
| DM0DOS-11 | 2026-09-02 01:58:41 | 52.11533 | 6.53386 | 95° | 69km/h | 11952m | -7m/s | -53.3°C | 6.6% | 201.3hPa | 2.4V | 07:59:28 | 02:42:09 | 00:00:00 | |
| DO2JMG | 2026-09-02 01:58:40 | 52.11531 | 6.53414 | 96° | 69km/h | 11945m | -6.9m/s | -53.3°C | 4.4% | 201.5hPa | 2.4V | 08:00:07 | 02:42:10 | 00:00:00 | |
| DL8DAS-14 | 2026-09-02 01:58:38 | 52.11534 | 6.53357 | 94° | 68km/h | 11959m | -6.8m/s | -53.3°C | 3.8% | 201.1hPa | 2.4V | 00:00:00 | 00:00:00 | 00:00:00 | |
| BIOWL7-15 | 2026-09-02 01:58:37 | 52.11534 | 6.53357 | 96° | 69km/h | 11959m | -6.8m/s | -53.3°C | 3.8% | 201.1hPa | 2.4V | 08:00:00 | 00:00:00 | 00:00:00 | |
| DL1XH-15 | 2026-09-02 01:58:36 | 52.11539 | 6.53161 | 90° | 68km/h | 12007m | -6.9m/s | -52.8°C | 6% | 199.6hPa | 2.4V | 07:59:36 | 02:42:01 | 00:00:00 | |
| GOEST3-10 | 2026-09-02 01:58:36 | 52.11536 | 6.53301 | 94° | 68km/h | 11973m | -7.1m/s | -53.1°C | 6.4% | 200.6hPa | 2.5V | 00:00:00 | 00:00:00 | 00:00:00 | |
| DF5WG-10 | 2026-09-02 01:58:35 | 52.11537 | 6.53272 | 93° | 69km/h | 11980m | -7.0m/s | -53.0°C | 6.4% | 200.5hPa | 2.5V | 00:00:00 | 02:42:05 | 00:00:00 | |
| DM0DOS-11 | 2026-09-02 01:58:34 | 52.11539 | 6.53104 | 91° | 69km/h | 12020m | -6.7m/s | -52.7°C | 6% | 199.2hPa | 2.5V | 07:59:38 | 02:41:59 | 00:00:00 | |
| BIOWL1-15 | 2026-09-02 01:58:33 | 52.11539 | 6.53161 | 91° | 68km/h | 12007m | -6.9m/s | -52.8°C | 3.7% | 199.6hPa | 2.4V | 08:00:07 | 02:42:01 | 00:00:00 | |
| DL1XH-west | 2026-09-02 01:58:32 | 52.11539 | 6.53188 | 91° | 68km/h | 12000m | -6.7m/s | -52.9°C | 3.8% | 199.8hPa | 2.4V | 08:00:07 | 02:42:02 | 00:00:00 | |
| DO2JMG | 2026-09-02 01:58:30 | 52.11539 | 6.53133 | 91° | 68km/h | 12014m | -6.9m/s | -52.7°C | 3.7% | 199.5hPa | 2.5V | 08:00:07 | 02:42:00 | 00:00:00 | |
| BIOWL1-15 | 2026-09-02 01:58:22 | 52.11546 | 6.52835 | 93° | 75km/h | 12081m | -7m/s | -52.3°C | 3.2% | 197.4hPa | 2.4V | 08:00:07 | 02:41:50 | 00:00:00 | |
| DL1XH-west | 2026-09-02 01:58:22 | 52.11544 | 6.52897 | 93° | 75km/h | 12067m | -6.9m/s | -52.7°C | 3.3% | 197.8hPa | 2.4V | 08:00:07 | 02:41:52 | 00:00:00 | |
| DL4BBY-15 | 2026-09-02 01:58:22 | 52.11543 | 6.52897 | 93° | 86km/h | 12068m | -6.8m/s | -53.1°C | 0% | 0hPa | 2.5V | 00:00:00 | 00:00:00 | 00:00:00 | |
| DM0DOS-11 | 2026-09-02 01:58:21 | 52.11547 | 6.52804 | 92° | 77km/h | 12087m | -7m/s | -52.2°C | 5.5% | 197.2hPa | 2.5V | 07:59:48 | 02:41:49 | 00:00:00 | |
| DO2JMG | 2026-09-02 01:58:19 | 52.11547 | 6.52804 | 93° | 77km/h | 12087m | -7m/s | -52.3°C | 3.1% | 197.2hPa | 2.5V | 08:00:07 | 02:41:49 | 00:00:00 | |
| DL1XH-west | 2026-09-02 01:58:12 | 52.11557 | 6.52577 | 96° | 82km/h | 12135m | -7.2m/s | -51.9°C | 2.8% | 195.7hPa | 2.5V | 08:00:07 | 02:41:42 | 00:00:00 | |
| GOEST3-10 | 2026-09-02 01:58:12 | 52.11556 | 6.52577 | 96° | 84km/h | 12135m | -7.2m/s | -51.9°C | 5.2% | 195.6hPa | 2.4V | 00:00:00 | 00:00:00 | 00:00:00 | |
| DM0DOS-11 | 2026-09-02 01:58:11 | 52.11563 | 6.52475 | 95° | 84km/h | 12156m | -6.9m/s | -52°C | 5.2% | 195hPa | 2.4V | 07:59:58 | 02:41:39 | 00:00:00 | |
| BIOWL1-15 | 2026-09-02 01:58:09 | 52.11563 | 6.52475 | 96° | 84km/h | 12156m | -6.9m/s | -52°C | 2.7% | 195hPa | 2.4V | 08:00:07 | 02:41:39 | 00:00:00 | |
| DO2JMG | 2026-09-02 01:58:09 | 52.11565 | 6.52440 | 96° | 86km/h | 12163m | -7m/s | -52°C | 2.7% | 194.8hPa | 2.5V | 08:00:07 | 02:41:38 | 00:00:00 | |
| DL3AQ-11 | 2026-09-02 01:58:08 | 52.11567 | 6.52405 | 95° | 86km/h | 12170m | -7.0m/s | -52.0°C | 2.7% | 194.6hPa | 2.5V | 00:00:00 | 00:00:00 | 00:00:00 | |
| GOEST3-10 | 2026-09-02 01:58:07 | 52.11567 | 6.52405 | 96° | 89km/h | 12170m | -7.0m/s | -52.0°C | 5.1% | 194.6hPa | 2.5V | 00:00:00 | 02:41:37 | 00:00:00 | |
| DD1CC9-15 | 2026-09-02 01:58:06 | 52.11567 | 6.52405 | 96° | 86km/h | 12170m | -7.0m/s | -52.0°C | 2.7% | 194.6hPa | 2.5V | 08:00:00 | 00:00:00 | 00:00:00 | |
| DF5WG-10 | 2026-09-02 01:58:05 | 52.11571 | 6.52333 | 95° | 91km/h | 12184m | -6.8m/s | -52.0°C | 5.1% | 194.1hPa | 2.5V | 00:00:00 | 02:41:35 | 00:00:00 | |
| DO3DL | 2026-09-02 01:58:04 | 52.11573 | 6.52296 | 96° | 91km/h | 12191m | -6.9m/s | -52.0°C | 2.7% | 194.0hPa | 2.5V | 08:00:00 | 00:00:00 | 00:00:00 | |
| DO2KSM | 2026-09-02 01:58:03 | 52.11573 | 6.52296 | 96° | 91km/h | 12191m | -6.9m/s | -52.0°C | 2.7% | 194.0hPa | 2.5V | 08:00:00 | 00:00:00 | 00:00:00 | |
| DL1XH-15 | 2026-09-02 01:58:02 | 52.11577 | 6.52221 | 95° | 93km/h | 12204m | -6.8m/s | -52°C | 5% | 193.6hPa | 2.5V | 08:00:05 | 02:41:32 | 00:00:00 | |
| DM0DOS-11 | 2026-09-02 01:58:01 | 52.11584 | 6.52107 | 96° | 93km/h | 12225m | -7.3m/s | -52°C | 5% | 193hPa | 2.4V | 08:00:08 | 02:41:29 | 00:00:00 | |
| DL1XH-west | 2026-09-02 01:58:01 | 52.11579 | 6.52183 | 96° | 93km/h | 12211m | -6.9m/s | -52°C | 2.4% | 193.4hPa | 2.5V | 08:00:07 | 02:41:31 | 00:00:00 | |
| BIOWL1-15 | 2026-09-02 01:57:58 | 52.11587 | 6.52069 | 96° | 91km/h | 12233m | -7.2m/s | -52°C | 2.4% | 192.8hPa | 2.4V | 08:00:58 | 02:41:28 | 00:00:00 | |
| GOEST3-10 | 2026-09-02 01:57:57 | 52.11589 | 6.52032 | 97° | 89km/h | 12240m | -7.2m/s | -52.0°C | 5.0% | 192.5hPa | 2.4V | 00:00:00 | 02:41:27 | 00:00:00 | |
| DO9LL-15 | 2026-09-02 01:57:56 | 52.11592 | 6.51994 | 97° | 80km/h | 12247m | -7.1m/s | -52.0°C | 4.9% | 192.3hPa | 2.4V | 00:00:00 | 02:41:26 | 00:00:00 | |
| DF5WG-10 | 2026-09-02 01:57:55 | 52.11595 | 6.51958 | 97° | 88km/h | 12254m | -7.0m/s | -52.0°C | 5.0% | 192.1hPa | 2.4V | 00:00:00 | 02:41:25 | 00:00:00 | |
| DM0DOS-11 | 2026-09-02 01:57:54 | 52.11610 | 6.51739 | 96° | 88km/h | 12296m | -6.8m/s | -51.9°C | 4.8% | 190.9hPa | 2.4V | 08:00:18 | 02:41:19 | 00:00:00 | |
| DL1XH-west | 2026-09-02 01:57:50 | 52.11608 | 6.51775 | 97° | 89km/h | 12289m | -7m/s | -52°C | 2.2% | 191.2hPa | 2.5V | 08:00:58 | 02:41:20 | 00:00:00 | |
| BIOWL1-15 | 2026-09-02 01:57:49 | 52.11615 | 6.51668 | 97° | 86km/h | 12309m | -7.1m/s | -51.6°C | 2.1% | 190.5hPa | 2.4V | 08:00:58 | 02:41:17 | 00:00:00 | |
| DO2JMG | 2026-09-02 01:57:48 | 52.11613 | 6.51703 | 97° | 88km/h | 12302m | -6.8m/s | -51.8°C | 2.2% | 190.8hPa | 2.4V | 08:00:58 | 02:41:18 | 00:00:00 | |
| DB0UT-7 | 2026-09-02 01:57:48 | 52.11613 | 6.51703 | 97° | 73km/h | 12303m | -6.8m/s | -51.8°C | 4.8% | 190.7hPa | 2.5V | 00:00:00 | 02:41:18 | 00:00:00 | |
| GOEST3-10 | 2026-09-02 01:57:47 | 52.11615 | 6.51668 | 97° | 84km/h | 12309m | -7.0m/s | -51.6°C | 4.7% | 190.5hPa | 2.5V | 00:00:00 | 02:41:17 | 00:00:00 | |
| DF5WG-10 | 2026-09-02 01:57:45 | 52.11620 | 6.51598 | 97° | 80km/h | 12323m | -6.8m/s | -51.4°C | 4.6% | 190.1hPa | 2.5V | 08:00:00 | 02:41:15 | 00:00:00 | |
| DD1CC3-15 | 2026-09-02 01:57:44 | 52.11620 | 6.51598 | 98° | 84km/h | 12323m | -6.9m/s | -51.5°C | 2.3% | 190.1hPa | 2.4V | 08:00:00 | 00:00:00 | 00:00:00 | |
| DL1ZP-14 | 2026-09-02 01:57:43 | 52.11627 | 6.51497 | 95° | 80km/h | 12344m | -6.9m/s | -51.6°C | 2.3% | 189.6hPa | 2.4V | 00:00:00 | 00:00:00 | 00:00:00 | |
| GOEST3-10 | 2026-09-02 01:57:42 | 52.11627 | 6.51497 | 96° | 78km/h | 12344m | -6.8m/s | -51.6°C | 4.6% | 189.5hPa | 2.5V | 00:00:00 | 00:00:00 | 00:00:00 | |
| DM0DOS-11 | 2026-09-02 01:57:41 | 52.11633 | 6.51400 | 95° | 77km/h | 12364m | -6.7m/s | -51.7°C | 4.6% | 188.9hPa | 2.5V | 08:00:28 | 02:41:09 | 00:00:00 | |
| DL1XH-west | 2026-09-02 01:57:40 | 52.11631 | 6.51432 | 96° | 78km/h | 12358m | -6.7m/s | -51.7°C | 1.9% | 189.1hPa | 2.4V | 08:00:58 | 02:41:10 | 00:00:00 | |
| BIOWL1-15 | 2026-09-02 01:57:38 | 52.11639 | 6.51306 | 97° | 75km/h | 12385m | -7m/s | -51.7°C | 1.9% | 188.3hPa | 2.4V | 08:00:58 | 02:41:06 | 00:00:00 | |
| DO2JMG | 2026-09-02 01:57:37 | 52.11637 | 6.51337 | 97° | 77km/h | 12378m | -7m/s | -51.7°C | 2% | 188.5hPa | 2.4V | 08:00:58 | 02:41:07 | 00:00:00 | |
| GOEST3-10 | 2026-09-02 01:57:37 | 52.11637 | 6.51337 | 97° | 75km/h | 12378m | -6.9m/s | -51.7°C | 4.6% | 188.4hPa | 2.4V | 08:00:00 | 02:41:07 | 00:00:00 | |
| DL8DAS-14 | 2026-09-02 01:57:36 | 52.11639 | 6.51306 | 96° | 75km/h | 12385m | -7.0m/s | -51.7°C | 2.3% | 188.3hPa | 2.4V | 00:00:00 | 00:00:00 | 00:00:00 | |
| DF5WG-10 | 2026-09-02 01:57:35 | 52.11642 | 6.51275 | 97° | 69km/h | 12392m | -6.8m/s | -51.7°C | 4.6% | 188.0hPa | 2.4V | 00:00:00 | 02:41:05 | 00:00:00 | |
| DD1CC1-15 | 2026-09-02 01:57:34 | 52.11642 | 6.51275 | 97° | 75km/h | 12392m | -6.9m/s | -51.8°C | 2.3% | 188.1hPa | 2.4V | 08:00:00 | 00:00:00 | 00:00:00 | |
| GOEST3-10 | 2026-09-02 01:57:32 | 52.11647 | 6.51186 | 95° | 69km/h | 12412m | -6.9m/s | -51.8°C | 4.6% | 187.5hPa | 2.4V | 00:00:00 | 00:00:00 | 00:00:00 | |
| DM0DOS-11 | 2026-09-02 01:57:31 | 52.11651 | 6.51101 | 93° | 68km/h | 12433m | -6.9m/s | -51.8°C | 4.5% | 187hPa | 2.4V | 08:00:38 | 02:40:59 | 00:00:00 | |
| DL1XH-west | 2026-09-02 01:57:30 | 52.11650 | 6.51129 | 94° | 69km/h | 12426m | -7m/s | -51.8°C | 1.8% | 187.2hPa | 2.4V | 08:00:58 | 02:41:00 | 00:00:00 | |
| BIOWL1-15 | 2026-09-02 01:57:26 | 52.11654 | 6.51020 | 95° | 66km/h | 12454m | -6.7m/s | -51.7°C | 1.8% | 186.4hPa | 2.4V | 08:00:58 | 02:40:56 | 00:00:00 | |
| DO9LL-15 | 2026-09-02 01:57:26 | 52.11654 | 6.51020 | 95° | 71km/h | 12454m | -6.7m/s | -51.7°C | 4.5% | 186.4hPa | 2.5V | 00:00:00 | 02:40:56 | 00:00:00 | |
| DF5WG-10 | 2026-09-02 01:57:25 | 52.11656 | 6.50993 | 96° | 68km/h | 12461m | -6.6m/s | -51.7°C | 4.6% | 186.1hPa | 2.5V | 00:00:00 | 02:40:55 | 00:00:00 | |
| DD1CC9-15 | 2026-09-02 01:57:24 | 52.11656 | 6.50993 | 96° | 66km/h | 12461m | -6.7m/s | -51.7°C | 2.3% | 186.2hPa | 2.5V | 08:00:00 | 00:00:00 | 00:00:00 | |
| DD1CC3-15 | 2026-09-02 01:57:23 | 52.11657 | 6.50967 | 97° | 66km/h | 12467m | -6.7m/s | -51.8°C | 2.2% | 186.0hPa | 2.5V | 08:00:00 | 00:00:00 | 00:00:00 | |
| DL1XH-15 | 2026-09-02 01:57:22 | 52.11661 | 6.50912 | 96° | 68km/h | 12480m | -7m/s | -51.8°C | 4.6% | 185.6hPa | 2.5V | 08:00:45 | 02:40:52 | 00:00:00 | |
| GOEST3-10 | 2026-09-02 01:57:22 | 52.11661 | 6.50912 | 97° | 68km/h | 12480m | -6.9m/s | -51.8°C | 4.6% | 185.5hPa | 2.5V | 00:00:00 | 00:00:00 | 00:00:00 | |
| DM0DOS-11 | 2026-09-02 01:57:21 | 52.11667 | 6.50830 | 97° | 68km/h | 12500m | -6.7m/s | -51.8°C | 4.6% | 185hPa | 2.4V | 08:00:48 | 02:40:49 | 00:00:00 | |
| DL1XH-west | 2026-09-02 01:57:19 | 52.11667 | 6.50830 | 97° | 68km/h | 12500m | -6.7m/s | -51.8°C | 1.8% | 185hPa | 2.4V | 08:00:58 | 02:40:49 | 00:00:00 | |
| BIOWL1-15 | 2026-09-02 01:57:18 | 52.11673 | 6.50748 | 98° | 68km/h | 12521m | -6.6m/s | -51.8°C | 1.9% | 184.4hPa | 2.5V | 08:00:58 | 02:40:46 | 00:00:00 | |
| DB0UT-7 | 2026-09-02 01:57:18 | 52.11669 | 6.50802 | 98° | 75km/h | 12507m | -6.8m/s | -51.7°C | 4.6% | 184.8hPa | 2.4V | 00:00:00 | 00:00:00 | 00:00:00 | |
| DL1XH-15 | 2026-09-02 01:57:17 | 52.11683 | 6.50638 | 98° | 68km/h | 12547m | -6.9m/s | -51.5°C | 4.5% | 183.7hPa | 2.4V | 08:00:55 | 02:40:42 | 00:00:00 | |
| DO2JMG | 2026-09-02 01:57:15 | 52.11675 | 6.50720 | 98° | 68km/h | 12528m | -6.6m/s | -51.8°C | 1.8% | 184.2hPa | 2.4V | 08:00:58 | 02:40:45 | 00:00:00 | |
| DL1XH-west | 2026-09-02 01:57:08 | 52.11694 | 6.50525 | 100° | 71km/h | 12574m | -6.9m/s | -51.5°C | 1.8% | 182.9hPa | 2.4V | 08:01:49 | 02:40:38 | 00:00:00 | |
| BIOWL1-15 | 2026-09-02 01:57:07 | 52.11704 | 6.50436 | 101° | 75km/h | 12595m | -6.7m/s | -51.4°C | 1.9% | 182.4hPa | 2.5V | 08:01:49 | 02:40:35 | 00:00:00 | |
| DO2JMG | 2026-09-02 01:57:04 | 52.11708 | 6.50406 | 102° | 75km/h | 12601m | -6.8m/s | -51.4°C | 1.9% | 182.2hPa | 2.5V | 08:01:49 | 02:40:34 | 00:00:00 | |
| DD1CC9-15 | 2026-09-02 01:57:03 | 52.11708 | 6.50406 | 103° | 75km/h | 12601m | -6.8m/s | -51.4°C | 2.2% | 182.2hPa | 2.4V | 08:01:00 | 00:00:00 | 00:00:00 | |
| DL1XH-15 | 2026-09-02 01:57:02 | 52.11716 | 6.50345 | 102° | 75km/h | 12615m | -6.7m/s | -51.4°C | 4.5% | 181.8hPa | 2.4V | 08:01:05 | 02:40:32 | 00:00:00 | |
| GOEST3-10 | 2026-09-02 01:57:02 | 52.11716 | 6.50345 | 103° | 77km/h | 12615m | -6.6m/s | -51.4°C | 4.5% | 181.8hPa | 2.5V | 00:00:00 | 00:00:00 | 00:00:00 | |
| DM0DOS-11 | 2026-09-02 01:57:01 | 52.11729 | 6.50255 | 103° | 77km/h | 12635m | -6.5m/s | -51.4°C | 4.5% | 181.2hPa | 2.5V | 08:01:08 | 02:40:29 | 00:00:00 | |
| DL1XH-west | 2026-09-02 01:56:58 | 52.11734 | 6.50224 | 104° | 77km/h | 12641m | -6.6m/s | -51.4°C | 1.8% | 181.1hPa | 2.4V | 08:01:49 | 02:40:28 | 00:00:00 | |
| BIOWL1-15 | 2026-09-02 01:56:56 | 52.11754 | 6.50101 | 104° | 78km/h | 12668m | -6.7m/s | -51.2°C | 1.8% | 180.3hPa | 2.5V | 08:01:49 | 02:40:24 | 00:00:00 | |
| DO2JMG | 2026-09-02 01:56:53 | 52.11759 | 6.50070 | 104° | 80km/h | 12674m | -6.5m/s | -51.2°C | 1.9% | 180.2hPa | 2.5V | 08:01:49 | 02:40:23 | 00:00:00 | |
| DL1XH-15 | 2026-09-02 01:56:52 | 52.11764 | 6.50038 | 104° | 80km/h | 12681m | -6.9m/s | -51.2°C | 4.4% | 180hPa | 2.4V | 08:01:15 | 02:40:22 | 00:00:00 | |
| DL1XH-west | 2026-09-02 01:56:48 | 52.11786 | 6.49908 | 107° | 84km/h | 12708m | -6.6m/s | -51.2°C | 1.7% | 179.2hPa | 2.5V | 08:01:49 | 02:40:18 | 00:00:00 | |
| BIOWL1-15 | 2026-09-02 01:56:48 | 52.11812 | 6.49772 | 108° | 88km/h | 12734m | -6.6m/s | -51.3°C | 1.7% | 178.5hPa | 2.4V | 08:01:49 | 02:40:14 | 00:00:00 | |
| DL3AQ-11 | 2026-09-02 01:56:48 | 52.11792 | 6.49874 | 106° | 86km/h | 12714m | -6.6m/s | -51.2°C | 2.1% | 179.0hPa | 2.4V | 00:00:00 | 00:00:00 | 00:00:00 | |
| DO1YAY-16 | 2026-09-02 01:56:46 | 52.11799 | 6.49840 | 107° | 86km/h | 12721m | -6.7m/s | -51.2°C | 2.1% | 178.8hPa | 2.4V | 00:00:00 | 00:00:00 | 00:00:00 | |
| DL1XH-15 | 2026-09-02 01:56:45 | 52.11839 | 6.49637 | 107° | 84km/h | 12760m | -6.7m/s | -51.4°C | 4.3% | 177.8hPa | 2.4V | 08:01:27 | 02:40:10 | 00:00:00 | |
| DO2JMG | 2026-09-02 01:56:42 | 52.11826 | 6.49704 | 108° | 86km/h | 12747m | -6.6m/s | -51.3°C | 1.7% | 178.1hPa | 2.5V | 08:01:49 | 02:40:12 | 00:00:00 | |
| DL1XH-west | 2026-09-02 01:56:38 | 52.11851 | 6.49571 | 107° | 82km/h | 12774m | -7m/s | -51.4°C | 1.6% | 177.4hPa | 2.4V | 08:01:49 | 02:40:08 | 00:00:00 | |
| GOEST3-10 | 2026-09-02 01:56:37 | 52.11857 | 6.49539 | 108° | 80km/h | 12781m | -6.6m/s | -51.4°C | 4.3% | 177.2hPa | 2.5V | 00:00:00 | 02:40:07 | 00:00:00 | |
| DF5WG-10 | 2026-09-02 01:56:35 | 52.11868 | 6.49475 | 107° | 78km/h | 12795m | -6.7m/s | -51.4°C | 4.3% | 176.8hPa | 2.4V | 00:00:00 | 02:40:05 | 00:00:00 | |
| DM0DOS-11 | 2026-09-02 01:56:34 | 52.11901 | 6.49286 | 105° | 78km/h | 12835m | -6.3m/s | -51.4°C | 4.3% | 175.8hPa | 2.4V | 08:01:38 | 02:39:59 | 00:00:00 | |
| BIOWL1-15 | 2026-09-02 01:56:33 | 52.11880 | 6.49412 | 106° | 80km/h | 12808m | -6.5m/s | -51.5°C | 1.6% | 176.5hPa | 2.4V | 08:01:49 | 02:40:03 | 00:00:00 | |
| DO2JMG | 2026-09-02 01:56:32 | 52.11885 | 6.49380 | 106° | 80km/h | 12815m | -7m/s | -51.5°C | 1.6% | 176.3hPa | 2.4V | 08:01:49 | 02:40:02 | 00:00:00 | |
| DL1XH-west | 2026-09-02 01:56:27 | 52.11911 | 6.49225 | 104° | 75km/h | 12848m | -6.8m/s | -51.3°C | 1.4% | 175.4hPa | 2.4V | 08:01:49 | 02:39:57 | 00:00:00 | |
| BIOWL1-15 | 2026-09-02 01:56:25 | 52.11929 | 6.49109 | 103° | 71km/h | 12875m | -6.8m/s | -51.4°C | 1.4% | 174.7hPa | 2.4V | 08:01:49 | 02:39:53 | 00:00:00 | |
| DO2JMG | 2026-09-02 01:56:21 | 52.11937 | 6.49054 | 103° | 68km/h | 12888m | -6.9m/s | -51.5°C | 1.2% | 174.3hPa | 2.4V | 08:01:49 | 02:39:51 | 00:00:00 | |
| DM0DOS-11 | 2026-09-02 01:56:21 | 52.11945 | 6.49000 | 103° | 66km/h | 12902m | -6.4m/s | -51.6°C | 4.2% | 174hPa | 2.5V | 08:01:48 | 02:39:49 | 00:00:00 | |
| WPPR-10 | 2026-09-02 01:56:20 | 52.11941 | 6.49027 | 103° | 66km/h | 12895m | -6.5m/s | -51.5°C | 1.9% | 174.2hPa | 2.4V | 00:00:00 | 00:00:00 | 00:00:00 | |
| DL1LOL-11 | 2026-09-02 01:56:19 | 52.11945 | 6.49000 | 104° | 66km/h | 12902m | -6.4m/s | -51.6°C | 1.9% | 174.0hPa | 2.4V | 00:00:00 | 00:00:00 | 00:00:00 | |
| DB0UT-7 | 2026-09-02 01:56:18 | 52.11948 | 6.48973 | 103° | 69km/h | 12908m | -6.7m/s | -51.6°C | 4.2% | 173.7hPa | 2.4V | 00:00:00 | 00:00:00 | 00:00:00 | |
| DL1XH-15 | 2026-09-02 01:56:17 | 52.11955 | 6.48920 | 101° | 68km/h | 12922m | -6.6m/s | -51.7°C | 4.2% | 173.5hPa | 2.4V | 08:01:51 | 02:39:46 | 00:00:00 | |
| DL1XH-west | 2026-09-02 01:56:16 | 52.11955 | 6.48920 | 101° | 68km/h | 12922m | -6.6m/s | -51.7°C | 1.3% | 173.5hPa | 2.4V | 08:02:40 | 02:39:46 | 00:00:00 | |
| BIOWL1-15 | 2026-09-02 01:56:14 | 52.11966 | 6.48810 | 97° | 68km/h | 12949m | -6.7m/s | -51.8°C | 1.2% | 172.7hPa | 2.4V | 08:02:40 | 02:39:42 | 00:00:00 | |
| GOEST3-10 | 2026-09-02 01:56:12 | 52.11966 | 6.48810 | 98° | 68km/h | 12949m | -6.6m/s | -51.8°C | 4.2% | 172.7hPa | 2.5V | 00:00:00 | 00:00:00 | 00:00:00 | |
| DM0DOS-11 | 2026-09-02 01:56:11 | 52.11972 | 6.48727 | 96° | 68km/h | 12969m | -6.9m/s | -51.7°C | 4.1% | 172.2hPa | 2.5V | 08:01:58 | 02:39:39 | 00:00:00 | |
| DO2JMG | 2026-09-02 01:56:10 | 52.11970 | 6.48754 | 97° | 68km/h | 12962m | -6.8m/s | -51.8°C | 1.1% | 172.4hPa | 2.4V | 08:02:40 | 02:39:40 | 00:00:00 | |
| DL1XH-west | 2026-09-02 01:56:06 | 52.11978 | 6.48645 | 98° | 66km/h | 12990m | -6.8m/s | -51.1°C | 0.9% | 171.7hPa | 2.4V | 08:02:40 | 02:39:36 | 00:00:00 | |
| DF5WG-10 | 2026-09-02 01:56:05 | 52.11981 | 6.48618 | 100° | 68km/h | 12996m | -6.6m/s | -51.0°C | 3.9% | 171.4hPa | 2.5V | 00:00:00 | 02:39:35 | 00:00:00 | |
| DJ2DS-15 | 2026-09-02 01:56:04 | 52.11984 | 6.48591 | 100° | 66km/h | 13003m | -7.2m/s | -51.1°C | 1.6% | 171.3hPa | 2.5V | 00:00:00 | 00:00:00 | 00:00:00 | |
| DL1XH-15 | 2026-09-02 01:56:02 | 52.11990 | 6.48538 | 101° | 68km/h | 13017m | -6.9m/s | -51.1°C | 3.9% | 170.9hPa | 2.5V | 08:02:05 | 02:39:32 | 00:00:00 | |
| DB0NH | 2026-09-02 01:56:02 | 52.11990 | 6.48538 | 102° | 71km/h | 13017m | -6.9m/s | -51.1°C | 3.9% | 170.9hPa | 2.4V | 00:00:00 | 02:39:32 | 00:00:00 | |
| DM0DOS-11 | 2026-09-02 01:56:01 | 52.12000 | 6.48456 | 100° | 69km/h | 13038m | -6.7m/s | -51.2°C | 3.9% | 170.4hPa | 2.4V | 08:02:08 | 02:39:29 | 00:00:00 | |
| BIOWL1-15 | 2026-09-02 01:56:01 | 52.11993 | 6.48511 | 101° | 68km/h | 13024m | -6.8m/s | -51.1°C | 1% | 170.8hPa | 2.4V | 08:02:40 | 02:39:31 | 00:00:00 | |
| DO2JMG | 2026-09-02 01:55:59 | 52.11999 | 6.48456 | 100° | 69km/h | 13038m | -6.7m/s | -51.2°C | 0.9% | 170.4hPa | 2.4V | 08:02:40 | 02:39:29 | 00:00:00 | |
| GOEST3-10 | 2026-09-02 01:55:58 | 52.12002 | 6.48428 | 100° | 71km/h | 13045m | -6.8m/s | -51.2°C | 3.9% | 170.2hPa | 2.5V | 00:00:00 | 00:00:00 | 00:00:00 | |
| DL1XH-15 | 2026-09-02 01:55:57 | 52.12022 | 6.48253 | 102° | 75km/h | 13085m | -6.6m/s | -50.9°C | 3.8% | 169.2hPa | 2.5V | 08:02:15 | 02:39:22 | 00:00:00 | |
| DL1XH-west | 2026-09-02 01:55:55 | 52.12011 | 6.48342 | 100° | 73km/h | 13065m | -6.6m/s | -51.1°C | 0.9% | 169.7hPa | 2.4V | 08:02:40 | 02:39:25 | 00:00:00 | |
| BIOWL1-15 | 2026-09-02 01:55:50 | 52.12031 | 6.48193 | 104° | 75km/h | 13098m | -6.8m/s | -50.9°C | 0.8% | 168.8hPa | 2.4V | 08:02:40 | 02:39:20 | 00:00:00 | |
| DO2JMG | 2026-09-02 01:55:48 | 52.12040 | 6.48133 | 104° | 75km/h | 13112m | -6.8m/s | -50.9°C | 0.8% | 168.4hPa | 2.4V | 08:02:40 | 02:39:18 | 00:00:00 | |
| DL1XH-west | 2026-09-02 01:55:44 | 52.12058 | 6.48012 | 104° | 77km/h | 13139m | -7m/s | -50.9°C | 0.8% | 167.7hPa | 2.4V | 08:02:40 | 02:39:14 | 00:00:00 | |
| DL1XH-15 | 2026-09-02 01:55:42 | 52.12067 | 6.47952 | 103° | 77km/h | 13153m | -7.1m/s | -50.8°C | 3.8% | 167.3hPa | 2.4V | 08:02:25 | 02:39:12 | 00:00:00 | |
| DM0DOS-11 | 2026-09-02 01:55:41 | 52.12079 | 6.47861 | 101° | 75km/h | 13173m | -6.9m/s | -50.6°C | 3.7% | 166.8hPa | 2.5V | 08:02:28 | 02:39:09 | 00:00:00 | |
| BIOWL1-15 | 2026-09-02 01:55:40 | 52.12075 | 6.47891 | 103° | 75km/h | 13167m | -6.7m/s | -50.7°C | 0.8% | 167hPa | 2.5V | 08:02:40 | 02:39:10 | 00:00:00 | |
| DO2JMG | 2026-09-02 01:55:38 | 52.12083 | 6.47831 | 101° | 75km/h | 13180m | -7.1m/s | -50.6°C | 0.8% | 166.7hPa | 2.4V | 08:02:40 | 02:39:08 | 00:00:00 | |
| DL1XH-west | 2026-09-02 01:55:33 | 52.12100 | 6.47681 | 101° | 73km/h | 13215m | -7m/s | -50.7°C | 0.8% | 165.8hPa | 2.4V | 08:02:40 | 02:39:03 | 00:00:00 | |
| DB0NH | 2026-09-02 01:55:32 | 52.12103 | 6.47651 | 102° | 68km/h | 13222m | -6.8m/s | -50.7°C | 3.7% | 165.5hPa | 2.4V | 00:00:00 | 02:39:02 | 00:00:00 | |
| DM0DOS-11 | 2026-09-02 01:55:31 | 52.12115 | 6.47563 | 102° | 71km/h | 13243m | -6.8m/s | -50.6°C | 3.7% | 165.1hPa | 2.5V | 08:02:38 | 02:38:59 | 00:00:00 | |
| BIOWL1-15 | 2026-09-02 01:55:30 | 52.12111 | 6.47592 | 102° | 73km/h | 13236m | -6.9m/s | -50.7°C | 0.8% | 165.2hPa | 2.4V | 08:02:40 | 02:39:00 | 00:00:00 | |
| DO2JMG | 2026-09-02 01:55:27 | 52.12122 | 6.47506 | 102° | 69km/h | 13256m | -7m/s | -50.7°C | 0.8% | 164.7hPa | 2.4V | 08:02:40 | 02:38:57 | 00:00:00 | |
| DL1XH-west | 2026-09-02 01:55:22 | 52.12141 | 6.47368 | 104° | 68km/h | 13291m | -7m/s | -50.9°C | 0.8% | 163.8hPa | 2.5V | 08:03:31 | 02:38:52 | 00:00:00 | |
| DL4BBY-15 | 2026-09-02 01:55:22 | 52.12141 | 6.47368 | 104° | 68km/h | 13291m | -6.9m/s | -51.3°C | 0% | 0hPa | 2.4V | 00:00:00 | 00:00:00 | 00:00:00 | |
| DM0DOS-11 | 2026-09-02 01:55:21 | 52.12154 | 6.47286 | 104° | 68km/h | 13312m | -7.5m/s | -50.9°C | 3.8% | 163.3hPa | 2.4V | 08:02:48 | 02:38:49 | 00:00:00 | |
| BIOWL1-15 | 2026-09-02 01:55:20 | 52.12149 | 6.47313 | 105° | 68km/h | 13305m | -7.2m/s | -50.9°C | 0.9% | 163.5hPa | 2.4V | 08:03:31 | 02:38:50 | 00:00:00 | |
| DO2JMG | 2026-09-02 01:55:17 | 52.12166 | 6.47206 | 103° | 66km/h | 13334m | -7.3m/s | -50.9°C | 0.9% | 162.8hPa | 2.4V | 08:03:31 | 02:38:46 | 00:00:00 | |
| DL1XH-15 | 2026-09-02 01:55:17 | 52.12180 | 6.47100 | 102° | 66km/h | 13362m | -7.2m/s | -50.8°C | 3.8% | 162.1hPa | 2.5V | 08:02:55 | 02:38:42 | 00:00:00 | |
| DF5WG-10 | 2026-09-02 01:55:15 | 52.12169 | 6.47180 | 103° | 68km/h | 13341m | -7.1m/s | -50.8°C | 3.8% | 162.6hPa | 2.4V | 00:00:00 | 02:38:45 | 00:00:00 | |
| DM0DOS-11 | 2026-09-02 01:55:14 | 52.12191 | 6.47020 | 101° | 68km/h | 13384m | -7.3m/s | -50.8°C | 3.8% | 161.6hPa | 2.4V | 08:02:58 | 02:38:39 | 00:00:00 | |
| DL1XH-west | 2026-09-02 01:55:12 | 52.12180 | 6.47100 | 102° | 66km/h | 13362m | -7.2m/s | -50.8°C | 0.8% | 162.1hPa | 2.5V | 08:03:31 | 02:38:42 | 00:00:00 | |
| AA1-15 | 2026-09-02 01:55:11 | 52.12184 | 6.47074 | 102° | 66km/h | 13369m | -7.2m/s | -50.8°C | 0.8% | 161.9hPa | 2.5V | 08:05:13 | 02:38:41 | 00:00:00 | |
| BIOWL1-15 | 2026-09-02 01:55:11 | 52.12190 | 6.47020 | 102° | 68km/h | 13384m | -7.3m/s | -50.8°C | 0.8% | 161.6hPa | 2.4V | 08:03:31 | 02:38:39 | 00:00:00 | |
| DO2JMG | 2026-09-02 01:55:06 | 52.12201 | 6.46938 | 101° | 69km/h | 13405m | -7.1m/s | -51°C | 0.8% | 161hPa | 2.5V | 08:03:31 | 02:38:36 | 00:00:00 | |
| DL1XH-15 | 2026-09-02 01:55:06 | 52.12214 | 6.46827 | 100° | 69km/h | 13433m | -7.2m/s | -51.2°C | 3.8% | 160.3hPa | 2.4V | 08:03:05 | 02:38:32 | 00:00:00 | |
| DL1XH-west | 2026-09-02 01:55:02 | 52.12214 | 6.46827 | 101° | 69km/h | 13433m | -7.2m/s | -51.2°C | 0.8% | 160.3hPa | 2.4V | 08:03:31 | 02:38:32 | 00:00:00 | |
| DB0NH | 2026-09-02 01:55:02 | 52.12214 | 6.46827 | 101° | 71km/h | 13433m | -7.1m/s | -51.2°C | 3.8% | 160.2hPa | 2.4V | 00:00:00 | 02:38:32 | 00:00:00 | |
| DM0DOS-11 | 2026-09-02 01:55:01 | 52.12223 | 6.46744 | 101° | 68km/h | 13455m | -7.3m/s | -51.3°C | 3.9% | 159.8hPa | 2.4V | 08:03:08 | 02:38:29 | 00:00:00 | |
| BIOWL1-15 | 2026-09-02 01:55:00 | 52.12227 | 6.46717 | 102° | 68km/h | 13462m | -7.2m/s | -51.3°C | 0.8% | 159.6hPa | 2.4V | 08:03:31 | 02:38:28 | 00:00:00 | |
| AA1-15 | 2026-09-02 01:54:57 | 52.12231 | 6.46690 | 103° | 68km/h | 13469m | -7.1m/s | -51.3°C | 0.8% | 159.4hPa | 2.4V | 08:05:13 | 02:38:27 | 00:00:00 | |
| DO2JMG | 2026-09-02 01:54:55 | 52.12239 | 6.46635 | 104° | 69km/h | 13483m | -6.9m/s | -51.2°C | 0.9% | 159.1hPa | 2.5V | 08:03:31 | 02:38:25 | 00:00:00 | |
| DL1XH-west | 2026-09-02 01:54:51 | 52.12257 | 6.46525 | 106° | 69km/h | 13512m | -7.5m/s | -51.2°C | 0.8% | 158.4hPa | 2.4V | 08:03:31 | 02:38:21 | 00:00:00 | |
| BIOWL1-15 | 2026-09-02 01:54:48 | 52.12272 | 6.46443 | 107° | 69km/h | 13535m | -7.7m/s | -51°C | 0.8% | 157.8hPa | 2.5V | 08:03:31 | 02:38:18 | 00:00:00 | |
| AA1-15 | 2026-09-02 01:54:47 | 52.12278 | 6.46415 | 107° | 69km/h | 13543m | -7.4m/s | -51°C | 0.8% | 157.6hPa | 2.4V | 08:05:13 | 02:38:17 | 00:00:00 | |
| DO3DL | 2026-09-02 01:54:46 | 52.12277 | 6.46415 | 108° | 71km/h | 13543m | -7.4m/s | -51.0°C | 1.5% | 157.6hPa | 2.4V | 08:03:00 | 00:00:00 | 00:00:00 | |
| DL1XH-15 | 2026-09-02 01:54:45 | 52.12302 | 6.46276 | 105° | 71km/h | 13579m | -7.4m/s | -50.9°C | 3.8% | 156.8hPa | 2.4V | 08:03:25 | 02:38:12 | 00:00:00 | |
| DO2JMG | 2026-09-02 01:54:44 | 52.12293 | 6.46332 | 106° | 71km/h | 13565m | -7.3m/s | -51°C | 0.8% | 157.2hPa | 2.5V | 08:03:31 | 02:38:14 | 00:00:00 | |
| GOEST3-10 | 2026-09-02 01:54:43 | 52.12297 | 6.46304 | 106° | 71km/h | 13572m | -7.3m/s | -50.9°C | 3.8% | 156.9hPa | 2.4V | 00:00:00 | 00:00:00 | 00:00:00 | |
| DO1YAY-16 | 2026-09-02 01:54:42 | 52.12302 | 6.46276 | 105° | 69km/h | 13579m | -7.4m/s | -50.9°C | 1.5% | 156.8hPa | 2.4V | 00:00:00 | 00:00:00 | 00:00:00 | |
| DM0DOS-11 | 2026-09-02 01:54:41 | 52.12317 | 6.46191 | 105° | 73km/h | 13601m | -7.3m/s | -51°C | 3.8% | 156.3hPa | 2.4V | 08:03:28 | 02:38:09 | 00:00:00 | |
| DL1XH-west | 2026-09-02 01:54:40 | 52.12312 | 6.46220 | 106° | 73km/h | 13594m | -7.3m/s | -51°C | 0.8% | 156.5hPa | 2.4V | 08:03:31 | 02:38:10 | 00:00:00 | |
| BIOWL1-15 | 2026-09-02 01:54:37 | 52.12333 | 6.46104 | 107° | 73km/h | 13623m | -7.5m/s | -50.8°C | 0.7% | 155.7hPa | 2.4V | 08:03:31 | 02:38:06 | 00:00:00 | |
| DL1XH-15 | 2026-09-02 01:54:37 | 52.12354 | 6.45989 | 107° | 71km/h | 13653m | -7.4m/s | -50.6°C | 3.7% | 155hPa | 2.5V | 08:03:35 | 02:38:02 | 00:00:00 | |
| DF5WG-10 | 2026-09-02 01:54:35 | 52.12338 | 6.46075 | 107° | 71km/h | 13631m | -7.5m/s | -50.8°C | 3.8% | 155.5hPa | 2.4V | 00:00:00 | 02:38:05 | 00:00:00 | |
| DM0DOS-11 | 2026-09-02 01:54:34 | 52.12370 | 6.45906 | 106° | 71km/h | 13675m | -7.4m/s | -50.6°C | 3.7% | 154.5hPa | 2.4V | 08:03:38 | 02:37:59 | 00:00:00 | |
| AA1-15 | 2026-09-02 01:54:34 | 52.12343 | 6.46046 | 107° | 73km/h | 13638m | -7.5m/s | -50.8°C | 0.8% | 155.4hPa | 2.4V | 08:05:13 | 02:38:04 | 00:00:00 | |
| DO2JMG | 2026-09-02 01:54:33 | 52.12349 | 6.46018 | 107° | 73km/h | 13646m | -7.5m/s | -50.7°C | 0.7% | 155.2hPa | 2.4V | 08:04:22 | 02:38:03 | 00:00:00 | |
| DL1XH-west | 2026-09-02 01:54:30 | 52.12365 | 6.45934 | 107° | 69km/h | 13668m | -7.6m/s | -50.6°C | 0.8% | 154.5hPa | 2.4V | 08:04:22 | 02:38:00 | 00:00:00 | |
| DL8DAS-14 | 2026-09-02 01:54:30 | 52.12370 | 6.45906 | 106° | 69km/h | 13675m | -7.4m/s | -50.6°C | 1.5% | 154.5hPa | 2.5V | 00:00:00 | 00:00:00 | 00:00:00 | |
| GOEST3-10 | 2026-09-02 01:54:27 | 52.12380 | 6.45851 | 108° | 68km/h | 13690m | -7.8m/s | -50.5°C | 3.7% | 154.1hPa | 2.5V | 00:00:00 | 00:00:00 | 00:00:00 | |
| BIOWL1-15 | 2026-09-02 01:54:27 | 52.12391 | 6.45797 | 108° | 68km/h | 13706m | -7.6m/s | -50.6°C | 0.7% | 153.8hPa | 2.4V | 08:04:22 | 02:37:55 | 00:00:00 | |
| DO9LL-15 | 2026-09-02 01:54:26 | 52.12386 | 6.45824 | 108° | 60km/h | 13698m | -7.8m/s | -50.5°C | 3.7% | 153.9hPa | 2.5V | 00:00:00 | 02:37:56 | 00:00:00 | |
| DL1XH-15 | 2026-09-02 01:54:25 | 52.12411 | 6.45693 | 106° | 66km/h | 13735m | -7.4m/s | -50.4°C | 3.6% | 153.1hPa | 2.5V | 08:03:46 | 02:37:51 | 00:00:00 | |
| DO2JMG | 2026-09-02 01:54:22 | 52.12406 | 6.45718 | 107° | 66km/h | 13728m | -7.4m/s | -50.4°C | 0.6% | 153.3hPa | 2.4V | 08:04:22 | 02:37:52 | 00:00:00 | |
| DL4BBY-15 | 2026-09-02 01:54:22 | 52.12406 | 6.45718 | 107° | 58km/h | 13728m | -7.3m/s | -50.9°C | 0% | 0hPa | 2.4V | 00:00:00 | 00:00:00 | 00:00:00 | |
| DM0DOS-11 | 2026-09-02 01:54:21 | 52.12420 | 6.45642 | 105° | 64km/h | 13750m | -7.7m/s | -50.5°C | 3.6% | 152.7hPa | 2.4V | 08:03:48 | 02:37:49 | 00:00:00 | |
| DL1XH-west | 2026-09-02 01:54:19 | 52.12420 | 6.45642 | 106° | 64km/h | 13750m | -7.7m/s | -50.5°C | 0.6% | 152.7hPa | 2.4V | 08:04:22 | 02:37:49 | 00:00:00 | |
| BIOWL1-15 | 2026-09-02 01:54:17 | 52.12435 | 6.45542 | 102° | 60km/h | 13780m | -7.4m/s | -50.7°C | 0.6% | 152hPa | 2.5V | 08:04:22 | 02:37:45 | 00:00:00 | |
| AA1-15 | 2026-09-02 01:54:11 | 52.12447 | 6.45449 | 102° | 55km/h | 13811m | -7.4m/s | -50.7°C | 0.6% | 151.3hPa | 2.4V | 08:05:13 | 02:37:41 | 00:00:00 | |
| DL1XH-west | 2026-09-02 01:54:08 | 52.12457 | 6.45385 | 104° | 53km/h | 13833m | -7.6m/s | -50.6°C | 0.6% | 150.8hPa | 2.4V | 08:04:22 | 02:37:38 | 00:00:00 | |
| BIOWL1-15 | 2026-09-02 01:54:04 | 52.12470 | 6.45299 | 105° | 55km/h | 13864m | -7.7m/s | -50.5°C | 0.6% | 150.1hPa | 2.5V | 08:04:22 | 02:37:34 | 00:00:00 | |
| BIOWL7-15 | 2026-09-02 01:54:04 | 52.12470 | 6.45299 | 106° | 55km/h | 13864m | -7.7m/s | -50.5°C | 1.4% | 150.1hPa | 2.4V | 08:04:00 | 00:00:00 | 00:00:00 | |
| WEDDY | 2026-09-02 01:54:03 | 52.12470 | 6.45299 | 106° | 55km/h | 13864m | -7.7m/s | -50.5°C | 1.4% | 150.1hPa | 2.4V | 08:04:00 | 00:00:00 | 00:00:00 | |
| DB0NH | 2026-09-02 01:54:02 | 52.12477 | 6.45254 | 105° | 55km/h | 13879m | -7.4m/s | -50.5°C | 3.6% | 149.7hPa | 2.4V | 08:04:00 | 02:37:32 | 00:00:00 | |
| DM0DOS-11 | 2026-09-02 01:54:01 | 52.12488 | 6.45185 | 104° | 58km/h | 13901m | -7.5m/s | -50.5°C | 3.6% | 149.2hPa | 2.4V | 08:04:08 | 02:37:29 | 00:00:00 | |
| DO2JMG | 2026-09-02 01:54:00 | 52.12485 | 6.45208 | 104° | 58km/h | 13894m | -7.8m/s | -50.5°C | 0.6% | 149.4hPa | 2.4V | 08:04:22 | 02:37:30 | 00:00:00 | |
| DL1XH-west | 2026-09-02 01:53:58 | 52.12492 | 6.45162 | 105° | 58km/h | 13909m | -7.6m/s | -50.4°C | 0.6% | 149hPa | 2.5V | 08:04:22 | 02:37:28 | 00:00:00 | |
| DO2KSM | 2026-09-02 01:53:57 | 52.12492 | 6.45162 | 106° | 58km/h | 13909m | -7.6m/s | -50.4°C | 1.4% | 149.0hPa | 2.4V | 08:04:00 | 00:00:00 | 00:00:00 | |
| DO9LL-15 | 2026-09-02 01:53:56 | 52.12500 | 6.45116 | 107° | 53km/h | 13924m | -7.4m/s | -50.5°C | 3.6% | 148.7hPa | 2.4V | 00:00:00 | 02:37:26 | 00:00:00 | |
| DF5WG-10 | 2026-09-02 01:53:55 | 52.12504 | 6.45093 | 108° | 57km/h | 13931m | -7.2m/s | -50.5°C | 3.6% | 148.5hPa | 2.4V | 00:00:00 | 02:37:25 | 00:00:00 | |
| DM0DOS-11 | 2026-09-02 01:53:54 | 52.12530 | 6.44955 | 105° | 57km/h | 13977m | -7.9m/s | -50.5°C | 3.5% | 147.5hPa | 2.4V | 08:04:18 | 02:37:19 | 00:00:00 | |
| BIOWL1-15 | 2026-09-02 01:53:53 | 52.12513 | 6.45047 | 108° | 58km/h | 13946m | -7.7m/s | -50.5°C | 0.6% | 148.2hPa | 2.5V | 08:04:22 | 02:37:23 | 00:00:00 | |
| DO2JMG | 2026-09-02 01:53:49 | 52.12530 | 6.44955 | 105° | 57km/h | 13977m | -7.9m/s | -50.5°C | 0.5% | 147.5hPa | 2.4V | 08:04:22 | 02:37:19 | 00:00:00 | |
| DL1XH-west | 2026-09-02 01:53:47 | 52.12537 | 6.44911 | 104° | 53km/h | 13993m | -8m/s | -50.3°C | 0.5% | 147.1hPa | 2.5V | 08:04:22 | 02:37:17 | 00:00:00 | |
| WPPR-10 | 2026-09-02 01:53:45 | 52.12543 | 6.44870 | 102° | 51km/h | 14009m | -8.0m/s | -50.3°C | 1.3% | 146.8hPa | 2.4V | 00:00:00 | 00:00:00 | 00:00:00 | |
| BIOWL1-15 | 2026-09-02 01:53:42 | 52.12551 | 6.44808 | 101° | 51km/h | 14032m | -8.1m/s | -50.3°C | 0.5% | 146.3hPa | 2.4V | 08:05:13 | 02:37:12 | 00:00:00 | |
| DM0DOS-11 | 2026-09-02 01:53:40 | 52.12558 | 6.44747 | 100° | 51km/h | 14056m | -7.4m/s | -50.3°C | 3.5% | 145.8hPa | 2.4V | 08:04:28 | 02:37:09 | 00:00:00 | |
| DL1XH-15 | 2026-09-02 01:53:40 | 52.12561 | 6.44726 | 101° | 51km/h | 14063m | -7.6m/s | -50.2°C | 3.5% | 145.6hPa | 2.4V | 08:04:29 | 02:37:08 | 00:00:00 | |
| DO2JMG | 2026-09-02 01:53:39 | 52.12558 | 6.44747 | 101° | 51km/h | 14056m | -7.4m/s | -50.3°C | 0.5% | 145.8hPa | 2.4V | 08:05:13 | 02:37:09 | 00:00:00 | |
| DL1XH-west | 2026-09-02 01:53:37 | 52.12563 | 6.44706 | 100° | 51km/h | 14071m | -7.9m/s | -50.3°C | 0.5% | 145.4hPa | 2.4V | 08:05:13 | 02:37:07 | 00:00:00 | |
| BIOWL1-15 | 2026-09-02 01:53:31 | 52.12572 | 6.44584 | 92° | 49km/h | 14118m | -7.6m/s | -50.5°C | 0.5% | 144.3hPa | 2.4V | 08:05:13 | 02:37:01 | 00:00:00 | |
| DM0DOS-11 | 2026-09-02 01:53:31 | 52.12573 | 6.44543 | 90° | 49km/h | 14133m | -7.3m/s | -50.6°C | 3.5% | 144hPa | 2.5V | 08:04:38 | 02:36:59 | 00:00:00 | |
| DL1XH-15 | 2026-09-02 01:53:31 | 52.12573 | 6.44522 | 91° | 51km/h | 14140m | -7.4m/s | -50.8°C | 3.5% | 143.9hPa | 2.4V | 08:04:39 | 02:36:58 | 00:00:00 | |
| DO2JMG | 2026-09-02 01:53:29 | 52.12573 | 6.44543 | 91° | 49km/h | 14133m | -7.3m/s | -50.7°C | 0.5% | 144hPa | 2.5V | 08:05:13 | 02:36:59 | 00:00:00 | |
| DL1XH-west | 2026-09-02 01:53:27 | 52.12573 | 6.44502 | 92° | 51km/h | 14147m | -7.3m/s | -50.8°C | 0.5% | 143.7hPa | 2.4V | 08:05:13 | 02:36:57 | 00:00:00 | |
| BIOWL1-15 | 2026-09-02 01:53:23 | 52.12576 | 6.44374 | 91° | 53km/h | 14193m | -7.6m/s | -51.1°C | 0.6% | 142.7hPa | 2.4V | 08:05:13 | 02:36:51 | 00:00:00 | |
| DJ2KF-10 | 2026-09-02 01:53:23 | 52.12575 | 6.44416 | 93° | 58km/h | 14177m | -7.6m/s | -51.1°C | 3.6% | 143.0hPa | 2.5V | 00:00:00 | 02:36:53 | 00:00:00 | |
| DL4BBY-15 | 2026-09-02 01:53:22 | 52.12576 | 6.44395 | 92° | 58km/h | 14185m | -7.6m/s | -51.6°C | 0% | 0hPa | 2.5V | 00:00:00 | 00:00:00 | 00:00:00 | |
| DM0DOS-11 | 2026-09-02 01:53:20 | 52.12576 | 6.44330 | 89° | 53km/h | 14208m | -7.7m/s | -51°C | 3.6% | 142.4hPa | 2.5V | 08:04:48 | 02:36:49 | 00:00:00 | |
| DO2JMG | 2026-09-02 01:53:19 | 52.12576 | 6.44330 | 89° | 53km/h | 14208m | -7.7m/s | -51°C | 0.6% | 142.4hPa | 2.5V | 08:05:13 | 02:36:49 | 00:00:00 | |
| DL1XH-west | 2026-09-02 01:53:17 | 52.12575 | 6.44287 | 88° | 53km/h | 14223m | -7.8m/s | -51.1°C | 0.6% | 142.1hPa | 2.4V | 08:05:13 | 02:36:47 | 00:00:00 | |
| GOEST3-10 | 2026-09-02 01:53:17 | 52.12575 | 6.44287 | 89° | 55km/h | 14223m | -7.7m/s | -51.0°C | 3.6% | 142.0hPa | 2.4V | 00:00:00 | 02:36:47 | 00:00:00 | |
| DD1CC3-15 | 2026-09-02 01:53:16 | 52.12575 | 6.44287 | 89° | 53km/h | 14223m | -7.8m/s | -51.1°C | 1.4% | 142.1hPa | 2.5V | 08:05:00 | 00:00:00 | 00:00:00 | |
| DL1XH-15 | 2026-09-02 01:53:15 | 52.12574 | 6.44175 | 89° | 57km/h | 14261m | -7.7m/s | -51.3°C | 3.6% | 141.2hPa | 2.5V | 08:04:55 | 02:36:42 | 00:00:00 | |
| BIOWL1-15 | 2026-09-02 01:53:13 | 52.12574 | 6.44152 | 90° | 57km/h | 14269m | -7.7m/s | -51.4°C | 0.6% | 141.1hPa | 2.4V | 08:05:13 | 02:36:41 | 00:00:00 | |
| GOEST3-10 | 2026-09-02 01:53:12 | 52.12574 | 6.44175 | 90° | 58km/h | 14261m | -7.7m/s | -51.3°C | 3.6% | 141.2hPa | 2.4V | 00:00:00 | 00:00:00 | 00:00:00 | |
| DL3AQ-11 | 2026-09-02 01:53:11 | 52.12574 | 6.44152 | 89° | 57km/h | 14269m | -7.7m/s | -51.4°C | 1.4% | 141.1hPa | 2.4V | 00:00:00 | 00:00:00 | 00:00:00 | |
| DM0DOS-11 | 2026-09-02 01:53:10 | 52.12574 | 6.44105 | 89° | 58km/h | 14284m | -7.6m/s | -51.5°C | 3.6% | 140.7hPa | 2.4V | 08:04:58 | 02:36:39 | 00:00:00 | |
| DO2JMG | 2026-09-02 01:53:08 | 52.12574 | 6.44081 | 90° | 58km/h | 14292m | -7.4m/s | -51.6°C | 0.6% | 140.6hPa | 2.4V | 08:05:13 | 02:36:38 | 00:00:00 | |
| GOEST3-10 | 2026-09-02 01:53:07 | 52.12573 | 6.44056 | 90° | 62km/h | 14299m | -7.7m/s | -51.6°C | 3.6% | 140.4hPa | 2.5V | 00:00:00 | 02:36:37 | 00:00:00 | |
| MET0W-2 | 2026-09-02 01:53:06 | 52.12573 | 6.44032 | 89° | 58km/h | 14307m | -8.1m/s | -51.7°C | 1.4% | 140.3hPa | 2.5V | 00:00:00 | 00:00:00 | 00:00:00 | |
| DL1XH-west | 2026-09-02 01:53:06 | 52.12573 | 6.44032 | 90° | 58km/h | 14307m | -8.1m/s | -51.7°C | 0.6% | 140.3hPa | 2.5V | 08:05:13 | 02:36:36 | 00:00:00 | |
| DL1XH-15 | 2026-09-02 01:53:05 | 52.12573 | 6.43910 | 90° | 60km/h | 14346m | -7.9m/s | -51.9°C | 3.7% | 139.4hPa | 2.5V | 08:05:06 | 02:36:31 | 00:00:00 | |
| BIOWL1-15 | 2026-09-02 01:53:02 | 52.12573 | 6.43885 | 90° | 62km/h | 14354m | -8m/s | -51.9°C | 0.7% | 139.2hPa | 2.4V | 08:05:13 | 02:36:30 | 00:00:00 | |
| DB0NH | 2026-09-02 01:53:02 | 52.12573 | 6.43935 | 91° | 40km/h | 14339m | -7.6m/s | -51.8°C | 3.7% | 139.5hPa | 2.4V | 00:00:00 | 02:36:32 | 00:00:00 | |
| DM0DOS-11 | 2026-09-02 01:53:00 | 52.12573 | 6.43860 | 90° | 62km/h | 14362m | -8m/s | -52°C | 3.8% | 139.1hPa | 2.4V | 08:05:08 | 02:36:29 | 00:00:00 | |
| DO2JMG | 2026-09-02 01:52:58 | 52.12573 | 6.43834 | 90° | 64km/h | 14370m | -7.7m/s | -52°C | 0.6% | 138.9hPa | 2.4V | 08:05:13 | 02:36:28 | 00:00:00 | |
| BIOWL1-15 | 2026-09-02 01:52:56 | 52.12569 | 6.43610 | 88° | 71km/h | 14433m | -7.8m/s | -52.3°C | 0.6% | 137.6hPa | 2.5V | 08:06:04 | 02:36:20 | 00:00:00 | |
| DO9LL-15 | 2026-09-02 01:52:56 | 52.12573 | 6.43780 | 90° | 75km/h | 14386m | -7.8m/s | -52.0°C | 3.7% | 138.5hPa | 2.4V | 00:00:00 | 02:36:26 | 00:00:00 | |
| DL1XH-15 | 2026-09-02 01:52:55 | 52.12570 | 6.43639 | 87° | 69km/h | 14425m | -7.8m/s | -52.3°C | 3.8% | 137.7hPa | 2.4V | 08:05:16 | 02:36:21 | 00:00:00 | |
| DL1XH-west | 2026-09-02 01:52:55 | 52.12572 | 6.43753 | 89° | 68km/h | 14394m | -7.8m/s | -52.1°C | 0.7% | 138.4hPa | 2.5V | 08:05:13 | 02:36:25 | 00:00:00 | |
| DO2JMG | 2026-09-02 01:52:47 | 52.12567 | 6.43522 | 87° | 73km/h | 14456m | -7.6m/s | -52.3°C | 0.6% | 137.1hPa | 2.4V | 08:06:04 | 02:36:17 | 00:00:00 | |
| DL1XH-west | 2026-09-02 01:52:44 | 52.12565 | 6.43432 | 89° | 75km/h | 14480m | -8m/s | -52.2°C | 0.6% | 136.6hPa | 2.5V | 08:06:04 | 02:36:14 | 00:00:00 | |
| BIOWL1-15 | 2026-09-02 01:52:39 | 52.12565 | 6.43276 | 91° | 77km/h | 14519m | -7.9m/s | -52.2°C | 0.5% | 135.8hPa | 2.5V | 08:06:04 | 02:36:09 | 00:00:00 | |
| DO2JMG | 2026-09-02 01:52:36 | 52.12567 | 6.43180 | 93° | 80km/h | 14543m | -7.9m/s | -52.3°C | 0.5% | 135.3hPa | 2.4V | 08:06:04 | 02:36:06 | 00:00:00 | |
| DL1XH-west | 2026-09-02 01:52:34 | 52.12569 | 6.43114 | 93° | 80km/h | 14559m | -7.7m/s | -52.2°C | 0.5% | 134.9hPa | 2.4V | 08:06:04 | 02:36:04 | 00:00:00 | |
| AA1-15 | 2026-09-02 01:52:33 | 52.12570 | 6.43081 | 94° | 80km/h | 14566m | -7.7m/s | -52.2°C | 0.5% | 134.8hPa | 2.5V | 08:06:04 | 02:36:03 | 00:00:00 | |
| BIOWL1-15 | 2026-09-02 01:52:28 | 52.12580 | 6.42916 | 97° | 82km/h | 14606m | -7.8m/s | -52°C | 0.5% | 133.9hPa | 2.5V | 08:06:04 | 02:35:58 | 00:00:00 | |
| DO2JMG | 2026-09-02 01:52:25 | 52.12588 | 6.42817 | 99° | 80km/h | 14629m | -8.1m/s | -51.8°C | 0.5% | 133.4hPa | 2.4V | 08:06:04 | 02:35:55 | 00:00:00 | |
| DL1XH-west | 2026-09-02 01:52:23 | 52.12594 | 6.42753 | 100° | 78km/h | 14645m | -7.9m/s | -51.7°C | 0.4% | 133.1hPa | 2.4V | 08:06:04 | 02:35:53 | 00:00:00 | |
| AA1-15 | 2026-09-02 01:52:22 | 52.12598 | 6.42721 | 101° | 78km/h | 14653m | -8m/s | -51.7°C | 0.4% | 132.9hPa | 2.5V | 08:06:04 | 02:35:52 | 00:00:00 | |
| BIOWL1-15 | 2026-09-02 01:52:21 | 52.12618 | 6.42565 | 104° | 75km/h | 14693m | -8m/s | -51.9°C | 0.4% | 132.1hPa | 2.4V | 08:06:04 | 02:35:47 | 00:00:00 | |
| DM0DOS-11 | 2026-09-02 01:52:20 | 52.12609 | 6.42626 | 102° | 77km/h | 14676m | -8.3m/s | -51.8°C | 3.6% | 132.4hPa | 2.4V | 08:05:48 | 02:35:49 | 00:00:00 | |
| DO2JMG | 2026-09-02 01:52:15 | 52.12627 | 6.42507 | 105° | 73km/h | 14709m | -8.3m/s | -51.8°C | 0.4% | 131.8hPa | 2.5V | 08:06:04 | 02:35:45 | 00:00:00 | |
| DL1XH-west | 2026-09-02 01:52:13 | 52.12637 | 6.42451 | 106° | 69km/h | 14725m | -8.2m/s | -51.8°C | 0.4% | 131.4hPa | 2.4V | 08:06:04 | 02:35:43 | 00:00:00 | |
| AA1-15 | 2026-09-02 01:52:11 | 52.12647 | 6.42397 | 106° | 68km/h | 14741m | -7.9m/s | -51.7°C | 0.4% | 131.1hPa | 2.5V | 08:06:04 | 02:35:41 | 00:00:00 | |
| DM0DOS-11 | 2026-09-02 01:52:10 | 52.12656 | 6.42345 | 106° | 66km/h | 14757m | -8.1m/s | -51.6°C | 3.6% | 130.8hPa | 2.4V | 08:05:58 | 02:35:39 | 00:00:00 | |
| BIOWL1-15 | 2026-09-02 01:52:07 | 52.12665 | 6.42292 | 105° | 66km/h | 14773m | -8.3m/s | -51.7°C | 0.4% | 130.5hPa | 2.4V | 08:06:04 | 02:35:37 | 00:00:00 | |
| DO2JMG | 2026-09-02 01:52:05 | 52.12674 | 6.42240 | 104° | 66km/h | 14790m | -8.3m/s | -51.7°C | 0.4% | 130.1hPa | 2.5V | 08:06:04 | 02:35:35 | 00:00:00 | |
| DL1XH-15 | 2026-09-02 01:52:05 | 52.12689 | 6.42136 | 103° | 66km/h | 14823m | -8.5m/s | -51.6°C | 3.6% | 129.5hPa | 2.4V | 08:06:06 | 02:35:31 | 00:00:00 | |
| DL1XH-west | 2026-09-02 01:52:02 | 52.12685 | 6.42162 | 103° | 66km/h | 14814m | -8.5m/s | -51.7°C | 0.4% | 129.7hPa | 2.4V | 08:06:55 | 02:35:32 | 00:00:00 | |
| HTAHTA | 2026-09-02 01:52:02 | 52.12693 | 6.42110 | 104° | 64km/h | 14832m | -8.5m/s | -51.6°C | 1.2% | 129.3hPa | 2.5V | 00:00:00 | 00:00:00 | 00:00:00 | |
| DM0DOS-11 | 2026-09-02 01:52:00 | 52.12697 | 6.42084 | 104° | 66km/h | 14840m | -8.5m/s | -51.5°C | 3.6% | 129.2hPa | 2.5V | 08:06:08 | 02:35:29 | 00:00:00 | |
| AA1-15 | 2026-09-02 01:52:00 | 52.12693 | 6.42110 | 104° | 66km/h | 14832m | -8.5m/s | -51.6°C | 0.4% | 129.3hPa | 2.4V | 08:06:55 | 02:35:30 | 00:00:00 | |
| BIOWL1-15 | 2026-09-02 01:51:59 | 52.12706 | 6.42030 | 106° | 69km/h | 14857m | -8.1m/s | -51.6°C | 0.4% | 128.8hPa | 2.4V | 08:06:55 | 02:35:27 | 00:00:00 | |
| GOEST3-10 | 2026-09-02 01:51:59 | 52.12697 | 6.42084 | 105° | 69km/h | 14840m | -8.5m/s | -51.5°C | 3.6% | 129.1hPa | 2.4V | 00:00:00 | 00:00:00 | 00:00:00 | |
| DO3DL | 2026-09-02 01:51:58 | 52.12697 | 6.42084 | 106° | 66km/h | 14840m | -8.5m/s | -51.5°C | 1.2% | 129.2hPa | 2.4V | 08:06:00 | 00:00:00 | 00:00:00 | |
| DL1CLM-18 | 2026-09-02 01:51:57 | 52.12701 | 6.42057 | 106° | 68km/h | 14849m | -8.3m/s | 0°C | 0% | 0hPa | 2.4V | 00:00:00 | 00:00:00 | 00:00:00 | |
| DL1XH-15 | 2026-09-02 01:51:56 | 52.12734 | 6.41856 | 103° | 75km/h | 14907m | -8.5m/s | -51.3°C | 3.6% | 127.8hPa | 2.4V | 08:06:16 | 02:35:21 | 00:00:00 | |
| DO2JMG | 2026-09-02 01:51:55 | 52.12715 | 6.41974 | 105° | 73km/h | 14873m | -8.5m/s | -51.6°C | 0.4% | 128.5hPa | 2.4V | 08:06:55 | 02:35:25 | 00:00:00 | |
| DL1XH-west | 2026-09-02 01:51:51 | 52.12734 | 6.41856 | 104° | 75km/h | 14907m | -8.5m/s | -51.3°C | 0.4% | 127.8hPa | 2.4V | 08:06:55 | 02:35:21 | 00:00:00 | |
| AA1-15 | 2026-09-02 01:51:49 | 52.12743 | 6.41796 | 104° | 75km/h | 14924m | -8.2m/s | -51.2°C | 0.3% | 127.5hPa | 2.4V | 08:06:55 | 02:35:19 | 00:00:00 | |
| BIOWL1-15 | 2026-09-02 01:51:49 | 52.12752 | 6.41738 | 105° | 71km/h | 14940m | -8.3m/s | -51.2°C | 0.3% | 127.2hPa | 2.5V | 08:06:55 | 02:35:17 | 00:00:00 | |
| DO2JMG | 2026-09-02 01:51:44 | 52.12766 | 6.41653 | 105° | 71km/h | 14964m | -8.4m/s | -51.3°C | 0.3% | 126.7hPa | 2.4V | 08:06:55 | 02:35:14 | 00:00:00 | |
| DF5WG-10 | 2026-09-02 01:51:44 | 52.12766 | 6.41653 | 106° | 68km/h | 14964m | -8.3m/s | -51.3°C | 3.5% | 126.6hPa | 2.4V | 08:06:00 | 02:35:14 | 00:00:00 | |
| GOEST3-10 | 2026-09-02 01:51:43 | 52.12771 | 6.41625 | 105° | 69km/h | 14973m | -8.4m/s | -51.3°C | 3.6% | 126.5hPa | 2.4V | 00:00:00 | 02:35:13 | 00:00:00 | |
| DD1CC1-15 | 2026-09-02 01:51:42 | 52.12771 | 6.41625 | 106° | 71km/h | 14973m | -8.5m/s | -51.3°C | 1.2% | 126.5hPa | 2.4V | 08:06:00 | 00:00:00 | 00:00:00 | |
| DL1XH-15 | 2026-09-02 01:51:40 | 52.12784 | 6.41541 | 103° | 69km/h | 14997m | -8.6m/s | -51.3°C | 3.5% | 126hPa | 2.4V | 08:06:27 | 02:35:10 | 00:00:00 | |
| DL1XH-west | 2026-09-02 01:51:40 | 52.12784 | 6.41541 | 104° | 69km/h | 14998m | -8.6m/s | -51.3°C | 0.3% | 126hPa | 2.4V | 08:06:55 | 02:35:10 | 00:00:00 | |
| AA1-15 | 2026-09-02 01:51:38 | 52.12792 | 6.41486 | 103° | 68km/h | 15015m | -8.5m/s | -51.2°C | 0.4% | 125.7hPa | 2.4V | 08:06:55 | 02:35:08 | 00:00:00 | |
| BIOWL1-15 | 2026-09-02 01:51:36 | 52.12800 | 6.41433 | 102° | 66km/h | 15032m | -8.5m/s | -51.2°C | 0.3% | 125.4hPa | 2.5V | 08:06:55 | 02:35:06 | 00:00:00 | |
| DO2JMG | 2026-09-02 01:51:33 | 52.12810 | 6.41355 | 101° | 64km/h | 15056m | -8.3m/s | -51.2°C | 0.3% | 124.9hPa | 2.4V | 08:06:55 | 02:35:03 | 00:00:00 | |
| MET0W-2 | 2026-09-02 01:51:33 | 52.12813 | 6.41329 | 101° | 62km/h | 15064m | -8.3m/s | -51.2°C | 1.2% | 124.7hPa | 2.5V | 00:00:00 | 00:00:00 | 00:00:00 | |
| SONCRA | 2026-09-02 01:51:32 | 52.12813 | 6.41329 | 101° | 62km/h | 15064m | -8.3m/s | -51.2°C | 1.2% | 124.7hPa | 2.5V | 00:00:00 | 00:00:00 | 00:00:00 | |
| DL1XH-15 | 2026-09-02 01:51:30 | 52.12819 | 6.41278 | 102° | 64km/h | 15081m | -8.6m/s | -51.2°C | 3.5% | 124.4hPa | 2.5V | 08:06:37 | 02:35:00 | 00:00:00 | |
| DL1XH-west | 2026-09-02 01:51:30 | 52.12819 | 6.41278 | 102° | 64km/h | 15081m | -8.6m/s | -51.2°C | 0.4% | 124.4hPa | 2.5V | 08:06:55 | 02:35:00 | 00:00:00 | |
| AA1-15 | 2026-09-02 01:51:27 | 52.12831 | 6.41201 | 104° | 64km/h | 15106m | -8.5m/s | -51.3°C | 0.3% | 124hPa | 2.4V | 08:06:55 | 02:34:57 | 00:00:00 | |
| BIOWL1-15 | 2026-09-02 01:51:26 | 52.12835 | 6.41176 | 105° | 64km/h | 15114m | -8.6m/s | -51.3°C | 0.3% | 123.8hPa | 2.4V | 08:06:55 | 02:34:56 | 00:00:00 | |
| DO2JMG | 2026-09-02 01:51:23 | 52.12847 | 6.41103 | 105° | 60km/h | 15139m | -8.6m/s | -51.2°C | 0.4% | 123.3hPa | 2.4V | 08:06:55 | 02:34:53 | 00:00:00 | |
| DJ2KF-10 | 2026-09-02 01:51:23 | 52.12847 | 6.41103 | 106° | 57km/h | 15140m | -8.6m/s | -51.1°C | 3.5% | 123.3hPa | 2.5V | 00:00:00 | 02:34:53 | 00:00:00 | |
| DL4BBY-15 | 2026-09-02 01:51:22 | 52.12851 | 6.41080 | 106° | 57km/h | 15148m | -8.6m/s | -51.6°C | 0% | 0hPa | 2.5V | 00:00:00 | 00:00:00 | 00:00:00 | |
| DD1CC1-15 | 2026-09-02 01:51:21 | 52.12851 | 6.41080 | 106° | 58km/h | 15148m | -8.6m/s | -51.1°C | 1.2% | 123.2hPa | 2.5V | 08:06:00 | 00:00:00 | 00:00:00 | |
| DM0DOS-11 | 2026-09-02 01:51:20 | 52.12863 | 6.41009 | 106° | 58km/h | 15173m | -8.7m/s | -51°C | 3.5% | 122.7hPa | 2.5V | 08:06:48 | 02:34:49 | 00:00:00 | |
| DL1XH-west | 2026-09-02 01:51:20 | 52.12859 | 6.41033 | 106° | 58km/h | 15165m | -8.5m/s | -51.1°C | 0.3% | 122.8hPa | 2.5V | 08:06:55 | 02:34:50 | 00:00:00 | |
| BIOWL1-15 | 2026-09-02 01:51:17 | 52.12880 | 6.40917 | 107° | 58km/h | 15207m | -8.4m/s | -50.9°C | 0.3% | 122.1hPa | 2.4V | 08:06:55 | 02:34:45 | 00:00:00 | |
| AA1-15 | 2026-09-02 01:51:16 | 52.12876 | 6.40940 | 107° | 58km/h | 15199m | -8.4m/s | -50.9°C | 0.3% | 122.2hPa | 2.4V | 08:06:55 | 02:34:46 | 00:00:00 | |
| DO2JMG | 2026-09-02 01:51:13 | 52.12889 | 6.40872 | 107° | 58km/h | 15224m | -8.6m/s | -50.9°C | 0.3% | 121.7hPa | 2.5V | 08:06:55 | 02:34:43 | 00:00:00 | |
| DD1CC3-15 | 2026-09-02 01:51:12 | 52.12889 | 6.40872 | 108° | 58km/h | 15224m | -8.6m/s | -50.9°C | 1.2% | 121.7hPa | 2.4V | 08:06:00 | 00:00:00 | 00:00:00 | |
| DH3RM | 2026-09-02 01:51:11 | 52.12893 | 6.40849 | 107° | 57km/h | 15233m | -8.7m/s | -50.8°C | 1.1% | 121.6hPa | 2.4V | 08:06:00 | 00:00:00 | 00:00:00 | |
| DM0DOS-11 | 2026-09-02 01:51:10 | 52.12904 | 6.40782 | 102° | 57km/h | 15258m | -8.4m/s | -50.8°C | 3.4% | 121.1hPa | 2.4V | 08:06:58 | 02:34:39 | 00:00:00 | |
| DL1XH-west | 2026-09-02 01:51:09 | 52.12904 | 6.40782 | 102° | 57km/h | 15258m | -8.4m/s | -50.8°C | 0.2% | 121.1hPa | 2.4V | 08:08:37 | 02:34:39 | 00:00:00 | |
| AA1-15 | 2026-09-02 01:51:05 | 52.12914 | 6.40692 | 100° | 55km/h | 15292m | -8.6m/s | -51°C | 0.3% | 120.5hPa | 2.4V | 08:07:46 | 02:34:35 | 00:00:00 | |
| BIOWL1-15 | 2026-09-02 01:51:05 | 52.12916 | 6.40670 | 101° | 55km/h | 15300m | -8.4m/s | -50.9°C | 0.3% | 120.3hPa | 2.4V | 08:07:46 | 02:34:34 | 00:00:00 | |
| DO2JMG | 2026-09-02 01:51:02 | 52.12922 | 6.40625 | 103° | 55km/h | 15317m | -8.5m/s | -50.9°C | 0.3% | 120hPa | 2.5V | 08:07:46 | 02:34:32 | 00:00:00 | |
| MET0W-2 | 2026-09-02 01:51:02 | 52.12925 | 6.40603 | 103° | 55km/h | 15325m | -8.7m/s | -51.0°C | 1.2% | 119.8hPa | 2.4V | 00:00:00 | 00:00:00 | 00:00:00 | |
| SONCRA | 2026-09-02 01:51:01 | 52.12925 | 6.40603 | 103° | 55km/h | 15325m | -8.7m/s | -51.0°C | 1.2% | 119.8hPa | 2.4V | 00:00:00 | 00:00:00 | 00:00:00 | |
| HTAHTA | 2026-09-02 01:51:00 | 52.12932 | 6.40558 | 104° | 55km/h | 15342m | -8.7m/s | -51.1°C | 1.2% | 119.6hPa | 2.4V | 00:00:00 | 00:00:00 | 00:00:00 | |
| DM0DOS-11 | 2026-09-02 01:50:59 | 52.12932 | 6.40558 | 104° | 57km/h | 15342m | -8.7m/s | -51.1°C | 3.4% | 119.6hPa | 2.4V | 08:07:08 | 02:34:29 | 00:00:00 | |
| DL1XH-west | 2026-09-02 01:50:58 | 52.12935 | 6.40536 | 104° | 57km/h | 15351m | -8.7m/s | -51.2°C | 0.3% | 119.4hPa | 2.4V | 08:08:37 | 02:34:28 | 00:00:00 | |
| BIOWL1-15 | 2026-09-02 01:50:54 | 52.12949 | 6.40447 | 104° | 55km/h | 15386m | -8.8m/s | -51.2°C | 0.3% | 118.8hPa | 2.4V | 08:07:46 | 02:34:24 | 00:00:00 | |
| DO2JMG | 2026-09-02 01:50:51 | 52.12958 | 6.40381 | 102° | 57km/h | 15412m | -8.6m/s | -51.2°C | 0.3% | 118.3hPa | 2.5V | 08:07:46 | 02:34:21 | 00:00:00 | |
| DL1XH-west | 2026-09-02 01:50:47 | 52.12969 | 6.40290 | 100° | 57km/h | 15447m | -8.9m/s | -51.3°C | 0.4% | 117.6hPa | 2.4V | 08:08:37 | 02:34:17 | 00:00:00 | |
| DD1CC8 | 2026-09-02 01:50:46 | 52.12974 | 6.40245 | 101° | 53km/h | 15464m | -8.8m/s | -51.2°C | 1.2% | 117.3hPa | 2.5V | 00:00:00 | 00:00:00 | 00:00:00 | |
| DH3RM | 2026-09-02 01:50:45 | 52.12971 | 6.40267 | 102° | 55km/h | 15456m | -8.7m/s | -51.2°C | 1.2% | 117.5hPa | 2.5V | 08:07:00 | 00:00:00 | 00:00:00 | |
| DM0DOS-11 | 2026-09-02 01:50:44 | 52.12992 | 6.40118 | 104° | 51km/h | 15517m | -8.7m/s | -51.5°C | 3.5% | 116.4hPa | 2.5V | 08:07:28 | 02:34:09 | 00:00:00 | |
| DL1XH-15 | 2026-09-02 01:50:44 | 52.12986 | 6.40159 | 103° | 53km/h | 15499m | -9m/s | -51.3°C | 3.5% | 116.7hPa | 2.4V | 08:07:26 | 02:34:11 | 00:00:00 | |
| AA1-15 | 2026-09-02 01:50:44 | 52.12977 | 6.40223 | 102° | 55km/h | 15473m | -8.8m/s | -51.1°C | 0.3% | 117.2hPa | 2.4V | 08:07:46 | 02:34:14 | 00:00:00 | |
| DO2JMG | 2026-09-02 01:50:41 | 52.12985 | 6.40159 | 104° | 53km/h | 15499m | -9m/s | -51.4°C | 0.3% | 116.7hPa | 2.4V | 08:07:46 | 02:34:11 | 00:00:00 | |
| DL1XH-west | 2026-09-02 01:50:37 | 52.12998 | 6.40078 | 105° | 49km/h | 15535m | -8.6m/s | -51.4°C | 0.4% | 116.1hPa | 2.4V | 08:08:37 | 02:34:07 | 00:00:00 | |
| BIOWL1-15 | 2026-09-02 01:50:34 | 52.13007 | 6.40018 | 103° | 49km/h | 15560m | -8.7m/s | -51.3°C | 0.3% | 115.6hPa | 2.5V | 08:07:46 | 02:34:04 | 00:00:00 | |
| DL1XH-15 | 2026-09-02 01:50:34 | 52.13017 | 6.39937 | 101° | 51km/h | 15594m | -8.6m/s | -51.5°C | 3.5% | 115hPa | 2.4V | 08:07:37 | 02:34:00 | 00:00:00 | |
| AA1-15 | 2026-09-02 01:50:34 | 52.13009 | 6.39998 | 102° | 49km/h | 15569m | -8.7m/s | -51.4°C | 0.3% | 115.5hPa | 2.5V | 08:07:46 | 02:34:03 | 00:00:00 | |
| DO2JMG | 2026-09-02 01:50:30 | 52.13017 | 6.39937 | 102° | 51km/h | 15594m | -8.6m/s | -51.5°C | 0.3% | 115hPa | 2.4V | 08:07:46 | 02:34:00 | 00:00:00 | |
| DL1XH-west | 2026-09-02 01:50:26 | 52.13027 | 6.39854 | 99° | 53km/h | 15630m | -8.8m/s | -51.7°C | 0.4% | 114.4hPa | 2.4V | 08:08:37 | 02:33:56 | 00:00:00 | |
| BIOWL1-15 | 2026-09-02 01:50:26 | 52.13031 | 6.39811 | 97° | 53km/h | 15648m | -9.1m/s | -51.7°C | 0.4% | 114.1hPa | 2.4V | 08:07:46 | 02:33:54 | 00:00:00 | |
| DO9LL-15 | 2026-09-02 01:50:26 | 52.13027 | 6.39854 | 100° | 57km/h | 15630m | -8.8m/s | -51.6°C | 3.5% | 114.4hPa | 2.4V | 00:00:00 | 02:33:56 | 00:00:00 | |
| DF5WG-10 | 2026-09-02 01:50:24 | 52.13031 | 6.39811 | 98° | 57km/h | 15648m | -9.0m/s | -51.7°C | 3.6% | 114.0hPa | 2.4V | 00:00:00 | 02:33:54 | 00:00:00 | |
| DL1XH-15 | 2026-09-02 01:50:23 | 52.13036 | 6.39721 | 93° | 57km/h | 15683m | -8.6m/s | -51.9°C | 3.7% | 113.5hPa | 2.4V | 08:07:47 | 02:33:50 | 00:00:00 | |
| AA1-15 | 2026-09-02 01:50:22 | 52.13034 | 6.39767 | 96° | 55km/h | 15666m | -8.6m/s | -51.8°C | 0.5% | 113.8hPa | 2.5V | 08:07:46 | 02:33:52 | 00:00:00 | |
| DO2JMG | 2026-09-02 01:50:20 | 52.13036 | 6.39721 | 93° | 57km/h | 15683m | -8.6m/s | -51.9°C | 0.5% | 113.5hPa | 2.4V | 08:08:37 | 02:33:50 | 00:00:00 | |
| DL1XH-west | 2026-09-02 01:50:16 | 52.13038 | 6.39626 | 93° | 58km/h | 15718m | -8.6m/s | -52.1°C | 0.5% | 112.9hPa | 2.5V | 08:08:37 | 02:33:46 | 00:00:00 | |
| DF5WG-10 | 2026-09-02 01:50:14 | 52.13040 | 6.39579 | 96° | 58km/h | 15735m | -8.6m/s | -52.2°C | 3.8% | 112.5hPa | 2.4V | 08:07:00 | 02:33:44 | 00:00:00 | |
| DL1XH-15 | 2026-09-02 01:50:13 | 52.13047 | 6.39486 | 97° | 58km/h | 15770m | -8.9m/s | -52.5°C | 3.8% | 112hPa | 2.4V | 08:07:57 | 02:33:40 | 00:00:00 | |
| DM0DOS-11 | 2026-09-02 01:50:13 | 52.13049 | 6.39463 | 97° | 58km/h | 15779m | -9.2m/s | -52.5°C | 3.9% | 111.8hPa | 2.4V | 08:07:58 | 02:33:39 | 00:00:00 | |
| BIOWL1-15 | 2026-09-02 01:50:13 | 52.13041 | 6.39556 | 96° | 57km/h | 15744m | -9.1m/s | -52.3°C | 0.5% | 112.4hPa | 2.4V | 08:08:37 | 02:33:43 | 00:00:00 | |
| AA1-15 | 2026-09-02 01:50:11 | 52.13045 | 6.39510 | 97° | 57km/h | 15762m | -8.8m/s | -52.4°C | 0.6% | 112.1hPa | 2.5V | 08:08:37 | 02:33:41 | 00:00:00 | |
| DO2JMG | 2026-09-02 01:50:09 | 52.13049 | 6.39463 | 98° | 58km/h | 15779m | -9.2m/s | -52.5°C | 0.6% | 111.8hPa | 2.4V | 08:08:37 | 02:33:39 | 00:00:00 | |
| DL1XH-west | 2026-09-02 01:50:06 | 52.13056 | 6.39392 | 100° | 58km/h | 15806m | -8.7m/s | -51.9°C | 0.5% | 111.3hPa | 2.5V | 08:08:37 | 02:33:36 | 00:00:00 | |
| BIOWL1-15 | 2026-09-02 01:50:05 | 52.13065 | 6.39323 | 103° | 57km/h | 15832m | -9m/s | -51.5°C | 0.5% | 110.9hPa | 2.4V | 08:08:37 | 02:33:33 | 00:00:00 | |
| DF5WG-10 | 2026-09-02 01:50:04 | 52.13062 | 6.39346 | 103° | 58km/h | 15823m | -8.6m/s | -51.5°C | 3.6% | 111.0hPa | 2.5V | 00:00:00 | 02:33:34 | 00:00:00 | |
| DM0DOS-11 | 2026-09-02 01:50:03 | 52.13078 | 6.39230 | 101° | 58km/h | 15868m | -8.9m/s | -51.4°C | 3.6% | 110.3hPa | 2.5V | 08:08:08 | 02:33:29 | 00:00:00 | |
| AA1-15 | 2026-09-02 01:50:00 | 52.13074 | 6.39254 | 102° | 58km/h | 15859m | -9m/s | -51.4°C | 0.4% | 110.4hPa | 2.5V | 08:08:37 | 02:33:30 | 00:00:00 | |
| DO2JMG | 2026-09-02 01:49:58 | 52.13081 | 6.39206 | 101° | 60km/h | 15876m | -8.7m/s | -51.5°C | 0.5% | 110.2hPa | 2.4V | 08:08:37 | 02:33:28 | 00:00:00 | |
| DL1XH-west | 2026-09-02 01:49:55 | 52.13090 | 6.39133 | 103° | 62km/h | 15902m | -8.6m/s | -51.6°C | 0.4% | 109.7hPa | 2.5V | 08:08:37 | 02:33:25 | 00:00:00 | |
| DF5WG-10 | 2026-09-02 01:49:54 | 52.13094 | 6.39108 | 104° | 60km/h | 15911m | -8.5m/s | -51.6°C | 3.6% | 109.5hPa | 2.5V | 00:00:00 | 02:33:24 | 00:00:00 | |
| DM0DOS-11 | 2026-09-02 01:49:53 | 52.13115 | 6.38986 | 107° | 60km/h | 15954m | -8.8m/s | -51.9°C | 3.7% | 108.8hPa | 2.5V | 08:08:18 | 02:33:19 | 00:00:00 | |
| BIOWL1-15 | 2026-09-02 01:49:52 | 52.13102 | 6.39058 | 106° | 62km/h | 15928m | -8.6m/s | -51.7°C | 0.5% | 109.3hPa | 2.4V | 08:08:37 | 02:33:22 | 00:00:00 | |
| AA1-15 | 2026-09-02 01:49:49 | 52.13115 | 6.38986 | 107° | 60km/h | 15954m | -8.9m/s | -51.9°C | 0.5% | 108.8hPa | 2.5V | 08:08:37 | 02:33:19 | 00:00:00 | |
| DO2JMG | 2026-09-02 01:49:47 | 52.13125 | 6.38940 | 108° | 58km/h | 15972m | -8.9m/s | -52°C | 0.5% | 108.5hPa | 2.4V | 08:08:37 | 02:33:17 | 00:00:00 | |
| DL1XH-west | 2026-09-02 01:49:45 | 52.13134 | 6.38896 | 110° | 55km/h | 15990m | -8.8m/s | -52°C | 0.6% | 108.2hPa | 2.4V | 08:08:37 | 02:33:15 | 00:00:00 | |
| BIOWL1-15 | 2026-09-02 01:49:41 | 52.13153 | 6.38815 | 111° | 49km/h | 16025m | -9.2m/s | -51.4°C | 0.4% | 107.6hPa | 2.4V | 08:08:37 | 02:33:11 | 00:00:00 | |
| AA1-15 | 2026-09-02 01:49:38 | 52.13165 | 6.38758 | 109° | 47km/h | 16052m | -8.8m/s | -51.4°C | 0.5% | 107.2hPa | 2.5V | 08:08:37 | 02:33:08 | 00:00:00 | |
| DO2JMG | 2026-09-02 01:49:36 | 52.13172 | 6.38722 | 107° | 46km/h | 16069m | -8.7m/s | -51.4°C | 0.5% | 106.9hPa | 2.4V | 08:08:37 | 02:33:06 | 00:00:00 | |
| BIOWL1-15 | 2026-09-02 01:49:34 | 52.13191 | 6.38617 | 106° | 42km/h | 16122m | -9m/s | -51.5°C | 0.4% | 106.1hPa | 2.4V | 08:08:37 | 02:33:00 | 00:00:00 | |
| DL1XH-west | 2026-09-02 01:49:34 | 52.13179 | 6.38687 | 106° | 46km/h | 16086m | -8.8m/s | -51.4°C | 0.4% | 106.7hPa | 2.4V | 08:08:37 | 02:33:04 | 00:00:00 | |
| AA1-15 | 2026-09-02 01:49:27 | 52.13199 | 6.38569 | 103° | 38km/h | 16148m | -9.1m/s | -51.6°C | 0.4% | 105.6hPa | 2.4V | 08:09:28 | 02:32:57 | 00:00:00 | |
| DO2JMG | 2026-09-02 01:49:25 | 52.13203 | 6.38537 | 100° | 38km/h | 16167m | -8.9m/s | -51.7°C | 0.4% | 105.4hPa | 2.5V | 08:09:28 | 02:32:55 | 00:00:00 | |
| DL1ZP-14 | 2026-09-02 01:49:25 | 52.13204 | 6.38522 | 97° | 37km/h | 16175m | -8.7m/s | -51.8°C | 1.2% | 105.2hPa | 2.4V | 00:00:00 | 00:00:00 | 00:00:00 | |
| DF5WG-10 | 2026-09-02 01:49:24 | 52.13204 | 6.38522 | 98° | 42km/h | 16176m | -8.7m/s | -51.7°C | 3.6% | 105.1hPa | 2.4V | 00:00:00 | 02:32:54 | 00:00:00 | |
| DM0DOS-11 | 2026-09-02 01:49:23 | 52.13205 | 6.38440 | 85° | 42km/h | 16220m | -9.4m/s | -52.1°C | 3.7% | 104.5hPa | 2.4V | 08:08:48 | 02:32:49 | 00:00:00 | |
| DL1XH-west | 2026-09-02 01:49:23 | 52.13205 | 6.38506 | 95° | 38km/h | 16184m | -8.8m/s | -51.9°C | 0.4% | 105.1hPa | 2.4V | 08:09:28 | 02:32:53 | 00:00:00 | |
| BIOWL1-15 | 2026-09-02 01:49:20 | 52.13206 | 6.38457 | 87° | 42km/h | 16210m | -9.2m/s | -52.1°C | 0.4% | 104.6hPa | 2.5V | 08:09:28 | 02:32:50 | 00:00:00 | |
| DH3RM | 2026-09-02 01:49:19 | 52.13206 | 6.38457 | 88° | 42km/h | 16211m | -9.2m/s | -52.1°C | 1.2% | 104.6hPa | 2.5V | 08:09:00 | 00:00:00 | 00:00:00 | |
| DL1XH-15 | 2026-09-02 01:49:18 | 52.13201 | 6.38368 | 85° | 46km/h | 16256m | -8.8m/s | -52.1°C | 3.7% | 103.9hPa | 2.5V | 08:08:52 | 02:32:45 | 00:00:00 | |
| AA1-15 | 2026-09-02 01:49:16 | 52.13202 | 6.38387 | 84° | 46km/h | 16247m | -8.9m/s | -52.1°C | 0.5% | 104.1hPa | 2.4V | 08:09:28 | 02:32:46 | 00:00:00 | |
| DO2JMG | 2026-09-02 01:49:14 | 52.13200 | 6.38350 | 86° | 46km/h | 16265m | -8.9m/s | -52.1°C | 0.5% | 103.8hPa | 2.5V | 08:09:28 | 02:32:44 | 00:00:00 | |
| BIOWL1-15 | 2026-09-02 01:49:13 | 52.13199 | 6.38260 | 90° | 44km/h | 16310m | -9.1m/s | -52.2°C | 0.5% | 103hPa | 2.5V | 08:09:28 | 02:32:39 | 00:00:00 | |
| DL1XH-west | 2026-09-02 01:49:13 | 52.13199 | 6.38331 | 87° | 44km/h | 16274m | -9m/s | -52.1°C | 0.5% | 103.6hPa | 2.4V | 08:09:28 | 02:32:43 | 00:00:00 | |
| DD1CC8 | 2026-09-02 01:49:12 | 52.13199 | 6.38313 | 88° | 42km/h | 16283m | -9.1m/s | -52.2°C | 1.2% | 103.5hPa | 2.4V | 00:00:00 | 00:00:00 | 00:00:00 | |
| DC6BW-12 | 2026-09-02 01:49:11 | 52.13199 | 6.38313 | 89° | 44km/h | 16283m | -9.1m/s | -52.2°C | 1.2% | 103.4hPa | 2.4V | 08:09:00 | 00:00:00 | 00:00:00 | |
| DO3DL | 2026-09-02 01:49:09 | 52.13199 | 6.38277 | 90° | 44km/h | 16301m | -8.8m/s | -52.2°C | 1.2% | 103.2hPa | 2.4V | 08:09:00 | 00:00:00 | 00:00:00 | |
| DL1XH-15 | 2026-09-02 01:49:08 | 52.13199 | 6.38185 | 91° | 47km/h | 16346m | -8.9m/s | -51.9°C | 3.6% | 102.5hPa | 2.4V | 08:09:02 | 02:32:35 | 00:00:00 | |
| AA1-15 | 2026-09-02 01:49:05 | 52.13199 | 6.38185 | 91° | 47km/h | 16346m | -8.9m/s | -51.9°C | 0.4% | 102.5hPa | 2.4V | 08:09:28 | 02:32:35 | 00:00:00 | |
| DO2JMG | 2026-09-02 01:49:04 | 52.13200 | 6.38165 | 91° | 49km/h | 16355m | -8.8m/s | -51.9°C | 0.4% | 102.3hPa | 2.5V | 08:09:28 | 02:32:34 | 00:00:00 | |
| DL1XH-west | 2026-09-02 01:49:02 | 52.13200 | 6.38123 | 92° | 53km/h | 16373m | -9m/s | -52°C | 0.4% | 102hPa | 2.4V | 08:09:28 | 02:32:32 | 00:00:00 | |
| BIOWL1-15 | 2026-09-02 01:48:58 | 52.13204 | 6.38034 | 96° | 55km/h | 16410m | -9.5m/s | -52°C | 0.4% | 101.5hPa | 2.5V | 08:09:28 | 02:32:28 | 00:00:00 | |
| AA1-15 | 2026-09-02 01:48:54 | 52.13211 | 6.37944 | 97° | 55km/h | 16447m | -9m/s | -52.1°C | 0.4% | 100.9hPa | 2.4V | 08:09:28 | 02:32:24 | 00:00:00 | |
| DO2JMG | 2026-09-02 01:48:53 | 52.13212 | 6.37922 | 99° | 55km/h | 16456m | -9.2m/s | -52.2°C | 0.4% | 100.8hPa | 2.4V | 08:09:28 | 02:32:23 | 00:00:00 | |
| DL1XH-west | 2026-09-02 01:48:52 | 52.13214 | 6.37900 | 98° | 55km/h | 16465m | -9.1m/s | -52.1°C | 0.4% | 100.6hPa | 2.5V | 08:09:28 | 02:32:22 | 00:00:00 | |
| DJ2KF-10 | 2026-09-02 01:48:52 | 52.13214 | 6.37900 | 98° | 51km/h | 16465m | -9.0m/s | -52.1°C | 3.6% | 100.6hPa | 2.5V | 00:00:00 | 02:32:22 | 00:00:00 | |
| DC6BW-12 | 2026-09-02 01:48:50 | 52.13216 | 6.37877 | 99° | 55km/h | 16474m | -9.2m/s | -52.0°C | 1.2% | 100.5hPa | 2.4V | 08:09:00 | 00:00:00 | 00:00:00 | |
| DO3DL | 2026-09-02 01:48:49 | 52.13218 | 6.37855 | 99° | 55km/h | 16483m | -9.4m/s | -52.0°C | 1.1% | 100.3hPa | 2.4V | 08:09:00 | 00:00:00 | 00:00:00 | |
| DL1XH-15 | 2026-09-02 01:48:48 | 52.13234 | 6.37709 | 100° | 46km/h | 16547m | -9.4m/s | -51.9°C | 3.5% | 99.3hPa | 2.4V | 08:09:24 | 02:32:13 | 00:00:00 | |
| BIOWL1-15 | 2026-09-02 01:48:48 | 52.13223 | 6.37810 | 99° | 55km/h | 16502m | -9.2m/s | -51.9°C | 0.3% | 100.1hPa | 2.4V | 08:09:28 | 02:32:18 | 00:00:00 | |
| DB0UT-7 | 2026-09-02 01:48:48 | 52.13223 | 6.37810 | 100° | 49km/h | 16502m | -9.1m/s | -51.9°C | 3.5% | 100.0hPa | 2.4V | 00:00:00 | 02:32:18 | 00:00:00 | |
| DH3RM | 2026-09-02 01:48:47 | 52.13223 | 6.37810 | 100° | 55km/h | 16502m | -9.2m/s | -51.9°C | 1.1% | 100.1hPa | 2.4V | 08:09:00 | 00:00:00 | 00:00:00 | |
| DM0DOS-11 | 2026-09-02 01:48:43 | 52.13243 | 6.37635 | 99° | 47km/h | 16584m | -9.2m/s | -51.9°C | 3.5% | 98.8hPa | 2.4V | 08:09:28 | 02:32:09 | 00:00:00 | |
| AA1-15 | 2026-09-02 01:48:43 | 52.13234 | 6.37709 | 101° | 46km/h | 16547m | -9.4m/s | -51.9°C | 0.2% | 99.3hPa | 2.4V | 08:09:28 | 02:32:13 | 00:00:00 | |
| DO2JMG | 2026-09-02 01:48:42 | 52.13236 | 6.37690 | 101° | 46km/h | 16556m | -9.4m/s | -51.9°C | 0.3% | 99.2hPa | 2.4V | 08:09:28 | 02:32:12 | 00:00:00 | |
| DL1XH-west | 2026-09-02 01:48:41 | 52.13238 | 6.37672 | 102° | 46km/h | 16565m | -9.1m/s | -51.9°C | 0.3% | 99hPa | 2.5V | 08:09:28 | 02:32:11 | 00:00:00 | |
| BIOWL1-15 | 2026-09-02 01:48:37 | 52.13246 | 6.37596 | 99° | 49km/h | 16602m | -9.4m/s | -52°C | 0.3% | 98.5hPa | 2.4V | 08:10:19 | 02:32:07 | 00:00:00 | |
| DO3DL | 2026-09-02 01:48:36 | 52.13247 | 6.37596 | 100° | 49km/h | 16602m | -9.4m/s | -52.0°C | 1.1% | 98.5hPa | 2.5V | 08:10:00 | 00:00:00 | 00:00:00 | |
| GOEST3-10 | 2026-09-02 01:48:35 | 52.13250 | 6.37555 | 99° | 49km/h | 16621m | -9.4m/s | -52.0°C | 3.6% | 98.2hPa | 2.5V | 00:00:00 | 02:32:05 | 00:00:00 | |
| WPPR-10 | 2026-09-02 01:48:34 | 52.13252 | 6.37535 | 98° | 51km/h | 16630m | -9.6m/s | -52.1°C | 1.1% | 98.1hPa | 2.5V | 00:00:00 | 00:00:00 | 00:00:00 | |
| DM0DOS-11 | 2026-09-02 01:48:33 | 52.13261 | 6.37431 | 95° | 49km/h | 16677m | -9.2m/s | -52.2°C | 3.6% | 97.3hPa | 2.5V | 08:09:38 | 02:31:59 | 00:00:00 | |
| AA1-15 | 2026-09-02 01:48:33 | 52.13254 | 6.37514 | 99° | 51km/h | 16640m | -9.6m/s | -52.1°C | 0.3% | 97.9hPa | 2.4V | 08:10:19 | 02:32:03 | 00:00:00 | |
| DL1XH-west | 2026-09-02 01:48:31 | 52.13258 | 6.37472 | 97° | 51km/h | 16659m | -9.2m/s | -52.2°C | 0.3% | 97.6hPa | 2.4V | 08:10:19 | 02:32:01 | 00:00:00 | |
| BIOWL1-15 | 2026-09-02 01:48:26 | 52.13264 | 6.37371 | 93° | 49km/h | 16705m | -9.2m/s | -52.2°C | 0.3% | 96.9hPa | 2.4V | 08:10:19 | 02:31:56 | 00:00:00 | |
| DO9LL-15 | 2026-09-02 01:48:26 | 52.13264 | 6.37371 | 93° | 57km/h | 16705m | -9.2m/s | -52.2°C | 3.6% | 96.9hPa | 2.5V | 00:00:00 | 02:31:56 | 00:00:00 | |
| BIOWL9-15 | 2026-09-02 01:48:25 | 52.13264 | 6.37330 | 90° | 51km/h | 16724m | -9.1m/s | -52.3°C | 1.1% | 96.7hPa | 2.5V | 00:00:00 | 00:00:00 | 00:00:00 | |
| DM0DOS-11 | 2026-09-02 01:48:24 | 52.13263 | 6.37221 | 88° | 53km/h | 16769m | -9.6m/s | -52.4°C | 3.7% | 96hPa | 2.5V | 08:09:48 | 02:31:49 | 00:00:00 | |
| AA1-15 | 2026-09-02 01:48:22 | 52.13264 | 6.37287 | 89° | 53km/h | 16742m | -9.1m/s | -52.3°C | 0.3% | 96.4hPa | 2.4V | 08:10:19 | 02:31:52 | 00:00:00 | |
| DO2JMG | 2026-09-02 01:48:21 | 52.13263 | 6.37265 | 88° | 53km/h | 16751m | -9.2m/s | -52.3°C | 0.4% | 96.3hPa | 2.4V | 08:10:19 | 02:31:51 | 00:00:00 | |
| DL1XH-west | 2026-09-02 01:48:20 | 52.13263 | 6.37243 | 88° | 53km/h | 16760m | -9.4m/s | -52.4°C | 0.4% | 96.1hPa | 2.4V | 08:10:19 | 02:31:50 | 00:00:00 | |
| BIOWL1-15 | 2026-09-02 01:48:16 | 52.13262 | 6.37155 | 89° | 53km/h | 16798m | -9.4m/s | -52.3°C | 0.3% | 95.5hPa | 2.4V | 08:10:19 | 02:31:46 | 00:00:00 | |
| DO3DL | 2026-09-02 01:48:15 | 52.13262 | 6.37155 | 90° | 53km/h | 16798m | -9.4m/s | -52.3°C | 1.1% | 95.6hPa | 2.4V | 08:10:00 | 00:00:00 | 00:00:00 | |
| DF5WG-10 | 2026-09-02 01:48:14 | 52.13262 | 6.37112 | 91° | 57km/h | 16817m | -9.3m/s | -52.2°C | 3.6% | 95.2hPa | 2.4V | 00:00:00 | 02:31:44 | 00:00:00 | |
| DM0DOS-11 | 2026-09-02 01:48:13 | 52.13262 | 6.36999 | 89° | 58km/h | 16864m | -9.4m/s | -52.1°C | 3.6% | 94.6hPa | 2.4V | 08:09:58 | 02:31:39 | 00:00:00 | |
| AA1-15 | 2026-09-02 01:48:11 | 52.13262 | 6.37045 | 90° | 57km/h | 16845m | -9.6m/s | -52.3°C | 0.4% | 94.9hPa | 2.4V | 08:10:19 | 02:31:41 | 00:00:00 | |
| DO2JMG | 2026-09-02 01:48:10 | 52.13262 | 6.37022 | 90° | 57km/h | 16855m | -9.6m/s | -52.2°C | 0.4% | 94.7hPa | 2.4V | 08:10:19 | 02:31:40 | 00:00:00 | |
| BIOWL1-15 | 2026-09-02 01:48:09 | 52.13263 | 6.36901 | 93° | 60km/h | 16901m | -9.6m/s | -52°C | 0.3% | 94hPa | 2.4V | 08:10:19 | 02:31:35 | 00:00:00 | |
| DL1XH-west | 2026-09-02 01:48:09 | 52.13262 | 6.36999 | 90° | 58km/h | 16864m | -9.4m/s | -52.1°C | 0.4% | 94.6hPa | 2.4V | 08:10:19 | 02:31:39 | 00:00:00 | |
| DL1XH-15 | 2026-09-02 01:48:08 | 52.13262 | 6.36926 | 91° | 60km/h | 16892m | -9.4m/s | -52°C | 3.6% | 94.2hPa | 2.5V | 08:10:01 | 02:31:36 | 00:00:00 | |
| DD1CC3-15 | 2026-09-02 01:48:07 | 52.13262 | 6.36975 | 91° | 58km/h | 16874m | -9.3m/s | -52.1°C | 1.1% | 94.5hPa | 2.5V | 08:10:00 | 00:00:00 | 00:00:00 | |
| DK5PH-5 | 2026-09-02 01:48:06 | 52.13262 | 6.36926 | 92° | 55km/h | 16892m | -9.3m/s | -52.0°C | 3.6% | 94.1hPa | 2.5V | 00:00:00 | 02:31:36 | 00:00:00 | |
| DF5WG-10 | 2026-09-02 01:48:04 | 52.13263 | 6.36876 | 94° | 58km/h | 16911m | -9.5m/s | -51.8°C | 3.6% | 93.8hPa | 2.4V | 00:00:00 | 02:31:34 | 00:00:00 | |
| DM0DOS-11 | 2026-09-02 01:48:03 | 52.13271 | 6.36752 | 99° | 60km/h | 16958m | -9.5m/s | -51.9°C | 3.5% | 93.2hPa | 2.4V | 08:10:08 | 02:31:29 | 00:00:00 | |
| AA1-15 | 2026-09-02 01:48:00 | 52.13269 | 6.36776 | 98° | 60km/h | 16949m | -9.8m/s | -51.8°C | 0.3% | 93.3hPa | 2.4V | 08:10:19 | 02:31:30 | 00:00:00 | |
| DL1XH-15 | 2026-09-02 01:47:58 | 52.13279 | 6.36681 | 99° | 57km/h | 16986m | -9.2m/s | -51.9°C | 3.6% | 92.8hPa | 2.5V | 08:10:11 | 02:31:26 | 00:00:00 | |
| DL1XH-west | 2026-09-02 01:47:58 | 52.13274 | 6.36728 | 100° | 58km/h | 16968m | -8.8m/s | -51.9°C | 0.3% | 93.1hPa | 2.4V | 08:10:19 | 02:31:28 | 00:00:00 | |
| BIOWL1-15 | 2026-09-02 01:47:55 | 52.13281 | 6.36659 | 99° | 55km/h | 16995m | -9.4m/s | -51.8°C | 0.3% | 92.7hPa | 2.5V | 08:10:19 | 02:31:25 | 00:00:00 | |
| AA1-15 | 2026-09-02 01:47:49 | 52.13291 | 6.36531 | 96° | 51km/h | 17051m | -9.4m/s | -51.3°C | 0.2% | 91.9hPa | 2.5V | 08:10:19 | 02:31:19 | 00:00:00 | |
| GOEST3-10 | 2026-09-02 01:47:49 | 52.13291 | 6.36531 | 97° | 49km/h | 17051m | -9.3m/s | -51.3°C | 3.5% | 91.8hPa | 2.4V | 00:00:00 | 02:31:19 | 00:00:00 | |
| DL1XH-15 | 2026-09-02 01:47:48 | 52.13295 | 6.36468 | 95° | 53km/h | 17079m | -9.4m/s | -51.4°C | 3.5% | 91.5hPa | 2.4V | 08:10:21 | 02:31:16 | 00:00:00 | |
| DL1XH-west | 2026-09-02 01:47:48 | 52.13293 | 6.36510 | 97° | 51km/h | 17061m | -9.6m/s | -51.3°C | 0.2% | 91.8hPa | 2.4V | 08:10:19 | 02:31:18 | 00:00:00 | |
| DB0UT-7 | 2026-09-02 01:47:48 | 52.13293 | 6.36510 | 97° | 42km/h | 17061m | -9.6m/s | -51.2°C | 3.4% | 91.7hPa | 2.5V | 00:00:00 | 02:31:18 | 00:00:00 | |
| DD1CC3-15 | 2026-09-02 01:47:47 | 52.13293 | 6.36510 | 97° | 51km/h | 17061m | -9.6m/s | -51.3°C | 1.1% | 91.8hPa | 2.5V | 08:10:00 | 00:00:00 | 00:00:00 | |
| DM0DOS-11 | 2026-09-02 01:47:44 | 52.13307 | 6.36319 | 101° | 47km/h | 17141m | -9.9m/s | -51.6°C | 3.5% | 90.6hPa | 2.5V | 08:10:28 | 02:31:09 | 00:00:00 | |
| BIOWL1-15 | 2026-09-02 01:47:44 | 52.13298 | 6.36424 | 96° | 55km/h | 17098m | -8.7m/s | -51.5°C | 0.3% | 91.2hPa | 2.5V | 08:11:10 | 02:31:14 | 00:00:00 | |
| DO2JMG | 2026-09-02 01:47:39 | 52.13307 | 6.36319 | 101° | 47km/h | 17141m | -9.9m/s | -51.6°C | 0.3% | 90.6hPa | 2.5V | 08:11:10 | 02:31:09 | 00:00:00 | |
| DL1XH-15 | 2026-09-02 01:47:38 | 52.13313 | 6.36265 | 100° | 44km/h | 17171m | -10.3m/s | -51.5°C | 3.5% | 90.2hPa | 2.4V | 08:10:31 | 02:31:06 | 00:00:00 | |
| AA1-15 | 2026-09-02 01:47:38 | 52.13309 | 6.36301 | 99° | 46km/h | 17151m | -9.6m/s | -51.5°C | 0.3% | 90.5hPa | 2.5V | 08:11:10 | 02:31:08 | 00:00:00 | |
| DL1XH-west | 2026-09-02 01:47:37 | 52.13311 | 6.36282 | 99° | 44km/h | 17161m | -9.6m/s | -51.5°C | 0.3% | 90.3hPa | 2.4V | 08:11:10 | 02:31:07 | 00:00:00 | |
| DK5PH-5 | 2026-09-02 01:47:36 | 52.13312 | 6.36265 | 101° | 42km/h | 17171m | -10.3m/s | -51.4°C | 3.5% | 90.2hPa | 2.4V | 00:00:00 | 02:31:06 | 00:00:00 | |
| DO3DL | 2026-09-02 01:47:35 | 52.13312 | 6.36264 | 101° | 44km/h | 17171m | -10.3m/s | -51.5°C | 1.0% | 90.2hPa | 2.4V | 08:11:00 | 00:00:00 | 00:00:00 | |
| DF5WG-10 | 2026-09-02 01:47:34 | 52.13316 | 6.36231 | 102° | 37km/h | 17191m | -10.2m/s | -51.4°C | 3.5% | 89.9hPa | 2.4V | 00:00:00 | 02:31:04 | 00:00:00 | |
| DM0DOS-11 | 2026-09-02 01:47:33 | 52.13323 | 6.36155 | 96° | 35km/h | 17242m | -10.3m/s | -50.9°C | 3.3% | 89.2hPa | 2.4V | 08:10:38 | 02:30:59 | 00:00:00 | |
| BIOWL1-15 | 2026-09-02 01:47:33 | 52.13318 | 6.36215 | 99° | 38km/h | 17201m | -10.2m/s | -51.3°C | 0.2% | 89.8hPa | 2.5V | 08:11:10 | 02:31:03 | 00:00:00 | |
| WPPR-10 | 2026-09-02 01:47:32 | 52.13320 | 6.36199 | 98° | 37km/h | 17211m | -10.3m/s | -51.2°C | 1.0% | 89.7hPa | 2.4V | 00:00:00 | 00:00:00 | 00:00:00 | |
| DL1XH-15 | 2026-09-02 01:47:31 | 52.13325 | 6.36113 | 91° | 33km/h | 17272m | -10.4m/s | -50.8°C | 3.3% | 88.8hPa | 2.4V | 08:10:41 | 02:30:56 | 00:00:00 | |
| DO2JMG | 2026-09-02 01:47:28 | 52.13324 | 6.36141 | 94° | 35km/h | 17252m | -10.1m/s | -50.9°C | 0.2% | 89.1hPa | 2.5V | 08:11:10 | 02:30:58 | 00:00:00 | |
| DL1XH-west | 2026-09-02 01:47:27 | 52.13325 | 6.36127 | 93° | 33km/h | 17262m | -10.2m/s | -50.9°C | 0.2% | 89hPa | 2.5V | 08:11:10 | 02:30:57 | 00:00:00 | |
| BIOWL1-15 | 2026-09-02 01:47:24 | 52.13324 | 6.36057 | 85° | 35km/h | 17314m | -10.6m/s | -51°C | 0.2% | 88.2hPa | 2.5V | 08:11:10 | 02:30:52 | 00:00:00 | |
| DM0DOS-11 | 2026-09-02 01:47:23 | 52.13321 | 6.36013 | 85° | 38km/h | 17345m | -10.3m/s | -51.1°C | 3.4% | 87.9hPa | 2.4V | 08:10:48 | 02:30:49 | 00:00:00 | |
| DD1CC2-15 | 2026-09-02 01:47:21 | 52.13323 | 6.36057 | 86° | 35km/h | 17314m | -10.6m/s | -51.0°C | 1.0% | 88.2hPa | 2.5V | 08:11:00 | 00:00:00 | 00:00:00 | |
| DH3RM | 2026-09-02 01:47:19 | 52.13322 | 6.36028 | 83° | 37km/h | 17335m | -10.0m/s | -51.1°C | 1.0% | 88.0hPa | 2.5V | 08:11:00 | 00:00:00 | 00:00:00 | |
| DL1XH-15 | 2026-09-02 01:47:18 | 52.13319 | 6.35964 | 86° | 40km/h | 17375m | -10.2m/s | -50.9°C | 3.3% | 87.4hPa | 2.5V | 08:10:51 | 02:30:46 | 00:00:00 | |
| DO2JMG | 2026-09-02 01:47:17 | 52.13319 | 6.35981 | 86° | 40km/h | 17365m | -10.3m/s | -50.9°C | 0.2% | 87.6hPa | 2.5V | 08:11:10 | 02:30:47 | 00:00:00 | |
| DL1XH-west | 2026-09-02 01:47:16 | 52.13318 | 6.35964 | 86° | 42km/h | 17376m | -10.2m/s | -50.9°C | 0.2% | 87.4hPa | 2.5V | 08:11:10 | 02:30:46 | 00:00:00 | |
| DO3DL | 2026-09-02 01:47:15 | 52.13319 | 6.35964 | 87° | 42km/h | 17376m | -10.2m/s | -50.9°C | 1.0% | 87.4hPa | 2.4V | 08:11:00 | 00:00:00 | 00:00:00 | |
| DF5WG-10 | 2026-09-02 01:47:14 | 52.13318 | 6.35930 | 89° | 42km/h | 17396m | -10.2m/s | -50.8°C | 3.3% | 87.1hPa | 2.4V | 08:10:00 | 02:30:44 | 00:00:00 | |
| DM0DOS-11 | 2026-09-02 01:47:13 | 52.13317 | 6.35844 | 90° | 42km/h | 17447m | -10.3m/s | -50.9°C | 3.3% | 86.5hPa | 2.4V | 08:10:58 | 02:30:39 | 00:00:00 | |
| BIOWL1-15 | 2026-09-02 01:47:12 | 52.13317 | 6.35896 | 89° | 40km/h | 17417m | -10.5m/s | -51°C | 0.1% | 86.9hPa | 2.4V | 08:11:10 | 02:30:42 | 00:00:00 | |
| DO2KSM | 2026-09-02 01:47:11 | 52.13317 | 6.35896 | 90° | 40km/h | 17417m | -10.5m/s | -51.0°C | 1.0% | 86.9hPa | 2.5V | 08:11:00 | 00:00:00 | 00:00:00 | |
| DO3DL | 2026-09-02 01:47:09 | 52.13317 | 6.35861 | 89° | 42km/h | 17438m | -10.2m/s | -51.0°C | 1.0% | 86.6hPa | 2.5V | 08:11:00 | 00:00:00 | 00:00:00 | |
| DL1XH-15 | 2026-09-02 01:47:08 | 52.13319 | 6.35794 | 94° | 42km/h | 17478m | -9.9m/s | -50.7°C | 3.3% | 86hPa | 2.5V | 08:11:01 | 02:30:36 | 00:00:00 | |
| DL1XH-west | 2026-09-02 01:47:06 | 52.13318 | 6.35794 | 94° | 42km/h | 17478m | -9.9m/s | -50.7°C | 0.1% | 86hPa | 2.5V | 08:11:10 | 02:30:36 | 00:00:00 | |
| AA1-15 | 2026-09-02 01:47:05 | 52.13320 | 6.35777 | 97° | 42km/h | 17489m | -10.2m/s | -50.8°C | 0.1% | 85.9hPa | 2.5V | 08:11:10 | 02:30:35 | 00:00:00 | |
| DM0DOS-11 | 2026-09-02 01:47:04 | 52.13333 | 6.35676 | 104° | 42km/h | 17550m | -10.5m/s | -51°C | 3.3% | 85.1hPa | 2.5V | 08:11:08 | 02:30:29 | 00:00:00 | |
| BIOWL1-15 | 2026-09-02 01:47:03 | 52.13325 | 6.35726 | 102° | 42km/h | 17519m | -10.4m/s | -50.9°C | 0.1% | 85.5hPa | 2.4V | 08:11:10 | 02:30:32 | 00:00:00 | |
| DO2JMG | 2026-09-02 01:46:56 | 52.13340 | 6.35629 | 105° | 38km/h | 17581m | -10.2m/s | -51.1°C | 0.2% | 84.7hPa | 2.4V | 08:12:01 | 02:30:26 | 00:00:00 | |
| DL1XH-west | 2026-09-02 01:46:55 | 52.13343 | 6.35614 | 104° | 37km/h | 17591m | -10.6m/s | -51.1°C | 0.1% | 84.6hPa | 2.4V | 08:12:01 | 02:30:25 | 00:00:00 | |
| BIOWL1-15 | 2026-09-02 01:46:53 | 52.13350 | 6.35556 | 102° | 37km/h | 17632m | -10.8m/s | -51.2°C | 0.1% | 84.1hPa | 2.4V | 08:12:01 | 02:30:21 | 00:00:00 | |
| SONCRA | 2026-09-02 01:46:53 | 52.13347 | 6.35585 | 101° | 35km/h | 17612m | -10.2m/s | -51.1°C | 1.0% | 84.3hPa | 2.5V | 00:00:00 | 00:00:00 | 00:00:00 | |
| BIOWL9-15 | 2026-09-02 01:46:52 | 52.13350 | 6.35556 | 101° | 37km/h | 17632m | -10.8m/s | -51.2°C | 1.0% | 84.1hPa | 2.5V | 00:00:00 | 00:00:00 | 00:00:00 | |
| HTAHTA | 2026-09-02 01:46:51 | 52.13352 | 6.35541 | 100° | 37km/h | 17643m | -10.3m/s | -51.2°C | 1.0% | 83.9hPa | 2.5V | 00:00:00 | 00:00:00 | 00:00:00 | |
| DL1ZP-14 | 2026-09-02 01:46:50 | 52.13354 | 6.35526 | 100° | 38km/h | 17653m | -10.2m/s | -51.3°C | 1.0% | 83.8hPa | 2.5V | 00:00:00 | 00:00:00 | 00:00:00 | |
| DL1XH-15 | 2026-09-02 01:46:48 | 52.13360 | 6.35477 | 99° | 40km/h | 17684m | -10.5m/s | -51.4°C | 3.4% | 83.4hPa | 2.4V | 08:11:21 | 02:30:16 | 00:00:00 | |
| DO2JMG | 2026-09-02 01:46:46 | 52.13360 | 6.35477 | 100° | 40km/h | 17684m | -10.5m/s | -51.4°C | 0.2% | 83.4hPa | 2.4V | 08:12:01 | 02:30:16 | 00:00:00 | |
| AA1-15 | 2026-09-02 01:46:45 | 52.13361 | 6.35461 | 98° | 40km/h | 17694m | -10.4m/s | -51.5°C | 0.2% | 83.2hPa | 2.4V | 08:12:01 | 02:30:15 | 00:00:00 | |
| DL1XH-west | 2026-09-02 01:46:44 | 52.13363 | 6.35445 | 99° | 40km/h | 17705m | -10.8m/s | -51.6°C | 0.2% | 83.1hPa | 2.4V | 08:12:01 | 02:30:14 | 00:00:00 | |
| BIOWL1-15 | 2026-09-02 01:46:42 | 52.13368 | 6.35382 | 96° | 38km/h | 17747m | -10.3m/s | -51.7°C | 0.3% | 82.6hPa | 2.4V | 08:12:01 | 02:30:10 | 00:00:00 | |
| DD1CC1-15 | 2026-09-02 01:46:41 | 52.13365 | 6.35413 | 97° | 38km/h | 17726m | -10.3m/s | -51.7°C | 1.0% | 82.8hPa | 2.5V | 00:00:00 | 00:00:00 | 00:00:00 | |
| DD1CC2-15 | 2026-09-02 01:46:40 | 52.13366 | 6.35397 | 99° | 38km/h | 17736m | -10.9m/s | -51.7°C | 1.1% | 82.7hPa | 2.5V | 08:12:00 | 00:00:00 | 00:00:00 | |
| DL1XH-15 | 2026-09-02 01:46:38 | 52.13373 | 6.35323 | 100° | 35km/h | 17789m | -10.3m/s | -51.6°C | 3.5% | 82hPa | 2.5V | 08:11:31 | 02:30:06 | 00:00:00 | |
| DO2JMG | 2026-09-02 01:46:35 | 52.13375 | 6.35309 | 100° | 37km/h | 17799m | -10.1m/s | -51.7°C | 0.3% | 81.9hPa | 2.4V | 08:12:01 | 02:30:05 | 00:00:00 | |
| AA1-15 | 2026-09-02 01:46:34 | 52.13376 | 6.35294 | 100° | 35km/h | 17809m | -10.4m/s | -51.8°C | 0.3% | 81.8hPa | 2.4V | 08:12:01 | 02:30:04 | 00:00:00 | |
| DF5WG-10 | 2026-09-02 01:46:34 | 52.13376 | 6.35294 | 101° | 35km/h | 17809m | -10.3m/s | -51.8°C | 3.5% | 81.8hPa | 2.4V | 00:00:00 | 02:30:04 | 00:00:00 | |
| DM0DOS-11 | 2026-09-02 01:46:33 | 52.13384 | 6.35225 | 98° | 33km/h | 17862m | -10.6m/s | -52°C | 3.6% | 81.1hPa | 2.4V | 08:11:38 | 02:29:59 | 00:00:00 | |
| DL1XH-west | 2026-09-02 01:46:33 | 52.13378 | 6.35280 | 102° | 35km/h | 17820m | -11m/s | -51.9°C | 0.3% | 81.7hPa | 2.4V | 08:12:01 | 02:30:03 | 00:00:00 | |
| BIOWL1-15 | 2026-09-02 01:46:29 | 52.13384 | 6.35225 | 99° | 33km/h | 17862m | -10.6m/s | -52°C | 0.4% | 81.1hPa | 2.4V | 08:12:01 | 02:29:59 | 00:00:00 | |
| DL1XH-15 | 2026-09-02 01:46:28 | 52.13386 | 6.35185 | 91° | 33km/h | 17894m | -10.3m/s | -51.7°C | 3.6% | 80.7hPa | 2.5V | 08:11:41 | 02:29:56 | 00:00:00 | |
| DO2JMG | 2026-09-02 01:46:24 | 52.13386 | 6.35159 | 87° | 31km/h | 17915m | -10.4m/s | -51.5°C | 0.3% | 80.5hPa | 2.4V | 08:12:01 | 02:29:54 | 00:00:00 | |
| DL1XH-west | 2026-09-02 01:46:23 | 52.13386 | 6.35147 | 88° | 31km/h | 17925m | -10.5m/s | -51.5°C | 0.2% | 80.3hPa | 2.4V | 08:12:01 | 02:29:53 | 00:00:00 | |
| BIOWL1-15 | 2026-09-02 01:46:20 | 52.13380 | 6.35081 | 79° | 35km/h | 17978m | -10.7m/s | -51.5°C | 0.3% | 79.7hPa | 2.4V | 08:12:01 | 02:29:48 | 00:00:00 | |
| GOEST3-10 | 2026-09-02 01:46:20 | 52.13383 | 6.35109 | 81° | 35km/h | 17957m | -10.7m/s | -51.5°C | 3.5% | 79.9hPa | 2.4V | 00:00:00 | 02:29:50 | 00:00:00 | |
| DL1ZP-14 | 2026-09-02 01:46:19 | 52.13380 | 6.35081 | 78° | 35km/h | 17978m | -10.7m/s | -51.5°C | 1.0% | 79.7hPa | 2.4V | 00:00:00 | 00:00:00 | 00:00:00 | |
| DL1XH-15 | 2026-09-02 01:46:18 | 52.13377 | 6.35051 | 77° | 38km/h | 18000m | -10.6m/s | -51.5°C | 3.5% | 79.4hPa | 2.4V | 08:11:51 | 02:29:46 | 00:00:00 | |
| DO2JMG | 2026-09-02 01:46:14 | 52.13372 | 6.35019 | 78° | 42km/h | 18022m | -10.7m/s | -51.5°C | 0.3% | 79.1hPa | 2.5V | 08:12:01 | 02:29:44 | 00:00:00 | |
| DL1XH-west | 2026-09-02 01:46:12 | 52.13369 | 6.34985 | 80° | 42km/h | 18043m | -10.4m/s | -51.4°C | 0.3% | 78.9hPa | 2.4V | 08:12:01 | 02:29:42 | 00:00:00 | |
| BIOWL1-15 | 2026-09-02 01:46:11 | 52.13364 | 6.34910 | 85° | 31km/h | 18097m | -10.6m/s | -51°C | 0.3% | 78.3hPa | 2.4V | 08:12:01 | 02:29:37 | 00:00:00 | |
| DO2JMG | 2026-09-02 01:46:03 | 52.13363 | 6.34863 | 87° | 27km/h | 18140m | -10.7m/s | -50.7°C | 0.2% | 77.8hPa | 2.5V | 08:12:52 | 02:29:33 | 00:00:00 | |
| DM0DOS-11 | 2026-09-02 01:46:03 | 52.13361 | 6.34815 | 84° | 29km/h | 18183m | -10.5m/s | -50.7°C | 3.3% | 77.2hPa | 2.4V | 08:12:08 | 02:29:29 | 00:00:00 | |
| DL1XH-west | 2026-09-02 01:46:01 | 52.13362 | 6.34839 | 85° | 29km/h | 18161m | -10.7m/s | -50.7°C | 0.1% | 77.5hPa | 2.4V | 08:12:52 | 02:29:31 | 00:00:00 | |
| BIOWL1-15 | 2026-09-02 01:45:58 | 52.13360 | 6.34776 | 85° | 33km/h | 18215m | -10.5m/s | -50.7°C | 0.1% | 76.9hPa | 2.4V | 08:12:52 | 02:29:26 | 00:00:00 | |
| DO2JMG | 2026-09-02 01:45:53 | 52.13358 | 6.34734 | 87° | 35km/h | 18247m | -11.1m/s | -50.6°C | 0.1% | 76.5hPa | 2.4V | 08:12:52 | 02:29:23 | 00:00:00 | |
| DM0DOS-11 | 2026-09-02 01:45:53 | 52.13354 | 6.34671 | 82° | 42km/h | 18290m | -10.7m/s | -50.7°C | 3.3% | 76hPa | 2.4V | 08:12:18 | 02:29:19 | 00:00:00 | |
| DL1XH-west | 2026-09-02 01:45:51 | 52.13356 | 6.34704 | 84° | 40km/h | 18269m | -11m/s | -50.6°C | 0.1% | 76.2hPa | 2.5V | 08:12:52 | 02:29:21 | 00:00:00 | |
| AU51GT2 | 2026-09-02 01:45:50 | 52.13354 | 6.34671 | 82° | 42km/h | 18290m | -10.7m/s | -50.7°C | 0.9% | 76.0hPa | 2.5V | 00:00:00 | 00:00:00 | 00:00:00 | |
| AA1-15 | 2026-09-02 01:45:50 | 52.13355 | 6.34688 | 83° | 40km/h | 18280m | -10.8m/s | -50.7°C | 0.2% | 76.1hPa | 2.4V | 08:12:52 | 02:29:20 | 00:00:00 | |
| HTAHTA | 2026-09-02 01:45:49 | 52.13354 | 6.34671 | 82° | 42km/h | 18290m | -10.7m/s | -50.7°C | 0.9% | 76.0hPa | 2.5V | 00:00:00 | 00:00:00 | 00:00:00 | |
| DL1XH-15 | 2026-09-02 01:45:48 | 52.13351 | 6.34618 | 85° | 46km/h | 18323m | -11.3m/s | -50.7°C | 3.3% | 75.6hPa | 2.5V | 08:12:21 | 02:29:16 | 00:00:00 | |
| BIOWL1-15 | 2026-09-02 01:45:46 | 52.13351 | 6.34618 | 86° | 46km/h | 18323m | -11.3m/s | -50.7°C | 0.1% | 75.6hPa | 2.5V | 08:12:52 | 02:29:16 | 00:00:00 | |
| DM0DOS-11 | 2026-09-02 01:45:44 | 52.13348 | 6.34487 | 91° | 46km/h | 18400m | -10.8m/s | -51°C | 3.4% | 74.7hPa | 2.4V | 08:12:28 | 02:29:09 | 00:00:00 | |
| DO2JMG | 2026-09-02 01:45:42 | 52.13348 | 6.34543 | 89° | 46km/h | 18366m | -11m/s | -50.9°C | 0.1% | 75.1hPa | 2.5V | 08:12:52 | 02:29:12 | 00:00:00 | |
| DL1XH-west | 2026-09-02 01:45:40 | 52.13348 | 6.34505 | 89° | 44km/h | 18389m | -10.9m/s | -50.9°C | 0.2% | 74.8hPa | 2.5V | 08:12:52 | 02:29:10 | 00:00:00 | |
| AA1-15 | 2026-09-02 01:45:39 | 52.13348 | 6.34487 | 92° | 46km/h | 18400m | -10.9m/s | -51°C | 0.2% | 74.7hPa | 2.4V | 08:12:52 | 02:29:09 | 00:00:00 | |
| DL3AQ-11 | 2026-09-02 01:45:39 | 52.13349 | 6.34469 | 95° | 42km/h | 18411m | -11.1m/s | -51.0°C | 1.0% | 74.6hPa | 2.5V | 00:00:00 | 00:00:00 | 00:00:00 | |
| DL1XH-15 | 2026-09-02 01:45:38 | 52.13351 | 6.34434 | 97° | 44km/h | 18432m | -10.8m/s | -50.9°C | 3.4% | 74.3hPa | 2.5V | 08:12:31 | 02:29:06 | 00:00:00 | |
| BIOWL1-15 | 2026-09-02 01:45:38 | 52.13351 | 6.34434 | 98° | 44km/h | 18432m | -10.8m/s | -50.9°C | 0.2% | 74.3hPa | 2.5V | 08:12:52 | 02:29:06 | 00:00:00 | |
| DO3DL | 2026-09-02 01:45:37 | 52.13349 | 6.34469 | 97° | 44km/h | 18411m | -11.1m/s | -51.0°C | 1.0% | 74.6hPa | 2.5V | 08:12:00 | 00:00:00 | 00:00:00 | |
| DD1CC8 | 2026-09-02 01:45:35 | 52.13353 | 6.34417 | 102° | 40km/h | 18443m | -11.2m/s | -50.8°C | 1.0% | 74.2hPa | 2.5V | 00:00:00 | 00:00:00 | 00:00:00 | |
| DF5WG-10 | 2026-09-02 01:45:34 | 52.13355 | 6.34401 | 103° | 33km/h | 18455m | -10.6m/s | -50.7°C | 3.3% | 74.1hPa | 2.5V | 00:00:00 | 02:29:04 | 00:00:00 | |
| DM0DOS-11 | 2026-09-02 01:45:33 | 52.13369 | 6.34328 | 108° | 31km/h | 18510m | -10.8m/s | -50.6°C | 3.3% | 73.5hPa | 2.5V | 08:12:38 | 02:28:59 | 00:00:00 | |
| DO2JMG | 2026-09-02 01:45:31 | 52.13363 | 6.34355 | 110° | 37km/h | 18487m | -11.1m/s | -50.7°C | 0.2% | 73.7hPa | 2.4V | 08:12:52 | 02:29:01 | 00:00:00 | |
| DL1XH-west | 2026-09-02 01:45:29 | 52.13369 | 6.34328 | 108° | 31km/h | 18510m | -10.8m/s | -50.6°C | 0.2% | 73.5hPa | 2.5V | 08:12:52 | 02:28:59 | 00:00:00 | |
| AA1-15 | 2026-09-02 01:45:28 | 52.13372 | 6.34316 | 107° | 31km/h | 18521m | -10.9m/s | -50.6°C | 0.1% | 73.4hPa | 2.4V | 08:12:52 | 02:28:58 | 00:00:00 | |
| BIOWL1-15 | 2026-09-02 01:45:26 | 52.13376 | 6.34294 | 101° | 27km/h | 18542m | -11m/s | -50.6°C | 0.1% | 73.1hPa | 2.4V | 08:12:52 | 02:28:56 | 00:00:00 | |
| DO9LL-15 | 2026-09-02 01:45:26 | 52.13375 | 6.34294 | 102° | 35km/h | 18543m | -11.0m/s | -50.6°C | 3.3% | 73.1hPa | 2.5V | 00:00:00 | 02:28:56 | 00:00:00 | |
| DF5WG-10 | 2026-09-02 01:45:24 | 52.13378 | 6.34273 | 97° | 27km/h | 18564m | -11.0m/s | -50.7°C | 3.3% | 72.8hPa | 2.5V | 00:00:00 | 02:28:54 | 00:00:00 | |
| DM0DOS-11 | 2026-09-02 01:45:23 | 52.13381 | 6.34219 | 96° | 29km/h | 18620m | -10.8m/s | -51°C | 3.4% | 72.2hPa | 2.5V | 08:12:48 | 02:28:49 | 00:00:00 | |
| DO2JMG | 2026-09-02 01:45:22 | 52.13380 | 6.34242 | 95° | 27km/h | 18598m | -11.6m/s | -50.9°C | 0.2% | 72.5hPa | 2.4V | 08:12:52 | 02:28:51 | 00:00:00 | |
| DL1XH-west | 2026-09-02 01:45:19 | 52.13381 | 6.34219 | 97° | 29km/h | 18621m | -10.8m/s | -51°C | 0.2% | 72.2hPa | 2.5V | 08:12:52 | 02:28:49 | 00:00:00 | |
| AA1-15 | 2026-09-02 01:45:17 | 52.13383 | 6.34195 | 99° | 31km/h | 18642m | -10.8m/s | -51°C | 0.2% | 72hPa | 2.4V | 08:12:52 | 02:28:47 | 00:00:00 | |
| BIOWL1-15 | 2026-09-02 01:45:16 | 52.13386 | 6.34170 | 103° | 31km/h | 18664m | -11.1m/s | -51°C | 0.2% | 71.7hPa | 2.4V | 08:12:52 | 02:28:45 | 00:00:00 | |
| DJ2DS-15 | 2026-09-02 01:45:16 | 52.13386 | 6.34170 | 103° | 31km/h | 18664m | -11.1m/s | -51.0°C | 1.0% | 71.7hPa | 2.5V | 00:00:00 | 00:00:00 | 00:00:00 | |
| DF5WG-10 | 2026-09-02 01:45:14 | 52.13388 | 6.34157 | 105° | 35km/h | 18676m | -11.5m/s | -50.9°C | 3.4% | 71.6hPa | 2.5V | 00:00:00 | 02:28:44 | 00:00:00 | |
| DM0DOS-11 | 2026-09-02 01:45:13 | 52.13397 | 6.34090 | 97° | 35km/h | 18732m | -10.9m/s | -50.9°C | 3.3% | 71hPa | 2.5V | 08:12:58 | 02:28:39 | 00:00:00 | |
| DO2JMG | 2026-09-02 01:45:10 | 52.13395 | 6.34104 | 100° | 35km/h | 18721m | -11.5m/s | -50.9°C | 0.1% | 71.2hPa | 2.4V | 08:13:43 | 02:28:40 | 00:00:00 | |
| DL1XH-15 | 2026-09-02 01:45:08 | 52.13401 | 6.34045 | 97° | 38km/h | 18765m | -11.2m/s | -51.1°C | 3.4% | 70.6hPa | 2.4V | 08:13:01 | 02:28:36 | 00:00:00 | |
| DL1XH-west | 2026-09-02 01:45:08 | 52.13398 | 6.34076 | 98° | 37km/h | 18743m | -11.1m/s | -51°C | 0.2% | 70.9hPa | 2.5V | 08:13:43 | 02:28:38 | 00:00:00 | |
| AA1-15 | 2026-09-02 01:45:07 | 52.13399 | 6.34061 | 98° | 37km/h | 18754m | -11.2m/s | -51°C | 0.2% | 70.8hPa | 2.5V | 08:13:43 | 02:28:37 | 00:00:00 | |
| BIOWL1-15 | 2026-09-02 01:45:07 | 52.13402 | 6.34029 | 100° | 40km/h | 18776m | -11.1m/s | -51.1°C | 0.3% | 70.5hPa | 2.4V | 08:13:43 | 02:28:35 | 00:00:00 | |
| GOEST3-10 | 2026-09-02 01:45:06 | 52.13401 | 6.34045 | 98° | 44km/h | 18765m | -11.1m/s | -51.0°C | 3.4% | 70.6hPa | 2.4V | 00:00:00 | 00:00:00 | 00:00:00 | |
| DM0DOS-11 | 2026-09-02 01:45:04 | 52.13414 | 6.33922 | 100° | 46km/h | 18843m | -10.8m/s | -51.4°C | 3.5% | 69.8hPa | 2.4V | 08:13:08 | 02:28:29 | 00:00:00 | |
| DO2JMG | 2026-09-02 01:45:00 | 52.13412 | 6.33941 | 102° | 47km/h | 18832m | -11.4m/s | -51.4°C | 0.3% | 70hPa | 2.4V | 08:13:43 | 02:28:30 | 00:00:00 | |
| DL3AQ-11 | 2026-09-02 01:44:59 | 52.13416 | 6.33903 | 101° | 46km/h | 18854m | -11.0m/s | -51.3°C | 1.0% | 69.7hPa | 2.5V | 00:00:00 | 00:00:00 | 00:00:00 | |
| DL1XH-15 | 2026-09-02 01:44:58 | 52.13422 | 6.33867 | 104° | 44km/h | 18876m | -10.8m/s | -51.2°C | 3.5% | 69.5hPa | 2.5V | 08:13:11 | 02:28:26 | 00:00:00 | |
| DL1XH-west | 2026-09-02 01:44:57 | 52.13419 | 6.33885 | 106° | 46km/h | 18865m | -11.3m/s | -51.2°C | 0.3% | 69.6hPa | 2.5V | 08:13:43 | 02:28:27 | 00:00:00 | |
| BIOWL1-15 | 2026-09-02 01:44:57 | 52.13425 | 6.33849 | 107° | 44km/h | 18886m | -11.1m/s | -51.2°C | 0.2% | 69.3hPa | 2.5V | 08:13:43 | 02:28:25 | 00:00:00 | |
| AA1-15 | 2026-09-02 01:44:56 | 52.13422 | 6.33867 | 104° | 44km/h | 18876m | -10.8m/s | -51.2°C | 0.3% | 69.5hPa | 2.5V | 08:13:43 | 02:28:26 | 00:00:00 | |
| DO2JMG | 2026-09-02 01:44:49 | 52.13447 | 6.33758 | 110° | 35km/h | 18954m | -10.9m/s | -51°C | 0.2% | 68.7hPa | 2.4V | 08:13:43 | 02:28:19 | 00:00:00 | |
| SONCRA | 2026-09-02 01:44:49 | 52.13450 | 6.33745 | 107° | 35km/h | 18965m | -10.9m/s | -51.0°C | 1.0% | 68.5hPa | 2.5V | 00:00:00 | 00:00:00 | 00:00:00 | |
| DO2KSM | 2026-09-02 01:44:48 | 52.13447 | 6.33758 | 111° | 35km/h | 18955m | -10.9m/s | -51.0°C | 1.0% | 68.7hPa | 2.5V | 08:13:00 | 00:00:00 | 00:00:00 | |
| DL1XH-15 | 2026-09-02 01:44:47 | 52.13456 | 6.33718 | 106° | 33km/h | 18988m | -11.4m/s | -51.1°C | 3.4% | 68.3hPa | 2.5V | 08:13:21 | 02:28:16 | 00:00:00 | |
| DL1XH-west | 2026-09-02 01:44:47 | 52.13453 | 6.33731 | 108° | 35km/h | 18976m | -11.5m/s | -51.1°C | 0.3% | 68.4hPa | 2.4V | 08:13:43 | 02:28:17 | 00:00:00 | |
| BIOWL1-15 | 2026-09-02 01:44:46 | 52.13460 | 6.33692 | 102° | 33km/h | 19010m | -10.9m/s | -51°C | 0.2% | 68.1hPa | 2.5V | 08:13:43 | 02:28:14 | 00:00:00 | |
| AA1-15 | 2026-09-02 01:44:45 | 52.13458 | 6.33705 | 104° | 33km/h | 18999m | -11.2m/s | -51.1°C | 0.2% | 68.2hPa | 2.5V | 08:13:43 | 02:28:15 | 00:00:00 | |
| DO2JMG | 2026-09-02 01:44:38 | 52.13469 | 6.33619 | 101° | 27km/h | 19078m | -11.2m/s | -50.8°C | 0.2% | 67.3hPa | 2.4V | 08:13:43 | 02:28:08 | 00:00:00 | |
| DL1XH-15 | 2026-09-02 01:44:37 | 52.13472 | 6.33599 | 106° | 24km/h | 19101m | -11.9m/s | -50.8°C | 3.3% | 67.1hPa | 2.5V | 08:13:31 | 02:28:06 | 00:00:00 | |
| DL1XH-west | 2026-09-02 01:44:36 | 52.13472 | 6.33599 | 106° | 24km/h | 19101m | -12m/s | -50.8°C | 0.2% | 67.1hPa | 2.5V | 08:13:43 | 02:28:06 | 00:00:00 | |
| AA1-15 | 2026-09-02 01:44:34 | 52.13476 | 6.33582 | 109° | 20km/h | 19124m | -11.3m/s | -50.8°C | 0.2% | 66.9hPa | 2.5V | 08:13:43 | 02:28:04 | 00:00:00 | |
| BIOWL1-15 | 2026-09-02 01:44:33 | 52.13477 | 6.33574 | 109° | 18km/h | 19135m | -11.3m/s | -50.9°C | 0.2% | 66.8hPa | 2.5V | 08:13:43 | 02:28:03 | 00:00:00 | |
| DO2JMG | 2026-09-02 01:44:28 | 52.13485 | 6.33543 | 112° | 15km/h | 19192m | -11.6m/s | -51.1°C | 0.2% | 66.2hPa | 2.5V | 08:13:43 | 02:27:58 | 00:00:00 | |
| DL1XH-15 | 2026-09-02 01:44:27 | 52.13488 | 6.33531 | 113° | 16km/h | 19215m | -11.7m/s | -51.2°C | 3.5% | 65.9hPa | 2.4V | 08:13:41 | 02:27:56 | 00:00:00 | |
| DL1XH-west | 2026-09-02 01:44:25 | 52.13489 | 6.33525 | 102° | 16km/h | 19227m | -11.6m/s | -51.2°C | 0.3% | 65.8hPa | 2.4V | 08:13:43 | 02:27:55 | 00:00:00 | |
| AA1-15 | 2026-09-02 01:44:24 | 52.13490 | 6.33518 | 100° | 18km/h | 19238m | -11.6m/s | -51.3°C | 0.3% | 65.7hPa | 2.5V | 08:13:43 | 02:27:54 | 00:00:00 | |
| DF5WG-10 | 2026-09-02 01:44:24 | 52.13490 | 6.33518 | 100° | 26km/h | 19239m | -11.5m/s | -51.2°C | 3.5% | 65.6hPa | 2.4V | 00:00:00 | 02:27:54 | 00:00:00 | |
| DM0DOS-11 | 2026-09-02 01:44:23 | 52.13492 | 6.33471 | 90° | 27km/h | 19296m | -11.3m/s | -51.4°C | 3.5% | 65.1hPa | 2.4V | 08:13:48 | 02:27:49 | 00:00:00 | |
| BIOWL1-15 | 2026-09-02 01:44:23 | 52.13490 | 6.33511 | 96° | 20km/h | 19250m | -11.6m/s | -51.3°C | 0.3% | 65.6hPa | 2.5V | 08:14:34 | 02:27:53 | 00:00:00 | |
| DO2JMG | 2026-09-02 01:44:17 | 52.13493 | 6.33448 | 94° | 29km/h | 19319m | -11.6m/s | -51.5°C | 0.3% | 64.9hPa | 2.5V | 08:14:34 | 02:27:47 | 00:00:00 | |
| DL1XH-15 | 2026-09-02 01:44:17 | 52.13493 | 6.33435 | 94° | 31km/h | 19330m | -11.5m/s | -51.6°C | 3.6% | 64.8hPa | 2.5V | 08:13:51 | 02:27:46 | 00:00:00 | |
| DL1XH-west | 2026-09-02 01:44:15 | 52.13494 | 6.33423 | 96° | 29km/h | 19341m | -12m/s | -51.6°C | 0.4% | 64.7hPa | 2.4V | 08:14:34 | 02:27:45 | 00:00:00 | |
| BIOWL1-15 | 2026-09-02 01:44:14 | 52.13496 | 6.33391 | 91° | 24km/h | 19376m | -11.4m/s | -51.2°C | 0.3% | 64.3hPa | 2.5V | 08:14:34 | 02:27:42 | 00:00:00 | |
| DF5WG-10 | 2026-09-02 01:44:14 | 52.13495 | 6.33412 | 99° | 24km/h | 19354m | -11.4m/s | -51.6°C | 3.6% | 64.5hPa | 2.4V | 08:13:00 | 02:27:44 | 00:00:00 | |
| DM0DOS-11 | 2026-09-02 01:44:13 | 52.13497 | 6.33362 | 94° | 24km/h | 19410m | -11.8m/s | -51°C | 3.4% | 64hPa | 2.4V | 08:13:58 | 02:27:39 | 00:00:00 | |
| AA1-15 | 2026-09-02 01:44:13 | 52.13496 | 6.33401 | 94° | 26km/h | 19365m | -11.3m/s | -51.5°C | 0.4% | 64.4hPa | 2.5V | 08:14:34 | 02:27:43 | 00:00:00 | |
| DO2JMG | 2026-09-02 01:44:07 | 52.13497 | 6.33343 | 91° | 24km/h | 19433m | -11.8m/s | -50.9°C | 0.2% | 63.7hPa | 2.5V | 08:14:34 | 02:27:37 | 00:00:00 | |
| DL1XH-15 | 2026-09-02 01:44:07 | 52.13498 | 6.33333 | 89° | 24km/h | 19445m | -11.8m/s | -50.9°C | 3.3% | 63.6hPa | 2.5V | 08:14:01 | 02:27:36 | 00:00:00 | |
| DL1XH-west | 2026-09-02 01:44:05 | 52.13497 | 6.33323 | 88° | 24km/h | 19457m | -12.2m/s | -50.9°C | 0.2% | 63.5hPa | 2.5V | 08:14:34 | 02:27:35 | 00:00:00 | |
| DF5WG-10 | 2026-09-02 01:44:04 | 52.13497 | 6.33314 | 88° | 20km/h | 19469m | -12.5m/s | -50.9°C | 3.3% | 63.3hPa | 2.5V | 00:00:00 | 02:27:34 | 00:00:00 | |
| DM0DOS-11 | 2026-09-02 01:44:03 | 52.13492 | 6.33272 | 72° | 20km/h | 19529m | -12.5m/s | -51.3°C | 3.3% | 62.8hPa | 2.5V | 08:14:08 | 02:27:29 | 00:00:00 | |
| BIOWL1-15 | 2026-09-02 01:44:03 | 52.13495 | 6.33288 | 79° | 20km/h | 19505m | -12.3m/s | -51.1°C | 0.2% | 63hPa | 2.5V | 08:14:34 | 02:27:31 | 00:00:00 | |
| AA1-15 | 2026-09-02 01:44:02 | 52.13496 | 6.33296 | 81° | 20km/h | 19493m | -12.4m/s | -51°C | 0.1% | 63.1hPa | 2.4V | 08:14:34 | 02:27:32 | 00:00:00 | |
| DO2JMG | 2026-09-02 01:43:57 | 52.13489 | 6.33257 | 69° | 20km/h | 19554m | -12.5m/s | -51.5°C | 0.3% | 62.6hPa | 2.4V | 08:14:34 | 02:27:27 | 00:00:00 | |
| DL1XH-west | 2026-09-02 01:43:55 | 52.13485 | 6.33242 | 65° | 22km/h | 19579m | -12.3m/s | -51.5°C | 0.3% | 62.4hPa | 2.5V | 08:14:34 | 02:27:25 | 00:00:00 | |
| WPPR-10 | 2026-09-02 01:43:55 | 52.13482 | 6.33234 | 62° | 20km/h | 19591m | -12.0m/s | -51.3°C | 0.9% | 62.2hPa | 2.5V | 00:00:00 | 00:00:00 | 00:00:00 | |
| DF5WG-10 | 2026-09-02 01:43:54 | 52.13482 | 6.33234 | 63° | 26km/h | 19591m | -11.9m/s | -51.3°C | 3.4% | 62.2hPa | 2.5V | 00:00:00 | 02:27:24 | 00:00:00 | |
| DM0DOS-11 | 2026-09-02 01:43:53 | 52.13467 | 6.33193 | 58° | 26km/h | 19649m | -12m/s | -51.4°C | 3.4% | 61.6hPa | 2.5V | 08:14:18 | 02:27:19 | 00:00:00 | |
| AA1-15 | 2026-09-02 01:43:53 | 52.13477 | 6.33218 | 58° | 22km/h | 19614m | -11.7m/s | -51.3°C | 0.2% | 62hPa | 2.4V | 08:14:34 | 02:27:22 | 00:00:00 | |
| BIOWL1-15 | 2026-09-02 01:43:51 | 52.13474 | 6.33210 | 57° | 24km/h | 19626m | -11.9m/s | -51.4°C | 0.2% | 61.9hPa | 2.5V | 08:14:34 | 02:27:21 | 00:00:00 | |
| DO2JMG | 2026-09-02 01:43:46 | 52.13456 | 6.33162 | 59° | 31km/h | 19685m | -11.8m/s | -51.7°C | 0.3% | 61.4hPa | 2.5V | 08:14:34 | 02:27:16 | 00:00:00 | |
| DL1XH-west | 2026-09-02 01:43:45 | 52.13452 | 6.33151 | 56° | 31km/h | 19697m | -11.5m/s | -51.8°C | 0.3% | 61.2hPa | 2.5V | 08:14:34 | 02:27:15 | 00:00:00 | |
| DM0DOS-11 | 2026-09-02 01:43:44 | 52.13428 | 6.33090 | 54° | 29km/h | 19768m | -11.9m/s | -52.2°C | 3.6% | 60.6hPa | 2.5V | 08:14:28 | 02:27:09 | 00:00:00 | |
| AA1-15 | 2026-09-02 01:43:41 | 52.13436 | 6.33110 | 55° | 27km/h | 19744m | -11.5m/s | -52.1°C | 0.3% | 60.8hPa | 2.4V | 08:14:34 | 02:27:11 | 00:00:00 | |
| BIOWL1-15 | 2026-09-02 01:43:40 | 52.13432 | 6.33100 | 59° | 27km/h | 19756m | -12.5m/s | -52.2°C | 0.4% | 60.7hPa | 2.4V | 08:14:34 | 02:27:10 | 00:00:00 | |
| DO2JMG | 2026-09-02 01:43:36 | 52.13416 | 6.33063 | 53° | 26km/h | 19804m | -12m/s | -52.3°C | 0.4% | 60.2hPa | 2.4V | 08:14:34 | 02:27:06 | 00:00:00 | |
| DL1XH-west | 2026-09-02 01:43:35 | 52.13413 | 6.33055 | 58° | 24km/h | 19816m | -12.3m/s | -52.4°C | 0.4% | 60.1hPa | 2.4V | 08:14:34 | 02:27:05 | 00:00:00 | |
| DD1CC2-15 | 2026-09-02 01:43:34 | 52.13412 | 6.33055 | 59° | 24km/h | 19816m | -12.3m/s | -52.4°C | 1.0% | 60.1hPa | 2.5V | 08:14:00 | 00:00:00 | 00:00:00 | |
| DM0DOS-11 | 2026-09-02 01:43:33 | 52.13396 | 6.32995 | 77° | 29km/h | 19889m | -12.6m/s | -52.4°C | 3.7% | 59.4hPa | 2.5V | 08:14:38 | 02:26:59 | 00:00:00 | |
| AA1-15 | 2026-09-02 01:43:30 | 52.13398 | 6.33006 | 72° | 31km/h | 19877m | -12.2m/s | -52.5°C | 0.4% | 59.5hPa | 2.4V | 08:15:25 | 02:27:00 | 00:00:00 | |
| DO2JMG | 2026-09-02 01:43:26 | 52.13391 | 6.32954 | 81° | 37km/h | 19927m | -12.4m/s | -52.1°C | 0.4% | 59.1hPa | 2.5V | 08:15:25 | 02:26:56 | 00:00:00 | |
| DL1XH-15 | 2026-09-02 01:43:26 | 52.13391 | 6.32954 | 80° | 37km/h | 19927m | -12.4m/s | -52.1°C | 3.6% | 59.1hPa | 2.5V | 08:14:41 | 02:26:56 | 00:00:00 | |
| DL1XH-west | 2026-09-02 01:43:24 | 52.13388 | 6.32926 | 81° | 35km/h | 19952m | -13.1m/s | -52.2°C | 0.3% | 58.9hPa | 2.4V | 08:15:25 | 02:26:54 | 00:00:00 | |
| WPPR-10 | 2026-09-02 01:43:24 | 52.13387 | 6.32912 | 78° | 33km/h | 19964m | -12.5m/s | -52.2°C | 1.0% | 58.8hPa | 2.4V | 00:00:00 | 00:00:00 | 00:00:00 | |
| DM0DOS-11 | 2026-09-02 01:43:23 | 52.13380 | 6.32863 | 77° | 29km/h | 20014m | -12.7m/s | -52.4°C | 3.7% | 58.3hPa | 2.4V | 08:14:48 | 02:26:49 | 00:00:00 | |
| AA1-15 | 2026-09-02 01:43:20 | 52.13382 | 6.32874 | 75° | 29km/h | 20002m | -12m/s | -52.3°C | 0.4% | 58.4hPa | 2.5V | 08:15:25 | 02:26:50 | 00:00:00 | |
| BIOWL1-15 | 2026-09-02 01:43:19 | 52.13380 | 6.32863 | 78° | 29km/h | 20014m | -12.7m/s | -52.4°C | 0.4% | 58.3hPa | 2.4V | 08:15:25 | 02:26:49 | 00:00:00 | |
| DO1YAY-16 | 2026-09-02 01:43:19 | 52.13378 | 6.32852 | 71° | 26km/h | 20027m | -11.9m/s | -52.3°C | 1.0% | 58.2hPa | 2.5V | 00:00:00 | 00:00:00 | 00:00:00 | |
| DB0UT-7 | 2026-09-02 01:43:18 | 52.13378 | 6.32852 | 72° | 27km/h | 20027m | -11.8m/s | -52.3°C | 3.7% | 58.2hPa | 2.5V | 00:00:00 | 00:00:00 | 00:00:00 | |
| DL1XH-15 | 2026-09-02 01:43:16 | 52.13375 | 6.32833 | 68° | 22km/h | 20051m | -12.2m/s | -52.1°C | 3.6% | 58hPa | 2.5V | 08:14:51 | 02:26:46 | 00:00:00 | |
| DO2JMG | 2026-09-02 01:43:15 | 52.13373 | 6.32825 | 72° | 20km/h | 20063m | -12.4m/s | -52°C | 0.3% | 57.9hPa | 2.5V | 08:15:25 | 02:26:45 | 00:00:00 | |
| DL1XH-west | 2026-09-02 01:43:14 | 52.13371 | 6.32816 | 66° | 22km/h | 20076m | -12.1m/s | -52.1°C | 0.4% | 57.8hPa | 2.4V | 08:15:25 | 02:26:44 | 00:00:00 | |
| BIOWL1-15 | 2026-09-02 01:43:09 | 52.13356 | 6.32779 | 47° | 22km/h | 20138m | -12.5m/s | -52.1°C | 0.4% | 57.2hPa | 2.5V | 08:15:25 | 02:26:39 | 00:00:00 | |
| GOEST3-10 | 2026-09-02 01:43:08 | 52.13351 | 6.32772 | 50° | 29km/h | 20151m | -12.7m/s | -52.0°C | 3.6% | 57.1hPa | 2.5V | 08:14:00 | 02:26:38 | 00:00:00 | |
| DL1XH-15 | 2026-09-02 01:43:06 | 52.13343 | 6.32755 | 51° | 27km/h | 20176m | -12.4m/s | -52.2°C | 3.7% | 56.9hPa | 2.5V | 08:15:01 | 02:26:36 | 00:00:00 | |
| DL1XH-west | 2026-09-02 01:43:04 | 52.13333 | 6.32734 | 54° | 33km/h | 20201m | -12.4m/s | -52.3°C | 0.5% | 56.7hPa | 2.5V | 08:15:25 | 02:26:34 | 00:00:00 | |
| DF5WG-10 | 2026-09-02 01:43:04 | 52.13333 | 6.32734 | 55° | 31km/h | 20201m | -12.4m/s | -52.2°C | 3.8% | 56.7hPa | 2.5V | 00:00:00 | 02:26:34 | 00:00:00 | |
| DM0DOS-11 | 2026-09-02 01:43:03 | 52.13315 | 6.32671 | 67° | 33km/h | 20264m | -12.1m/s | -51.7°C | 3.6% | 56.1hPa | 2.5V | 08:15:08 | 02:26:29 | 00:00:00 | |
| GOEST3-10 | 2026-09-02 01:43:03 | 52.13329 | 6.32723 | 62° | 33km/h | 20214m | -12.7m/s | -52.1°C | 3.7% | 56.5hPa | 2.4V | 00:00:00 | 00:00:00 | 00:00:00 | |
| EDDB2-12 | 2026-09-02 01:43:02 | 52.13325 | 6.32710 | 64° | 33km/h | 20227m | -12.7m/s | -51.9°C | 1.0% | 56.5hPa | 2.4V | 00:00:00 | 00:00:00 | 00:00:00 | |
| DL3AQ-11 | 2026-09-02 01:42:59 | 52.13312 | 6.32659 | 69° | 31km/h | 20277m | -12.3m/s | -51.7°C | 1.0% | 56.0hPa | 2.4V | 00:00:00 | 00:00:00 | 00:00:00 | |
| GOEST3-10 | 2026-09-02 01:42:58 | 52.13312 | 6.32658 | 70° | 29km/h | 20277m | -12.2m/s | -51.6°C | 3.6% | 56.0hPa | 2.4V | 00:00:00 | 02:26:28 | 00:00:00 | |
| BIOWL1-15 | 2026-09-02 01:42:58 | 52.13312 | 6.32659 | 70° | 33km/h | 20277m | -12.3m/s | -51.7°C | 0.4% | 56hPa | 2.5V | 08:15:25 | 02:26:28 | 00:00:00 | |
| DD1CC3-15 | 2026-09-02 01:42:57 | 52.13312 | 6.32658 | 71° | 33km/h | 20277m | -12.3m/s | -51.7°C | 1.0% | 56.0hPa | 2.4V | 08:15:00 | 00:00:00 | 00:00:00 | |
| DL1XH-15 | 2026-09-02 01:42:56 | 52.13307 | 6.32635 | 69° | 29km/h | 20302m | -12.2m/s | -51.6°C | 3.6% | 55.8hPa | 2.4V | 08:15:11 | 02:26:26 | 00:00:00 | |
| DO2JMG | 2026-09-02 01:42:54 | 52.13302 | 6.32614 | 69° | 26km/h | 20327m | -12.3m/s | -51.5°C | 0.3% | 55.6hPa | 2.5V | 08:15:25 | 02:26:24 | 00:00:00 | |
| DL1XH-west | 2026-09-02 01:42:53 | 52.13300 | 6.32604 | 69° | 24km/h | 20339m | -12.4m/s | -51.4°C | 0.3% | 55.5hPa | 2.5V | 08:15:25 | 02:26:23 | 00:00:00 | |
| WPPR-10 | 2026-09-02 01:42:53 | 52.13298 | 6.32595 | 68° | 24km/h | 20351m | -12.4m/s | -51.4°C | 1.0% | 55.4hPa | 2.4V | 00:00:00 | 00:00:00 | 00:00:00 | |
| DL4BBY-15 | 2026-09-02 01:42:52 | 52.13297 | 6.32595 | 69° | 24km/h | 20352m | -12.3m/s | -51.9°C | 0% | 0hPa | 2.4V | 00:00:00 | 00:00:00 | 00:00:00 | |
| DL1XH-15 | 2026-09-02 01:42:51 | 52.13285 | 6.32538 | 70° | 26km/h | 20428m | -12.7m/s | -51.4°C | 3.5% | 54.7hPa | 2.4V | 08:15:21 | 02:26:16 | 00:00:00 | |
| BIOWL1-15 | 2026-09-02 01:42:47 | 52.13287 | 6.32548 | 72° | 24km/h | 20415m | -12.8m/s | -51.4°C | 0.3% | 54.8hPa | 2.5V | 08:15:25 | 02:26:17 | 00:00:00 | |
| DO2JMG | 2026-09-02 01:42:44 | 52.13282 | 6.32517 | 80° | 27km/h | 20453m | -12.7m/s | -51.4°C | 0.4% | 54.5hPa | 2.5V | 08:15:25 | 02:26:14 | 00:00:00 | |
| AU51GT2 | 2026-09-02 01:42:44 | 52.13280 | 6.32505 | 79° | 29km/h | 20466m | -12.9m/s | -51.4°C | 0.9% | 54.4hPa | 2.4V | 00:00:00 | 00:00:00 | 00:00:00 | |
| DM0DOS-11 | 2026-09-02 01:42:43 | 52.13278 | 6.32455 | 91° | 31km/h | 20518m | -12.8m/s | -51.6°C | 3.5% | 54hPa | 2.4V | 08:15:28 | 02:26:09 | 00:00:00 | |
| DL1XH-west | 2026-09-02 01:42:42 | 52.13279 | 6.32493 | 85° | 31km/h | 20479m | -13.4m/s | -51.5°C | 0.3% | 54.3hPa | 2.5V | 08:15:25 | 02:26:12 | 00:00:00 | |
| DF5WG-10 | 2026-09-02 01:42:41 | 52.13279 | 6.32480 | 85° | 27km/h | 20492m | -12.6m/s | -51.5°C | 3.5% | 54.1hPa | 2.5V | 08:15:00 | 02:26:11 | 00:00:00 | |
| GOEST3-10 | 2026-09-02 01:42:38 | 52.13279 | 6.32443 | 98° | 27km/h | 20531m | -12.9m/s | -51.6°C | 3.5% | 53.8hPa | 2.5V | 00:00:00 | 02:26:08 | 00:00:00 | |
| DO3DL | 2026-09-02 01:42:37 | 52.13279 | 6.32443 | 98° | 29km/h | 20531m | -13.0m/s | -51.7°C | 1.0% | 53.9hPa | 2.5V | 08:16:00 | 00:00:00 | 00:00:00 | |
| DL1XH-15 | 2026-09-02 01:42:36 | 52.13281 | 6.32419 | 101° | 27km/h | 20556m | -12.8m/s | -51.7°C | 3.5% | 53.7hPa | 2.5V | 08:15:31 | 02:26:06 | 00:00:00 | |
| BIOWL1-15 | 2026-09-02 01:42:36 | 52.13281 | 6.32419 | 101° | 27km/h | 20556m | -12.8m/s | -51.7°C | 0.3% | 53.7hPa | 2.5V | 08:16:16 | 02:26:06 | 00:00:00 | |
| DO2JMG | 2026-09-02 01:42:33 | 52.13285 | 6.32389 | 106° | 24km/h | 20595m | -13.1m/s | -51.6°C | 0.3% | 53.3hPa | 2.5V | 08:16:16 | 02:26:03 | 00:00:00 | |
| DM0DOS-11 | 2026-09-02 01:42:33 | 52.13291 | 6.32357 | 110° | 18km/h | 20647m | -13.2m/s | -51.2°C | 3.3% | 52.9hPa | 2.4V | 08:15:38 | 02:25:59 | 00:00:00 | |
| DL1XH-west | 2026-09-02 01:42:32 | 52.13287 | 6.32380 | 107° | 22km/h | 20608m | -13m/s | -51.4°C | 0.3% | 53.2hPa | 2.5V | 08:16:16 | 02:26:02 | 00:00:00 | |
| DL3AQ-11 | 2026-09-02 01:42:32 | 52.13288 | 6.32372 | 107° | 20km/h | 20621m | -12.9m/s | -51.3°C | 0.9% | 53.2hPa | 2.5V | 00:00:00 | 00:00:00 | 00:00:00 | |
| DL1XH-15 | 2026-09-02 01:42:31 | 52.13296 | 6.32337 | 111° | 16km/h | 20686m | -12.9m/s | -51.3°C | 3.4% | 52.6hPa | 2.5V | 08:15:41 | 02:25:56 | 00:00:00 | |
| AA1-15 | 2026-09-02 01:42:26 | 52.13296 | 6.32337 | 112° | 16km/h | 20686m | -12.9m/s | -51.3°C | 0.2% | 52.6hPa | 2.5V | 08:16:16 | 02:25:56 | 00:00:00 | |
| BIOWL1-15 | 2026-09-02 01:42:25 | 52.13298 | 6.32331 | 112° | 16km/h | 20699m | -13.1m/s | -51.3°C | 0.2% | 52.5hPa | 2.5V | 08:16:16 | 02:25:55 | 00:00:00 | |
| DM0DOS-11 | 2026-09-02 01:42:24 | 52.13300 | 6.32296 | 64° | 13km/h | 20791m | -13.2m/s | -51.9°C | 3.5% | 51.7hPa | 2.5V | 08:15:49 | 02:25:48 | 00:00:00 | |
| DL1XH-west | 2026-09-02 01:42:22 | 52.13301 | 6.32314 | 103° | 13km/h | 20739m | -13.1m/s | -51.5°C | 0.2% | 52.2hPa | 2.5V | 08:16:16 | 02:25:52 | 00:00:00 | |
| WPPR-10 | 2026-09-02 01:42:22 | 52.13302 | 6.32309 | 95° | 11km/h | 20752m | -12.9m/s | -51.6°C | 0.9% | 52.1hPa | 2.5V | 00:00:00 | 00:00:00 | 00:00:00 | |
| DB0ND-19 | 2026-09-02 01:42:21 | 52.13302 | 6.32305 | 87° | 11km/h | 20765m | -13.4m/s | -51.7°C | 1.0% | 51.9hPa | 2.5V | 00:00:00 | 00:00:00 | 00:00:00 | |
| DL3AQ-11 | 2026-09-02 01:42:19 | 52.13300 | 6.32296 | 64° | 11km/h | 20791m | -13.2m/s | -51.9°C | 1.0% | 51.7hPa | 2.5V | 00:00:00 | 00:00:00 | 00:00:00 | |
| GOEST3-10 | 2026-09-02 01:42:18 | 52.13300 | 6.32295 | 65° | 13km/h | 20791m | -13.1m/s | -51.9°C | 3.5% | 51.7hPa | 2.5V | 00:00:00 | 02:25:48 | 00:00:00 | |
| DC6BW-12 | 2026-09-02 01:42:17 | 52.13300 | 6.32295 | 66° | 13km/h | 20791m | -13.2m/s | -51.9°C | 1.0% | 51.7hPa | 2.5V | 08:16:00 | 00:00:00 | 00:00:00 | |
| DL1XH-15 | 2026-09-02 01:42:16 | 52.13297 | 6.32287 | 51° | 13km/h | 20818m | -13.4m/s | -52.1°C | 3.5% | 51.5hPa | 2.5V | 08:15:51 | 02:25:46 | 00:00:00 | |
| BIOWL1-15 | 2026-09-02 01:42:16 | 52.13292 | 6.32278 | 52° | 15km/h | 20844m | -13.3m/s | -52.3°C | 0.4% | 51.4hPa | 2.5V | 08:16:16 | 02:25:44 | 00:00:00 | |
| AA1-15 | 2026-09-02 01:42:15 | 52.13294 | 6.32283 | 51° | 13km/h | 20831m | -12.9m/s | -52.2°C | 0.3% | 51.5hPa | 2.5V | 08:16:16 | 02:25:45 | 00:00:00 | |
| DO2JMG | 2026-09-02 01:42:12 | 52.13289 | 6.32269 | 67° | 13km/h | 20871m | -13.2m/s | -52.4°C | 0.3% | 51.1hPa | 2.5V | 08:16:16 | 02:25:42 | 00:00:00 | |
| DL1XH-west | 2026-09-02 01:42:11 | 52.13288 | 6.32264 | 75° | 15km/h | 20884m | -13.5m/s | -52.5°C | 0.4% | 51hPa | 2.5V | 08:16:16 | 02:25:41 | 00:00:00 | |
| AA1-15 | 2026-09-02 01:42:04 | 52.13279 | 6.32222 | 54° | 18km/h | 20964m | -10.5m/s | -52.6°C | 0.4% | 50.4hPa | 2.5V | 08:16:16 | 02:25:34 | 00:00:00 | |
| DO2JMG | 2026-09-02 01:42:02 | 52.13273 | 6.32212 | 37° | 20km/h | 20984m | -8.9m/s | -52.6°C | 0.4% | 50.2hPa | 2.5V | 08:16:16 | 02:25:32 | 00:00:00 | |
| DL1XH-west | 2026-09-02 01:42:01 | 52.13269 | 6.32207 | 41° | 20km/h | 20993m | -9.5m/s | -52.5°C | 0.4% | 50.2hPa | 2.5V | 08:16:16 | 02:25:31 | 00:00:00 | |
| GOEST3-10 | 2026-09-02 01:42:00 | 52.13265 | 6.32201 | 32° | 20km/h | 21003m | -8.5m/s | -52.4°C | 3.6% | 50.0hPa | 2.5V | 00:00:00 | 00:00:00 | 00:00:00 | |
| DK5PH-5 | 2026-09-02 01:41:59 | 52.13260 | 6.32197 | 37° | 18km/h | 21012m | -9.6m/s | -52.3°C | 3.6% | 50.0hPa | 2.5V | 00:00:00 | 02:25:29 | 00:00:00 | |
| DC6BW-12 | 2026-09-02 01:41:57 | 52.13256 | 6.32192 | 32° | 20km/h | 21022m | -9.3m/s | -52.3°C | 1.0% | 49.9hPa | 2.5V | 08:16:00 | 00:00:00 | 00:00:00 | |
| DL1XH-15 | 2026-09-02 01:41:56 | 52.13247 | 6.32183 | 30° | 18km/h | 21041m | -9.2m/s | -52.3°C | 3.6% | 49.8hPa | 2.5V | 08:16:11 | 02:25:26 | 00:00:00 | |
| BIOWL1-15 | 2026-09-02 01:41:53 | 52.13236 | 6.32170 | 44° | 16km/h | 21068m | -9.4m/s | -52.4°C | 0.3% | 49.6hPa | 2.5V | 08:16:16 | 02:25:23 | 00:00:00 | |
| DO2JMG | 2026-09-02 01:41:51 | 52.13231 | 6.32162 | 45° | 15km/h | 21087m | -9.6m/s | -52.5°C | 0.4% | 49.4hPa | 2.5V | 08:16:16 | 02:25:21 | 00:00:00 | |
| DL1XH-west | 2026-09-02 01:41:50 | 52.13228 | 6.32159 | 33° | 13km/h | 21096m | -8.6m/s | -52.6°C | 0.4% | 49.4hPa | 2.5V | 08:17:07 | 02:25:20 | 00:00:00 | |
| DB0ND-19 | 2026-09-02 01:41:50 | 52.13216 | 6.32145 | 25° | 16km/h | 21133m | -8.8m/s | -52.7°C | 1.0% | 49.1hPa | 2.5V | 00:00:00 | 00:00:00 | 00:00:00 | |
| DL1LOL-11 | 2026-09-02 01:41:49 | 52.13228 | 6.32158 | 34° | 13km/h | 21096m | -8.6m/s | -52.6°C | 1.0% | 49.4hPa | 2.5V | 00:00:00 | 00:00:00 | 00:00:00 | |
| DB0UT-7 | 2026-09-02 01:41:48 | 52.13222 | 6.32152 | 30° | 22km/h | 21115m | -9.0m/s | -52.6°C | 3.7% | 49.2hPa | 2.5V | 00:00:00 | 02:25:18 | 00:00:00 | |
| DL1XH-15 | 2026-09-02 01:41:46 | 52.13216 | 6.32145 | 25° | 16km/h | 21133m | -8.8m/s | -52.7°C | 3.6% | 49.1hPa | 2.5V | 08:16:21 | 02:25:16 | 00:00:00 | |
| DO1YAY-16 | 2026-09-02 01:41:45 | 52.13212 | 6.32142 | 33° | 15km/h | 21142m | -9.3m/s | -52.8°C | 1.0% | 49.0hPa | 2.5V | 00:00:00 | 00:00:00 | 00:00:00 | |
| BIOWL1-15 | 2026-09-02 01:41:43 | 52.13205 | 6.32136 | 33° | 16km/h | 21160m | -9.7m/s | -52.8°C | 0.4% | 48.9hPa | 2.5V | 08:17:07 | 02:25:13 | 00:00:00 | |
| AA1-15 | 2026-09-02 01:41:42 | 52.13202 | 6.32132 | 27° | 18km/h | 21170m | -9.1m/s | -52.8°C | 0.4% | 48.8hPa | 2.5V | 08:17:07 | 02:25:12 | 00:00:00 | |
| DO2JMG | 2026-09-02 01:41:41 | 52.13198 | 6.32129 | 35° | 15km/h | 21179m | -9.8m/s | -52.8°C | 0.4% | 48.7hPa | 2.5V | 08:17:07 | 02:25:11 | 00:00:00 | |
| DL1XH-west | 2026-09-02 01:41:39 | 52.13191 | 6.32120 | 43° | 18km/h | 21197m | -9.9m/s | -52.9°C | 0.4% | 48.6hPa | 2.5V | 08:17:07 | 02:25:09 | 00:00:00 | |
| BIOWL1-15 | 2026-09-02 01:41:35 | 52.13170 | 6.32080 | 59° | 22km/h | 21254m | -9.8m/s | -53.2°C | 0.5% | 48.2hPa | 2.5V | 08:17:07 | 02:25:03 | 00:00:00 | |
| GOEST3-10 | 2026-09-02 01:41:35 | 52.13176 | 6.32095 | 56° | 22km/h | 21235m | -9.8m/s | -53.0°C | 3.8% | 48.3hPa | 2.5V | 08:16:00 | 02:25:05 | 00:00:00 | |
| DD1CC3-15 | 2026-09-02 01:41:34 | 52.13176 | 6.32095 | 57° | 22km/h | 21235m | -9.8m/s | -53.1°C | 1.1% | 48.3hPa | 2.5V | 08:17:00 | 00:00:00 | 00:00:00 | |
| DM0DOS-11 | 2026-09-02 01:41:33 | 52.13157 | 6.32050 | 57° | 22km/h | 21293m | -9.8m/s | -53.2°C | 3.9% | 47.9hPa | 2.5V | 08:16:38 | 02:24:59 | 00:00:00 | |
| AA1-15 | 2026-09-02 01:41:31 | 52.13164 | 6.32065 | 58° | 20km/h | 21273m | -9.9m/s | -53.2°C | 0.5% | 48hPa | 2.5V | 08:17:07 | 02:25:01 | 00:00:00 | |
| DL1XH-west | 2026-09-02 01:41:28 | 52.13154 | 6.32043 | 52° | 24km/h | 21302m | -9.2m/s | -53.1°C | 0.5% | 47.8hPa | 2.5V | 08:17:07 | 02:24:58 | 00:00:00 | |
| DD1CC1-15 | 2026-09-02 01:41:27 | 52.13154 | 6.32043 | 53° | 24km/h | 21302m | -9.2m/s | -53.1°C | 1.0% | 47.8hPa | 2.5V | 08:17:00 | 00:00:00 | 00:00:00 | |
| DO9LL-15 | 2026-09-02 01:41:26 | 52.13147 | 6.32028 | 58° | 26km/h | 21321m | -9.5m/s | -53.0°C | 3.7% | 47.6hPa | 2.5V | 00:00:00 | 02:24:56 | 00:00:00 | |
| GOEST3-10 | 2026-09-02 01:41:25 | 52.13144 | 6.32020 | 57° | 27km/h | 21331m | -9.2m/s | -53.0°C | 3.8% | 47.6hPa | 2.5V | 00:00:00 | 02:24:55 | 00:00:00 | |
| DM0DOS-11 | 2026-09-02 01:41:23 | 52.13124 | 6.31958 | 61° | 31km/h | 21385m | -8.8m/s | -53.3°C | 3.8% | 47.2hPa | 2.5V | 08:16:48 | 02:24:49 | 00:00:00 | |
| BIOWL1-15 | 2026-09-02 01:41:23 | 52.13138 | 6.32002 | 59° | 27km/h | 21348m | -8.7m/s | -53.1°C | 0.5% | 47.5hPa | 2.5V | 08:17:07 | 02:24:53 | 00:00:00 | |
| AA1-15 | 2026-09-02 01:41:20 | 52.13128 | 6.31969 | 66° | 31km/h | 21376m | -9.6m/s | -53.3°C | 0.5% | 47.3hPa | 2.5V | 08:17:07 | 02:24:50 | 00:00:00 | |
| DL1XH-west | 2026-09-02 01:41:17 | 52.13117 | 6.31936 | 57° | 27km/h | 21404m | -8.6m/s | -53.3°C | 0.5% | 47.1hPa | 2.5V | 08:17:07 | 02:24:47 | 00:00:00 | |
| DL1XH-15 | 2026-09-02 01:41:16 | 52.13114 | 6.31927 | 59° | 27km/h | 21413m | -9.6m/s | -53.3°C | 3.9% | 47hPa | 2.5V | 08:16:51 | 02:24:46 | 00:00:00 | |
| BIOWL1-15 | 2026-09-02 01:41:14 | 52.13098 | 6.31896 | 45° | 22km/h | 21450m | -9.8m/s | -53.4°C | 0.6% | 46.7hPa | 2.5V | 08:17:07 | 02:24:42 | 00:00:00 | |
| DM0DOS-11 | 2026-09-02 01:41:13 | 52.13086 | 6.31876 | 49° | 26km/h | 21479m | -9.4m/s | -53.3°C | 3.9% | 46.5hPa | 2.5V | 08:16:58 | 02:24:39 | 00:00:00 | |
| MET0W-2 | 2026-09-02 01:41:12 | 52.13094 | 6.31890 | 47° | 24km/h | 21460m | -9.4m/s | -53.4°C | 1.1% | 46.7hPa | 2.5V | 00:00:00 | 00:00:00 | 00:00:00 | |
| DL1XH-15 | 2026-09-02 01:41:11 | 52.13074 | 6.31852 | 52° | 26km/h | 21507m | -8.9m/s | -53.3°C | 3.9% | 46.3hPa | 2.5V | 08:17:01 | 02:24:36 | 00:00:00 | |
| DO2JMG | 2026-09-02 01:41:10 | 52.13090 | 6.31883 | 44° | 22km/h | 21470m | -9.1m/s | -53.3°C | 0.5% | 46.6hPa | 2.5V | 08:17:07 | 02:24:40 | 00:00:00 | |
| AA1-15 | 2026-09-02 01:41:10 | 52.13086 | 6.31876 | 49° | 26km/h | 21479m | -9.4m/s | -53.3°C | 0.5% | 46.5hPa | 2.5V | 08:17:07 | 02:24:39 | 00:00:00 | |
| DL1XH-west | 2026-09-02 01:41:06 | 52.13074 | 6.31852 | 53° | 26km/h | 21507m | -8.9m/s | -53.3°C | 0.6% | 46.3hPa | 2.5V | 08:17:07 | 02:24:36 | 00:00:00 | |
| DM0DOS-11 | 2026-09-02 01:41:04 | 52.13054 | 6.31781 | 74° | 26km/h | 21572m | -9.5m/s | -53.2°C | 4% | 45.8hPa | 2.5V | 08:17:08 | 02:24:29 | 00:00:00 | |
| BIOWL1-15 | 2026-09-02 01:41:03 | 52.13058 | 6.31802 | 73° | 27km/h | 21553m | -9.6m/s | -53.2°C | 0.6% | 46hPa | 2.5V | 08:17:07 | 02:24:31 | 00:00:00 | |
| DD1CC9-15 | 2026-09-02 01:41:02 | 52.13064 | 6.31823 | 68° | 29km/h | 21535m | -9.6m/s | -53.3°C | 1.1% | 46.1hPa | 2.5V | 08:17:00 | 00:00:00 | 00:00:00 | |
| DL1XH-15 | 2026-09-02 01:41:01 | 52.13049 | 6.31753 | 71° | 24km/h | 21600m | -9m/s | -53°C | 3.9% | 45.6hPa | 2.5V | 08:17:11 | 02:24:26 | 00:00:00 | |
| DO2JMG | 2026-09-02 01:40:59 | 52.13054 | 6.31781 | 75° | 26km/h | 21572m | -9.5m/s | -53.2°C | 0.6% | 45.8hPa | 2.5V | 08:17:58 | 02:24:29 | 00:00:00 | |
| AA1-15 | 2026-09-02 01:40:58 | 52.13052 | 6.31771 | 71° | 24km/h | 21581m | -9m/s | -53.1°C | 0.6% | 45.8hPa | 2.5V | 08:17:58 | 02:24:28 | 00:00:00 | |
| DL1XH-west | 2026-09-02 01:40:55 | 52.13048 | 6.31744 | 82° | 24km/h | 21609m | -10m/s | -52.9°C | 0.5% | 45.6hPa | 2.5V | 08:17:58 | 02:24:25 | 00:00:00 | |
| DM0DOS-11 | 2026-09-02 01:40:54 | 52.13044 | 6.31678 | 94° | 31km/h | 21667m | -9.9m/s | -52.6°C | 3.8% | 45.2hPa | 2.5V | 08:17:18 | 02:24:19 | 00:00:00 | |
| BIOWL1-15 | 2026-09-02 01:40:53 | 52.13044 | 6.31702 | 89° | 27km/h | 21648m | -10m/s | -52.7°C | 0.5% | 45.3hPa | 2.5V | 08:17:58 | 02:24:21 | 00:00:00 | |
| DO2JMG | 2026-09-02 01:40:48 | 52.13044 | 6.31665 | 94° | 33km/h | 21677m | -9.5m/s | -52.6°C | 0.5% | 45.1hPa | 2.5V | 08:17:58 | 02:24:18 | 00:00:00 | |
| AA1-15 | 2026-09-02 01:40:47 | 52.13045 | 6.31652 | 95° | 29km/h | 21686m | -8.6m/s | -52.5°C | 0.5% | 45hPa | 2.5V | 08:17:58 | 02:24:17 | 00:00:00 | |
| DD1CC1-15 | 2026-09-02 01:40:46 | 52.13045 | 6.31652 | 96° | 29km/h | 21686m | -8.6m/s | -52.5°C | 1.0% | 45.0hPa | 2.5V | 08:17:00 | 00:00:00 | 00:00:00 | |
| DM0DOS-11 | 2026-09-02 01:40:44 | 52.13053 | 6.31570 | 97° | 18km/h | 21761m | -9.4m/s | -51.9°C | 3.6% | 44.5hPa | 2.5V | 08:17:28 | 02:24:09 | 00:00:00 | |
| DL1XH-west | 2026-09-02 01:40:44 | 52.13048 | 6.31617 | 103° | 26km/h | 21713m | -9.6m/s | -52.4°C | 0.5% | 44.9hPa | 2.5V | 08:17:58 | 02:24:14 | 00:00:00 | |
| BIOWL1-15 | 2026-09-02 01:40:43 | 52.13051 | 6.31586 | 101° | 22km/h | 21742m | -8.8m/s | -52.2°C | 0.4% | 44.7hPa | 2.5V | 08:17:58 | 02:24:11 | 00:00:00 | |
| DO2JMG | 2026-09-02 01:40:38 | 52.13054 | 6.31564 | 105° | 15km/h | 21770m | -8.9m/s | -51.6°C | 0.3% | 44.5hPa | 2.5V | 08:17:58 | 02:24:08 | 00:00:00 | |
| AA1-15 | 2026-09-02 01:40:37 | 52.13055 | 6.31558 | 109° | 16km/h | 21779m | -9.7m/s | -51.5°C | 0.3% | 44.4hPa | 2.5V | 08:17:58 | 02:24:07 | 00:00:00 | |
| GOEST3-10 | 2026-09-02 01:40:35 | 52.13057 | 6.31547 | 103° | 15km/h | 21798m | -8.9m/s | -51.5°C | 3.5% | 44.2hPa | 2.5V | 00:00:00 | 02:24:05 | 00:00:00 | |
| DM0DOS-11 | 2026-09-02 01:40:34 | 52.13066 | 6.31513 | 102° | 15km/h | 21855m | -9.4m/s | -51.5°C | 3.5% | 43.9hPa | 2.5V | 08:17:38 | 02:23:59 | 00:00:00 | |
| DL1XH-west | 2026-09-02 01:40:34 | 52.13058 | 6.31542 | 118° | 13km/h | 21807m | -9.4m/s | -51.5°C | 0.3% | 44.2hPa | 2.5V | 08:17:58 | 02:24:04 | 00:00:00 | |
| BIOWL1-15 | 2026-09-02 01:40:30 | 52.13065 | 6.31519 | 105° | 16km/h | 21846m | -9.6m/s | -51.5°C | 0.3% | 44hPa | 2.5V | 08:17:58 | 02:24:00 | 00:00:00 | |
| DO2JMG | 2026-09-02 01:40:27 | 52.13067 | 6.31502 | 111° | 13km/h | 21874m | -8.8m/s | -51.5°C | 0.2% | 43.8hPa | 2.5V | 08:17:58 | 02:23:57 | 00:00:00 | |
| AA1-15 | 2026-09-02 01:40:26 | 52.13069 | 6.31497 | 120° | 13km/h | 21883m | -10.2m/s | -51.5°C | 0.3% | 43.7hPa | 2.5V | 08:17:58 | 02:23:56 | 00:00:00 | |
| DL1XH-west | 2026-09-02 01:40:24 | 52.13071 | 6.31487 | 101° | 11km/h | 21903m | -9.6m/s | -51.5°C | 0.3% | 43.6hPa | 2.5V | 08:17:58 | 02:23:54 | 00:00:00 | |
| DL4BBY-15 | 2026-09-02 01:40:22 | 52.13071 | 6.31480 | 91° | 16km/h | 21921m | -8.8m/s | -51.8°C | 0% | 0hPa | 2.5V | 00:00:00 | 00:00:00 | 00:00:00 | |
| DL1XH-15 | 2026-09-02 01:40:21 | 52.13065 | 6.31467 | 34° | 9km/h | 21976m | -9.5m/s | -51.6°C | 3.5% | 43hPa | 2.5V | 08:17:51 | 02:23:46 | 00:00:00 | |
| BIOWL1-15 | 2026-09-02 01:40:20 | 52.13071 | 6.31476 | 85° | 5km/h | 21939m | -10.2m/s | -51.4°C | 0.3% | 43.3hPa | 2.5V | 08:17:58 | 02:23:50 | 00:00:00 | |
| DO2JMG | 2026-09-02 01:40:17 | 52.13067 | 6.31469 | 32° | 11km/h | 21968m | -8.8m/s | -51.5°C | 0.3% | 43.1hPa | 2.5V | 08:17:58 | 02:23:47 | 00:00:00 | |
| AA1-15 | 2026-09-02 01:40:15 | 52.13063 | 6.31465 | 50° | 9km/h | 21986m | -10.1m/s | -51.7°C | 0.3% | 43hPa | 2.5V | 08:17:58 | 02:23:45 | 00:00:00 | |
| DL1XH-west | 2026-09-02 01:40:14 | 52.13062 | 6.31461 | 51° | 13km/h | 21996m | -10.1m/s | -51.7°C | 0.3% | 42.9hPa | 2.5V | 08:17:58 | 02:23:44 | 00:00:00 | |
| GOEST3-10 | 2026-09-02 01:40:13 | 52.13060 | 6.31458 | 53° | 15km/h | 22006m | -10.1m/s | -51.7°C | 3.5% | 42.8hPa | 2.5V | 00:00:00 | 02:23:43 | 00:00:00 | |
| DO1YAY-16 | 2026-09-02 01:40:12 | 52.13057 | 6.31453 | 53° | 13km/h | 22016m | -9.9m/s | -51.8°C | 1.0% | 42.8hPa | 2.5V | 00:00:00 | 00:00:00 | 00:00:00 | |
| DL1XH-15 | 2026-09-02 01:40:11 | 52.13043 | 6.31419 | 59° | 18km/h | 22076m | -10m/s | -51.8°C | 3.5% | 42.4hPa | 2.5V | 08:18:01 | 02:23:36 | 00:00:00 | |
| BIOWL1-15 | 2026-09-02 01:40:10 | 52.13053 | 6.31443 | 58° | 16km/h | 22035m | -10.1m/s | -51.8°C | 0.3% | 42.7hPa | 2.5V | 08:17:58 | 02:23:40 | 00:00:00 | |
| DO2JMG | 2026-09-02 01:40:07 | 52.13046 | 6.31425 | 59° | 18km/h | 22066m | -10.2m/s | -51.8°C | 0.3% | 42.5hPa | 2.5V | 08:18:49 | 02:23:37 | 00:00:00 | |
| AA1-15 | 2026-09-02 01:40:04 | 52.13038 | 6.31406 | 57° | 18km/h | 22096m | -9.8m/s | -51.8°C | 0.3% | 42.3hPa | 2.5V | 08:18:49 | 02:23:34 | 00:00:00 | |
| DL1XH-west | 2026-09-02 01:40:03 | 52.13036 | 6.31399 | 52° | 18km/h | 22106m | -9m/s | -51.9°C | 0.3% | 42.2hPa | 2.5V | 08:18:49 | 02:23:33 | 00:00:00 | |
| GOEST3-10 | 2026-09-02 01:40:03 | 52.13036 | 6.31399 | 53° | 22km/h | 22107m | -9.0m/s | -51.8°C | 3.6% | 42.2hPa | 2.5V | 00:00:00 | 02:23:33 | 00:00:00 | |
| DL1XH-15 | 2026-09-02 01:40:01 | 52.13019 | 6.31348 | 75° | 18km/h | 22173m | -8.9m/s | -51.9°C | 3.6% | 41.8hPa | 2.5V | 08:18:11 | 02:23:26 | 00:00:00 | |
| BIOWL1-15 | 2026-09-02 01:39:59 | 52.13023 | 6.31370 | 68° | 22km/h | 22143m | -9.7m/s | -52°C | 0.4% | 42hPa | 2.5V | 08:18:49 | 02:23:29 | 00:00:00 | |
| DO2JMG | 2026-09-02 01:39:56 | 52.13019 | 6.31348 | 75° | 18km/h | 22173m | -8.9m/s | -51.9°C | 0.3% | 41.8hPa | 2.5V | 08:18:49 | 02:23:26 | 00:00:00 | |
| EDDB2-12 | 2026-09-02 01:39:56 | 52.13018 | 6.31341 | 76° | 18km/h | 22182m | -8.9m/s | -51.9°C | 1.0% | 41.7hPa | 2.5V | 00:00:00 | 00:00:00 | 00:00:00 | |
| DF5WG-10 | 2026-09-02 01:39:55 | 52.13018 | 6.31340 | 77° | 22km/h | 22182m | -8.9m/s | -51.9°C | 3.6% | 41.7hPa | 2.5V | 00:00:00 | 02:23:25 | 00:00:00 | |
| DM0DOS-11 | 2026-09-02 01:39:54 | 52.13013 | 6.31285 | 81° | 22km/h | 22241m | -9.6m/s | -52°C | 3.6% | 41.4hPa | 2.5V | 08:18:18 | 02:23:19 | 00:00:00 | |
| AA1-15 | 2026-09-02 01:39:53 | 52.13016 | 6.31323 | 84° | 24km/h | 22200m | -9.9m/s | -51.9°C | 0.3% | 41.6hPa | 2.5V | 08:18:49 | 02:23:23 | 00:00:00 | |
| DL1XH-west | 2026-09-02 01:39:52 | 52.13015 | 6.31314 | 85° | 24km/h | 22210m | -10.2m/s | -51.9°C | 0.4% | 41.5hPa | 2.5V | 08:18:49 | 02:23:22 | 00:00:00 | |
| DL4BBY-15 | 2026-09-02 01:39:52 | 52.13015 | 6.31314 | 85° | 20km/h | 22211m | -10.1m/s | -52.4°C | 0% | 0hPa | 2.5V | 00:00:00 | 00:00:00 | 00:00:00 | |
| DL1XH-15 | 2026-09-02 01:39:51 | 52.13009 | 6.31259 | 73° | 20km/h | 22269m | -8.8m/s | -51.9°C | 3.6% | 41.2hPa | 2.5V | 08:18:21 | 02:23:16 | 00:00:00 | |
| BIOWL1-15 | 2026-09-02 01:39:48 | 52.13012 | 6.31276 | 78° | 22km/h | 22250m | -9m/s | -52°C | 0.4% | 41.3hPa | 2.5V | 08:18:49 | 02:23:18 | 00:00:00 | |
| WPPR-10 | 2026-09-02 01:39:46 | 52.13009 | 6.31259 | 73° | 20km/h | 22269m | -8.8m/s | -51.9°C | 0.9% | 41.2hPa | 2.5V | 00:00:00 | 00:00:00 | 00:00:00 | |
| DO2JMG | 2026-09-02 01:39:46 | 52.13009 | 6.31259 | 73° | 22km/h | 22269m | -8.8m/s | -51.9°C | 0.4% | 41.2hPa | 2.5V | 08:18:49 | 02:23:16 | 00:00:00 | |
| GOEST3-10 | 2026-09-02 01:39:45 | 52.13008 | 6.31251 | 76° | 22km/h | 22278m | -9.0m/s | -51.8°C | 3.6% | 41.1hPa | 2.5V | 00:00:00 | 02:23:15 | 00:00:00 | |
| DM0DOS-11 | 2026-09-02 01:39:44 | 52.13007 | 6.31199 | 110° | 22km/h | 22334m | -9.4m/s | -51.8°C | 3.6% | 40.8hPa | 2.5V | 08:18:28 | 02:23:09 | 00:00:00 | |
| AA1-15 | 2026-09-02 01:39:43 | 52.13005 | 6.31235 | 80° | 20km/h | 22296m | -9m/s | -51.8°C | 0.3% | 41hPa | 2.5V | 08:18:49 | 02:23:13 | 00:00:00 | |
| DL1XH-west | 2026-09-02 01:39:42 | 52.13005 | 6.31226 | 84° | 22km/h | 22305m | -9.4m/s | -51.7°C | 0.3% | 40.9hPa | 2.5V | 08:18:49 | 02:23:12 | 00:00:00 | |
| DL1XH-15 | 2026-09-02 01:39:41 | 52.13014 | 6.31175 | 118° | 24km/h | 22361m | -9.6m/s | -51.6°C | 3.6% | 40.6hPa | 2.5V | 08:18:31 | 02:23:06 | 00:00:00 | |
| BIOWL1-15 | 2026-09-02 01:39:37 | 52.13011 | 6.31183 | 110° | 22km/h | 22352m | -9.3m/s | -51.6°C | 0.3% | 40.6hPa | 2.5V | 08:18:49 | 02:23:07 | 00:00:00 | |
| DO2JMG | 2026-09-02 01:39:36 | 52.13014 | 6.31175 | 118° | 24km/h | 22361m | -9.6m/s | -51.6°C | 0.3% | 40.6hPa | 2.5V | 08:18:49 | 02:23:06 | 00:00:00 | |
| SONDE2-11 | 2026-09-02 01:39:35 | 52.13020 | 6.31161 | 131° | 20km/h | 22380m | -10.0m/s | -51.6°C | 0.9% | 40.4hPa | 2.5V | 00:00:00 | 00:00:00 | 00:00:00 | |
| DM0DOS-11 | 2026-09-02 01:39:34 | 52.13032 | 6.31133 | 125° | 18km/h | 22428m | -10.2m/s | -51.6°C | 3.6% | 40.2hPa | 2.5V | 08:18:38 | 02:22:59 | 00:00:00 | |
| DL1XH-west | 2026-09-02 01:39:32 | 52.13026 | 6.31150 | 121° | 16km/h | 22399m | -9.4m/s | -51.6°C | 0.3% | 40.4hPa | 2.5V | 08:18:49 | 02:23:02 | 00:00:00 | |
| BIOWL1-15 | 2026-09-02 01:39:27 | 52.13038 | 6.31122 | 134° | 18km/h | 22448m | -10.2m/s | -51.5°C | 0.3% | 40hPa | 2.5V | 08:18:49 | 02:22:57 | 00:00:00 | |
| DO2JMG | 2026-09-02 01:39:25 | 52.13044 | 6.31113 | 137° | 16km/h | 22468m | -10.2m/s | -51.3°C | 0.2% | 39.9hPa | 2.5V | 08:18:49 | 02:22:55 | 00:00:00 | |
| EDDB2-12 | 2026-09-02 01:39:25 | 52.13047 | 6.31109 | 138° | 15km/h | 22478m | -10.0m/s | -51.1°C | 0.9% | 39.9hPa | 2.5V | 00:00:00 | 00:00:00 | 00:00:00 | |
| DM0DOS-11 | 2026-09-02 01:39:24 | 52.13055 | 6.31095 | 99° | 4km/h | 22529m | -9.9m/s | -51.2°C | 3.4% | 39.6hPa | 2.5V | 08:18:48 | 02:22:49 | 00:00:00 | |
| DL1XH-west | 2026-09-02 01:39:21 | 52.13053 | 6.31099 | 131° | 9km/h | 22509m | -10.4m/s | -51.1°C | 0.2% | 39.7hPa | 2.5V | 08:18:49 | 02:22:51 | 00:00:00 | |
| HSKMA3-T | 2026-09-02 01:39:18 | 52.13055 | 6.31093 | 49° | 4km/h | 22539m | -9.4m/s | -51.2°C | 0.2% | 39.5hPa | 2.5V | 08:18:49 | 02:22:48 | 00:00:00 | |
| BIOWL1-15 | 2026-09-02 01:39:16 | 52.13052 | 6.31091 | 11° | 7km/h | 22559m | -9.6m/s | -51.2°C | 0.3% | 39.4hPa | 2.5V | 08:19:40 | 02:22:46 | 00:00:00 | |
| DJ2DS-15 | 2026-09-02 01:39:15 | 52.13051 | 6.31090 | 12° | 7km/h | 22569m | -9.2m/s | -51.2°C | 0.9% | 39.3hPa | 2.5V | 00:00:00 | 00:00:00 | 00:00:00 | |
| DO2JMG | 2026-09-02 01:39:15 | 52.13051 | 6.31090 | 12° | 7km/h | 22569m | -9.2m/s | -51.2°C | 0.3% | 39.3hPa | 2.6V | 08:19:40 | 02:22:45 | 00:00:00 | |
| DB0ND-19 | 2026-09-02 01:39:14 | 52.13049 | 6.31090 | 9° | 5km/h | 22578m | -8.7m/s | -51.2°C | -1.0% | -1.0hPa | 2.5V | 00:00:00 | 00:00:00 | 00:00:00 | |
| GOEST3-10 | 2026-09-02 01:39:13 | 52.13047 | 6.31089 | 19° | 4km/h | 22586m | -8.6m/s | -51.2°C | 3.4% | 39.1hPa | 2.5V | 00:00:00 | 00:00:00 | 00:00:00 | |
| DL1XH-15 | 2026-09-02 01:39:12 | 52.13046 | 6.31079 | 75° | 5km/h | 22654m | -10.4m/s | -51.1°C | 3.4% | 38.8hPa | 2.5V | 08:19:01 | 02:22:36 | 00:00:00 | |
| DL1XH-west | 2026-09-02 01:39:10 | 52.13045 | 6.31086 | 90° | 4km/h | 22614m | -10.1m/s | -51.3°C | 0.2% | 39hPa | 2.5V | 08:19:40 | 02:22:40 | 00:00:00 | |
| BIOWL1-15 | 2026-09-02 01:39:06 | 52.13045 | 6.31079 | 75° | 5km/h | 22654m | -10.4m/s | -51.1°C | 0.2% | 38.8hPa | 2.5V | 08:19:40 | 02:22:36 | 00:00:00 | |
| DO2JMG | 2026-09-02 01:39:04 | 52.13043 | 6.31074 | 32° | 9km/h | 22674m | -9.5m/s | -51.2°C | 0.2% | 38.7hPa | 2.5V | 08:19:40 | 02:22:34 | 00:00:00 | |
| DM0DOS-11 | 2026-09-02 01:39:04 | 52.13033 | 6.31059 | 51° | 16km/h | 22725m | -10.1m/s | -51.5°C | 3.5% | 38.4hPa | 2.6V | 08:19:08 | 02:22:29 | 00:00:00 | |
| SONDE2-11 | 2026-09-02 01:39:04 | 52.13041 | 6.31072 | 28° | 7km/h | 22684m | -9.3m/s | -51.3°C | 0.9% | 38.6hPa | 2.5V | 00:00:00 | 00:00:00 | 00:00:00 | |
| DF5WG-10 | 2026-09-02 01:39:03 | 52.13041 | 6.31072 | 29° | 15km/h | 22684m | -9.2m/s | -51.2°C | 3.4% | 38.6hPa | 2.5V | 00:00:00 | 02:22:33 | 00:00:00 | |
| DO3DL | 2026-09-02 01:39:02 | 52.13041 | 6.31072 | 30° | 9km/h | 22684m | -9.3m/s | -51.3°C | 0.9% | 38.6hPa | 2.5V | 08:19:00 | 00:00:00 | 00:00:00 | |
| DL1XH-15 | 2026-09-02 01:39:01 | 52.13026 | 6.31042 | 66° | 18km/h | 22754m | -10.2m/s | -51.5°C | 3.5% | 38.2hPa | 2.5V | 08:19:11 | 02:22:26 | 00:00:00 | |
| DL1XH-west | 2026-09-02 01:39:00 | 52.13036 | 6.31064 | 51° | 15km/h | 22714m | -10.4m/s | -51.5°C | 0.3% | 38.4hPa | 2.5V | 08:19:40 | 02:22:30 | 00:00:00 | |
| BIOWL1-15 | 2026-09-02 01:38:55 | 52.13024 | 6.31036 | 64° | 18km/h | 22765m | -10m/s | -51.5°C | 0.3% | 38.1hPa | 2.5V | 08:19:40 | 02:22:25 | 00:00:00 | |
| DO2JMG | 2026-09-02 01:38:53 | 52.13021 | 6.31024 | 73° | 13km/h | 22784m | -10.4m/s | -51.5°C | 0.3% | 38hPa | 2.5V | 08:19:40 | 02:22:23 | 00:00:00 | |
| DF5WG-10 | 2026-09-02 01:38:53 | 52.13021 | 6.31024 | 74° | 13km/h | 22784m | -10.4m/s | -51.5°C | 3.5% | 38.0hPa | 2.5V | 00:00:00 | 02:22:23 | 00:00:00 | |
| DL4BBY-15 | 2026-09-02 01:38:52 | 52.13019 | 6.31019 | 73° | 16km/h | 22794m | -10.4m/s | -52.0°C | 0% | 0hPa | 2.5V | 00:00:00 | 00:00:00 | 00:00:00 | |
| DL1XH-15 | 2026-09-02 01:38:51 | 52.13013 | 6.30993 | 77° | 9km/h | 22857m | -10.1m/s | -51.3°C | 3.4% | 37.6hPa | 2.5V | 08:19:21 | 02:22:16 | 00:00:00 | |
| DL1XH-west | 2026-09-02 01:38:49 | 52.13015 | 6.31004 | 54° | 11km/h | 22826m | -9.6m/s | -51.5°C | 0.4% | 37.8hPa | 2.5V | 08:19:40 | 02:22:19 | 00:00:00 | |
| BIOWL1-15 | 2026-09-02 01:38:44 | 52.13014 | 6.30985 | 115° | 15km/h | 22877m | -10.6m/s | -51.4°C | 0.3% | 37.5hPa | 2.5V | 08:19:40 | 02:22:14 | 00:00:00 | |
| DO2JMG | 2026-09-02 01:38:42 | 52.13018 | 6.30972 | 116° | 18km/h | 22898m | -10m/s | -51.6°C | 0.3% | 37.4hPa | 2.5V | 08:19:40 | 02:22:12 | 00:00:00 | |
| DF5WG-10 | 2026-09-02 01:38:42 | 52.13018 | 6.30972 | 117° | 18km/h | 22899m | -9.9m/s | -51.5°C | 3.5% | 37.3hPa | 2.5V | 00:00:00 | 02:22:12 | 00:00:00 | |
| DL1XH-15 | 2026-09-02 01:38:41 | 52.13035 | 6.30936 | 131° | 16km/h | 22960m | -10.9m/s | -51.8°C | 3.5% | 37hPa | 2.5V | 08:19:31 | 02:22:06 | 00:00:00 | |
| DL1XH-west | 2026-09-02 01:38:38 | 52.13029 | 6.30946 | 124° | 18km/h | 22940m | -10m/s | -51.7°C | 0.3% | 37.1hPa | 2.5V | 08:19:40 | 02:22:08 | 00:00:00 | |
| BIOWL1-15 | 2026-09-02 01:38:33 | 52.13042 | 6.30919 | 130° | 18km/h | 22993m | -10.7m/s | -51.8°C | 0.4% | 36.9hPa | 2.5V | 08:19:40 | 02:22:03 | 00:00:00 | |
| DO2JMG | 2026-09-02 01:38:31 | 52.13049 | 6.30908 | 143° | 20km/h | 23015m | -10.5m/s | -51.7°C | 0.4% | 36.7hPa | 2.5V | 08:19:40 | 02:22:01 | 00:00:00 | |
| DL1XH-west | 2026-09-02 01:38:27 | 52.13068 | 6.30895 | 165° | 20km/h | 23055m | -9.6m/s | -51.5°C | 0.3% | 36.5hPa | 2.6V | 08:19:40 | 02:21:57 | 00:00:00 | |
| BIOWL1-15 | 2026-09-02 01:38:23 | 52.13089 | 6.30888 | 180° | 22km/h | 23097m | -10.8m/s | -51.6°C | 0.3% | 36.2hPa | 2.5V | 08:20:31 | 02:21:53 | 00:00:00 | |
| DO2JMG | 2026-09-02 01:38:21 | 52.13099 | 6.30889 | 184° | 16km/h | 23118m | -9.7m/s | -51.6°C | 0.3% | 36.1hPa | 2.5V | 08:20:31 | 02:21:51 | 00:00:00 | |
| DL1XH-west | 2026-09-02 01:38:16 | 52.13119 | 6.30886 | 191° | 16km/h | 23170m | -10.6m/s | -51.5°C | 0.3% | 35.9hPa | 2.5V | 08:20:31 | 02:21:46 | 00:00:00 | |
| DO3DL | 2026-09-02 01:38:15 | 52.13119 | 6.30886 | 192° | 16km/h | 23171m | -10.6m/s | -51.5°C | 0.9% | 35.8hPa | 2.5V | 08:20:00 | 00:00:00 | 00:00:00 | |
| DM0DOS-11 | 2026-09-02 01:38:14 | 52.13137 | 6.30904 | 256° | 9km/h | 23241m | -9.7m/s | -51.6°C | 3.5% | 35.4hPa | 2.5V | 08:19:58 | 02:21:39 | 00:00:00 | |
| BIOWL1-15 | 2026-09-02 01:38:13 | 52.13130 | 6.30891 | 209° | 13km/h | 23202m | -9.8m/s | -51.5°C | 0.3% | 35.7hPa | 2.5V | 08:20:31 | 02:21:43 | 00:00:00 | |
| DO2JMG | 2026-09-02 01:38:10 | 52.13136 | 6.30900 | 243° | 11km/h | 23232m | -9.5m/s | -51.6°C | 0.3% | 35.5hPa | 2.6V | 08:20:31 | 02:21:40 | 00:00:00 | |
| DL1XH-west | 2026-09-02 01:38:06 | 52.13137 | 6.30914 | 277° | 7km/h | 23274m | -11.2m/s | -51.7°C | 0.4% | 35.3hPa | 2.5V | 08:20:31 | 02:21:36 | 00:00:00 | |
| AA1-15 | 2026-09-02 01:38:05 | 52.13137 | 6.30917 | 278° | 7km/h | 23285m | -11.2m/s | -51.8°C | 0.3% | 35.2hPa | 2.5V | 08:20:31 | 02:21:35 | 00:00:00 | |
| BIOWL1-15 | 2026-09-02 01:38:03 | 52.13137 | 6.30923 | 273° | 9km/h | 23307m | -10.9m/s | -51.9°C | 0.3% | 35.1hPa | 2.6V | 08:20:31 | 02:21:33 | 00:00:00 | |
| DO3DL | 2026-09-02 01:38:03 | 52.13137 | 6.30923 | 274° | 9km/h | 23307m | -10.9m/s | -51.9°C | 0.9% | 35.1hPa | 2.5V | 08:20:00 | 00:00:00 | 00:00:00 | |
| SONDE2-11 | 2026-09-02 01:38:02 | 52.13136 | 6.30930 | 282° | 9km/h | 23328m | -9.8m/s | -52.0°C | 0.9% | 35.0hPa | 2.5V | 00:00:00 | 00:00:00 | 00:00:00 | |
| DL1XH-15 | 2026-09-02 01:38:01 | 52.13132 | 6.30947 | 318° | 7km/h | 23382m | -11.2m/s | -52.1°C | 3.6% | 34.7hPa | 2.5V | 08:20:11 | 02:21:26 | 00:00:00 | |
| DO2JMG | 2026-09-02 01:38:00 | 52.13136 | 6.30934 | 285° | 9km/h | 23338m | -10m/s | -52°C | 0.4% | 34.9hPa | 2.5V | 08:20:31 | 02:21:30 | 00:00:00 | |
| DL1XH-west | 2026-09-02 01:37:55 | 52.13131 | 6.30948 | 353° | 9km/h | 23392m | -11m/s | -52.1°C | 0.4% | 34.6hPa | 2.6V | 08:20:31 | 02:21:25 | 00:00:00 | |
| AA1-15 | 2026-09-02 01:37:54 | 52.13128 | 6.30949 | 355° | 9km/h | 23403m | -10.4m/s | -52.2°C | 0.4% | 34.6hPa | 2.6V | 08:20:31 | 02:21:24 | 00:00:00 | |
| DM0DOS-11 | 2026-09-02 01:37:54 | 52.13117 | 6.30938 | 52° | 13km/h | 23458m | -11.1m/s | -52.4°C | 3.7% | 34.3hPa | 2.5V | 08:20:18 | 02:21:19 | 00:00:00 | |
| BIOWL1-15 | 2026-09-02 01:37:53 | 52.13119 | 6.30942 | 36° | 11km/h | 23448m | -10.3m/s | -52.3°C | 0.4% | 34.3hPa | 2.5V | 08:20:31 | 02:21:20 | 00:00:00 | |
| HSKMA3-T | 2026-09-02 01:37:52 | 52.13124 | 6.30947 | 37° | 11km/h | 23426m | -11.3m/s | -52.2°C | 0.4% | 34.5hPa | 2.5V | 08:22:13 | 02:21:22 | 00:00:00 | |
| DL4BBY-15 | 2026-09-02 01:37:52 | 52.13124 | 6.30947 | 37° | 15km/h | 23426m | -11.3m/s | -52.7°C | 0% | 0hPa | 2.5V | 00:00:00 | 00:00:00 | 00:00:00 | |
| DL1XH-15 | 2026-09-02 01:37:51 | 52.13111 | 6.30927 | 48° | 9km/h | 23491m | -10.8m/s | -52.4°C | 3.7% | 34.1hPa | 2.5V | 08:20:21 | 02:21:16 | 00:00:00 | |
| DO2JMG | 2026-09-02 01:37:49 | 52.13117 | 6.30938 | 52° | 13km/h | 23458m | -11.1m/s | -52.4°C | 0.4% | 34.3hPa | 2.5V | 08:20:31 | 02:21:19 | 00:00:00 | |
| DL1XH-west | 2026-09-02 01:37:44 | 52.13108 | 6.30920 | 60° | 11km/h | 23513m | -11.3m/s | -52.2°C | 0.5% | 34hPa | 2.5V | 08:20:31 | 02:21:14 | 00:00:00 | |
| AA1-15 | 2026-09-02 01:37:43 | 52.13106 | 6.30916 | 55° | 11km/h | 23524m | -10.7m/s | -52.1°C | 0.4% | 33.9hPa | 2.5V | 08:20:31 | 02:21:13 | 00:00:00 | |
| HSKMA3-T | 2026-09-02 01:37:42 | 52.13104 | 6.30912 | 52° | 11km/h | 23535m | -10.1m/s | -51.9°C | 0.3% | 33.9hPa | 2.5V | 08:22:13 | 02:21:12 | 00:00:00 | |
| DO2JMG | 2026-09-02 01:37:38 | 52.13101 | 6.30893 | 90° | 13km/h | 23579m | -11.6m/s | -51.8°C | 0.3% | 33.6hPa | 2.5V | 08:20:31 | 02:21:08 | 00:00:00 | |
| BIOWL1-15 | 2026-09-02 01:37:35 | 52.13104 | 6.30842 | 104° | 20km/h | 23661m | -12.3m/s | -52°C | 0.4% | 33.2hPa | 2.6V | 08:21:22 | 02:21:01 | 00:00:00 | |
| DM0DOS-11 | 2026-09-02 01:37:34 | 52.13107 | 6.30827 | 110° | 20km/h | 23684m | -12.2m/s | -51.8°C | 3.5% | 33.1hPa | 2.5V | 08:20:38 | 02:20:59 | 00:00:00 | |
| DL1XH-west | 2026-09-02 01:37:34 | 52.13101 | 6.30865 | 98° | 20km/h | 23626m | -11.9m/s | -52°C | 0.4% | 33.4hPa | 2.5V | 08:21:22 | 02:21:04 | 00:00:00 | |
| AA1-15 | 2026-09-02 01:37:32 | 52.13103 | 6.30850 | 107° | 18km/h | 23649m | -12.6m/s | -52°C | 0.3% | 33.3hPa | 2.5V | 08:21:22 | 02:21:02 | 00:00:00 | |
| HSKMA3-T | 2026-09-02 01:37:27 | 52.13110 | 6.30813 | 119° | 16km/h | 23709m | -12.2m/s | -51.8°C | 0.4% | 33hPa | 2.5V | 08:22:13 | 02:20:57 | 00:00:00 | |
| DD1CC2-15 | 2026-09-02 01:37:27 | 52.13110 | 6.30813 | 120° | 16km/h | 23709m | -12.2m/s | -51.8°C | 1.0% | 33.0hPa | 2.5V | 08:21:00 | 00:00:00 | 00:00:00 | |
| DO9LL-15 | 2026-09-02 01:37:26 | 52.13112 | 6.30807 | 118° | 13km/h | 23721m | -12.0m/s | -51.7°C | 3.5% | 32.9hPa | 2.5V | 08:20:00 | 02:20:56 | 00:00:00 | |
| GOEST3-10 | 2026-09-02 01:37:25 | 52.13114 | 6.30801 | 116° | 15km/h | 23733m | -11.6m/s | -51.7°C | 3.5% | 32.8hPa | 2.5V | 00:00:00 | 00:00:00 | 00:00:00 | |
| DM0DOS-11 | 2026-09-02 01:37:24 | 52.13128 | 6.30781 | 152° | 11km/h | 23805m | -12.4m/s | -51.8°C | 3.5% | 32.5hPa | 2.5V | 08:20:48 | 02:20:49 | 00:00:00 | |
| DL1XH-west | 2026-09-02 01:37:23 | 52.13118 | 6.30793 | 138° | 15km/h | 23756m | -12.6m/s | -51.8°C | 0.3% | 32.7hPa | 2.5V | 08:21:22 | 02:20:53 | 00:00:00 | |
| AA1-15 | 2026-09-02 01:37:22 | 52.13123 | 6.30786 | 149° | 11km/h | 23780m | -10.9m/s | -51.8°C | 0.3% | 32.6hPa | 2.5V | 08:21:22 | 02:20:51 | 00:00:00 | |
| DL1XH-15 | 2026-09-02 01:37:21 | 52.13137 | 6.30779 | 184° | 13km/h | 23840m | -11.5m/s | -51.8°C | 3.5% | 32.3hPa | 2.5V | 08:20:51 | 02:20:46 | 00:00:00 | |
| BIOWL1-15 | 2026-09-02 01:37:20 | 52.13125 | 6.30783 | 156° | 15km/h | 23792m | -12.2m/s | -51.8°C | 0.3% | 32.5hPa | 2.5V | 08:21:22 | 02:20:50 | 00:00:00 | |
| DO2JMG | 2026-09-02 01:37:17 | 52.13134 | 6.30779 | 172° | 15km/h | 23828m | -11.8m/s | -51.8°C | 0.4% | 32.4hPa | 2.5V | 08:21:22 | 02:20:47 | 00:00:00 | |
| HSKMA3-T | 2026-09-02 01:37:16 | 52.13138 | 6.30779 | 184° | 13km/h | 23840m | -11.5m/s | -51.8°C | 0.3% | 32.3hPa | 2.5V | 08:22:13 | 02:20:46 | 00:00:00 | |
| DH3RM | 2026-09-02 01:37:16 | 52.13137 | 6.30779 | 185° | 13km/h | 23840m | -11.5m/s | -51.8°C | 0.9% | 32.3hPa | 2.5V | 08:21:00 | 00:00:00 | 00:00:00 | |
| BIOWL7-15 | 2026-09-02 01:37:15 | 52.13137 | 6.30779 | 185° | 13km/h | 23840m | -11.5m/s | -51.8°C | 0.9% | 32.3hPa | 2.5V | 00:00:00 | 00:00:00 | 00:00:00 | |
| DM0DOS-11 | 2026-09-02 01:37:14 | 52.13161 | 6.30795 | 209° | 16km/h | 23925m | -12.6m/s | -51.9°C | 3.5% | 31.9hPa | 2.5V | 08:20:58 | 02:20:39 | 00:00:00 | |
| DL1XH-west | 2026-09-02 01:37:12 | 52.13151 | 6.30786 | 204° | 16km/h | 23887m | -12.6m/s | -51.8°C | 0.3% | 32.1hPa | 2.5V | 08:21:22 | 02:20:42 | 00:00:00 | |
| DL1XH-15 | 2026-09-02 01:37:11 | 52.13172 | 6.30807 | 210° | 16km/h | 23961m | -12.6m/s | -52°C | 3.6% | 31.7hPa | 2.5V | 08:21:01 | 02:20:36 | 00:00:00 | |
| AA1-15 | 2026-09-02 01:37:10 | 52.13158 | 6.30792 | 216° | 16km/h | 23912m | -11.6m/s | -51.8°C | 0.3% | 31.9hPa | 2.6V | 08:21:22 | 02:20:40 | 00:00:00 | |
| HSKMA3-T | 2026-09-02 01:37:06 | 52.13172 | 6.30807 | 210° | 16km/h | 23961m | -12.6m/s | -52°C | 0.4% | 31.7hPa | 2.5V | 08:22:13 | 02:20:36 | 00:00:00 | |
| DO1YAY-16 | 2026-09-02 01:37:06 | 52.13175 | 6.30810 | 210° | 13km/h | 23974m | -12.4m/s | -52.0°C | 0.9% | 31.7hPa | 2.5V | 00:00:00 | 00:00:00 | 00:00:00 | |
| DM0DOS-11 | 2026-09-02 01:37:04 | 52.13188 | 6.30824 | 218° | 4km/h | 24047m | -12.3m/s | -51.7°C | 3.5% | 31.3hPa | 2.5V | 08:21:08 | 02:20:29 | 00:00:00 | |
| SONCRA | 2026-09-02 01:37:03 | 52.13180 | 6.30816 | 204° | 11km/h | 23998m | -12.7m/s | -52.0°C | 0.9% | 31.6hPa | 2.5V | 00:00:00 | 00:00:00 | 00:00:00 | |
| BIOWL9-15 | 2026-09-02 01:37:02 | 52.13185 | 6.30820 | 218° | 7km/h | 24023m | -11.5m/s | -51.9°C | 0.9% | 31.4hPa | 2.5V | 00:00:00 | 00:00:00 | 00:00:00 | |
| DL1XH-west | 2026-09-02 01:37:02 | 52.13183 | 6.30818 | 209° | 9km/h | 24011m | -12.2m/s | -52°C | 0.4% | 31.5hPa | 2.6V | 08:21:22 | 02:20:32 | 00:00:00 | |
| DL1XH-15 | 2026-09-02 01:37:01 | 52.13189 | 6.30828 | 303° | 5km/h | 24083m | -12.2m/s | -51.8°C | 3.5% | 31.1hPa | 2.5V | 08:21:11 | 02:20:26 | 00:00:00 | |
| BIOWL1-15 | 2026-09-02 01:37:00 | 52.13189 | 6.30825 | 242° | 5km/h | 24059m | -11.4m/s | -51.7°C | 0.3% | 31.2hPa | 2.5V | 08:21:22 | 02:20:28 | 00:00:00 | |
| AA1-15 | 2026-09-02 01:36:59 | 52.13188 | 6.30824 | 218° | 4km/h | 24047m | -12.3m/s | -51.7°C | 0.3% | 31.3hPa | 2.5V | 08:21:22 | 02:20:29 | 00:00:00 | |
| DO2JMG | 2026-09-02 01:36:55 | 52.13188 | 6.30830 | 273° | 5km/h | 24096m | -12.7m/s | -51.9°C | 0.3% | 31.1hPa | 2.6V | 08:21:22 | 02:20:25 | 00:00:00 | |
| DL8DAS-14 | 2026-09-02 01:36:55 | 52.13188 | 6.30830 | 272° | 5km/h | 24096m | -12.7m/s | -51.9°C | 0.9% | 31.1hPa | 2.5V | 00:00:00 | 00:00:00 | 00:00:00 | |
| DM0DOS-11 | 2026-09-02 01:36:54 | 52.13183 | 6.30839 | 352° | 5km/h | 24171m | -11.6m/s | -52.1°C | 3.6% | 30.7hPa | 2.5V | 08:21:18 | 02:20:19 | 00:00:00 | |
| BIOWL1-15 | 2026-09-02 01:36:52 | 52.13181 | 6.30839 | 40° | 5km/h | 24183m | -12.6m/s | -52.2°C | 0.4% | 30.7hPa | 2.5V | 08:21:22 | 02:20:18 | 00:00:00 | |
| DL1XH-west | 2026-09-02 01:36:51 | 52.13185 | 6.30838 | 316° | 7km/h | 24146m | -12.2m/s | -52.1°C | 0.4% | 30.8hPa | 2.5V | 08:21:22 | 02:20:21 | 00:00:00 | |
| AA1-15 | 2026-09-02 01:36:49 | 52.13183 | 6.30839 | 353° | 5km/h | 24171m | -11.6m/s | -52.2°C | 0.4% | 30.7hPa | 2.5V | 08:21:22 | 02:20:19 | 00:00:00 | |
| DO2JMG | 2026-09-02 01:36:45 | 52.13178 | 6.30830 | 67° | 13km/h | 24220m | -12.6m/s | -52.1°C | 0.4% | 30.4hPa | 2.6V | 08:21:22 | 02:20:15 | 00:00:00 | |
| DL8DAS-15 | 2026-09-02 01:36:45 | 52.13177 | 6.30830 | 68° | 13km/h | 24221m | -12.6m/s | -52.1°C | 1.0% | 30.4hPa | 2.6V | 08:21:00 | 00:00:00 | 00:00:00 | |
| DM0DOS-11 | 2026-09-02 01:36:44 | 52.13174 | 6.30813 | 102° | 4km/h | 24295m | -12.7m/s | -52.2°C | 3.6% | 30.1hPa | 2.6V | 08:21:28 | 02:20:09 | 00:00:00 | |
| DH3RM | 2026-09-02 01:36:43 | 52.13175 | 6.30823 | 79° | 7km/h | 24245m | -12.9m/s | -52.1°C | 0.9% | 30.4hPa | 2.5V | 00:00:00 | 00:00:00 | 00:00:00 | |
| GOEST3-10 | 2026-09-02 01:36:42 | 52.13175 | 6.30819 | 77° | 9km/h | 24258m | -12.5m/s | -52.1°C | 3.6% | 30.3hPa | 2.5V | 00:00:00 | 02:20:12 | 00:00:00 | |
| DL1XH-15 | 2026-09-02 01:36:41 | 52.13176 | 6.30811 | 149° | 4km/h | 24332m | -12.3m/s | -52.1°C | 3.6% | 29.9hPa | 2.5V | 08:21:31 | 02:20:06 | 00:00:00 | |
| DL1XH-west | 2026-09-02 01:36:41 | 52.13174 | 6.30817 | 60° | 7km/h | 24270m | -12m/s | -52.1°C | 0.4% | 30.2hPa | 2.5V | 08:22:13 | 02:20:11 | 00:00:00 | |
| HSKMA3-T | 2026-09-02 01:36:39 | 52.13174 | 6.30813 | 103° | 4km/h | 24295m | -12.7m/s | -52.2°C | 0.4% | 30.1hPa | 2.6V | 08:22:13 | 02:20:09 | 00:00:00 | |
| AA1-15 | 2026-09-02 01:36:38 | 52.13174 | 6.30812 | 144° | 2km/h | 24307m | -11.7m/s | -52.1°C | 0.4% | 30.1hPa | 2.6V | 08:22:13 | 02:20:08 | 00:00:00 | |
| BIOWL1-15 | 2026-09-02 01:36:37 | 52.13175 | 6.30812 | 158° | 4km/h | 24320m | -12.5m/s | -52.1°C | 0.4% | 30hPa | 2.5V | 08:22:13 | 02:20:07 | 00:00:00 | |
| DO2JMG | 2026-09-02 01:36:35 | 52.13177 | 6.30811 | 171° | 4km/h | 24345m | -12.3m/s | -52.1°C | 0.3% | 29.9hPa | 2.5V | 08:22:13 | 02:20:05 | 00:00:00 | |
| DO2KSM | 2026-09-02 01:36:34 | 52.13177 | 6.30811 | 172° | 4km/h | 24345m | -12.3m/s | -52.1°C | 0.9% | 29.9hPa | 2.5V | 08:22:00 | 00:00:00 | 00:00:00 | |
| DO3DL | 2026-09-02 01:36:33 | 52.13178 | 6.30811 | 184° | 5km/h | 24357m | -12.3m/s | -52.1°C | 0.9% | 29.8hPa | 2.5V | 08:22:00 | 00:00:00 | 00:00:00 | |
| SONCRA | 2026-09-02 01:36:32 | 52.13182 | 6.30810 | 167° | 9km/h | 24382m | -12.7m/s | -52.1°C | 0.9% | 29.7hPa | 2.5V | 00:00:00 | 00:00:00 | 00:00:00 | |
| DL1XH-15 | 2026-09-02 01:36:31 | 52.13195 | 6.30811 | 205° | 7km/h | 24457m | -12.5m/s | -52.1°C | 3.7% | 29.4hPa | 2.5V | 08:21:41 | 02:19:56 | 00:00:00 | |
| DL1XH-west | 2026-09-02 01:36:30 | 52.13187 | 6.30809 | 168° | 9km/h | 24407m | -12.8m/s | -52.1°C | 0.4% | 29.6hPa | 2.5V | 08:22:13 | 02:20:00 | 00:00:00 | |
| BIOWL1-15 | 2026-09-02 01:36:27 | 52.13193 | 6.30809 | 194° | 7km/h | 24445m | -12.7m/s | -52.1°C | 0.5% | 29.4hPa | 2.5V | 08:22:13 | 02:19:57 | 00:00:00 | |
| DO2JMG | 2026-09-02 01:36:24 | 52.13198 | 6.30814 | 219° | 9km/h | 24483m | -12.7m/s | -52.1°C | 0.4% | 29.3hPa | 2.5V | 08:22:13 | 02:19:54 | 00:00:00 | |
| DL8DAS-14 | 2026-09-02 01:36:24 | 52.13198 | 6.30814 | 219° | 7km/h | 24483m | -12.7m/s | -52.1°C | 0.9% | 29.3hPa | 2.5V | 00:00:00 | 00:00:00 | 00:00:00 | |
| DD1CC1-15 | 2026-09-02 01:36:23 | 52.13198 | 6.30814 | 220° | 9km/h | 24483m | -12.7m/s | -52.1°C | 0.9% | 29.3hPa | 2.5V | 08:22:00 | 00:00:00 | 00:00:00 | |
| DL4BBY-15 | 2026-09-02 01:36:22 | 52.13201 | 6.30818 | 224° | 9km/h | 24509m | -11.9m/s | -52.3°C | 0% | 0hPa | 2.5V | 00:00:00 | 00:00:00 | 00:00:00 | |
| DL1XH-15 | 2026-09-02 01:36:21 | 52.13213 | 6.30821 | 152° | 9km/h | 24584m | -12.6m/s | -51.5°C | 3.5% | 28.8hPa | 2.5V | 08:21:51 | 02:19:46 | 00:00:00 | |
| DL1XH-west | 2026-09-02 01:36:19 | 52.13208 | 6.30823 | 166° | 7km/h | 24546m | -12.7m/s | -51.7°C | 0.3% | 29hPa | 2.5V | 08:22:13 | 02:19:49 | 00:00:00 | |
| BIOWL1-15 | 2026-09-02 01:36:17 | 52.13211 | 6.30822 | 171° | 7km/h | 24571m | -12.8m/s | -51.6°C | 0.3% | 28.9hPa | 2.5V | 08:22:13 | 02:19:47 | 00:00:00 | |
| DO2JMG | 2026-09-02 01:36:13 | 52.13221 | 6.30817 | 177° | 13km/h | 24621m | -12.6m/s | -51.3°C | 0.3% | 28.6hPa | 2.5V | 08:22:13 | 02:19:43 | 00:00:00 | |
| DO3DL | 2026-09-02 01:36:12 | 52.13221 | 6.30818 | 178° | 13km/h | 24621m | -12.6m/s | -51.3°C | 0.9% | 28.6hPa | 2.5V | 08:22:00 | 00:00:00 | 00:00:00 | |
| DL1XH-15 | 2026-09-02 01:36:11 | 52.13243 | 6.30823 | 157° | 9km/h | 24712m | -12.6m/s | -51.5°C | 3.6% | 28.2hPa | 2.5V | 08:22:01 | 02:19:36 | 00:00:00 | |
| DL1XH-west | 2026-09-02 01:36:08 | 52.13238 | 6.30822 | 194° | 9km/h | 24686m | -12.2m/s | -51.6°C | 0.4% | 28.4hPa | 2.5V | 08:22:13 | 02:19:38 | 00:00:00 | |
| AA1-15 | 2026-09-02 01:36:06 | 52.13243 | 6.30823 | 158° | 9km/h | 24712m | -12.6m/s | -51.5°C | 0.4% | 28.2hPa | 2.5V | 08:22:13 | 02:19:36 | 00:00:00 | |
| DO3DL | 2026-09-02 01:36:06 | 52.13243 | 6.30823 | 159° | 9km/h | 24712m | -12.6m/s | -51.5°C | 0.9% | 28.3hPa | 2.5V | 08:22:00 | 00:00:00 | 00:00:00 | |
| DD1CC3-15 | 2026-09-02 01:36:05 | 52.13243 | 6.30823 | 159° | 9km/h | 24712m | -12.6m/s | -51.5°C | 0.9% | 28.3hPa | 2.5V | 08:22:00 | 00:00:00 | 00:00:00 | |
| DM0DOS-11 | 2026-09-02 01:36:04 | 52.13256 | 6.30813 | 184° | 7km/h | 24802m | -12.1m/s | -51°C | 3.5% | 27.9hPa | 2.5V | 08:22:08 | 02:19:29 | 00:00:00 | |
| DO2JMG | 2026-09-02 01:36:03 | 52.13249 | 6.30818 | 148° | 7km/h | 24750m | -12.1m/s | -51.2°C | 0.3% | 28.1hPa | 2.6V | 08:22:13 | 02:19:33 | 00:00:00 | |
| DH3RM | 2026-09-02 01:36:02 | 52.13248 | 6.30818 | 149° | 7km/h | 24751m | -12.1m/s | -51.2°C | 0.9% | 28.1hPa | 2.6V | 00:00:00 | 00:00:00 | 00:00:00 | |
| DL1XH-15 | 2026-09-02 01:36:01 | 52.13263 | 6.30814 | 192° | 7km/h | 24840m | -12.2m/s | -50.9°C | 3.4% | 27.7hPa | 2.6V | 08:22:11 | 02:19:26 | 00:00:00 | |
| DL1XH-west | 2026-09-02 01:35:57 | 52.13261 | 6.30813 | 179° | 9km/h | 24827m | -12.9m/s | -51°C | 0.3% | 27.8hPa | 2.6V | 08:22:13 | 02:19:27 | 00:00:00 | |
| BIOWL1-15 | 2026-09-02 01:35:55 | 52.13265 | 6.30814 | 165° | 9km/h | 24852m | -12.8m/s | -50.9°C | 0.3% | 27.6hPa | 2.5V | 08:22:13 | 02:19:25 | 00:00:00 | |
| DM0DOS-11 | 2026-09-02 01:35:54 | 52.13275 | 6.30795 | 114° | 15km/h | 24929m | -12.7m/s | -50.9°C | 3.4% | 27.3hPa | 2.5V | 08:22:18 | 02:19:19 | 00:00:00 | |
| DO2JMG | 2026-09-02 01:35:53 | 52.13269 | 6.30811 | 149° | 9km/h | 24878m | -12.4m/s | -50.9°C | 0.2% | 27.5hPa | 2.5V | 08:23:04 | 02:19:23 | 00:00:00 | |
| DL8DAS-14 | 2026-09-02 01:35:53 | 52.13269 | 6.30811 | 149° | 7km/h | 24878m | -12.4m/s | -50.9°C | 0.8% | 27.5hPa | 2.5V | 00:00:00 | 00:00:00 | 00:00:00 | |
| DL3AQ-11 | 2026-09-02 01:35:52 | 52.13272 | 6.30804 | 116° | 9km/h | 24903m | -12.8m/s | -50.9°C | 0.9% | 27.4hPa | 2.5V | 00:00:00 | 00:00:00 | 00:00:00 | |
| DL1XH-15 | 2026-09-02 01:35:51 | 52.13280 | 6.30778 | 118° | 16km/h | 24967m | -12.8m/s | -51°C | 3.4% | 27.1hPa | 2.5V | 08:22:21 | 02:19:16 | 00:00:00 | |
| HSKMA3-T | 2026-09-02 01:35:47 | 52.13279 | 6.30784 | 124° | 16km/h | 24954m | -13.1m/s | -50.9°C | 0.2% | 27.2hPa | 2.5V | 08:23:55 | 02:19:17 | 00:00:00 | |
| DL1XH-west | 2026-09-02 01:35:46 | 52.13280 | 6.30778 | 118° | 16km/h | 24967m | -12.8m/s | -51°C | 0.2% | 27.1hPa | 2.5V | 08:23:04 | 02:19:16 | 00:00:00 | |
| BIOWL1-15 | 2026-09-02 01:35:45 | 52.13282 | 6.30773 | 127° | 15km/h | 24980m | -12.3m/s | -51°C | 0.3% | 27.1hPa | 2.5V | 08:23:04 | 02:19:15 | 00:00:00 | |
| AA1-15 | 2026-09-02 01:35:44 | 52.13285 | 6.30768 | 128° | 16km/h | 24992m | -13m/s | -51°C | 0.3% | 27.1hPa | 2.6V | 08:23:04 | 02:19:14 | 00:00:00 | |
| DO2JMG | 2026-09-02 01:35:42 | 52.13290 | 6.30758 | 131° | 15km/h | 25017m | -12.1m/s | -51°C | 0.3% | 26.9hPa | 2.5V | 08:23:04 | 02:19:12 | 00:00:00 | |
| DL1XH-15 | 2026-09-02 01:35:41 | 52.13305 | 6.30729 | 136° | 15km/h | 25096m | -13.8m/s | -51°C | 3.5% | 26.6hPa | 2.5V | 08:22:31 | 02:19:06 | 00:00:00 | |
| BIOWL1-15 | 2026-09-02 01:35:35 | 52.13307 | 6.30724 | 132° | 15km/h | 25109m | -13.5m/s | -50.9°C | 0.3% | 26.6hPa | 2.5V | 08:23:04 | 02:19:05 | 00:00:00 | |
| AA1-15 | 2026-09-02 01:35:34 | 52.13310 | 6.30720 | 131° | 15km/h | 25123m | -13.7m/s | -50.9°C | 0.3% | 26.5hPa | 2.5V | 08:23:04 | 02:19:04 | 00:00:00 | |
| DO2JMG | 2026-09-02 01:35:32 | 52.13314 | 6.30713 | 145° | 11km/h | 25150m | -12.3m/s | -50.9°C | 0.3% | 26.4hPa | 2.5V | 08:23:04 | 02:19:02 | 00:00:00 | |
| DL1XH-west | 2026-09-02 01:35:24 | 52.13339 | 6.30699 | 164° | 11km/h | 25255m | -13.7m/s | -50.5°C | 0.2% | 26hPa | 2.6V | 08:23:04 | 02:18:54 | 00:00:00 | |
| AA1-15 | 2026-09-02 01:35:23 | 52.13341 | 6.30699 | 178° | 7km/h | 25269m | -12.7m/s | -50.4°C | 0.2% | 25.9hPa | 2.5V | 08:23:04 | 02:18:53 | 00:00:00 | |
| DO2JMG | 2026-09-02 01:35:21 | 52.13345 | 6.30700 | 203° | 7km/h | 25295m | -13.4m/s | -50.4°C | 0.2% | 25.8hPa | 2.5V | 08:23:04 | 02:18:51 | 00:00:00 | |
| BIOWL1-15 | 2026-09-02 01:35:14 | 52.13364 | 6.30715 | 201° | 15km/h | 25388m | -12.8m/s | -50.2°C | 0.2% | 25.4hPa | 2.5V | 08:23:04 | 02:18:44 | 00:00:00 | |
| DL1XH-west | 2026-09-02 01:35:13 | 52.13368 | 6.30717 | 196° | 16km/h | 25401m | -13.7m/s | -50.2°C | 0.2% | 25.4hPa | 2.5V | 08:23:04 | 02:18:43 | 00:00:00 | |
| AA1-15 | 2026-09-02 01:35:12 | 52.13372 | 6.30720 | 206° | 15km/h | 25415m | -12.9m/s | -50.2°C | 0.1% | 25.4hPa | 2.6V | 08:23:04 | 02:18:42 | 00:00:00 | |
| DO2JMG | 2026-09-02 01:35:10 | 52.13379 | 6.30727 | 230° | 15km/h | 25441m | -12.8m/s | -50.1°C | 0.2% | 25.2hPa | 2.5V | 08:23:04 | 02:18:40 | 00:00:00 | |
| HSKMA3-T | 2026-09-02 01:35:05 | 52.13388 | 6.30760 | 254° | 16km/h | 25508m | -13.5m/s | -50°C | 0.2% | 25hPa | 2.6V | 08:23:55 | 02:18:35 | 00:00:00 | |
| BIOWL1-15 | 2026-09-02 01:35:04 | 52.13389 | 6.30767 | 260° | 16km/h | 25522m | -13.3m/s | -50°C | 0.2% | 24.9hPa | 2.5V | 08:23:04 | 02:18:34 | 00:00:00 | |
| DM0DOS-11 | 2026-09-02 01:35:03 | 52.13395 | 6.30786 | 218° | 4km/h | 25589m | -14m/s | -50.1°C | 3.4% | 24.7hPa | 2.6V | 08:23:08 | 02:18:29 | 00:00:00 | |
| DL1XH-west | 2026-09-02 01:35:03 | 52.13390 | 6.30773 | 249° | 16km/h | 25535m | -13.2m/s | -50.1°C | 0.2% | 24.9hPa | 2.5V | 08:23:04 | 02:18:33 | 00:00:00 | |
| DJ2DS-15 | 2026-09-02 01:35:03 | 52.13392 | 6.30778 | 236° | 11km/h | 25549m | -13.5m/s | -50.1°C | 0.8% | 24.9hPa | 2.5V | 00:00:00 | 00:00:00 | 00:00:00 | |
| DL1XH-15 | 2026-09-02 01:35:02 | 52.13396 | 6.30790 | 252° | 4km/h | 25630m | -13m/s | -49.8°C | 3.3% | 24.5hPa | 2.5V | 08:23:11 | 02:18:26 | 00:00:00 | |
| AA1-15 | 2026-09-02 01:35:01 | 52.13393 | 6.30782 | 240° | 7km/h | 25562m | -13.8m/s | -50.1°C | 0.2% | 24.8hPa | 2.5V | 08:23:55 | 02:18:31 | 00:00:00 | |
| DO2JMG | 2026-09-02 01:35:00 | 52.13394 | 6.30784 | 242° | 7km/h | 25576m | -13.4m/s | -50.1°C | 0.2% | 24.7hPa | 2.5V | 08:23:55 | 02:18:30 | 00:00:00 | |
| HSKMA3-T | 2026-09-02 01:34:55 | 52.13396 | 6.30791 | 267° | 4km/h | 25643m | -12.6m/s | -49.7°C | 0.1% | 24.5hPa | 2.5V | 08:23:55 | 02:18:25 | 00:00:00 | |
| MET0W-2 | 2026-09-02 01:34:54 | 52.13396 | 6.30793 | 230° | 4km/h | 25656m | -13.9m/s | -49.7°C | 0.8% | 24.4hPa | 2.5V | 00:00:00 | 00:00:00 | 00:00:00 | |
| DM0DOS-11 | 2026-09-02 01:34:53 | 52.13401 | 6.30798 | 205° | 7km/h | 25725m | -14.3m/s | -49.4°C | 3.2% | 24.2hPa | 2.5V | 08:23:18 | 02:18:19 | 00:00:00 | |
| BIOWL1-15 | 2026-09-02 01:34:53 | 52.13397 | 6.30794 | 252° | 4km/h | 25670m | -13.7m/s | -49.7°C | 0.1% | 24.4hPa | 2.5V | 08:23:55 | 02:18:23 | 00:00:00 | |
| DL1XH-west | 2026-09-02 01:34:52 | 52.13398 | 6.30795 | 226° | 5km/h | 25684m | -13.8m/s | -49.6°C | 0.1% | 24.3hPa | 2.6V | 08:23:55 | 02:18:22 | 00:00:00 | |
| AA1-15 | 2026-09-02 01:34:50 | 52.13400 | 6.30797 | 211° | 4km/h | 25711m | -13.6m/s | -49.5°C | 0.1% | 24.2hPa | 2.5V | 08:23:55 | 02:18:20 | 00:00:00 | |
| DO2JMG | 2026-09-02 01:34:49 | 52.13401 | 6.30798 | 206° | 7km/h | 25725m | -14.4m/s | -49.4°C | 0.1% | 24.2hPa | 2.5V | 08:23:55 | 02:18:19 | 00:00:00 | |
| DL3AQ-11 | 2026-09-02 01:34:48 | 52.13404 | 6.30800 | 200° | 4km/h | 25753m | -14.0m/s | -49.3°C | 0.7% | 24.1hPa | 2.5V | 00:00:00 | 00:00:00 | 00:00:00 | |
| EDDB2-12 | 2026-09-02 01:34:45 | 52.13405 | 6.30803 | 244° | 5km/h | 25781m | -13.3m/s | -49.2°C | 0.8% | 24.0hPa | 2.5V | 00:00:00 | 00:00:00 | 00:00:00 | |
| DM0DOS-11 | 2026-09-02 01:34:43 | 52.13409 | 6.30819 | 263° | 7km/h | 25864m | -13.9m/s | -49.1°C | 3.1% | 23.6hPa | 2.5V | 08:23:28 | 02:18:09 | 00:00:00 | |
| BIOWL1-15 | 2026-09-02 01:34:42 | 52.13408 | 6.30810 | 266° | 7km/h | 25822m | -13.3m/s | -49.2°C | 0% | 23.8hPa | 2.5V | 08:23:55 | 02:18:12 | 00:00:00 | |
| DL1XH-west | 2026-09-02 01:34:41 | 52.13408 | 6.30813 | 247° | 7km/h | 25836m | -13.6m/s | -49.1°C | 0% | 23.8hPa | 2.6V | 08:23:55 | 02:18:11 | 00:00:00 | |
| AA1-15 | 2026-09-02 01:34:39 | 52.13409 | 6.30819 | 264° | 7km/h | 25864m | -13.9m/s | -49.1°C | 0.1% | 23.6hPa | 2.5V | 08:23:55 | 02:18:09 | 00:00:00 | |
| DO2JMG | 2026-09-02 01:34:38 | 52.13409 | 6.30822 | 278° | 9km/h | 25878m | -13.1m/s | -49.1°C | 0% | 23.6hPa | 2.5V | 08:23:55 | 02:18:08 | 00:00:00 | |
| DF5WG-10 | 2026-09-02 01:34:38 | 52.13408 | 6.30822 | 278° | 11km/h | 25878m | -13.0m/s | -49.1°C | 3.1% | 23.6hPa | 2.5V | 08:23:00 | 02:18:08 | 00:00:00 | |
| DD1CC1-15 | 2026-09-02 01:34:37 | 52.13408 | 6.30822 | 279° | 9km/h | 25878m | -13.1m/s | -49.1°C | 0.7% | 23.6hPa | 2.5V | 08:23:00 | 00:00:00 | 00:00:00 | |
| EDDB2-11 | 2026-09-02 01:34:36 | 52.13407 | 6.30829 | 303° | 11km/h | 25904m | -12.5m/s | -49.2°C | 0.7% | 23.5hPa | 2.5V | 00:00:00 | 00:00:00 | 00:00:00 | |
| DO3DL | 2026-09-02 01:34:35 | 52.13407 | 6.30829 | 305° | 11km/h | 25905m | -12.5m/s | -49.2°C | 0.7% | 23.5hPa | 2.5V | 08:23:00 | 00:00:00 | 00:00:00 | |
| DM0DOS-11 | 2026-09-02 01:34:33 | 52.13391 | 6.30854 | 322° | 11km/h | 26001m | -14.3m/s | -49.4°C | 3.2% | 23.2hPa | 2.5V | 08:23:38 | 02:17:59 | 00:00:00 | |
| HSKMA3-T | 2026-09-02 01:34:31 | 52.13396 | 6.30847 | 317° | 15km/h | 25974m | -13m/s | -49.3°C | 0.1% | 23.3hPa | 2.5V | 08:23:55 | 02:18:01 | 00:00:00 | |
| DL1XH-west | 2026-09-02 01:34:30 | 52.13393 | 6.30851 | 314° | 11km/h | 25987m | -13.2m/s | -49.4°C | 0.1% | 23.2hPa | 2.5V | 08:23:55 | 02:18:00 | 00:00:00 | |
| DO2JMG | 2026-09-02 01:34:28 | 52.13389 | 6.30857 | 315° | 13km/h | 26015m | -13.5m/s | -49.5°C | 0.1% | 23.1hPa | 2.6V | 08:23:55 | 02:17:58 | 00:00:00 | |
| SONCRA | 2026-09-02 01:34:28 | 52.13387 | 6.30860 | 328° | 9km/h | 26029m | -13.9m/s | -49.5°C | 0.8% | 23.1hPa | 2.5V | 00:00:00 | 00:00:00 | 00:00:00 | |
| DJ2DS-15 | 2026-09-02 01:34:27 | 52.13385 | 6.30862 | 342° | 9km/h | 26042m | -13.3m/s | -49.6°C | 0.8% | 23.0hPa | 2.5V | 00:00:00 | 00:00:00 | 00:00:00 | |
| DO9LL-15 | 2026-09-02 01:34:26 | 52.13385 | 6.30862 | 343° | 9km/h | 26043m | -13.2m/s | -49.5°C | 3.3% | 23.0hPa | 2.5V | 00:00:00 | 02:17:56 | 00:00:00 | |
| SONDE2-11 | 2026-09-02 01:34:24 | 52.13380 | 6.30864 | 10° | 9km/h | 26070m | -13.5m/s | -49.5°C | 0.8% | 22.9hPa | 2.5V | 00:00:00 | 00:00:00 | 00:00:00 | |
| DM0DOS-11 | 2026-09-02 01:34:23 | 52.13370 | 6.30853 | 55° | 7km/h | 26140m | -14.2m/s | -49.5°C | 3.3% | 22.7hPa | 2.5V | 08:23:48 | 02:17:49 | 00:00:00 | |
| HSKMA3-T | 2026-09-02 01:34:21 | 52.13374 | 6.30859 | 46° | 11km/h | 26112m | -14.3m/s | -49.5°C | 0.1% | 22.8hPa | 2.6V | 08:23:55 | 02:17:51 | 00:00:00 | |
| BIOWL1-15 | 2026-09-02 01:34:20 | 52.13372 | 6.30856 | 39° | 11km/h | 26126m | -13.4m/s | -49.5°C | 0.2% | 22.7hPa | 2.5V | 08:23:55 | 02:17:50 | 00:00:00 | |
| DL1XH-west | 2026-09-02 01:34:19 | 52.13370 | 6.30853 | 56° | 7km/h | 26140m | -14.2m/s | -49.5°C | 0.1% | 22.7hPa | 2.5V | 08:23:55 | 02:17:49 | 00:00:00 | |
| DO2JMG | 2026-09-02 01:34:17 | 52.13368 | 6.30846 | 54° | 11km/h | 26168m | -14.3m/s | -49.5°C | 0.2% | 22.6hPa | 2.5V | 08:23:55 | 02:17:47 | 00:00:00 | |
| DD1CC1-15 | 2026-09-02 01:34:16 | 52.13367 | 6.30846 | 55° | 11km/h | 26169m | -14.3m/s | -49.5°C | 0.8% | 22.6hPa | 2.6V | 08:23:00 | 00:00:00 | 00:00:00 | |
| DO3DL | 2026-09-02 01:34:15 | 52.13366 | 6.30843 | 47° | 9km/h | 26183m | -14.1m/s | -49.4°C | 0.8% | 22.5hPa | 2.6V | 08:23:00 | 00:00:00 | 00:00:00 | |
| DM0DOS-11 | 2026-09-02 01:34:13 | 52.13356 | 6.30823 | 61° | 11km/h | 26283m | -14.7m/s | -48.8°C | 3.2% | 22.2hPa | 2.6V | 08:23:58 | 02:17:39 | 00:00:00 | |
| DO3MHA-11 | 2026-09-02 01:34:13 | 52.13362 | 6.30835 | 55° | 7km/h | 26227m | -14.3m/s | -49.2°C | 3.3% | 22.4hPa | 2.5V | 00:00:00 | 02:17:43 | 00:00:00 | |
| BUE01 | 2026-09-02 01:34:12 | 52.13357 | 6.30826 | 55° | 5km/h | 26269m | -13.7m/s | -48.9°C | 0.7% | 22.2hPa | 2.5V | 00:00:00 | 00:00:00 | 00:00:00 | |
| DL1XH-15 | 2026-09-02 01:34:11 | 52.13353 | 6.30815 | 82° | 7km/h | 26326m | -14.8m/s | -48.6°C | 3.1% | 22.1hPa | 2.5V | 08:24:01 | 02:17:36 | 00:00:00 | |
| HSKMA3-T | 2026-09-02 01:34:10 | 52.13357 | 6.30826 | 56° | 7km/h | 26269m | -13.7m/s | -48.9°C | 0.1% | 22.2hPa | 2.6V | 08:24:46 | 02:17:40 | 00:00:00 | |
| DL1XH-west | 2026-09-02 01:34:09 | 52.13356 | 6.30823 | 62° | 11km/h | 26283m | -14.7m/s | -48.8°C | 0.1% | 22.2hPa | 2.6V | 08:24:46 | 02:17:39 | 00:00:00 | |
| DO2JMG | 2026-09-02 01:34:07 | 52.13354 | 6.30817 | 67° | 5km/h | 26312m | -14.2m/s | -48.6°C | 0.1% | 22.1hPa | 2.5V | 08:24:46 | 02:17:37 | 00:00:00 | |
| AA1-15 | 2026-09-02 01:34:06 | 52.13353 | 6.30815 | 82° | 7km/h | 26326m | -14.8m/s | -48.6°C | 0% | 22.1hPa | 2.5V | 08:24:46 | 02:17:36 | 00:00:00 | |
| EDDB2-11 | 2026-09-02 01:34:05 | 52.13353 | 6.30812 | 75° | 5km/h | 26341m | -14.5m/s | -48.5°C | 0.7% | 22.0hPa | 2.5V | 00:00:00 | 00:00:00 | 00:00:00 | |
| DJ3KS | 2026-09-02 01:34:04 | 52.13353 | 6.30812 | 76° | 7km/h | 26342m | -14.5m/s | -48.5°C | 0.8% | 22.0hPa | 2.5V | 08:24:00 | 00:00:00 | 00:00:00 | |
| DO3MHA-11 | 2026-09-02 01:34:03 | 52.13352 | 6.30809 | 148° | 13km/h | 26370m | -14.8m/s | -48.3°C | 3.1% | 21.9hPa | 2.5V | 00:00:00 | 02:17:33 | 00:00:00 | |
| DM0DOS-11 | 2026-09-02 01:34:02 | 52.13360 | 6.30810 | 189° | 15km/h | 26429m | -14.9m/s | -48.2°C | 3.1% | 21.7hPa | 2.5V | 08:24:08 | 02:17:29 | 00:00:00 | |
| DL1XH-15 | 2026-09-02 01:34:01 | 52.13372 | 6.30814 | 193° | 16km/h | 26472m | -14.2m/s | -48.2°C | 3.1% | 21.6hPa | 2.5V | 08:24:11 | 02:17:26 | 00:00:00 | |
| BIOWL1-15 | 2026-09-02 01:34:00 | 52.13363 | 6.30811 | 193° | 15km/h | 26443m | -14.3m/s | -48.2°C | 0% | 21.7hPa | 2.6V | 08:24:46 | 02:17:28 | 00:00:00 | |
| HSKMA3-T | 2026-09-02 01:34:00 | 52.13357 | 6.30809 | 199° | 11km/h | 26414m | -14.3m/s | -48.2°C | 0% | 21.8hPa | 2.5V | 08:24:46 | 02:17:30 | 00:00:00 | |
| DL1XH-west | 2026-09-02 01:33:59 | 52.13360 | 6.30810 | 190° | 15km/h | 26429m | -15m/s | -48.2°C | 0% | 21.7hPa | 2.5V | 08:24:46 | 02:17:29 | 00:00:00 | |
| DO2JMG | 2026-09-02 01:33:56 | 52.13372 | 6.30814 | 193° | 16km/h | 26472m | -14.3m/s | -48.2°C | 0% | 21.6hPa | 2.5V | 08:24:46 | 02:17:26 | 00:00:00 | |
| AA1-15 | 2026-09-02 01:33:55 | 52.13376 | 6.30816 | 192° | 18km/h | 26487m | -14.6m/s | -48.3°C | 0% | 21.5hPa | 2.5V | 08:24:46 | 02:17:25 | 00:00:00 | |
| HTAHTA | 2026-09-02 01:33:55 | 52.13380 | 6.30817 | 197° | 13km/h | 26501m | -14.1m/s | -48.3°C | 0.7% | 21.5hPa | 2.5V | 00:00:00 | 00:00:00 | 00:00:00 | |
| SONDE2-11 | 2026-09-02 01:33:53 | 52.13384 | 6.30819 | 206° | 15km/h | 26515m | -14.7m/s | -48.4°C | 0.7% | 21.4hPa | 2.5V | 00:00:00 | 00:00:00 | 00:00:00 | |
| DL3AQ-11 | 2026-09-02 01:33:52 | 52.13389 | 6.30824 | 214° | 11km/h | 26545m | -15.6m/s | -48.3°C | 0.7% | 21.3hPa | 2.5V | 00:00:00 | 00:00:00 | 00:00:00 | |
| DL1XH-15 | 2026-09-02 01:33:51 | 52.13403 | 6.30853 | 238° | 26km/h | 26620m | -15.2m/s | -47.6°C | 2.9% | 21.1hPa | 2.5V | 08:24:21 | 02:17:16 | 00:00:00 | |
| BIOWL1-15 | 2026-09-02 01:33:49 | 52.13399 | 6.30845 | 237° | 22km/h | 26605m | -14.5m/s | -47.7°C | 0% | 21.1hPa | 2.5V | 08:24:46 | 02:17:17 | 00:00:00 | |
| DL1XH-west | 2026-09-02 01:33:49 | 52.13394 | 6.30832 | 235° | 16km/h | 26576m | -15m/s | -48°C | 0% | 21.2hPa | 2.5V | 08:24:46 | 02:17:19 | 00:00:00 | |
| DO2JMG | 2026-09-02 01:33:46 | 52.13402 | 6.30853 | 238° | 26km/h | 26620m | -15.3m/s | -47.6°C | 0% | 21.1hPa | 2.5V | 08:24:46 | 02:17:16 | 00:00:00 | |
| AA1-15 | 2026-09-02 01:33:44 | 52.13409 | 6.30871 | 240° | 26km/h | 26651m | -15.4m/s | -47.5°C | 0% | 21hPa | 2.5V | 08:24:46 | 02:17:14 | 00:00:00 | |
| DO3MHA-11 | 2026-09-02 01:33:43 | 52.13412 | 6.30880 | 245° | 26km/h | 26666m | -15.3m/s | -47.4°C | 2.9% | 20.9hPa | 2.5V | 00:00:00 | 02:17:13 | 00:00:00 | |
| DL1XH-15 | 2026-09-02 01:33:41 | 52.13423 | 6.30951 | 267° | 27km/h | 26771m | -14.6m/s | -47.3°C | 2.8% | 20.6hPa | 2.5V | 08:24:31 | 02:17:06 | 00:00:00 | |
| DL1XH-west | 2026-09-02 01:33:39 | 52.13419 | 6.30920 | 258° | 27km/h | 26726m | -14.3m/s | -47.3°C | 0% | 20.8hPa | 2.5V | 08:24:46 | 02:17:09 | 00:00:00 | |
| HSKMA3-T | 2026-09-02 01:33:38 | 52.13421 | 6.30930 | 256° | 26km/h | 26741m | -14.7m/s | -47.3°C | 0% | 20.7hPa | 2.5V | 08:24:46 | 02:17:08 | 00:00:00 | |
| BIOWL1-15 | 2026-09-02 01:33:36 | 52.13423 | 6.30951 | 268° | 27km/h | 26771m | -14.6m/s | -47.3°C | 0% | 20.6hPa | 2.5V | 08:24:46 | 02:17:06 | 00:00:00 | |
| DO2JMG | 2026-09-02 01:33:35 | 52.13423 | 6.30962 | 263° | 29km/h | 26785m | -15.9m/s | -47.3°C | 0% | 20.6hPa | 2.5V | 08:24:46 | 02:17:05 | 00:00:00 | |
| AA1-15 | 2026-09-02 01:33:33 | 52.13424 | 6.30986 | 273° | 31km/h | 26817m | -14.8m/s | -47.3°C | 0% | 20.5hPa | 2.6V | 08:24:46 | 02:17:03 | 00:00:00 | |
| DO3MHA-11 | 2026-09-02 01:33:33 | 52.13424 | 6.30986 | 274° | 31km/h | 26817m | -14.7m/s | -47.3°C | 2.8% | 20.4hPa | 2.6V | 00:00:00 | 02:17:03 | 00:00:00 | |
| DH3RM | 2026-09-02 01:33:32 | 52.13423 | 6.30986 | 274° | 31km/h | 26817m | -14.8m/s | -47.3°C | 0.6% | 20.5hPa | 2.6V | 08:24:00 | 00:00:00 | 00:00:00 | |
| DL1XH-15 | 2026-09-02 01:33:31 | 52.13411 | 6.31075 | 297° | 33km/h | 26924m | -15.7m/s | -47.7°C | 2.9% | 20.1hPa | 2.6V | 08:24:41 | 02:16:56 | 00:00:00 | |
| DL1XH-west | 2026-09-02 01:33:29 | 52.13419 | 6.31038 | 288° | 35km/h | 26877m | -14.7m/s | -47.5°C | 0% | 20.3hPa | 2.5V | 08:24:46 | 02:16:59 | 00:00:00 | |
| HSKMA3-T | 2026-09-02 01:33:28 | 52.13417 | 6.31051 | 287° | 33km/h | 26892m | -15.4m/s | -47.5°C | 0% | 20.2hPa | 2.5V | 08:24:46 | 02:16:58 | 00:00:00 | |
| BIOWL1-15 | 2026-09-02 01:33:28 | 52.13411 | 6.31075 | 298° | 33km/h | 26924m | -15.7m/s | -47.7°C | 0% | 20.1hPa | 2.6V | 08:24:46 | 02:16:56 | 00:00:00 | |
| DO2JMG | 2026-09-02 01:33:24 | 52.13404 | 6.31098 | 297° | 27km/h | 26955m | -15.3m/s | -47.9°C | 0% | 20hPa | 2.5V | 08:24:46 | 02:16:54 | 00:00:00 | |
| AA1-15 | 2026-09-02 01:33:23 | 52.13401 | 6.31108 | 291° | 29km/h | 26971m | -15.4m/s | -48°C | 0% | 20hPa | 2.5V | 08:24:46 | 02:16:53 | 00:00:00 | |
| DO3MHA-11 | 2026-09-02 01:33:23 | 52.13401 | 6.31108 | 291° | 24km/h | 26971m | -15.3m/s | -47.9°C | 3.0% | 19.9hPa | 2.5V | 00:00:00 | 02:16:53 | 00:00:00 | |
| DL1XH-15 | 2026-09-02 01:33:22 | 52.13386 | 6.31169 | 307° | 20km/h | 27079m | -16.1m/s | -48.2°C | 3% | 19.7hPa | 2.5V | 08:24:51 | 02:16:46 | 00:00:00 | |
| DL1XH-west | 2026-09-02 01:33:19 | 52.13393 | 6.31146 | 293° | 24km/h | 27032m | -14.7m/s | -48.1°C | 0% | 19.8hPa | 2.5V | 08:25:37 | 02:16:49 | 00:00:00 | |
| HSKMA3-T | 2026-09-02 01:33:18 | 52.13391 | 6.31154 | 293° | 20km/h | 27047m | -15.7m/s | -48°C | 0% | 19.8hPa | 2.5V | 08:25:37 | 02:16:48 | 00:00:00 | |
| BIOWL1-15 | 2026-09-02 01:33:15 | 52.13382 | 6.31176 | 315° | 24km/h | 27095m | -15.3m/s | -48.3°C | 0% | 19.6hPa | 2.5V | 08:25:37 | 02:16:45 | 00:00:00 | |
| DO2JMG | 2026-09-02 01:33:13 | 52.13373 | 6.31188 | 328° | 26km/h | 27126m | -15.3m/s | -48.5°C | 0% | 19.5hPa | 2.5V | 08:25:37 | 02:16:43 | 00:00:00 | |
| AA1-15 | 2026-09-02 01:33:12 | 52.13367 | 6.31193 | 334° | 24km/h | 27142m | -15.5m/s | -48.5°C | 0% | 19.5hPa | 2.5V | 08:25:37 | 02:16:42 | 00:00:00 | |
| DM0DOS-11 | 2026-09-02 01:33:12 | 52.13350 | 6.31203 | 349° | 22km/h | 27188m | -15.5m/s | -48.7°C | 3.2% | 19.3hPa | 2.5V | 08:24:58 | 02:16:39 | 00:00:00 | |
| DL1XH-west | 2026-09-02 01:33:08 | 52.13345 | 6.31205 | 346° | 18km/h | 27204m | -15m/s | -48.7°C | 0.1% | 19.3hPa | 2.5V | 08:25:37 | 02:16:38 | 00:00:00 | |
| HSKMA3-T | 2026-09-02 01:33:07 | 52.13341 | 6.31206 | 350° | 15km/h | 27219m | -15.5m/s | -48.6°C | 0.1% | 19.3hPa | 2.5V | 08:25:37 | 02:16:37 | 00:00:00 | |
| BIOWL1-15 | 2026-09-02 01:33:05 | 52.13334 | 6.31205 | 9° | 15km/h | 27250m | -15.2m/s | -48.4°C | 0% | 19.1hPa | 2.5V | 08:25:37 | 02:16:35 | 00:00:00 | |
| DO2JMG | 2026-09-02 01:33:03 | 52.13329 | 6.31202 | 40° | 11km/h | 27281m | -15.6m/s | -48.2°C | 0% | 19.1hPa | 2.6V | 08:25:37 | 02:16:33 | 00:00:00 | |
| WPPR-10 | 2026-09-02 01:33:03 | 52.13327 | 6.31199 | 34° | 11km/h | 27296m | -15.2m/s | -48.1°C | 0.7% | 19.0hPa | 2.5V | 00:00:00 | 00:00:00 | 00:00:00 | |
| DL1XH-15 | 2026-09-02 01:33:01 | 52.13319 | 6.31189 | 23° | 4km/h | 27391m | -15.9m/s | -47.9°C | 3% | 18.8hPa | 2.5V | 08:25:11 | 02:16:26 | 00:00:00 | |
| AA1-15 | 2026-09-02 01:33:01 | 52.13324 | 6.31196 | 36° | 7km/h | 27311m | -15.9m/s | -48.1°C | 0% | 19hPa | 2.5V | 08:25:37 | 02:16:31 | 00:00:00 | |
| DL1XH-west | 2026-09-02 01:32:58 | 52.13321 | 6.31190 | 45° | 5km/h | 27359m | -15.9m/s | -47.9°C | 0% | 18.9hPa | 2.5V | 08:25:37 | 02:16:28 | 00:00:00 | |
| HSKMA3-T | 2026-09-02 01:32:56 | 52.13319 | 6.31189 | 23° | 4km/h | 27391m | -15.9m/s | -47.9°C | 0% | 18.8hPa | 2.5V | 08:25:37 | 02:16:26 | 00:00:00 | |
| BIOWL1-15 | 2026-09-02 01:32:54 | 52.13317 | 6.31189 | 343° | 5km/h | 27423m | -15.1m/s | -48°C | 0% | 18.7hPa | 2.5V | 08:25:37 | 02:16:24 | 00:00:00 | |
| DO2JMG | 2026-09-02 01:32:52 | 52.13314 | 6.31190 | 359° | 7km/h | 27454m | -15.6m/s | -48.2°C | 0% | 18.6hPa | 2.6V | 08:25:37 | 02:16:22 | 00:00:00 | |
| DL4BBY-15 | 2026-09-02 01:32:52 | 52.13314 | 6.31190 | 360° | 16km/h | 27455m | -15.5m/s | -48.7°C | 0% | 0hPa | 2.6V | 00:00:00 | 00:00:00 | 00:00:00 | |
| DL1XH-15 | 2026-09-02 01:32:51 | 52.13302 | 6.31183 | 34° | 11km/h | 27551m | -16.9m/s | -48.2°C | 3.1% | 18.3hPa | 2.6V | 08:25:21 | 02:16:16 | 00:00:00 | |
| AA1-15 | 2026-09-02 01:32:50 | 52.13310 | 6.31190 | 10° | 9km/h | 27485m | -16.1m/s | -48.3°C | 0.1% | 18.5hPa | 2.5V | 08:25:37 | 02:16:20 | 00:00:00 | |
| DL1XH-west | 2026-09-02 01:32:47 | 52.13304 | 6.31185 | 35° | 9km/h | 27535m | -16.7m/s | -48.2°C | 0.1% | 18.4hPa | 2.5V | 08:25:37 | 02:16:17 | 00:00:00 | |
| HSKMA3-T | 2026-09-02 01:32:46 | 52.13302 | 6.31183 | 35° | 11km/h | 27551m | -16.9m/s | -48.2°C | 0% | 18.3hPa | 2.6V | 08:25:37 | 02:16:16 | 00:00:00 | |
| BIOWL1-15 | 2026-09-02 01:32:43 | 52.13296 | 6.31178 | 350° | 9km/h | 27601m | -15.9m/s | -48°C | 0% | 18.2hPa | 2.5V | 08:25:37 | 02:16:13 | 00:00:00 | |
| DO2JMG | 2026-09-02 01:32:42 | 52.13293 | 6.31179 | 345° | 13km/h | 27617m | -14.9m/s | -48°C | 0% | 18.1hPa | 2.5V | 08:25:37 | 02:16:12 | 00:00:00 | |
| AA1-15 | 2026-09-02 01:32:39 | 52.13282 | 6.31186 | 327° | 18km/h | 27662m | -15m/s | -47.8°C | 0% | 18hPa | 2.5V | 08:25:37 | 02:16:09 | 00:00:00 | |
| DL1XH-west | 2026-09-02 01:32:36 | 52.13272 | 6.31201 | 319° | 18km/h | 27709m | -16.3m/s | -47.6°C | 0% | 17.9hPa | 2.6V | 08:25:37 | 02:16:06 | 00:00:00 | |
| BIOWL1-15 | 2026-09-02 01:32:35 | 52.13261 | 6.31213 | 339° | 18km/h | 27758m | -16.5m/s | -47.3°C | 0% | 17.7hPa | 2.5V | 08:25:37 | 02:16:03 | 00:00:00 | |
| DO3MHA-11 | 2026-09-02 01:32:33 | 52.13261 | 6.31213 | 339° | 22km/h | 27758m | -16.4m/s | -47.2°C | 2.9% | 17.7hPa | 2.6V | 00:00:00 | 02:16:03 | 00:00:00 | |
| DM0DOS-11 | 2026-09-02 01:32:32 | 52.13242 | 6.31218 | 0° | 24km/h | 27825m | -16.8m/s | -47°C | 2.9% | 17.5hPa | 2.6V | 08:25:38 | 02:15:59 | 00:00:00 | |
| DO2JMG | 2026-09-02 01:32:31 | 52.13252 | 6.31217 | 357° | 20km/h | 27792m | -16.8m/s | -47.2°C | 0% | 17.6hPa | 2.5V | 08:25:37 | 02:16:01 | 00:00:00 | |
| DL1XH-15 | 2026-09-02 01:32:31 | 52.13223 | 6.31220 | 357° | 26km/h | 27875m | -16.9m/s | -46.8°C | 2.8% | 17.4hPa | 2.5V | 08:25:41 | 02:15:56 | 00:00:00 | |
| AA1-15 | 2026-09-02 01:32:28 | 52.13235 | 6.31219 | 357° | 24km/h | 27842m | -17m/s | -47°C | 0% | 17.5hPa | 2.5V | 08:26:28 | 02:15:58 | 00:00:00 | |
| DL1XH-west | 2026-09-02 01:32:26 | 52.13222 | 6.31220 | 358° | 26km/h | 27876m | -16.9m/s | -46.8°C | 0% | 17.4hPa | 2.5V | 08:26:28 | 02:15:56 | 00:00:00 | |
| BIOWL1-15 | 2026-09-02 01:32:25 | 52.13204 | 6.31222 | 356° | 22km/h | 27925m | -16.5m/s | -46.6°C | 0% | 17.3hPa | 2.6V | 08:26:28 | 02:15:53 | 00:00:00 | |
| SONCRA | 2026-09-02 01:32:24 | 52.13204 | 6.31222 | 356° | 20km/h | 27925m | -16.5m/s | -46.6°C | 0.6% | 17.3hPa | 2.6V | 00:00:00 | 00:00:00 | 00:00:00 | |
| DO3MHA-11 | 2026-09-02 01:32:23 | 52.13204 | 6.31222 | 357° | 22km/h | 27925m | -16.4m/s | -46.6°C | 2.8% | 17.2hPa | 2.6V | 00:00:00 | 02:15:53 | 00:00:00 | |
| DL4BBY-15 | 2026-09-02 01:32:22 | 52.13199 | 6.31221 | 11° | 20km/h | 27942m | -16.7m/s | -47.1°C | 0% | 0hPa | 2.5V | 00:00:00 | 00:00:00 | 00:00:00 | |
| DL1XH-15 | 2026-09-02 01:32:21 | 52.13169 | 6.31200 | 33° | 24km/h | 28043m | -16.8m/s | -46.8°C | 2.8% | 17hPa | 2.5V | 08:25:51 | 02:15:46 | 00:00:00 | |
| DO2JMG | 2026-09-02 01:32:20 | 52.13189 | 6.31218 | 19° | 22km/h | 27976m | -16.5m/s | -46.7°C | 0% | 17.1hPa | 2.5V | 08:26:28 | 02:15:50 | 00:00:00 | |
| DL1XH-west | 2026-09-02 01:32:15 | 52.13165 | 6.31195 | 33° | 24km/h | 28060m | -16.7m/s | -46.8°C | 0% | 16.9hPa | 2.5V | 08:26:28 | 02:15:45 | 00:00:00 | |
| AA1-15 | 2026-09-02 01:32:14 | 52.13160 | 6.31190 | 34° | 24km/h | 28077m | -16.8m/s | -46.9°C | 0% | 16.9hPa | 2.5V | 08:26:28 | 02:15:44 | 00:00:00 | |
| BIOWL1-15 | 2026-09-02 01:32:12 | 52.13150 | 6.31179 | 37° | 22km/h | 28112m | -16.9m/s | -46.9°C | 0% | 16.8hPa | 2.6V | 08:26:28 | 02:15:42 | 00:00:00 | |
| DL1XH-15 | 2026-09-02 01:32:11 | 52.13132 | 6.31143 | 75° | 22km/h | 28214m | -17m/s | -47°C | 2.9% | 16.5hPa | 2.6V | 08:26:01 | 02:15:36 | 00:00:00 | |
| DO2JMG | 2026-09-02 01:32:09 | 52.13138 | 6.31164 | 47° | 16km/h | 28162m | -16m/s | -47.2°C | 0% | 16.7hPa | 2.5V | 08:26:28 | 02:15:39 | 00:00:00 | |
| DL1XH-west | 2026-09-02 01:32:05 | 52.13131 | 6.31134 | 80° | 22km/h | 28231m | -16m/s | -46.8°C | 0% | 16.5hPa | 2.5V | 08:26:28 | 02:15:35 | 00:00:00 | |
| HSKMA3-T | 2026-09-02 01:32:04 | 52.13130 | 6.31125 | 86° | 26km/h | 28247m | -17.4m/s | -46.7°C | 0% | 16.5hPa | 2.5V | 08:26:28 | 02:15:34 | 00:00:00 | |
| AA1-15 | 2026-09-02 01:32:03 | 52.13130 | 6.31115 | 89° | 22km/h | 28265m | -16.4m/s | -46.8°C | 0% | 16.4hPa | 2.5V | 08:26:28 | 02:15:33 | 00:00:00 | |
| BIOWL1-15 | 2026-09-02 01:32:02 | 52.13130 | 6.31105 | 94° | 26km/h | 28282m | -17.2m/s | -46.9°C | 0% | 16.4hPa | 2.5V | 08:26:28 | 02:15:32 | 00:00:00 | |
| DO2JMG | 2026-09-02 01:31:58 | 52.13132 | 6.31072 | 87° | 16km/h | 28350m | -16.3m/s | -47.1°C | 0% | 16.2hPa | 2.5V | 08:26:28 | 02:15:28 | 00:00:00 | |
| DL1XH-west | 2026-09-02 01:31:54 | 52.13131 | 6.31051 | 64° | 11km/h | 28417m | -16.1m/s | -46.9°C | 0% | 16.1hPa | 2.6V | 08:26:28 | 02:15:24 | 00:00:00 | |
| BIOWL1-15 | 2026-09-02 01:31:53 | 52.13128 | 6.31040 | 64° | 9km/h | 28468m | -16.9m/s | -46.6°C | 0% | 15.9hPa | 2.5V | 08:26:28 | 02:15:21 | 00:00:00 | |
| HSKMA3-T | 2026-09-02 01:31:53 | 52.13130 | 6.31047 | 74° | 11km/h | 28434m | -16.8m/s | -46.8°C | 0% | 16hPa | 2.5V | 08:26:28 | 02:15:23 | 00:00:00 | |
| AA1-15 | 2026-09-02 01:31:52 | 52.13129 | 6.31044 | 67° | 7km/h | 28451m | -16.5m/s | -46.7°C | 0% | 16hPa | 2.5V | 08:26:28 | 02:15:22 | 00:00:00 | |
| DO2JMG | 2026-09-02 01:31:47 | 52.13126 | 6.31026 | 100° | 9km/h | 28536m | -17.2m/s | -46°C | 0% | 15.7hPa | 2.5V | 08:26:28 | 02:15:17 | 00:00:00 | |
| DL8DAS-14 | 2026-09-02 01:31:45 | 52.13127 | 6.31015 | 105° | 11km/h | 28588m | -17.3m/s | -45.6°C | 0.6% | 15.6hPa | 2.6V | 00:00:00 | 00:00:00 | 00:00:00 | |
| DL1XH-west | 2026-09-02 01:31:43 | 52.13128 | 6.31010 | 129° | 11km/h | 28606m | -18m/s | -45.4°C | 0% | 15.6hPa | 2.6V | 08:26:28 | 02:15:13 | 00:00:00 | |
| DO3MHA-11 | 2026-09-02 01:31:43 | 52.13128 | 6.31010 | 129° | 15km/h | 28606m | -17.9m/s | -45.4°C | 2.6% | 15.6hPa | 2.5V | 00:00:00 | 02:15:13 | 00:00:00 | |
| DM0DOS-11 | 2026-09-02 01:31:42 | 52.13135 | 6.30992 | 116° | 15km/h | 28676m | -17.5m/s | -45.3°C | 2.6% | 15.4hPa | 2.5V | 08:26:28 | 02:15:09 | 00:00:00 | |
| AA1-15 | 2026-09-02 01:31:42 | 52.13130 | 6.31007 | 123° | 13km/h | 28623m | -17.1m/s | -45.3°C | 0% | 15.5hPa | 2.5V | 08:26:28 | 02:15:12 | 00:00:00 | |
| BIOWL1-15 | 2026-09-02 01:31:40 | 52.13133 | 6.30998 | 120° | 15km/h | 28659m | -18.1m/s | -45.3°C | 0% | 15.5hPa | 2.5V | 08:26:28 | 02:15:10 | 00:00:00 | |
| DO2JMG | 2026-09-02 01:31:37 | 52.13139 | 6.30981 | 119° | 16km/h | 28712m | -17.9m/s | -45.3°C | 0% | 15.3hPa | 2.6V | 08:27:19 | 02:15:07 | 00:00:00 | |
| HSKMA3-T | 2026-09-02 01:31:33 | 52.13146 | 6.30956 | 124° | 16km/h | 28783m | -17.9m/s | -45.4°C | 0% | 15.2hPa | 2.5V | 08:27:19 | 02:15:03 | 00:00:00 | |
| DO3MHA-11 | 2026-09-02 01:31:33 | 52.13146 | 6.30956 | 124° | 15km/h | 28784m | -17.8m/s | -45.4°C | 2.6% | 15.1hPa | 2.5V | 00:00:00 | 02:15:03 | 00:00:00 | |
| DM0DOS-11 | 2026-09-02 01:31:32 | 52.13156 | 6.30936 | 130° | 16km/h | 28855m | -18.2m/s | -45.5°C | 2.6% | 15hPa | 2.5V | 08:26:38 | 02:14:59 | 00:00:00 | |
| BIOWL1-15 | 2026-09-02 01:31:32 | 52.13154 | 6.30941 | 129° | 16km/h | 28837m | -17.5m/s | -45.5°C | 0% | 15hPa | 2.5V | 08:27:19 | 02:15:00 | 00:00:00 | |
| DL1XH-west | 2026-09-02 01:31:32 | 52.13149 | 6.30951 | 128° | 16km/h | 28801m | -17.7m/s | -45.4°C | 0% | 15.2hPa | 2.6V | 08:27:19 | 02:15:02 | 00:00:00 | |
| DL1XH-15 | 2026-09-02 01:31:31 | 52.13165 | 6.30923 | 134° | 15km/h | 28909m | -17.6m/s | -45.7°C | 2.6% | 14.9hPa | 2.6V | 08:26:41 | 02:14:56 | 00:00:00 | |
| AA1-15 | 2026-09-02 01:31:31 | 52.13151 | 6.30946 | 131° | 15km/h | 28819m | -18m/s | -45.4°C | 0% | 15.1hPa | 2.6V | 08:27:19 | 02:15:01 | 00:00:00 | |
| DO2JMG | 2026-09-02 01:31:27 | 52.13161 | 6.30927 | 141° | 15km/h | 28891m | -18.6m/s | -45.6°C | 0% | 14.9hPa | 2.6V | 08:27:19 | 02:14:57 | 00:00:00 | |
| DO9LL-15 | 2026-09-02 01:31:26 | 52.13164 | 6.30923 | 135° | 9km/h | 28909m | -17.5m/s | -45.6°C | 2.6% | 14.8hPa | 2.6V | 00:00:00 | 02:14:56 | 00:00:00 | |
| DO1YAY-16 | 2026-09-02 01:31:24 | 52.13169 | 6.30914 | 133° | 15km/h | 28945m | -17.8m/s | -45.8°C | 0.6% | 14.8hPa | 2.5V | 00:00:00 | 00:00:00 | 00:00:00 | |
| DO3MHA-11 | 2026-09-02 01:31:23 | 52.13172 | 6.30909 | 133° | 15km/h | 28963m | -19.1m/s | -45.8°C | 2.6% | 14.7hPa | 2.5V | 00:00:00 | 02:14:53 | 08:30:00 | |
| DM0DOS-11 | 2026-09-02 01:31:22 | 52.13179 | 6.30894 | 123° | 7km/h | 29037m | -18.5m/s | -46.1°C | 2.7% | 14.6hPa | 2.6V | 08:26:48 | 02:14:49 | 00:00:00 | |
| HSKMA3-T | 2026-09-02 01:31:22 | 52.13174 | 6.30905 | 127° | 15km/h | 28982m | -18.4m/s | -45.9°C | 0% | 14.7hPa | 2.5V | 08:27:19 | 02:14:52 | 00:00:00 | |
| DL1XH-west | 2026-09-02 01:31:21 | 52.13176 | 6.30901 | 126° | 11km/h | 29000m | -18.4m/s | -46°C | 0% | 14.7hPa | 2.6V | 08:27:19 | 02:14:51 | 00:00:00 | |
| BIOWL1-15 | 2026-09-02 01:31:20 | 52.13178 | 6.30897 | 133° | 11km/h | 29018m | -18.1m/s | -46°C | 0% | 14.7hPa | 2.6V | 08:27:19 | 02:14:50 | 00:00:00 | |
| DO2JMG | 2026-09-02 01:31:17 | 52.13181 | 6.30891 | 145° | 4km/h | 29074m | -18.4m/s | -46.3°C | 0% | 14.5hPa | 2.5V | 08:27:19 | 02:14:47 | 00:00:00 | |
| DC6BW-12 | 2026-09-02 01:31:16 | 52.13181 | 6.30891 | 145° | 4km/h | 29074m | -18.4m/s | -46.3°C | 0.7% | 14.5hPa | 2.6V | 08:27:00 | 00:00:00 | 00:00:00 | |
| DD1CC1-15 | 2026-09-02 01:31:13 | 52.13183 | 6.30891 | 0° | 0km/h | 29129m | -18.0m/s | -46.4°C | 0.6% | 14.4hPa | 2.6V | 08:27:00 | 00:00:00 | 00:00:00 | |
| DM0DOS-11 | 2026-09-02 01:31:12 | 52.13185 | 6.30888 | 62° | 5km/h | 29220m | -18.2m/s | -46.4°C | 2.8% | 14.2hPa | 2.6V | 08:26:58 | 02:14:39 | 00:00:00 | |
| HSKMA3-T | 2026-09-02 01:31:12 | 52.13185 | 6.30892 | 160° | 2km/h | 29166m | -18.2m/s | -46.4°C | 0% | 14.3hPa | 2.5V | 08:27:19 | 02:14:42 | 00:00:00 | |
| DL1XH-west | 2026-09-02 01:31:11 | 52.13185 | 6.30891 | 115° | 4km/h | 29184m | -17.9m/s | -46.4°C | 0% | 14.3hPa | 2.5V | 08:27:19 | 02:14:41 | 00:00:00 | |
| BIOWL1-15 | 2026-09-02 01:31:09 | 52.13185 | 6.30888 | 62° | 7km/h | 29220m | -18.2m/s | -46.4°C | 0% | 14.2hPa | 2.6V | 08:27:19 | 02:14:39 | 00:00:00 | |
| DO2JMG | 2026-09-02 01:31:06 | 52.13181 | 6.30880 | 41° | 11km/h | 29275m | -18.8m/s | -46.2°C | 0% | 14.1hPa | 2.5V | 08:27:19 | 02:14:36 | 00:00:00 | |
| DD1CC8 | 2026-09-02 01:31:05 | 52.13178 | 6.30877 | 37° | 11km/h | 29293m | -18.3m/s | -46.1°C | 0.6% | 14.0hPa | 2.5V | 00:00:00 | 00:00:00 | 00:00:00 | |
| DO2KSM | 2026-09-02 01:31:04 | 52.13179 | 6.30877 | 39° | 13km/h | 29294m | -18.3m/s | -46.1°C | 0.6% | 14.0hPa | 2.5V | 08:27:00 | 00:00:00 | 00:00:00 | |
| DM0DOS-11 | 2026-09-02 01:31:02 | 52.13170 | 6.30855 | 98° | 15km/h | 29404m | -18.5m/s | -46.2°C | 2.8% | 13.8hPa | 2.5V | 08:27:08 | 02:14:29 | 00:00:00 | |
| HSKMA3-T | 2026-09-02 01:31:01 | 52.13171 | 6.30864 | 64° | 11km/h | 29368m | -18.8m/s | -46.1°C | 0% | 13.9hPa | 2.5V | 08:27:19 | 02:14:31 | 00:00:00 | |
| DL1XH-west | 2026-09-02 01:31:00 | 52.13170 | 6.30860 | 78° | 11km/h | 29386m | -18.2m/s | -46.1°C | 0% | 13.8hPa | 2.5V | 08:27:19 | 02:14:30 | 00:00:00 | |
| AA1-15 | 2026-09-02 01:30:58 | 52.13171 | 6.30848 | 108° | 18km/h | 29423m | -18.6m/s | -46.2°C | 0% | 13.8hPa | 2.6V | 08:27:19 | 02:14:28 | 00:00:00 | |
| DO2JMG | 2026-09-02 01:30:56 | 52.13175 | 6.30832 | 118° | 26km/h | 29460m | -19.3m/s | -46.1°C | 0% | 13.7hPa | 2.6V | 08:27:19 | 02:14:26 | 00:00:00 | |
| DO1YAY-16 | 2026-09-02 01:30:53 | 52.13185 | 6.30802 | 119° | 27km/h | 29519m | -19.6m/s | -45.8°C | 0.6% | 13.6hPa | 2.5V | 00:00:00 | 00:00:00 | 00:00:00 | |
| DM0DOS-11 | 2026-09-02 01:30:52 | 52.13196 | 6.30767 | 113° | 18km/h | 29597m | -19.6m/s | -45.4°C | 2.7% | 13.4hPa | 2.5V | 08:27:18 | 02:14:19 | 00:00:00 | |
| DL4BBY-15 | 2026-09-02 01:30:52 | 52.13188 | 6.30792 | 119° | 13km/h | 29539m | -19.7m/s | -46.0°C | 0% | 0hPa | 2.6V | 00:00:00 | 00:00:00 | 00:00:00 | |
| DL1XH-15 | 2026-09-02 01:30:51 | 52.13202 | 6.30751 | 126° | 13km/h | 29655m | -19.2m/s | -45.5°C | 2.7% | 13.3hPa | 2.6V | 08:27:21 | 02:14:16 | 00:00:00 | |
| HSKMA3-T | 2026-09-02 01:30:50 | 52.13194 | 6.30775 | 117° | 22km/h | 29577m | -19.5m/s | -45.4°C | 0% | 13.5hPa | 2.6V | 08:27:19 | 02:14:20 | 00:00:00 | |
| DL1XH-west | 2026-09-02 01:30:49 | 52.13196 | 6.30767 | 114° | 20km/h | 29597m | -19.6m/s | -45.4°C | 0% | 13.4hPa | 2.5V | 08:27:19 | 02:14:19 | 00:00:00 | |
| BIOWL1-15 | 2026-09-02 01:30:48 | 52.13198 | 6.30761 | 120° | 16km/h | 29617m | -19.4m/s | -45.5°C | 0% | 13.4hPa | 2.5V | 08:27:19 | 02:14:18 | 00:00:00 | |
| AA1-15 | 2026-09-02 01:30:47 | 52.13200 | 6.30755 | 118° | 15km/h | 29636m | -19.4m/s | -45.5°C | 0% | 13.3hPa | 2.5V | 08:28:10 | 02:14:17 | 00:00:00 | |
| DO2JMG | 2026-09-02 01:30:45 | 52.13204 | 6.30747 | 133° | 13km/h | 29674m | -19m/s | -45.6°C | 0% | 13.3hPa | 2.6V | 08:28:10 | 02:14:15 | 00:00:00 | |
| GOEST3-10 | 2026-09-02 01:30:45 | 52.13204 | 6.30747 | 134° | 15km/h | 29675m | -19.0m/s | -45.5°C | 2.7% | 13.2hPa | 2.6V | 00:00:00 | 00:00:00 | 00:00:00 | |
| DL8DAS-15 | 2026-09-02 01:30:44 | 52.13204 | 6.30747 | 134° | 13km/h | 29675m | -19.0m/s | -45.6°C | 0.6% | 13.3hPa | 2.5V | 00:00:00 | 00:00:00 | 00:00:00 | |
| DL8DAS-14 | 2026-09-02 01:30:43 | 52.13211 | 6.30735 | 134° | 15km/h | 29732m | -18.8m/s | -45.6°C | 0.6% | 13.1hPa | 2.5V | 00:00:00 | 00:00:00 | 00:00:00 | |
| DM0DOS-11 | 2026-09-02 01:30:42 | 52.13219 | 6.30720 | 128° | 13km/h | 29788m | -19m/s | -45.6°C | 2.7% | 13hPa | 2.5V | 08:27:28 | 02:14:09 | 00:00:00 | |
| WEDDY | 2026-09-02 01:30:42 | 52.13211 | 6.30735 | 136° | 16km/h | 29732m | -18.8m/s | -45.6°C | 0.6% | 13.1hPa | 2.5V | 00:00:00 | 00:00:00 | 00:00:00 | |
| DL1XH-15 | 2026-09-02 01:30:41 | 52.13223 | 6.30713 | 146° | 2km/h | 29846m | -19.5m/s | -45.4°C | 2.7% | 12.9hPa | 2.5V | 08:27:31 | 02:14:06 | 00:00:00 | |
| HSKMA3-T | 2026-09-02 01:30:40 | 52.13217 | 6.30725 | 130° | 16km/h | 29770m | -18.9m/s | -45.6°C | 0% | 13.1hPa | 2.6V | 08:28:10 | 02:14:10 | 00:00:00 | |
| DL1XH-west | 2026-09-02 01:30:39 | 52.13219 | 6.30720 | 129° | 13km/h | 29788m | -19m/s | -45.6°C | 0% | 13hPa | 2.5V | 08:28:10 | 02:14:09 | 00:00:00 | |
| BIOWL1-15 | 2026-09-02 01:30:37 | 52.13222 | 6.30714 | 138° | 7km/h | 29827m | -19.2m/s | -45.5°C | 0% | 12.9hPa | 2.5V | 08:28:10 | 02:14:07 | 00:00:00 | |
| AA1-15 | 2026-09-02 01:30:36 | 52.13223 | 6.30713 | 147° | 2km/h | 29846m | -19.5m/s | -45.4°C | 0% | 12.9hPa | 2.5V | 08:28:10 | 02:14:06 | 00:00:00 | |
| DO2JMG | 2026-09-02 01:30:35 | 52.13224 | 6.30713 | 278° | 4km/h | 29866m | -19.3m/s | -45.4°C | 0% | 12.9hPa | 2.6V | 08:28:10 | 02:14:05 | 00:00:00 | |
| GOEST3-10 | 2026-09-02 01:30:35 | 52.13223 | 6.30713 | 278° | 7km/h | 29866m | -19.2m/s | -45.3°C | 2.7% | 12.8hPa | 2.5V | 00:00:00 | 00:00:00 | 00:00:00 | |
| BUE01 | 2026-09-02 01:30:34 | 52.13223 | 6.30715 | 297° | 5km/h | 29886m | -20.3m/s | -45.4°C | 0.6% | 12.8hPa | 2.5V | 00:00:00 | 00:00:00 | 00:00:00 | |
| DO3DL | 2026-09-02 01:30:33 | 52.13223 | 6.30715 | 298° | 7km/h | 29886m | -20.3m/s | -45.4°C | 0.6% | 12.8hPa | 2.5V | 08:28:00 | 00:00:00 | 00:00:00 | |
| DM0DOS-11 | 2026-09-02 01:30:32 | 52.13215 | 6.30730 | 337° | 9km/h | 29986m | -19.8m/s | -45.5°C | 2.7% | 12.6hPa | 2.5V | 08:27:38 | 02:13:59 | 00:00:00 | |
| DL1XH-west | 2026-09-02 01:30:29 | 52.13215 | 6.30730 | 338° | 9km/h | 29986m | -19.8m/s | -45.5°C | 0% | 12.6hPa | 2.5V | 08:28:10 | 02:13:59 | 00:00:00 | |
| BIOWL1-15 | 2026-09-02 01:30:27 | 52.13211 | 6.30730 | 20° | 9km/h | 30025m | -19.7m/s | -45.5°C | 0% | 12.6hPa | 2.5V | 08:28:10 | 02:13:57 | 00:00:00 | |
| AA1-15 | 2026-09-02 01:30:25 | 52.13207 | 6.30726 | 37° | 11km/h | 30065m | -19.2m/s | -45.5°C | 0% | 12.5hPa | 2.5V | 08:28:10 | 02:13:55 | 00:00:00 | |
| DO2JMG | 2026-09-02 01:30:24 | 52.13205 | 6.30723 | 40° | 11km/h | 30084m | -19.3m/s | -45.5°C | 0% | 12.4hPa | 2.5V | 08:28:10 | 02:13:54 | 00:00:00 | |
| GOEST3-10 | 2026-09-02 01:30:23 | 52.13203 | 6.30720 | 45° | 5km/h | 30104m | -19.1m/s | -45.4°C | 2.8% | 12.4hPa | 2.5V | 00:00:00 | 00:00:00 | 00:00:00 | |
| DM0DOS-11 | 2026-09-02 01:30:22 | 52.13200 | 6.30713 | 75° | 4km/h | 30179m | -18.9m/s | -45.1°C | 2.7% | 12.3hPa | 2.5V | 08:27:48 | 02:13:49 | 00:00:00 | |
| DL4BBY-15 | 2026-09-02 01:30:22 | 52.13201 | 6.30718 | 49° | 9km/h | 30124m | -19.0m/s | -45.9°C | 0% | 0hPa | 2.5V | 00:00:00 | 00:00:00 | 00:00:00 | |
| DL1XH-15 | 2026-09-02 01:30:21 | 52.13199 | 6.30704 | 78° | 11km/h | 30236m | -19.6m/s | -45.1°C | 2.8% | 12.2hPa | 2.5V | 08:27:51 | 02:13:46 | 00:00:00 | |
| HSKMA3-T | 2026-09-02 01:30:19 | 52.13200 | 6.30713 | 76° | 5km/h | 30179m | -18.9m/s | -45.2°C | 0% | 12.3hPa | 2.5V | 08:28:10 | 02:13:49 | 00:00:00 | |
| DL1XH-west | 2026-09-02 01:30:18 | 52.13199 | 6.30711 | 82° | 5km/h | 30197m | -19m/s | -45.1°C | 0% | 12.2hPa | 2.6V | 08:28:10 | 02:13:48 | 00:00:00 | |
| BIOWL1-15 | 2026-09-02 01:30:17 | 52.13198 | 6.30671 | 109° | 15km/h | 30357m | -20.4m/s | -44.6°C | 0% | 11.9hPa | 2.5V | 08:28:10 | 02:13:40 | 00:00:00 | |
| AA1-15 | 2026-09-02 01:30:16 | 52.13198 | 6.30695 | 78° | 13km/h | 30276m | -20m/s | -44.9°C | 0% | 12.1hPa | 2.5V | 08:28:10 | 02:13:44 | 00:00:00 | |
| DJ2DS-15 | 2026-09-02 01:30:16 | 52.13198 | 6.30695 | 78° | 13km/h | 30276m | -20.0m/s | -44.9°C | 0.6% | 12.1hPa | 2.5V | 00:00:00 | 00:00:00 | 00:00:00 | |
| DO3DL | 2026-09-02 01:30:13 | 52.13197 | 6.30689 | 83° | 15km/h | 30297m | -20.5m/s | -44.8°C | 0.6% | 12.1hPa | 2.5V | 08:28:00 | 00:00:00 | 00:00:00 | |
| DL8DAS-14 | 2026-09-02 01:30:12 | 52.13197 | 6.30677 | 96° | 13km/h | 30337m | -20.3m/s | -44.6°C | 0.6% | 12.0hPa | 2.5V | 00:00:00 | 00:00:00 | 00:00:00 | |
| DL1XH-15 | 2026-09-02 01:30:11 | 52.13206 | 6.30652 | 136° | 13km/h | 30439m | -20.6m/s | -44.3°C | 2.6% | 11.8hPa | 2.5V | 08:28:01 | 02:13:36 | 00:00:00 | |
| HSKMA3-T | 2026-09-02 01:30:09 | 52.13199 | 6.30666 | 113° | 15km/h | 30378m | -20.2m/s | -44.6°C | 0% | 11.9hPa | 2.5V | 08:28:10 | 02:13:39 | 00:00:00 | |
| DL1XH-west | 2026-09-02 01:30:07 | 52.13203 | 6.30656 | 133° | 15km/h | 30418m | -20.3m/s | -44.4°C | 0% | 11.8hPa | 2.5V | 08:28:10 | 02:13:37 | 00:00:00 | |
| BIOWL1-15 | 2026-09-02 01:30:05 | 52.13208 | 6.30649 | 140° | 11km/h | 30459m | -20.1m/s | -44.1°C | 0% | 11.8hPa | 2.6V | 08:28:10 | 02:13:35 | 00:00:00 | |
| AA1-15 | 2026-09-02 01:30:04 | 52.13210 | 6.30646 | 140° | 9km/h | 30479m | -20.2m/s | -44°C | 0% | 11.7hPa | 2.5V | 08:28:10 | 02:13:34 | 00:00:00 | |
| DL1XH-15 | 2026-09-02 01:30:01 | 52.13211 | 6.30644 | 338° | 5km/h | 30642m | -20.8m/s | -43.7°C | 2.6% | 11.4hPa | 2.5V | 08:28:11 | 02:13:26 | 00:00:00 | |
| HSKMA3-T | 2026-09-02 01:29:58 | 52.13213 | 6.30642 | 327° | 4km/h | 30600m | -20.8m/s | -43.7°C | 0% | 11.5hPa | 2.5V | 08:28:10 | 02:13:28 | 00:00:00 | |
| DL1XH-west | 2026-09-02 01:29:56 | 52.13211 | 6.30644 | 339° | 5km/h | 30642m | -20.8m/s | -43.7°C | 0% | 11.4hPa | 2.5V | 08:29:01 | 02:13:26 | 00:00:00 | |
| BIOWL1-15 | 2026-09-02 01:29:55 | 52.13209 | 6.30645 | 350° | 9km/h | 30663m | -20.6m/s | -43.7°C | 0% | 11.4hPa | 2.5V | 08:29:01 | 02:13:25 | 00:00:00 | |
| DO2JMG | 2026-09-02 01:29:54 | 52.13207 | 6.30645 | 352° | 9km/h | 30683m | -20.9m/s | -43.7°C | 0% | 11.4hPa | 2.6V | 08:29:01 | 02:13:24 | 00:00:00 | |
| AA1-15 | 2026-09-02 01:29:53 | 52.13204 | 6.30645 | 0° | 11km/h | 30704m | -21.1m/s | -43.6°C | 0% | 11.3hPa | 2.6V | 08:29:01 | 02:13:23 | 00:00:00 | |
| GOEST3-10 | 2026-09-02 01:29:53 | 52.13204 | 6.30645 | 1° | 15km/h | 30705m | -21.1m/s | -43.6°C | 2.6% | 11.3hPa | 2.5V | 00:00:00 | 00:00:00 | 00:00:00 | |
| DM0DOS-11 | 2026-09-02 01:29:52 | 52.13191 | 6.30636 | 43° | 18km/h | 30788m | -21.1m/s | -43.3°C | 2.6% | 11.2hPa | 2.5V | 08:28:18 | 02:13:19 | 00:00:00 | |
| DL3AQ-11 | 2026-09-02 01:29:52 | 52.13198 | 6.30643 | 22° | 15km/h | 30747m | -21.2m/s | -43.4°C | 0.5% | 11.3hPa | 2.6V | 00:00:00 | 00:00:00 | 00:00:00 | |
| DL1XH-15 | 2026-09-02 01:29:51 | 52.13181 | 6.30614 | 61° | 26km/h | 30851m | -20.7m/s | -43.1°C | 2.5% | 11.1hPa | 2.6V | 08:28:21 | 02:13:16 | 00:00:00 | |
| HSKMA3-T | 2026-09-02 01:29:47 | 52.13184 | 6.30622 | 59° | 22km/h | 30830m | -21.1m/s | -43.2°C | 0% | 11.1hPa | 2.6V | 08:29:01 | 02:13:17 | 00:00:00 | |
| DL1XH-west | 2026-09-02 01:29:46 | 52.13181 | 6.30614 | 61° | 26km/h | 30851m | -20.7m/s | -43.1°C | 0% | 11.1hPa | 2.6V | 08:29:01 | 02:13:16 | 00:00:00 | |
| SONDE2-11 | 2026-09-02 01:29:45 | 52.13179 | 6.30605 | 63° | 24km/h | 30872m | -20.6m/s | -43.0°C | 0.5% | 11.1hPa | 2.5V | 00:00:00 | 00:00:00 | 00:00:00 | |
| BIOWL1-15 | 2026-09-02 01:29:44 | 52.13160 | 6.30558 | 51° | 22km/h | 30993m | -20.4m/s | -41.9°C | 0% | 10.9hPa | 2.5V | 08:29:01 | 02:13:09 | 00:00:00 | |
| DO2JMG | 2026-09-02 01:29:43 | 52.13173 | 6.30587 | 61° | 24km/h | 30913m | -20.4m/s | -42.7°C | 0% | 11hPa | 2.5V | 08:29:01 | 02:13:13 | 00:00:00 | |
| GOEST3-10 | 2026-09-02 01:29:43 | 52.13173 | 6.30587 | 62° | 22km/h | 30913m | -20.3m/s | -42.6°C | 2.5% | 10.9hPa | 2.5V | 00:00:00 | 00:00:00 | 00:00:00 | |
| DM0DOS-11 | 2026-09-02 01:29:42 | 52.13160 | 6.30558 | 50° | 22km/h | 30993m | -20.4m/s | -41.9°C | 2.4% | 10.8hPa | 2.5V | 08:28:28 | 02:13:09 | 00:00:00 | |
| DL1XH-15 | 2026-09-02 01:29:41 | 52.13152 | 6.30539 | 58° | 18km/h | 31054m | -20.1m/s | -41.5°C | 2.3% | 10.7hPa | 2.5V | 08:28:31 | 02:13:06 | 00:00:00 | |
| HSKMA3-T | 2026-09-02 01:29:37 | 52.13154 | 6.30545 | 56° | 18km/h | 31034m | -20.3m/s | -41.6°C | 0% | 10.8hPa | 2.6V | 08:29:01 | 02:13:07 | 00:00:00 | |
| DL1XH-west | 2026-09-02 01:29:35 | 52.13151 | 6.30533 | 78° | 15km/h | 31074m | -20.6m/s | -41.5°C | 0% | 10.7hPa | 2.5V | 08:29:01 | 02:13:05 | 00:00:00 | |
| AA1-15 | 2026-09-02 01:29:32 | 52.13152 | 6.30515 | 115° | 15km/h | 31134m | -21.2m/s | -41.3°C | 0% | 10.6hPa | 2.5V | 08:29:01 | 02:13:02 | 00:00:00 | |
| DM0DOS-11 | 2026-09-02 01:29:32 | 52.13157 | 6.30502 | 119° | 11km/h | 31197m | -21.7m/s | -41°C | 2.2% | 10.5hPa | 2.5V | 08:28:38 | 02:12:59 | 00:00:00 | |
| BIOWL1-15 | 2026-09-02 01:29:29 | 52.13157 | 6.30502 | 120° | 11km/h | 31197m | -21.7m/s | -41°C | 0% | 10.5hPa | 2.5V | 08:29:01 | 02:12:59 | 00:00:00 | |
| HSKMA3-T | 2026-09-02 01:29:26 | 52.13156 | 6.30489 | 54° | 15km/h | 31261m | -21.2m/s | -41°C | 0% | 10.4hPa | 2.5V | 08:29:01 | 02:12:56 | 00:00:00 | |
| DL1XH-west | 2026-09-02 01:29:24 | 52.13150 | 6.30479 | 36° | 20km/h | 31303m | -21.4m/s | -41°C | 0% | 10.3hPa | 2.6V | 08:29:01 | 02:12:54 | 00:00:00 | |
| DO2JMG | 2026-09-02 01:29:22 | 52.13141 | 6.30468 | 43° | 22km/h | 31344m | -21.1m/s | -41°C | 0% | 10.3hPa | 2.5V | 08:29:01 | 02:12:52 | 00:00:00 | |
| AA1-15 | 2026-09-02 01:29:21 | 52.13137 | 6.30462 | 48° | 22km/h | 31366m | -21.6m/s | -41°C | 0% | 10.3hPa | 2.5V | 08:29:01 | 02:12:51 | 00:00:00 | |
| DL1XH-15 | 2026-09-02 01:29:21 | 52.13133 | 6.30423 | 104° | 24km/h | 31469m | -22.2m/s | -41.2°C | 2.2% | 10.1hPa | 2.5V | 08:28:51 | 02:12:46 | 00:00:00 | |
| BIOWL1-15 | 2026-09-02 01:29:18 | 52.13132 | 6.30432 | 106° | 20km/h | 31449m | -20.4m/s | -41.1°C | 0% | 10.1hPa | 2.5V | 08:29:01 | 02:12:47 | 00:00:00 | |
| HSKMA3-T | 2026-09-02 01:29:15 | 52.13135 | 6.30414 | 103° | 22km/h | 31491m | -21.4m/s | -41.3°C | 0% | 10.1hPa | 2.5V | 08:29:01 | 02:12:45 | 00:00:00 | |
| DL1XH-west | 2026-09-02 01:29:14 | 52.13135 | 6.30404 | 95° | 22km/h | 31512m | -22.5m/s | -41.4°C | 0% | 10.1hPa | 2.5V | 08:29:01 | 02:12:44 | 00:00:00 | |
| DO2JMG | 2026-09-02 01:29:12 | 52.13132 | 6.30385 | 53° | 27km/h | 31555m | -19.9m/s | -41.4°C | 0% | 10hPa | 2.6V | 08:29:01 | 02:12:42 | 00:00:00 | |
| AA1-15 | 2026-09-02 01:29:10 | 52.13119 | 6.30368 | 31° | 38km/h | 31596m | -18.5m/s | -41.4°C | 0% | 9.9hPa | 2.5V | 08:29:01 | 02:12:40 | 00:00:00 | |
| BIOWL1-15 | 2026-09-02 01:29:10 | 52.13100 | 6.30356 | 14° | 37km/h | 31635m | -20.9m/s | -41.2°C | 0% | 9.8hPa | 2.5V | 08:29:01 | 02:12:38 | 00:00:00 | |
| HSKMA3-T | 2026-09-02 01:29:04 | 52.13087 | 6.30354 | 191° | 11km/h | 31731m | -21.2m/s | -41°C | 0% | 9.7hPa | 2.5V | 08:29:52 | 02:12:34 | 00:00:00 | |
| DL1XH-west | 2026-09-02 01:29:03 | 52.13091 | 6.30354 | 185° | 20km/h | 31750m | -18m/s | -41°C | 0% | 9.7hPa | 2.5V | 08:29:52 | 02:12:33 | 00:00:00 | |
| DM0DOS-11 | 2026-09-02 01:29:02 | 52.13125 | 6.30320 | 128° | 49km/h | 31837m | -21.4m/s | -41.3°C | 2.3% | 9.6hPa | 2.5V | 08:29:08 | 02:12:29 | 00:00:00 | |
| DO2JMG | 2026-09-02 01:29:01 | 52.13106 | 6.30346 | 146° | 47km/h | 31790m | -26m/s | -41.1°C | 0% | 9.6hPa | 2.6V | 08:29:52 | 02:12:31 | 00:00:00 | |
| DL1XH-15 | 2026-09-02 01:29:01 | 52.13129 | 6.30266 | 65° | 47km/h | 31910m | -25.9m/s | -41.4°C | 2.3% | 9.4hPa | 2.5V | 08:29:11 | 02:12:26 | 00:00:00 | |
| AA1-15 | 2026-09-02 01:28:59 | 52.13125 | 6.30320 | 128° | 49km/h | 31837m | -21.4m/s | -41.3°C | 0% | 9.6hPa | 2.5V | 08:29:52 | 02:12:29 | 00:00:00 | |
| BIOWL1-15 | 2026-09-02 01:28:57 | 52.13129 | 6.30266 | 66° | 47km/h | 31910m | -25.9m/s | -41.4°C | 0% | 9.4hPa | 2.5V | 08:29:52 | 02:12:26 | 00:00:00 | |
| DL1XH-west | 2026-09-02 01:28:53 | 52.13102 | 6.30231 | 5° | 44km/h | 31989m | -28.5m/s | -41°C | 0% | 9.4hPa | 2.5V | 08:29:52 | 02:12:23 | 00:00:00 | |
| DO3MHA-11 | 2026-09-02 01:28:53 | 52.13102 | 6.30231 | 6° | 49km/h | 31990m | -28.4m/s | -41.0°C | 2.3% | 9.3hPa | 2.5V | 00:00:00 | 02:12:23 | 00:00:00 | |
| DM0DOS-11 | 2026-09-02 01:28:52 | 52.13069 | 6.30269 | 282° | 46km/h | 32087m | -20.3m/s | -40.6°C | 2.3% | 9.2hPa | 2.5V | 08:29:18 | 02:12:19 | 00:00:00 | |
| DL4BBY-15 | 2026-09-02 01:28:52 | 52.13091 | 6.30233 | 347° | 47km/h | 32017m | -25.7m/s | -41.3°C | 0% | 0hPa | 2.5V | 00:00:00 | 00:00:00 | 00:00:00 | |
| DL1XH-15 | 2026-09-02 01:28:51 | 52.13081 | 6.30329 | 228° | 62km/h | 32149m | -22.5m/s | -40.1°C | 2.2% | 9.1hPa | 2.5V | 08:29:21 | 02:12:16 | 00:00:00 | |
| DO2JMG | 2026-09-02 01:28:50 | 52.13073 | 6.30253 | 309° | 44km/h | 32066m | -22.1m/s | -40.7°C | 0% | 9.3hPa | 2.5V | 08:29:52 | 02:12:20 | 00:00:00 | |
| AA1-15 | 2026-09-02 01:28:48 | 52.13068 | 6.30288 | 262° | 49km/h | 32107m | -20.8m/s | -40.5°C | 0% | 9.2hPa | 2.6V | 08:29:52 | 02:12:18 | 00:00:00 | |
| BIOWL1-15 | 2026-09-02 01:28:47 | 52.13072 | 6.30309 | 245° | 57km/h | 32128m | -21.2m/s | -40.3°C | 0% | 9.2hPa | 2.6V | 08:29:52 | 02:12:17 | 00:00:00 | |
| AU51GT2 | 2026-09-02 01:28:46 | 52.13093 | 6.30345 | 211° | 66km/h | 32172m | -23.5m/s | -39.9°C | 0.4% | 9.1hPa | 2.6V | 00:00:00 | 00:00:00 | 00:00:00 | |
| BIOWL9-15 | 2026-09-02 01:28:45 | 52.13093 | 6.30345 | 211° | 66km/h | 32172m | -23.5m/s | -39.9°C | 0.4% | 9.1hPa | 2.6V | 00:00:00 | 00:00:00 | 00:00:00 | |
| DL1XH-west | 2026-09-02 01:28:42 | 52.13137 | 6.30349 | 156° | 58km/h | 32244m | -22.9m/s | -39.6°C | 0% | 9hPa | 2.6V | 08:29:52 | 02:12:12 | 00:00:00 | |
| DL1XH-15 | 2026-09-02 01:28:41 | 52.13134 | 6.30222 | 46° | 75km/h | 32354m | -20.2m/s | -38.9°C | 2% | 8.8hPa | 2.6V | 08:29:31 | 02:12:06 | 00:00:00 | |
| DO2JMG | 2026-09-02 01:28:39 | 52.13157 | 6.30295 | 87° | 60km/h | 32300m | -14.8m/s | -39.2°C | 0% | 8.9hPa | 2.5V | 08:29:52 | 02:12:09 | 00:00:00 | |
| BIOWL1-15 | 2026-09-02 01:28:37 | 52.13145 | 6.30245 | 55° | 71km/h | 32334m | -20.2m/s | -39°C | 0% | 8.9hPa | 2.6V | 08:29:52 | 02:12:07 | 00:00:00 | |
| DL1LOL-11 | 2026-09-02 01:28:35 | 52.13134 | 6.30222 | 48° | 75km/h | 32355m | -20.2m/s | -38.9°C | 0.4% | 8.8hPa | 2.6V | 00:00:00 | 00:00:00 | 00:00:00 | |
| DO3MHA-11 | 2026-09-02 01:28:33 | 52.13093 | 6.30167 | 31° | 29km/h | 32421m | -24.6m/s | -38.6°C | 2.0% | 8.7hPa | 2.6V | 00:00:00 | 02:12:03 | 00:00:00 | |
| DM0DOS-11 | 2026-09-02 01:28:32 | 52.13063 | 6.30144 | 14° | 4km/h | 32504m | -17.2m/s | -38.5°C | 1.9% | 8.7hPa | 2.6V | 08:29:38 | 02:11:59 | 00:00:00 | |
| DL1XH-west | 2026-09-02 01:28:32 | 52.13081 | 6.30156 | 26° | 47km/h | 32444m | -22.8m/s | -38.7°C | 0% | 8.7hPa | 2.5V | 08:29:52 | 02:12:02 | 00:00:00 | |
| DO2JMG | 2026-09-02 01:28:29 | 52.13063 | 6.30144 | 15° | 4km/h | 32504m | -17.2m/s | -38.5°C | 0% | 8.7hPa | 2.6V | 08:29:52 | 02:11:59 | 00:00:00 | |
| BIOWL1-15 | 2026-09-02 01:28:26 | 52.13094 | 6.30143 | 159° | 15km/h | 32631m | -23.9m/s | -38.7°C | 0% | 8.5hPa | 2.5V | 08:29:52 | 02:11:53 | 00:00:00 | |
| AA1-15 | 2026-09-02 01:28:26 | 52.13077 | 6.30145 | 178° | 31km/h | 32557m | -22.1m/s | -38.4°C | 0% | 8.6hPa | 2.5V | 08:29:52 | 02:11:56 | 00:00:00 | |
| DO3DL | 2026-09-02 01:28:26 | 52.13077 | 6.30145 | 179° | 31km/h | 32558m | -22.1m/s | -38.4°C | 0.3% | 8.6hPa | 2.6V | 08:29:00 | 00:00:00 | 00:00:00 | |
| BIOWL7-15 | 2026-09-02 01:28:25 | 52.13077 | 6.30145 | 179° | 31km/h | 32558m | -22.1m/s | -38.4°C | 0.3% | 8.6hPa | 2.6V | 00:00:00 | 00:00:00 | 00:00:00 | |
| EDDB2-11 | 2026-09-02 01:28:24 | 52.13094 | 6.30143 | 159° | 13km/h | 32632m | -23.9m/s | -38.7°C | 0.4% | 8.5hPa | 2.6V | 00:00:00 | 00:00:00 | 00:00:00 | |
| DO3MHA-11 | 2026-09-02 01:28:23 | 52.13094 | 6.30143 | 160° | 31km/h | 32632m | -23.8m/s | -38.6°C | 1.9% | 8.4hPa | 2.6V | 00:00:00 | 02:11:53 | 00:00:00 | |
| DM0DOS-11 | 2026-09-02 01:28:22 | 52.13089 | 6.30095 | 62° | 58km/h | 32719m | -19.6m/s | -38.6°C | 1.9% | 8.4hPa | 2.6V | 08:29:48 | 02:11:49 | 00:00:00 | |
| DL1XH-west | 2026-09-02 01:28:21 | 52.13096 | 6.30128 | 82° | 31km/h | 32679m | -21.2m/s | -38.7°C | 0% | 8.4hPa | 2.5V | 08:29:52 | 02:11:51 | 00:00:00 | |
| DO2JMG | 2026-09-02 01:28:18 | 52.13081 | 6.30073 | 57° | 69km/h | 32743m | -27.3m/s | -38.6°C | 0% | 8.4hPa | 2.6V | 08:29:52 | 02:11:48 | 00:00:00 | |
| AA1-15 | 2026-09-02 01:28:15 | 52.13054 | 6.30023 | 42° | 42km/h | 32822m | -22.5m/s | -38.9°C | 0% | 8.2hPa | 2.5V | 08:29:52 | 02:11:45 | 00:00:00 | |
| BIOWL1-15 | 2026-09-02 01:28:14 | 52.13047 | 6.30014 | 32° | 26km/h | 32842m | -19.5m/s | -39°C | 0% | 8.2hPa | 2.5V | 18:12:15 | 02:11:44 | 00:00:00 | |
| HTAHTA | 2026-09-02 01:28:13 | 52.13043 | 6.30014 | 234° | 16km/h | 32875m | -16.2m/s | -38.8°C | 0.4% | 8.2hPa | 2.5V | 00:00:00 | 00:00:00 | 00:00:00 | |
| DM0DOS-11 | 2026-09-02 01:28:12 | 52.13067 | 6.30019 | 155° | 42km/h | 32946m | -27m/s | -38.9°C | 1.9% | 8.1hPa | 2.5V | 08:30:00 | 02:11:39 | 00:00:00 | |
| SONDE2-11 | 2026-09-02 01:28:12 | 52.13049 | 6.30020 | 202° | 35km/h | 32895m | -22.8m/s | -38.7°C | 0.4% | 8.2hPa | 2.6V | 00:00:00 | 00:00:00 | 00:00:00 | |
| DL1XH-15 | 2026-09-02 01:28:11 | 52.13084 | 6.29966 | 91° | 62km/h | 33024m | -21.7m/s | -39.3°C | 2% | 8hPa | 2.6V | 08:30:00 | 02:11:36 | 00:00:00 | |
| DL1XH-west | 2026-09-02 01:28:11 | 52.13049 | 6.30020 | 203° | 35km/h | 32894m | -22.8m/s | -38.7°C | 0% | 8.2hPa | 2.6V | 18:12:15 | 02:11:41 | 00:00:00 | |
| HSKMA3-T | 2026-09-02 01:28:10 | 52.13057 | 6.30023 | 179° | 37km/h | 32919m | -27m/s | -38.8°C | 0% | 8.1hPa | 2.5V | 18:12:15 | 02:11:40 | 00:00:00 | |
| DO2JMG | 2026-09-02 01:28:07 | 52.13082 | 6.29989 | 106° | 55km/h | 33000m | -25.4m/s | -39.2°C | 0% | 8hPa | 2.6V | 18:12:15 | 02:11:37 | 00:00:00 | |
| AA1-15 | 2026-09-02 01:28:05 | 52.13081 | 6.29940 | 63° | 71km/h | 33046m | -22.1m/s | -39.4°C | 0% | 8hPa | 2.5V | 18:12:15 | 02:11:35 | 00:00:00 | |
| BIOWL1-15 | 2026-09-02 01:28:04 | 52.13070 | 6.29916 | 48° | 77km/h | 33065m | -17.3m/s | -39.3°C | 0% | 8hPa | 2.5V | 18:12:15 | 02:11:34 | 00:00:00 | |
| DK5PH-5 | 2026-09-02 01:28:02 | 52.13037 | 6.29893 | 360° | 26km/h | 33106m | -22.7m/s | -39.2°C | 2.0% | 7.8hPa | 2.5V | 00:00:00 | 02:11:32 | 00:00:00 | |
| DL1XH-15 | 2026-09-02 01:28:01 | 52.12999 | 6.29971 | 217° | 37km/h | 33241m | -18m/s | -39.5°C | 2.2% | 7.8hPa | 2.5V | 08:30:00 | 02:11:26 | 00:00:00 | |
| DL1XH-west | 2026-09-02 01:28:00 | 52.13006 | 6.29910 | 323° | 62km/h | 33153m | -24.4m/s | -39.3°C | 0% | 7.8hPa | 2.6V | 18:12:15 | 02:11:30 | 00:00:00 | |
| HSKMA3-T | 2026-09-02 01:27:59 | 52.12996 | 6.29927 | 302° | 53km/h | 33177m | -24m/s | -39.3°C | 0% | 7.8hPa | 2.6V | 18:12:15 | 02:11:29 | 00:00:00 | |
| DO2JMG | 2026-09-02 01:27:57 | 52.12993 | 6.29960 | 247° | 37km/h | 33222m | -20.1m/s | -39.5°C | 0% | 7.8hPa | 2.5V | 18:12:15 | 02:11:27 | 00:00:00 | |
| AA1-15 | 2026-09-02 01:27:54 | 52.13019 | 6.29974 | 163° | 51km/h | 33276m | -18.8m/s | -39.4°C | 0% | 7.7hPa | 2.6V | 18:12:15 | 02:11:24 | 00:00:00 | |
| EDDB2-11 | 2026-09-02 01:27:53 | 52.13044 | 6.29952 | 142° | 58km/h | 33317m | -22.7m/s | -39.1°C | -1.0% | -1.0hPa | 2.5V | 00:00:00 | 00:00:00 | 00:00:00 | |
| DB0ND-19 | 2026-09-02 01:27:52 | 52.13062 | 6.29923 | 126° | 37km/h | 33372m | -34.6m/s | -38.7°C | 0.4% | 7.6hPa | 2.5V | 00:00:00 | 00:00:00 | 00:00:00 | |
| DL1XH-15 | 2026-09-02 01:27:51 | 52.13064 | 6.29902 | 4° | 13km/h | 33498m | -22.9m/s | -38.2°C | 1.9% | 7.5hPa | 2.5V | 08:30:00 | 02:11:16 | 00:00:00 | |
| DL1XH-west | 2026-09-02 01:27:49 | 52.13066 | 6.29913 | 113° | 20km/h | 33407m | -35.9m/s | -38.5°C | 0% | 7.6hPa | 2.6V | 18:12:15 | 02:11:19 | 00:00:00 | |
| HSKMA3-T | 2026-09-02 01:27:48 | 52.13068 | 6.29906 | 105° | 18km/h | 33440m | -30.6m/s | -38.3°C | 0% | 7.6hPa | 2.6V | 18:12:15 | 02:11:18 | 00:00:00 | |
| DO2JMG | 2026-09-02 01:27:47 | 52.13067 | 6.29902 | 4° | 11km/h | 33471m | -30.8m/s | -38.2°C | 0% | 7.5hPa | 2.5V | 18:12:15 | 02:11:17 | 00:00:00 | |
| AA1-15 | 2026-09-02 01:27:44 | 52.13052 | 6.29905 | 353° | 27km/h | 33564m | -40.1m/s | -38°C | 0% | 7.5hPa | 2.5V | 18:12:15 | 02:11:14 | 00:00:00 | |
| BIOWL1-15 | 2026-09-02 01:27:43 | 52.13047 | 6.29903 | 34° | 16km/h | 33606m | -44.4m/s | -38°C | 0% | 7.3hPa | 2.6V | 18:12:15 | 02:11:13 | 00:00:00 | |
| BIOWL9-15 | 2026-09-02 01:27:43 | 52.13044 | 6.29899 | 47° | 16km/h | 33649m | -40.3m/s | -38.2°C | 0.4% | 7.3hPa | 2.5V | 00:00:00 | 00:00:00 | 00:00:00 | |
| DM0DOS-11 | 2026-09-02 01:27:42 | 52.13038 | 6.29879 | 72° | 20km/h | 33739m | -18.3m/s | -38.4°C | 2% | 7.2hPa | 2.5V | 08:30:00 | 02:11:09 | 00:00:00 | |
| GOEST3-10 | 2026-09-02 01:27:42 | 52.13044 | 6.29899 | 48° | 18km/h | 33649m | -40.3m/s | -38.1°C | 1.9% | 7.3hPa | 2.6V | 00:00:00 | 00:00:00 | 08:30:00 | |
| DL1XH-15 | 2026-09-02 01:27:41 | 52.13033 | 6.29855 | 70° | 20km/h | 33752m | 9.8m/s | -38.3°C | 1.9% | 7.2hPa | 2.6V | 08:30:00 | 02:11:06 | 00:00:00 | |
| DL1XH-west | 2026-09-02 01:27:39 | 52.13038 | 6.29879 | 73° | 20km/h | 33739m | -18.3m/s | -38.4°C | 0% | 7.2hPa | 2.5V | 18:12:15 | 02:11:09 | 00:00:00 | |
| HSKMA3-T | 2026-09-02 01:27:38 | 52.13037 | 6.29871 | 74° | 20km/h | 33753m | -9.1m/s | -38.3°C | 0% | 7.2hPa | 2.5V | 18:12:15 | 02:11:08 | 00:00:00 | |
| DO2JMG | 2026-09-02 01:27:36 | 52.13033 | 6.29855 | 70° | 20km/h | 33752m | 9.8m/s | -38.3°C | 0% | 7.2hPa | 2.6V | 18:12:15 | 02:11:06 | 00:00:00 | |
| AA1-15 | 2026-09-02 01:27:33 | 52.13030 | 6.29840 | 60° | 5km/h | 33730m | 6.3m/s | -38.3°C | 0% | 7.2hPa | 2.5V | 18:12:15 | 02:11:03 | 00:00:00 | |
| DM0DOS-11 | 2026-09-02 01:27:32 | 52.13028 | 6.29835 | 71° | 9km/h | 33706m | 6.9m/s | -38.3°C | 1.9% | 7.2hPa | 2.6V | 08:30:00 | 02:10:59 | 00:00:00 | |
| BIOWL1-15 | 2026-09-02 01:27:32 | 52.13029 | 6.29839 | 42° | 2km/h | 33724m | 6m/s | -38.3°C | 0% | 7.2hPa | 2.5V | 18:12:15 | 02:11:02 | 00:00:00 | |
| DL1XH-west | 2026-09-02 01:27:29 | 52.13028 | 6.29835 | 71° | 9km/h | 33706m | 6.9m/s | -38.4°C | 0% | 7.2hPa | 2.6V | 18:12:15 | 02:10:59 | 00:00:00 | |
| HSKMA3-T | 2026-09-02 01:27:26 | 52.13025 | 6.29816 | 83° | 22km/h | 33686m | 5.6m/s | -38.4°C | 0% | 7.3hPa | 2.5V | 18:12:15 | 02:10:56 | 00:00:00 | |
| AA1-15 | 2026-09-02 01:27:22 | 52.13028 | 6.29794 | 171° | 7km/h | 33661m | 7.1m/s | -38.5°C | 0% | 7.3hPa | 2.6V | 18:12:15 | 02:10:52 | 00:00:00 | |
| DM0DOS-11 | 2026-09-02 01:27:22 | 52.13033 | 6.29791 | 119° | 11km/h | 33644m | 6.1m/s | -38.4°C | 2% | 7.3hPa | 2.5V | 08:30:00 | 02:10:49 | 00:00:00 | |
| BIOWL1-15 | 2026-09-02 01:27:21 | 52.13030 | 6.29794 | 185° | 7km/h | 33655m | 5.8m/s | -38.5°C | 0% | 7.3hPa | 2.5V | 18:12:15 | 02:10:51 | 00:00:00 | |
| DL1XH-west | 2026-09-02 01:27:18 | 52.13034 | 6.29786 | 98° | 18km/h | 33637m | 7.5m/s | -38.4°C | 0% | 7.3hPa | 2.6V | 18:12:15 | 02:10:48 | 00:00:00 | |
| DO2JMG | 2026-09-02 01:27:16 | 52.13034 | 6.29765 | 91° | 33km/h | 33623m | 5.9m/s | -38.4°C | 0% | 7.3hPa | 2.5V | 18:12:15 | 02:10:46 | 00:00:00 | |
| HSKMA3-T | 2026-09-02 01:27:15 | 52.13034 | 6.29752 | 93° | 31km/h | 33618m | 4.9m/s | -38.4°C | 0% | 7.3hPa | 2.5V | 18:12:15 | 02:10:45 | 00:00:00 | |
| BIOWL1-15 | 2026-09-02 01:27:14 | 52.13046 | 6.29719 | 169° | 15km/h | 33586m | 5.2m/s | -38.3°C | 0% | 7.4hPa | 2.6V | 18:12:15 | 02:10:40 | 00:00:00 | |
| AU51GT2 | 2026-09-02 01:27:13 | 52.13039 | 6.29724 | 135° | 15km/h | 33599m | 7.5m/s | -38.3°C | 0.4% | 7.4hPa | 2.5V | 00:00:00 | 00:00:00 | 00:00:00 | |
| DM0DOS-11 | 2026-09-02 01:27:12 | 52.13049 | 6.29717 | 151° | 15km/h | 33581m | 4.6m/s | -38.3°C | 1.9% | 7.4hPa | 2.5V | 08:30:00 | 02:10:39 | 00:00:00 | |
| AA1-15 | 2026-09-02 01:27:11 | 52.13042 | 6.29721 | 162° | 15km/h | 33592m | 6.5m/s | -38.3°C | 0% | 7.3hPa | 2.6V | 18:12:15 | 02:10:41 | 00:00:00 | |
| DL1XH-west | 2026-09-02 01:27:07 | 52.13053 | 6.29705 | 97° | 24km/h | 33570m | 6.9m/s | -38.3°C | 0% | 7.4hPa | 2.5V | 18:12:15 | 02:10:37 | 00:00:00 | |
| DO2JMG | 2026-09-02 01:27:05 | 52.13052 | 6.29678 | 80° | 42km/h | 33555m | 7.2m/s | -38.3°C | 0% | 7.4hPa | 2.6V | 18:12:15 | 02:10:35 | 00:00:00 | |
| HSKMA3-T | 2026-09-02 01:27:04 | 52.13050 | 6.29661 | 78° | 44km/h | 33549m | 5.6m/s | -38.4°C | 0% | 7.4hPa | 2.6V | 18:12:15 | 02:10:34 | 00:00:00 | |
| DJ2KF-10 | 2026-09-02 01:27:03 | 52.13048 | 6.29644 | 79° | 38km/h | 33544m | 5.1m/s | 0°C | 0% | 0hPa | 2.5V | 00:00:00 | 02:10:33 | 00:00:00 | |
| DL1XH-15 | 2026-09-02 01:27:01 | 52.13077 | 6.29578 | 138° | 42km/h | 33498m | 5.7m/s | -38.4°C | 1.9% | 7.5hPa | 2.5V | 08:30:00 | 02:10:26 | 00:00:00 | |
| AA1-15 | 2026-09-02 01:27:00 | 52.13049 | 6.29611 | 130° | 24km/h | 33525m | 6.2m/s | -38.4°C | 0% | 7.4hPa | 2.5V | 18:12:15 | 02:10:30 | 00:00:00 | |
| BIOWL1-15 | 2026-09-02 01:26:59 | 52.13054 | 6.29604 | 145° | 29km/h | 33519m | 6.6m/s | -38.4°C | 0% | 7.4hPa | 2.6V | 18:12:15 | 02:10:29 | 00:00:00 | |
| DL1XH-west | 2026-09-02 01:26:57 | 52.13069 | 6.29588 | 145° | 40km/h | 33505m | 6.8m/s | -38.4°C | 0% | 7.4hPa | 2.6V | 18:12:15 | 02:10:27 | 00:00:00 | |
| HSKMA3-T | 2026-09-02 01:26:54 | 52.13090 | 6.29552 | 119° | 37km/h | 33488m | 5.4m/s | -38.3°C | 0% | 7.5hPa | 2.5V | 18:12:15 | 02:10:24 | 00:00:00 | |
| GOEST3-10 | 2026-09-02 01:26:54 | 52.13090 | 6.29552 | 119° | 33km/h | 33488m | 5.3m/s | -38.2°C | 1.9% | 7.4hPa | 2.6V | 00:00:00 | 02:10:24 | 00:00:00 | |
| DL4BBY-15 | 2026-09-02 01:26:52 | 52.13094 | 6.29526 | 89° | 29km/h | 33475m | 7.8m/s | -38.7°C | 0% | 0hPa | 2.6V | 00:00:00 | 00:00:00 | 00:00:00 | |
| DL1XH-15 | 2026-09-02 01:26:51 | 52.13084 | 6.29446 | 102° | 44km/h | 33438m | 7.3m/s | -38.2°C | 1.9% | 7.5hPa | 2.6V | 08:30:00 | 02:10:16 | 00:00:00 | |
| AA1-15 | 2026-09-02 01:26:50 | 52.13090 | 6.29503 | 63° | 31km/h | 33461m | 5.9m/s | -38.2°C | 0% | 7.5hPa | 2.5V | 18:12:15 | 02:10:20 | 00:00:00 | |
| BIOWL1-15 | 2026-09-02 01:26:48 | 52.13084 | 6.29478 | 76° | 35km/h | 33451m | 4.8m/s | -38.2°C | 0% | 7.5hPa | 2.5V | 18:12:15 | 02:10:18 | 00:00:00 | |
| DL1XH-west | 2026-09-02 01:26:46 | 52.13084 | 6.29446 | 103° | 44km/h | 33438m | 7.3m/s | -38.2°C | 0% | 7.5hPa | 2.6V | 18:12:15 | 02:10:16 | 00:00:00 | |
| DO2JMG | 2026-09-02 01:26:44 | 52.13094 | 6.29414 | 130° | 46km/h | 33425m | 6m/s | -38.3°C | 0% | 7.5hPa | 2.5V | 18:12:15 | 02:10:14 | 00:00:00 | |
| HSKMA3-T | 2026-09-02 01:26:43 | 52.13102 | 6.29402 | 143° | 40km/h | 33419m | 6m/s | -38.4°C | 0% | 7.5hPa | 2.5V | 18:12:15 | 02:10:13 | 00:00:00 | |
| AU51GT2 | 2026-09-02 01:26:42 | 52.13116 | 6.29390 | 168° | 22km/h | 33406m | 6.5m/s | -38.5°C | 0.4% | 7.6hPa | 2.5V | 00:00:00 | 00:00:00 | 00:00:00 | |
| DL1XH-15 | 2026-09-02 01:26:41 | 52.13113 | 6.29366 | 68° | 38km/h | 33376m | 8.1m/s | -38.8°C | 2% | 7.6hPa | 2.5V | 08:30:00 | 02:10:06 | 00:00:00 | |
| AA1-15 | 2026-09-02 01:26:39 | 52.13121 | 6.29388 | 63° | 4km/h | 33395m | 4.7m/s | -38.6°C | 0% | 7.6hPa | 2.6V | 18:12:15 | 02:10:09 | 00:00:00 | |
| BIOWL1-15 | 2026-09-02 01:26:39 | 52.13117 | 6.29378 | 59° | 27km/h | 33383m | 7.4m/s | -38.7°C | 0% | 7.6hPa | 2.5V | 18:12:15 | 02:10:07 | 00:00:00 | |
| DL1XH-west | 2026-09-02 01:26:36 | 52.13113 | 6.29366 | 69° | 38km/h | 33376m | 8.1m/s | -38.8°C | 0% | 7.6hPa | 2.5V | 18:12:15 | 02:10:06 | 00:00:00 | |
| HSKMA3-T | 2026-09-02 01:26:33 | 52.13109 | 6.29311 | 98° | 42km/h | 33359m | 3.9m/s | -38.9°C | 0% | 7.6hPa | 2.6V | 18:12:15 | 02:10:03 | 00:00:00 | |
| DJ2KF-10 | 2026-09-02 01:26:33 | 52.13109 | 6.29311 | 98° | 22km/h | 33359m | 3.8m/s | 0°C | 0% | 0hPa | 2.6V | 00:00:00 | 02:10:03 | 00:00:00 | |
| DL3AQ-11 | 2026-09-02 01:26:32 | 52.13115 | 6.29287 | 135° | 22km/h | 33348m | 7.4m/s | -38.9°C | 0.4% | 7.6hPa | 2.6V | 00:00:00 | 00:00:00 | 00:00:00 | |
| DL1XH-15 | 2026-09-02 01:26:31 | 52.13131 | 6.29303 | 264° | 4km/h | 33316m | 5.8m/s | -39°C | 2% | 7.7hPa | 2.6V | 08:30:00 | 02:09:56 | 00:00:00 | |
| DM0DOS-11 | 2026-09-02 01:26:30 | 52.13124 | 6.29287 | 216° | 22km/h | 33332m | 6.7m/s | -39°C | 2% | 7.6hPa | 2.5V | 08:30:00 | 02:09:59 | 00:00:00 | |
| AA1-15 | 2026-09-02 01:26:28 | 52.13127 | 6.29293 | 234° | 22km/h | 33326m | 5.2m/s | -39°C | 0% | 7.7hPa | 2.5V | 18:12:15 | 02:09:58 | 00:00:00 | |
| BIOWL1-15 | 2026-09-02 01:26:26 | 52.13131 | 6.29303 | 264° | 4km/h | 33316m | 5.8m/s | -39°C | 0% | 7.7hPa | 2.6V | 18:12:15 | 02:09:56 | 00:00:00 | |
| DL1XH-west | 2026-09-02 01:26:25 | 52.13130 | 6.29302 | 57° | 9km/h | 33309m | 6.6m/s | -39°C | 0% | 7.7hPa | 2.6V | 18:12:15 | 02:09:55 | 00:00:00 | |
| DO2JMG | 2026-09-02 01:26:23 | 52.13125 | 6.29287 | 64° | 31km/h | 33295m | 7m/s | -39°C | 0% | 7.7hPa | 2.5V | 18:12:15 | 02:09:53 | 00:00:00 | |
| HSKMA3-T | 2026-09-02 01:26:22 | 52.13121 | 6.29275 | 62° | 35km/h | 33289m | 6.5m/s | -39.1°C | 0% | 7.7hPa | 2.5V | 18:12:15 | 02:09:52 | 00:00:00 | |
| DL4BBY-15 | 2026-09-02 01:26:22 | 52.13121 | 6.29275 | 62° | 18km/h | 33288m | 6.4m/s | -39.5°C | 0% | 0hPa | 2.5V | 00:00:00 | 00:00:00 | 00:00:00 | |
| DL1XH-15 | 2026-09-02 01:26:21 | 52.13105 | 6.29237 | 172° | 4km/h | 33253m | 6.2m/s | -39.2°C | 2% | 7.7hPa | 2.5V | 08:30:00 | 02:09:46 | 00:00:00 | |
| DM0DOS-11 | 2026-09-02 01:26:20 | 52.13109 | 6.29244 | 46° | 20km/h | 33271m | 6m/s | -39.1°C | 2% | 7.7hPa | 2.5V | 08:30:00 | 02:09:49 | 00:00:00 | |
| AA1-15 | 2026-09-02 01:26:17 | 52.13104 | 6.29238 | 30° | 4km/h | 33259m | 5.8m/s | -39.1°C | 0% | 7.7hPa | 2.5V | 18:12:15 | 02:09:47 | 00:00:00 | |
| DL1XH-west | 2026-09-02 01:26:15 | 52.13106 | 6.29236 | 164° | 9km/h | 33246m | 7.2m/s | -39.2°C | 0% | 7.7hPa | 2.6V | 18:12:15 | 02:09:45 | 00:00:00 | |
| HSKMA3-T | 2026-09-02 01:26:12 | 52.13115 | 6.29226 | 129° | 18km/h | 33227m | 5.3m/s | -39.1°C | 0% | 7.8hPa | 2.5V | 18:12:15 | 02:09:42 | 00:00:00 | |
| DL1XH-15 | 2026-09-02 01:26:11 | 52.13105 | 6.29196 | 44° | 24km/h | 33192m | 5.8m/s | -39°C | 2% | 7.8hPa | 2.6V | 08:30:00 | 02:09:36 | 00:00:00 | |
| BIOWL1-15 | 2026-09-02 01:26:07 | 52.13101 | 6.29188 | 58° | 26km/h | 33185m | 6.7m/s | -39°C | 0% | 7.8hPa | 2.6V | 18:12:15 | 02:09:35 | 00:00:00 | |
| AA1-15 | 2026-09-02 01:26:06 | 52.13105 | 6.29196 | 44° | 24km/h | 33192m | 5.8m/s | -39°C | 0% | 7.8hPa | 2.6V | 18:12:15 | 02:09:36 | 00:00:00 | |
| DL1XH-west | 2026-09-02 01:26:04 | 52.13098 | 6.29179 | 74° | 26km/h | 33179m | 5.8m/s | -39°C | 0% | 7.8hPa | 2.5V | 18:12:15 | 02:09:34 | 00:00:00 | |
| HSKMA3-T | 2026-09-02 01:26:02 | 52.13099 | 6.29162 | 119° | 16km/h | 33169m | 5.5m/s | -39°C | 0% | 7.8hPa | 2.5V | 18:12:15 | 02:09:32 | 00:00:00 | |
| AA1-15 | 2026-09-02 01:25:55 | 52.13106 | 6.29161 | 57° | 20km/h | 33128m | 7.7m/s | -39°C | 0% | 7.9hPa | 2.6V | 18:12:15 | 02:09:25 | 00:00:00 | |
| BIOWL1-15 | 2026-09-02 01:25:54 | 52.13103 | 6.29152 | 62° | 29km/h | 33121m | 6.7m/s | -39.1°C | 0% | 7.9hPa | 2.6V | 18:12:15 | 02:09:24 | 00:00:00 | |
| DL1XH-west | 2026-09-02 01:25:53 | 52.13100 | 6.29140 | 63° | 33km/h | 33115m | 4.9m/s | -39°C | 0% | 7.9hPa | 2.5V | 18:12:15 | 02:09:23 | 00:00:00 | |
| HSKMA3-T | 2026-09-02 01:25:52 | 52.13096 | 6.29129 | 63° | 29km/h | 33110m | 3.8m/s | -39°C | 0% | 7.9hPa | 2.5V | 18:12:15 | 02:09:22 | 00:00:00 | |
| DO2JMG | 2026-09-02 01:25:51 | 52.13093 | 6.29120 | 62° | 20km/h | 33106m | 5.4m/s | -39°C | 0% | 7.9hPa | 2.5V | 18:12:15 | 02:09:21 | 00:00:00 | |
| DM0DOS-11 | 2026-09-02 01:25:50 | 52.13091 | 6.29115 | 274° | 5km/h | 33093m | 6.6m/s | -39°C | 2% | 7.9hPa | 2.6V | 08:30:00 | 02:09:19 | 00:00:00 | |
| AA1-15 | 2026-09-02 01:25:45 | 52.13092 | 6.29134 | 288° | 4km/h | 33071m | 5.8m/s | -39°C | 0% | 8hPa | 2.5V | 18:12:15 | 02:09:15 | 00:00:00 | |
| DL1XH-west | 2026-09-02 01:25:43 | 52.13090 | 6.29129 | 61° | 16km/h | 33059m | 6.3m/s | -39°C | 0% | 8hPa | 2.5V | 18:12:15 | 02:09:13 | 00:00:00 | |
| HSKMA3-T | 2026-09-02 01:25:42 | 52.13088 | 6.29123 | 60° | 22km/h | 33053m | 5.3m/s | -39°C | 0% | 8hPa | 2.5V | 18:12:15 | 02:09:12 | 00:00:00 | |
| DO2JMG | 2026-09-02 01:25:40 | 52.13082 | 6.29109 | 46° | 18km/h | 33043m | 5.2m/s | -39°C | 0% | 8hPa | 2.6V | 18:12:15 | 02:09:10 | 00:00:00 | |
| DM0DOS-11 | 2026-09-02 01:25:40 | 52.13079 | 6.29106 | 24° | 11km/h | 33037m | 6.5m/s | -39°C | 2% | 8hPa | 2.6V | 08:30:00 | 02:09:09 | 00:00:00 | |
| AA1-15 | 2026-09-02 01:25:34 | 52.13079 | 6.29115 | 148° | 5km/h | 33009m | 5.2m/s | -39°C | 0% | 8hPa | 2.6V | 18:12:15 | 02:09:04 | 00:00:00 | |
| DL1XH-west | 2026-09-02 01:25:32 | 52.13079 | 6.29106 | 70° | 18km/h | 32998m | 5.9m/s | -38.9°C | 0% | 8hPa | 2.5V | 18:12:15 | 02:09:02 | 00:00:00 | |
| HSKMA3-T | 2026-09-02 01:25:31 | 52.13077 | 6.29098 | 54° | 26km/h | 32992m | 5.4m/s | -38.9°C | 0% | 8hPa | 2.5V | 18:12:15 | 02:09:01 | 00:00:00 | |
| DO2JMG | 2026-09-02 01:25:30 | 52.13072 | 6.29091 | 40° | 26km/h | 32987m | 4.8m/s | -38.8°C | 0% | 8.1hPa | 2.5V | 18:12:15 | 02:09:00 | 00:00:00 | |
| AA1-15 | 2026-09-02 01:25:24 | 52.13065 | 6.29095 | 193° | 22km/h | 32955m | 5.4m/s | -38.6°C | 0% | 8.1hPa | 2.5V | 18:12:15 | 02:08:54 | 00:00:00 | |
| DL1XH-west | 2026-09-02 01:25:22 | 52.13075 | 6.29092 | 140° | 18km/h | 32945m | 4.3m/s | -38.5°C | 0% | 8.1hPa | 2.5V | 18:12:15 | 02:08:52 | 00:00:00 | |
| BIOWL1-15 | 2026-09-02 01:25:21 | 52.13065 | 6.29066 | 19° | 33km/h | 32921m | 5.9m/s | -38.4°C | 0% | 8.1hPa | 2.5V | 18:12:15 | 02:08:48 | 00:00:00 | |
| HSKMA3-T | 2026-09-02 01:25:21 | 52.13077 | 6.29086 | 99° | 18km/h | 32941m | 5.4m/s | -38.5°C | 0% | 8.1hPa | 2.6V | 18:12:15 | 02:08:51 | 00:00:00 | |
| DO2JMG | 2026-09-02 01:25:20 | 52.13076 | 6.29079 | 61° | 22km/h | 32935m | 6.4m/s | -38.5°C | 0% | 8.1hPa | 2.6V | 18:12:15 | 02:08:50 | 00:00:00 | |
| DM0DOS-11 | 2026-09-02 01:25:20 | 52.13071 | 6.29071 | 35° | 29km/h | 32928m | 6.7m/s | -38.4°C | 2% | 8.1hPa | 2.5V | 08:30:00 | 02:08:49 | 00:00:00 | |
| AA1-15 | 2026-09-02 01:25:13 | 52.13046 | 6.29066 | 171° | 15km/h | 32895m | 7.5m/s | -38.3°C | 0% | 8.2hPa | 2.6V | 18:12:15 | 02:08:43 | 00:00:00 | |
| DL1XH-west | 2026-09-02 01:25:12 | 52.13050 | 6.29063 | 158° | 26km/h | 32888m | 6.6m/s | -38.4°C | 0% | 8.2hPa | 2.5V | 18:12:15 | 02:08:42 | 00:00:00 | |
| BIOWL1-15 | 2026-09-02 01:25:12 | 52.13065 | 6.29037 | 83° | 15km/h | 32867m | 5.9m/s | -38.4°C | 0% | 8.2hPa | 2.5V | 18:12:15 | 02:08:38 | 00:00:00 | |
| DL3AQ-11 | 2026-09-02 01:25:12 | 52.13056 | 6.29058 | 146° | 27km/h | 32882m | 5.3m/s | -38.4°C | 0.4% | 8.2hPa | 2.6V | 00:00:00 | 00:00:00 | 00:00:00 | |
| DL1XH-15 | 2026-09-02 01:25:11 | 52.13061 | 6.29030 | 16° | 16km/h | 32853m | 6.9m/s | -38.4°C | 2% | 8.2hPa | 2.6V | 08:30:00 | 02:08:36 | 00:00:00 | |
| HSKMA3-T | 2026-09-02 01:25:10 | 52.13061 | 6.29051 | 134° | 26km/h | 32877m | 4.8m/s | -38.4°C | 0% | 8.2hPa | 2.5V | 18:12:15 | 02:08:40 | 00:00:00 | |
| DO2JMG | 2026-09-02 01:25:09 | 52.13065 | 6.29044 | 115° | 18km/h | 32872m | 5.1m/s | -38.4°C | 0% | 8.2hPa | 2.5V | 18:12:15 | 02:08:39 | 00:00:00 | |
| DM0DOS-11 | 2026-09-02 01:25:09 | 52.13065 | 6.29044 | 114° | 18km/h | 32872m | 5.1m/s | -38.4°C | 1.9% | 8.2hPa | 2.5V | 08:30:00 | 02:08:39 | 00:00:00 | |
| SONCRA | 2026-09-02 01:25:09 | 52.13065 | 6.29037 | 83° | 13km/h | 32867m | 5.9m/s | -38.4°C | 0.4% | 8.2hPa | 2.6V | 00:00:00 | 00:00:00 | 00:00:00 | |
| BIOWL9-15 | 2026-09-02 01:25:08 | 52.13064 | 6.29033 | 42° | 13km/h | 32860m | 6.8m/s | -38.4°C | 0.4% | 8.2hPa | 2.6V | 00:00:00 | 00:00:00 | 00:00:00 | |
| HTAHTA | 2026-09-02 01:25:07 | 52.13064 | 6.29033 | 42° | 13km/h | 32860m | 6.8m/s | -38.4°C | 0.4% | 8.2hPa | 2.6V | 00:00:00 | 00:00:00 | 00:00:00 | |
| DC6BW-12 | 2026-09-02 01:25:06 | 52.13064 | 6.29032 | 43° | 13km/h | 32860m | 6.8m/s | -38.4°C | 0.4% | 8.2hPa | 2.6V | 00:00:00 | 00:00:00 | 00:00:00 | |
| DH3RM | 2026-09-02 01:25:05 | 52.13061 | 6.29030 | 18° | 16km/h | 32854m | 6.9m/s | -38.4°C | 0.4% | 8.2hPa | 2.6V | 00:00:00 | 00:00:00 | 00:00:00 | |
| DM0DOS-11 | 2026-09-02 01:25:04 | 52.13039 | 6.29003 | 104° | 20km/h | 32814m | 5.2m/s | -38.6°C | 2% | 8.2hPa | 2.6V | 08:30:00 | 02:08:29 | 00:00:00 | |
| DL1XH-west | 2026-09-02 01:25:02 | 52.13043 | 6.29024 | 36° | 16km/h | 32830m | 5.1m/s | -38.6°C | 0% | 8.2hPa | 2.5V | 18:12:15 | 02:08:32 | 00:00:00 | |
| HSKMA3-T | 2026-09-02 01:25:00 | 52.13039 | 6.29011 | 83° | 20km/h | 32819m | 5.7m/s | -38.6°C | 0% | 8.3hPa | 2.6V | 18:12:15 | 02:08:30 | 00:00:00 | |
| DO2JMG | 2026-09-02 01:24:59 | 52.13039 | 6.29003 | 105° | 20km/h | 32814m | 5.2m/s | -38.6°C | 0% | 8.3hPa | 2.6V | 18:12:15 | 02:08:29 | 00:00:00 | |
| BIOWL1-15 | 2026-09-02 01:24:57 | 52.13045 | 6.28990 | 149° | 18km/h | 32802m | 7.1m/s | -38.6°C | 0% | 8.3hPa | 2.5V | 18:12:15 | 02:08:27 | 00:00:00 | |
| DL1XH-west | 2026-09-02 01:24:51 | 52.13064 | 6.28978 | 92° | 18km/h | 32767m | 7.2m/s | -38.4°C | 0% | 8.3hPa | 2.5V | 18:12:15 | 02:08:21 | 00:00:00 | |
| DJ2DS-15 | 2026-09-02 01:24:50 | 52.13063 | 6.28960 | 81° | 24km/h | 32755m | 4.5m/s | -38.4°C | 0.4% | 8.3hPa | 2.5V | 00:00:00 | 00:00:00 | 00:00:00 | |
| DM0DOS-11 | 2026-09-02 01:24:49 | 52.13063 | 6.28960 | 81° | 24km/h | 32755m | 4.5m/s | -38.4°C | 2% | 8.3hPa | 2.5V | 08:30:00 | 02:08:19 | 00:00:00 | |
| HSKMA3-T | 2026-09-02 01:24:49 | 52.13063 | 6.28960 | 81° | 24km/h | 32755m | 4.5m/s | -38.4°C | 0% | 8.3hPa | 2.5V | 18:12:15 | 02:08:19 | 00:00:00 | |
| BIOWL1-15 | 2026-09-02 01:24:46 | 52.13065 | 6.28944 | 214° | 11km/h | 32731m | 6.1m/s | -38.5°C | 0% | 8.4hPa | 2.6V | 18:12:15 | 02:08:15 | 00:00:00 | |
| DB0ND-19 | 2026-09-02 01:24:46 | 52.13073 | 6.28953 | 201° | 7km/h | 32715m | 5.5m/s | -38.4°C | 0.4% | 8.4hPa | 2.6V | 00:00:00 | 00:00:00 | 00:00:00 | |
| DM0DOS-11 | 2026-09-02 01:24:43 | 52.13077 | 6.28943 | 96° | 18km/h | 32697m | 5m/s | -38.4°C | 2% | 8.4hPa | 2.6V | 08:30:00 | 02:08:09 | 00:00:00 | |
| DO3MHA-11 | 2026-09-02 01:24:43 | 52.13071 | 6.28951 | 220° | 11km/h | 32721m | 5.0m/s | -38.4°C | 2.0% | 8.3hPa | 2.5V | 00:00:00 | 02:08:13 | 00:00:00 | |
| DL1XH-15 | 2026-09-02 01:24:41 | 52.13080 | 6.28926 | 142° | 9km/h | 32680m | 7m/s | -38.4°C | 1.9% | 8.4hPa | 2.5V | 08:30:00 | 02:08:06 | 00:00:00 | |
| AA1-15 | 2026-09-02 01:24:41 | 52.13075 | 6.28953 | 140° | 7km/h | 32709m | 6.3m/s | -38.4°C | 0% | 8.4hPa | 2.5V | 18:12:15 | 02:08:11 | 00:00:00 | |
| DL1XH-west | 2026-09-02 01:24:40 | 52.13076 | 6.28949 | 104° | 15km/h | 32703m | 6.2m/s | -38.4°C | 0% | 8.4hPa | 2.5V | 18:12:15 | 02:08:10 | 00:00:00 | |
| HSKMA3-T | 2026-09-02 01:24:39 | 52.13077 | 6.28943 | 97° | 18km/h | 32697m | 5m/s | -38.4°C | 0% | 8.4hPa | 2.6V | 18:12:15 | 02:08:09 | 00:00:00 | |
| DO2JMG | 2026-09-02 01:24:38 | 52.13077 | 6.28935 | 100° | 18km/h | 32692m | 4.4m/s | -38.4°C | 0% | 8.4hPa | 2.6V | 18:12:15 | 02:08:08 | 00:00:00 | |
| BIOWL1-15 | 2026-09-02 01:24:35 | 52.13082 | 6.28925 | 191° | 9km/h | 32674m | 6.4m/s | -38.4°C | 0% | 8.4hPa | 2.5V | 18:12:15 | 02:08:05 | 00:00:00 | |
| SMARD9-10 | 2026-09-02 01:24:34 | 52.13082 | 6.28925 | 192° | 9km/h | 32674m | 6.4m/s | 0°C | 0% | 0hPa | 2.6V | 00:00:00 | 00:00:00 | 00:00:00 | |
| DO3MHA-11 | 2026-09-02 01:24:33 | 52.13085 | 6.28929 | 233° | 13km/h | 32663m | 5.1m/s | -38.3°C | 2.0% | 8.4hPa | 2.6V | 00:00:00 | 02:08:03 | 00:00:00 | |
| DJ3KS | 2026-09-02 01:24:32 | 52.13085 | 6.28929 | 234° | 7km/h | 32663m | 5.1m/s | -38.4°C | 0.4% | 8.4hPa | 2.5V | 00:00:00 | 00:00:00 | 00:00:00 | |
| DL1XH-15 | 2026-09-02 01:24:31 | 52.13076 | 6.28909 | 86° | 11km/h | 32622m | 6.4m/s | -38.3°C | 2% | 8.5hPa | 2.5V | 08:30:00 | 02:07:56 | 00:00:00 | |
| AA1-15 | 2026-09-02 01:24:30 | 52.13084 | 6.28929 | 41° | 11km/h | 32644m | 6.3m/s | -38.4°C | 0% | 8.5hPa | 2.5V | 18:12:15 | 02:08:00 | 00:00:00 | |
| DL1XH-west | 2026-09-02 01:24:29 | 52.13082 | 6.28925 | 51° | 16km/h | 32638m | 5.6m/s | -38.4°C | 0% | 8.5hPa | 2.5V | 18:12:15 | 02:07:59 | 00:00:00 | |
| HSKMA3-T | 2026-09-02 01:24:28 | 52.13079 | 6.28920 | 57° | 18km/h | 32633m | 4.9m/s | -38.4°C | 0% | 8.5hPa | 2.5V | 18:12:15 | 02:07:58 | 00:00:00 | |
| DO2JMG | 2026-09-02 01:24:27 | 52.13077 | 6.28914 | 67° | 15km/h | 32628m | 5.3m/s | -38.3°C | 0% | 8.5hPa | 2.5V | 18:12:15 | 02:07:57 | 00:00:00 | |
| DC6BW-12 | 2026-09-02 01:24:26 | 52.13077 | 6.28914 | 68° | 15km/h | 32628m | 5.3m/s | -38.3°C | 0.4% | 8.5hPa | 2.5V | 00:00:00 | 00:00:00 | 00:00:00 | |
| DO9LL-15 | 2026-09-02 01:24:25 | 52.13077 | 6.28905 | 132° | 27km/h | 32615m | 6.6m/s | -38.3°C | 2.0% | 8.5hPa | 2.5V | 00:00:00 | 02:07:55 | 00:00:00 | |
| DM0DOS-11 | 2026-09-02 01:24:24 | 52.13099 | 6.28868 | 110° | 29km/h | 32578m | 5.1m/s | -38.2°C | 2% | 8.5hPa | 2.5V | 08:30:00 | 02:07:49 | 00:00:00 | |
| BIOWL1-15 | 2026-09-02 01:24:24 | 52.13079 | 6.28902 | 151° | 15km/h | 32609m | 6m/s | -38.3°C | 0% | 8.5hPa | 2.6V | 18:12:15 | 02:07:54 | 00:00:00 | |
| DL4BBY-15 | 2026-09-02 01:24:22 | 52.13087 | 6.28895 | 143° | 27km/h | 32597m | 6.0m/s | -38.7°C | 0% | 0hPa | 2.5V | 00:00:00 | 00:00:00 | 00:00:00 | |
| DO3DL | 2026-09-02 01:24:21 | 52.13087 | 6.28895 | 144° | 22km/h | 32597m | 6.1m/s | -38.3°C | 0.4% | 8.5hPa | 2.5V | 00:00:00 | 00:00:00 | 00:00:00 | |
| DD1CC2-15 | 2026-09-02 01:24:20 | 52.13092 | 6.28888 | 131° | 27km/h | 32591m | 7.1m/s | -38.3°C | 0.4% | 8.5hPa | 2.5V | 00:00:00 | 00:00:00 | 00:00:00 | |
| DL1XH-15 | 2026-09-02 01:24:19 | 52.13103 | 6.28842 | 103° | 13km/h | 32560m | 7.1m/s | -38.1°C | 1.9% | 8.6hPa | 2.5V | 08:30:00 | 02:07:46 | 00:00:00 | |
| DL1XH-west | 2026-09-02 01:24:19 | 52.13099 | 6.28868 | 110° | 29km/h | 32578m | 5.1m/s | -38.2°C | 0% | 8.6hPa | 2.5V | 18:12:15 | 02:07:49 | 00:00:00 | |
| HSKMA3-T | 2026-09-02 01:24:18 | 52.13101 | 6.28857 | 106° | 26km/h | 32573m | 5.2m/s | -38.2°C | 0% | 8.6hPa | 2.6V | 18:12:15 | 02:07:48 | 00:00:00 | |
| DO2JMG | 2026-09-02 01:24:16 | 52.13103 | 6.28842 | 103° | 13km/h | 32560m | 7.1m/s | -38.1°C | 0% | 8.6hPa | 2.5V | 18:12:15 | 02:07:46 | 00:00:00 | |
| BIOWL1-15 | 2026-09-02 01:24:13 | 52.13104 | 6.28830 | 92° | 13km/h | 32543m | 4.8m/s | -38.1°C | 0% | 8.6hPa | 2.5V | 18:12:15 | 02:07:43 | 00:00:00 | |
| DO3MHA-11 | 2026-09-02 01:24:12 | 52.13104 | 6.28823 | 90° | 27km/h | 32538m | 6.2m/s | -38.0°C | 1.9% | 8.6hPa | 2.5V | 00:00:00 | 02:07:42 | 00:00:00 | |
| DL1XH-15 | 2026-09-02 01:24:11 | 52.13109 | 6.28740 | 109° | 26km/h | 32499m | 6.9m/s | -38°C | 1.9% | 8.7hPa | 2.5V | 08:30:00 | 02:07:36 | 00:00:00 | |
| DM0DOS-11 | 2026-09-02 01:24:09 | 52.13105 | 6.28783 | 93° | 42km/h | 32517m | 5.5m/s | -38°C | 1.9% | 8.6hPa | 2.5V | 08:30:00 | 02:07:39 | 00:00:00 | |
| AA1-15 | 2026-09-02 01:24:09 | 52.13105 | 6.28783 | 94° | 42km/h | 32517m | 5.5m/s | -38°C | 0% | 8.7hPa | 2.5V | 18:12:15 | 02:07:39 | 00:00:00 | |
| DL1XH-west | 2026-09-02 01:24:08 | 52.13106 | 6.28766 | 97° | 38km/h | 32512m | 5.1m/s | -38°C | 0% | 8.7hPa | 2.5V | 18:12:15 | 02:07:38 | 00:00:00 | |
| HSKMA3-T | 2026-09-02 01:24:07 | 52.13107 | 6.28751 | 102° | 33km/h | 32506m | 6.5m/s | -38°C | 0% | 8.7hPa | 2.5V | 18:12:15 | 02:07:37 | 00:00:00 | |
| DO2JMG | 2026-09-02 01:24:05 | 52.13111 | 6.28731 | 118° | 20km/h | 32493m | 5.9m/s | -38°C | 0% | 8.7hPa | 2.5V | 18:12:15 | 02:07:35 | 00:00:00 | |
| DM0DOS-11 | 2026-09-02 01:24:03 | 52.13116 | 6.28667 | 92° | 44km/h | 32457m | 5.2m/s | -38.4°C | 1.9% | 8.7hPa | 2.5V | 08:30:00 | 02:07:29 | 00:00:00 | |
| BIOWL1-15 | 2026-09-02 01:24:02 | 52.13115 | 6.28710 | 93° | 24km/h | 32476m | 6.7m/s | -38.3°C | 0% | 8.7hPa | 2.6V | 18:12:15 | 02:07:32 | 00:00:00 | |
| DO3MHA-11 | 2026-09-02 01:24:02 | 52.13115 | 6.28710 | 93° | 35km/h | 32476m | 6.6m/s | -38.2°C | 1.9% | 8.7hPa | 2.6V | 00:00:00 | 02:07:32 | 00:00:00 | |
| DO3DL | 2026-09-02 01:24:01 | 52.13115 | 6.28710 | 94° | 24km/h | 32476m | 6.7m/s | -38.3°C | 0.4% | 8.7hPa | 2.6V | 00:00:00 | 00:00:00 | 00:00:00 | |
| DL8DAS-14 | 2026-09-02 01:23:59 | 52.13116 | 6.28667 | 92° | 44km/h | 32458m | 5.2m/s | -38.4°C | 0.4% | 8.7hPa | 2.6V | 00:00:00 | 00:00:00 | 00:00:00 | |
| DL1XH-15 | 2026-09-02 01:23:58 | 52.13120 | 6.28617 | 103° | 35km/h | 32439m | 6.1m/s | -38.4°C | 1.9% | 8.7hPa | 2.6V | 08:30:00 | 02:07:26 | 00:00:00 | |
| DL1XH-west | 2026-09-02 01:23:58 | 52.13116 | 6.28649 | 95° | 44km/h | 32452m | 5.8m/s | -38.4°C | 0% | 8.7hPa | 2.5V | 18:12:15 | 02:07:28 | 00:00:00 | |
| HSKMA3-T | 2026-09-02 01:23:56 | 52.13120 | 6.28617 | 103° | 35km/h | 32439m | 6.1m/s | -38.4°C | 0% | 8.7hPa | 2.6V | 18:12:15 | 02:07:26 | 00:00:00 | |
| DO2JMG | 2026-09-02 01:23:55 | 52.13121 | 6.28604 | 103° | 31km/h | 32433m | 5.1m/s | -38.4°C | 0% | 8.7hPa | 2.6V | 18:12:15 | 02:07:25 | 00:00:00 | |
| EDDB2-12 | 2026-09-02 01:23:54 | 52.13122 | 6.28581 | 83° | 27km/h | 32423m | 5.7m/s | -38.4°C | 0.4% | 8.8hPa | 2.6V | 00:00:00 | 00:00:00 | 00:00:00 | |
| DM0DOS-11 | 2026-09-02 01:23:52 | 52.13111 | 6.28520 | 74° | 46km/h | 32398m | 4.6m/s | -38.4°C | 1.9% | 8.8hPa | 2.6V | 08:30:00 | 02:07:19 | 00:00:00 | |
| BIOWL1-15 | 2026-09-02 01:23:52 | 52.13121 | 6.28568 | 74° | 33km/h | 32417m | 7.2m/s | -38.4°C | 0% | 8.8hPa | 2.5V | 18:12:15 | 02:07:22 | 00:00:00 | |
| DL3AQ-11 | 2026-09-02 01:23:52 | 52.13118 | 6.28554 | 68° | 38km/h | 32410m | 7.0m/s | -38.4°C | 0.4% | 8.8hPa | 2.5V | 00:00:00 | 00:00:00 | 00:00:00 | |
| DL1XH-15 | 2026-09-02 01:23:51 | 52.13110 | 6.28472 | 109° | 35km/h | 32380m | 7.6m/s | -38.5°C | 1.9% | 8.8hPa | 2.5V | 08:30:00 | 02:07:16 | 00:00:00 | |
| DL1XH-west | 2026-09-02 01:23:47 | 52.13108 | 6.28486 | 94° | 38km/h | 32388m | 6.7m/s | -38.4°C | 0% | 8.8hPa | 2.5V | 18:12:15 | 02:07:17 | 00:00:00 | |
| HSKMA3-T | 2026-09-02 01:23:45 | 52.13114 | 6.28459 | 123° | 33km/h | 32373m | 6.5m/s | -38.5°C | 0% | 8.8hPa | 2.5V | 18:12:15 | 02:07:15 | 00:00:00 | |
| DO2JMG | 2026-09-02 01:23:44 | 52.13118 | 6.28448 | 126° | 31km/h | 32368m | 4.9m/s | -38.6°C | 0% | 8.8hPa | 2.5V | 18:12:15 | 02:07:14 | 00:00:00 | |
| BIOWL1-15 | 2026-09-02 01:23:42 | 52.13124 | 6.28428 | 99° | 26km/h | 32357m | 6.8m/s | -38.7°C | 0% | 8.8hPa | 2.6V | 18:12:15 | 02:07:12 | 00:00:00 | |
| DO3MHA-11 | 2026-09-02 01:23:42 | 52.13124 | 6.28428 | 99° | 18km/h | 32357m | 6.7m/s | -38.6°C | 1.9% | 8.8hPa | 2.5V | 00:00:00 | 02:07:12 | 00:00:00 | |
| GOEST3-10 | 2026-09-02 01:23:41 | 52.13123 | 6.28418 | 78° | 29km/h | 32350m | 7.0m/s | -38.7°C | 2.0% | 8.8hPa | 2.5V | 00:00:00 | 02:07:11 | 00:00:00 | |
| DM0DOS-11 | 2026-09-02 01:23:40 | 52.13117 | 6.28396 | 53° | 31km/h | 32337m | 6m/s | -38.9°C | 2% | 8.9hPa | 2.5V | 08:30:00 | 02:07:09 | 00:00:00 | |
| DL1XH-15 | 2026-09-02 01:23:40 | 52.13106 | 6.28369 | 72° | 22km/h | 32318m | 6.3m/s | -39°C | 2% | 8.9hPa | 2.5V | 08:30:00 | 02:07:06 | 00:00:00 | |
| DL1XH-west | 2026-09-02 01:23:36 | 52.13106 | 6.28369 | 72° | 22km/h | 32318m | 6.3m/s | -39°C | 0% | 8.9hPa | 2.5V | 18:12:15 | 02:07:06 | 00:00:00 | |
| HSKMA3-T | 2026-09-02 01:23:35 | 52.13105 | 6.28360 | 89° | 22km/h | 32312m | 5.8m/s | -39°C | 0% | 8.9hPa | 2.6V | 18:12:15 | 02:07:05 | 00:00:00 | |
| DO2JMG | 2026-09-02 01:23:34 | 52.13105 | 6.28350 | 100° | 26km/h | 32306m | 5.8m/s | -39.1°C | 0% | 8.9hPa | 2.6V | 18:12:15 | 02:07:04 | 00:00:00 | |
| BIOWL1-15 | 2026-09-02 01:23:33 | 52.13110 | 6.28315 | 103° | 31km/h | 32286m | 5.8m/s | -39.2°C | 0% | 8.9hPa | 2.5V | 18:12:15 | 02:07:01 | 00:00:00 | |
| SONDE2-11 | 2026-09-02 01:23:32 | 52.13108 | 6.28327 | 101° | 31km/h | 32292m | 6.9m/s | -39.1°C | 0.4% | 8.9hPa | 2.6V | 00:00:00 | 00:00:00 | 00:00:00 | |
| MET0W-2 | 2026-09-02 01:23:31 | 52.13110 | 6.28315 | 102° | 31km/h | 32286m | 5.8m/s | -39.2°C | 0.4% | 8.9hPa | 2.6V | 00:00:00 | 00:00:00 | 00:00:00 | |
| DL1XH-15 | 2026-09-02 01:23:30 | 52.13120 | 6.28279 | 124° | 4km/h | 32255m | 5.3m/s | -39.6°C | 2% | 9hPa | 2.6V | 08:30:00 | 02:06:56 | 00:00:00 | |
| DL1XH-west | 2026-09-02 01:23:25 | 52.13119 | 6.28278 | 49° | 5km/h | 32250m | 5.3m/s | -39.6°C | 0% | 9hPa | 2.6V | 18:12:15 | 02:06:55 | 00:00:00 | |
| DO2JMG | 2026-09-02 01:23:24 | 52.13118 | 6.28275 | 37° | 13km/h | 32244m | 6.8m/s | -39.7°C | 0% | 9hPa | 2.5V | 18:12:15 | 02:06:54 | 00:00:00 | |
| BIOWL1-15 | 2026-09-02 01:23:20 | 52.13108 | 6.28234 | 147° | 18km/h | 32206m | 8.1m/s | -40°C | 0% | 9hPa | 2.5V | 18:12:15 | 02:06:48 | 00:00:00 | |
| DL1XH-15 | 2026-09-02 01:23:20 | 52.13119 | 6.28233 | 191° | 24km/h | 32192m | 5.2m/s | -40°C | 2.1% | 9.1hPa | 2.5V | 08:30:00 | 02:06:46 | 00:00:00 | |
| DL1XH-west | 2026-09-02 01:23:14 | 52.13127 | 6.28238 | 213° | 11km/h | 32182m | 6.2m/s | -40.1°C | 0% | 9.1hPa | 2.6V | 18:12:15 | 02:06:44 | 00:00:00 | |
| DO2JMG | 2026-09-02 01:23:13 | 52.13128 | 6.28239 | 303° | 4km/h | 32175m | 7.5m/s | -40.1°C | 0% | 9.1hPa | 2.5V | 18:12:15 | 02:06:43 | 00:00:00 | |
| BIOWL1-15 | 2026-09-02 01:23:09 | 52.13112 | 6.28229 | 87° | 7km/h | 32134m | 6.1m/s | -40.6°C | 0% | 9.1hPa | 2.5V | 18:12:15 | 02:06:37 | 00:00:00 | |
| DL1XH-15 | 2026-09-02 01:23:08 | 52.13113 | 6.28226 | 119° | 9km/h | 32128m | 6.4m/s | -40.6°C | 2.2% | 9.1hPa | 2.5V | 08:30:00 | 02:06:36 | 00:00:00 | |
| HSKMA3-T | 2026-09-02 01:23:04 | 52.13116 | 6.28221 | 145° | 11km/h | 32114m | 6.6m/s | -40.7°C | 0% | 9.2hPa | 2.6V | 18:12:15 | 02:06:34 | 00:00:00 | |
| DL1XH-west | 2026-09-02 01:23:03 | 52.13119 | 6.28219 | 165° | 11km/h | 32108m | 5.9m/s | -40.7°C | 0% | 9.2hPa | 2.6V | 18:12:15 | 02:06:33 | 00:00:00 | |
| HTAHTA | 2026-09-02 01:23:03 | 52.13119 | 6.28219 | 164° | 11km/h | 32108m | 5.9m/s | -40.7°C | 0.5% | 9.2hPa | 2.5V | 00:00:00 | 00:00:00 | 00:00:00 | |
| DJ2DS-15 | 2026-09-02 01:23:02 | 52.13125 | 6.28219 | 194° | 16km/h | 32096m | 6.4m/s | -40.8°C | 0.5% | 9.2hPa | 2.5V | 00:00:00 | 00:00:00 | 00:00:00 | |
| DL1XH-15 | 2026-09-02 01:23:01 | 52.13138 | 6.28225 | 52° | 11km/h | 32065m | 8.1m/s | -41°C | 2.2% | 9.2hPa | 2.5V | 08:30:00 | 02:06:26 | 00:00:00 | |
| BIOWL1-15 | 2026-09-02 01:22:59 | 52.13134 | 6.28224 | 204° | 18km/h | 32083m | 5.7m/s | -40.8°C | 0% | 9.2hPa | 2.6V | 18:12:15 | 02:06:29 | 00:00:00 | |
| HSKMA3-T | 2026-09-02 01:22:54 | 52.13131 | 6.28210 | 56° | 33km/h | 32050m | 5.9m/s | -40.9°C | 0% | 9.2hPa | 2.5V | 18:12:15 | 02:06:24 | 00:00:00 | |
| DL1XH-west | 2026-09-02 01:22:53 | 52.13127 | 6.28198 | 67° | 35km/h | 32045m | 3.9m/s | -40.9°C | 0% | 9.3hPa | 2.6V | 18:12:15 | 02:06:23 | 00:00:00 | |
| DO2JMG | 2026-09-02 01:22:52 | 52.13125 | 6.28185 | 82° | 31km/h | 32041m | 4.8m/s | -40.9°C | 0% | 9.3hPa | 2.6V | 18:12:15 | 02:06:22 | 00:00:00 | |
| BIOWL1-15 | 2026-09-02 01:22:49 | 52.13146 | 6.28161 | 200° | 20km/h | 32009m | 5.1m/s | -41.1°C | 0% | 9.3hPa | 2.6V | 18:12:15 | 02:06:17 | 00:00:00 | |
| DL1XH-15 | 2026-09-02 01:22:48 | 52.13150 | 6.28164 | 217° | 11km/h | 32003m | 5.8m/s | -41.1°C | 2.2% | 9.3hPa | 2.5V | 08:30:00 | 02:06:16 | 00:00:00 | |
| DL3AQ-11 | 2026-09-02 01:22:48 | 52.13146 | 6.28161 | 200° | 20km/h | 32009m | 5.1m/s | -41.1°C | 0.5% | 9.3hPa | 2.5V | 00:00:00 | 00:00:00 | 00:00:00 | |
| DO9LL-15 | 2026-09-02 01:22:47 | 52.13146 | 6.28161 | 201° | 24km/h | 32009m | 5.0m/s | -41.0°C | 2.2% | 9.3hPa | 2.5V | 00:00:00 | 02:06:17 | 00:00:00 | |
| DO3DL | 2026-09-02 01:22:46 | 52.13146 | 6.28161 | 201° | 20km/h | 32009m | 5.1m/s | -41.1°C | 0.5% | 9.3hPa | 2.5V | 00:00:00 | 00:00:00 | 00:00:00 | |
| DM0DOS-11 | 2026-09-02 01:22:44 | 52.13129 | 6.28096 | 89° | 38km/h | 31959m | 5.5m/s | -41.5°C | 2.3% | 9.4hPa | 2.5V | 08:30:00 | 02:06:09 | 00:00:00 | |
| HSKMA3-T | 2026-09-02 01:22:44 | 52.13147 | 6.28163 | 35° | 18km/h | 31991m | 6.6m/s | -41.3°C | 0% | 9.3hPa | 2.5V | 18:12:15 | 02:06:14 | 00:00:00 | |
| DL1XH-west | 2026-09-02 01:22:43 | 52.13143 | 6.28156 | 47° | 31km/h | 31984m | 6.9m/s | -41.4°C | 0% | 9.3hPa | 2.6V | 18:12:15 | 02:06:13 | 00:00:00 | |
| DO2JMG | 2026-09-02 01:22:41 | 52.13133 | 6.28130 | 69° | 44km/h | 31971m | 6.4m/s | -41.5°C | 0% | 9.4hPa | 2.5V | 18:12:15 | 02:06:11 | 00:00:00 | |
| BIOWL1-15 | 2026-09-02 01:22:38 | 52.13130 | 6.28082 | 99° | 33km/h | 31954m | 5.6m/s | -41.5°C | 0% | 9.4hPa | 2.5V | 18:12:15 | 02:06:08 | 00:00:00 | |
| DO1YAY-16 | 2026-09-02 01:22:36 | 52.13133 | 6.28060 | 107° | 20km/h | 31942m | 6.6m/s | -41.6°C | 0.5% | 9.4hPa | 2.6V | 00:00:00 | 00:00:00 | 00:00:00 | |
| DF5WG-10 | 2026-09-02 01:22:35 | 52.13134 | 6.28053 | 104° | 15km/h | 31935m | 6.7m/s | -41.5°C | 2.3% | 9.4hPa | 2.6V | 00:00:00 | 02:06:05 | 00:00:00 | |
| DM0DOS-11 | 2026-09-02 01:22:34 | 52.13141 | 6.28022 | 114° | 20km/h | 31899m | 5.5m/s | -41.5°C | 2.3% | 9.5hPa | 2.6V | 08:30:00 | 02:05:59 | 00:00:00 | |
| HSKMA3-T | 2026-09-02 01:22:33 | 52.13135 | 6.28044 | 97° | 9km/h | 31922m | 5.5m/s | -41.6°C | 0% | 9.4hPa | 2.5V | 18:12:15 | 02:06:03 | 00:00:00 | |
| DL1XH-west | 2026-09-02 01:22:32 | 52.13135 | 6.28040 | 107° | 11km/h | 31917m | 5.6m/s | -41.6°C | 0% | 9.4hPa | 2.5V | 18:12:15 | 02:06:02 | 00:00:00 | |
| DO2JMG | 2026-09-02 01:22:31 | 52.13137 | 6.28035 | 118° | 15km/h | 31911m | 6.4m/s | -41.6°C | 0% | 9.4hPa | 2.6V | 18:12:15 | 02:06:01 | 00:00:00 | |
| BIOWL1-15 | 2026-09-02 01:22:27 | 52.13141 | 6.27998 | 66° | 22km/h | 31880m | 7.3m/s | -41.4°C | 0% | 9.5hPa | 2.5V | 18:12:15 | 02:05:56 | 00:00:00 | |
| HSKMA3-T | 2026-09-02 01:22:22 | 52.13128 | 6.27958 | 78° | 31km/h | 31857m | 6.8m/s | -41.2°C | 0% | 9.5hPa | 2.6V | 18:12:15 | 02:05:52 | 00:00:00 | |
| DL1XH-west | 2026-09-02 01:22:21 | 52.13128 | 6.27945 | 94° | 31km/h | 31850m | 7.4m/s | -41.2°C | 0% | 9.6hPa | 2.6V | 18:12:15 | 02:05:51 | 00:00:00 | |
| DO2JMG | 2026-09-02 01:22:20 | 52.13129 | 6.27933 | 109° | 31km/h | 31843m | 6.1m/s | -41.2°C | 0% | 9.5hPa | 2.5V | 18:12:15 | 02:05:50 | 00:00:00 | |
| DM0DOS-11 | 2026-09-02 01:22:19 | 52.13132 | 6.27922 | 120° | 27km/h | 31837m | 5.5m/s | -41.2°C | 2.2% | 9.6hPa | 2.5V | 08:30:00 | 02:05:49 | 00:00:00 | |
| BIOWL1-15 | 2026-09-02 01:22:16 | 52.13139 | 6.27907 | 76° | 4km/h | 31818m | 7.2m/s | -41.2°C | 0% | 9.6hPa | 2.5V | 18:12:15 | 02:05:46 | 00:00:00 | |
| HSKMA3-T | 2026-09-02 01:22:12 | 52.13130 | 6.27896 | 64° | 22km/h | 31795m | 7.1m/s | -41.2°C | 0% | 9.6hPa | 2.5V | 18:12:15 | 02:05:42 | 00:00:00 | |
| DL1XH-west | 2026-09-02 01:22:11 | 52.13127 | 6.27885 | 76° | 31km/h | 31788m | 6.8m/s | -41.1°C | 0% | 9.6hPa | 2.5V | 18:12:15 | 02:05:41 | 00:00:00 | |
| AA1-15 | 2026-09-02 01:22:10 | 52.13126 | 6.27872 | 81° | 37km/h | 31781m | 6m/s | -41°C | 0% | 9.6hPa | 2.5V | 18:12:15 | 02:05:40 | 00:00:00 | |
| DM0DOS-11 | 2026-09-02 01:22:09 | 52.13124 | 6.27857 | 83° | 37km/h | 31775m | 6.1m/s | -41°C | 2.2% | 9.6hPa | 2.5V | 08:30:00 | 02:05:39 | 00:00:00 | |
| BIOWL1-15 | 2026-09-02 01:22:06 | 52.13121 | 6.27822 | 80° | 18km/h | 31757m | 5.9m/s | -41.1°C | 0% | 9.7hPa | 2.6V | 18:12:15 | 02:05:36 | 00:00:00 | |
| HSKMA3-T | 2026-09-02 01:22:01 | 52.13125 | 6.27806 | 89° | 9km/h | 31728m | 4.2m/s | -41.2°C | 0% | 9.7hPa | 2.5V | 18:12:15 | 02:05:31 | 00:00:00 | |
| DL1XH-west | 2026-09-02 01:22:00 | 52.13124 | 6.27802 | 54° | 15km/h | 31723m | 5.8m/s | -41.2°C | 0% | 9.7hPa | 2.5V | 18:12:15 | 02:05:30 | 00:00:00 | |
| AA1-15 | 2026-09-02 01:21:59 | 52.13121 | 6.27797 | 43° | 24km/h | 31716m | 7.6m/s | -41.2°C | 0% | 9.7hPa | 2.6V | 18:12:15 | 02:05:29 | 00:00:00 | |
| BIOWL1-15 | 2026-09-02 01:21:56 | 52.13102 | 6.27763 | 57° | 44km/h | 31698m | 4.7m/s | -41.3°C | 0% | 9.7hPa | 2.5V | 18:12:15 | 02:05:26 | 00:00:00 | |
| DL1XH-west | 2026-09-02 01:21:50 | 52.13101 | 6.27708 | 232° | 4km/h | 31665m | 5.3m/s | -41.3°C | 0% | 9.8hPa | 2.6V | 18:12:15 | 02:05:20 | 00:00:00 | |
| DM0DOS-11 | 2026-09-02 01:21:49 | 52.13100 | 6.27709 | 334° | 11km/h | 31660m | 5.2m/s | -41.4°C | 2.2% | 9.8hPa | 2.6V | 08:30:00 | 02:05:19 | 00:00:00 | |
| AA1-15 | 2026-09-02 01:21:48 | 52.13097 | 6.27710 | 3° | 22km/h | 31655m | 5.2m/s | -41.4°C | 0% | 9.8hPa | 2.5V | 18:12:15 | 02:05:18 | 00:00:00 | |
| DD1CC8 | 2026-09-02 01:21:46 | 52.13083 | 6.27700 | 37° | 38km/h | 31644m | 5.6m/s | -41.4°C | 0.5% | 9.8hPa | 2.6V | 00:00:00 | 00:00:00 | 00:00:00 | |
| BIOWL1-15 | 2026-09-02 01:21:45 | 52.13067 | 6.27654 | 84° | 46km/h | 31626m | 5.5m/s | -41.5°C | 0% | 9.9hPa | 2.6V | 18:12:15 | 02:05:13 | 00:00:00 | |
| DF5WG-10 | 2026-09-02 01:21:45 | 52.13075 | 6.27688 | 53° | 31km/h | 31638m | 6.0m/s | -41.4°C | 2.2% | 9.8hPa | 2.5V | 00:00:00 | 02:05:15 | 00:00:00 | |
| DC6BW-12 | 2026-09-02 01:21:42 | 52.13067 | 6.27653 | 85° | 46km/h | 31627m | 5.5m/s | -41.5°C | 0.5% | 9.9hPa | 2.5V | 00:00:00 | 00:00:00 | 00:00:00 | |
| DL1XH-15 | 2026-09-02 01:21:40 | 52.13063 | 6.27618 | 350° | 26km/h | 31586m | 4.2m/s | -41.6°C | 2.3% | 9.9hPa | 2.5V | 08:30:00 | 02:05:06 | 00:00:00 | |
| DL1XH-west | 2026-09-02 01:21:40 | 52.13071 | 6.27615 | 120° | 16km/h | 31611m | 6m/s | -41.5°C | 0% | 9.9hPa | 2.5V | 18:12:15 | 02:05:10 | 00:00:00 | |
| DM0DOS-11 | 2026-09-02 01:21:39 | 52.13073 | 6.27611 | 130° | 4km/h | 31604m | 7m/s | -41.5°C | 2.3% | 9.9hPa | 2.5V | 08:30:00 | 02:05:09 | 00:00:00 | |
| HSKMA3-T | 2026-09-02 01:21:39 | 52.13073 | 6.27611 | 131° | 4km/h | 31604m | 7m/s | -41.5°C | 0% | 9.9hPa | 2.5V | 18:12:15 | 02:05:09 | 00:00:00 | |
| AA1-15 | 2026-09-02 01:21:37 | 52.13069 | 6.27615 | 332° | 20km/h | 31591m | 5.6m/s | -41.6°C | 0% | 9.9hPa | 2.5V | 18:12:15 | 02:05:07 | 00:00:00 | |
| BIOWL1-15 | 2026-09-02 01:21:35 | 52.13057 | 6.27617 | 13° | 27km/h | 31582m | 4.5m/s | -41.6°C | 0% | 9.9hPa | 2.6V | 18:12:15 | 02:05:05 | 00:00:00 | |
| DF5WG-10 | 2026-09-02 01:21:35 | 52.13057 | 6.27617 | 13° | 26km/h | 31582m | 4.5m/s | -41.5°C | 2.3% | 9.9hPa | 2.6V | 00:00:00 | 02:05:05 | 00:00:00 | |
| DO1YAY-16 | 2026-09-02 01:21:34 | 52.13046 | 6.27604 | 60° | 31km/h | 31571m | 6.2m/s | -41.7°C | 0.5% | 9.9hPa | 2.6V | 00:00:00 | 00:00:00 | 00:00:00 | |
| AU51GT2 | 2026-09-02 01:21:31 | 52.13043 | 6.27576 | 93° | 37km/h | 31559m | 5.9m/s | -41.7°C | 0.5% | 9.9hPa | 2.6V | 00:00:00 | 00:00:00 | 00:00:00 | |
| DL1XH-15 | 2026-09-02 01:21:30 | 52.13044 | 6.27535 | 16° | 15km/h | 31531m | 6.3m/s | -41.6°C | 2.3% | 10hPa | 2.6V | 08:30:00 | 02:04:56 | 00:00:00 | |
| DL1XH-west | 2026-09-02 01:21:30 | 52.13044 | 6.27562 | 103° | 33km/h | 31554m | 5.2m/s | -41.7°C | 0% | 9.9hPa | 2.5V | 18:12:15 | 02:05:00 | 00:00:00 | |
| DO2JMG | 2026-09-02 01:21:29 | 52.13046 | 6.27550 | 105° | 26km/h | 31548m | 5.2m/s | -41.7°C | 0% | 10hPa | 2.5V | 18:12:15 | 02:04:59 | 00:00:00 | |
| HSKMA3-T | 2026-09-02 01:21:28 | 52.13047 | 6.27542 | 96° | 16km/h | 31543m | 5.7m/s | -41.7°C | 0% | 10hPa | 2.5V | 18:12:15 | 02:04:58 | 00:00:00 | |
| AA1-15 | 2026-09-02 01:21:26 | 52.13044 | 6.27535 | 17° | 15km/h | 31531m | 6.3m/s | -41.6°C | 0% | 10hPa | 2.6V | 18:12:15 | 02:04:56 | 00:00:00 | |
| BIOWL1-15 | 2026-09-02 01:21:26 | 52.13034 | 6.27530 | 18° | 26km/h | 31519m | 5.9m/s | -41.5°C | 0% | 10hPa | 2.5V | 18:12:15 | 02:04:54 | 00:00:00 | |
| DK5PH-5 | 2026-09-02 01:21:25 | 52.13039 | 6.27533 | 14° | 24km/h | 31525m | 6.2m/s | -41.5°C | 2.3% | 10.0hPa | 2.5V | 00:00:00 | 02:04:55 | 00:00:00 | |
| DL8DAS-14 | 2026-09-02 01:21:24 | 52.13034 | 6.27530 | 17° | 24km/h | 31519m | 5.9m/s | -41.5°C | 0.5% | 10.0hPa | 2.5V | 00:00:00 | 00:00:00 | 00:00:00 | |
| BIOWL7-15 | 2026-09-02 01:21:23 | 52.13034 | 6.27530 | 19° | 26km/h | 31519m | 5.9m/s | -41.5°C | 0.5% | 10.0hPa | 2.5V | 00:00:00 | 00:00:00 | 00:00:00 | |
| DL4BBY-15 | 2026-09-02 01:21:22 | 52.13023 | 6.27521 | 39° | 16km/h | 31507m | 5.4m/s | -41.9°C | 0% | 0hPa | 2.5V | 00:00:00 | 00:00:00 | 00:00:00 | |
| DC6BW-12 | 2026-09-02 01:21:21 | 52.13023 | 6.27521 | 40° | 22km/h | 31508m | 5.5m/s | -41.4°C | 0.5% | 10.0hPa | 2.5V | 00:00:00 | 00:00:00 | 00:00:00 | |
| DL1XH-15 | 2026-09-02 01:21:20 | 52.13014 | 6.27480 | 68° | 24km/h | 31474m | 6.3m/s | -41.4°C | 2.3% | 10.1hPa | 2.5V | 08:30:00 | 02:04:46 | 00:00:00 | |
| DM0DOS-11 | 2026-09-02 01:21:19 | 52.13017 | 6.27503 | 84° | 16km/h | 31490m | 5.5m/s | -41.4°C | 2.2% | 10.1hPa | 2.6V | 08:30:00 | 02:04:49 | 00:00:00 | |
| DL1XH-west | 2026-09-02 01:21:19 | 52.13017 | 6.27503 | 84° | 16km/h | 31490m | 5.5m/s | -41.4°C | 0% | 10.1hPa | 2.6V | 18:12:15 | 02:04:49 | 00:00:00 | |
| HSKMA3-T | 2026-09-02 01:21:18 | 52.13016 | 6.27496 | 85° | 18km/h | 31485m | 5.1m/s | -41.4°C | 0% | 10.1hPa | 2.6V | 18:12:15 | 02:04:48 | 00:00:00 | |
| AA1-15 | 2026-09-02 01:21:15 | 52.13011 | 6.27471 | 62° | 27km/h | 31468m | 5.9m/s | -41.4°C | 0% | 10.1hPa | 2.5V | 18:12:15 | 02:04:45 | 00:00:00 | |
| BIOWL1-15 | 2026-09-02 01:21:13 | 52.13005 | 6.27451 | 66° | 27km/h | 31457m | 4.7m/s | -41.5°C | 0% | 10.1hPa | 2.5V | 18:12:15 | 02:04:43 | 00:00:00 | |
| DL1XH-west | 2026-09-02 01:21:10 | 52.13003 | 6.27422 | 95° | 7km/h | 31435m | 4.8m/s | -41.4°C | 0% | 10.2hPa | 2.5V | 18:12:15 | 02:04:39 | 00:00:00 | |
| HSKMA3-T | 2026-09-02 01:21:08 | 52.13002 | 6.27420 | 49° | 5km/h | 31429m | 6.7m/s | -41.4°C | 0% | 10.1hPa | 2.5V | 18:12:15 | 02:04:38 | 00:00:00 | |
| AA1-15 | 2026-09-02 01:21:04 | 52.12993 | 6.27417 | 41° | 9km/h | 31406m | 6.4m/s | -41.5°C | 0% | 10.2hPa | 2.5V | 18:12:15 | 02:04:34 | 00:00:00 | |
| BIOWL1-15 | 2026-09-02 01:21:02 | 52.12992 | 6.27401 | 92° | 18km/h | 31390m | 4.7m/s | -41.5°C | 0% | 10.2hPa | 2.6V | 18:12:15 | 02:04:31 | 00:00:00 | |
| DC6BW-12 | 2026-09-02 01:21:01 | 52.12992 | 6.27408 | 94° | 15km/h | 31395m | 4.7m/s | -41.5°C | 0.5% | 10.2hPa | 2.6V | 00:00:00 | 00:00:00 | 00:00:00 | |
| AU51GT2 | 2026-09-02 01:21:00 | 52.12992 | 6.27393 | 82° | 20km/h | 31385m | 5.4m/s | -41.5°C | 0.5% | 10.2hPa | 2.6V | 00:00:00 | 00:00:00 | 00:00:00 | |
| DL3AQ-11 | 2026-09-02 01:20:59 | 52.12988 | 6.27377 | 57° | 24km/h | 31373m | 5.6m/s | -41.5°C | 0.5% | 10.2hPa | 2.6V | 00:00:00 | 00:00:00 | 00:00:00 | |
| DL1XH-15 | 2026-09-02 01:20:58 | 52.12981 | 6.27363 | 49° | 16km/h | 31364m | 4.2m/s | -41.5°C | 2.2% | 10.2hPa | 2.6V | 08:30:00 | 02:04:26 | 00:00:00 | |
| DL1XH-west | 2026-09-02 01:20:58 | 52.12988 | 6.27377 | 58° | 24km/h | 31373m | 5.6m/s | -41.5°C | 0% | 10.2hPa | 2.5V | 18:12:15 | 02:04:28 | 00:00:00 | |
| HSKMA3-T | 2026-09-02 01:20:57 | 52.12985 | 6.27369 | 50° | 22km/h | 31368m | 4.6m/s | -41.5°C | 0% | 10.3hPa | 2.5V | 18:12:15 | 02:04:27 | 00:00:00 | |
| AA1-15 | 2026-09-02 01:20:53 | 52.12981 | 6.27353 | 174° | 11km/h | 31347m | 6.3m/s | -41.5°C | 0% | 10.3hPa | 2.5V | 18:12:15 | 02:04:23 | 00:00:00 | |
| BIOWL1-15 | 2026-09-02 01:20:52 | 52.12989 | 6.27358 | 229° | 9km/h | 31331m | 5.3m/s | -41.5°C | 0% | 10.3hPa | 2.6V | 18:12:15 | 02:04:20 | 00:00:00 | |
| DL4BBY-15 | 2026-09-02 01:20:52 | 52.12984 | 6.27354 | 193° | 13km/h | 31341m | 5.0m/s | -41.9°C | 0% | 0hPa | 2.5V | 00:00:00 | 00:00:00 | 00:00:00 | |
| DJ3KS | 2026-09-02 01:20:50 | 52.12989 | 6.27358 | 230° | 9km/h | 31332m | 5.3m/s | -41.5°C | 0.5% | 10.3hPa | 2.5V | 00:00:00 | 00:00:00 | 00:00:00 | |
| DD1CC1-15 | 2026-09-02 01:20:49 | 52.12989 | 6.27358 | 230° | 9km/h | 31332m | 5.3m/s | -41.5°C | 0.5% | 10.3hPa | 2.5V | 00:00:00 | 00:00:00 | 00:00:00 | |
| DL1XH-15 | 2026-09-02 01:20:48 | 52.12983 | 6.27359 | 50° | 16km/h | 31310m | 4.6m/s | -41.6°C | 2.3% | 10.3hPa | 2.5V | 08:30:00 | 02:04:16 | 00:00:00 | |
| DL1XH-west | 2026-09-02 01:20:47 | 52.12985 | 6.27362 | 22° | 13km/h | 31315m | 4.5m/s | -41.5°C | 0% | 10.3hPa | 2.5V | 18:12:15 | 02:04:17 | 00:00:00 | |
| DO2JMG | 2026-09-02 01:20:46 | 52.12983 | 6.27359 | 51° | 16km/h | 31310m | 4.6m/s | -41.6°C | 0% | 10.3hPa | 2.5V | 18:12:15 | 02:04:16 | 00:00:00 | |
| BUE01 | 2026-09-02 01:20:44 | 52.12980 | 6.27343 | 94° | 24km/h | 31298m | 6.3m/s | -41.5°C | 0.5% | 10.3hPa | 2.5V | 00:00:00 | 00:00:00 | 00:00:00 | |
| AA1-15 | 2026-09-02 01:20:43 | 52.12981 | 6.27333 | 106° | 26km/h | 31292m | 4.6m/s | -41.5°C | 0% | 10.4hPa | 2.5V | 18:12:15 | 02:04:13 | 00:00:00 | |
| BIOWL1-15 | 2026-09-02 01:20:42 | 52.12983 | 6.27324 | 112° | 24km/h | 31288m | 3.8m/s | -41.5°C | 0% | 10.4hPa | 2.5V | 18:12:15 | 02:04:12 | 00:00:00 | |
| DC6BW-12 | 2026-09-02 01:20:40 | 52.12985 | 6.27316 | 112° | 16km/h | 31283m | 6.0m/s | -41.6°C | 0.5% | 10.4hPa | 2.5V | 00:00:00 | 00:00:00 | 00:00:00 | |
| DD1CC3-15 | 2026-09-02 01:20:39 | 52.12986 | 6.27312 | 108° | 7km/h | 31278m | 5.9m/s | -41.6°C | 0.5% | 10.4hPa | 2.5V | 00:00:00 | 00:00:00 | 00:00:00 | |
| DL1XH-15 | 2026-09-02 01:20:38 | 52.12987 | 6.27316 | 242° | 5km/h | 31254m | 5.7m/s | -41.7°C | 2.3% | 10.4hPa | 2.5V | 08:30:00 | 02:04:06 | 00:00:00 | |
| DM0DOS-11 | 2026-09-02 01:20:38 | 52.12986 | 6.27311 | 281° | 5km/h | 31266m | 5m/s | -41.6°C | 2.3% | 10.4hPa | 2.5V | 08:30:00 | 02:04:08 | 00:00:00 | |
| DL1XH-west | 2026-09-02 01:20:36 | 52.12987 | 6.27316 | 243° | 5km/h | 31254m | 5.7m/s | -41.7°C | 0% | 10.4hPa | 2.5V | 18:12:15 | 02:04:06 | 00:00:00 | |
| DO2JMG | 2026-09-02 01:20:35 | 52.12987 | 6.27318 | 209° | 4km/h | 31249m | 4.9m/s | -41.7°C | 0% | 10.4hPa | 2.5V | 18:12:15 | 02:04:05 | 00:00:00 | |
| DF5WG-10 | 2026-09-02 01:20:35 | 52.12987 | 6.27318 | 209° | 16km/h | 31250m | 4.9m/s | -41.7°C | 2.3% | 10.4hPa | 2.6V | 00:00:00 | 02:04:05 | 00:00:00 | |
| SMARD9-10 | 2026-09-02 01:20:34 | 52.12988 | 6.27318 | 210° | 4km/h | 31250m | 4.9m/s | 0°C | 0% | 0hPa | 2.6V | 00:00:00 | 00:00:00 | 00:00:00 | |
| DM0DOS-11 | 2026-09-02 01:20:33 | 52.12983 | 6.27276 | 104° | 26km/h | 31211m | 5.7m/s | -41.9°C | 2.3% | 10.5hPa | 2.6V | 08:30:00 | 02:03:58 | 00:00:00 | |
| BIOWL1-15 | 2026-09-02 01:20:32 | 52.12986 | 6.27311 | 60° | 15km/h | 31233m | 6.3m/s | -41.8°C | 0% | 10.5hPa | 2.5V | 18:12:15 | 02:04:02 | 00:00:00 | |
| DL1XH-west | 2026-09-02 01:20:26 | 52.12987 | 6.27261 | 121° | 15km/h | 31201m | 4.2m/s | -42°C | 0% | 10.5hPa | 2.5V | 18:12:15 | 02:03:56 | 00:00:00 | |
| HSKMA3-T | 2026-09-02 01:20:25 | 52.12988 | 6.27257 | 115° | 7km/h | 31196m | 6.1m/s | -42°C | 0% | 10.5hPa | 2.5V | 18:12:15 | 02:03:55 | 00:00:00 | |
| DF5WG-10 | 2026-09-02 01:20:25 | 52.12988 | 6.27257 | 115° | 11km/h | 31197m | 6.0m/s | -42.0°C | 2.3% | 10.5hPa | 2.6V | 00:00:00 | 02:03:55 | 00:00:00 | |
| DO2KSM | 2026-09-02 01:20:24 | 52.12988 | 6.27257 | 115° | 7km/h | 31197m | 6.1m/s | -42.0°C | 0.5% | 10.5hPa | 2.6V | 00:00:00 | 00:00:00 | 00:00:00 | |
| DM0DOS-11 | 2026-09-02 01:20:23 | 52.12976 | 6.27259 | 76° | 11km/h | 31158m | 4.7m/s | -42.2°C | 2.3% | 10.6hPa | 2.6V | 08:30:00 | 02:03:48 | 00:00:00 | |
| BIOWL1-15 | 2026-09-02 01:20:21 | 52.12980 | 6.27262 | 337° | 13km/h | 31174m | 5.4m/s | -42.2°C | 0% | 10.6hPa | 2.5V | 18:12:15 | 02:03:51 | 00:00:00 | |
| DL1XH-west | 2026-09-02 01:20:15 | 52.12971 | 6.27241 | 52° | 20km/h | 31143m | 6.1m/s | -42.2°C | 0% | 10.6hPa | 2.5V | 18:12:15 | 02:03:45 | 00:00:00 | |
| DO2JMG | 2026-09-02 01:20:14 | 52.12968 | 6.27235 | 45° | 20km/h | 31137m | 4.9m/s | -42.2°C | 0% | 10.6hPa | 2.5V | 18:12:15 | 02:03:44 | 00:00:00 | |
| DM0DOS-11 | 2026-09-02 01:20:13 | 52.12959 | 6.27217 | 21° | 5km/h | 31106m | 4.9m/s | -42.6°C | 2.3% | 10.6hPa | 2.5V | 08:30:00 | 02:03:38 | 00:00:00 | |
| BIOWL1-15 | 2026-09-02 01:20:10 | 52.12960 | 6.27219 | 84° | 4km/h | 31116m | 5.2m/s | -42.5°C | 0% | 10.7hPa | 2.5V | 18:12:15 | 02:03:40 | 00:00:00 | |
| DL1XH-15 | 2026-09-02 01:20:08 | 52.12953 | 6.27213 | 24° | 20km/h | 31094m | 5.5m/s | -42.6°C | 2.3% | 10.7hPa | 2.6V | 08:30:00 | 02:03:36 | 00:00:00 | |
| DL1XH-west | 2026-09-02 01:20:04 | 52.12943 | 6.27201 | 48° | 29km/h | 31085m | 4.7m/s | -42.7°C | 0% | 10.7hPa | 2.5V | 18:12:15 | 02:03:34 | 00:00:00 | |
| DO2JMG | 2026-09-02 01:20:03 | 52.12939 | 6.27191 | 61° | 29km/h | 31079m | 6.3m/s | -42.8°C | 0% | 10.7hPa | 2.5V | 18:12:15 | 02:03:33 | 00:00:00 | |
| DO3DL | 2026-09-02 01:20:02 | 52.12939 | 6.27191 | 62° | 29km/h | 31080m | 6.3m/s | -42.8°C | 0.5% | 10.7hPa | 2.5V | 00:00:00 | 00:00:00 | 00:00:00 | |
| DM0DOS-11 | 2026-09-02 01:20:01 | 52.12930 | 6.27137 | 58° | 22km/h | 31052m | 6.3m/s | -43.1°C | 2.4% | 10.7hPa | 2.5V | 08:30:00 | 02:03:28 | 00:00:00 | |
| BIOWL1-15 | 2026-09-02 01:20:00 | 52.12933 | 6.27156 | 83° | 29km/h | 31063m | 4.2m/s | -43°C | 0% | 10.7hPa | 2.5V | 18:12:15 | 02:03:30 | 00:00:00 | |
| AA1-15 | 2026-09-02 01:19:59 | 52.12932 | 6.27146 | 75° | 26km/h | 31058m | 5.3m/s | -43°C | 0% | 10.7hPa | 2.5V | 18:12:15 | 02:03:29 | 00:00:00 | |
| DL1XH-15 | 2026-09-02 01:19:58 | 52.12922 | 6.27127 | 18° | 18km/h | 31041m | 5.2m/s | -43.2°C | 2.4% | 10.8hPa | 2.5V | 08:30:00 | 02:03:26 | 00:00:00 | |
| HSKMA3-T | 2026-09-02 01:19:54 | 52.12914 | 6.27125 | 6° | 13km/h | 31030m | 5.8m/s | -43.2°C | 0% | 10.8hPa | 2.6V | 18:12:15 | 02:03:24 | 00:00:00 | |
| DL1XH-west | 2026-09-02 01:19:53 | 52.12912 | 6.27123 | 33° | 9km/h | 31025m | 5.2m/s | -43.3°C | 0% | 10.8hPa | 2.6V | 18:12:15 | 02:03:23 | 00:00:00 | |
| BIOWL1-15 | 2026-09-02 01:19:49 | 52.12881 | 6.27060 | 33° | 35km/h | 30991m | 3.8m/s | -43.5°C | 0% | 10.8hPa | 2.5V | 18:12:15 | 02:03:16 | 00:00:00 | |
| DL1XH-15 | 2026-09-02 01:19:48 | 52.12881 | 6.27060 | 32° | 35km/h | 30991m | 3.8m/s | -43.5°C | 2.5% | 10.8hPa | 2.5V | 08:30:00 | 02:03:16 | 00:00:00 | |
| AA1-15 | 2026-09-02 01:19:48 | 52.12896 | 6.27081 | 48° | 40km/h | 30999m | 5.3m/s | -43.4°C | 0% | 10.8hPa | 2.6V | 18:12:15 | 02:03:18 | 00:00:00 | |
| EDDB2-12 | 2026-09-02 01:19:45 | 52.12875 | 6.27054 | 24° | 24km/h | 30987m | 4.9m/s | -43.6°C | 0.6% | 10.9hPa | 2.6V | 00:00:00 | 00:00:00 | 00:00:00 | |
| DL1XH-west | 2026-09-02 01:19:43 | 52.12868 | 6.27052 | 322° | 5km/h | 30974m | 6.4m/s | -43.7°C | 0% | 10.9hPa | 2.6V | 18:12:15 | 02:03:13 | 00:00:00 | |
| BUE01 | 2026-09-02 01:19:42 | 52.12868 | 6.27053 | 220° | 4km/h | 30969m | 4.4m/s | -43.7°C | 0.6% | 10.9hPa | 2.6V | 00:00:00 | 00:00:00 | 00:00:00 | |
| DD1CC8 | 2026-09-02 01:19:41 | 52.12869 | 6.27053 | 155° | 5km/h | 30965m | 3.1m/s | -43.8°C | 0.6% | 10.9hPa | 2.6V | 00:00:00 | 00:00:00 | 00:00:00 | |
| DC6BW-12 | 2026-09-02 01:19:40 | 52.12869 | 6.27053 | 156° | 5km/h | 30965m | 3.1m/s | -43.8°C | 0.6% | 10.9hPa | 2.6V | 00:00:00 | 00:00:00 | 00:00:00 | |
| DL3AQ-11 | 2026-09-02 01:19:39 | 52.12866 | 6.27035 | 58° | 31km/h | 30949m | 6.1m/s | -43.8°C | 0.6% | 10.9hPa | 2.6V | 00:00:00 | 00:00:00 | 00:00:00 | |
| DL1XH-15 | 2026-09-02 01:19:38 | 52.12852 | 6.27012 | 36° | 46km/h | 30939m | 3.6m/s | -43.8°C | 2.5% | 10.9hPa | 2.6V | 08:30:00 | 02:03:06 | 00:00:00 | |
| AA1-15 | 2026-09-02 01:19:37 | 52.12861 | 6.27024 | 48° | 42km/h | 30943m | 5.1m/s | -43.8°C | 0% | 10.9hPa | 2.5V | 18:12:15 | 02:03:07 | 00:00:00 | |
| BIOWL1-15 | 2026-09-02 01:19:36 | 52.12853 | 6.27012 | 37° | 46km/h | 30939m | 3.7m/s | -43.8°C | 0% | 10.9hPa | 2.6V | 18:12:15 | 02:03:06 | 00:00:00 | |
| DL1XH-west | 2026-09-02 01:19:33 | 52.12827 | 6.26997 | 351° | 26km/h | 30926m | 5.4m/s | -43.8°C | 0% | 10.9hPa | 2.5V | 18:12:15 | 02:03:03 | 00:00:00 | |
| HSKMA3-T | 2026-09-02 01:19:32 | 52.12822 | 6.27000 | 318° | 18km/h | 30921m | 6.1m/s | -43.8°C | 0% | 11hPa | 2.5V | 18:12:15 | 02:03:02 | 00:00:00 | |
| DM0DOS-11 | 2026-09-02 01:19:30 | 52.12825 | 6.27012 | 124° | 9km/h | 30898m | 4m/s | -43.9°C | 2.5% | 11hPa | 2.6V | 08:30:00 | 02:02:58 | 00:00:00 | |
| DD1CC2-15 | 2026-09-02 01:19:29 | 52.12820 | 6.27011 | 237° | 13km/h | 30909m | 5.5m/s | -43.9°C | 0.6% | 11.0hPa | 2.5V | 00:00:00 | 00:00:00 | 00:00:00 | |
| DL1XH-15 | 2026-09-02 01:19:28 | 52.12823 | 6.27001 | 51° | 22km/h | 30889m | 5.8m/s | -44°C | 2.5% | 11hPa | 2.5V | 08:30:00 | 02:02:56 | 00:00:00 | |
| AA1-15 | 2026-09-02 01:19:26 | 52.12823 | 6.27001 | 52° | 22km/h | 30889m | 5.8m/s | -44°C | 0% | 11hPa | 2.5V | 18:12:15 | 02:02:56 | 00:00:00 | |
| DL1XH-west | 2026-09-02 01:19:22 | 52.12794 | 6.26981 | 10° | 37km/h | 30866m | 4.1m/s | -44°C | 0% | 11.1hPa | 2.5V | 18:12:15 | 02:02:52 | 00:00:00 | |
| DM0DOS-11 | 2026-09-02 01:19:20 | 52.12773 | 6.26971 | 74° | 4km/h | 30844m | 5.7m/s | -44.1°C | 2.6% | 11.1hPa | 2.5V | 08:30:00 | 02:02:48 | 00:00:00 | |
| HSKMA3-T | 2026-09-02 01:19:17 | 52.12774 | 6.26971 | 182° | 5km/h | 30839m | 5.1m/s | -44.1°C | 0% | 11.1hPa | 2.6V | 18:12:15 | 02:02:47 | 00:00:00 | |
| BIOWL1-15 | 2026-09-02 01:19:15 | 52.12777 | 6.26975 | 243° | 11km/h | 30828m | 6.3m/s | -44.1°C | 0% | 11.1hPa | 2.6V | 18:12:15 | 02:02:45 | 00:00:00 | |
| DL1XH-west | 2026-09-02 01:19:11 | 52.12767 | 6.26990 | 4° | 22km/h | 30806m | 5.4m/s | -44.2°C | 0% | 11.1hPa | 2.5V | 18:12:15 | 02:02:41 | 00:00:00 | |
| DM0DOS-11 | 2026-09-02 01:19:10 | 52.12751 | 6.26973 | 49° | 29km/h | 30787m | 4.3m/s | -44.3°C | 2.6% | 11.2hPa | 2.5V | 08:30:00 | 02:02:38 | 00:00:00 | |
| DD1CC2-15 | 2026-09-02 01:19:09 | 52.12761 | 6.26987 | 25° | 26km/h | 30800m | 7.3m/s | -44.2°C | 0.6% | 11.2hPa | 2.5V | 00:00:00 | 00:00:00 | 00:00:00 | |
| DL1XH-15 | 2026-09-02 01:19:08 | 52.12743 | 6.26960 | 34° | 15km/h | 30778m | 5.2m/s | -44.4°C | 2.6% | 11.2hPa | 2.5V | 08:30:00 | 02:02:36 | 00:00:00 | |
| HSKMA3-T | 2026-09-02 01:19:07 | 52.12746 | 6.26965 | 49° | 22km/h | 30783m | 4m/s | -44.3°C | 0% | 11.2hPa | 2.5V | 18:12:15 | 02:02:37 | 00:00:00 | |
| BIOWL1-15 | 2026-09-02 01:19:04 | 52.12738 | 6.26963 | 302° | 18km/h | 30766m | 6.5m/s | -44.4°C | 0% | 11.2hPa | 2.6V | 18:12:15 | 02:02:34 | 00:00:00 | |
| DO2JMG | 2026-09-02 01:19:01 | 52.12732 | 6.26990 | 284° | 22km/h | 30748m | 5.9m/s | -44.3°C | 0% | 11.3hPa | 2.5V | 18:12:15 | 02:02:31 | 00:00:00 | |
| DL1XH-west | 2026-09-02 01:19:00 | 52.12730 | 6.26996 | 287° | 13km/h | 30742m | 5.8m/s | -44.2°C | 0% | 11.2hPa | 2.5V | 18:12:15 | 02:02:30 | 00:00:00 | |
| DM0DOS-11 | 2026-09-02 01:19:00 | 52.12728 | 6.27001 | 7° | 7km/h | 30731m | 6.1m/s | -44.2°C | 2.6% | 11.3hPa | 2.6V | 08:30:00 | 02:02:28 | 00:00:00 | |
| HSKMA3-T | 2026-09-02 01:18:57 | 52.12726 | 6.27000 | 22° | 9km/h | 30724m | 6.7m/s | -44.2°C | 0% | 11.3hPa | 2.5V | 18:12:15 | 02:02:27 | 00:00:00 | |
| AA1-15 | 2026-09-02 01:18:53 | 52.12717 | 6.26991 | 64° | 7km/h | 30701m | 6.1m/s | -44.2°C | 0% | 11.3hPa | 2.6V | 18:12:15 | 02:02:23 | 00:00:00 | |
| DO2JMG | 2026-09-02 01:18:51 | 52.12718 | 6.26986 | 159° | 5km/h | 30688m | 5.5m/s | -44.2°C | 0% | 11.4hPa | 2.5V | 18:12:15 | 02:02:21 | 00:00:00 | |
| DL1XH-west | 2026-09-02 01:18:49 | 52.12721 | 6.26990 | 250° | 13km/h | 30678m | 6m/s | -44.2°C | 0% | 11.4hPa | 2.5V | 18:12:15 | 02:02:19 | 00:00:00 | |
| HSKMA3-T | 2026-09-02 01:18:46 | 52.12718 | 6.27013 | 301° | 22km/h | 30660m | 4.6m/s | -44.3°C | 0% | 11.4hPa | 2.5V | 18:12:15 | 02:02:16 | 00:00:00 | |
| AA1-15 | 2026-09-02 01:18:43 | 52.12709 | 6.27017 | 53° | 16km/h | 30642m | 6.4m/s | -44.3°C | 0% | 11.4hPa | 2.6V | 18:12:15 | 02:02:13 | 00:00:00 | |
| DO2JMG | 2026-09-02 01:18:40 | 52.12707 | 6.26995 | 100° | 16km/h | 30624m | 6.3m/s | -44.2°C | 0% | 11.5hPa | 2.5V | 18:12:15 | 02:02:10 | 00:00:00 | |
| DM0DOS-11 | 2026-09-02 01:18:40 | 52.12711 | 6.26989 | 181° | 11km/h | 30611m | 6.1m/s | -44.2°C | 2.5% | 11.5hPa | 2.5V | 08:30:00 | 02:02:08 | 00:00:00 | |
| DL1XH-west | 2026-09-02 01:18:39 | 52.12708 | 6.26990 | 131° | 11km/h | 30617m | 6m/s | -44.2°C | 0% | 11.5hPa | 2.5V | 18:12:15 | 02:02:09 | 00:00:00 | |
| DL1XH-15 | 2026-09-02 01:18:38 | 52.12717 | 6.26993 | 210° | 18km/h | 30599m | 5.3m/s | -44.2°C | 2.6% | 11.5hPa | 2.6V | 08:30:00 | 02:02:06 | 00:00:00 | |
| HSKMA3-T | 2026-09-02 01:18:36 | 52.12717 | 6.26993 | 210° | 18km/h | 30600m | 5.3m/s | -44.2°C | 0% | 11.5hPa | 2.6V | 18:12:15 | 02:02:06 | 00:00:00 | |
| AA1-15 | 2026-09-02 01:18:32 | 52.12731 | 6.26998 | 149° | 11km/h | 30575m | 5.5m/s | -44.2°C | 0% | 11.6hPa | 2.5V | 18:12:15 | 02:02:02 | 00:00:00 | |
| BIOWL1-15 | 2026-09-02 01:18:31 | 52.12733 | 6.26991 | 32° | 4km/h | 30557m | 6.9m/s | -44.3°C | 0% | 11.6hPa | 2.6V | 18:12:15 | 02:01:59 | 00:00:00 | |
| DO2JMG | 2026-09-02 01:18:30 | 52.12734 | 6.26993 | 95° | 5km/h | 30564m | 7.3m/s | -44.3°C | 0% | 11.6hPa | 2.5V | 18:12:15 | 02:02:00 | 00:00:00 | |
| DM0DOS-11 | 2026-09-02 01:18:30 | 52.12732 | 6.26990 | 9° | 5km/h | 30550m | 5.3m/s | -44.2°C | 2.5% | 11.6hPa | 2.6V | 08:30:00 | 02:01:58 | 00:00:00 | |
| DL1XH-west | 2026-09-02 01:18:29 | 52.12732 | 6.26990 | 10° | 5km/h | 30550m | 5.3m/s | -44.3°C | 0% | 11.6hPa | 2.6V | 18:12:15 | 02:01:58 | 00:00:00 | |
| HSKMA3-T | 2026-09-02 01:18:26 | 52.12730 | 6.26988 | 77° | 7km/h | 30539m | 7.1m/s | -44.3°C | 0% | 11.6hPa | 2.5V | 18:12:15 | 02:01:56 | 00:00:00 | |
| BIOWL1-15 | 2026-09-02 01:18:21 | 52.12744 | 6.26968 | 172° | 16km/h | 30507m | 6.7m/s | -44.5°C | 0% | 11.7hPa | 2.5V | 18:12:15 | 02:01:51 | 00:00:00 | |
| DM0DOS-11 | 2026-09-02 01:18:20 | 52.12754 | 6.26966 | 153° | 13km/h | 30491m | 6.5m/s | -44.5°C | 2.6% | 11.7hPa | 2.6V | 08:30:00 | 02:01:48 | 00:00:00 | |
| DO2JMG | 2026-09-02 01:18:19 | 52.12751 | 6.26967 | 175° | 15km/h | 30497m | 4.7m/s | -44.6°C | 0% | 11.7hPa | 2.5V | 18:12:15 | 02:01:49 | 00:00:00 | |
| DL1XH-west | 2026-09-02 01:18:18 | 52.12757 | 6.26962 | 128° | 15km/h | 30485m | 6.6m/s | -44.6°C | 0% | 11.7hPa | 2.6V | 18:12:15 | 02:01:47 | 00:00:00 | |
| DL1XH-15 | 2026-09-02 01:18:18 | 52.12759 | 6.26957 | 112° | 16km/h | 30478m | 5.5m/s | -44.6°C | 2.6% | 11.7hPa | 2.5V | 08:30:00 | 02:01:46 | 00:00:00 | |
| HSKMA3-T | 2026-09-02 01:18:16 | 52.12759 | 6.26957 | 112° | 16km/h | 30478m | 5.6m/s | -44.6°C | 0% | 11.7hPa | 2.5V | 18:12:15 | 02:01:46 | 00:00:00 | |
| BIOWL1-15 | 2026-09-02 01:18:13 | 52.12759 | 6.26936 | 22° | 4km/h | 30448m | 5.6m/s | -44.7°C | 0% | 11.8hPa | 2.5V | 18:12:15 | 02:01:41 | 00:00:00 | |
| AA1-15 | 2026-09-02 01:18:10 | 52.12758 | 6.26935 | 59° | 5km/h | 30442m | 6.3m/s | -44.7°C | 0% | 11.8hPa | 2.5V | 18:12:15 | 02:01:40 | 00:00:00 | |
| DM0DOS-11 | 2026-09-02 01:18:10 | 52.12757 | 6.26927 | 89° | 15km/h | 30428m | 6.4m/s | -44.7°C | 2.6% | 11.8hPa | 2.5V | 08:30:00 | 02:01:38 | 00:00:00 | |
| DO2JMG | 2026-09-02 01:18:09 | 52.12757 | 6.26932 | 80° | 9km/h | 30435m | 7m/s | -44.7°C | 0% | 11.8hPa | 2.5V | 18:12:15 | 02:01:39 | 00:00:00 | |
| BUE01 | 2026-09-02 01:18:09 | 52.12757 | 6.26932 | 79° | 9km/h | 30435m | 7.0m/s | -44.7°C | 0.6% | 11.8hPa | 2.6V | 00:00:00 | 00:00:00 | 00:00:00 | |
| WEDDY | 2026-09-02 01:18:08 | 52.12757 | 6.26932 | 81° | 9km/h | 30435m | 7.0m/s | -44.7°C | 0.6% | 11.8hPa | 2.6V | 00:00:00 | 00:00:00 | 00:00:00 | |
| DL1XH-15 | 2026-09-02 01:18:07 | 52.12758 | 6.26914 | 97° | 16km/h | 30417m | 6.4m/s | -44.7°C | 2.6% | 11.8hPa | 2.6V | 08:30:00 | 02:01:36 | 00:00:00 | |
| DL1XH-west | 2026-09-02 01:18:06 | 52.12758 | 6.26914 | 98° | 16km/h | 30417m | 6.4m/s | -44.7°C | 0% | 11.8hPa | 2.6V | 18:12:15 | 02:01:36 | 00:00:00 | |
| BIOWL1-15 | 2026-09-02 01:18:03 | 52.12761 | 6.26888 | 104° | 15km/h | 30383m | 7m/s | -44.7°C | 0% | 11.9hPa | 2.6V | 18:12:15 | 02:01:31 | 00:00:00 | |
| DB0ND-19 | 2026-09-02 01:18:02 | 52.12761 | 6.26894 | 102° | 13km/h | 30391m | 7.2m/s | -44.7°C | 0.6% | 11.9hPa | 2.5V | 00:00:00 | 00:00:00 | 00:00:00 | |
| DM0DOS-11 | 2026-09-02 01:18:00 | 52.12764 | 6.26874 | 121° | 5km/h | 30365m | 7.6m/s | -44.7°C | 2.6% | 11.9hPa | 2.5V | 08:30:00 | 02:01:28 | 00:00:00 | |
| AA1-15 | 2026-09-02 01:17:59 | 52.12763 | 6.26877 | 108° | 11km/h | 30371m | 5.3m/s | -44.7°C | 0% | 11.9hPa | 2.5V | 18:12:15 | 02:01:29 | 00:00:00 | |
| DL1XH-west | 2026-09-02 01:17:55 | 52.12766 | 6.26871 | 119° | 7km/h | 30345m | 5.9m/s | -44.7°C | 0% | 12hPa | 2.6V | 18:12:15 | 02:01:25 | 00:00:00 | |
| BIOWL1-15 | 2026-09-02 01:17:51 | 52.12770 | 6.26845 | 104° | 18km/h | 30320m | 6.2m/s | -44.7°C | 0% | 12hPa | 2.6V | 18:12:15 | 02:01:21 | 00:00:00 | |
| SONDE2-11 | 2026-09-02 01:17:51 | 52.12770 | 6.26845 | 103° | 18km/h | 30320m | 6.2m/s | -44.7°C | 0.6% | 12.0hPa | 2.5V | 00:00:00 | 00:00:00 | 00:00:00 | |
| DM0DOS-11 | 2026-09-02 01:17:50 | 52.12772 | 6.26830 | 96° | 7km/h | 30300m | 5.6m/s | -44.8°C | 2.6% | 12hPa | 2.5V | 08:30:00 | 02:01:18 | 00:00:00 | |
| AA1-15 | 2026-09-02 01:17:48 | 52.12772 | 6.26830 | 97° | 7km/h | 30300m | 5.6m/s | -44.8°C | 0% | 12hPa | 2.5V | 18:12:15 | 02:01:18 | 00:00:00 | |
| DB0UT-7 | 2026-09-02 01:17:48 | 52.12772 | 6.26830 | 97° | 11km/h | 30300m | 5.5m/s | -44.8°C | 2.6% | 12.0hPa | 2.5V | 00:00:00 | 02:01:18 | 00:00:00 | |
| DL1XH-15 | 2026-09-02 01:17:47 | 52.12773 | 6.26824 | 90° | 9km/h | 30287m | 7.2m/s | -44.9°C | 2.7% | 12.1hPa | 2.5V | 08:30:00 | 02:01:16 | 00:00:00 | |
| DL1XH-west | 2026-09-02 01:17:45 | 52.12773 | 6.26821 | 88° | 9km/h | 30281m | 6.2m/s | -44.9°C | 0% | 12.1hPa | 2.6V | 18:12:15 | 02:01:15 | 00:00:00 | |
| HSKMA3-T | 2026-09-02 01:17:44 | 52.12772 | 6.26818 | 86° | 5km/h | 30275m | 5.8m/s | -44.9°C | 0% | 12.1hPa | 2.6V | 18:12:15 | 02:01:14 | 00:00:00 | |
| BIOWL1-15 | 2026-09-02 01:17:42 | 52.12773 | 6.26820 | 241° | 4km/h | 30249m | 5.2m/s | -45°C | 0% | 12.1hPa | 2.6V | 18:12:15 | 02:01:10 | 00:00:00 | |
| EDDB2-12 | 2026-09-02 01:17:41 | 52.12772 | 6.26818 | 267° | 4km/h | 30255m | 6.2m/s | -45.0°C | 0.6% | 12.1hPa | 2.5V | 00:00:00 | 00:00:00 | 00:00:00 | |
| DL3AQ-11 | 2026-09-02 01:17:39 | 52.12774 | 6.26818 | 117° | 9km/h | 30236m | 7.8m/s | -45.0°C | 0.6% | 12.2hPa | 2.5V | 00:00:00 | 00:00:00 | 00:00:00 | |
| BUE01 | 2026-09-02 01:17:38 | 52.12774 | 6.26818 | 117° | 9km/h | 30236m | 7.8m/s | -45.0°C | 0.6% | 12.2hPa | 2.5V | 00:00:00 | 00:00:00 | 00:00:00 | |
| DL1XH-15 | 2026-09-02 01:17:37 | 52.12777 | 6.26806 | 112° | 16km/h | 30223m | 5.3m/s | -45°C | 2.7% | 12.2hPa | 2.5V | 08:30:00 | 02:01:06 | 00:00:00 | |
| AA1-15 | 2026-09-02 01:17:37 | 52.12776 | 6.26813 | 113° | 16km/h | 30229m | 6.8m/s | -45°C | 0% | 12.2hPa | 2.5V | 18:12:15 | 02:01:07 | 00:00:00 | |
| DL1XH-west | 2026-09-02 01:17:34 | 52.12780 | 6.26797 | 123° | 7km/h | 30211m | 6.7m/s | -44.9°C | 0% | 12.2hPa | 2.6V | 18:12:15 | 02:01:04 | 00:00:00 | |
| HSKMA3-T | 2026-09-02 01:17:33 | 52.12780 | 6.26797 | 264° | 4km/h | 30204m | 7.5m/s | -44.9°C | 0% | 12.2hPa | 2.6V | 18:12:15 | 02:01:03 | 00:00:00 | |
| BIOWL1-15 | 2026-09-02 01:17:31 | 52.12775 | 6.26812 | 335° | 7km/h | 30179m | 7.1m/s | -44.9°C | 0% | 12.2hPa | 2.6V | 18:12:15 | 02:00:59 | 00:00:00 | |
| WPPR-10 | 2026-09-02 01:17:31 | 52.12777 | 6.26809 | 305° | 11km/h | 30186m | 5.7m/s | -44.9°C | 0.6% | 12.2hPa | 2.6V | 00:00:00 | 00:00:00 | 00:00:00 | |
| DM0DOS-11 | 2026-09-02 01:17:30 | 52.12774 | 6.26812 | 39° | 7km/h | 30172m | 6.8m/s | -44.9°C | 2.6% | 12.2hPa | 2.6V | 08:30:00 | 02:00:58 | 00:00:00 | |
| DL1XH-15 | 2026-09-02 01:17:27 | 52.12771 | 6.26803 | 71° | 16km/h | 30159m | 6.6m/s | -44.9°C | 2.6% | 12.3hPa | 2.5V | 08:30:00 | 02:00:56 | 00:00:00 | |
| AA1-15 | 2026-09-02 01:17:26 | 52.12771 | 6.26803 | 71° | 16km/h | 30159m | 6.6m/s | -44.9°C | 0% | 12.3hPa | 2.5V | 18:12:15 | 02:00:56 | 00:00:00 | |
| DL1XH-west | 2026-09-02 01:17:24 | 52.12768 | 6.26791 | 70° | 16km/h | 30145m | 6.2m/s | -45°C | 0% | 12.3hPa | 2.5V | 18:12:15 | 02:00:54 | 00:00:00 | |
| HSKMA3-T | 2026-09-02 01:17:22 | 52.12766 | 6.26778 | 81° | 18km/h | 30134m | 5.7m/s | -45°C | 0% | 12.3hPa | 2.6V | 18:12:15 | 02:00:52 | 00:00:00 | |
| DM0DOS-11 | 2026-09-02 01:17:20 | 52.12762 | 6.26754 | 24° | 7km/h | 30110m | 4.9m/s | -45.1°C | 2.7% | 12.4hPa | 2.6V | 08:30:00 | 02:00:48 | 00:00:00 | |
| BIOWL1-15 | 2026-09-02 01:17:19 | 52.12764 | 6.26757 | 67° | 13km/h | 30115m | 5m/s | -45.1°C | 0% | 12.4hPa | 2.5V | 18:12:15 | 02:00:49 | 00:00:00 | |
| DB0UT-7 | 2026-09-02 01:17:18 | 52.12762 | 6.26754 | 25° | 15km/h | 30111m | 4.9m/s | -45.1°C | 2.7% | 12.3hPa | 2.5V | 00:00:00 | 00:00:00 | 00:00:00 | |
| DL1XH-15 | 2026-09-02 01:17:17 | 52.12757 | 6.26759 | 309° | 20km/h | 30096m | 8.7m/s | -45.1°C | 2.7% | 12.4hPa | 2.5V | 08:30:00 | 02:00:46 | 00:00:00 | |
| AA1-15 | 2026-09-02 01:17:15 | 52.12754 | 6.26767 | 302° | 26km/h | 30088m | 6.9m/s | -45.2°C | 0% | 12.4hPa | 2.5V | 18:12:15 | 02:00:45 | 00:00:00 | |
| DL1XH-west | 2026-09-02 01:17:14 | 52.12751 | 6.26775 | 298° | 24km/h | 30082m | 4.2m/s | -45.2°C | 0% | 12.4hPa | 2.5V | 18:12:15 | 02:00:44 | 00:00:00 | |
| HSKMA3-T | 2026-09-02 01:17:11 | 52.12746 | 6.26786 | 79° | 7km/h | 30063m | 6.9m/s | -45.2°C | 0% | 12.5hPa | 2.6V | 18:12:15 | 02:00:41 | 00:00:00 | |
| DM0DOS-11 | 2026-09-02 01:17:10 | 52.12746 | 6.26771 | 95° | 11km/h | 30044m | 6.3m/s | -45.1°C | 2.7% | 12.5hPa | 2.5V | 08:30:00 | 02:00:38 | 00:00:00 | |
| BIOWL1-15 | 2026-09-02 01:17:10 | 52.12746 | 6.26771 | 95° | 11km/h | 30044m | 6.3m/s | -45.2°C | 0% | 12.5hPa | 2.5V | 18:12:15 | 02:00:38 | 00:00:00 | |
| DL1XH-15 | 2026-09-02 01:17:07 | 52.12746 | 6.26767 | 317° | 4km/h | 30031m | 6.2m/s | -45.2°C | 2.7% | 12.5hPa | 2.6V | 08:30:00 | 02:00:36 | 00:00:00 | |
| AA1-15 | 2026-09-02 01:17:05 | 52.12744 | 6.26774 | 302° | 13km/h | 30019m | 6.2m/s | -45.2°C | 0% | 12.6hPa | 2.5V | 18:12:15 | 02:00:34 | 00:00:00 | |
| DL1XH-west | 2026-09-02 01:17:03 | 52.12742 | 6.26778 | 309° | 13km/h | 30012m | 7.3m/s | -45.2°C | 0% | 12.6hPa | 2.5V | 18:12:15 | 02:00:33 | 00:00:00 | |
| HSKMA3-T | 2026-09-02 01:17:01 | 52.12736 | 6.26786 | 324° | 18km/h | 30000m | 6.1m/s | -45.2°C | 0% | 12.6hPa | 2.6V | 18:12:15 | 02:00:31 | 00:00:00 | |
| BIOWL1-15 | 2026-09-02 01:16:58 | 52.12723 | 6.26803 | 320° | 26km/h | 29980m | 6m/s | -45.2°C | 0% | 12.6hPa | 2.5V | 18:12:15 | 02:00:28 | 00:00:00 | |
| DL1XH-15 | 2026-09-02 01:16:57 | 52.12715 | 6.26814 | 321° | 13km/h | 29969m | 4.7m/s | -45.1°C | 2.7% | 12.7hPa | 2.6V | 08:30:00 | 02:00:26 | 00:00:00 | |
| DL1XH-west | 2026-09-02 01:16:53 | 52.12716 | 6.26812 | 142° | 16km/h | 29949m | 7.3m/s | -45.1°C | 0% | 12.7hPa | 2.5V | 18:12:15 | 02:00:23 | 00:00:00 | |
| HSKMA3-T | 2026-09-02 01:16:51 | 52.12724 | 6.26807 | 176° | 16km/h | 29938m | 3.8m/s | -45.1°C | 0% | 12.7hPa | 2.5V | 18:12:15 | 02:00:21 | 00:00:00 | |
| BIOWL1-15 | 2026-09-02 01:16:48 | 52.12730 | 6.26824 | 278° | 29km/h | 29919m | 7.4m/s | -45°C | 0% | 12.7hPa | 2.5V | 18:12:15 | 02:00:18 | 00:00:00 | |
| DL3AQ-11 | 2026-09-02 01:16:48 | 52.12728 | 6.26837 | 296° | 35km/h | 29913m | 5.3m/s | -45.0°C | 0.6% | 12.8hPa | 2.5V | 00:00:00 | 00:00:00 | 00:00:00 | |
| MET0W-2 | 2026-09-02 01:16:47 | 52.12728 | 6.26837 | 296° | 35km/h | 29913m | 5.3m/s | -45.0°C | 0.6% | 12.8hPa | 2.5V | 00:00:00 | 00:00:00 | 00:00:00 | |
| DL8DAS-14 | 2026-09-02 01:16:45 | 52.12717 | 6.26857 | 327° | 29km/h | 29904m | 5.5m/s | -45.0°C | 0.6% | 12.8hPa | 2.5V | 00:00:00 | 00:00:00 | 00:00:00 | |
| DO2JMG | 2026-09-02 01:16:43 | 52.12707 | 6.26859 | 45° | 16km/h | 29891m | 6.9m/s | -45°C | 0% | 12.8hPa | 2.5V | 18:12:15 | 02:00:13 | 00:00:00 | |
| DL1XH-west | 2026-09-02 01:16:42 | 52.12705 | 6.26852 | 92° | 20km/h | 29884m | 7.2m/s | -45°C | 0% | 12.8hPa | 2.5V | 18:12:15 | 02:00:12 | 00:00:00 | |
| HSKMA3-T | 2026-09-02 01:16:41 | 52.12707 | 6.26843 | 120° | 27km/h | 29877m | 6.2m/s | -44.9°C | 0% | 12.8hPa | 2.5V | 18:12:15 | 02:00:11 | 00:00:00 | |
| BIOWL1-15 | 2026-09-02 01:16:39 | 52.12728 | 6.26835 | 232° | 22km/h | 29853m | 6m/s | -44.8°C | 0% | 12.9hPa | 2.5V | 18:12:15 | 02:00:07 | 00:00:00 | |
| DL1XH-west | 2026-09-02 01:16:32 | 52.12719 | 6.26869 | 342° | 16km/h | 29821m | 5.5m/s | -44.9°C | 0% | 12.9hPa | 2.5V | 18:12:15 | 02:00:02 | 00:00:00 | |
| AA1-15 | 2026-09-02 01:16:32 | 52.12716 | 6.26869 | 2° | 11km/h | 29815m | 6m/s | -44.9°C | 0% | 12.9hPa | 2.5V | 18:12:15 | 02:00:01 | 00:00:00 | |
| DL3AQ-11 | 2026-09-02 01:16:32 | 52.12716 | 6.26869 | 2° | 11km/h | 29816m | 6.0m/s | -44.9°C | 0.6% | 12.9hPa | 2.6V | 00:00:00 | 00:00:00 | 00:00:00 | |
| DM0DOS-11 | 2026-09-02 01:16:31 | 52.12716 | 6.26864 | 139° | 13km/h | 29797m | 5.8m/s | -45°C | 2.6% | 13hPa | 2.6V | 08:30:00 | 01:59:58 | 00:00:00 | |
| HSKMA3-T | 2026-09-02 01:16:30 | 52.12714 | 6.26869 | 35° | 5km/h | 29809m | 6.5m/s | -44.9°C | 0% | 13hPa | 2.5V | 18:12:15 | 02:00:00 | 00:00:00 | |
| BIOWL1-15 | 2026-09-02 01:16:27 | 52.12719 | 6.26860 | 144° | 20km/h | 29791m | 5.5m/s | -45°C | 0% | 13hPa | 2.6V | 18:12:15 | 01:59:57 | 00:00:00 | |
| DO2JMG | 2026-09-02 01:16:22 | 52.12736 | 6.26837 | 222° | 5km/h | 29762m | 7.3m/s | -45°C | 0% | 13.1hPa | 2.6V | 18:12:15 | 01:59:52 | 00:00:00 | |
| DL4BBY-15 | 2026-09-02 01:16:22 | 52.12735 | 6.26837 | 222° | 15km/h | 29762m | 7.2m/s | -45.5°C | 0% | 0hPa | 2.5V | 00:00:00 | 00:00:00 | 00:00:00 | |
| DM0DOS-11 | 2026-09-02 01:16:21 | 52.12733 | 6.26862 | 295° | 15km/h | 29737m | 5.4m/s | -45.1°C | 2.7% | 13.1hPa | 2.5V | 08:30:00 | 01:59:48 | 00:00:00 | |
| DL1XH-west | 2026-09-02 01:16:21 | 52.12736 | 6.26840 | 267° | 13km/h | 29754m | 8.1m/s | -45.1°C | 0% | 13.1hPa | 2.5V | 18:12:15 | 01:59:51 | 00:00:00 | |
| HSKMA3-T | 2026-09-02 01:16:20 | 52.12736 | 6.26847 | 278° | 20km/h | 29747m | 6.2m/s | -45.1°C | 0% | 13.1hPa | 2.5V | 18:12:15 | 01:59:50 | 00:00:00 | |
| BIOWL1-15 | 2026-09-02 01:16:18 | 52.12732 | 6.26864 | 100° | 9km/h | 29725m | 6.2m/s | -45.1°C | 0% | 13.1hPa | 2.6V | 18:12:15 | 01:59:46 | 00:00:00 | |
| AA1-15 | 2026-09-02 01:16:11 | 52.12748 | 6.26836 | 158° | 16km/h | 29695m | 4.8m/s | -45.1°C | 0% | 13.2hPa | 2.6V | 18:12:15 | 01:59:41 | 00:00:00 | |
| DM0DOS-11 | 2026-09-02 01:16:10 | 52.12753 | 6.26832 | 45° | 4km/h | 29677m | 7.2m/s | -45.1°C | 2.7% | 13.2hPa | 2.5V | 08:30:00 | 01:59:38 | 00:00:00 | |
| DL1XH-west | 2026-09-02 01:16:10 | 52.12751 | 6.26834 | 161° | 11km/h | 29690m | 5.7m/s | -45.1°C | 0% | 13.2hPa | 2.5V | 18:12:15 | 01:59:40 | 00:00:00 | |
| BIOWL1-15 | 2026-09-02 01:16:05 | 52.12750 | 6.26832 | 236° | 5km/h | 29655m | 6.7m/s | -45.1°C | 0% | 13.3hPa | 2.5V | 18:12:15 | 01:59:34 | 00:00:00 | |
| DF5WG-10 | 2026-09-02 01:16:05 | 52.12750 | 6.26831 | 328° | 20km/h | 29661m | 4.6m/s | -45.1°C | 2.7% | 13.2hPa | 2.5V | 00:00:00 | 01:59:35 | 00:00:00 | |
| DH3RM | 2026-09-02 01:16:04 | 52.12750 | 6.26831 | 328° | 2km/h | 29661m | 4.6m/s | -45.1°C | 0.6% | 13.3hPa | 2.5V | 00:00:00 | 00:00:00 | 00:00:00 | |
| DM0DOS-11 | 2026-09-02 01:16:03 | 52.12771 | 6.26812 | 108° | 31km/h | 29619m | 6.6m/s | -45.1°C | 2.7% | 13.3hPa | 2.5V | 08:30:00 | 01:59:28 | 00:00:00 | |
| DO2JMG | 2026-09-02 01:16:00 | 52.12764 | 6.26830 | 141° | 22km/h | 29634m | 6.9m/s | -45.2°C | 0% | 13.3hPa | 2.6V | 18:12:15 | 01:59:30 | 00:00:00 | |
| DL1XH-15 | 2026-09-02 01:16:00 | 52.12775 | 6.26788 | 101° | 26km/h | 29608m | 6.3m/s | -45.1°C | 2.7% | 13.4hPa | 2.5V | 08:30:00 | 01:59:26 | 00:00:00 | |
| HSKMA3-T | 2026-09-02 01:15:59 | 52.12768 | 6.26823 | 124° | 27km/h | 29626m | 7.7m/s | -45.1°C | 0% | 13.3hPa | 2.5V | 18:12:15 | 01:59:29 | 00:00:00 | |
| BIOWL1-15 | 2026-09-02 01:15:54 | 52.12777 | 6.26774 | 117° | 11km/h | 29595m | 6.3m/s | -45°C | 0% | 13.4hPa | 2.6V | 18:12:15 | 01:59:24 | 00:00:00 | |
| DO3MHA-11 | 2026-09-02 01:15:54 | 52.12777 | 6.26774 | 117° | 16km/h | 29596m | 6.2m/s | -45.0°C | 2.6% | 13.3hPa | 2.6V | 00:00:00 | 01:59:24 | 08:30:00 | |
| DO9LL-15 | 2026-09-02 01:15:53 | 52.12778 | 6.26771 | 135° | 22km/h | 29590m | 5.8m/s | -45.0°C | 2.6% | 13.4hPa | 2.5V | 00:00:00 | 01:59:23 | 00:00:00 | |
| DM0DOS-11 | 2026-09-02 01:15:52 | 52.12790 | 6.26765 | 162° | 20km/h | 29559m | 6.2m/s | -45°C | 2.6% | 13.5hPa | 2.5V | 08:30:00 | 01:59:18 | 00:00:00 | |
| DO2JMG | 2026-09-02 01:15:50 | 52.12783 | 6.26768 | 165° | 11km/h | 29571m | 4.9m/s | -45°C | 0% | 13.4hPa | 2.6V | 18:12:15 | 01:59:20 | 00:00:00 | |
| DL1XH-15 | 2026-09-02 01:15:50 | 52.12800 | 6.26753 | 128° | 31km/h | 29550m | 4.5m/s | -45°C | 2.6% | 13.5hPa | 2.5V | 08:30:00 | 01:59:16 | 00:00:00 | |
| DL1XH-west | 2026-09-02 01:15:49 | 52.12786 | 6.26767 | 168° | 15km/h | 29566m | 6.4m/s | -45°C | 0% | 13.4hPa | 2.6V | 18:12:15 | 01:59:19 | 00:00:00 | |
| HSKMA3-T | 2026-09-02 01:15:48 | 52.12790 | 6.26765 | 162° | 20km/h | 29560m | 6.2m/s | -45°C | 0% | 13.5hPa | 2.5V | 18:12:15 | 01:59:18 | 00:00:00 | |
| SONDE2-11 | 2026-09-02 01:15:47 | 52.12800 | 6.26753 | 128° | 29km/h | 29550m | 4.5m/s | -45.0°C | 0.6% | 13.5hPa | 2.5V | 00:00:00 | 00:00:00 | 00:00:00 | |
| DO3DL | 2026-09-02 01:15:46 | 52.12795 | 6.26761 | 148° | 26km/h | 29555m | 4.4m/s | -45.0°C | 0.6% | 13.5hPa | 2.5V | 00:00:00 | 00:00:00 | 00:00:00 | |
| DF5WG-10 | 2026-09-02 01:15:45 | 52.12805 | 6.26742 | 115° | 26km/h | 29544m | 7.1m/s | -45.0°C | 2.6% | 13.5hPa | 2.5V | 00:00:00 | 01:59:15 | 00:00:00 | |
| WEDDY | 2026-09-02 01:15:44 | 52.12805 | 6.26742 | 116° | 35km/h | 29544m | 7.2m/s | -45.0°C | 0.6% | 13.5hPa | 2.6V | 00:00:00 | 00:00:00 | 00:00:00 | |
| DL8DAS-14 | 2026-09-02 01:15:43 | 52.12809 | 6.26711 | 92° | 40km/h | 29531m | 5.1m/s | -45.1°C | 0.6% | 13.5hPa | 2.6V | 00:00:00 | 00:00:00 | 00:00:00 | |
| BIOWL1-15 | 2026-09-02 01:15:43 | 52.12809 | 6.26711 | 92° | 40km/h | 29531m | 5.1m/s | -45.1°C | 0% | 13.5hPa | 2.6V | 18:12:15 | 01:59:13 | 00:00:00 | |
| DM0DOS-11 | 2026-09-02 01:15:42 | 52.12815 | 6.26668 | 177° | 18km/h | 29504m | 5.3m/s | -45.3°C | 2.7% | 13.6hPa | 2.6V | 08:30:00 | 01:59:08 | 00:00:00 | |
| DL1XH-15 | 2026-09-02 01:15:40 | 52.12825 | 6.26667 | 168° | 20km/h | 29494m | 5.4m/s | -45.5°C | 2.7% | 13.6hPa | 2.5V | 08:30:00 | 01:59:06 | 00:00:00 | |
| DO2JMG | 2026-09-02 01:15:39 | 52.12812 | 6.26670 | 151° | 15km/h | 29510m | 6m/s | -45.3°C | 0% | 13.6hPa | 2.6V | 18:12:15 | 01:59:09 | 00:00:00 | |
| DL1XH-west | 2026-09-02 01:15:38 | 52.12815 | 6.26668 | 178° | 18km/h | 29504m | 5.4m/s | -45.3°C | 0% | 13.6hPa | 2.6V | 18:12:15 | 01:59:08 | 00:00:00 | |
| BIOWL1-15 | 2026-09-02 01:15:33 | 52.12834 | 6.26651 | 99° | 22km/h | 29477m | 5.7m/s | -45.7°C | 0% | 13.6hPa | 2.6V | 18:12:15 | 01:59:03 | 00:00:00 | |
| DO3DL | 2026-09-02 01:15:32 | 52.12834 | 6.26651 | 100° | 22km/h | 29477m | 5.7m/s | -45.7°C | 0.6% | 13.6hPa | 2.6V | 00:00:00 | 00:00:00 | 00:00:00 | |
| DM0DOS-11 | 2026-09-02 01:15:31 | 52.12840 | 6.26611 | 133° | 20km/h | 29449m | 5.6m/s | -45.9°C | 2.8% | 13.7hPa | 2.6V | 08:30:00 | 01:58:58 | 00:00:00 | |
| DO2JMG | 2026-09-02 01:15:29 | 52.12837 | 6.26617 | 119° | 18km/h | 29455m | 5.7m/s | -45.9°C | 0% | 13.7hPa | 2.5V | 18:12:15 | 01:58:59 | 00:00:00 | |
| DL1XH-west | 2026-09-02 01:15:28 | 52.12840 | 6.26611 | 133° | 20km/h | 29449m | 5.6m/s | -45.9°C | 0% | 13.7hPa | 2.6V | 18:12:15 | 01:58:58 | 00:00:00 | |
| HSKMA3-T | 2026-09-02 01:15:27 | 52.12844 | 6.26605 | 138° | 22km/h | 29444m | 5.2m/s | -45.9°C | 0% | 13.7hPa | 2.6V | 18:12:15 | 01:58:57 | 00:00:00 | |
| GOEST3-10 | 2026-09-02 01:15:26 | 52.12848 | 6.26598 | 136° | 22km/h | 29438m | 6.5m/s | -45.8°C | 2.8% | 13.7hPa | 2.5V | 00:00:00 | 00:00:00 | 00:00:00 | |
| DF5WG-10 | 2026-09-02 01:15:25 | 52.12853 | 6.26591 | 133° | 15km/h | 29432m | 4.9m/s | -45.9°C | 2.8% | 13.7hPa | 2.5V | 00:00:00 | 01:58:55 | 00:00:00 | |
| DL1LOL-11 | 2026-09-02 01:15:24 | 52.12852 | 6.26591 | 133° | 24km/h | 29432m | 5.0m/s | -45.9°C | 0.7% | 13.7hPa | 2.5V | 00:00:00 | 00:00:00 | 00:00:00 | |
| DM0DOS-11 | 2026-09-02 01:15:23 | 52.12858 | 6.26576 | 23° | 13km/h | 29395m | 5.7m/s | -45.8°C | 2.8% | 13.8hPa | 2.5V | 08:30:00 | 01:58:48 | 00:00:00 | |
| DO9LL-15 | 2026-09-02 01:15:23 | 52.12860 | 6.26579 | 136° | 13km/h | 29423m | 4.9m/s | -45.9°C | 2.8% | 13.7hPa | 2.5V | 00:00:00 | 01:58:53 | 00:00:00 | |
| DL4BBY-15 | 2026-09-02 01:15:22 | 52.12862 | 6.26575 | 145° | 13km/h | 29417m | 6.7m/s | -46.3°C | 0% | 0hPa | 2.6V | 00:00:00 | 00:00:00 | 00:00:00 | |
| DO3MHA-11 | 2026-09-02 01:15:21 | 52.12863 | 6.26575 | 226° | 13km/h | 29411m | 6.2m/s | -45.8°C | 2.8% | 13.7hPa | 2.6V | 00:00:00 | 01:58:51 | 00:00:00 | |
| DL1XH-15 | 2026-09-02 01:15:20 | 52.12852 | 6.26565 | 70° | 22km/h | 29383m | 5m/s | -45.8°C | 2.8% | 13.8hPa | 2.6V | 08:30:00 | 01:58:46 | 00:00:00 | |
| DL1XH-west | 2026-09-02 01:15:18 | 52.12858 | 6.26576 | 23° | 13km/h | 29395m | 5.7m/s | -45.8°C | 0% | 13.8hPa | 2.5V | 18:12:15 | 01:58:48 | 00:00:00 | |
| HSKMA3-T | 2026-09-02 01:15:17 | 52.12855 | 6.26572 | 49° | 18km/h | 29389m | 6.4m/s | -45.8°C | 0% | 13.8hPa | 2.6V | 18:12:15 | 01:58:47 | 00:00:00 | |
| AA1-15 | 2026-09-02 01:15:16 | 52.12853 | 6.26565 | 71° | 22km/h | 29383m | 5m/s | -45.8°C | 0% | 13.8hPa | 2.6V | 18:12:15 | 01:58:46 | 00:00:00 | |
| BIOWL1-15 | 2026-09-02 01:15:12 | 52.12866 | 6.26541 | 210° | 11km/h | 29351m | 4.1m/s | -45.7°C | 0% | 13.9hPa | 2.6V | 18:12:15 | 01:58:40 | 00:00:00 | |
| DL3AQ-11 | 2026-09-02 01:15:11 | 52.12863 | 6.26539 | 190° | 15km/h | 29356m | 4.8m/s | -45.7°C | 0.7% | 13.9hPa | 2.6V | 00:00:00 | 00:00:00 | 00:00:00 | |
| DL1XH-15 | 2026-09-02 01:15:10 | 52.12860 | 6.26540 | 20° | 20km/h | 29329m | 4.6m/s | -45.7°C | 2.8% | 13.9hPa | 2.6V | 08:30:00 | 01:58:36 | 00:00:00 | |
| DM0DOS-11 | 2026-09-02 01:15:10 | 52.12867 | 6.26543 | 3° | 7km/h | 29340m | 6.4m/s | -45.7°C | 2.8% | 13.9hPa | 2.5V | 08:30:00 | 01:58:38 | 00:00:00 | |
| DO2JMG | 2026-09-02 01:15:09 | 52.12867 | 6.26543 | 4° | 7km/h | 29340m | 6.4m/s | -45.7°C | 0% | 13.9hPa | 2.5V | 18:12:15 | 01:58:38 | 00:00:00 | |
| HSKMA3-T | 2026-09-02 01:15:07 | 52.12864 | 6.26542 | 17° | 16km/h | 29334m | 5.7m/s | -45.7°C | 0% | 13.9hPa | 2.5V | 18:12:15 | 01:58:37 | 00:00:00 | |
| AA1-15 | 2026-09-02 01:15:06 | 52.12860 | 6.26540 | 20° | 20km/h | 29329m | 4.6m/s | -45.7°C | 0% | 14hPa | 2.6V | 18:12:15 | 01:58:36 | 00:00:00 | |
| DO3DL | 2026-09-02 01:15:06 | 52.12860 | 6.26540 | 21° | 20km/h | 29329m | 4.6m/s | -45.7°C | 0.6% | 14.0hPa | 2.5V | 00:00:00 | 00:00:00 | 00:00:00 | |
| DF5WG-10 | 2026-09-02 01:15:05 | 52.12856 | 6.26537 | 23° | 11km/h | 29324m | 5.4m/s | -45.7°C | 2.8% | 13.9hPa | 2.5V | 00:00:00 | 01:58:35 | 00:00:00 | |
| DM0DOS-11 | 2026-09-02 01:15:03 | 52.12857 | 6.26511 | 132° | 13km/h | 29285m | 4.5m/s | -45.7°C | 2.7% | 14.1hPa | 2.5V | 08:30:00 | 01:58:28 | 00:00:00 | |
| BUE01 | 2026-09-02 01:15:03 | 52.12850 | 6.26528 | 101° | 7km/h | 29307m | 5.1m/s | -45.7°C | 0.7% | 14.0hPa | 2.5V | 00:00:00 | 00:00:00 | 00:00:00 | |
| DD1CC2-15 | 2026-09-02 01:15:01 | 52.12850 | 6.26528 | 102° | 9km/h | 29307m | 5.1m/s | -45.7°C | 0.7% | 14.0hPa | 2.5V | 00:00:00 | 00:00:00 | 00:00:00 | |
| DL1XH-15 | 2026-09-02 01:15:00 | 52.12861 | 6.26508 | 194° | 7km/h | 29275m | 5.8m/s | -45.7°C | 2.7% | 14hPa | 2.5V | 08:30:00 | 01:58:26 | 00:00:00 | |
| DL1XH-west | 2026-09-02 01:14:57 | 52.12859 | 6.26508 | 154° | 9km/h | 29280m | 4.3m/s | -45.7°C | 0% | 14hPa | 2.5V | 18:12:15 | 01:58:27 | 00:00:00 | |
| AA1-15 | 2026-09-02 01:14:55 | 52.12863 | 6.26510 | 234° | 9km/h | 29269m | 6.4m/s | -45.7°C | 0% | 14.1hPa | 2.6V | 18:12:15 | 01:58:25 | 00:00:00 | |
| BIOWL1-15 | 2026-09-02 01:14:51 | 52.12843 | 6.26528 | 13° | 22km/h | 29237m | 2.9m/s | -45.8°C | 0% | 14.1hPa | 2.6V | 18:12:15 | 01:58:19 | 00:00:00 | |
| DL1XH-15 | 2026-09-02 01:14:50 | 52.12838 | 6.26522 | 181° | 11km/h | 29222m | 7m/s | -45.9°C | 2.7% | 14.2hPa | 2.5V | 08:30:00 | 01:58:16 | 00:00:00 | |
| DM0DOS-11 | 2026-09-02 01:14:48 | 52.12838 | 6.26526 | 27° | 15km/h | 29233m | 3.4m/s | -45.8°C | 2.8% | 14.2hPa | 2.6V | 08:30:00 | 01:58:18 | 00:00:00 | |
| DO2JMG | 2026-09-02 01:14:47 | 52.12836 | 6.26523 | 68° | 5km/h | 29229m | 6.1m/s | -45.8°C | 0% | 14.2hPa | 2.5V | 18:12:15 | 01:58:17 | 00:00:00 | |
| HSKMA3-T | 2026-09-02 01:14:46 | 52.12837 | 6.26522 | 181° | 11km/h | 29222m | 7m/s | -45.9°C | 0% | 14.2hPa | 2.5V | 18:12:15 | 01:58:16 | 00:00:00 | |
| AA1-15 | 2026-09-02 01:14:44 | 52.12848 | 6.26528 | 206° | 29km/h | 29210m | 4.8m/s | -46°C | 0% | 14.2hPa | 2.6V | 18:12:15 | 01:58:14 | 00:00:00 | |
| BIOWL1-15 | 2026-09-02 01:14:43 | 52.12856 | 6.26549 | 347° | 16km/h | 29185m | 5.7m/s | -46.1°C | 0% | 14.3hPa | 2.5V | 18:12:15 | 01:58:09 | 00:00:00 | |
| DL8DAS-14 | 2026-09-02 01:14:41 | 52.12860 | 6.26544 | 256° | 9km/h | 29196m | 5.3m/s | -46.1°C | 0.7% | 14.2hPa | 2.5V | 00:00:00 | 00:00:00 | 00:00:00 | |
| DL1XH-15 | 2026-09-02 01:14:40 | 52.12843 | 6.26554 | 335° | 16km/h | 29169m | 4.7m/s | -46.1°C | 2.8% | 14.3hPa | 2.5V | 08:30:00 | 01:58:06 | 00:00:00 | |
| DO2JMG | 2026-09-02 01:14:37 | 52.12847 | 6.26552 | 350° | 18km/h | 29174m | 4.9m/s | -46.1°C | 0% | 14.3hPa | 2.6V | 18:12:15 | 01:58:07 | 00:00:00 | |
| DL1XH-west | 2026-09-02 01:14:36 | 52.12843 | 6.26554 | 335° | 16km/h | 29169m | 4.7m/s | -46.1°C | 0% | 14.3hPa | 2.5V | 18:12:15 | 01:58:06 | 00:00:00 | |
| DF5WG-10 | 2026-09-02 01:14:35 | 52.12840 | 6.26557 | 316° | 11km/h | 29165m | 4.9m/s | -46.1°C | 2.8% | 14.2hPa | 2.5V | 00:00:00 | 01:58:05 | 00:00:00 | |
| DM0DOS-11 | 2026-09-02 01:14:34 | 52.12852 | 6.26566 | 186° | 16km/h | 29126m | 5.9m/s | -46.1°C | 2.9% | 14.4hPa | 2.5V | 08:30:00 | 01:57:58 | 00:00:00 | |
| AA1-15 | 2026-09-02 01:14:33 | 52.12839 | 6.26564 | 245° | 7km/h | 29154m | 5.1m/s | -46.1°C | 0% | 14.3hPa | 2.6V | 18:12:15 | 01:58:03 | 00:00:00 | |
| BUE01 | 2026-09-02 01:14:32 | 52.12842 | 6.26567 | 178° | 7km/h | 29142m | 5.5m/s | -46.2°C | 0.7% | 14.3hPa | 2.6V | 00:00:00 | 00:00:00 | 00:00:00 | |
| DD1CC8 | 2026-09-02 01:14:31 | 52.12845 | 6.26566 | 169° | 11km/h | 29137m | 4.7m/s | -46.2°C | 0.7% | 14.4hPa | 2.6V | 00:00:00 | 00:00:00 | 00:00:00 | |
| DL1XH-15 | 2026-09-02 01:14:30 | 52.12858 | 6.26568 | 205° | 7km/h | 29116m | 4.1m/s | -46.1°C | 2.9% | 14.4hPa | 2.6V | 08:30:00 | 01:57:56 | 00:00:00 | |
| BIOWL1-15 | 2026-09-02 01:14:29 | 52.12848 | 6.26566 | 178° | 15km/h | 29132m | 5.6m/s | -46.1°C | 0% | 14.4hPa | 2.5V | 18:12:15 | 01:57:59 | 00:00:00 | |
| DO2JMG | 2026-09-02 01:14:27 | 52.12855 | 6.26567 | 196° | 13km/h | 29121m | 4.6m/s | -46.1°C | 0% | 14.4hPa | 2.6V | 18:12:15 | 01:57:57 | 00:00:00 | |
| HSKMA3-T | 2026-09-02 01:14:26 | 52.12858 | 6.26568 | 206° | 7km/h | 29116m | 4.1m/s | -46.1°C | 0% | 14.4hPa | 2.6V | 18:12:15 | 01:57:56 | 00:00:00 | |
| DL1XH-west | 2026-09-02 01:14:25 | 52.12859 | 6.26569 | 252° | 0km/h | 29111m | 6.3m/s | -46.1°C | 0% | 14.4hPa | 2.5V | 18:12:15 | 01:57:55 | 00:00:00 | |
| DF5WG-10 | 2026-09-02 01:14:25 | 52.12859 | 6.26569 | 253° | 11km/h | 29111m | 6.3m/s | -46.1°C | 2.9% | 14.4hPa | 2.5V | 00:00:00 | 01:57:55 | 00:00:00 | |
| WPPR-10 | 2026-09-02 01:14:24 | 52.12858 | 6.26569 | 16° | 5km/h | 29105m | 6.2m/s | -46.1°C | 0.7% | 14.4hPa | 2.5V | 00:00:00 | 00:00:00 | 00:00:00 | |
| DM0DOS-11 | 2026-09-02 01:14:23 | 52.12857 | 6.26578 | 206° | 18km/h | 29075m | 4m/s | -46.1°C | 2.9% | 14.5hPa | 2.5V | 08:30:00 | 01:57:48 | 00:00:00 | |
| AA1-15 | 2026-09-02 01:14:22 | 52.12854 | 6.26568 | 360° | 9km/h | 29095m | 3.7m/s | -46.1°C | 0% | 14.4hPa | 2.6V | 18:12:15 | 01:57:52 | 00:00:00 | |
| BIOWL1-15 | 2026-09-02 01:14:20 | 52.12857 | 6.26578 | 207° | 18km/h | 29075m | 4m/s | -46.1°C | 0% | 14.5hPa | 2.5V | 18:12:15 | 01:57:48 | 00:00:00 | |
| DO2JMG | 2026-09-02 01:14:16 | 52.12865 | 6.26581 | 172° | 15km/h | 29065m | 6.2m/s | -46°C | 0% | 14.5hPa | 2.6V | 18:12:15 | 01:57:46 | 00:00:00 | |
| HSKMA3-T | 2026-09-02 01:14:15 | 52.12869 | 6.26579 | 143° | 13km/h | 29059m | 5.4m/s | -46°C | 0% | 14.5hPa | 2.6V | 18:12:15 | 01:57:45 | 00:00:00 | |
| DL1XH-west | 2026-09-02 01:14:14 | 52.12871 | 6.26575 | 124° | 11km/h | 29054m | 4.8m/s | -46°C | 0% | 14.5hPa | 2.5V | 18:12:15 | 01:57:44 | 00:00:00 | |
| DL8DAS-15 | 2026-09-02 01:14:13 | 52.12871 | 6.26575 | 125° | 11km/h | 29054m | 4.8m/s | -46.0°C | 0.7% | 14.5hPa | 2.5V | 00:00:00 | 00:00:00 | 00:00:00 | |
| MET0W-2 | 2026-09-02 01:14:12 | 52.12873 | 6.26570 | 129° | 2km/h | 29044m | 5.9m/s | -45.9°C | 0.7% | 14.6hPa | 2.5V | 00:00:00 | 00:00:00 | 00:00:00 | |
| DL1XH-15 | 2026-09-02 01:14:11 | 52.12875 | 6.26581 | 153° | 7km/h | 29012m | 4.2m/s | -45.8°C | 2.8% | 14.6hPa | 2.5V | 08:30:00 | 01:57:36 | 00:00:00 | |
| AA1-15 | 2026-09-02 01:14:11 | 52.12873 | 6.26570 | 255° | 4km/h | 29038m | 5.8m/s | -45.9°C | 0% | 14.6hPa | 2.6V | 18:12:15 | 01:57:41 | 00:00:00 | |
| BIOWL1-15 | 2026-09-02 01:14:07 | 52.12874 | 6.26581 | 209° | 2km/h | 29017m | 5.3m/s | -45.8°C | 0% | 14.6hPa | 2.5V | 18:12:15 | 01:57:37 | 00:00:00 | |
| DO2JMG | 2026-09-02 01:14:05 | 52.12877 | 6.26579 | 156° | 13km/h | 29008m | 4.7m/s | -45.8°C | 0% | 14.6hPa | 2.6V | 18:12:15 | 01:57:35 | 00:00:00 | |
| HSKMA3-T | 2026-09-02 01:14:04 | 52.12881 | 6.26577 | 162° | 18km/h | 29002m | 6m/s | -45.8°C | 0% | 14.7hPa | 2.6V | 18:12:15 | 01:57:34 | 00:00:00 | |
| DL1XH-west | 2026-09-02 01:14:03 | 52.12886 | 6.26575 | 170° | 24km/h | 28997m | 5.9m/s | -45.7°C | 0% | 14.7hPa | 2.5V | 18:12:15 | 01:57:33 | 00:00:00 | |
| DL1XH-15 | 2026-09-02 01:14:01 | 52.12902 | 6.26554 | 46° | 9km/h | 28961m | 4.5m/s | -45.7°C | 2.8% | 14.7hPa | 2.5V | 08:30:00 | 01:57:26 | 00:00:00 | |
| AA1-15 | 2026-09-02 01:14:00 | 52.12902 | 6.26570 | 155° | 15km/h | 28983m | 4.5m/s | -45.7°C | 0% | 14.7hPa | 2.6V | 18:12:15 | 01:57:30 | 00:00:00 | |
| BIOWL1-15 | 2026-09-02 01:13:56 | 52.12902 | 6.26554 | 46° | 9km/h | 28961m | 4.5m/s | -45.7°C | 0% | 14.7hPa | 2.5V | 18:12:15 | 01:57:26 | 00:00:00 | |
| DO2JMG | 2026-09-02 01:13:55 | 52.12901 | 6.26552 | 35° | 4km/h | 28956m | 6.2m/s | -45.7°C | 0% | 14.7hPa | 2.5V | 18:12:15 | 01:57:25 | 00:00:00 | |
| HSKMA3-T | 2026-09-02 01:13:54 | 52.12901 | 6.26552 | 194° | 4km/h | 28950m | 5.2m/s | -45.7°C | 0% | 14.8hPa | 2.6V | 18:12:15 | 01:57:24 | 00:00:00 | |
| DM0DOS-11 | 2026-09-02 01:13:53 | 52.12924 | 6.26533 | 130° | 22km/h | 28920m | 3.8m/s | -45.7°C | 2.8% | 14.8hPa | 2.6V | 08:30:00 | 01:57:18 | 00:00:00 | |
| DL1XH-west | 2026-09-02 01:13:52 | 52.12907 | 6.26552 | 173° | 16km/h | 28941m | 4.3m/s | -45.6°C | 0% | 14.8hPa | 2.5V | 18:12:15 | 01:57:22 | 00:00:00 | |
| DL3AQ-11 | 2026-09-02 01:13:52 | 52.12911 | 6.26550 | 157° | 18km/h | 28936m | 6.3m/s | -45.7°C | 0.7% | 14.8hPa | 2.5V | 00:00:00 | 00:00:00 | 00:00:00 | |
| DL1XH-15 | 2026-09-02 01:13:51 | 52.12930 | 6.26524 | 147° | 11km/h | 28910m | 6m/s | -45.7°C | 2.8% | 14.9hPa | 2.5V | 08:30:00 | 01:57:16 | 00:00:00 | |
| AA1-15 | 2026-09-02 01:13:49 | 52.12920 | 6.26540 | 135° | 24km/h | 28924m | 4.4m/s | -45.7°C | 0% | 14.8hPa | 2.6V | 18:12:15 | 01:57:19 | 00:00:00 | |
| BIOWL1-15 | 2026-09-02 01:13:48 | 52.12930 | 6.26524 | 148° | 11km/h | 28910m | 6m/s | -45.7°C | 0% | 14.9hPa | 2.5V | 18:12:15 | 01:57:16 | 00:00:00 | |
| DO2JMG | 2026-09-02 01:13:45 | 52.12932 | 6.26522 | 173° | 7km/h | 28904m | 5.4m/s | -45.7°C | 0% | 14.9hPa | 2.5V | 18:12:15 | 01:57:15 | 00:00:00 | |
| HSKMA3-T | 2026-09-02 01:13:44 | 52.12934 | 6.26522 | 191° | 4km/h | 28899m | 4.5m/s | -45.7°C | 0% | 14.9hPa | 2.5V | 18:12:15 | 01:57:14 | 00:00:00 | |
| DM0DOS-11 | 2026-09-02 01:13:43 | 52.12940 | 6.26503 | 144° | 18km/h | 28867m | 5.6m/s | -45.6°C | 2.8% | 14.9hPa | 2.5V | 08:30:00 | 01:57:08 | 00:00:00 | |
| DL1XH-west | 2026-09-02 01:13:42 | 52.12934 | 6.26521 | 88° | 5km/h | 28888m | 5.9m/s | -45.6°C | 0% | 14.9hPa | 2.6V | 18:12:15 | 01:57:12 | 00:00:00 | |
| BIOWL1-15 | 2026-09-02 01:13:40 | 52.12949 | 6.26493 | 142° | 26km/h | 28856m | 5.7m/s | -45.6°C | 0% | 15hPa | 2.5V | 18:12:15 | 01:57:06 | 00:00:00 | |
| AA1-15 | 2026-09-02 01:13:38 | 52.12940 | 6.26503 | 145° | 18km/h | 28867m | 5.6m/s | -45.6°C | 0% | 14.9hPa | 2.5V | 18:12:15 | 01:57:08 | 00:00:00 | |
| HSKMA3-T | 2026-09-02 01:13:34 | 52.12958 | 6.26478 | 129° | 26km/h | 28844m | 5m/s | -45.7°C | 0% | 15hPa | 2.6V | 18:12:15 | 01:57:04 | 00:00:00 | |
| DL1XH-west | 2026-09-02 01:13:31 | 52.12967 | 6.26460 | 139° | 9km/h | 28829m | 6.1m/s | -45.7°C | 0% | 15hPa | 2.5V | 18:12:15 | 01:57:01 | 00:00:00 | |
| AA1-15 | 2026-09-02 01:13:27 | 52.12968 | 6.26457 | 45° | 9km/h | 28808m | 5.4m/s | -45.7°C | 0% | 15.1hPa | 2.5V | 18:12:15 | 01:56:57 | 00:00:00 | |
| BIOWL1-15 | 2026-09-02 01:13:26 | 52.12966 | 6.26454 | 67° | 11km/h | 28803m | 5.1m/s | -45.7°C | 0% | 15.1hPa | 2.5V | 18:12:15 | 01:56:56 | 00:00:00 | |
| HSKMA3-T | 2026-09-02 01:13:23 | 52.12969 | 6.26441 | 141° | 16km/h | 28786m | 5.3m/s | -45.7°C | 0% | 15.1hPa | 2.6V | 18:12:15 | 01:56:53 | 00:00:00 | |
| DL1XH-west | 2026-09-02 01:13:20 | 52.12983 | 6.26425 | 139° | 24km/h | 28770m | 5.1m/s | -45.6°C | 0% | 15.2hPa | 2.5V | 18:12:15 | 01:56:50 | 00:00:00 | |
| BIOWL1-15 | 2026-09-02 01:13:16 | 52.12992 | 6.26415 | 252° | 7km/h | 28751m | 6.7m/s | -45.7°C | 0% | 15.2hPa | 2.5V | 18:12:15 | 01:56:46 | 00:00:00 | |
| DO2JMG | 2026-09-02 01:13:13 | 52.12991 | 6.26425 | 328° | 4km/h | 28736m | 5.3m/s | -45.7°C | 0% | 15.2hPa | 2.6V | 18:12:15 | 01:56:43 | 00:00:00 | |
| HSKMA3-T | 2026-09-02 01:13:12 | 52.12991 | 6.26424 | 98° | 7km/h | 28731m | 5.3m/s | -45.7°C | 0% | 15.3hPa | 2.6V | 18:12:15 | 01:56:42 | 00:00:00 | |
| DL1XH-west | 2026-09-02 01:13:10 | 52.12995 | 6.26411 | 124° | 26km/h | 28721m | 4.6m/s | -45.7°C | 0% | 15.3hPa | 2.5V | 18:12:15 | 01:56:40 | 00:00:00 | |
| MET0W-2 | 2026-09-02 01:13:10 | 52.12999 | 6.26402 | 134° | 27km/h | 28716m | 5.8m/s | -45.7°C | 0.6% | 15.3hPa | 2.6V | 00:00:00 | 00:00:00 | 00:00:00 | |
| DL1XH-15 | 2026-09-02 01:13:09 | 52.13014 | 6.26386 | 156° | 16km/h | 28701m | 4.2m/s | -45.8°C | 2.7% | 15.3hPa | 2.6V | 08:30:00 | 01:56:36 | 00:00:00 | |
| AA1-15 | 2026-09-02 01:13:05 | 52.13017 | 6.26384 | 152° | 7km/h | 28696m | 5.1m/s | -45.8°C | 0% | 15.3hPa | 2.5V | 18:12:15 | 01:56:35 | 00:00:00 | |
| DO2JMG | 2026-09-02 01:13:03 | 52.13017 | 6.26380 | 41° | 9km/h | 28685m | 5.6m/s | -45.9°C | 0% | 15.4hPa | 2.5V | 18:12:15 | 01:56:33 | 00:00:00 | |
| HSKMA3-T | 2026-09-02 01:13:02 | 52.13014 | 6.26378 | 36° | 15km/h | 28680m | 4.8m/s | -46°C | 0% | 15.4hPa | 2.6V | 18:12:15 | 01:56:32 | 00:00:00 | |
| DL1XH-west | 2026-09-02 01:13:00 | 52.13009 | 6.26372 | 33° | 9km/h | 28671m | 4.4m/s | -46.1°C | 0% | 15.4hPa | 2.5V | 18:12:15 | 01:56:30 | 00:00:00 | |
| BIOWL1-15 | 2026-09-02 01:12:55 | 52.13018 | 6.26367 | 126° | 16km/h | 28641m | 5.7m/s | -46.6°C | 0% | 15.5hPa | 2.5V | 18:12:15 | 01:56:24 | 00:00:00 | |
| AA1-15 | 2026-09-02 01:12:55 | 52.13015 | 6.26371 | 152° | 15km/h | 28647m | 5.7m/s | -46.5°C | 0% | 15.5hPa | 2.6V | 18:12:15 | 01:56:25 | 00:00:00 | |
| DO2JMG | 2026-09-02 01:12:52 | 52.13021 | 6.26354 | 95° | 16km/h | 28631m | 4.7m/s | -46.7°C | 0% | 15.5hPa | 2.5V | 18:12:15 | 01:56:22 | 00:00:00 | |
| HSKMA3-T | 2026-09-02 01:12:51 | 52.13021 | 6.26349 | 85° | 11km/h | 28627m | 5.2m/s | -46.7°C | 0% | 15.5hPa | 2.6V | 18:12:15 | 01:56:21 | 00:00:00 | |
| DL8DAS-15 | 2026-09-02 01:12:50 | 52.13021 | 6.26349 | 86° | 11km/h | 28627m | 5.2m/s | -46.7°C | 0.7% | 15.5hPa | 2.5V | 00:00:00 | 00:00:00 | 00:00:00 | |
| DL1XH-15 | 2026-09-02 01:12:49 | 52.13020 | 6.26345 | 103° | 4km/h | 28602m | 5.8m/s | -47°C | 2.9% | 15.6hPa | 2.5V | 08:30:00 | 01:56:16 | 00:00:00 | |
| DL1XH-west | 2026-09-02 01:12:49 | 52.13020 | 6.26344 | 2° | 2km/h | 28616m | 4.7m/s | -46.8°C | 0% | 15.5hPa | 2.5V | 18:12:15 | 01:56:19 | 00:00:00 | |
| DJ2DS-15 | 2026-09-02 01:12:48 | 52.13020 | 6.26345 | 269° | 2km/h | 28612m | 4.4m/s | -46.8°C | 0.7% | 15.5hPa | 2.5V | 00:00:00 | 00:00:00 | 00:00:00 | |
| DL3AQ-11 | 2026-09-02 01:12:47 | 52.13020 | 6.26345 | 222° | 0km/h | 28608m | 4.9m/s | -46.9°C | 0.7% | 15.6hPa | 2.5V | 00:00:00 | 00:00:00 | 00:00:00 | |
| DO1YAY-16 | 2026-09-02 01:12:46 | 52.13020 | 6.26343 | 89° | 5km/h | 28597m | 4.8m/s | -47.0°C | 0.7% | 15.6hPa | 2.5V | 00:00:00 | 00:00:00 | 00:00:00 | |
| BIOWL1-15 | 2026-09-02 01:12:44 | 52.13019 | 6.26338 | 74° | 5km/h | 28588m | 4.2m/s | -47.1°C | 0% | 15.6hPa | 2.5V | 18:12:15 | 01:56:13 | 00:00:00 | |
| AA1-15 | 2026-09-02 01:12:44 | 52.13020 | 6.26340 | 84° | 7km/h | 28592m | 3.8m/s | -47°C | 0% | 15.6hPa | 2.6V | 18:12:15 | 01:56:14 | 00:00:00 | |
| DO2JMG | 2026-09-02 01:12:43 | 52.13019 | 6.26336 | 30° | 2km/h | 28583m | 5.8m/s | -47.1°C | 0% | 15.6hPa | 2.5V | 18:12:15 | 01:56:12 | 00:00:00 | |
| HSKMA3-T | 2026-09-02 01:12:40 | 52.13019 | 6.26337 | 235° | 4km/h | 28573m | 4.5m/s | -47.2°C | 0% | 15.6hPa | 2.6V | 18:12:15 | 01:56:10 | 00:00:00 | |
| DL1XH-15 | 2026-09-02 01:12:39 | 52.13028 | 6.26330 | 135° | 16km/h | 28552m | 4.3m/s | -47.4°C | 3% | 15.7hPa | 2.5V | 08:30:00 | 01:56:06 | 00:00:00 | |
| DL1XH-west | 2026-09-02 01:12:39 | 52.13020 | 6.26338 | 181° | 5km/h | 28569m | 4.2m/s | -47.3°C | 0% | 15.7hPa | 2.6V | 18:12:15 | 01:56:09 | 00:00:00 | |
| DO3MHA-11 | 2026-09-02 01:12:38 | 52.13022 | 6.26337 | 156° | 13km/h | 28563m | 6.4m/s | -47.3°C | 2.9% | 15.6hPa | 2.6V | 00:00:00 | 01:56:08 | 00:00:00 | |
| DD1CC2-15 | 2026-09-02 01:12:36 | 52.13025 | 6.26334 | 145° | 16km/h | 28558m | 5.6m/s | -47.4°C | 0.8% | 15.7hPa | 2.6V | 00:00:00 | 00:00:00 | 00:00:00 | |
| DF5WG-10 | 2026-09-02 01:12:35 | 52.13030 | 6.26325 | 130° | 11km/h | 28548m | 4.1m/s | -47.4°C | 2.9% | 15.6hPa | 2.6V | 00:00:00 | 01:56:05 | 00:00:00 | |
| DD1CC1-15 | 2026-09-02 01:12:34 | 52.13030 | 6.26325 | 130° | 13km/h | 28548m | 4.2m/s | 0°C | 0% | 0hPa | 2.6V | 00:00:00 | 00:00:00 | 00:00:00 | |
| DM0DOS-11 | 2026-09-02 01:12:33 | 52.13019 | 6.26309 | 71° | 11km/h | 28511m | 4.9m/s | -47.8°C | 3% | 15.8hPa | 2.6V | 08:30:00 | 01:55:58 | 00:00:00 | |
| AA1-15 | 2026-09-02 01:12:33 | 52.13031 | 6.26319 | 33° | 5km/h | 28537m | 5.4m/s | -47.5°C | 0% | 15.7hPa | 2.6V | 18:12:15 | 01:56:03 | 00:00:00 | |
| BIOWL1-15 | 2026-09-02 01:12:32 | 52.13029 | 6.26318 | 9° | 11km/h | 28532m | 4.7m/s | -47.6°C | 0% | 15.7hPa | 2.5V | 18:12:15 | 01:56:02 | 00:00:00 | |
| DO2JMG | 2026-09-02 01:12:31 | 52.13026 | 6.26318 | 10° | 13km/h | 28527m | 4.7m/s | -47.6°C | 0% | 15.7hPa | 2.5V | 18:12:15 | 01:56:01 | 00:00:00 | |
| HSKMA3-T | 2026-09-02 01:12:29 | 52.13021 | 6.26313 | 48° | 11km/h | 28516m | 5.5m/s | -47.7°C | 0% | 15.8hPa | 2.6V | 18:12:15 | 01:55:59 | 00:00:00 | |
| DL1XH-west | 2026-09-02 01:12:28 | 52.13019 | 6.26309 | 72° | 11km/h | 28511m | 4.9m/s | -47.8°C | 0.1% | 15.8hPa | 2.6V | 18:12:15 | 01:55:58 | 00:00:00 | |
| GOEST3-10 | 2026-09-02 01:12:28 | 52.13019 | 6.26309 | 72° | 9km/h | 28511m | 4.9m/s | -47.7°C | 3.0% | 15.7hPa | 2.6V | 00:00:00 | 01:55:58 | 08:30:00 | |
| DD1CC8 | 2026-09-02 01:12:27 | 52.13020 | 6.26302 | 117° | 7km/h | 28501m | 5.9m/s | -47.9°C | 0.7% | 15.8hPa | 2.6V | 00:00:00 | 00:00:00 | 00:00:00 | |
| DO3DL | 2026-09-02 01:12:25 | 52.13019 | 6.26302 | 119° | 7km/h | 28501m | 5.9m/s | -47.9°C | 0.7% | 15.8hPa | 2.6V | 00:00:00 | 00:00:00 | 00:00:00 | |
| GOEST3-10 | 2026-09-02 01:12:23 | 52.13023 | 6.26296 | 130° | 18km/h | 28486m | 4.2m/s | -47.9°C | 3.1% | 15.8hPa | 2.6V | 00:00:00 | 00:00:00 | 00:00:00 | |
| DM0DOS-11 | 2026-09-02 01:12:22 | 52.13030 | 6.26259 | 94° | 18km/h | 28460m | 4.6m/s | -48°C | 3.1% | 15.9hPa | 2.6V | 08:30:00 | 01:55:48 | 00:00:00 | |
| AA1-15 | 2026-09-02 01:12:22 | 52.13025 | 6.26291 | 117° | 15km/h | 28481m | 6m/s | -48°C | 0.1% | 15.8hPa | 2.6V | 18:12:15 | 01:55:52 | 00:00:00 | |
| DO2JMG | 2026-09-02 01:12:21 | 52.13027 | 6.26285 | 108° | 20km/h | 28474m | 6.2m/s | -48°C | 0.1% | 15.9hPa | 2.5V | 18:12:15 | 01:55:51 | 00:00:00 | |
| HSKMA3-T | 2026-09-02 01:12:19 | 52.13029 | 6.26267 | 98° | 24km/h | 28464m | 4.1m/s | -48°C | 0.1% | 15.9hPa | 2.5V | 18:12:15 | 01:55:49 | 00:00:00 | |
| DL1XH-west | 2026-09-02 01:12:17 | 52.13030 | 6.26252 | 93° | 13km/h | 28455m | 6.2m/s | -48°C | 0.1% | 15.9hPa | 2.6V | 18:12:15 | 01:55:47 | 00:00:00 | |
| AA1-15 | 2026-09-02 01:12:11 | 52.13035 | 6.26223 | 90° | 27km/h | 28423m | 5.4m/s | -47.9°C | 0.1% | 16hPa | 2.6V | 18:12:15 | 01:55:41 | 00:00:00 | |
| DO2JMG | 2026-09-02 01:12:10 | 52.13034 | 6.26211 | 81° | 31km/h | 28417m | 4.8m/s | -47.9°C | 0.1% | 16hPa | 2.5V | 18:12:15 | 01:55:40 | 00:00:00 | |
| DM0DOS-11 | 2026-09-02 01:12:10 | 52.13029 | 6.26189 | 60° | 26km/h | 28407m | 4.8m/s | -47.8°C | 3.1% | 16hPa | 2.5V | 08:30:00 | 01:55:38 | 00:00:00 | |
| HSKMA3-T | 2026-09-02 01:12:08 | 52.13029 | 6.26189 | 60° | 26km/h | 28407m | 4.8m/s | -47.8°C | 0.1% | 16hPa | 2.5V | 18:12:15 | 01:55:38 | 00:00:00 | |
| DL1XH-west | 2026-09-02 01:12:06 | 52.13024 | 6.26177 | 52° | 11km/h | 28397m | 5m/s | -47.8°C | 0% | 16.1hPa | 2.6V | 18:12:15 | 01:55:36 | 00:00:00 | |
| AA1-15 | 2026-09-02 01:12:00 | 52.13025 | 6.26145 | 69° | 22km/h | 28368m | 5.4m/s | -47.8°C | 0.1% | 16.1hPa | 2.6V | 18:12:15 | 01:55:30 | 00:00:00 | |
| EDDB2-12 | 2026-09-02 01:12:00 | 52.13023 | 6.26137 | 53° | 20km/h | 28363m | 5.6m/s | -47.8°C | 0.7% | 16.1hPa | 2.5V | 00:00:00 | 00:00:00 | 00:00:00 | |
| DM0DOS-11 | 2026-09-02 01:11:59 | 52.13019 | 6.26131 | 42° | 22km/h | 28357m | 4.8m/s | -47.7°C | 3% | 16.2hPa | 2.5V | 08:30:00 | 01:55:28 | 00:00:00 | |
| HSKMA3-T | 2026-09-02 01:11:58 | 52.13019 | 6.26131 | 43° | 22km/h | 28357m | 4.8m/s | -47.7°C | 0% | 16.2hPa | 2.5V | 18:12:15 | 01:55:28 | 00:00:00 | |
| DL1XH-west | 2026-09-02 01:11:56 | 52.13012 | 6.26121 | 46° | 13km/h | 28347m | 5.1m/s | -47.7°C | 0% | 16.2hPa | 2.6V | 18:12:15 | 01:55:26 | 00:00:00 | |
| DD1CC8 | 2026-09-02 01:11:56 | 52.13011 | 6.26117 | 75° | 9km/h | 28342m | 4.6m/s | -47.8°C | 0.7% | 16.2hPa | 2.5V | 00:00:00 | 00:00:00 | 00:00:00 | |
| DD1CC2-15 | 2026-09-02 01:11:54 | 52.13010 | 6.26117 | 76° | 11km/h | 28343m | 4.6m/s | -47.8°C | 0.8% | 16.2hPa | 2.5V | 00:00:00 | 00:00:00 | 00:00:00 | |
| DM0DOS-11 | 2026-09-02 01:11:53 | 52.13015 | 6.26056 | 83° | 18km/h | 28306m | 5.8m/s | -48.3°C | 3.2% | 16.3hPa | 2.5V | 08:30:00 | 01:55:18 | 00:00:00 | |
| BIOWL1-15 | 2026-09-02 01:11:50 | 52.13014 | 6.26074 | 94° | 27km/h | 28316m | 3.9m/s | -48.2°C | 0.1% | 16.3hPa | 2.6V | 18:12:15 | 01:55:20 | 00:00:00 | |
| AA1-15 | 2026-09-02 01:11:49 | 52.13015 | 6.26064 | 93° | 24km/h | 28311m | 5.3m/s | -48.3°C | 0.1% | 16.3hPa | 2.6V | 18:12:15 | 01:55:19 | 00:00:00 | |
| HSKMA3-T | 2026-09-02 01:11:47 | 52.13014 | 6.26050 | 59° | 13km/h | 28300m | 5m/s | -48.3°C | 0.2% | 16.3hPa | 2.5V | 18:12:15 | 01:55:17 | 00:00:00 | |
| DL1XH-west | 2026-09-02 01:11:45 | 52.13007 | 6.26043 | 20° | 22km/h | 28289m | 6.9m/s | -48.2°C | 0.1% | 16.3hPa | 2.6V | 18:12:15 | 01:55:15 | 00:00:00 | |
| DO1YAY-16 | 2026-09-02 01:11:44 | 52.12994 | 6.26037 | 15° | 27km/h | 28278m | 4.8m/s | -48.1°C | 0.8% | 16.4hPa | 2.6V | 00:00:00 | 00:00:00 | 00:00:00 | |
| DM0DOS-11 | 2026-09-02 01:11:43 | 52.12976 | 6.26019 | 74° | 15km/h | 28251m | 5.3m/s | -47.8°C | 3.1% | 16.4hPa | 2.6V | 08:30:00 | 01:55:08 | 00:00:00 | |
| BIOWL1-15 | 2026-09-02 01:11:40 | 52.12979 | 6.26027 | 37° | 13km/h | 28262m | 6.1m/s | -47.9°C | 0% | 16.4hPa | 2.5V | 18:12:15 | 01:55:10 | 00:00:00 | |
| DL3AQ-11 | 2026-09-02 01:11:39 | 52.12976 | 6.26019 | 74° | 15km/h | 28251m | 5.3m/s | -47.8°C | 0.8% | 16.4hPa | 2.5V | 00:00:00 | 00:00:00 | 00:00:00 | |
| DL1XH-15 | 2026-09-02 01:11:38 | 52.12973 | 6.26004 | 63° | 24km/h | 28239m | 5.6m/s | -47.8°C | 3% | 16.4hPa | 2.5V | 08:30:00 | 01:55:06 | 00:00:00 | |
| AA1-15 | 2026-09-02 01:11:38 | 52.12976 | 6.26019 | 74° | 15km/h | 28251m | 5.3m/s | -47.8°C | 0.1% | 16.4hPa | 2.6V | 18:12:15 | 01:55:08 | 00:00:00 | |
| HSKMA3-T | 2026-09-02 01:11:36 | 52.12973 | 6.26004 | 63° | 24km/h | 28239m | 5.6m/s | -47.8°C | 0% | 16.4hPa | 2.5V | 18:12:15 | 01:55:06 | 00:00:00 | |
| DL1XH-west | 2026-09-02 01:11:35 | 52.12969 | 6.25996 | 55° | 24km/h | 28235m | 4.3m/s | -47.8°C | 0.1% | 16.5hPa | 2.5V | 18:12:15 | 01:55:05 | 00:00:00 | |
| DD1CC2-15 | 2026-09-02 01:11:33 | 52.12966 | 6.25988 | 48° | 22km/h | 28230m | 6.1m/s | -47.8°C | 0.8% | 16.5hPa | 2.6V | 00:00:00 | 00:00:00 | 00:00:00 | |
| DM0DOS-11 | 2026-09-02 01:11:32 | 52.12931 | 6.25975 | 5° | 22km/h | 28196m | 4.3m/s | -47.8°C | 3% | 16.6hPa | 2.6V | 08:30:00 | 01:54:58 | 00:00:00 | |
| DO2JMG | 2026-09-02 01:11:30 | 52.12945 | 6.25977 | 4° | 27km/h | 28206m | 6.5m/s | -47.8°C | 0.1% | 16.5hPa | 2.5V | 18:12:15 | 01:55:00 | 00:00:00 | |
| BIOWL1-15 | 2026-09-02 01:11:29 | 52.12938 | 6.25976 | 6° | 27km/h | 28200m | 5.1m/s | -47.8°C | 0.1% | 16.6hPa | 2.5V | 18:12:15 | 01:54:59 | 00:00:00 | |
| EDDB2-12 | 2026-09-02 01:11:29 | 52.12931 | 6.25975 | 5° | 22km/h | 28196m | 4.3m/s | -47.8°C | 0.7% | 16.6hPa | 2.5V | 00:00:00 | 00:00:00 | 00:00:00 | |
| DL1XH-15 | 2026-09-02 01:11:28 | 52.12924 | 6.25974 | 21° | 7km/h | 28184m | 6m/s | -47.8°C | 3% | 16.6hPa | 2.5V | 08:30:00 | 01:54:56 | 00:00:00 | |
| AA1-15 | 2026-09-02 01:11:27 | 52.12927 | 6.25975 | 6° | 15km/h | 28190m | 6.4m/s | -47.8°C | 0.1% | 16.6hPa | 2.6V | 18:12:15 | 01:54:57 | 00:00:00 | |
| HSKMA3-T | 2026-09-02 01:11:26 | 52.12924 | 6.25974 | 21° | 7km/h | 28184m | 6m/s | -47.8°C | 0.1% | 16.6hPa | 2.5V | 18:12:15 | 01:54:56 | 00:00:00 | |
| DL1XH-west | 2026-09-02 01:11:25 | 52.12923 | 6.25972 | 85° | 7km/h | 28178m | 4.8m/s | -47.8°C | 0% | 16.6hPa | 2.5V | 18:12:15 | 01:54:55 | 00:00:00 | |
| DF5WG-10 | 2026-09-02 01:11:25 | 52.12923 | 6.25972 | 85° | 15km/h | 28179m | 4.7m/s | -47.8°C | 3.0% | 16.5hPa | 2.5V | 00:00:00 | 01:54:55 | 00:00:00 | |
| DO3DL | 2026-09-02 01:11:24 | 52.12923 | 6.25972 | 85° | 7km/h | 28179m | 4.8m/s | -47.8°C | 0% | 16.6hPa | 2.5V | 00:00:00 | 00:00:00 | 00:00:00 | |
| DO9LL-15 | 2026-09-02 01:11:23 | 52.12923 | 6.25962 | 81° | 20km/h | 28168m | 6.2m/s | -47.7°C | 3.0% | 16.6hPa | 2.5V | 00:00:00 | 01:54:53 | 00:00:00 | |
| DL4BBY-15 | 2026-09-02 01:11:22 | 52.12921 | 6.25954 | 66° | 20km/h | 28162m | 5.3m/s | -48.2°C | 0% | 0hPa | 2.5V | 00:00:00 | 00:00:00 | 00:00:00 | |
| DM0DOS-11 | 2026-09-02 01:11:21 | 52.12902 | 6.25936 | 355° | 24km/h | 28140m | 6.5m/s | -47.9°C | 3% | 16.7hPa | 2.5V | 08:30:00 | 01:54:48 | 00:00:00 | |
| DO2JMG | 2026-09-02 01:11:19 | 52.12908 | 6.25936 | 14° | 24km/h | 28146m | 6.3m/s | -47.9°C | 0.1% | 16.7hPa | 2.5V | 18:12:15 | 01:54:49 | 00:00:00 | |
| BIOWL1-15 | 2026-09-02 01:11:18 | 52.12902 | 6.25936 | 355° | 24km/h | 28140m | 6.5m/s | -47.9°C | 0% | 16.7hPa | 2.5V | 18:12:15 | 01:54:48 | 00:00:00 | |
| DL1XH-15 | 2026-09-02 01:11:18 | 52.12889 | 6.25940 | 348° | 29km/h | 28128m | 6m/s | -47.9°C | 3% | 16.7hPa | 2.6V | 08:30:00 | 01:54:46 | 00:00:00 | |
| AA1-15 | 2026-09-02 01:11:16 | 52.12889 | 6.25940 | 349° | 29km/h | 28128m | 6m/s | -47.9°C | 0.1% | 16.7hPa | 2.6V | 18:12:15 | 01:54:46 | 00:00:00 | |
| HSKMA3-T | 2026-09-02 01:11:15 | 52.12882 | 6.25942 | 352° | 27km/h | 28122m | 5.5m/s | -47.9°C | 0% | 16.8hPa | 2.5V | 18:12:15 | 01:54:45 | 00:00:00 | |
| DL1XH-west | 2026-09-02 01:11:14 | 52.12876 | 6.25942 | 360° | 24km/h | 28117m | 4.8m/s | -47.9°C | 0.1% | 16.8hPa | 2.5V | 18:12:15 | 01:54:44 | 00:00:00 | |
| DO1YAY-16 | 2026-09-02 01:11:13 | 52.12867 | 6.25942 | 1° | 13km/h | 28106m | 6.8m/s | -48.0°C | 0.8% | 16.8hPa | 2.5V | 00:00:00 | 00:00:00 | 00:00:00 | |
| DL3AQ-11 | 2026-09-02 01:11:12 | 52.12864 | 6.25942 | 11° | 7km/h | 28100m | 5.5m/s | -48.0°C | 0.8% | 16.8hPa | 2.5V | 00:00:00 | 00:00:00 | 00:00:00 | |
| DM0DOS-11 | 2026-09-02 01:11:11 | 52.12857 | 6.25935 | 31° | 18km/h | 28084m | 6.5m/s | -48°C | 3% | 16.8hPa | 2.5V | 08:30:00 | 01:54:38 | 00:00:00 | |
| DO2JMG | 2026-09-02 01:11:08 | 52.12857 | 6.25935 | 32° | 18km/h | 28084m | 6.5m/s | -48°C | 0% | 16.9hPa | 2.5V | 18:12:15 | 01:54:38 | 00:00:00 | |
| BIOWL1-15 | 2026-09-02 01:11:07 | 52.12852 | 6.25931 | 22° | 26km/h | 28078m | 5.6m/s | -48°C | 0% | 16.9hPa | 2.5V | 18:12:15 | 01:54:37 | 00:00:00 | |
| AA1-15 | 2026-09-02 01:11:05 | 52.12838 | 6.25927 | 358° | 29km/h | 28067m | 6.5m/s | -48°C | 0.1% | 16.9hPa | 2.6V | 18:12:15 | 01:54:35 | 00:00:00 | |
| DL1XH-west | 2026-09-02 01:11:03 | 52.12824 | 6.25934 | 332° | 31km/h | 28055m | 5.5m/s | -48.1°C | 0.1% | 16.9hPa | 2.5V | 18:12:15 | 01:54:33 | 00:00:00 | |
| DL3AQ-11 | 2026-09-02 01:10:59 | 52.12792 | 6.25957 | 352° | 16km/h | 28028m | 5.4m/s | -48.3°C | 0.8% | 17.0hPa | 2.5V | 00:00:00 | 00:00:00 | 00:00:00 | |
| DL1XH-15 | 2026-09-02 01:10:58 | 52.12787 | 6.25957 | 29° | 4km/h | 28014m | 6.3m/s | -48.4°C | 3.1% | 17hPa | 2.5V | 08:30:00 | 01:54:26 | 00:00:00 | |
| DO2JMG | 2026-09-02 01:10:57 | 52.12789 | 6.25958 | 359° | 11km/h | 28021m | 7.3m/s | -48.3°C | 0.1% | 17hPa | 2.5V | 18:12:15 | 01:54:27 | 00:00:00 | |
| BIOWL1-15 | 2026-09-02 01:10:56 | 52.12767 | 6.25953 | 336° | 27km/h | 27982m | 6.3m/s | -48.5°C | 0.1% | 17.1hPa | 2.6V | 18:12:15 | 01:54:20 | 00:00:00 | |
| AA1-15 | 2026-09-02 01:10:54 | 52.12785 | 6.25954 | 43° | 9km/h | 28004m | 5.3m/s | -48.5°C | 0.1% | 17.1hPa | 2.6V | 18:12:15 | 01:54:24 | 00:00:00 | |
| DL1XH-west | 2026-09-02 01:10:53 | 52.12783 | 6.25951 | 26° | 15km/h | 27999m | 6.3m/s | -48.5°C | 0.1% | 17.1hPa | 2.5V | 18:12:15 | 01:54:23 | 00:00:00 | |
| DO9LL-15 | 2026-09-02 01:10:53 | 52.12782 | 6.25951 | 27° | 20km/h | 27999m | 6.2m/s | -48.5°C | 3.1% | 17.0hPa | 2.5V | 00:00:00 | 01:54:23 | 00:00:00 | |
| DL4BBY-15 | 2026-09-02 01:10:52 | 52.12779 | 6.25949 | 9° | 20km/h | 27994m | 5.3m/s | -48.9°C | 0% | 0hPa | 2.5V | 00:00:00 | 00:00:00 | 00:00:00 | |
| DO3DL | 2026-09-02 01:10:51 | 52.12778 | 6.25949 | 10° | 20km/h | 27993m | 5.3m/s | 0°C | 0% | 0hPa | 2.5V | 00:00:00 | 00:00:00 | 00:00:00 | |
| DJ3KS | 2026-09-02 01:10:49 | 52.12767 | 6.25953 | 337° | 27km/h | 27982m | 6.3m/s | -48.5°C | 0.8% | 17.1hPa | 2.5V | 00:00:00 | 00:00:00 | 00:00:00 | |
| DL1XH-15 | 2026-09-02 01:10:48 | 52.12745 | 6.25989 | 309° | 31km/h | 27960m | 4.8m/s | -48.6°C | 3.1% | 17.2hPa | 2.5V | 08:30:00 | 01:54:16 | 00:00:00 | |
| DO2JMG | 2026-09-02 01:10:46 | 52.12745 | 6.25989 | 309° | 31km/h | 27960m | 4.8m/s | -48.6°C | 0.1% | 17.2hPa | 2.5V | 18:12:15 | 01:54:16 | 00:00:00 | |
| AA1-15 | 2026-09-02 01:10:44 | 52.12734 | 6.26004 | 335° | 24km/h | 27948m | 6.4m/s | -48.6°C | 0.1% | 17.2hPa | 2.6V | 18:12:15 | 01:54:14 | 00:00:00 | |
| DL1XH-west | 2026-09-02 01:10:42 | 52.12723 | 6.26007 | 4° | 20km/h | 27936m | 4.9m/s | -48.6°C | 0.2% | 17.2hPa | 2.5V | 18:12:15 | 01:54:12 | 00:00:00 | |
| BIOWL1-15 | 2026-09-02 01:10:41 | 52.12719 | 6.26006 | 2° | 15km/h | 27932m | 5m/s | -48.6°C | 0.1% | 17.2hPa | 2.5V | 18:12:15 | 01:54:11 | 00:00:00 | |
| AU51GT2 | 2026-09-02 01:10:40 | 52.12713 | 6.26009 | 301° | 9km/h | 27919m | 6.5m/s | -48.6°C | 0.8% | 17.3hPa | 2.5V | 00:00:00 | 00:00:00 | 00:00:00 | |
| BIOWL9-15 | 2026-09-02 01:10:39 | 52.12712 | 6.26014 | 287° | 15km/h | 27913m | 5.9m/s | -48.7°C | -1.0% | 17.3hPa | 2.5V | 00:00:00 | 00:00:00 | 00:00:00 | |
| DL1XH-15 | 2026-09-02 01:10:38 | 52.12709 | 6.26027 | 301° | 20km/h | 27900m | 6.4m/s | -48.7°C | 3.2% | 17.3hPa | 2.5V | 08:30:00 | 01:54:06 | 00:00:00 | |
| DO2JMG | 2026-09-02 01:10:36 | 52.12709 | 6.26027 | 302° | 20km/h | 27900m | 6.4m/s | -48.7°C | 0.1% | 17.3hPa | 2.5V | 18:12:15 | 01:54:06 | 00:00:00 | |
| AA1-15 | 2026-09-02 01:10:33 | 52.12698 | 6.26048 | 310° | 24km/h | 27883m | 6.8m/s | -48.7°C | 0.2% | 17.4hPa | 2.6V | 18:12:15 | 01:54:03 | 00:00:00 | |
| DL1XH-west | 2026-09-02 01:10:32 | 52.12694 | 6.26055 | 310° | 24km/h | 27876m | 6.2m/s | -48.7°C | 0.1% | 17.4hPa | 2.6V | 18:12:15 | 01:54:02 | 00:00:00 | |
| BIOWL1-15 | 2026-09-02 01:10:30 | 52.12677 | 6.26068 | 3° | 16km/h | 27853m | 5.9m/s | -48.7°C | 0.2% | 17.4hPa | 2.6V | 18:12:15 | 01:53:58 | 00:00:00 | |
| DO2JMG | 2026-09-02 01:10:26 | 52.12672 | 6.26070 | 321° | 7km/h | 27841m | 6.9m/s | -48.7°C | 0.2% | 17.5hPa | 2.5V | 18:12:15 | 01:53:56 | 00:00:00 | |
| HSKMA3-T | 2026-09-02 01:10:25 | 52.12671 | 6.26072 | 280° | 9km/h | 27835m | 5.5m/s | -48.7°C | 0.1% | 17.5hPa | 2.5V | 18:12:15 | 01:53:55 | 00:00:00 | |
| AA1-15 | 2026-09-02 01:10:22 | 52.12669 | 6.26087 | 299° | 13km/h | 27817m | 6.1m/s | -48.8°C | 0.2% | 17.6hPa | 2.6V | 18:12:15 | 01:53:52 | 00:00:00 | |
| DL1XH-west | 2026-09-02 01:10:21 | 52.12668 | 6.26091 | 307° | 15km/h | 27811m | 5.4m/s | -48.8°C | 0.2% | 17.6hPa | 2.6V | 18:12:15 | 01:53:51 | 00:00:00 | |
| DM0DOS-11 | 2026-09-02 01:10:19 | 52.12659 | 6.26106 | 301° | 18km/h | 27795m | 6.5m/s | -48.8°C | 3.2% | 17.6hPa | 2.5V | 08:30:00 | 01:53:48 | 00:00:00 | |
| BIOWL1-15 | 2026-09-02 01:10:17 | 52.12641 | 6.26133 | 355° | 18km/h | 27759m | 5m/s | -48.8°C | 0.1% | 17.7hPa | 2.5V | 18:12:15 | 01:53:42 | 00:00:00 | |
| DO2JMG | 2026-09-02 01:10:15 | 52.12653 | 6.26125 | 313° | 16km/h | 27778m | 5.2m/s | -48.8°C | 0.2% | 17.6hPa | 2.5V | 18:12:15 | 01:53:45 | 00:00:00 | |
| HSKMA3-T | 2026-09-02 01:10:14 | 52.12649 | 6.26129 | 332° | 18km/h | 27772m | 7m/s | -48.8°C | 0.1% | 17.7hPa | 2.5V | 18:12:15 | 01:53:44 | 00:00:00 | |
| AA1-15 | 2026-09-02 01:10:11 | 52.12637 | 6.26134 | 352° | 13km/h | 27754m | 6m/s | -48.8°C | 0.1% | 17.7hPa | 2.6V | 18:12:15 | 01:53:41 | 00:00:00 | |
| DL1XH-west | 2026-09-02 01:10:10 | 52.12634 | 6.26135 | 335° | 7km/h | 27747m | 6.7m/s | -48.7°C | 0.1% | 17.7hPa | 2.6V | 18:12:15 | 01:53:40 | 00:00:00 | |
| DM0DOS-11 | 2026-09-02 01:10:08 | 52.12634 | 6.26139 | 259° | 7km/h | 27736m | 5.2m/s | -48.7°C | 3.1% | 17.8hPa | 2.5V | 08:30:00 | 01:53:38 | 00:00:00 | |
| DL1XH-15 | 2026-09-02 01:10:08 | 52.12633 | 6.26146 | 301° | 9km/h | 27724m | 6.7m/s | -48.8°C | 3.2% | 17.8hPa | 2.6V | 08:30:00 | 01:53:36 | 00:00:00 | |
| BIOWL1-15 | 2026-09-02 01:10:05 | 52.12631 | 6.26149 | 322° | 11km/h | 27717m | 6.4m/s | -48.8°C | 0.1% | 17.8hPa | 2.6V | 18:12:15 | 01:53:35 | 00:00:00 | |
| HSKMA3-T | 2026-09-02 01:10:03 | 52.12626 | 6.26155 | 321° | 13km/h | 27706m | 5.8m/s | -48.9°C | 0.2% | 17.8hPa | 2.5V | 18:12:15 | 01:53:33 | 00:00:00 | |
| DM0DOS-11 | 2026-09-02 01:10:02 | 52.12615 | 6.26166 | 0° | 11km/h | 27675m | 5.7m/s | -48.9°C | 3.2% | 17.9hPa | 2.5V | 08:30:00 | 01:53:28 | 00:00:00 | |
| AA1-15 | 2026-09-02 01:10:00 | 52.12620 | 6.26164 | 325° | 9km/h | 27687m | 5.5m/s | -48.9°C | 0.2% | 17.9hPa | 2.6V | 18:12:15 | 01:53:30 | 00:00:00 | |
| DL1XH-west | 2026-09-02 01:09:59 | 52.12618 | 6.26166 | 346° | 11km/h | 27681m | 6.9m/s | -48.9°C | 0.2% | 17.9hPa | 2.6V | 18:12:15 | 01:53:29 | 00:00:00 | |
| DF2AP-13 | 2026-09-02 01:09:59 | 52.12618 | 6.26166 | 346° | 7km/h | 27681m | 6.8m/s | -48.9°C | 3.2% | 17.9hPa | 2.6V | 00:00:00 | 01:53:29 | 00:00:00 | |
| DL1XH-15 | 2026-09-02 01:09:58 | 52.12611 | 6.26166 | 0° | 5km/h | 27665m | 5.5m/s | -48.9°C | 3.2% | 17.9hPa | 2.5V | 08:30:00 | 01:53:26 | 00:00:00 | |
| BIOWL1-15 | 2026-09-02 01:09:55 | 52.12610 | 6.26166 | 303° | 4km/h | 27658m | 7m/s | -48.9°C | 0.2% | 18hPa | 2.6V | 18:12:15 | 01:53:25 | 00:00:00 | |
| HSKMA3-T | 2026-09-02 01:09:53 | 52.12611 | 6.26170 | 236° | 7km/h | 27645m | 5.5m/s | -48.9°C | 0.2% | 18hPa | 2.5V | 18:12:15 | 01:53:23 | 00:00:00 | |
| AA1-15 | 2026-09-02 01:09:49 | 52.12608 | 6.26175 | 348° | 7km/h | 27621m | 5.7m/s | -49°C | 0.2% | 18.1hPa | 2.6V | 18:12:15 | 01:53:19 | 00:00:00 | |
| DL1XH-15 | 2026-09-02 01:09:48 | 52.12605 | 6.26178 | 322° | 5km/h | 27601m | 5m/s | -48.9°C | 3.3% | 18.1hPa | 2.5V | 08:30:00 | 01:53:16 | 00:00:00 | |
| DL1XH-west | 2026-09-02 01:09:48 | 52.12607 | 6.26175 | 336° | 5km/h | 27614m | 7.2m/s | -49°C | 0.3% | 18.1hPa | 2.6V | 18:12:15 | 01:53:18 | 00:00:00 | |
| DO2JMG | 2026-09-02 01:09:45 | 52.12603 | 6.26179 | 335° | 7km/h | 27596m | 6.7m/s | -48.9°C | 0.2% | 18.2hPa | 2.5V | 18:12:15 | 01:53:15 | 00:00:00 | |
| BIOWL1-15 | 2026-09-02 01:09:44 | 52.12602 | 6.26180 | 346° | 5km/h | 27589m | 5.9m/s | -48.9°C | 0.2% | 18.2hPa | 2.6V | 18:12:15 | 01:53:14 | 00:00:00 | |
| HSKMA3-T | 2026-09-02 01:09:43 | 52.12601 | 6.26181 | 345° | 4km/h | 27584m | 4.8m/s | -48.8°C | 0.2% | 18.2hPa | 2.6V | 18:12:15 | 01:53:13 | 00:00:00 | |
| DC6BW-12 | 2026-09-02 01:09:42 | 52.12601 | 6.26181 | 346° | 4km/h | 27584m | 4.8m/s | -48.8°C | 0.9% | 18.2hPa | 2.5V | 00:00:00 | 00:00:00 | 00:00:00 | |
| DL3AQ-11 | 2026-09-02 01:09:39 | 52.12609 | 6.26185 | 209° | 4km/h | 27555m | 6.5m/s | -48.7°C | 0.8% | 18.3hPa | 2.5V | 00:00:00 | 00:00:00 | 00:00:00 | |
| DL1XH-15 | 2026-09-02 01:09:38 | 52.12606 | 6.26186 | 355° | 11km/h | 27541m | 5.7m/s | -48.6°C | 3.2% | 18.3hPa | 2.5V | 08:30:00 | 01:53:06 | 00:00:00 | |
| DL1XH-west | 2026-09-02 01:09:38 | 52.12609 | 6.26185 | 210° | 4km/h | 27554m | 6.5m/s | -48.7°C | 0.2% | 18.3hPa | 2.6V | 18:12:15 | 01:53:08 | 00:00:00 | |
| DO2JMG | 2026-09-02 01:09:35 | 52.12603 | 6.26187 | 354° | 15km/h | 27535m | 5.2m/s | -48.6°C | 0.2% | 18.3hPa | 2.5V | 18:12:15 | 01:53:05 | 00:00:00 | |
| BIOWL1-15 | 2026-09-02 01:09:34 | 52.12600 | 6.26188 | 346° | 15km/h | 27530m | 5.2m/s | -48.6°C | 0.2% | 18.3hPa | 2.5V | 18:12:15 | 01:53:04 | 00:00:00 | |
| DM0DOS-11 | 2026-09-02 01:09:32 | 52.12598 | 6.26199 | 289° | 2km/h | 27494m | 6.4m/s | -48.5°C | 3.2% | 18.4hPa | 2.5V | 08:30:00 | 01:52:58 | 00:00:00 | |
| HSKMA3-T | 2026-09-02 01:09:32 | 52.12596 | 6.26191 | 289° | 5km/h | 27517m | 6.1m/s | -48.6°C | 0.2% | 18.4hPa | 2.6V | 18:12:15 | 01:53:02 | 00:00:00 | |
| DL1XH-west | 2026-09-02 01:09:28 | 52.12598 | 6.26199 | 289° | 2km/h | 27494m | 6.4m/s | -48.5°C | 0.2% | 18.4hPa | 2.5V | 18:12:15 | 01:52:58 | 00:00:00 | |
| AA1-15 | 2026-09-02 01:09:27 | 52.12597 | 6.26199 | 339° | 4km/h | 27489m | 5.6m/s | -48.5°C | 0.2% | 18.4hPa | 2.6V | 18:12:15 | 01:52:57 | 00:00:00 | |
| DO2JMG | 2026-09-02 01:09:24 | 52.12596 | 6.26201 | 217° | 4km/h | 27471m | 6.8m/s | -48.4°C | 0.2% | 18.5hPa | 2.5V | 18:12:15 | 01:52:54 | 00:00:00 | |
| BIOWL1-15 | 2026-09-02 01:09:23 | 52.12599 | 6.26203 | 288° | 0km/h | 27454m | 5.9m/s | -48.4°C | 0.2% | 18.6hPa | 2.6V | 18:12:15 | 01:52:51 | 00:00:00 | |
| HSKMA3-T | 2026-09-02 01:09:22 | 52.12599 | 6.26202 | 197° | 5km/h | 27459m | 4.6m/s | -48.4°C | 0.1% | 18.5hPa | 2.6V | 18:12:15 | 01:52:52 | 00:00:00 | |
| DL4BBY-15 | 2026-09-02 01:09:22 | 52.12599 | 6.26202 | 198° | 7km/h | 27459m | 4.6m/s | -48.8°C | 0% | 0hPa | 2.6V | 00:00:00 | 00:00:00 | 00:00:00 | |
| DF5WG-10 | 2026-09-02 01:09:21 | 52.12599 | 6.26203 | 288° | 5km/h | 27455m | 5.8m/s | -48.3°C | 3.2% | 18.5hPa | 2.6V | 00:00:00 | 01:52:51 | 00:00:00 | |
| DD1CC8 | 2026-09-02 01:09:20 | 52.12599 | 6.26202 | 20° | 4km/h | 27448m | 7.2m/s | -48.3°C | 0.8% | 18.6hPa | 2.6V | 00:00:00 | 00:00:00 | 00:00:00 | |
| DL1XH-15 | 2026-09-02 01:09:18 | 52.12592 | 6.26195 | 66° | 5km/h | 27422m | 5.6m/s | -48.2°C | 3.1% | 18.6hPa | 2.6V | 08:30:00 | 01:52:46 | 00:00:00 | |
| DL1XH-west | 2026-09-02 01:09:17 | 52.12593 | 6.26197 | 46° | 7km/h | 27428m | 6.8m/s | -48.2°C | 0.1% | 18.6hPa | 2.5V | 18:12:15 | 01:52:47 | 00:00:00 | |
| AA1-15 | 2026-09-02 01:09:16 | 52.12592 | 6.26195 | 66° | 5km/h | 27422m | 5.6m/s | -48.2°C | 0.1% | 18.6hPa | 2.6V | 18:12:15 | 01:52:46 | 00:00:00 | |
| DO2JMG | 2026-09-02 01:09:13 | 52.12591 | 6.26193 | 333° | 5km/h | 27404m | 6.7m/s | -48.2°C | 0.1% | 18.7hPa | 2.5V | 18:12:15 | 01:52:43 | 00:00:00 | |
| HSKMA3-T | 2026-09-02 01:09:11 | 52.12588 | 6.26197 | 300° | 9km/h | 27392m | 5.7m/s | -48.3°C | 0.1% | 18.7hPa | 2.6V | 18:12:15 | 01:52:41 | 00:00:00 | |
| BIOWL1-15 | 2026-09-02 01:09:10 | 52.12588 | 6.26200 | 273° | 7km/h | 27385m | 7m/s | -48.2°C | 0.1% | 18.7hPa | 2.6V | 18:12:15 | 01:52:40 | 00:00:00 | |
| DL1XH-west | 2026-09-02 01:09:06 | 52.12588 | 6.26200 | 40° | 9km/h | 27363m | 6.9m/s | -48.3°C | 0.1% | 18.8hPa | 2.5V | 18:12:15 | 01:52:36 | 00:00:00 | |
| AA1-15 | 2026-09-02 01:09:05 | 52.12585 | 6.26198 | 27° | 15km/h | 27356m | 7.3m/s | -48.3°C | 0.1% | 18.8hPa | 2.6V | 18:12:15 | 01:52:35 | 00:00:00 | |
| DO2JMG | 2026-09-02 01:09:03 | 52.12573 | 6.26190 | 19° | 15km/h | 27338m | 7m/s | -48.3°C | 0.1% | 18.9hPa | 2.5V | 18:12:15 | 01:52:32 | 00:00:00 | |
| BIOWL1-15 | 2026-09-02 01:09:00 | 52.12549 | 6.26189 | 27° | 15km/h | 27266m | 6.6m/s | -48.3°C | 0.1% | 19.1hPa | 2.5V | 18:12:15 | 01:52:20 | 00:00:00 | |
| DM0DOS-11 | 2026-09-02 01:08:59 | 52.12568 | 6.26192 | 309° | 7km/h | 27314m | 6.5m/s | -48.2°C | 3.1% | 18.9hPa | 2.5V | 08:30:00 | 01:52:28 | 00:00:00 | |
| HSKMA3-T | 2026-09-02 01:08:59 | 52.12569 | 6.26190 | 298° | 5km/h | 27320m | 5.2m/s | -48.3°C | 0.1% | 18.9hPa | 2.6V | 18:12:15 | 01:52:29 | 00:00:00 | |
| DL3AQ-11 | 2026-09-02 01:08:59 | 52.12568 | 6.26192 | 309° | 7km/h | 27314m | 6.5m/s | -48.3°C | 0.8% | 18.9hPa | 2.5V | 00:00:00 | 00:00:00 | 00:00:00 | |
| DL1XH-15 | 2026-09-02 01:08:58 | 52.12563 | 6.26197 | 337° | 13km/h | 27302m | 5.9m/s | -48.2°C | 3.1% | 19hPa | 2.5V | 08:30:00 | 01:52:26 | 00:00:00 | |
| DL1XH-west | 2026-09-02 01:08:56 | 52.12563 | 6.26197 | 337° | 13km/h | 27302m | 5.9m/s | -48.2°C | 0.1% | 19hPa | 2.5V | 18:12:15 | 01:52:26 | 00:00:00 | |
| AA1-15 | 2026-09-02 01:08:54 | 52.12557 | 6.26198 | 9° | 11km/h | 27290m | 6.4m/s | -48.2°C | 0.1% | 19hPa | 2.6V | 18:12:15 | 01:52:24 | 00:00:00 | |
| DO2JMG | 2026-09-02 01:08:52 | 52.12554 | 6.26195 | 52° | 9km/h | 27277m | 5.7m/s | -48.2°C | 0.1% | 19.1hPa | 2.5V | 18:12:15 | 01:52:22 | 00:00:00 | |
| DD1CC8 | 2026-09-02 01:08:50 | 52.12545 | 6.26187 | 9° | 18km/h | 27259m | 6.2m/s | -48.3°C | 0.8% | 19.1hPa | 2.6V | 00:00:00 | 00:00:00 | 00:00:00 | |
| DM0DOS-11 | 2026-09-02 01:08:49 | 52.12540 | 6.26187 | 355° | 24km/h | 27253m | 5.6m/s | -48.4°C | 3.2% | 19.1hPa | 2.6V | 08:30:00 | 01:52:18 | 00:00:00 | |
| DL1XH-15 | 2026-09-02 01:08:48 | 52.12529 | 6.26193 | 329° | 24km/h | 27242m | 7.1m/s | -48.6°C | 3.2% | 19.1hPa | 2.5V | 08:30:00 | 01:52:16 | 00:00:00 | |
| HSKMA3-T | 2026-09-02 01:08:47 | 52.12534 | 6.26189 | 341° | 24km/h | 27248m | 5.1m/s | -48.5°C | 0.2% | 19.1hPa | 2.5V | 18:12:15 | 01:52:17 | 00:00:00 | |
| DL1XH-west | 2026-09-02 01:08:45 | 52.12524 | 6.26198 | 316° | 22km/h | 27234m | 6.8m/s | -48.6°C | 0.2% | 19.2hPa | 2.5V | 18:12:15 | 01:52:15 | 00:00:00 | |
| BIOWL1-15 | 2026-09-02 01:08:44 | 52.12520 | 6.26205 | 307° | 22km/h | 27228m | 5.8m/s | -48.6°C | 0.2% | 19.2hPa | 2.5V | 18:12:15 | 01:52:14 | 00:00:00 | |
| DO2JMG | 2026-09-02 01:08:41 | 52.12509 | 6.26223 | 330° | 20km/h | 27210m | 5.2m/s | -48.5°C | 0.2% | 19.2hPa | 2.5V | 18:12:15 | 01:52:11 | 00:00:00 | |
| GOEST3-10 | 2026-09-02 01:08:40 | 52.12505 | 6.26226 | 339° | 16km/h | 27205m | 5.0m/s | -48.5°C | 3.2% | 19.2hPa | 2.5V | 00:00:00 | 00:00:00 | 00:00:00 | |
| DL1XH-15 | 2026-09-02 01:08:38 | 52.12490 | 6.26234 | 341° | 18km/h | 27181m | 6m/s | -48.4°C | 3.2% | 19.3hPa | 2.5V | 08:30:00 | 01:52:06 | 00:00:00 | |
| HSKMA3-T | 2026-09-02 01:08:37 | 52.12494 | 6.26232 | 342° | 13km/h | 27187m | 5.4m/s | -48.4°C | 0.2% | 19.3hPa | 2.6V | 18:12:15 | 01:52:07 | 00:00:00 | |
| DL1XH-west | 2026-09-02 01:08:35 | 52.12486 | 6.26236 | 342° | 24km/h | 27174m | 6.8m/s | -48.3°C | 0.2% | 19.4hPa | 2.5V | 18:12:15 | 01:52:05 | 00:00:00 | |
| BIOWL1-15 | 2026-09-02 01:08:33 | 52.12474 | 6.26245 | 325° | 27km/h | 27164m | 4.3m/s | -48.3°C | 0.2% | 19.4hPa | 2.5V | 18:12:15 | 01:52:03 | 00:00:00 | |
| DO2JMG | 2026-09-02 01:08:31 | 52.12465 | 6.26259 | 298° | 20km/h | 27152m | 6.6m/s | -48.2°C | 0.2% | 19.4hPa | 2.6V | 18:12:15 | 01:52:01 | 00:00:00 | |
| GOEST3-10 | 2026-09-02 01:08:30 | 52.12464 | 6.26266 | 285° | 16km/h | 27146m | 5.4m/s | -48.1°C | 3.2% | 19.4hPa | 2.5V | 00:00:00 | 00:00:00 | 00:00:00 | |
| DL8DAS-14 | 2026-09-02 01:08:29 | 52.12462 | 6.26277 | 290° | 11km/h | 27134m | 6.0m/s | -48.0°C | 0.8% | 19.5hPa | 2.6V | 00:00:00 | 00:00:00 | 00:00:00 | |
| DL1XH-15 | 2026-09-02 01:08:28 | 52.12460 | 6.26284 | 299° | 7km/h | 27122m | 5.7m/s | -48°C | 3.1% | 19.5hPa | 2.6V | 08:30:00 | 01:51:56 | 00:00:00 | |
| HSKMA3-T | 2026-09-02 01:08:26 | 52.12460 | 6.26284 | 299° | 7km/h | 27123m | 5.7m/s | -48°C | 0.1% | 19.5hPa | 2.6V | 18:12:15 | 01:51:56 | 00:00:00 | |
| DL1XH-west | 2026-09-02 01:08:25 | 52.12459 | 6.26286 | 291° | 5km/h | 27116m | 6.6m/s | -47.9°C | 0.1% | 19.5hPa | 2.5V | 18:12:15 | 01:51:55 | 00:00:00 | |
| AA1-15 | 2026-09-02 01:08:22 | 52.12455 | 6.26295 | 325° | 16km/h | 27100m | 6.5m/s | -47.9°C | 0.1% | 19.6hPa | 2.5V | 18:12:15 | 01:51:52 | 00:00:00 | |
| DO2JMG | 2026-09-02 01:08:21 | 52.12451 | 6.26299 | 329° | 22km/h | 27094m | 7m/s | -47.9°C | 0.1% | 19.6hPa | 2.6V | 18:12:15 | 01:51:51 | 00:00:00 | |
| DM0DOS-11 | 2026-09-02 01:08:19 | 52.12436 | 6.26319 | 305° | 26km/h | 27078m | 6.4m/s | -47.9°C | 3.1% | 19.6hPa | 2.5V | 08:30:00 | 01:51:48 | 00:00:00 | |
| HSKMA3-T | 2026-09-02 01:08:16 | 52.12433 | 6.26335 | 266° | 20km/h | 27065m | 5.8m/s | -47.9°C | 0.1% | 19.7hPa | 2.6V | 18:12:15 | 01:51:46 | 00:00:00 | |
| DL1XH-west | 2026-09-02 01:08:14 | 52.12434 | 6.26347 | 249° | 11km/h | 27054m | 6m/s | -47.9°C | 0.2% | 19.7hPa | 2.5V | 18:12:15 | 01:51:44 | 00:00:00 | |
| BIOWL1-15 | 2026-09-02 01:08:14 | 52.12434 | 6.26353 | 312° | 7km/h | 27043m | 4.7m/s | -47.9°C | 0.1% | 19.8hPa | 2.5V | 18:12:15 | 01:51:42 | 00:00:00 | |
| AA1-15 | 2026-09-02 01:08:11 | 52.12433 | 6.26356 | 314° | 11km/h | 27038m | 5.2m/s | -47.9°C | 0.1% | 19.8hPa | 2.5V | 18:12:15 | 01:51:41 | 00:00:00 | |
| DM0DOS-11 | 2026-09-02 01:08:09 | 52.12426 | 6.26373 | 296° | 24km/h | 27020m | 5.5m/s | -47.9°C | 3.1% | 19.8hPa | 2.5V | 08:30:00 | 01:51:38 | 00:00:00 | |
| HSKMA3-T | 2026-09-02 01:08:05 | 52.12416 | 6.26397 | 305° | 20km/h | 27003m | 4.8m/s | -47.8°C | 0.1% | 19.9hPa | 2.6V | 18:12:15 | 01:51:35 | 00:00:00 | |
| DL1XH-west | 2026-09-02 01:08:04 | 52.12414 | 6.26404 | 292° | 18km/h | 26999m | 4m/s | -47.8°C | 0.1% | 19.9hPa | 2.6V | 18:12:15 | 01:51:34 | 00:00:00 | |
| BIOWL1-15 | 2026-09-02 01:08:01 | 52.12421 | 6.26454 | 291° | 16km/h | 26959m | 5.4m/s | -47.6°C | 0% | 20hPa | 2.5V | 18:12:15 | 01:51:27 | 00:00:00 | |
| AA1-15 | 2026-09-02 01:08:00 | 52.12419 | 6.26435 | 242° | 22km/h | 26976m | 4.2m/s | -47.7°C | 0.1% | 20hPa | 2.5V | 18:12:15 | 01:51:30 | 00:00:00 | |
| DF5WG-10 | 2026-09-02 01:08:00 | 52.12419 | 6.26434 | 243° | 27km/h | 26977m | 4.2m/s | -47.6°C | 3.0% | 19.9hPa | 2.5V | 00:00:00 | 01:51:30 | 00:00:00 | |
| DF2AP-13 | 2026-09-02 01:07:59 | 52.12421 | 6.26442 | 250° | 26km/h | 26971m | 5.9m/s | -47.6°C | 3.0% | 19.9hPa | 2.5V | 00:00:00 | 01:51:29 | 00:00:00 | |
| DL1XH-15 | 2026-09-02 01:07:58 | 52.12419 | 6.26461 | 296° | 20km/h | 26954m | 4.5m/s | -47.6°C | 3% | 20hPa | 2.5V | 08:30:00 | 01:51:26 | 00:00:00 | |
| HSKMA3-T | 2026-09-02 01:07:54 | 52.12415 | 6.26480 | 279° | 29km/h | 26943m | 6.3m/s | 0°C | 0% | 20.1hPa | 2.6V | 18:12:15 | 01:51:24 | 00:00:00 | |
| DM0DOS-11 | 2026-09-02 01:07:53 | 52.12421 | 6.26552 | 258° | 24km/h | 26911m | 5.2m/s | -47.9°C | 3% | 20.1hPa | 2.6V | 08:30:00 | 01:51:18 | 00:00:00 | |
| DL1XH-west | 2026-09-02 01:07:53 | 52.12414 | 6.26493 | 269° | 35km/h | 26937m | 5.6m/s | -47.8°C | 0% | 20.1hPa | 2.6V | 18:12:15 | 01:51:23 | 00:00:00 | |
| DO2JMG | 2026-09-02 01:07:50 | 52.12418 | 6.26533 | 255° | 27km/h | 26921m | 6.1m/s | -47.9°C | 0.1% | 20.1hPa | 2.5V | 18:12:15 | 01:51:20 | 00:00:00 | |
| AA1-15 | 2026-09-02 01:07:49 | 52.12420 | 6.26543 | 255° | 24km/h | 26916m | 4.9m/s | -47.9°C | 0.1% | 20.2hPa | 2.5V | 18:12:15 | 01:51:19 | 00:00:00 | |
| DL1XH-15 | 2026-09-02 01:07:48 | 52.12423 | 6.26572 | 271° | 26km/h | 26899m | 6.1m/s | -47.9°C | 3% | 20.2hPa | 2.5V | 08:30:00 | 01:51:16 | 00:00:00 | |
| BIOWL1-15 | 2026-09-02 01:07:47 | 52.12419 | 6.26600 | 286° | 22km/h | 26881m | 4.9m/s | -48°C | 0.1% | 20.2hPa | 2.5V | 18:12:15 | 01:51:13 | 00:00:00 | |
| DO3MHA-11 | 2026-09-02 01:07:46 | 52.12422 | 6.26572 | 272° | 29km/h | 26899m | 6.1m/s | -47.9°C | 3.0% | 20.1hPa | 2.5V | 00:00:00 | 01:51:16 | 08:30:00 | |
| DM0DOS-11 | 2026-09-02 01:07:43 | 52.12423 | 6.26661 | 245° | 38km/h | 26855m | 4.6m/s | -48.2°C | 3.1% | 20.3hPa | 2.5V | 08:30:00 | 01:51:08 | 00:00:00 | |
| DL1XH-west | 2026-09-02 01:07:42 | 52.12418 | 6.26609 | 280° | 24km/h | 26877m | 3.8m/s | -48.1°C | 0.1% | 20.3hPa | 2.6V | 18:12:15 | 01:51:12 | 00:00:00 | |
| DO2JMG | 2026-09-02 01:07:39 | 52.12420 | 6.26646 | 253° | 37km/h | 26860m | 5.5m/s | -48.2°C | 0.2% | 20.3hPa | 2.5V | 18:12:15 | 01:51:09 | 00:00:00 | |
| AA1-15 | 2026-09-02 01:07:38 | 52.12423 | 6.26661 | 246° | 38km/h | 26855m | 4.6m/s | -48.2°C | 0.1% | 20.3hPa | 2.5V | 18:12:15 | 01:51:08 | 00:00:00 | |
| GOEST3-10 | 2026-09-02 01:07:38 | 52.12423 | 6.26661 | 246° | 22km/h | 26856m | 4.6m/s | -48.2°C | 3.1% | 20.3hPa | 2.5V | 00:00:00 | 00:00:00 | 00:00:00 | |
| DO3MHA-11 | 2026-09-02 01:07:36 | 52.12431 | 6.26684 | 233° | 22km/h | 26844m | 5.7m/s | -48.2°C | 3.2% | 20.3hPa | 2.5V | 00:00:00 | 01:51:06 | 00:00:00 | |
| BIOWL1-15 | 2026-09-02 01:07:36 | 52.12431 | 6.26685 | 232° | 27km/h | 26844m | 5.8m/s | -48.2°C | 0.2% | 20.4hPa | 2.6V | 18:12:15 | 01:51:06 | 00:00:00 | |
| DO1YAY-16 | 2026-09-02 01:07:35 | 52.12436 | 6.26693 | 227° | 22km/h | 26839m | 4.6m/s | -48.2°C | 0.8% | 20.4hPa | 2.5V | 00:00:00 | 00:00:00 | 00:00:00 | |
| DM0DOS-11 | 2026-09-02 01:07:33 | 52.12453 | 6.26748 | 230° | 18km/h | 26800m | 6m/s | -48.3°C | 3.1% | 20.5hPa | 2.5V | 08:30:00 | 01:50:58 | 00:00:00 | |
| HSKMA3-T | 2026-09-02 01:07:31 | 52.12447 | 6.26724 | 255° | 24km/h | 26817m | 5.1m/s | 0°C | 0% | 0hPa | 2.6V | 18:12:15 | 01:51:01 | 00:00:00 | |
| DO2JMG | 2026-09-02 01:07:29 | 52.12450 | 6.26741 | 246° | 20km/h | 26806m | 6.4m/s | -48.3°C | 0.2% | 20.5hPa | 2.5V | 18:12:15 | 01:50:59 | 00:00:00 | |
| AA1-15 | 2026-09-02 01:07:27 | 52.12457 | 6.26754 | 220° | 22km/h | 26794m | 5.2m/s | -48.3°C | 0.2% | 20.5hPa | 2.5V | 18:12:15 | 01:50:57 | 00:00:00 | |
| BIOWL1-15 | 2026-09-02 01:07:26 | 52.12461 | 6.26760 | 214° | 24km/h | 26789m | 5.7m/s | -48.3°C | 0.2% | 20.5hPa | 2.6V | 18:12:15 | 01:50:56 | 00:00:00 | |
| DO3MHA-11 | 2026-09-02 01:07:26 | 52.12461 | 6.26760 | 215° | 26km/h | 26789m | 5.6m/s | -48.2°C | 3.1% | 20.5hPa | 2.5V | 00:00:00 | 01:50:56 | 00:00:00 | |
| DJ2DS-15 | 2026-09-02 01:07:24 | 52.12473 | 6.26774 | 222° | 31km/h | 26776m | 6.1m/s | -48.3°C | 0.8% | 20.6hPa | 2.5V | 00:00:00 | 00:00:00 | 00:00:00 | |
| DO9LL-15 | 2026-09-02 01:07:23 | 52.12479 | 6.26784 | 227° | 18km/h | 26771m | 4.6m/s | -48.2°C | 3.2% | 20.5hPa | 2.5V | 00:00:00 | 01:50:53 | 00:00:00 | |
| DL4BBY-15 | 2026-09-02 01:07:22 | 52.12484 | 6.26793 | 227° | 18km/h | 26767m | 3.4m/s | -48.7°C | 0% | 0hPa | 2.5V | 00:00:00 | 00:00:00 | 00:00:00 | |
| DM0DOS-11 | 2026-09-02 01:07:20 | 52.12502 | 6.26813 | 199° | 13km/h | 26745m | 4.3m/s | -48.1°C | 3.1% | 20.7hPa | 2.5V | 08:30:00 | 01:50:48 | 00:00:00 | |
| HSKMA3-T | 2026-09-02 01:07:20 | 52.12494 | 6.26807 | 213° | 22km/h | 26756m | 6.4m/s | 0°C | 0% | 0hPa | 2.6V | 18:12:15 | 01:50:50 | 00:00:00 | |
| DO2JMG | 2026-09-02 01:07:19 | 52.12498 | 6.26811 | 202° | 16km/h | 26750m | 5.6m/s | -48.1°C | 0.1% | 20.7hPa | 2.6V | 18:12:15 | 01:50:49 | 00:00:00 | |
| BIOWL1-15 | 2026-09-02 01:07:16 | 52.12507 | 6.26819 | 226° | 15km/h | 26734m | 5.9m/s | -48.1°C | 0.1% | 20.7hPa | 2.5V | 18:12:15 | 01:50:46 | 00:00:00 | |
| DL1XH-west | 2026-09-02 01:07:10 | 52.12525 | 6.26848 | 224° | 18km/h | 26704m | 4.6m/s | -48.1°C | 0.1% | 20.8hPa | 2.5V | 18:12:15 | 01:50:40 | 00:00:00 | |
| DM0DOS-11 | 2026-09-02 01:07:09 | 52.12532 | 6.26862 | 231° | 24km/h | 26692m | 5.3m/s | -48.2°C | 3.1% | 20.8hPa | 2.6V | 08:30:00 | 01:50:38 | 00:00:00 | |
| HSKMA3-T | 2026-09-02 01:07:09 | 52.12528 | 6.26854 | 231° | 22km/h | 26698m | 6.4m/s | 0°C | 0% | 0hPa | 2.6V | 18:12:15 | 01:50:39 | 00:00:00 | |
| DO2JMG | 2026-09-02 01:07:08 | 52.12531 | 6.26862 | 232° | 24km/h | 26692m | 5.3m/s | -48.2°C | 0.1% | 20.8hPa | 2.6V | 18:12:15 | 01:50:38 | 00:00:00 | |
| BIOWL1-15 | 2026-09-02 01:07:06 | 52.12540 | 6.26876 | 218° | 26km/h | 26683m | 4.8m/s | -48.2°C | 0.1% | 20.9hPa | 2.5V | 18:12:15 | 01:50:36 | 00:00:00 | |
| AA1-15 | 2026-09-02 01:07:05 | 52.12545 | 6.26881 | 204° | 24km/h | 26677m | 6.2m/s | -48.2°C | 0.2% | 20.9hPa | 2.5V | 18:12:15 | 01:50:35 | 00:00:00 | |
| DL1XH-west | 2026-09-02 01:07:00 | 52.12566 | 6.26891 | 242° | 15km/h | 26651m | 6.2m/s | -48.2°C | 0.2% | 21hPa | 2.5V | 18:12:15 | 01:50:30 | 00:00:00 | |
| DM0DOS-11 | 2026-09-02 01:06:59 | 52.12568 | 6.26903 | 262° | 15km/h | 26640m | 4.2m/s | -48.3°C | 3.1% | 21hPa | 2.6V | 08:30:00 | 01:50:28 | 00:00:00 | |
| DO2JMG | 2026-09-02 01:06:58 | 52.12568 | 6.26903 | 263° | 15km/h | 26640m | 4.2m/s | -48.3°C | 0.1% | 21hPa | 2.6V | 18:12:15 | 01:50:28 | 00:00:00 | |
| DF5WG-10 | 2026-09-02 01:06:58 | 52.12568 | 6.26903 | 263° | 18km/h | 26641m | 4.2m/s | -48.3°C | 3.1% | 20.9hPa | 2.5V | 00:00:00 | 01:50:28 | 00:00:00 | |
| DL1XH-15 | 2026-09-02 01:06:57 | 52.12571 | 6.26910 | 193° | 9km/h | 26630m | 5.5m/s | -48.4°C | 3.2% | 21hPa | 2.5V | 08:30:00 | 01:50:26 | 00:00:00 | |
| BIOWL1-15 | 2026-09-02 01:06:55 | 52.12573 | 6.26910 | 168° | 15km/h | 26625m | 5m/s | -48.4°C | 0.1% | 21.1hPa | 2.5V | 18:12:15 | 01:50:25 | 00:00:00 | |
| AA1-15 | 2026-09-02 01:06:55 | 52.12578 | 6.26908 | 166° | 22km/h | 26620m | 5m/s | -48.4°C | 0.2% | 21.1hPa | 2.5V | 18:12:15 | 01:50:24 | 00:00:00 | |
| DL1XH-west | 2026-09-02 01:06:50 | 52.12604 | 6.26905 | 182° | 24km/h | 26598m | 4.9m/s | -48.6°C | 0.3% | 21.1hPa | 2.5V | 18:12:15 | 01:50:20 | 00:00:00 | |
| DO2JMG | 2026-09-02 01:06:48 | 52.12615 | 6.26904 | 166° | 20km/h | 26588m | 5.8m/s | -48.6°C | 0.2% | 21.2hPa | 2.5V | 18:12:15 | 01:50:18 | 00:00:00 | |
| DL1XH-15 | 2026-09-02 01:06:48 | 52.12624 | 6.26899 | 165° | 16km/h | 26577m | 4.7m/s | -48.6°C | 3.2% | 21.2hPa | 2.6V | 08:30:00 | 01:50:16 | 00:00:00 | |
| BIOWL1-15 | 2026-09-02 01:06:44 | 52.12633 | 6.26900 | 200° | 20km/h | 26566m | 6.5m/s | -48.6°C | 0.2% | 21.2hPa | 2.5V | 18:12:15 | 01:50:14 | 00:00:00 | |
| AA1-15 | 2026-09-02 01:06:43 | 52.12638 | 6.26904 | 207° | 22km/h | 26560m | 5.5m/s | -48.6°C | 0.2% | 21.3hPa | 2.5V | 18:12:15 | 01:50:13 | 00:00:00 | |
| DL1XH-west | 2026-09-02 01:06:39 | 52.12657 | 6.26913 | 165° | 16km/h | 26539m | 5.4m/s | -48.5°C | 0.2% | 21.3hPa | 2.5V | 18:12:15 | 01:50:09 | 00:00:00 | |
| DO2JMG | 2026-09-02 01:06:37 | 52.12664 | 6.26907 | 155° | 18km/h | 26529m | 4.6m/s | -48.5°C | 0.2% | 21.4hPa | 2.5V | 18:12:15 | 01:50:07 | 00:00:00 | |
| DL1XH-15 | 2026-09-02 01:06:37 | 52.12668 | 6.26905 | 165° | 20km/h | 26524m | 6.4m/s | -48.5°C | 3.2% | 21.4hPa | 2.6V | 08:30:00 | 01:50:06 | 00:00:00 | |
| BIOWL1-15 | 2026-09-02 01:06:33 | 52.12684 | 6.26902 | 176° | 22km/h | 26508m | 4.7m/s | -48.4°C | 0.2% | 21.4hPa | 2.5V | 18:12:15 | 01:50:03 | 00:00:00 | |
| DM0DOS-11 | 2026-09-02 01:06:33 | 52.12703 | 6.26891 | 157° | 15km/h | 26481m | 6.1m/s | -48.3°C | 3.2% | 21.5hPa | 2.5V | 08:30:00 | 01:49:58 | 00:00:00 | |
| AA1-15 | 2026-09-02 01:06:32 | 52.12689 | 6.26901 | 168° | 18km/h | 26503m | 5.8m/s | -48.4°C | 0.2% | 21.4hPa | 2.5V | 18:12:15 | 01:50:02 | 00:00:00 | |
| DL1XH-west | 2026-09-02 01:06:28 | 52.12702 | 6.26891 | 158° | 15km/h | 26481m | 6.1m/s | -48.3°C | 0.2% | 21.5hPa | 2.5V | 18:12:15 | 01:49:58 | 00:00:00 | |
| DF2AP-13 | 2026-09-02 01:06:28 | 52.12702 | 6.26890 | 158° | 11km/h | 26481m | 6.1m/s | -48.3°C | 3.2% | 21.5hPa | 2.5V | 00:00:00 | 01:49:58 | 00:00:00 | |
| DL1XH-15 | 2026-09-02 01:06:27 | 52.12709 | 6.26887 | 164° | 13km/h | 26471m | 4.2m/s | -48.3°C | 3.1% | 21.5hPa | 2.5V | 08:30:00 | 01:49:56 | 00:00:00 | |
| DO2JMG | 2026-09-02 01:06:26 | 52.12709 | 6.26887 | 164° | 13km/h | 26471m | 4.3m/s | -48.3°C | 0.2% | 21.5hPa | 2.5V | 18:12:15 | 01:49:56 | 00:00:00 | |
| BIOWL1-15 | 2026-09-02 01:06:23 | 52.12715 | 6.26882 | 121° | 5km/h | 26454m | 4.8m/s | -48.3°C | 0.2% | 21.6hPa | 2.5V | 18:12:15 | 01:49:53 | 00:00:00 | |
| AA1-15 | 2026-09-02 01:06:22 | 52.12716 | 6.26880 | 150° | 5km/h | 26449m | 5.5m/s | -48.3°C | 0.1% | 21.6hPa | 2.5V | 18:12:15 | 01:49:52 | 00:00:00 | |
| DL4BBY-15 | 2026-09-02 01:06:22 | 52.12716 | 6.26880 | 150° | 13km/h | 26449m | 5.4m/s | -48.7°C | 0% | 0hPa | 2.6V | 00:00:00 | 00:00:00 | 00:00:00 | |
| DM0DOS-11 | 2026-09-02 01:06:21 | 52.12726 | 6.26874 | 144° | 15km/h | 26426m | 6.4m/s | -48.3°C | 3.1% | 21.7hPa | 2.6V | 08:30:00 | 01:49:48 | 00:00:00 | |
| DL1XH-west | 2026-09-02 01:06:18 | 52.12726 | 6.26874 | 145° | 15km/h | 26426m | 6.4m/s | -48.3°C | 0.2% | 21.7hPa | 2.6V | 18:12:15 | 01:49:48 | 00:00:00 | |
| DO2JMG | 2026-09-02 01:06:16 | 52.12734 | 6.26859 | 134° | 18km/h | 26411m | 6m/s | -48.4°C | 0.2% | 21.8hPa | 2.5V | 18:12:15 | 01:49:45 | 00:00:00 | |
| AA1-15 | 2026-09-02 01:06:11 | 52.12742 | 6.26846 | 61° | 5km/h | 26389m | 7m/s | -48.5°C | 0.2% | 21.8hPa | 2.5V | 18:12:15 | 01:49:41 | 00:00:00 | |
| HSKMA3-T | 2026-09-02 01:06:09 | 52.12738 | 6.26843 | 8° | 11km/h | 26377m | 4.8m/s | 0°C | 0% | 0hPa | 2.5V | 18:12:15 | 01:49:39 | 00:00:00 | |
| DM0DOS-11 | 2026-09-02 01:06:09 | 52.12736 | 6.26843 | 357° | 9km/h | 26372m | 5.8m/s | -48.5°C | 3.1% | 21.9hPa | 2.6V | 08:30:00 | 01:49:38 | 00:00:00 | |
| DL1XH-west | 2026-09-02 01:06:07 | 52.12734 | 6.26843 | 341° | 4km/h | 26366m | 5.5m/s | -48.5°C | 0.2% | 21.9hPa | 2.6V | 18:12:15 | 01:49:37 | 00:00:00 | |
| DO2JMG | 2026-09-02 01:06:05 | 52.12735 | 6.26842 | 133° | 7km/h | 26356m | 4.7m/s | -48.5°C | 0.1% | 21.9hPa | 2.5V | 18:12:15 | 01:49:35 | 00:00:00 | |
| DO3MHA-11 | 2026-09-02 01:06:05 | 52.12735 | 6.26842 | 134° | 15km/h | 26357m | 4.7m/s | -48.5°C | 3.1% | 21.9hPa | 2.6V | 00:00:00 | 01:49:35 | 00:00:00 | |
| DO1YAY-16 | 2026-09-02 01:06:02 | 52.12739 | 6.26826 | 104° | 18km/h | 26339m | 4.4m/s | -48.6°C | 0.8% | 22.0hPa | 2.6V | 00:00:00 | 00:00:00 | 00:00:00 | |
| DL1XH-15 | 2026-09-02 01:06:01 | 52.12730 | 6.26800 | 12° | 20km/h | 26306m | 4.7m/s | -48.7°C | 3.1% | 22.1hPa | 2.6V | 08:30:00 | 01:49:26 | 00:00:00 | |
| AA1-15 | 2026-09-02 01:06:01 | 52.12740 | 6.26813 | 97° | 13km/h | 26329m | 5.4m/s | -48.6°C | 0.2% | 22hPa | 2.5V | 18:12:15 | 01:49:30 | 00:00:00 | |
| BIOWL1-15 | 2026-09-02 01:06:00 | 52.12738 | 6.26805 | 32° | 13km/h | 26318m | 5.7m/s | -48.6°C | 0.1% | 22.1hPa | 2.5V | 18:12:15 | 01:49:28 | 00:00:00 | |
| DM0DOS-11 | 2026-09-02 01:05:59 | 52.12738 | 6.26805 | 31° | 13km/h | 26318m | 5.7m/s | -48.6°C | 3.1% | 22hPa | 2.5V | 08:30:00 | 01:49:28 | 00:00:00 | |
| HSKMA3-T | 2026-09-02 01:05:59 | 52.12740 | 6.26809 | 66° | 9km/h | 26323m | 4.4m/s | 0°C | 0% | 0hPa | 2.5V | 18:12:15 | 01:49:29 | 00:00:00 | |
| DL1XH-west | 2026-09-02 01:05:56 | 52.12730 | 6.26800 | 13° | 20km/h | 26306m | 4.7m/s | -48.7°C | 0.1% | 22.1hPa | 2.6V | 18:12:15 | 01:49:26 | 00:00:00 | |
| DO2JMG | 2026-09-02 01:05:54 | 52.12722 | 6.26798 | 13° | 11km/h | 26297m | 5.5m/s | -48.8°C | 0.2% | 22.1hPa | 2.5V | 18:12:15 | 01:49:24 | 00:00:00 | |
| DL8DAS-14 | 2026-09-02 01:05:53 | 52.12720 | 6.26797 | 41° | 2km/h | 26292m | 6.0m/s | -48.8°C | 0.8% | 22.1hPa | 2.6V | 00:00:00 | 00:00:00 | 00:00:00 | |
| DL3AQ-11 | 2026-09-02 01:05:52 | 52.12723 | 6.26793 | 141° | 13km/h | 26281m | 4.3m/s | -48.9°C | 0.8% | 22.2hPa | 2.6V | 00:00:00 | 00:00:00 | 00:00:00 | |
| DL1XH-15 | 2026-09-02 01:05:51 | 52.12723 | 6.26763 | 46° | 16km/h | 26257m | 4.9m/s | -49.1°C | 3.3% | 22.2hPa | 2.6V | 08:30:00 | 01:49:16 | 00:00:00 | |
| AA1-15 | 2026-09-02 01:05:50 | 52.12725 | 6.26789 | 128° | 15km/h | 26277m | 4.9m/s | -48.9°C | 0.2% | 22.2hPa | 2.5V | 18:12:15 | 01:49:20 | 00:00:00 | |
| GOEST3-10 | 2026-09-02 01:05:50 | 52.12725 | 6.26789 | 128° | 16km/h | 26277m | 4.9m/s | -48.9°C | 3.2% | 22.1hPa | 2.5V | 00:00:00 | 01:49:20 | 00:00:00 | |
| DM0DOS-11 | 2026-09-02 01:05:49 | 52.12727 | 6.26776 | 82° | 18km/h | 26266m | 5m/s | -49°C | 3.2% | 22.2hPa | 2.5V | 08:30:00 | 01:49:18 | 00:00:00 | |
| BIOWL1-15 | 2026-09-02 01:05:48 | 52.12727 | 6.26776 | 82° | 18km/h | 26266m | 5m/s | -49°C | 0.2% | 22.2hPa | 2.5V | 18:12:15 | 01:49:18 | 00:00:00 | |
| DL1XH-west | 2026-09-02 01:05:45 | 52.12720 | 6.26759 | 33° | 13km/h | 26251m | 6.1m/s | -49.2°C | 0.2% | 22.3hPa | 2.6V | 18:12:15 | 01:49:15 | 00:00:00 | |
| DO2JMG | 2026-09-02 01:05:44 | 52.12718 | 6.26756 | 27° | 9km/h | 26245m | 5.6m/s | -49.3°C | 0.2% | 22.3hPa | 2.5V | 18:12:15 | 01:49:14 | 00:00:00 | |
| BUE01 | 2026-09-02 01:05:44 | 52.12718 | 6.26756 | 26° | 9km/h | 26245m | 5.6m/s | -49.3°C | 0.8% | 22.3hPa | 2.5V | 00:00:00 | 00:00:00 | 00:00:00 | |
| DD1CC8 | 2026-09-02 01:05:43 | 52.12716 | 6.26755 | 29° | 5km/h | 26241m | 4.5m/s | -49.3°C | 0.9% | 22.3hPa | 2.5V | 00:00:00 | 00:00:00 | 00:00:00 | |
| DL1XH-15 | 2026-09-02 01:05:41 | 52.12708 | 6.26722 | 88° | 9km/h | 26203m | 5.9m/s | -49.4°C | 3.3% | 22.4hPa | 2.5V | 08:30:00 | 01:49:06 | 00:00:00 | |
| AA1-15 | 2026-09-02 01:05:40 | 52.12710 | 6.26739 | 69° | 18km/h | 26218m | 5.2m/s | -49.3°C | 0.3% | 22.4hPa | 2.5V | 18:12:15 | 01:49:09 | 00:00:00 | |
| DM0DOS-11 | 2026-09-02 01:05:39 | 52.12709 | 6.26732 | 72° | 16km/h | 26213m | 4.3m/s | -49.3°C | 3.3% | 22.4hPa | 2.5V | 08:30:00 | 01:49:08 | 00:00:00 | |
| HSKMA3-T | 2026-09-02 01:05:38 | 52.12709 | 6.26732 | 73° | 16km/h | 26213m | 4.3m/s | 0°C | 0% | 0hPa | 2.5V | 18:12:15 | 01:49:08 | 00:00:00 | |
| BIOWL1-15 | 2026-09-02 01:05:37 | 52.12708 | 6.26726 | 77° | 13km/h | 26209m | 5.6m/s | -49.4°C | 0.3% | 22.4hPa | 2.5V | 18:12:15 | 01:49:07 | 00:00:00 | |
| DL1XH-west | 2026-09-02 01:05:34 | 52.12708 | 6.26716 | 107° | 7km/h | 26192m | 4.7m/s | -49.4°C | 0.3% | 22.5hPa | 2.6V | 18:12:15 | 01:49:04 | 00:00:00 | |
| DO2JMG | 2026-09-02 01:05:33 | 52.12709 | 6.26713 | 91° | 9km/h | 26187m | 6.1m/s | -49.4°C | 0.3% | 22.5hPa | 2.5V | 18:12:15 | 01:49:03 | 00:00:00 | |
| DL1XH-15 | 2026-09-02 01:05:31 | 52.12694 | 6.26691 | 28° | 13km/h | 26147m | 6.3m/s | -49.3°C | 3.3% | 22.6hPa | 2.5V | 08:30:00 | 01:48:56 | 00:00:00 | |
| AA1-15 | 2026-09-02 01:05:28 | 52.12700 | 6.26695 | 11° | 13km/h | 26158m | 4.6m/s | -49.4°C | 0.3% | 22.6hPa | 2.6V | 18:12:15 | 01:48:58 | 00:00:00 | |
| BIOWL1-15 | 2026-09-02 01:05:26 | 52.12694 | 6.26691 | 28° | 13km/h | 26147m | 6.3m/s | -49.3°C | 0.3% | 22.6hPa | 2.5V | 18:12:15 | 01:48:56 | 00:00:00 | |
| DL1XH-west | 2026-09-02 01:05:24 | 52.12688 | 6.26686 | 31° | 11km/h | 26136m | 5.3m/s | -49.3°C | 0.2% | 22.7hPa | 2.6V | 18:12:15 | 01:48:54 | 00:00:00 | |
| DO2JMG | 2026-09-02 01:05:23 | 52.12686 | 6.26684 | 13° | 7km/h | 26131m | 6.7m/s | -49.3°C | 0.3% | 22.7hPa | 2.6V | 18:12:15 | 01:48:53 | 00:00:00 | |
| DO9LL-15 | 2026-09-02 01:05:23 | 52.12686 | 6.26684 | 14° | 11km/h | 26131m | 6.7m/s | -49.2°C | 3.3% | 22.7hPa | 2.5V | 00:00:00 | 01:48:53 | 00:00:00 | |
| DL4BBY-15 | 2026-09-02 01:05:22 | 52.12685 | 6.26684 | 341° | 11km/h | 26124m | 5.8m/s | -49.7°C | 0% | 0hPa | 2.5V | 00:00:00 | 00:00:00 | 00:00:00 | |
| DL1XH-15 | 2026-09-02 01:05:21 | 52.12682 | 6.26679 | 29° | 4km/h | 26091m | 6.2m/s | -49.2°C | 3.3% | 22.8hPa | 2.5V | 08:30:00 | 01:48:46 | 00:00:00 | |
| AA1-15 | 2026-09-02 01:05:17 | 52.12682 | 6.26680 | 75° | 5km/h | 26097m | 4.5m/s | -49.2°C | 0.2% | 22.8hPa | 2.6V | 18:12:15 | 01:48:47 | 00:00:00 | |
| BIOWL1-15 | 2026-09-02 01:05:16 | 52.12682 | 6.26679 | 29° | 4km/h | 26091m | 6.2m/s | -49.2°C | 0.3% | 22.8hPa | 2.5V | 18:12:15 | 01:48:46 | 00:00:00 | |
| DL1XH-west | 2026-09-02 01:05:13 | 52.12676 | 6.26681 | 355° | 13km/h | 26074m | 6.2m/s | -49.2°C | 0.3% | 22.9hPa | 2.6V | 18:12:15 | 01:48:43 | 00:00:00 | |
| DO2JMG | 2026-09-02 01:05:12 | 52.12673 | 6.26681 | 360° | 15km/h | 26069m | 5.3m/s | -49.2°C | 0.3% | 22.9hPa | 2.6V | 18:12:15 | 01:48:42 | 00:00:00 | |
| DD1CC8 | 2026-09-02 01:05:12 | 52.12673 | 6.26681 | 359° | 15km/h | 26069m | 5.3m/s | -49.2°C | 0.9% | 22.9hPa | 2.5V | 00:00:00 | 00:00:00 | 00:00:00 | |
| DL8DAS-15 | 2026-09-02 01:05:11 | 52.12669 | 6.26681 | 361° | 16km/h | 26064m | 4.1m/s | -49.2°C | 0.9% | 22.9hPa | 2.5V | 00:00:00 | 00:00:00 | 00:00:00 | |
| DM0DOS-11 | 2026-09-02 01:05:09 | 52.12657 | 6.26687 | 321° | 15km/h | 26047m | 5.1m/s | -49.2°C | 3.3% | 23hPa | 2.5V | 08:30:00 | 01:48:38 | 00:00:00 | |
| AA1-15 | 2026-09-02 01:05:07 | 52.12655 | 6.26690 | 310° | 9km/h | 26043m | 4m/s | -49.2°C | 0.3% | 23hPa | 2.6V | 18:12:15 | 01:48:37 | 00:00:00 | |
| BIOWL1-15 | 2026-09-02 01:05:05 | 52.12654 | 6.26692 | 130° | 4km/h | 26031m | 6.1m/s | -49.1°C | 0.3% | 23.1hPa | 2.5V | 18:12:15 | 01:48:35 | 00:00:00 | |
| DL1XH-west | 2026-09-02 01:05:02 | 52.12657 | 6.26690 | 237° | 4km/h | 26016m | 6m/s | -49°C | 0.3% | 23.1hPa | 2.6V | 18:12:15 | 01:48:32 | 00:00:00 | |
| DO2JMG | 2026-09-02 01:05:01 | 52.12656 | 6.26692 | 292° | 9km/h | 26010m | 5.8m/s | -49°C | 0.3% | 23.1hPa | 2.6V | 18:12:15 | 01:48:31 | 00:00:00 | |
| DJ2DS-15 | 2026-09-02 01:05:00 | 52.12651 | 6.26703 | 316° | 22km/h | 25999m | 5.2m/s | -48.9°C | 0.8% | 23.2hPa | 2.5V | 00:00:00 | 00:00:00 | 00:00:00 | |
| DM0DOS-11 | 2026-09-02 01:04:59 | 52.12646 | 6.26709 | 328° | 26km/h | 25993m | 6.3m/s | -48.9°C | 3.2% | 23.2hPa | 2.5V | 08:30:00 | 01:48:28 | 00:00:00 | |
| HSKMA3-T | 2026-09-02 01:04:58 | 52.12646 | 6.26709 | 329° | 26km/h | 25993m | 6.3m/s | 0°C | 0% | 0hPa | 2.5V | 18:12:15 | 01:48:28 | 00:00:00 | |
| AA1-15 | 2026-09-02 01:04:56 | 52.12635 | 6.26717 | 343° | 22km/h | 25982m | 4.5m/s | -48.9°C | 0.3% | 23.2hPa | 2.6V | 18:12:15 | 01:48:26 | 00:00:00 | |
| Es werden nur die letzten 3500 von 6198 Frames angezeigt. GPX/KML und Diagramme bleiben verfügbar. | |||||||||||||||